<?xml version="1.0" encoding="UTF-8"?>
<gpx version="1.1" creator="https://www.youtrack.es" xsi:schemaLocation="http://www.topografix.com/GPX/1/1 http://www.topografix.com/GPX/1/1/gpx.xsd http://www.garmin.com/xmlschemas/GpxExtensions/v3 http://www.garmin.com/xmlschemas/GpxExtensionsv3.xsd http://www.garmin.com/xmlschemas/TrackPointExtension/v1 http://www.garmin.com/xmlschemas/TrackPointExtensionv1.xsd" xmlns:gpxtpx="http://www.garmin.com/xmlschemas/TrackPointExtension/v1" xmlns:gpxx="http://www.garmin.com/xmlschemas/GpxExtensions/v3" xmlns:xsi="http://www.w3.org/2001/XMLSchema-instance">
  <metadata>
    <author>
      <name>Juanjo Amezcua Medina</name>
      <email id="juanjoamezcuamedina" domain="gmail.com"/>
    </author>
    <link href="https://www.youtrack.es">
      <text>YouTrack.es</text>
    </link>
    <time>2026-05-08T10:30:11Z</time>
  </metadata>
  <trk>
    <src>https://www.youtrack.es</src>
    <link href="https://www.youtrack.es/ruta/12634-gr247">
      <text>YouTrack.es</text>
    </link>
    <trkseg>
      <trkpt lat="38.369178" lon="-2.579002">
        <ele>777.4</ele>
        <time>1989-12-30T23:59:59Z</time>
      </trkpt>
      <trkpt lat="38.369210" lon="-2.578987">
        <ele>792.7</ele>
        <time>1989-12-30T23:59:59Z</time>
      </trkpt>
      <trkpt lat="38.369551" lon="-2.579120">
        <ele>785.5</ele>
        <time>1989-12-30T23:59:59Z</time>
      </trkpt>
      <trkpt lat="38.369752" lon="-2.579175">
        <ele>793.7</ele>
        <time>1989-12-30T23:59:59Z</time>
      </trkpt>
      <trkpt lat="38.370087" lon="-2.579679">
        <ele>789.4</ele>
        <time>1989-12-30T23:59:59Z</time>
      </trkpt>
      <trkpt lat="38.370559" lon="-2.579638">
        <ele>796.6</ele>
        <time>1989-12-30T23:59:59Z</time>
      </trkpt>
      <trkpt lat="38.370833" lon="-2.579731">
        <ele>796.6</ele>
        <time>1989-12-30T23:59:59Z</time>
      </trkpt>
      <trkpt lat="38.370982" lon="-2.580020">
        <ele>796.1</ele>
        <time>1989-12-30T23:59:59Z</time>
      </trkpt>
      <trkpt lat="38.371584" lon="-2.580509">
        <ele>795.1</ele>
        <time>1989-12-30T23:59:59Z</time>
      </trkpt>
      <trkpt lat="38.371645" lon="-2.580992">
        <ele>793.2</ele>
        <time>1989-12-30T23:59:59Z</time>
      </trkpt>
      <trkpt lat="38.372048" lon="-2.581165">
        <ele>795.6</ele>
        <time>1989-12-30T23:59:59Z</time>
      </trkpt>
      <trkpt lat="38.372352" lon="-2.581432">
        <ele>799.0</ele>
        <time>1989-12-30T23:59:59Z</time>
      </trkpt>
      <trkpt lat="38.372662" lon="-2.581547">
        <ele>806.2</ele>
        <time>1989-12-30T23:59:59Z</time>
      </trkpt>
      <trkpt lat="38.372742" lon="-2.581775">
        <ele>808.6</ele>
        <time>1989-12-30T23:59:59Z</time>
      </trkpt>
      <trkpt lat="38.373186" lon="-2.582490">
        <ele>816.3</ele>
        <time>1989-12-30T23:59:59Z</time>
      </trkpt>
      <trkpt lat="38.373462" lon="-2.582618">
        <ele>821.1</ele>
        <time>1989-12-30T23:59:59Z</time>
      </trkpt>
      <trkpt lat="38.373596" lon="-2.582786">
        <ele>822.5</ele>
        <time>1989-12-30T23:59:59Z</time>
      </trkpt>
      <trkpt lat="38.373953" lon="-2.582806">
        <ele>825.9</ele>
        <time>1989-12-30T23:59:59Z</time>
      </trkpt>
      <trkpt lat="38.374145" lon="-2.583331">
        <ele>835.5</ele>
        <time>1989-12-30T23:59:59Z</time>
      </trkpt>
      <trkpt lat="38.374106" lon="-2.583583">
        <ele>837.9</ele>
        <time>1989-12-30T23:59:59Z</time>
      </trkpt>
      <trkpt lat="38.373831" lon="-2.583934">
        <ele>836.5</ele>
        <time>1989-12-30T23:59:59Z</time>
      </trkpt>
      <trkpt lat="38.373917" lon="-2.584245">
        <ele>837.0</ele>
        <time>1989-12-30T23:59:59Z</time>
      </trkpt>
      <trkpt lat="38.373904" lon="-2.584304">
        <ele>843.2</ele>
        <time>1989-12-30T23:59:59Z</time>
      </trkpt>
      <trkpt lat="38.373842" lon="-2.585206">
        <ele>846.6</ele>
        <time>1989-12-30T23:59:59Z</time>
      </trkpt>
      <trkpt lat="38.373686" lon="-2.585357">
        <ele>846.1</ele>
        <time>1989-12-30T23:59:59Z</time>
      </trkpt>
      <trkpt lat="38.373492" lon="-2.585436">
        <ele>850.4</ele>
        <time>1989-12-30T23:59:59Z</time>
      </trkpt>
      <trkpt lat="38.373406" lon="-2.585762">
        <ele>852.3</ele>
        <time>1989-12-30T23:59:59Z</time>
      </trkpt>
      <trkpt lat="38.373238" lon="-2.585937">
        <ele>859.6</ele>
        <time>1989-12-30T23:59:59Z</time>
      </trkpt>
      <trkpt lat="38.373327" lon="-2.586055">
        <ele>859.6</ele>
        <time>1989-12-30T23:59:59Z</time>
      </trkpt>
      <trkpt lat="38.373455" lon="-2.586208">
        <ele>882.1</ele>
        <time>1989-12-30T23:59:59Z</time>
      </trkpt>
      <trkpt lat="38.373501" lon="-2.586394">
        <ele>877.3</ele>
        <time>1989-12-30T23:59:59Z</time>
      </trkpt>
      <trkpt lat="38.373345" lon="-2.587053">
        <ele>872.1</ele>
        <time>1989-12-30T23:59:59Z</time>
      </trkpt>
      <trkpt lat="38.373239" lon="-2.587741">
        <ele>880.2</ele>
        <time>1989-12-30T23:59:59Z</time>
      </trkpt>
      <trkpt lat="38.373238" lon="-2.587847">
        <ele>876.9</ele>
        <time>1989-12-30T23:59:59Z</time>
      </trkpt>
      <trkpt lat="38.373282" lon="-2.588216">
        <ele>882.6</ele>
        <time>1989-12-30T23:59:59Z</time>
      </trkpt>
      <trkpt lat="38.373145" lon="-2.588490">
        <ele>879.7</ele>
        <time>1989-12-30T23:59:59Z</time>
      </trkpt>
      <trkpt lat="38.373268" lon="-2.588925">
        <ele>884.6</ele>
        <time>1989-12-30T23:59:59Z</time>
      </trkpt>
      <trkpt lat="38.373128" lon="-2.589477">
        <ele>885.0</ele>
        <time>1989-12-30T23:59:59Z</time>
      </trkpt>
      <trkpt lat="38.373174" lon="-2.590082">
        <ele>886.0</ele>
        <time>1989-12-30T23:59:59Z</time>
      </trkpt>
      <trkpt lat="38.373229" lon="-2.590210">
        <ele>892.7</ele>
        <time>1989-12-30T23:59:59Z</time>
      </trkpt>
      <trkpt lat="38.373235" lon="-2.590388">
        <ele>886.0</ele>
        <time>1989-12-30T23:59:59Z</time>
      </trkpt>
      <trkpt lat="38.373234" lon="-2.590701">
        <ele>892.7</ele>
        <time>1989-12-30T23:59:59Z</time>
      </trkpt>
      <trkpt lat="38.373184" lon="-2.591550">
        <ele>893.2</ele>
        <time>1989-12-30T23:59:59Z</time>
      </trkpt>
      <trkpt lat="38.372937" lon="-2.592630">
        <ele>893.2</ele>
        <time>1989-12-30T23:59:59Z</time>
      </trkpt>
      <trkpt lat="38.372966" lon="-2.592748">
        <ele>896.1</ele>
        <time>1989-12-30T23:59:59Z</time>
      </trkpt>
      <trkpt lat="38.372859" lon="-2.593494">
        <ele>895.6</ele>
        <time>1989-12-30T23:59:59Z</time>
      </trkpt>
      <trkpt lat="38.372701" lon="-2.594174">
        <ele>899.0</ele>
        <time>1989-12-30T23:59:59Z</time>
      </trkpt>
      <trkpt lat="38.372663" lon="-2.594643">
        <ele>897.5</ele>
        <time>1989-12-30T23:59:59Z</time>
      </trkpt>
      <trkpt lat="38.372527" lon="-2.595237">
        <ele>897.0</ele>
        <time>1989-12-30T23:59:59Z</time>
      </trkpt>
      <trkpt lat="38.372572" lon="-2.595913">
        <ele>897.0</ele>
        <time>1989-12-30T23:59:59Z</time>
      </trkpt>
      <trkpt lat="38.372641" lon="-2.596216">
        <ele>901.9</ele>
        <time>1989-12-30T23:59:59Z</time>
      </trkpt>
      <trkpt lat="38.372610" lon="-2.596426">
        <ele>899.9</ele>
        <time>1989-12-30T23:59:59Z</time>
      </trkpt>
      <trkpt lat="38.372533" lon="-2.596721">
        <ele>909.1</ele>
        <time>1989-12-30T23:59:59Z</time>
      </trkpt>
      <trkpt lat="38.372186" lon="-2.597505">
        <ele>904.3</ele>
        <time>1989-12-30T23:59:59Z</time>
      </trkpt>
      <trkpt lat="38.372116" lon="-2.597668">
        <ele>918.2</ele>
        <time>1989-12-30T23:59:59Z</time>
      </trkpt>
      <trkpt lat="38.371866" lon="-2.598064">
        <ele>906.2</ele>
        <time>1989-12-30T23:59:59Z</time>
      </trkpt>
      <trkpt lat="38.371645" lon="-2.598618">
        <ele>907.6</ele>
        <time>1989-12-30T23:59:59Z</time>
      </trkpt>
      <trkpt lat="38.371342" lon="-2.599075">
        <ele>909.5</ele>
        <time>1989-12-30T23:59:59Z</time>
      </trkpt>
      <trkpt lat="38.371373" lon="-2.599539">
        <ele>909.5</ele>
        <time>1989-12-30T23:59:59Z</time>
      </trkpt>
      <trkpt lat="38.371322" lon="-2.599650">
        <ele>924.9</ele>
        <time>1989-12-30T23:59:59Z</time>
      </trkpt>
      <trkpt lat="38.370923" lon="-2.599800">
        <ele>917.2</ele>
        <time>1989-12-30T23:59:59Z</time>
      </trkpt>
      <trkpt lat="38.370558" lon="-2.599904">
        <ele>916.3</ele>
        <time>1989-12-30T23:59:59Z</time>
      </trkpt>
      <trkpt lat="38.370328" lon="-2.600301">
        <ele>908.6</ele>
        <time>1989-12-30T23:59:59Z</time>
      </trkpt>
      <trkpt lat="38.369474" lon="-2.601792">
        <ele>902.3</ele>
        <time>1989-12-30T23:59:59Z</time>
      </trkpt>
      <trkpt lat="38.369351" lon="-2.601956">
        <ele>902.8</ele>
        <time>1989-12-30T23:59:59Z</time>
      </trkpt>
      <trkpt lat="38.368765" lon="-2.602287">
        <ele>902.8</ele>
        <time>1989-12-30T23:59:59Z</time>
      </trkpt>
      <trkpt lat="38.368741" lon="-2.602397">
        <ele>902.3</ele>
        <time>1989-12-30T23:59:59Z</time>
      </trkpt>
      <trkpt lat="38.368941" lon="-2.602857">
        <ele>900.9</ele>
        <time>1989-12-30T23:59:59Z</time>
      </trkpt>
      <trkpt lat="38.369067" lon="-2.603471">
        <ele>901.9</ele>
        <time>1989-12-30T23:59:59Z</time>
      </trkpt>
      <trkpt lat="38.369015" lon="-2.604003">
        <ele>901.4</ele>
        <time>1989-12-30T23:59:59Z</time>
      </trkpt>
      <trkpt lat="38.368770" lon="-2.604660">
        <ele>904.3</ele>
        <time>1989-12-30T23:59:59Z</time>
      </trkpt>
      <trkpt lat="38.368588" lon="-2.605624">
        <ele>906.2</ele>
        <time>1989-12-30T23:59:59Z</time>
      </trkpt>
      <trkpt lat="38.368465" lon="-2.606066">
        <ele>914.4</ele>
        <time>1989-12-30T23:59:59Z</time>
      </trkpt>
      <trkpt lat="38.368217" lon="-2.606880">
        <ele>907.1</ele>
        <time>1989-12-30T23:59:59Z</time>
      </trkpt>
      <trkpt lat="38.368180" lon="-2.606991">
        <ele>907.6</ele>
        <time>1989-12-30T23:59:59Z</time>
      </trkpt>
      <trkpt lat="38.368176" lon="-2.607135">
        <ele>910.0</ele>
        <time>1989-12-30T23:59:59Z</time>
      </trkpt>
      <trkpt lat="38.368184" lon="-2.607239">
        <ele>911.9</ele>
        <time>1989-12-30T23:59:59Z</time>
      </trkpt>
      <trkpt lat="38.367971" lon="-2.608132">
        <ele>901.4</ele>
        <time>1989-12-30T23:59:59Z</time>
      </trkpt>
      <trkpt lat="38.367821" lon="-2.608454">
        <ele>894.2</ele>
        <time>1989-12-30T23:59:59Z</time>
      </trkpt>
      <trkpt lat="38.367828" lon="-2.608610">
        <ele>903.3</ele>
        <time>1989-12-30T23:59:59Z</time>
      </trkpt>
      <trkpt lat="38.367760" lon="-2.608792">
        <ele>905.7</ele>
        <time>1989-12-30T23:59:59Z</time>
      </trkpt>
      <trkpt lat="38.367602" lon="-2.608884">
        <ele>893.7</ele>
        <time>1989-12-30T23:59:59Z</time>
      </trkpt>
      <trkpt lat="38.367369" lon="-2.608948">
        <ele>892.2</ele>
        <time>1989-12-30T23:59:59Z</time>
      </trkpt>
      <trkpt lat="38.367162" lon="-2.609134">
        <ele>889.4</ele>
        <time>1989-12-30T23:59:59Z</time>
      </trkpt>
      <trkpt lat="38.366624" lon="-2.610084">
        <ele>891.3</ele>
        <time>1989-12-30T23:59:59Z</time>
      </trkpt>
      <trkpt lat="38.366359" lon="-2.611165">
        <ele>881.7</ele>
        <time>1989-12-30T23:59:59Z</time>
      </trkpt>
      <trkpt lat="38.366130" lon="-2.611379">
        <ele>877.8</ele>
        <time>1989-12-30T23:59:59Z</time>
      </trkpt>
      <trkpt lat="38.365927" lon="-2.611484">
        <ele>871.1</ele>
        <time>1989-12-30T23:59:59Z</time>
      </trkpt>
      <trkpt lat="38.365828" lon="-2.611537">
        <ele>875.9</ele>
        <time>1989-12-30T23:59:59Z</time>
      </trkpt>
      <trkpt lat="38.365749" lon="-2.611613">
        <ele>873.5</ele>
        <time>1989-12-30T23:59:59Z</time>
      </trkpt>
      <trkpt lat="38.365658" lon="-2.611832">
        <ele>872.1</ele>
        <time>1989-12-30T23:59:59Z</time>
      </trkpt>
      <trkpt lat="38.365460" lon="-2.612086">
        <ele>870.1</ele>
        <time>1989-12-30T23:59:59Z</time>
      </trkpt>
      <trkpt lat="38.365374" lon="-2.612420">
        <ele>869.6</ele>
        <time>1989-12-30T23:59:59Z</time>
      </trkpt>
      <trkpt lat="38.365097" lon="-2.612945">
        <ele>870.1</ele>
        <time>1989-12-30T23:59:59Z</time>
      </trkpt>
      <trkpt lat="38.365005" lon="-2.613074">
        <ele>884.6</ele>
        <time>1989-12-30T23:59:59Z</time>
      </trkpt>
      <trkpt lat="38.364907" lon="-2.613195">
        <ele>871.6</ele>
        <time>1989-12-30T23:59:59Z</time>
      </trkpt>
      <trkpt lat="38.364364" lon="-2.613849">
        <ele>864.8</ele>
        <time>1989-12-30T23:59:59Z</time>
      </trkpt>
      <trkpt lat="38.363984" lon="-2.614420">
        <ele>857.2</ele>
        <time>1989-12-30T23:59:59Z</time>
      </trkpt>
      <trkpt lat="38.363322" lon="-2.614943">
        <ele>849.0</ele>
        <time>1989-12-30T23:59:59Z</time>
      </trkpt>
      <trkpt lat="38.362248" lon="-2.615001">
        <ele>839.4</ele>
        <time>1989-12-30T23:59:59Z</time>
      </trkpt>
      <trkpt lat="38.361941" lon="-2.614787">
        <ele>838.9</ele>
        <time>1989-12-30T23:59:59Z</time>
      </trkpt>
      <trkpt lat="38.361929" lon="-2.614795">
        <ele>834.6</ele>
        <time>1989-12-30T23:59:59Z</time>
      </trkpt>
      <trkpt lat="38.361836" lon="-2.614572">
        <ele>827.4</ele>
        <time>1989-12-30T23:59:59Z</time>
      </trkpt>
      <trkpt lat="38.361721" lon="-2.614519">
        <ele>834.6</ele>
        <time>1989-12-30T23:59:59Z</time>
      </trkpt>
      <trkpt lat="38.361604" lon="-2.614339">
        <ele>833.6</ele>
        <time>1989-12-30T23:59:59Z</time>
      </trkpt>
      <trkpt lat="38.361243" lon="-2.614621">
        <ele>831.7</ele>
        <time>1989-12-30T23:59:59Z</time>
      </trkpt>
      <trkpt lat="38.360929" lon="-2.615081">
        <ele>830.7</ele>
        <time>1989-12-30T23:59:59Z</time>
      </trkpt>
      <trkpt lat="38.360482" lon="-2.615325">
        <ele>825.9</ele>
        <time>1989-12-30T23:59:59Z</time>
      </trkpt>
      <trkpt lat="38.360391" lon="-2.615320">
        <ele>824.9</ele>
        <time>1989-12-30T23:59:59Z</time>
      </trkpt>
      <trkpt lat="38.360301" lon="-2.615266">
        <ele>833.1</ele>
        <time>1989-12-30T23:59:59Z</time>
      </trkpt>
      <trkpt lat="38.360117" lon="-2.615192">
        <ele>830.7</ele>
        <time>1989-12-30T23:59:59Z</time>
      </trkpt>
      <trkpt lat="38.359929" lon="-2.615227">
        <ele>825.4</ele>
        <time>1989-12-30T23:59:59Z</time>
      </trkpt>
      <trkpt lat="38.359234" lon="-2.614749">
        <ele>820.1</ele>
        <time>1989-12-30T23:59:59Z</time>
      </trkpt>
      <trkpt lat="38.359160" lon="-2.614783">
        <ele>814.4</ele>
        <time>1989-12-30T23:59:59Z</time>
      </trkpt>
      <trkpt lat="38.358986" lon="-2.615083">
        <ele>815.8</ele>
        <time>1989-12-30T23:59:59Z</time>
      </trkpt>
      <trkpt lat="38.358893" lon="-2.615135">
        <ele>815.8</ele>
        <time>1989-12-30T23:59:59Z</time>
      </trkpt>
      <trkpt lat="38.358595" lon="-2.615143">
        <ele>813.4</ele>
        <time>1989-12-30T23:59:59Z</time>
      </trkpt>
      <trkpt lat="38.357880" lon="-2.615601">
        <ele>808.6</ele>
        <time>1989-12-30T23:59:59Z</time>
      </trkpt>
      <trkpt lat="38.357335" lon="-2.615723">
        <ele>801.4</ele>
        <time>1989-12-30T23:59:59Z</time>
      </trkpt>
      <trkpt lat="38.357322" lon="-2.615771">
        <ele>802.4</ele>
        <time>1989-12-30T23:59:59Z</time>
      </trkpt>
      <trkpt lat="38.357397" lon="-2.615794">
        <ele>800.0</ele>
        <time>1989-12-30T23:59:59Z</time>
      </trkpt>
      <trkpt lat="38.357557" lon="-2.615761">
        <ele>796.1</ele>
        <time>1989-12-30T23:59:59Z</time>
      </trkpt>
      <trkpt lat="38.357841" lon="-2.615860">
        <ele>800.0</ele>
        <time>1989-12-30T23:59:59Z</time>
      </trkpt>
      <trkpt lat="38.358229" lon="-2.615824">
        <ele>794.7</ele>
        <time>1989-12-30T23:59:59Z</time>
      </trkpt>
      <trkpt lat="38.358393" lon="-2.615896">
        <ele>790.3</ele>
        <time>1989-12-30T23:59:59Z</time>
      </trkpt>
      <trkpt lat="38.357938" lon="-2.616125">
        <ele>790.3</ele>
        <time>1989-12-30T23:59:59Z</time>
      </trkpt>
      <trkpt lat="38.357450" lon="-2.616110">
        <ele>792.3</ele>
        <time>1989-12-30T23:59:59Z</time>
      </trkpt>
      <trkpt lat="38.356983" lon="-2.616202">
        <ele>788.4</ele>
        <time>1989-12-30T23:59:59Z</time>
      </trkpt>
      <trkpt lat="38.356630" lon="-2.616388">
        <ele>788.4</ele>
        <time>1989-12-30T23:59:59Z</time>
      </trkpt>
      <trkpt lat="38.356320" lon="-2.616654">
        <ele>788.9</ele>
        <time>1989-12-30T23:59:59Z</time>
      </trkpt>
      <trkpt lat="38.356302" lon="-2.616730">
        <ele>799.5</ele>
        <time>1989-12-30T23:59:59Z</time>
      </trkpt>
      <trkpt lat="38.356206" lon="-2.616962">
        <ele>791.8</ele>
        <time>1989-12-30T23:59:59Z</time>
      </trkpt>
      <trkpt lat="38.356325" lon="-2.617392">
        <ele>795.6</ele>
        <time>1989-12-30T23:59:59Z</time>
      </trkpt>
      <trkpt lat="38.356120" lon="-2.618069">
        <ele>797.1</ele>
        <time>1989-12-30T23:59:59Z</time>
      </trkpt>
      <trkpt lat="38.356111" lon="-2.618186">
        <ele>800.0</ele>
        <time>1989-12-30T23:59:59Z</time>
      </trkpt>
      <trkpt lat="38.356082" lon="-2.618245">
        <ele>808.1</ele>
        <time>1989-12-30T23:59:59Z</time>
      </trkpt>
      <trkpt lat="38.356109" lon="-2.618497">
        <ele>798.5</ele>
        <time>1989-12-30T23:59:59Z</time>
      </trkpt>
      <trkpt lat="38.356053" lon="-2.618954">
        <ele>801.4</ele>
        <time>1989-12-30T23:59:59Z</time>
      </trkpt>
      <trkpt lat="38.355827" lon="-2.619356">
        <ele>811.0</ele>
        <time>1989-12-30T23:59:59Z</time>
      </trkpt>
      <trkpt lat="38.355317" lon="-2.619908">
        <ele>819.7</ele>
        <time>1989-12-30T23:59:59Z</time>
      </trkpt>
      <trkpt lat="38.354969" lon="-2.620523">
        <ele>828.3</ele>
        <time>1989-12-30T23:59:59Z</time>
      </trkpt>
      <trkpt lat="38.354713" lon="-2.620735">
        <ele>831.2</ele>
        <time>1989-12-30T23:59:59Z</time>
      </trkpt>
      <trkpt lat="38.354347" lon="-2.621047">
        <ele>845.6</ele>
        <time>1989-12-30T23:59:59Z</time>
      </trkpt>
      <trkpt lat="38.354117" lon="-2.621251">
        <ele>844.7</ele>
        <time>1989-12-30T23:59:59Z</time>
      </trkpt>
      <trkpt lat="38.353084" lon="-2.621688">
        <ele>845.1</ele>
        <time>1989-12-30T23:59:59Z</time>
      </trkpt>
      <trkpt lat="38.352716" lon="-2.621866">
        <ele>855.2</ele>
        <time>1989-12-30T23:59:59Z</time>
      </trkpt>
      <trkpt lat="38.351999" lon="-2.622106">
        <ele>860.0</ele>
        <time>1989-12-30T23:59:59Z</time>
      </trkpt>
      <trkpt lat="38.351835" lon="-2.622219">
        <ele>857.2</ele>
        <time>1989-12-30T23:59:59Z</time>
      </trkpt>
      <trkpt lat="38.351475" lon="-2.622651">
        <ele>864.4</ele>
        <time>1989-12-30T23:59:59Z</time>
      </trkpt>
      <trkpt lat="38.351307" lon="-2.622754">
        <ele>865.8</ele>
        <time>1989-12-30T23:59:59Z</time>
      </trkpt>
      <trkpt lat="38.350820" lon="-2.622735">
        <ele>868.7</ele>
        <time>1989-12-30T23:59:59Z</time>
      </trkpt>
      <trkpt lat="38.350542" lon="-2.622895">
        <ele>870.6</ele>
        <time>1989-12-30T23:59:59Z</time>
      </trkpt>
      <trkpt lat="38.350167" lon="-2.623017">
        <ele>860.0</ele>
        <time>1989-12-30T23:59:59Z</time>
      </trkpt>
      <trkpt lat="38.350113" lon="-2.623047">
        <ele>873.5</ele>
        <time>1989-12-30T23:59:59Z</time>
      </trkpt>
      <trkpt lat="38.349840" lon="-2.623172">
        <ele>870.1</ele>
        <time>1989-12-30T23:59:59Z</time>
      </trkpt>
      <trkpt lat="38.349474" lon="-2.623574">
        <ele>876.9</ele>
        <time>1989-12-30T23:59:59Z</time>
      </trkpt>
      <trkpt lat="38.349186" lon="-2.623621">
        <ele>857.6</ele>
        <time>1989-12-30T23:59:59Z</time>
      </trkpt>
      <trkpt lat="38.349113" lon="-2.623671">
        <ele>842.3</ele>
        <time>1989-12-30T23:59:59Z</time>
      </trkpt>
      <trkpt lat="38.348888" lon="-2.623951">
        <ele>879.7</ele>
        <time>1989-12-30T23:59:59Z</time>
      </trkpt>
      <trkpt lat="38.348806" lon="-2.624047">
        <ele>878.8</ele>
        <time>1989-12-30T23:59:59Z</time>
      </trkpt>
      <trkpt lat="38.348696" lon="-2.624139">
        <ele>877.3</ele>
        <time>1989-12-30T23:59:59Z</time>
      </trkpt>
      <trkpt lat="38.348362" lon="-2.624459">
        <ele>881.2</ele>
        <time>1989-12-30T23:59:59Z</time>
      </trkpt>
      <trkpt lat="38.348288" lon="-2.624647">
        <ele>875.9</ele>
        <time>1989-12-30T23:59:59Z</time>
      </trkpt>
      <trkpt lat="38.348196" lon="-2.624938">
        <ele>877.8</ele>
        <time>1989-12-30T23:59:59Z</time>
      </trkpt>
      <trkpt lat="38.348185" lon="-2.625055">
        <ele>883.6</ele>
        <time>1989-12-30T23:59:59Z</time>
      </trkpt>
      <trkpt lat="38.348172" lon="-2.625183">
        <ele>882.1</ele>
        <time>1989-12-30T23:59:59Z</time>
      </trkpt>
      <trkpt lat="38.347481" lon="-2.625406">
        <ele>891.8</ele>
        <time>1989-12-30T23:59:59Z</time>
      </trkpt>
      <trkpt lat="38.346843" lon="-2.625724">
        <ele>890.3</ele>
        <time>1989-12-30T23:59:59Z</time>
      </trkpt>
      <trkpt lat="38.346539" lon="-2.625711">
        <ele>893.7</ele>
        <time>1989-12-30T23:59:59Z</time>
      </trkpt>
      <trkpt lat="38.346226" lon="-2.625493">
        <ele>908.1</ele>
        <time>1989-12-30T23:59:59Z</time>
      </trkpt>
      <trkpt lat="38.346057" lon="-2.625328">
        <ele>903.8</ele>
        <time>1989-12-30T23:59:59Z</time>
      </trkpt>
      <trkpt lat="38.345960" lon="-2.625334">
        <ele>905.2</ele>
        <time>1989-12-30T23:59:59Z</time>
      </trkpt>
      <trkpt lat="38.345758" lon="-2.625416">
        <ele>908.1</ele>
        <time>1989-12-30T23:59:59Z</time>
      </trkpt>
      <trkpt lat="38.345589" lon="-2.625464">
        <ele>904.3</ele>
        <time>1989-12-30T23:59:59Z</time>
      </trkpt>
      <trkpt lat="38.345313" lon="-2.625685">
        <ele>906.2</ele>
        <time>1989-12-30T23:59:59Z</time>
      </trkpt>
      <trkpt lat="38.344978" lon="-2.626037">
        <ele>917.7</ele>
        <time>1989-12-30T23:59:59Z</time>
      </trkpt>
      <trkpt lat="38.344631" lon="-2.626272">
        <ele>929.3</ele>
        <time>1989-12-30T23:59:59Z</time>
      </trkpt>
      <trkpt lat="38.344541" lon="-2.626202">
        <ele>937.9</ele>
        <time>1989-12-30T23:59:59Z</time>
      </trkpt>
      <trkpt lat="38.344696" lon="-2.625950">
        <ele>932.1</ele>
        <time>1989-12-30T23:59:59Z</time>
      </trkpt>
      <trkpt lat="38.344669" lon="-2.625850">
        <ele>933.6</ele>
        <time>1989-12-30T23:59:59Z</time>
      </trkpt>
      <trkpt lat="38.344586" lon="-2.625901">
        <ele>943.7</ele>
        <time>1989-12-30T23:59:59Z</time>
      </trkpt>
      <trkpt lat="38.344489" lon="-2.625860">
        <ele>923.5</ele>
        <time>1989-12-30T23:59:59Z</time>
      </trkpt>
      <trkpt lat="38.344205" lon="-2.626163">
        <ele>942.7</ele>
        <time>1989-12-30T23:59:59Z</time>
      </trkpt>
      <trkpt lat="38.343902" lon="-2.626411">
        <ele>951.4</ele>
        <time>1989-12-30T23:59:59Z</time>
      </trkpt>
      <trkpt lat="38.343648" lon="-2.626502">
        <ele>954.2</ele>
        <time>1989-12-30T23:59:59Z</time>
      </trkpt>
      <trkpt lat="38.343088" lon="-2.627224">
        <ele>960.0</ele>
        <time>1989-12-30T23:59:59Z</time>
      </trkpt>
      <trkpt lat="38.342788" lon="-2.627279">
        <ele>962.9</ele>
        <time>1989-12-30T23:59:59Z</time>
      </trkpt>
      <trkpt lat="38.342697" lon="-2.627341">
        <ele>972.5</ele>
        <time>1989-12-30T23:59:59Z</time>
      </trkpt>
      <trkpt lat="38.342282" lon="-2.627569">
        <ele>978.3</ele>
        <time>1989-12-30T23:59:59Z</time>
      </trkpt>
      <trkpt lat="38.342196" lon="-2.627710">
        <ele>987.9</ele>
        <time>1989-12-30T23:59:59Z</time>
      </trkpt>
      <trkpt lat="38.342013" lon="-2.627778">
        <ele>973.5</ele>
        <time>1989-12-30T23:59:59Z</time>
      </trkpt>
      <trkpt lat="38.341703" lon="-2.628076">
        <ele>974.9</ele>
        <time>1989-12-30T23:59:59Z</time>
      </trkpt>
      <trkpt lat="38.341679" lon="-2.628059">
        <ele>983.6</ele>
        <time>1989-12-30T23:59:59Z</time>
      </trkpt>
      <trkpt lat="38.341474" lon="-2.628229">
        <ele>991.3</ele>
        <time>1989-12-30T23:59:59Z</time>
      </trkpt>
      <trkpt lat="38.341446" lon="-2.628082">
        <ele>988.9</ele>
        <time>1989-12-30T23:59:59Z</time>
      </trkpt>
      <trkpt lat="38.341642" lon="-2.627768">
        <ele>991.7</ele>
        <time>1989-12-30T23:59:59Z</time>
      </trkpt>
      <trkpt lat="38.341776" lon="-2.627311">
        <ele>992.2</ele>
        <time>1989-12-30T23:59:59Z</time>
      </trkpt>
      <trkpt lat="38.341611" lon="-2.627164">
        <ele>990.8</ele>
        <time>1989-12-30T23:59:59Z</time>
      </trkpt>
      <trkpt lat="38.341122" lon="-2.627022">
        <ele>995.6</ele>
        <time>1989-12-30T23:59:59Z</time>
      </trkpt>
      <trkpt lat="38.341158" lon="-2.626904">
        <ele>995.1</ele>
        <time>1989-12-30T23:59:59Z</time>
      </trkpt>
      <trkpt lat="38.341248" lon="-2.626822">
        <ele>996.5</ele>
        <time>1989-12-30T23:59:59Z</time>
      </trkpt>
      <trkpt lat="38.341637" lon="-2.626680">
        <ele>998.0</ele>
        <time>1989-12-30T23:59:59Z</time>
      </trkpt>
      <trkpt lat="38.341766" lon="-2.626520">
        <ele>998.5</ele>
        <time>1989-12-30T23:59:59Z</time>
      </trkpt>
      <trkpt lat="38.341960" lon="-2.626462">
        <ele>1001.4</ele>
        <time>1989-12-30T23:59:59Z</time>
      </trkpt>
      <trkpt lat="38.342016" lon="-2.626382">
        <ele>1002.3</ele>
        <time>1989-12-30T23:59:59Z</time>
      </trkpt>
      <trkpt lat="38.341977" lon="-2.626252">
        <ele>1003.8</ele>
        <time>1989-12-30T23:59:59Z</time>
      </trkpt>
      <trkpt lat="38.341779" lon="-2.625823">
        <ele>1003.8</ele>
        <time>1989-12-30T23:59:59Z</time>
      </trkpt>
      <trkpt lat="38.341798" lon="-2.625721">
        <ele>1003.3</ele>
        <time>1989-12-30T23:59:59Z</time>
      </trkpt>
      <trkpt lat="38.341342" lon="-2.625176">
        <ele>1003.3</ele>
        <time>1989-12-30T23:59:59Z</time>
      </trkpt>
      <trkpt lat="38.341291" lon="-2.624687">
        <ele>1008.1</ele>
        <time>1989-12-30T23:59:59Z</time>
      </trkpt>
      <trkpt lat="38.341083" lon="-2.624432">
        <ele>1011.0</ele>
        <time>1989-12-30T23:59:59Z</time>
      </trkpt>
      <trkpt lat="38.340839" lon="-2.623884">
        <ele>1011.0</ele>
        <time>1989-12-30T23:59:59Z</time>
      </trkpt>
      <trkpt lat="38.340523" lon="-2.623616">
        <ele>1012.4</ele>
        <time>1989-12-30T23:59:59Z</time>
      </trkpt>
      <trkpt lat="38.340424" lon="-2.623392">
        <ele>1013.8</ele>
        <time>1989-12-30T23:59:59Z</time>
      </trkpt>
      <trkpt lat="38.339826" lon="-2.622947">
        <ele>1019.1</ele>
        <time>1989-12-30T23:59:59Z</time>
      </trkpt>
      <trkpt lat="38.339728" lon="-2.622808">
        <ele>1020.1</ele>
        <time>1989-12-30T23:59:59Z</time>
      </trkpt>
      <trkpt lat="38.339711" lon="-2.622674">
        <ele>1019.1</ele>
        <time>1989-12-30T23:59:59Z</time>
      </trkpt>
      <trkpt lat="38.340031" lon="-2.621820">
        <ele>1022.5</ele>
        <time>1989-12-30T23:59:59Z</time>
      </trkpt>
      <trkpt lat="38.340295" lon="-2.621491">
        <ele>1027.8</ele>
        <time>1989-12-30T23:59:59Z</time>
      </trkpt>
      <trkpt lat="38.340551" lon="-2.621670">
        <ele>1025.9</ele>
        <time>1989-12-30T23:59:59Z</time>
      </trkpt>
      <trkpt lat="38.340640" lon="-2.621659">
        <ele>1025.4</ele>
        <time>1989-12-30T23:59:59Z</time>
      </trkpt>
      <trkpt lat="38.340792" lon="-2.621503">
        <ele>1024.9</ele>
        <time>1989-12-30T23:59:59Z</time>
      </trkpt>
      <trkpt lat="38.340813" lon="-2.621410">
        <ele>1036.0</ele>
        <time>1989-12-30T23:59:59Z</time>
      </trkpt>
      <trkpt lat="38.340904" lon="-2.621285">
        <ele>1036.4</ele>
        <time>1989-12-30T23:59:59Z</time>
      </trkpt>
      <trkpt lat="38.340926" lon="-2.621142">
        <ele>1029.2</ele>
        <time>1989-12-30T23:59:59Z</time>
      </trkpt>
      <trkpt lat="38.341153" lon="-2.620417">
        <ele>1034.5</ele>
        <time>1989-12-30T23:59:59Z</time>
      </trkpt>
      <trkpt lat="38.341131" lon="-2.620039">
        <ele>1036.9</ele>
        <time>1989-12-30T23:59:59Z</time>
      </trkpt>
      <trkpt lat="38.340810" lon="-2.619574">
        <ele>1041.2</ele>
        <time>1989-12-30T23:59:59Z</time>
      </trkpt>
      <trkpt lat="38.340571" lon="-2.618739">
        <ele>1052.3</ele>
        <time>1989-12-30T23:59:59Z</time>
      </trkpt>
      <trkpt lat="38.340548" lon="-2.618635">
        <ele>1047.0</ele>
        <time>1989-12-30T23:59:59Z</time>
      </trkpt>
      <trkpt lat="38.340265" lon="-2.618739">
        <ele>1050.9</ele>
        <time>1989-12-30T23:59:59Z</time>
      </trkpt>
      <trkpt lat="38.340122" lon="-2.619251">
        <ele>1059.5</ele>
        <time>1989-12-30T23:59:59Z</time>
      </trkpt>
      <trkpt lat="38.339908" lon="-2.619492">
        <ele>1058.5</ele>
        <time>1989-12-30T23:59:59Z</time>
      </trkpt>
      <trkpt lat="38.339732" lon="-2.619926">
        <ele>1061.9</ele>
        <time>1989-12-30T23:59:59Z</time>
      </trkpt>
      <trkpt lat="38.339546" lon="-2.620031">
        <ele>1062.4</ele>
        <time>1989-12-30T23:59:59Z</time>
      </trkpt>
      <trkpt lat="38.339014" lon="-2.620006">
        <ele>1059.0</ele>
        <time>1989-12-30T23:59:59Z</time>
      </trkpt>
      <trkpt lat="38.338936" lon="-2.620244">
        <ele>1059.0</ele>
        <time>1989-12-30T23:59:59Z</time>
      </trkpt>
      <trkpt lat="38.338951" lon="-2.620631">
        <ele>1059.0</ele>
        <time>1989-12-30T23:59:59Z</time>
      </trkpt>
      <trkpt lat="38.338875" lon="-2.620965">
        <ele>1061.0</ele>
        <time>1989-12-30T23:59:59Z</time>
      </trkpt>
      <trkpt lat="38.338801" lon="-2.621041">
        <ele>1061.4</ele>
        <time>1989-12-30T23:59:59Z</time>
      </trkpt>
      <trkpt lat="38.337947" lon="-2.621202">
        <ele>1065.8</ele>
        <time>1989-12-30T23:59:59Z</time>
      </trkpt>
      <trkpt lat="38.337530" lon="-2.621524">
        <ele>1073.9</ele>
        <time>1989-12-30T23:59:59Z</time>
      </trkpt>
      <trkpt lat="38.337281" lon="-2.621605">
        <ele>1074.9</ele>
        <time>1989-12-30T23:59:59Z</time>
      </trkpt>
      <trkpt lat="38.337104" lon="-2.621567">
        <ele>1072.5</ele>
        <time>1989-12-30T23:59:59Z</time>
      </trkpt>
      <trkpt lat="38.337028" lon="-2.621471">
        <ele>1069.6</ele>
        <time>1989-12-30T23:59:59Z</time>
      </trkpt>
      <trkpt lat="38.336894" lon="-2.621452">
        <ele>1073.0</ele>
        <time>1989-12-30T23:59:59Z</time>
      </trkpt>
      <trkpt lat="38.336744" lon="-2.621314">
        <ele>1071.0</ele>
        <time>1989-12-30T23:59:59Z</time>
      </trkpt>
      <trkpt lat="38.336487" lon="-2.621212">
        <ele>1060.5</ele>
        <time>1989-12-30T23:59:59Z</time>
      </trkpt>
      <trkpt lat="38.336216" lon="-2.621245">
        <ele>1055.7</ele>
        <time>1989-12-30T23:59:59Z</time>
      </trkpt>
      <trkpt lat="38.336064" lon="-2.621373">
        <ele>1053.7</ele>
        <time>1989-12-30T23:59:59Z</time>
      </trkpt>
      <trkpt lat="38.336003" lon="-2.621594">
        <ele>1052.8</ele>
        <time>1989-12-30T23:59:59Z</time>
      </trkpt>
      <trkpt lat="38.335607" lon="-2.621672">
        <ele>1046.1</ele>
        <time>1989-12-30T23:59:59Z</time>
      </trkpt>
      <trkpt lat="38.335332" lon="-2.621677">
        <ele>1047.0</ele>
        <time>1989-12-30T23:59:59Z</time>
      </trkpt>
      <trkpt lat="38.335061" lon="-2.621776">
        <ele>1045.1</ele>
        <time>1989-12-30T23:59:59Z</time>
      </trkpt>
      <trkpt lat="38.334950" lon="-2.621937">
        <ele>1044.6</ele>
        <time>1989-12-30T23:59:59Z</time>
      </trkpt>
      <trkpt lat="38.334408" lon="-2.622344">
        <ele>1033.1</ele>
        <time>1989-12-30T23:59:59Z</time>
      </trkpt>
      <trkpt lat="38.334147" lon="-2.622555">
        <ele>1037.4</ele>
        <time>1989-12-30T23:59:59Z</time>
      </trkpt>
      <trkpt lat="38.333887" lon="-2.622873">
        <ele>1036.4</ele>
        <time>1989-12-30T23:59:59Z</time>
      </trkpt>
      <trkpt lat="38.333408" lon="-2.622752">
        <ele>1030.7</ele>
        <time>1989-12-30T23:59:59Z</time>
      </trkpt>
      <trkpt lat="38.333182" lon="-2.622805">
        <ele>1028.7</ele>
        <time>1989-12-30T23:59:59Z</time>
      </trkpt>
      <trkpt lat="38.332859" lon="-2.623007">
        <ele>1029.7</ele>
        <time>1989-12-30T23:59:59Z</time>
      </trkpt>
      <trkpt lat="38.332513" lon="-2.623389">
        <ele>1023.5</ele>
        <time>1989-12-30T23:59:59Z</time>
      </trkpt>
      <trkpt lat="38.331930" lon="-2.623966">
        <ele>1027.3</ele>
        <time>1989-12-30T23:59:59Z</time>
      </trkpt>
      <trkpt lat="38.331176" lon="-2.623761">
        <ele>1018.2</ele>
        <time>1989-12-30T23:59:59Z</time>
      </trkpt>
      <trkpt lat="38.330609" lon="-2.623943">
        <ele>1014.3</ele>
        <time>1989-12-30T23:59:59Z</time>
      </trkpt>
      <trkpt lat="38.330291" lon="-2.624287">
        <ele>1006.6</ele>
        <time>1989-12-30T23:59:59Z</time>
      </trkpt>
      <trkpt lat="38.330022" lon="-2.624897">
        <ele>1001.8</ele>
        <time>1989-12-30T23:59:59Z</time>
      </trkpt>
      <trkpt lat="38.329931" lon="-2.624836">
        <ele>1002.3</ele>
        <time>1989-12-30T23:59:59Z</time>
      </trkpt>
      <trkpt lat="38.329826" lon="-2.624880">
        <ele>982.1</ele>
        <time>1989-12-30T23:59:59Z</time>
      </trkpt>
      <trkpt lat="38.329687" lon="-2.624792">
        <ele>992.2</ele>
        <time>1989-12-30T23:59:59Z</time>
      </trkpt>
      <trkpt lat="38.329184" lon="-2.624638">
        <ele>999.4</ele>
        <time>1989-12-30T23:59:59Z</time>
      </trkpt>
      <trkpt lat="38.328851" lon="-2.624811">
        <ele>992.7</ele>
        <time>1989-12-30T23:59:59Z</time>
      </trkpt>
      <trkpt lat="38.328620" lon="-2.625051">
        <ele>989.8</ele>
        <time>1989-12-30T23:59:59Z</time>
      </trkpt>
      <trkpt lat="38.328136" lon="-2.625236">
        <ele>981.6</ele>
        <time>1989-12-30T23:59:59Z</time>
      </trkpt>
      <trkpt lat="38.327843" lon="-2.625526">
        <ele>973.5</ele>
        <time>1989-12-30T23:59:59Z</time>
      </trkpt>
      <trkpt lat="38.327592" lon="-2.625453">
        <ele>975.4</ele>
        <time>1989-12-30T23:59:59Z</time>
      </trkpt>
      <trkpt lat="38.327379" lon="-2.625625">
        <ele>965.3</ele>
        <time>1989-12-30T23:59:59Z</time>
      </trkpt>
      <trkpt lat="38.327148" lon="-2.625655">
        <ele>967.7</ele>
        <time>1989-12-30T23:59:59Z</time>
      </trkpt>
      <trkpt lat="38.326940" lon="-2.625742">
        <ele>964.3</ele>
        <time>1989-12-30T23:59:59Z</time>
      </trkpt>
      <trkpt lat="38.326666" lon="-2.625917">
        <ele>966.7</ele>
        <time>1989-12-30T23:59:59Z</time>
      </trkpt>
      <trkpt lat="38.326431" lon="-2.626161">
        <ele>965.8</ele>
        <time>1989-12-30T23:59:59Z</time>
      </trkpt>
      <trkpt lat="38.326100" lon="-2.626269">
        <ele>963.9</ele>
        <time>1989-12-30T23:59:59Z</time>
      </trkpt>
      <trkpt lat="38.325817" lon="-2.626438">
        <ele>964.8</ele>
        <time>1989-12-30T23:59:59Z</time>
      </trkpt>
      <trkpt lat="38.325393" lon="-2.626818">
        <ele>955.7</ele>
        <time>1989-12-30T23:59:59Z</time>
      </trkpt>
      <trkpt lat="38.325161" lon="-2.627172">
        <ele>951.8</ele>
        <time>1989-12-30T23:59:59Z</time>
      </trkpt>
      <trkpt lat="38.324944" lon="-2.627286">
        <ele>952.3</ele>
        <time>1989-12-30T23:59:59Z</time>
      </trkpt>
      <trkpt lat="38.324712" lon="-2.627451">
        <ele>942.2</ele>
        <time>1989-12-30T23:59:59Z</time>
      </trkpt>
      <trkpt lat="38.324424" lon="-2.627779">
        <ele>942.7</ele>
        <time>1989-12-30T23:59:59Z</time>
      </trkpt>
      <trkpt lat="38.324248" lon="-2.627963">
        <ele>936.0</ele>
        <time>1989-12-30T23:59:59Z</time>
      </trkpt>
      <trkpt lat="38.324075" lon="-2.628368">
        <ele>930.2</ele>
        <time>1989-12-30T23:59:59Z</time>
      </trkpt>
      <trkpt lat="38.323972" lon="-2.628968">
        <ele>930.2</ele>
        <time>1989-12-30T23:59:59Z</time>
      </trkpt>
      <trkpt lat="38.323909" lon="-2.629202">
        <ele>923.5</ele>
        <time>1989-12-30T23:59:59Z</time>
      </trkpt>
      <trkpt lat="38.323597" lon="-2.629557">
        <ele>930.7</ele>
        <time>1989-12-30T23:59:59Z</time>
      </trkpt>
      <trkpt lat="38.323495" lon="-2.629204">
        <ele>923.5</ele>
        <time>1989-12-30T23:59:59Z</time>
      </trkpt>
      <trkpt lat="38.323519" lon="-2.629034">
        <ele>899.5</ele>
        <time>1989-12-30T23:59:59Z</time>
      </trkpt>
      <trkpt lat="38.323456" lon="-2.629266">
        <ele>893.7</ele>
        <time>1989-12-30T23:59:59Z</time>
      </trkpt>
      <trkpt lat="38.323435" lon="-2.629742">
        <ele>888.9</ele>
        <time>1989-12-30T23:59:59Z</time>
      </trkpt>
      <trkpt lat="38.323566" lon="-2.630178">
        <ele>887.0</ele>
        <time>1989-12-30T23:59:59Z</time>
      </trkpt>
      <trkpt lat="38.323554" lon="-2.630242">
        <ele>887.4</ele>
        <time>1989-12-30T23:59:59Z</time>
      </trkpt>
      <trkpt lat="38.323470" lon="-2.630207">
        <ele>883.1</ele>
        <time>1989-12-30T23:59:59Z</time>
      </trkpt>
      <trkpt lat="38.323485" lon="-2.630258">
        <ele>898.5</ele>
        <time>1989-12-30T23:59:59Z</time>
      </trkpt>
      <trkpt lat="38.323516" lon="-2.630404">
        <ele>887.4</ele>
        <time>1989-12-30T23:59:59Z</time>
      </trkpt>
      <trkpt lat="38.323588" lon="-2.630788">
        <ele>874.9</ele>
        <time>1989-12-30T23:59:59Z</time>
      </trkpt>
      <trkpt lat="38.323744" lon="-2.631510">
        <ele>878.8</ele>
        <time>1989-12-30T23:59:59Z</time>
      </trkpt>
      <trkpt lat="38.323950" lon="-2.632087">
        <ele>875.4</ele>
        <time>1989-12-30T23:59:59Z</time>
      </trkpt>
      <trkpt lat="38.323810" lon="-2.632304">
        <ele>878.8</ele>
        <time>1989-12-30T23:59:59Z</time>
      </trkpt>
      <trkpt lat="38.323366" lon="-2.632637">
        <ele>883.1</ele>
        <time>1989-12-30T23:59:59Z</time>
      </trkpt>
      <trkpt lat="38.323144" lon="-2.633423">
        <ele>877.8</ele>
        <time>1989-12-30T23:59:59Z</time>
      </trkpt>
      <trkpt lat="38.323201" lon="-2.633523">
        <ele>880.7</ele>
        <time>1989-12-30T23:59:59Z</time>
      </trkpt>
      <trkpt lat="38.323397" lon="-2.633669">
        <ele>877.3</ele>
        <time>1989-12-30T23:59:59Z</time>
      </trkpt>
      <trkpt lat="38.323570" lon="-2.633727">
        <ele>866.8</ele>
        <time>1989-12-30T23:59:59Z</time>
      </trkpt>
      <trkpt lat="38.323570" lon="-2.633727">
        <ele>873.5</ele>
        <time>1989-12-30T23:59:59Z</time>
      </trkpt>
      <trkpt lat="38.323724" lon="-2.633885">
        <ele>869.2</ele>
        <time>1989-12-30T23:59:59Z</time>
      </trkpt>
      <trkpt lat="38.323803" lon="-2.633932">
        <ele>870.6</ele>
        <time>1989-12-30T23:59:59Z</time>
      </trkpt>
      <trkpt lat="38.323822" lon="-2.634030">
        <ele>878.3</ele>
        <time>1989-12-30T23:59:59Z</time>
      </trkpt>
      <trkpt lat="38.323455" lon="-2.634509">
        <ele>866.8</ele>
        <time>1989-12-30T23:59:59Z</time>
      </trkpt>
      <trkpt lat="38.323488" lon="-2.635098">
        <ele>856.7</ele>
        <time>1989-12-30T23:59:59Z</time>
      </trkpt>
      <trkpt lat="38.323440" lon="-2.635231">
        <ele>877.3</ele>
        <time>1989-12-30T23:59:59Z</time>
      </trkpt>
      <trkpt lat="38.323379" lon="-2.635208">
        <ele>872.5</ele>
        <time>1989-12-30T23:59:59Z</time>
      </trkpt>
      <trkpt lat="38.323281" lon="-2.635050">
        <ele>858.6</ele>
        <time>1989-12-30T23:59:59Z</time>
      </trkpt>
      <trkpt lat="38.323206" lon="-2.634838">
        <ele>861.5</ele>
        <time>1989-12-30T23:59:59Z</time>
      </trkpt>
      <trkpt lat="38.323127" lon="-2.634614">
        <ele>868.7</ele>
        <time>1989-12-30T23:59:59Z</time>
      </trkpt>
      <trkpt lat="38.323042" lon="-2.634443">
        <ele>825.4</ele>
        <time>1989-12-30T23:59:59Z</time>
      </trkpt>
      <trkpt lat="38.323095" lon="-2.634915">
        <ele>870.6</ele>
        <time>1989-12-30T23:59:59Z</time>
      </trkpt>
      <trkpt lat="38.323120" lon="-2.635008">
        <ele>867.2</ele>
        <time>1989-12-30T23:59:59Z</time>
      </trkpt>
      <trkpt lat="38.323265" lon="-2.635336">
        <ele>840.3</ele>
        <time>1989-12-30T23:59:59Z</time>
      </trkpt>
      <trkpt lat="38.323266" lon="-2.635454">
        <ele>846.6</ele>
        <time>1989-12-30T23:59:59Z</time>
      </trkpt>
      <trkpt lat="38.323264" lon="-2.635745">
        <ele>849.0</ele>
        <time>1989-12-30T23:59:59Z</time>
      </trkpt>
      <trkpt lat="38.323076" lon="-2.635570">
        <ele>853.8</ele>
        <time>1989-12-30T23:59:59Z</time>
      </trkpt>
      <trkpt lat="38.322989" lon="-2.635145">
        <ele>856.7</ele>
        <time>1989-12-30T23:59:59Z</time>
      </trkpt>
      <trkpt lat="38.322746" lon="-2.634651">
        <ele>877.3</ele>
        <time>1989-12-30T23:59:59Z</time>
      </trkpt>
      <trkpt lat="38.322582" lon="-2.634875">
        <ele>872.1</ele>
        <time>1989-12-30T23:59:59Z</time>
      </trkpt>
      <trkpt lat="38.322432" lon="-2.636086">
        <ele>874.5</ele>
        <time>1989-12-30T23:59:59Z</time>
      </trkpt>
      <trkpt lat="38.322362" lon="-2.636160">
        <ele>874.0</ele>
        <time>1989-12-30T23:59:59Z</time>
      </trkpt>
      <trkpt lat="38.321871" lon="-2.636262">
        <ele>875.4</ele>
        <time>1989-12-30T23:59:59Z</time>
      </trkpt>
      <trkpt lat="38.321905" lon="-2.636682">
        <ele>878.3</ele>
        <time>1989-12-30T23:59:59Z</time>
      </trkpt>
      <trkpt lat="38.321741" lon="-2.636970">
        <ele>878.8</ele>
        <time>1989-12-30T23:59:59Z</time>
      </trkpt>
      <trkpt lat="38.321836" lon="-2.637155">
        <ele>880.7</ele>
        <time>1989-12-30T23:59:59Z</time>
      </trkpt>
      <trkpt lat="38.321823" lon="-2.637385">
        <ele>881.7</ele>
        <time>1989-12-30T23:59:59Z</time>
      </trkpt>
      <trkpt lat="38.321938" lon="-2.637536">
        <ele>895.1</ele>
        <time>1989-12-30T23:59:59Z</time>
      </trkpt>
      <trkpt lat="38.321728" lon="-2.637852">
        <ele>892.7</ele>
        <time>1989-12-30T23:59:59Z</time>
      </trkpt>
      <trkpt lat="38.321325" lon="-2.637945">
        <ele>890.8</ele>
        <time>1989-12-30T23:59:59Z</time>
      </trkpt>
      <trkpt lat="38.321164" lon="-2.638114">
        <ele>890.3</ele>
        <time>1989-12-30T23:59:59Z</time>
      </trkpt>
      <trkpt lat="38.321456" lon="-2.638455">
        <ele>891.8</ele>
        <time>1989-12-30T23:59:59Z</time>
      </trkpt>
      <trkpt lat="38.321510" lon="-2.638657">
        <ele>892.2</ele>
        <time>1989-12-30T23:59:59Z</time>
      </trkpt>
      <trkpt lat="38.321426" lon="-2.638733">
        <ele>892.7</ele>
        <time>1989-12-30T23:59:59Z</time>
      </trkpt>
      <trkpt lat="38.321044" lon="-2.638841">
        <ele>890.8</ele>
        <time>1989-12-30T23:59:59Z</time>
      </trkpt>
      <trkpt lat="38.320805" lon="-2.639097">
        <ele>892.2</ele>
        <time>1989-12-30T23:59:59Z</time>
      </trkpt>
      <trkpt lat="38.320829" lon="-2.639210">
        <ele>893.7</ele>
        <time>1989-12-30T23:59:59Z</time>
      </trkpt>
      <trkpt lat="38.321201" lon="-2.639538">
        <ele>904.7</ele>
        <time>1989-12-30T23:59:59Z</time>
      </trkpt>
      <trkpt lat="38.321027" lon="-2.639682">
        <ele>886.5</ele>
        <time>1989-12-30T23:59:59Z</time>
      </trkpt>
      <trkpt lat="38.321085" lon="-2.639907">
        <ele>889.4</ele>
        <time>1989-12-30T23:59:59Z</time>
      </trkpt>
      <trkpt lat="38.320863" lon="-2.640375">
        <ele>891.8</ele>
        <time>1989-12-30T23:59:59Z</time>
      </trkpt>
      <trkpt lat="38.320796" lon="-2.640947">
        <ele>895.1</ele>
        <time>1989-12-30T23:59:59Z</time>
      </trkpt>
      <trkpt lat="38.320677" lon="-2.641427">
        <ele>899.0</ele>
        <time>1989-12-30T23:59:59Z</time>
      </trkpt>
      <trkpt lat="38.320637" lon="-2.641926">
        <ele>901.9</ele>
        <time>1989-12-30T23:59:59Z</time>
      </trkpt>
      <trkpt lat="38.320570" lon="-2.642025">
        <ele>901.4</ele>
        <time>1989-12-30T23:59:59Z</time>
      </trkpt>
      <trkpt lat="38.320365" lon="-2.641980">
        <ele>901.4</ele>
        <time>1989-12-30T23:59:59Z</time>
      </trkpt>
      <trkpt lat="38.320127" lon="-2.642023">
        <ele>901.4</ele>
        <time>1989-12-30T23:59:59Z</time>
      </trkpt>
      <trkpt lat="38.320106" lon="-2.642351">
        <ele>902.8</ele>
        <time>1989-12-30T23:59:59Z</time>
      </trkpt>
      <trkpt lat="38.319990" lon="-2.642712">
        <ele>909.1</ele>
        <time>1989-12-30T23:59:59Z</time>
      </trkpt>
      <trkpt lat="38.320003" lon="-2.643033">
        <ele>911.0</ele>
        <time>1989-12-30T23:59:59Z</time>
      </trkpt>
      <trkpt lat="38.319817" lon="-2.643576">
        <ele>911.9</ele>
        <time>1989-12-30T23:59:59Z</time>
      </trkpt>
      <trkpt lat="38.319798" lon="-2.643946">
        <ele>915.3</ele>
        <time>1989-12-30T23:59:59Z</time>
      </trkpt>
      <trkpt lat="38.319613" lon="-2.644003">
        <ele>911.0</ele>
        <time>1989-12-30T23:59:59Z</time>
      </trkpt>
      <trkpt lat="38.319495" lon="-2.643969">
        <ele>915.8</ele>
        <time>1989-12-30T23:59:59Z</time>
      </trkpt>
      <trkpt lat="38.319125" lon="-2.643556">
        <ele>911.9</ele>
        <time>1989-12-30T23:59:59Z</time>
      </trkpt>
      <trkpt lat="38.318772" lon="-2.643419">
        <ele>911.0</ele>
        <time>1989-12-30T23:59:59Z</time>
      </trkpt>
      <trkpt lat="38.318532" lon="-2.643771">
        <ele>912.4</ele>
        <time>1989-12-30T23:59:59Z</time>
      </trkpt>
      <trkpt lat="38.318293" lon="-2.643984">
        <ele>913.9</ele>
        <time>1989-12-30T23:59:59Z</time>
      </trkpt>
      <trkpt lat="38.318393" lon="-2.644150">
        <ele>930.7</ele>
        <time>1989-12-30T23:59:59Z</time>
      </trkpt>
      <trkpt lat="38.318129" lon="-2.644868">
        <ele>925.4</ele>
        <time>1989-12-30T23:59:59Z</time>
      </trkpt>
      <trkpt lat="38.317948" lon="-2.644862">
        <ele>923.0</ele>
        <time>1989-12-30T23:59:59Z</time>
      </trkpt>
      <trkpt lat="38.317816" lon="-2.644686">
        <ele>914.4</ele>
        <time>1989-12-30T23:59:59Z</time>
      </trkpt>
      <trkpt lat="38.317662" lon="-2.644523">
        <ele>913.9</ele>
        <time>1989-12-30T23:59:59Z</time>
      </trkpt>
      <trkpt lat="38.317517" lon="-2.644221">
        <ele>920.1</ele>
        <time>1989-12-30T23:59:59Z</time>
      </trkpt>
      <trkpt lat="38.317546" lon="-2.643817">
        <ele>925.9</ele>
        <time>1989-12-30T23:59:59Z</time>
      </trkpt>
      <trkpt lat="38.317258" lon="-2.643886">
        <ele>924.9</ele>
        <time>1989-12-30T23:59:59Z</time>
      </trkpt>
      <trkpt lat="38.317173" lon="-2.644063">
        <ele>924.0</ele>
        <time>1989-12-30T23:59:59Z</time>
      </trkpt>
      <trkpt lat="38.317170" lon="-2.644338">
        <ele>926.8</ele>
        <time>1989-12-30T23:59:59Z</time>
      </trkpt>
      <trkpt lat="38.317102" lon="-2.644440">
        <ele>927.3</ele>
        <time>1989-12-30T23:59:59Z</time>
      </trkpt>
      <trkpt lat="38.316886" lon="-2.644457">
        <ele>927.3</ele>
        <time>1989-12-30T23:59:59Z</time>
      </trkpt>
      <trkpt lat="38.316946" lon="-2.644802">
        <ele>928.8</ele>
        <time>1989-12-30T23:59:59Z</time>
      </trkpt>
      <trkpt lat="38.316844" lon="-2.645176">
        <ele>930.7</ele>
        <time>1989-12-30T23:59:59Z</time>
      </trkpt>
      <trkpt lat="38.316757" lon="-2.645236">
        <ele>930.7</ele>
        <time>1989-12-30T23:59:59Z</time>
      </trkpt>
      <trkpt lat="38.316475" lon="-2.645314">
        <ele>930.2</ele>
        <time>1989-12-30T23:59:59Z</time>
      </trkpt>
      <trkpt lat="38.316055" lon="-2.645010">
        <ele>930.2</ele>
        <time>1989-12-30T23:59:59Z</time>
      </trkpt>
      <trkpt lat="38.315779" lon="-2.644915">
        <ele>930.7</ele>
        <time>1989-12-30T23:59:59Z</time>
      </trkpt>
      <trkpt lat="38.315499" lon="-2.644942">
        <ele>931.2</ele>
        <time>1989-12-30T23:59:59Z</time>
      </trkpt>
      <trkpt lat="38.315380" lon="-2.644973">
        <ele>940.3</ele>
        <time>1989-12-30T23:59:59Z</time>
      </trkpt>
      <trkpt lat="38.315217" lon="-2.645094">
        <ele>941.3</ele>
        <time>1989-12-30T23:59:59Z</time>
      </trkpt>
      <trkpt lat="38.314944" lon="-2.645167">
        <ele>942.7</ele>
        <time>1989-12-30T23:59:59Z</time>
      </trkpt>
      <trkpt lat="38.314597" lon="-2.645090">
        <ele>943.2</ele>
        <time>1989-12-30T23:59:59Z</time>
      </trkpt>
      <trkpt lat="38.314513" lon="-2.645132">
        <ele>945.1</ele>
        <time>1989-12-30T23:59:59Z</time>
      </trkpt>
      <trkpt lat="38.314329" lon="-2.645086">
        <ele>945.6</ele>
        <time>1989-12-30T23:59:59Z</time>
      </trkpt>
      <trkpt lat="38.314065" lon="-2.645256">
        <ele>944.6</ele>
        <time>1989-12-30T23:59:59Z</time>
      </trkpt>
      <trkpt lat="38.314000" lon="-2.645298">
        <ele>943.7</ele>
        <time>1989-12-30T23:59:59Z</time>
      </trkpt>
      <trkpt lat="38.313903" lon="-2.645354">
        <ele>949.4</ele>
        <time>1989-12-30T23:59:59Z</time>
      </trkpt>
      <trkpt lat="38.313770" lon="-2.645457">
        <ele>958.1</ele>
        <time>1989-12-30T23:59:59Z</time>
      </trkpt>
      <trkpt lat="38.313615" lon="-2.645355">
        <ele>956.6</ele>
        <time>1989-12-30T23:59:59Z</time>
      </trkpt>
      <trkpt lat="38.313562" lon="-2.645399">
        <ele>955.7</ele>
        <time>1989-12-30T23:59:59Z</time>
      </trkpt>
      <trkpt lat="38.313552" lon="-2.645589">
        <ele>948.5</ele>
        <time>1989-12-30T23:59:59Z</time>
      </trkpt>
      <trkpt lat="38.313648" lon="-2.645807">
        <ele>949.4</ele>
        <time>1989-12-30T23:59:59Z</time>
      </trkpt>
      <trkpt lat="38.313739" lon="-2.645870">
        <ele>950.9</ele>
        <time>1989-12-30T23:59:59Z</time>
      </trkpt>
      <trkpt lat="38.313728" lon="-2.645979">
        <ele>950.4</ele>
        <time>1989-12-30T23:59:59Z</time>
      </trkpt>
      <trkpt lat="38.313405" lon="-2.646228">
        <ele>949.9</ele>
        <time>1989-12-30T23:59:59Z</time>
      </trkpt>
      <trkpt lat="38.313275" lon="-2.646401">
        <ele>950.9</ele>
        <time>1989-12-30T23:59:59Z</time>
      </trkpt>
      <trkpt lat="38.313734" lon="-2.646879">
        <ele>956.2</ele>
        <time>1989-12-30T23:59:59Z</time>
      </trkpt>
      <trkpt lat="38.313938" lon="-2.647647">
        <ele>954.2</ele>
        <time>1989-12-30T23:59:59Z</time>
      </trkpt>
      <trkpt lat="38.313915" lon="-2.647762">
        <ele>952.8</ele>
        <time>1989-12-30T23:59:59Z</time>
      </trkpt>
      <trkpt lat="38.313772" lon="-2.647901">
        <ele>949.4</ele>
        <time>1989-12-30T23:59:59Z</time>
      </trkpt>
      <trkpt lat="38.312935" lon="-2.648009">
        <ele>939.3</ele>
        <time>1989-12-30T23:59:59Z</time>
      </trkpt>
      <trkpt lat="38.312709" lon="-2.648547">
        <ele>936.9</ele>
        <time>1989-12-30T23:59:59Z</time>
      </trkpt>
      <trkpt lat="38.312553" lon="-2.648692">
        <ele>935.5</ele>
        <time>1989-12-30T23:59:59Z</time>
      </trkpt>
      <trkpt lat="38.312177" lon="-2.648765">
        <ele>934.5</ele>
        <time>1989-12-30T23:59:59Z</time>
      </trkpt>
      <trkpt lat="38.311907" lon="-2.648639">
        <ele>934.1</ele>
        <time>1989-12-30T23:59:59Z</time>
      </trkpt>
      <trkpt lat="38.311720" lon="-2.648832">
        <ele>930.7</ele>
        <time>1989-12-30T23:59:59Z</time>
      </trkpt>
      <trkpt lat="38.311535" lon="-2.648911">
        <ele>930.7</ele>
        <time>1989-12-30T23:59:59Z</time>
      </trkpt>
      <trkpt lat="38.311357" lon="-2.648907">
        <ele>927.8</ele>
        <time>1989-12-30T23:59:59Z</time>
      </trkpt>
      <trkpt lat="38.311313" lon="-2.648984">
        <ele>928.3</ele>
        <time>1989-12-30T23:59:59Z</time>
      </trkpt>
      <trkpt lat="38.311435" lon="-2.649182">
        <ele>929.3</ele>
        <time>1989-12-30T23:59:59Z</time>
      </trkpt>
      <trkpt lat="38.311525" lon="-2.649224">
        <ele>928.3</ele>
        <time>1989-12-30T23:59:59Z</time>
      </trkpt>
      <trkpt lat="38.311644" lon="-2.649534">
        <ele>928.3</ele>
        <time>1989-12-30T23:59:59Z</time>
      </trkpt>
      <trkpt lat="38.311449" lon="-2.649887">
        <ele>928.3</ele>
        <time>1989-12-30T23:59:59Z</time>
      </trkpt>
      <trkpt lat="38.311474" lon="-2.649964">
        <ele>929.3</ele>
        <time>1989-12-30T23:59:59Z</time>
      </trkpt>
      <trkpt lat="38.311869" lon="-2.649914">
        <ele>932.1</ele>
        <time>1989-12-30T23:59:59Z</time>
      </trkpt>
      <trkpt lat="38.312059" lon="-2.650004">
        <ele>929.3</ele>
        <time>1989-12-30T23:59:59Z</time>
      </trkpt>
      <trkpt lat="38.312243" lon="-2.650273">
        <ele>928.3</ele>
        <time>1989-12-30T23:59:59Z</time>
      </trkpt>
      <trkpt lat="38.313161" lon="-2.650744">
        <ele>926.4</ele>
        <time>1989-12-30T23:59:59Z</time>
      </trkpt>
      <trkpt lat="38.313410" lon="-2.651107">
        <ele>925.4</ele>
        <time>1989-12-30T23:59:59Z</time>
      </trkpt>
      <trkpt lat="38.313529" lon="-2.651447">
        <ele>925.9</ele>
        <time>1989-12-30T23:59:59Z</time>
      </trkpt>
      <trkpt lat="38.313922" lon="-2.651978">
        <ele>924.9</ele>
        <time>1989-12-30T23:59:59Z</time>
      </trkpt>
      <trkpt lat="38.313920" lon="-2.652088">
        <ele>924.9</ele>
        <time>1989-12-30T23:59:59Z</time>
      </trkpt>
      <trkpt lat="38.313845" lon="-2.652142">
        <ele>923.5</ele>
        <time>1989-12-30T23:59:59Z</time>
      </trkpt>
      <trkpt lat="38.313117" lon="-2.652071">
        <ele>920.6</ele>
        <time>1989-12-30T23:59:59Z</time>
      </trkpt>
      <trkpt lat="38.312357" lon="-2.652288">
        <ele>923.5</ele>
        <time>1989-12-30T23:59:59Z</time>
      </trkpt>
      <trkpt lat="38.312166" lon="-2.652284">
        <ele>925.9</ele>
        <time>1989-12-30T23:59:59Z</time>
      </trkpt>
      <trkpt lat="38.312090" lon="-2.652323">
        <ele>926.4</ele>
        <time>1989-12-30T23:59:59Z</time>
      </trkpt>
      <trkpt lat="38.312070" lon="-2.652684">
        <ele>925.4</ele>
        <time>1989-12-30T23:59:59Z</time>
      </trkpt>
      <trkpt lat="38.311756" lon="-2.652861">
        <ele>924.4</ele>
        <time>1989-12-30T23:59:59Z</time>
      </trkpt>
      <trkpt lat="38.311461" lon="-2.652850">
        <ele>924.4</ele>
        <time>1989-12-30T23:59:59Z</time>
      </trkpt>
      <trkpt lat="38.311401" lon="-2.652895">
        <ele>925.9</ele>
        <time>1989-12-30T23:59:59Z</time>
      </trkpt>
      <trkpt lat="38.311325" lon="-2.653227">
        <ele>924.0</ele>
        <time>1989-12-30T23:59:59Z</time>
      </trkpt>
      <trkpt lat="38.311374" lon="-2.653327">
        <ele>925.4</ele>
        <time>1989-12-30T23:59:59Z</time>
      </trkpt>
      <trkpt lat="38.311541" lon="-2.653358">
        <ele>925.9</ele>
        <time>1989-12-30T23:59:59Z</time>
      </trkpt>
      <trkpt lat="38.311698" lon="-2.653516">
        <ele>924.9</ele>
        <time>1989-12-30T23:59:59Z</time>
      </trkpt>
      <trkpt lat="38.311947" lon="-2.653873">
        <ele>921.6</ele>
        <time>1989-12-30T23:59:59Z</time>
      </trkpt>
      <trkpt lat="38.312129" lon="-2.654582">
        <ele>920.6</ele>
        <time>1989-12-30T23:59:59Z</time>
      </trkpt>
      <trkpt lat="38.312364" lon="-2.655094">
        <ele>917.7</ele>
        <time>1989-12-30T23:59:59Z</time>
      </trkpt>
      <trkpt lat="38.312521" lon="-2.655824">
        <ele>908.1</ele>
        <time>1989-12-30T23:59:59Z</time>
      </trkpt>
      <trkpt lat="38.312442" lon="-2.656304">
        <ele>906.2</ele>
        <time>1989-12-30T23:59:59Z</time>
      </trkpt>
      <trkpt lat="38.312002" lon="-2.657038">
        <ele>907.6</ele>
        <time>1989-12-30T23:59:59Z</time>
      </trkpt>
      <trkpt lat="38.311855" lon="-2.657348">
        <ele>902.3</ele>
        <time>1989-12-30T23:59:59Z</time>
      </trkpt>
      <trkpt lat="38.311676" lon="-2.657428">
        <ele>902.8</ele>
        <time>1989-12-30T23:59:59Z</time>
      </trkpt>
      <trkpt lat="38.311649" lon="-2.657537">
        <ele>901.4</ele>
        <time>1989-12-30T23:59:59Z</time>
      </trkpt>
      <trkpt lat="38.311433" lon="-2.657762">
        <ele>898.5</ele>
        <time>1989-12-30T23:59:59Z</time>
      </trkpt>
      <trkpt lat="38.311342" lon="-2.657777">
        <ele>898.0</ele>
        <time>1989-12-30T23:59:59Z</time>
      </trkpt>
      <trkpt lat="38.311231" lon="-2.658209">
        <ele>892.7</ele>
        <time>1989-12-30T23:59:59Z</time>
      </trkpt>
      <trkpt lat="38.311055" lon="-2.658275">
        <ele>892.7</ele>
        <time>1989-12-30T23:59:59Z</time>
      </trkpt>
      <trkpt lat="38.311009" lon="-2.658500">
        <ele>895.1</ele>
        <time>1989-12-30T23:59:59Z</time>
      </trkpt>
      <trkpt lat="38.310737" lon="-2.658987">
        <ele>887.4</ele>
        <time>1989-12-30T23:59:59Z</time>
      </trkpt>
      <trkpt lat="38.310470" lon="-2.659087">
        <ele>883.6</ele>
        <time>1989-12-30T23:59:59Z</time>
      </trkpt>
      <trkpt lat="38.310416" lon="-2.659041">
        <ele>873.0</ele>
        <time>1989-12-30T23:59:59Z</time>
      </trkpt>
      <trkpt lat="38.310231" lon="-2.658940">
        <ele>875.4</ele>
        <time>1989-12-30T23:59:59Z</time>
      </trkpt>
      <trkpt lat="38.309851" lon="-2.658817">
        <ele>873.0</ele>
        <time>1989-12-30T23:59:59Z</time>
      </trkpt>
      <trkpt lat="38.309921" lon="-2.659294">
        <ele>874.5</ele>
        <time>1989-12-30T23:59:59Z</time>
      </trkpt>
      <trkpt lat="38.309959" lon="-2.659767">
        <ele>871.6</ele>
        <time>1989-12-30T23:59:59Z</time>
      </trkpt>
      <trkpt lat="38.309926" lon="-2.659872">
        <ele>867.7</ele>
        <time>1989-12-30T23:59:59Z</time>
      </trkpt>
      <trkpt lat="38.309255" lon="-2.660786">
        <ele>869.2</ele>
        <time>1989-12-30T23:59:59Z</time>
      </trkpt>
      <trkpt lat="38.309076" lon="-2.660838">
        <ele>863.4</ele>
        <time>1989-12-30T23:59:59Z</time>
      </trkpt>
      <trkpt lat="38.308419" lon="-2.660734">
        <ele>862.0</ele>
        <time>1989-12-30T23:59:59Z</time>
      </trkpt>
      <trkpt lat="38.308174" lon="-2.660931">
        <ele>858.1</ele>
        <time>1989-12-30T23:59:59Z</time>
      </trkpt>
      <trkpt lat="38.307987" lon="-2.661000">
        <ele>857.6</ele>
        <time>1989-12-30T23:59:59Z</time>
      </trkpt>
      <trkpt lat="38.307814" lon="-2.660880">
        <ele>859.6</ele>
        <time>1989-12-30T23:59:59Z</time>
      </trkpt>
      <trkpt lat="38.307851" lon="-2.660958">
        <ele>862.9</ele>
        <time>1989-12-30T23:59:59Z</time>
      </trkpt>
      <trkpt lat="38.307840" lon="-2.660962">
        <ele>859.1</ele>
        <time>1989-12-30T23:59:59Z</time>
      </trkpt>
      <trkpt lat="38.308033" lon="-2.661285">
        <ele>855.2</ele>
        <time>1989-12-30T23:59:59Z</time>
      </trkpt>
      <trkpt lat="38.308113" lon="-2.661364">
        <ele>855.7</ele>
        <time>1989-12-30T23:59:59Z</time>
      </trkpt>
      <trkpt lat="38.308378" lon="-2.661418">
        <ele>849.0</ele>
        <time>1989-12-30T23:59:59Z</time>
      </trkpt>
      <trkpt lat="38.308530" lon="-2.661542">
        <ele>846.6</ele>
        <time>1989-12-30T23:59:59Z</time>
      </trkpt>
      <trkpt lat="38.308605" lon="-2.661519">
        <ele>847.1</ele>
        <time>1989-12-30T23:59:59Z</time>
      </trkpt>
      <trkpt lat="38.308649" lon="-2.661620">
        <ele>848.5</ele>
        <time>1989-12-30T23:59:59Z</time>
      </trkpt>
      <trkpt lat="38.308254" lon="-2.661956">
        <ele>836.5</ele>
        <time>1989-12-30T23:59:59Z</time>
      </trkpt>
      <trkpt lat="38.308145" lon="-2.662154">
        <ele>834.6</ele>
        <time>1989-12-30T23:59:59Z</time>
      </trkpt>
      <trkpt lat="38.308112" lon="-2.662260">
        <ele>831.7</ele>
        <time>1989-12-30T23:59:59Z</time>
      </trkpt>
      <trkpt lat="38.308204" lon="-2.662580">
        <ele>827.8</ele>
        <time>1989-12-30T23:59:59Z</time>
      </trkpt>
      <trkpt lat="38.307992" lon="-2.662372">
        <ele>828.3</ele>
        <time>1989-12-30T23:59:59Z</time>
      </trkpt>
      <trkpt lat="38.307871" lon="-2.662032">
        <ele>829.8</ele>
        <time>1989-12-30T23:59:59Z</time>
      </trkpt>
      <trkpt lat="38.307367" lon="-2.661966">
        <ele>829.3</ele>
        <time>1989-12-30T23:59:59Z</time>
      </trkpt>
      <trkpt lat="38.307157" lon="-2.661782">
        <ele>831.2</ele>
        <time>1989-12-30T23:59:59Z</time>
      </trkpt>
      <trkpt lat="38.307083" lon="-2.661572">
        <ele>826.4</ele>
        <time>1989-12-30T23:59:59Z</time>
      </trkpt>
      <trkpt lat="38.306993" lon="-2.661640">
        <ele>834.1</ele>
        <time>1989-12-30T23:59:59Z</time>
      </trkpt>
      <trkpt lat="38.306969" lon="-2.661744">
        <ele>836.5</ele>
        <time>1989-12-30T23:59:59Z</time>
      </trkpt>
      <trkpt lat="38.306927" lon="-2.661781">
        <ele>828.8</ele>
        <time>1989-12-30T23:59:59Z</time>
      </trkpt>
      <trkpt lat="38.306859" lon="-2.661841">
        <ele>826.9</ele>
        <time>1989-12-30T23:59:59Z</time>
      </trkpt>
      <trkpt lat="38.306782" lon="-2.661907">
        <ele>830.7</ele>
        <time>1989-12-30T23:59:59Z</time>
      </trkpt>
      <trkpt lat="38.306702" lon="-2.661967">
        <ele>831.2</ele>
        <time>1989-12-30T23:59:59Z</time>
      </trkpt>
      <trkpt lat="38.306620" lon="-2.662033">
        <ele>833.6</ele>
        <time>1989-12-30T23:59:59Z</time>
      </trkpt>
      <trkpt lat="38.306611" lon="-2.662140">
        <ele>835.5</ele>
        <time>1989-12-30T23:59:59Z</time>
      </trkpt>
      <trkpt lat="38.306539" lon="-2.662136">
        <ele>838.9</ele>
        <time>1989-12-30T23:59:59Z</time>
      </trkpt>
      <trkpt lat="38.306455" lon="-2.662090">
        <ele>840.3</ele>
        <time>1989-12-30T23:59:59Z</time>
      </trkpt>
      <trkpt lat="38.306379" lon="-2.662041">
        <ele>841.8</ele>
        <time>1989-12-30T23:59:59Z</time>
      </trkpt>
      <trkpt lat="38.306392" lon="-2.661909">
        <ele>842.3</ele>
        <time>1989-12-30T23:59:59Z</time>
      </trkpt>
      <trkpt lat="38.306366" lon="-2.661796">
        <ele>844.7</ele>
        <time>1989-12-30T23:59:59Z</time>
      </trkpt>
      <trkpt lat="38.306357" lon="-2.661682">
        <ele>847.5</ele>
        <time>1989-12-30T23:59:59Z</time>
      </trkpt>
      <trkpt lat="38.306355" lon="-2.661571">
        <ele>849.9</ele>
        <time>1989-12-30T23:59:59Z</time>
      </trkpt>
      <trkpt lat="38.306375" lon="-2.661491">
        <ele>852.3</ele>
        <time>1989-12-30T23:59:59Z</time>
      </trkpt>
      <trkpt lat="38.306331" lon="-2.661369">
        <ele>853.8</ele>
        <time>1989-12-30T23:59:59Z</time>
      </trkpt>
      <trkpt lat="38.306275" lon="-2.661312">
        <ele>857.2</ele>
        <time>1989-12-30T23:59:59Z</time>
      </trkpt>
      <trkpt lat="38.306190" lon="-2.661397">
        <ele>857.2</ele>
        <time>1989-12-30T23:59:59Z</time>
      </trkpt>
      <trkpt lat="38.306089" lon="-2.661428">
        <ele>857.2</ele>
        <time>1989-12-30T23:59:59Z</time>
      </trkpt>
      <trkpt lat="38.306071" lon="-2.661333">
        <ele>858.6</ele>
        <time>1989-12-30T23:59:59Z</time>
      </trkpt>
      <trkpt lat="38.306094" lon="-2.661207">
        <ele>858.6</ele>
        <time>1989-12-30T23:59:59Z</time>
      </trkpt>
      <trkpt lat="38.306089" lon="-2.661082">
        <ele>861.5</ele>
        <time>1989-12-30T23:59:59Z</time>
      </trkpt>
      <trkpt lat="38.306140" lon="-2.660968">
        <ele>864.4</ele>
        <time>1989-12-30T23:59:59Z</time>
      </trkpt>
      <trkpt lat="38.306150" lon="-2.660831">
        <ele>867.7</ele>
        <time>1989-12-30T23:59:59Z</time>
      </trkpt>
      <trkpt lat="38.306132" lon="-2.660706">
        <ele>871.1</ele>
        <time>1989-12-30T23:59:59Z</time>
      </trkpt>
      <trkpt lat="38.306186" lon="-2.660603">
        <ele>874.0</ele>
        <time>1989-12-30T23:59:59Z</time>
      </trkpt>
      <trkpt lat="38.306198" lon="-2.660479">
        <ele>876.4</ele>
        <time>1989-12-30T23:59:59Z</time>
      </trkpt>
      <trkpt lat="38.306192" lon="-2.660224">
        <ele>880.7</ele>
        <time>1989-12-30T23:59:59Z</time>
      </trkpt>
      <trkpt lat="38.306165" lon="-2.660103">
        <ele>880.7</ele>
        <time>1989-12-30T23:59:59Z</time>
      </trkpt>
      <trkpt lat="38.306147" lon="-2.659981">
        <ele>881.7</ele>
        <time>1989-12-30T23:59:59Z</time>
      </trkpt>
      <trkpt lat="38.306105" lon="-2.659738">
        <ele>884.6</ele>
        <time>1989-12-30T23:59:59Z</time>
      </trkpt>
      <trkpt lat="38.306076" lon="-2.659620">
        <ele>888.4</ele>
        <time>1989-12-30T23:59:59Z</time>
      </trkpt>
      <trkpt lat="38.306069" lon="-2.659520">
        <ele>891.3</ele>
        <time>1989-12-30T23:59:59Z</time>
      </trkpt>
      <trkpt lat="38.306053" lon="-2.659398">
        <ele>895.6</ele>
        <time>1989-12-30T23:59:59Z</time>
      </trkpt>
      <trkpt lat="38.306015" lon="-2.659276">
        <ele>896.1</ele>
        <time>1989-12-30T23:59:59Z</time>
      </trkpt>
      <trkpt lat="38.305964" lon="-2.659160">
        <ele>896.6</ele>
        <time>1989-12-30T23:59:59Z</time>
      </trkpt>
      <trkpt lat="38.305881" lon="-2.659065">
        <ele>899.9</ele>
        <time>1989-12-30T23:59:59Z</time>
      </trkpt>
      <trkpt lat="38.305844" lon="-2.659168">
        <ele>904.3</ele>
        <time>1989-12-30T23:59:59Z</time>
      </trkpt>
      <trkpt lat="38.305837" lon="-2.659293">
        <ele>906.2</ele>
        <time>1989-12-30T23:59:59Z</time>
      </trkpt>
      <trkpt lat="38.305833" lon="-2.659417">
        <ele>907.6</ele>
        <time>1989-12-30T23:59:59Z</time>
      </trkpt>
      <trkpt lat="38.305833" lon="-2.659542">
        <ele>909.5</ele>
        <time>1989-12-30T23:59:59Z</time>
      </trkpt>
      <trkpt lat="38.305806" lon="-2.659647">
        <ele>911.9</ele>
        <time>1989-12-30T23:59:59Z</time>
      </trkpt>
      <trkpt lat="38.305768" lon="-2.659760">
        <ele>913.9</ele>
        <time>1989-12-30T23:59:59Z</time>
      </trkpt>
      <trkpt lat="38.305727" lon="-2.659872">
        <ele>914.4</ele>
        <time>1989-12-30T23:59:59Z</time>
      </trkpt>
      <trkpt lat="38.305674" lon="-2.659976">
        <ele>914.8</ele>
        <time>1989-12-30T23:59:59Z</time>
      </trkpt>
      <trkpt lat="38.305627" lon="-2.660070">
        <ele>916.8</ele>
        <time>1989-12-30T23:59:59Z</time>
      </trkpt>
      <trkpt lat="38.305555" lon="-2.660164">
        <ele>917.7</ele>
        <time>1989-12-30T23:59:59Z</time>
      </trkpt>
      <trkpt lat="38.305463" lon="-2.660227">
        <ele>918.7</ele>
        <time>1989-12-30T23:59:59Z</time>
      </trkpt>
      <trkpt lat="38.305360" lon="-2.660227">
        <ele>920.1</ele>
        <time>1989-12-30T23:59:59Z</time>
      </trkpt>
      <trkpt lat="38.305287" lon="-2.660166">
        <ele>923.0</ele>
        <time>1989-12-30T23:59:59Z</time>
      </trkpt>
      <trkpt lat="38.305360" lon="-2.660101">
        <ele>924.0</ele>
        <time>1989-12-30T23:59:59Z</time>
      </trkpt>
      <trkpt lat="38.305397" lon="-2.660022">
        <ele>930.2</ele>
        <time>1989-12-30T23:59:59Z</time>
      </trkpt>
      <trkpt lat="38.305428" lon="-2.659911">
        <ele>931.2</ele>
        <time>1989-12-30T23:59:59Z</time>
      </trkpt>
      <trkpt lat="38.305457" lon="-2.659793">
        <ele>931.2</ele>
        <time>1989-12-30T23:59:59Z</time>
      </trkpt>
      <trkpt lat="38.305470" lon="-2.659672">
        <ele>932.6</ele>
        <time>1989-12-30T23:59:59Z</time>
      </trkpt>
      <trkpt lat="38.305467" lon="-2.659555">
        <ele>933.6</ele>
        <time>1989-12-30T23:59:59Z</time>
      </trkpt>
      <trkpt lat="38.305443" lon="-2.659445">
        <ele>935.0</ele>
        <time>1989-12-30T23:59:59Z</time>
      </trkpt>
      <trkpt lat="38.305390" lon="-2.659357">
        <ele>936.9</ele>
        <time>1989-12-30T23:59:59Z</time>
      </trkpt>
      <trkpt lat="38.305313" lon="-2.659298">
        <ele>938.4</ele>
        <time>1989-12-30T23:59:59Z</time>
      </trkpt>
      <trkpt lat="38.305202" lon="-2.659268">
        <ele>942.2</ele>
        <time>1989-12-30T23:59:59Z</time>
      </trkpt>
      <trkpt lat="38.305107" lon="-2.659244">
        <ele>943.2</ele>
        <time>1989-12-30T23:59:59Z</time>
      </trkpt>
      <trkpt lat="38.305017" lon="-2.659208">
        <ele>943.2</ele>
        <time>1989-12-30T23:59:59Z</time>
      </trkpt>
      <trkpt lat="38.304926" lon="-2.659177">
        <ele>944.6</ele>
        <time>1989-12-30T23:59:59Z</time>
      </trkpt>
      <trkpt lat="38.304855" lon="-2.659240">
        <ele>945.6</ele>
        <time>1989-12-30T23:59:59Z</time>
      </trkpt>
      <trkpt lat="38.304792" lon="-2.659313">
        <ele>946.6</ele>
        <time>1989-12-30T23:59:59Z</time>
      </trkpt>
      <trkpt lat="38.304706" lon="-2.659288">
        <ele>947.5</ele>
        <time>1989-12-30T23:59:59Z</time>
      </trkpt>
      <trkpt lat="38.304615" lon="-2.659256">
        <ele>949.0</ele>
        <time>1989-12-30T23:59:59Z</time>
      </trkpt>
      <trkpt lat="38.304525" lon="-2.659205">
        <ele>950.4</ele>
        <time>1989-12-30T23:59:59Z</time>
      </trkpt>
      <trkpt lat="38.304439" lon="-2.659144">
        <ele>950.9</ele>
        <time>1989-12-30T23:59:59Z</time>
      </trkpt>
      <trkpt lat="38.304370" lon="-2.659068">
        <ele>952.3</ele>
        <time>1989-12-30T23:59:59Z</time>
      </trkpt>
      <trkpt lat="38.304298" lon="-2.658988">
        <ele>953.8</ele>
        <time>1989-12-30T23:59:59Z</time>
      </trkpt>
      <trkpt lat="38.304230" lon="-2.658903">
        <ele>955.2</ele>
        <time>1989-12-30T23:59:59Z</time>
      </trkpt>
      <trkpt lat="38.304157" lon="-2.658821">
        <ele>956.6</ele>
        <time>1989-12-30T23:59:59Z</time>
      </trkpt>
      <trkpt lat="38.304100" lon="-2.658727">
        <ele>958.6</ele>
        <time>1989-12-30T23:59:59Z</time>
      </trkpt>
      <trkpt lat="38.304035" lon="-2.658635">
        <ele>960.5</ele>
        <time>1989-12-30T23:59:59Z</time>
      </trkpt>
      <trkpt lat="38.303986" lon="-2.658541">
        <ele>962.4</ele>
        <time>1989-12-30T23:59:59Z</time>
      </trkpt>
      <trkpt lat="38.303915" lon="-2.658465">
        <ele>963.9</ele>
        <time>1989-12-30T23:59:59Z</time>
      </trkpt>
      <trkpt lat="38.303834" lon="-2.658410">
        <ele>965.3</ele>
        <time>1989-12-30T23:59:59Z</time>
      </trkpt>
      <trkpt lat="38.303763" lon="-2.658332">
        <ele>967.7</ele>
        <time>1989-12-30T23:59:59Z</time>
      </trkpt>
      <trkpt lat="38.303858" lon="-2.658319">
        <ele>969.1</ele>
        <time>1989-12-30T23:59:59Z</time>
      </trkpt>
      <trkpt lat="38.303946" lon="-2.658274">
        <ele>971.1</ele>
        <time>1989-12-30T23:59:59Z</time>
      </trkpt>
      <trkpt lat="38.304031" lon="-2.658229">
        <ele>973.0</ele>
        <time>1989-12-30T23:59:59Z</time>
      </trkpt>
      <trkpt lat="38.304108" lon="-2.658211">
        <ele>974.9</ele>
        <time>1989-12-30T23:59:59Z</time>
      </trkpt>
      <trkpt lat="38.304150" lon="-2.658132">
        <ele>976.4</ele>
        <time>1989-12-30T23:59:59Z</time>
      </trkpt>
      <trkpt lat="38.304098" lon="-2.658031">
        <ele>977.8</ele>
        <time>1989-12-30T23:59:59Z</time>
      </trkpt>
      <trkpt lat="38.304044" lon="-2.657935">
        <ele>979.7</ele>
        <time>1989-12-30T23:59:59Z</time>
      </trkpt>
      <trkpt lat="38.304000" lon="-2.657829">
        <ele>979.7</ele>
        <time>1989-12-30T23:59:59Z</time>
      </trkpt>
      <trkpt lat="38.303941" lon="-2.657736">
        <ele>981.2</ele>
        <time>1989-12-30T23:59:59Z</time>
      </trkpt>
      <trkpt lat="38.303881" lon="-2.657637">
        <ele>983.6</ele>
        <time>1989-12-30T23:59:59Z</time>
      </trkpt>
      <trkpt lat="38.303828" lon="-2.657544">
        <ele>985.5</ele>
        <time>1989-12-30T23:59:59Z</time>
      </trkpt>
      <trkpt lat="38.303766" lon="-2.657460">
        <ele>987.4</ele>
        <time>1989-12-30T23:59:59Z</time>
      </trkpt>
      <trkpt lat="38.303704" lon="-2.657370">
        <ele>988.9</ele>
        <time>1989-12-30T23:59:59Z</time>
      </trkpt>
      <trkpt lat="38.303630" lon="-2.657294">
        <ele>990.8</ele>
        <time>1989-12-30T23:59:59Z</time>
      </trkpt>
      <trkpt lat="38.303545" lon="-2.657236">
        <ele>993.2</ele>
        <time>1989-12-30T23:59:59Z</time>
      </trkpt>
      <trkpt lat="38.303453" lon="-2.657212">
        <ele>995.6</ele>
        <time>1989-12-30T23:59:59Z</time>
      </trkpt>
      <trkpt lat="38.303384" lon="-2.657141">
        <ele>998.5</ele>
        <time>1989-12-30T23:59:59Z</time>
      </trkpt>
      <trkpt lat="38.303311" lon="-2.657060">
        <ele>999.4</ele>
        <time>1989-12-30T23:59:59Z</time>
      </trkpt>
      <trkpt lat="38.303258" lon="-2.656963">
        <ele>1000.9</ele>
        <time>1989-12-30T23:59:59Z</time>
      </trkpt>
      <trkpt lat="38.303196" lon="-2.656865">
        <ele>1003.8</ele>
        <time>1989-12-30T23:59:59Z</time>
      </trkpt>
      <trkpt lat="38.303144" lon="-2.656779">
        <ele>1005.2</ele>
        <time>1989-12-30T23:59:59Z</time>
      </trkpt>
      <trkpt lat="38.303074" lon="-2.656687">
        <ele>1006.6</ele>
        <time>1989-12-30T23:59:59Z</time>
      </trkpt>
      <trkpt lat="38.302988" lon="-2.656632">
        <ele>1008.6</ele>
        <time>1989-12-30T23:59:59Z</time>
      </trkpt>
      <trkpt lat="38.302906" lon="-2.656563">
        <ele>1009.0</ele>
        <time>1989-12-30T23:59:59Z</time>
      </trkpt>
      <trkpt lat="38.302818" lon="-2.656512">
        <ele>1009.5</ele>
        <time>1989-12-30T23:59:59Z</time>
      </trkpt>
      <trkpt lat="38.302729" lon="-2.656463">
        <ele>1009.5</ele>
        <time>1989-12-30T23:59:59Z</time>
      </trkpt>
      <trkpt lat="38.302645" lon="-2.656413">
        <ele>1010.0</ele>
        <time>1989-12-30T23:59:59Z</time>
      </trkpt>
      <trkpt lat="38.302560" lon="-2.656371">
        <ele>1010.5</ele>
        <time>1989-12-30T23:59:59Z</time>
      </trkpt>
      <trkpt lat="38.302469" lon="-2.656334">
        <ele>1010.5</ele>
        <time>1989-12-30T23:59:59Z</time>
      </trkpt>
      <trkpt lat="38.302384" lon="-2.656281">
        <ele>1011.0</ele>
        <time>1989-12-30T23:59:59Z</time>
      </trkpt>
      <trkpt lat="38.302309" lon="-2.656221">
        <ele>1011.4</ele>
        <time>1989-12-30T23:59:59Z</time>
      </trkpt>
      <trkpt lat="38.302230" lon="-2.656156">
        <ele>1012.9</ele>
        <time>1989-12-30T23:59:59Z</time>
      </trkpt>
      <trkpt lat="38.302152" lon="-2.656089">
        <ele>1013.4</ele>
        <time>1989-12-30T23:59:59Z</time>
      </trkpt>
      <trkpt lat="38.302071" lon="-2.656008">
        <ele>1013.4</ele>
        <time>1989-12-30T23:59:59Z</time>
      </trkpt>
      <trkpt lat="38.301985" lon="-2.655930">
        <ele>1014.8</ele>
        <time>1989-12-30T23:59:59Z</time>
      </trkpt>
      <trkpt lat="38.301928" lon="-2.655836">
        <ele>1014.3</ele>
        <time>1989-12-30T23:59:59Z</time>
      </trkpt>
      <trkpt lat="38.301866" lon="-2.655748">
        <ele>1014.3</ele>
        <time>1989-12-30T23:59:59Z</time>
      </trkpt>
      <trkpt lat="38.301772" lon="-2.655671">
        <ele>1016.3</ele>
        <time>1989-12-30T23:59:59Z</time>
      </trkpt>
      <trkpt lat="38.301675" lon="-2.655656">
        <ele>1018.2</ele>
        <time>1989-12-30T23:59:59Z</time>
      </trkpt>
      <trkpt lat="38.301592" lon="-2.655617">
        <ele>1018.2</ele>
        <time>1989-12-30T23:59:59Z</time>
      </trkpt>
      <trkpt lat="38.301560" lon="-2.655618">
        <ele>1021.5</ele>
        <time>1989-12-30T23:59:59Z</time>
      </trkpt>
      <trkpt lat="38.301483" lon="-2.655549">
        <ele>1022.5</ele>
        <time>1989-12-30T23:59:59Z</time>
      </trkpt>
      <trkpt lat="38.301426" lon="-2.655459">
        <ele>1023.9</ele>
        <time>1989-12-30T23:59:59Z</time>
      </trkpt>
      <trkpt lat="38.301356" lon="-2.655379">
        <ele>1023.9</ele>
        <time>1989-12-30T23:59:59Z</time>
      </trkpt>
      <trkpt lat="38.301318" lon="-2.655285">
        <ele>1025.9</ele>
        <time>1989-12-30T23:59:59Z</time>
      </trkpt>
      <trkpt lat="38.301241" lon="-2.655214">
        <ele>1025.9</ele>
        <time>1989-12-30T23:59:59Z</time>
      </trkpt>
      <trkpt lat="38.301164" lon="-2.655146">
        <ele>1026.3</ele>
        <time>1989-12-30T23:59:59Z</time>
      </trkpt>
      <trkpt lat="38.301103" lon="-2.655043">
        <ele>1027.8</ele>
        <time>1989-12-30T23:59:59Z</time>
      </trkpt>
      <trkpt lat="38.301054" lon="-2.654945">
        <ele>1027.8</ele>
        <time>1989-12-30T23:59:59Z</time>
      </trkpt>
      <trkpt lat="38.300996" lon="-2.654841">
        <ele>1030.2</ele>
        <time>1989-12-30T23:59:59Z</time>
      </trkpt>
      <trkpt lat="38.300938" lon="-2.654737">
        <ele>1030.2</ele>
        <time>1989-12-30T23:59:59Z</time>
      </trkpt>
      <trkpt lat="38.300868" lon="-2.654653">
        <ele>1030.7</ele>
        <time>1989-12-30T23:59:59Z</time>
      </trkpt>
      <trkpt lat="38.300797" lon="-2.654584">
        <ele>1032.1</ele>
        <time>1989-12-30T23:59:59Z</time>
      </trkpt>
      <trkpt lat="38.300722" lon="-2.654511">
        <ele>1034.0</ele>
        <time>1989-12-30T23:59:59Z</time>
      </trkpt>
      <trkpt lat="38.300662" lon="-2.654417">
        <ele>1034.5</ele>
        <time>1989-12-30T23:59:59Z</time>
      </trkpt>
      <trkpt lat="38.300621" lon="-2.654308">
        <ele>1035.5</ele>
        <time>1989-12-30T23:59:59Z</time>
      </trkpt>
      <trkpt lat="38.300550" lon="-2.654219">
        <ele>1036.4</ele>
        <time>1989-12-30T23:59:59Z</time>
      </trkpt>
      <trkpt lat="38.300511" lon="-2.654131">
        <ele>1039.8</ele>
        <time>1989-12-30T23:59:59Z</time>
      </trkpt>
      <trkpt lat="38.300520" lon="-2.653963">
        <ele>1040.8</ele>
        <time>1989-12-30T23:59:59Z</time>
      </trkpt>
      <trkpt lat="38.300532" lon="-2.653814">
        <ele>1040.8</ele>
        <time>1989-12-30T23:59:59Z</time>
      </trkpt>
      <trkpt lat="38.300519" lon="-2.653693">
        <ele>1042.2</ele>
        <time>1989-12-30T23:59:59Z</time>
      </trkpt>
      <trkpt lat="38.300475" lon="-2.653583">
        <ele>1043.2</ele>
        <time>1989-12-30T23:59:59Z</time>
      </trkpt>
      <trkpt lat="38.300477" lon="-2.653468">
        <ele>1044.6</ele>
        <time>1989-12-30T23:59:59Z</time>
      </trkpt>
      <trkpt lat="38.300545" lon="-2.653389">
        <ele>1045.1</ele>
        <time>1989-12-30T23:59:59Z</time>
      </trkpt>
      <trkpt lat="38.300625" lon="-2.653338">
        <ele>1044.6</ele>
        <time>1989-12-30T23:59:59Z</time>
      </trkpt>
      <trkpt lat="38.300686" lon="-2.653260">
        <ele>1047.5</ele>
        <time>1989-12-30T23:59:59Z</time>
      </trkpt>
      <trkpt lat="38.300667" lon="-2.653178">
        <ele>1000.4</ele>
        <time>1989-12-30T23:59:59Z</time>
      </trkpt>
      <trkpt lat="38.300675" lon="-2.653081">
        <ele>950.9</ele>
        <time>1989-12-30T23:59:59Z</time>
      </trkpt>
      <trkpt lat="38.300702" lon="-2.652909">
        <ele>1067.2</ele>
        <time>1989-12-30T23:59:59Z</time>
      </trkpt>
      <trkpt lat="38.300751" lon="-2.652797">
        <ele>1067.2</ele>
        <time>1989-12-30T23:59:59Z</time>
      </trkpt>
      <trkpt lat="38.300862" lon="-2.652756">
        <ele>1065.8</ele>
        <time>1989-12-30T23:59:59Z</time>
      </trkpt>
      <trkpt lat="38.301007" lon="-2.652797">
        <ele>1064.3</ele>
        <time>1989-12-30T23:59:59Z</time>
      </trkpt>
      <trkpt lat="38.301117" lon="-2.652832">
        <ele>1062.9</ele>
        <time>1989-12-30T23:59:59Z</time>
      </trkpt>
      <trkpt lat="38.301236" lon="-2.652853">
        <ele>1061.9</ele>
        <time>1989-12-30T23:59:59Z</time>
      </trkpt>
      <trkpt lat="38.301348" lon="-2.652867">
        <ele>1061.9</ele>
        <time>1989-12-30T23:59:59Z</time>
      </trkpt>
      <trkpt lat="38.301460" lon="-2.652908">
        <ele>1061.9</ele>
        <time>1989-12-30T23:59:59Z</time>
      </trkpt>
      <trkpt lat="38.301560" lon="-2.652893">
        <ele>1062.4</ele>
        <time>1989-12-30T23:59:59Z</time>
      </trkpt>
      <trkpt lat="38.301650" lon="-2.652864">
        <ele>1062.4</ele>
        <time>1989-12-30T23:59:59Z</time>
      </trkpt>
      <trkpt lat="38.301704" lon="-2.652772">
        <ele>1063.8</ele>
        <time>1989-12-30T23:59:59Z</time>
      </trkpt>
      <trkpt lat="38.301677" lon="-2.652660">
        <ele>1065.8</ele>
        <time>1989-12-30T23:59:59Z</time>
      </trkpt>
      <trkpt lat="38.301604" lon="-2.652599">
        <ele>1067.2</ele>
        <time>1989-12-30T23:59:59Z</time>
      </trkpt>
      <trkpt lat="38.301520" lon="-2.652631">
        <ele>1067.7</ele>
        <time>1989-12-30T23:59:59Z</time>
      </trkpt>
      <trkpt lat="38.301428" lon="-2.652638">
        <ele>1068.2</ele>
        <time>1989-12-30T23:59:59Z</time>
      </trkpt>
      <trkpt lat="38.301406" lon="-2.652560">
        <ele>1071.0</ele>
        <time>1989-12-30T23:59:59Z</time>
      </trkpt>
      <trkpt lat="38.301347" lon="-2.652478">
        <ele>1071.5</ele>
        <time>1989-12-30T23:59:59Z</time>
      </trkpt>
      <trkpt lat="38.301262" lon="-2.652428">
        <ele>1071.5</ele>
        <time>1989-12-30T23:59:59Z</time>
      </trkpt>
      <trkpt lat="38.301193" lon="-2.652374">
        <ele>1075.9</ele>
        <time>1989-12-30T23:59:59Z</time>
      </trkpt>
      <trkpt lat="38.301100" lon="-2.652330">
        <ele>1078.7</ele>
        <time>1989-12-30T23:59:59Z</time>
      </trkpt>
      <trkpt lat="38.301032" lon="-2.652285">
        <ele>1075.9</ele>
        <time>1989-12-30T23:59:59Z</time>
      </trkpt>
      <trkpt lat="38.300936" lon="-2.652247">
        <ele>1077.8</ele>
        <time>1989-12-30T23:59:59Z</time>
      </trkpt>
      <trkpt lat="38.300858" lon="-2.652186">
        <ele>1078.3</ele>
        <time>1989-12-30T23:59:59Z</time>
      </trkpt>
      <trkpt lat="38.300757" lon="-2.652165">
        <ele>1078.3</ele>
        <time>1989-12-30T23:59:59Z</time>
      </trkpt>
      <trkpt lat="38.300641" lon="-2.652150">
        <ele>1079.7</ele>
        <time>1989-12-30T23:59:59Z</time>
      </trkpt>
      <trkpt lat="38.300364" lon="-2.652189">
        <ele>1108.1</ele>
        <time>1989-12-30T23:59:59Z</time>
      </trkpt>
      <trkpt lat="38.300269" lon="-2.652258">
        <ele>1096.0</ele>
        <time>1989-12-30T23:59:59Z</time>
      </trkpt>
      <trkpt lat="38.300228" lon="-2.652360">
        <ele>1096.5</ele>
        <time>1989-12-30T23:59:59Z</time>
      </trkpt>
      <trkpt lat="38.300198" lon="-2.652396">
        <ele>1094.6</ele>
        <time>1989-12-30T23:59:59Z</time>
      </trkpt>
      <trkpt lat="38.297266" lon="-2.652812">
        <ele>1079.7</ele>
        <time>1989-12-30T23:59:59Z</time>
      </trkpt>
      <trkpt lat="38.297266" lon="-2.652812">
        <ele>1080.7</ele>
        <time>1989-12-30T23:59:59Z</time>
      </trkpt>
      <trkpt lat="38.297159" lon="-2.652826">
        <ele>1078.7</ele>
        <time>1989-12-30T23:59:59Z</time>
      </trkpt>
      <trkpt lat="38.297110" lon="-2.652739">
        <ele>1075.9</ele>
        <time>1989-12-30T23:59:59Z</time>
      </trkpt>
      <trkpt lat="38.297099" lon="-2.652839">
        <ele>1082.6</ele>
        <time>1989-12-30T23:59:59Z</time>
      </trkpt>
      <trkpt lat="38.297043" lon="-2.652807">
        <ele>1053.7</ele>
        <time>1989-12-30T23:59:59Z</time>
      </trkpt>
      <trkpt lat="38.296951" lon="-2.652866">
        <ele>1055.2</ele>
        <time>1989-12-30T23:59:59Z</time>
      </trkpt>
      <trkpt lat="38.296743" lon="-2.652789">
        <ele>1056.1</ele>
        <time>1989-12-30T23:59:59Z</time>
      </trkpt>
      <trkpt lat="38.296594" lon="-2.652287">
        <ele>1054.2</ele>
        <time>1989-12-30T23:59:59Z</time>
      </trkpt>
      <trkpt lat="38.296413" lon="-2.652218">
        <ele>1052.8</ele>
        <time>1989-12-30T23:59:59Z</time>
      </trkpt>
      <trkpt lat="38.296222" lon="-2.652258">
        <ele>1051.3</ele>
        <time>1989-12-30T23:59:59Z</time>
      </trkpt>
      <trkpt lat="38.296134" lon="-2.652301">
        <ele>1050.9</ele>
        <time>1989-12-30T23:59:59Z</time>
      </trkpt>
      <trkpt lat="38.295919" lon="-2.652503">
        <ele>1050.9</ele>
        <time>1989-12-30T23:59:59Z</time>
      </trkpt>
      <trkpt lat="38.295838" lon="-2.652613">
        <ele>1051.3</ele>
        <time>1989-12-30T23:59:59Z</time>
      </trkpt>
      <trkpt lat="38.295758" lon="-2.652697">
        <ele>1050.4</ele>
        <time>1989-12-30T23:59:59Z</time>
      </trkpt>
      <trkpt lat="38.295702" lon="-2.652775">
        <ele>1048.9</ele>
        <time>1989-12-30T23:59:59Z</time>
      </trkpt>
      <trkpt lat="38.295461" lon="-2.653010">
        <ele>1046.5</ele>
        <time>1989-12-30T23:59:59Z</time>
      </trkpt>
      <trkpt lat="38.295409" lon="-2.653106">
        <ele>1046.5</ele>
        <time>1989-12-30T23:59:59Z</time>
      </trkpt>
      <trkpt lat="38.295341" lon="-2.653192">
        <ele>1045.6</ele>
        <time>1989-12-30T23:59:59Z</time>
      </trkpt>
      <trkpt lat="38.295194" lon="-2.653382">
        <ele>1042.2</ele>
        <time>1989-12-30T23:59:59Z</time>
      </trkpt>
      <trkpt lat="38.294746" lon="-2.654036">
        <ele>1041.7</ele>
        <time>1989-12-30T23:59:59Z</time>
      </trkpt>
      <trkpt lat="38.294496" lon="-2.653721">
        <ele>1037.9</ele>
        <time>1989-12-30T23:59:59Z</time>
      </trkpt>
      <trkpt lat="38.294322" lon="-2.653206">
        <ele>1023.0</ele>
        <time>1989-12-30T23:59:59Z</time>
      </trkpt>
      <trkpt lat="38.293326" lon="-2.652922">
        <ele>1018.7</ele>
        <time>1989-12-30T23:59:59Z</time>
      </trkpt>
      <trkpt lat="38.293255" lon="-2.653096">
        <ele>1017.2</ele>
        <time>1989-12-30T23:59:59Z</time>
      </trkpt>
      <trkpt lat="38.293479" lon="-2.653204">
        <ele>1013.4</ele>
        <time>1989-12-30T23:59:59Z</time>
      </trkpt>
      <trkpt lat="38.293678" lon="-2.653377">
        <ele>1009.0</ele>
        <time>1989-12-30T23:59:59Z</time>
      </trkpt>
      <trkpt lat="38.293022" lon="-2.653769">
        <ele>1001.4</ele>
        <time>1989-12-30T23:59:59Z</time>
      </trkpt>
      <trkpt lat="38.292766" lon="-2.654097">
        <ele>995.1</ele>
        <time>1989-12-30T23:59:59Z</time>
      </trkpt>
      <trkpt lat="38.292619" lon="-2.654285">
        <ele>991.7</ele>
        <time>1989-12-30T23:59:59Z</time>
      </trkpt>
      <trkpt lat="38.292274" lon="-2.654357">
        <ele>984.5</ele>
        <time>1989-12-30T23:59:59Z</time>
      </trkpt>
      <trkpt lat="38.291837" lon="-2.654646">
        <ele>984.0</ele>
        <time>1989-12-30T23:59:59Z</time>
      </trkpt>
      <trkpt lat="38.291525" lon="-2.654544">
        <ele>970.6</ele>
        <time>1989-12-30T23:59:59Z</time>
      </trkpt>
      <trkpt lat="38.291690" lon="-2.654237">
        <ele>949.9</ele>
        <time>1989-12-30T23:59:59Z</time>
      </trkpt>
      <trkpt lat="38.291573" lon="-2.654186">
        <ele>946.1</ele>
        <time>1989-12-30T23:59:59Z</time>
      </trkpt>
      <trkpt lat="38.290967" lon="-2.654653">
        <ele>946.1</ele>
        <time>1989-12-30T23:59:59Z</time>
      </trkpt>
      <trkpt lat="38.290691" lon="-2.654801">
        <ele>943.7</ele>
        <time>1989-12-30T23:59:59Z</time>
      </trkpt>
      <trkpt lat="38.290398" lon="-2.654845">
        <ele>941.3</ele>
        <time>1989-12-30T23:59:59Z</time>
      </trkpt>
      <trkpt lat="38.289742" lon="-2.655168">
        <ele>926.4</ele>
        <time>1989-12-30T23:59:59Z</time>
      </trkpt>
      <trkpt lat="38.289626" lon="-2.655284">
        <ele>922.5</ele>
        <time>1989-12-30T23:59:59Z</time>
      </trkpt>
      <trkpt lat="38.289363" lon="-2.656004">
        <ele>902.8</ele>
        <time>1989-12-30T23:59:59Z</time>
      </trkpt>
      <trkpt lat="38.289339" lon="-2.656134">
        <ele>901.9</ele>
        <time>1989-12-30T23:59:59Z</time>
      </trkpt>
      <trkpt lat="38.289062" lon="-2.656161">
        <ele>890.3</ele>
        <time>1989-12-30T23:59:59Z</time>
      </trkpt>
      <trkpt lat="38.289044" lon="-2.656035">
        <ele>888.4</ele>
        <time>1989-12-30T23:59:59Z</time>
      </trkpt>
      <trkpt lat="38.288916" lon="-2.655621">
        <ele>877.8</ele>
        <time>1989-12-30T23:59:59Z</time>
      </trkpt>
      <trkpt lat="38.288554" lon="-2.655175">
        <ele>880.7</ele>
        <time>1989-12-30T23:59:59Z</time>
      </trkpt>
      <trkpt lat="38.288499" lon="-2.655072">
        <ele>874.9</ele>
        <time>1989-12-30T23:59:59Z</time>
      </trkpt>
      <trkpt lat="38.288396" lon="-2.654897">
        <ele>870.6</ele>
        <time>1989-12-30T23:59:59Z</time>
      </trkpt>
      <trkpt lat="38.288337" lon="-2.654820">
        <ele>868.2</ele>
        <time>1989-12-30T23:59:59Z</time>
      </trkpt>
      <trkpt lat="38.288280" lon="-2.654830">
        <ele>866.3</ele>
        <time>1989-12-30T23:59:59Z</time>
      </trkpt>
      <trkpt lat="38.288057" lon="-2.654684">
        <ele>860.0</ele>
        <time>1989-12-30T23:59:59Z</time>
      </trkpt>
      <trkpt lat="38.287973" lon="-2.654681">
        <ele>859.1</ele>
        <time>1989-12-30T23:59:59Z</time>
      </trkpt>
      <trkpt lat="38.287781" lon="-2.654797">
        <ele>847.1</ele>
        <time>1989-12-30T23:59:59Z</time>
      </trkpt>
      <trkpt lat="38.287696" lon="-2.654613">
        <ele>847.5</ele>
        <time>1989-12-30T23:59:59Z</time>
      </trkpt>
      <trkpt lat="38.287687" lon="-2.654534">
        <ele>845.6</ele>
        <time>1989-12-30T23:59:59Z</time>
      </trkpt>
      <trkpt lat="38.287712" lon="-2.654441">
        <ele>844.7</ele>
        <time>1989-12-30T23:59:59Z</time>
      </trkpt>
      <trkpt lat="38.287665" lon="-2.654253">
        <ele>844.7</ele>
        <time>1989-12-30T23:59:59Z</time>
      </trkpt>
      <trkpt lat="38.287542" lon="-2.654439">
        <ele>836.5</ele>
        <time>1989-12-30T23:59:59Z</time>
      </trkpt>
      <trkpt lat="38.287364" lon="-2.654006">
        <ele>830.2</ele>
        <time>1989-12-30T23:59:59Z</time>
      </trkpt>
      <trkpt lat="38.287261" lon="-2.653935">
        <ele>827.8</ele>
        <time>1989-12-30T23:59:59Z</time>
      </trkpt>
      <trkpt lat="38.287086" lon="-2.653891">
        <ele>824.5</ele>
        <time>1989-12-30T23:59:59Z</time>
      </trkpt>
      <trkpt lat="38.286905" lon="-2.653803">
        <ele>823.5</ele>
        <time>1989-12-30T23:59:59Z</time>
      </trkpt>
      <trkpt lat="38.286737" lon="-2.653629">
        <ele>828.8</ele>
        <time>1989-12-30T23:59:59Z</time>
      </trkpt>
      <trkpt lat="38.286168" lon="-2.653331">
        <ele>806.7</ele>
        <time>1989-12-30T23:59:59Z</time>
      </trkpt>
      <trkpt lat="38.286080" lon="-2.653321">
        <ele>804.8</ele>
        <time>1989-12-30T23:59:59Z</time>
      </trkpt>
      <trkpt lat="38.286079" lon="-2.653338">
        <ele>804.3</ele>
        <time>1989-12-30T23:59:59Z</time>
      </trkpt>
      <trkpt lat="38.285968" lon="-2.652945">
        <ele>804.8</ele>
        <time>1989-12-30T23:59:59Z</time>
      </trkpt>
      <trkpt lat="38.286140" lon="-2.652749">
        <ele>805.7</ele>
        <time>1989-12-30T23:59:59Z</time>
      </trkpt>
      <trkpt lat="38.286229" lon="-2.652705">
        <ele>804.8</ele>
        <time>1989-12-30T23:59:59Z</time>
      </trkpt>
      <trkpt lat="38.286396" lon="-2.652428">
        <ele>805.2</ele>
        <time>1989-12-30T23:59:59Z</time>
      </trkpt>
      <trkpt lat="38.286310" lon="-2.651838">
        <ele>808.1</ele>
        <time>1989-12-30T23:59:59Z</time>
      </trkpt>
      <trkpt lat="38.286320" lon="-2.651602">
        <ele>808.6</ele>
        <time>1989-12-30T23:59:59Z</time>
      </trkpt>
      <trkpt lat="38.286360" lon="-2.651370">
        <ele>809.6</ele>
        <time>1989-12-30T23:59:59Z</time>
      </trkpt>
      <trkpt lat="38.286419" lon="-2.650867">
        <ele>761.0</ele>
        <time>1989-12-30T23:59:59Z</time>
      </trkpt>
      <trkpt lat="38.286352" lon="-2.650500">
        <ele>777.8</ele>
        <time>1989-12-30T23:59:59Z</time>
      </trkpt>
      <trkpt lat="38.286346" lon="-2.650339">
        <ele>781.7</ele>
        <time>1989-12-30T23:59:59Z</time>
      </trkpt>
      <trkpt lat="38.286317" lon="-2.650076">
        <ele>791.3</ele>
        <time>1989-12-30T23:59:59Z</time>
      </trkpt>
      <trkpt lat="38.286061" lon="-2.649408">
        <ele>801.4</ele>
        <time>1989-12-30T23:59:59Z</time>
      </trkpt>
      <trkpt lat="38.285752" lon="-2.648819">
        <ele>803.3</ele>
        <time>1989-12-30T23:59:59Z</time>
      </trkpt>
      <trkpt lat="38.285661" lon="-2.648748">
        <ele>803.3</ele>
        <time>1989-12-30T23:59:59Z</time>
      </trkpt>
      <trkpt lat="38.285580" lon="-2.648681">
        <ele>803.3</ele>
        <time>1989-12-30T23:59:59Z</time>
      </trkpt>
      <trkpt lat="38.285503" lon="-2.648609">
        <ele>803.3</ele>
        <time>1989-12-30T23:59:59Z</time>
      </trkpt>
      <trkpt lat="38.285432" lon="-2.648528">
        <ele>803.3</ele>
        <time>1989-12-30T23:59:59Z</time>
      </trkpt>
      <trkpt lat="38.285369" lon="-2.648440">
        <ele>803.3</ele>
        <time>1989-12-30T23:59:59Z</time>
      </trkpt>
      <trkpt lat="38.285319" lon="-2.648199">
        <ele>805.2</ele>
        <time>1989-12-30T23:59:59Z</time>
      </trkpt>
      <trkpt lat="38.285334" lon="-2.648073">
        <ele>807.2</ele>
        <time>1989-12-30T23:59:59Z</time>
      </trkpt>
      <trkpt lat="38.285291" lon="-2.647863">
        <ele>806.7</ele>
        <time>1989-12-30T23:59:59Z</time>
      </trkpt>
      <trkpt lat="38.285208" lon="-2.647860">
        <ele>809.6</ele>
        <time>1989-12-30T23:59:59Z</time>
      </trkpt>
      <trkpt lat="38.285054" lon="-2.647865">
        <ele>810.0</ele>
        <time>1989-12-30T23:59:59Z</time>
      </trkpt>
      <trkpt lat="38.284881" lon="-2.647756">
        <ele>812.0</ele>
        <time>1989-12-30T23:59:59Z</time>
      </trkpt>
      <trkpt lat="38.284718" lon="-2.647603">
        <ele>818.7</ele>
        <time>1989-12-30T23:59:59Z</time>
      </trkpt>
      <trkpt lat="38.284779" lon="-2.647467">
        <ele>834.1</ele>
        <time>1989-12-30T23:59:59Z</time>
      </trkpt>
      <trkpt lat="38.285043" lon="-2.647627">
        <ele>834.6</ele>
        <time>1989-12-30T23:59:59Z</time>
      </trkpt>
      <trkpt lat="38.285068" lon="-2.647556">
        <ele>836.0</ele>
        <time>1989-12-30T23:59:59Z</time>
      </trkpt>
      <trkpt lat="38.285139" lon="-2.647285">
        <ele>843.7</ele>
        <time>1989-12-30T23:59:59Z</time>
      </trkpt>
      <trkpt lat="38.284766" lon="-2.646726">
        <ele>865.3</ele>
        <time>1989-12-30T23:59:59Z</time>
      </trkpt>
      <trkpt lat="38.284710" lon="-2.646623">
        <ele>867.2</ele>
        <time>1989-12-30T23:59:59Z</time>
      </trkpt>
      <trkpt lat="38.284534" lon="-2.646480">
        <ele>870.6</ele>
        <time>1989-12-30T23:59:59Z</time>
      </trkpt>
      <trkpt lat="38.284455" lon="-2.646341">
        <ele>872.5</ele>
        <time>1989-12-30T23:59:59Z</time>
      </trkpt>
      <trkpt lat="38.283962" lon="-2.646144">
        <ele>875.9</ele>
        <time>1989-12-30T23:59:59Z</time>
      </trkpt>
      <trkpt lat="38.283708" lon="-2.646003">
        <ele>880.7</ele>
        <time>1989-12-30T23:59:59Z</time>
      </trkpt>
      <trkpt lat="38.283685" lon="-2.645850">
        <ele>893.7</ele>
        <time>1989-12-30T23:59:59Z</time>
      </trkpt>
      <trkpt lat="38.283687" lon="-2.645649">
        <ele>896.6</ele>
        <time>1989-12-30T23:59:59Z</time>
      </trkpt>
      <trkpt lat="38.283600" lon="-2.645520">
        <ele>895.1</ele>
        <time>1989-12-30T23:59:59Z</time>
      </trkpt>
      <trkpt lat="38.283670" lon="-2.645230">
        <ele>895.6</ele>
        <time>1989-12-30T23:59:59Z</time>
      </trkpt>
      <trkpt lat="38.283438" lon="-2.644407">
        <ele>901.4</ele>
        <time>1989-12-30T23:59:59Z</time>
      </trkpt>
      <trkpt lat="38.283318" lon="-2.644177">
        <ele>911.9</ele>
        <time>1989-12-30T23:59:59Z</time>
      </trkpt>
      <trkpt lat="38.283254" lon="-2.643922">
        <ele>911.9</ele>
        <time>1989-12-30T23:59:59Z</time>
      </trkpt>
      <trkpt lat="38.283088" lon="-2.643623">
        <ele>911.9</ele>
        <time>1989-12-30T23:59:59Z</time>
      </trkpt>
      <trkpt lat="38.282600" lon="-2.643462">
        <ele>918.2</ele>
        <time>1989-12-30T23:59:59Z</time>
      </trkpt>
      <trkpt lat="38.282385" lon="-2.643392">
        <ele>918.2</ele>
        <time>1989-12-30T23:59:59Z</time>
      </trkpt>
      <trkpt lat="38.282249" lon="-2.643379">
        <ele>918.7</ele>
        <time>1989-12-30T23:59:59Z</time>
      </trkpt>
      <trkpt lat="38.282024" lon="-2.643299">
        <ele>932.1</ele>
        <time>1989-12-30T23:59:59Z</time>
      </trkpt>
      <trkpt lat="38.282032" lon="-2.643138">
        <ele>934.5</ele>
        <time>1989-12-30T23:59:59Z</time>
      </trkpt>
      <trkpt lat="38.281895" lon="-2.642550">
        <ele>944.2</ele>
        <time>1989-12-30T23:59:59Z</time>
      </trkpt>
      <trkpt lat="38.281746" lon="-2.642250">
        <ele>952.8</ele>
        <time>1989-12-30T23:59:59Z</time>
      </trkpt>
      <trkpt lat="38.281735" lon="-2.642125">
        <ele>957.1</ele>
        <time>1989-12-30T23:59:59Z</time>
      </trkpt>
      <trkpt lat="38.281711" lon="-2.641886">
        <ele>959.1</ele>
        <time>1989-12-30T23:59:59Z</time>
      </trkpt>
      <trkpt lat="38.281684" lon="-2.641759">
        <ele>961.9</ele>
        <time>1989-12-30T23:59:59Z</time>
      </trkpt>
      <trkpt lat="38.281675" lon="-2.641447">
        <ele>969.1</ele>
        <time>1989-12-30T23:59:59Z</time>
      </trkpt>
      <trkpt lat="38.281574" lon="-2.641467">
        <ele>962.9</ele>
        <time>1989-12-30T23:59:59Z</time>
      </trkpt>
      <trkpt lat="38.281573" lon="-2.641141">
        <ele>979.7</ele>
        <time>1989-12-30T23:59:59Z</time>
      </trkpt>
      <trkpt lat="38.281643" lon="-2.640907">
        <ele>981.2</ele>
        <time>1989-12-30T23:59:59Z</time>
      </trkpt>
      <trkpt lat="38.281719" lon="-2.640807">
        <ele>980.7</ele>
        <time>1989-12-30T23:59:59Z</time>
      </trkpt>
      <trkpt lat="38.281907" lon="-2.640388">
        <ele>982.6</ele>
        <time>1989-12-30T23:59:59Z</time>
      </trkpt>
      <trkpt lat="38.281823" lon="-2.640129">
        <ele>986.0</ele>
        <time>1989-12-30T23:59:59Z</time>
      </trkpt>
      <trkpt lat="38.281760" lon="-2.640035">
        <ele>986.0</ele>
        <time>1989-12-30T23:59:59Z</time>
      </trkpt>
      <trkpt lat="38.281652" lon="-2.639648">
        <ele>986.4</ele>
        <time>1989-12-30T23:59:59Z</time>
      </trkpt>
      <trkpt lat="38.281530" lon="-2.639320">
        <ele>988.4</ele>
        <time>1989-12-30T23:59:59Z</time>
      </trkpt>
      <trkpt lat="38.281097" lon="-2.638975">
        <ele>991.3</ele>
        <time>1989-12-30T23:59:59Z</time>
      </trkpt>
      <trkpt lat="38.280995" lon="-2.638956">
        <ele>999.9</ele>
        <time>1989-12-30T23:59:59Z</time>
      </trkpt>
      <trkpt lat="38.280890" lon="-2.638928">
        <ele>999.9</ele>
        <time>1989-12-30T23:59:59Z</time>
      </trkpt>
      <trkpt lat="38.280775" lon="-2.638893">
        <ele>999.9</ele>
        <time>1989-12-30T23:59:59Z</time>
      </trkpt>
      <trkpt lat="38.280546" lon="-2.638887">
        <ele>999.9</ele>
        <time>1989-12-30T23:59:59Z</time>
      </trkpt>
      <trkpt lat="38.280024" lon="-2.638755">
        <ele>999.9</ele>
        <time>1989-12-30T23:59:59Z</time>
      </trkpt>
      <trkpt lat="38.279816" lon="-2.638550">
        <ele>1001.8</ele>
        <time>1989-12-30T23:59:59Z</time>
      </trkpt>
      <trkpt lat="38.279534" lon="-2.638473">
        <ele>1002.8</ele>
        <time>1989-12-30T23:59:59Z</time>
      </trkpt>
      <trkpt lat="38.279439" lon="-2.638447">
        <ele>1002.8</ele>
        <time>1989-12-30T23:59:59Z</time>
      </trkpt>
      <trkpt lat="38.279145" lon="-2.638398">
        <ele>1001.8</ele>
        <time>1989-12-30T23:59:59Z</time>
      </trkpt>
      <trkpt lat="38.278982" lon="-2.638393">
        <ele>1002.3</ele>
        <time>1989-12-30T23:59:59Z</time>
      </trkpt>
      <trkpt lat="38.278667" lon="-2.638547">
        <ele>1004.7</ele>
        <time>1989-12-30T23:59:59Z</time>
      </trkpt>
      <trkpt lat="38.278493" lon="-2.638672">
        <ele>1004.7</ele>
        <time>1989-12-30T23:59:59Z</time>
      </trkpt>
      <trkpt lat="38.278229" lon="-2.638848">
        <ele>1004.2</ele>
        <time>1989-12-30T23:59:59Z</time>
      </trkpt>
      <trkpt lat="38.278153" lon="-2.638860">
        <ele>1006.2</ele>
        <time>1989-12-30T23:59:59Z</time>
      </trkpt>
      <trkpt lat="38.277928" lon="-2.639068">
        <ele>1002.3</ele>
        <time>1989-12-30T23:59:59Z</time>
      </trkpt>
      <trkpt lat="38.277355" lon="-2.640342">
        <ele>1007.6</ele>
        <time>1989-12-30T23:59:59Z</time>
      </trkpt>
      <trkpt lat="38.277267" lon="-2.640373">
        <ele>1016.3</ele>
        <time>1989-12-30T23:59:59Z</time>
      </trkpt>
      <trkpt lat="38.277243" lon="-2.640487">
        <ele>1018.7</ele>
        <time>1989-12-30T23:59:59Z</time>
      </trkpt>
      <trkpt lat="38.277184" lon="-2.640739">
        <ele>1018.7</ele>
        <time>1989-12-30T23:59:59Z</time>
      </trkpt>
      <trkpt lat="38.277062" lon="-2.640939">
        <ele>1018.7</ele>
        <time>1989-12-30T23:59:59Z</time>
      </trkpt>
      <trkpt lat="38.276709" lon="-2.641018">
        <ele>1020.6</ele>
        <time>1989-12-30T23:59:59Z</time>
      </trkpt>
      <trkpt lat="38.276490" lon="-2.641076">
        <ele>1021.1</ele>
        <time>1989-12-30T23:59:59Z</time>
      </trkpt>
      <trkpt lat="38.276299" lon="-2.641214">
        <ele>1022.5</ele>
        <time>1989-12-30T23:59:59Z</time>
      </trkpt>
      <trkpt lat="38.276001" lon="-2.641255">
        <ele>1023.0</ele>
        <time>1989-12-30T23:59:59Z</time>
      </trkpt>
      <trkpt lat="38.275639" lon="-2.641450">
        <ele>1036.0</ele>
        <time>1989-12-30T23:59:59Z</time>
      </trkpt>
      <trkpt lat="38.275391" lon="-2.641611">
        <ele>1035.5</ele>
        <time>1989-12-30T23:59:59Z</time>
      </trkpt>
      <trkpt lat="38.275129" lon="-2.641851">
        <ele>1038.8</ele>
        <time>1989-12-30T23:59:59Z</time>
      </trkpt>
      <trkpt lat="38.275006" lon="-2.641633">
        <ele>1041.7</ele>
        <time>1989-12-30T23:59:59Z</time>
      </trkpt>
      <trkpt lat="38.275321" lon="-2.640893">
        <ele>1042.7</ele>
        <time>1989-12-30T23:59:59Z</time>
      </trkpt>
      <trkpt lat="38.275241" lon="-2.640693">
        <ele>1048.5</ele>
        <time>1989-12-30T23:59:59Z</time>
      </trkpt>
      <trkpt lat="38.275029" lon="-2.640612">
        <ele>1050.9</ele>
        <time>1989-12-30T23:59:59Z</time>
      </trkpt>
      <trkpt lat="38.274928" lon="-2.640575">
        <ele>1051.3</ele>
        <time>1989-12-30T23:59:59Z</time>
      </trkpt>
      <trkpt lat="38.274753" lon="-2.640453">
        <ele>1054.7</ele>
        <time>1989-12-30T23:59:59Z</time>
      </trkpt>
      <trkpt lat="38.274569" lon="-2.640382">
        <ele>1057.1</ele>
        <time>1989-12-30T23:59:59Z</time>
      </trkpt>
      <trkpt lat="38.274482" lon="-2.640341">
        <ele>1058.5</ele>
        <time>1989-12-30T23:59:59Z</time>
      </trkpt>
      <trkpt lat="38.274393" lon="-2.640123">
        <ele>1073.9</ele>
        <time>1989-12-30T23:59:59Z</time>
      </trkpt>
      <trkpt lat="38.274481" lon="-2.639179">
        <ele>1090.3</ele>
        <time>1989-12-30T23:59:59Z</time>
      </trkpt>
      <trkpt lat="38.274477" lon="-2.638914">
        <ele>1089.3</ele>
        <time>1989-12-30T23:59:59Z</time>
      </trkpt>
      <trkpt lat="38.274454" lon="-2.638770">
        <ele>1091.2</ele>
        <time>1989-12-30T23:59:59Z</time>
      </trkpt>
      <trkpt lat="38.274418" lon="-2.638627">
        <ele>1093.2</ele>
        <time>1989-12-30T23:59:59Z</time>
      </trkpt>
      <trkpt lat="38.273815" lon="-2.637646">
        <ele>1105.7</ele>
        <time>1989-12-30T23:59:59Z</time>
      </trkpt>
      <trkpt lat="38.273683" lon="-2.637008">
        <ele>1118.2</ele>
        <time>1989-12-30T23:59:59Z</time>
      </trkpt>
      <trkpt lat="38.273675" lon="-2.636876">
        <ele>1121.5</ele>
        <time>1989-12-30T23:59:59Z</time>
      </trkpt>
      <trkpt lat="38.273647" lon="-2.636561">
        <ele>1122.5</ele>
        <time>1989-12-30T23:59:59Z</time>
      </trkpt>
      <trkpt lat="38.273639" lon="-2.636161">
        <ele>1131.6</ele>
        <time>1989-12-30T23:59:59Z</time>
      </trkpt>
      <trkpt lat="38.273658" lon="-2.636043">
        <ele>1135.5</ele>
        <time>1989-12-30T23:59:59Z</time>
      </trkpt>
      <trkpt lat="38.273658" lon="-2.636019">
        <ele>1147.5</ele>
        <time>1989-12-30T23:59:59Z</time>
      </trkpt>
      <trkpt lat="38.273632" lon="-2.635873">
        <ele>1147.5</ele>
        <time>1989-12-30T23:59:59Z</time>
      </trkpt>
      <trkpt lat="38.273447" lon="-2.635702">
        <ele>1128.7</ele>
        <time>1989-12-30T23:59:59Z</time>
      </trkpt>
      <trkpt lat="38.273541" lon="-2.635752">
        <ele>1130.2</ele>
        <time>1989-12-30T23:59:59Z</time>
      </trkpt>
      <trkpt lat="38.273538" lon="-2.635728">
        <ele>1137.9</ele>
        <time>1989-12-30T23:59:59Z</time>
      </trkpt>
      <trkpt lat="38.273414" lon="-2.635719">
        <ele>1137.4</ele>
        <time>1989-12-30T23:59:59Z</time>
      </trkpt>
      <trkpt lat="38.273304" lon="-2.635714">
        <ele>1136.9</ele>
        <time>1989-12-30T23:59:59Z</time>
      </trkpt>
      <trkpt lat="38.273175" lon="-2.635666">
        <ele>1138.3</ele>
        <time>1989-12-30T23:59:59Z</time>
      </trkpt>
      <trkpt lat="38.273075" lon="-2.635564">
        <ele>1145.5</ele>
        <time>1989-12-30T23:59:59Z</time>
      </trkpt>
      <trkpt lat="38.273028" lon="-2.635491">
        <ele>1145.1</ele>
        <time>1989-12-30T23:59:59Z</time>
      </trkpt>
      <trkpt lat="38.272748" lon="-2.635479">
        <ele>1133.5</ele>
        <time>1989-12-30T23:59:59Z</time>
      </trkpt>
      <trkpt lat="38.272625" lon="-2.635381">
        <ele>1149.4</ele>
        <time>1989-12-30T23:59:59Z</time>
      </trkpt>
      <trkpt lat="38.272563" lon="-2.635284">
        <ele>1148.4</ele>
        <time>1989-12-30T23:59:59Z</time>
      </trkpt>
      <trkpt lat="38.272379" lon="-2.635132">
        <ele>1147.5</ele>
        <time>1989-12-30T23:59:59Z</time>
      </trkpt>
      <trkpt lat="38.272291" lon="-2.635028">
        <ele>1148.4</ele>
        <time>1989-12-30T23:59:59Z</time>
      </trkpt>
      <trkpt lat="38.272228" lon="-2.634892">
        <ele>1147.5</ele>
        <time>1989-12-30T23:59:59Z</time>
      </trkpt>
      <trkpt lat="38.272207" lon="-2.634764">
        <ele>1147.5</ele>
        <time>1989-12-30T23:59:59Z</time>
      </trkpt>
      <trkpt lat="38.272172" lon="-2.634621">
        <ele>1148.9</ele>
        <time>1989-12-30T23:59:59Z</time>
      </trkpt>
      <trkpt lat="38.272150" lon="-2.634479">
        <ele>1151.8</ele>
        <time>1989-12-30T23:59:59Z</time>
      </trkpt>
      <trkpt lat="38.272065" lon="-2.634390">
        <ele>1152.8</ele>
        <time>1989-12-30T23:59:59Z</time>
      </trkpt>
      <trkpt lat="38.271966" lon="-2.634277">
        <ele>1155.6</ele>
        <time>1989-12-30T23:59:59Z</time>
      </trkpt>
      <trkpt lat="38.271663" lon="-2.633934">
        <ele>1165.3</ele>
        <time>1989-12-30T23:59:59Z</time>
      </trkpt>
      <trkpt lat="38.271561" lon="-2.633883">
        <ele>1165.7</ele>
        <time>1989-12-30T23:59:59Z</time>
      </trkpt>
      <trkpt lat="38.271473" lon="-2.633808">
        <ele>1167.7</ele>
        <time>1989-12-30T23:59:59Z</time>
      </trkpt>
      <trkpt lat="38.271258" lon="-2.633662">
        <ele>1172.0</ele>
        <time>1989-12-30T23:59:59Z</time>
      </trkpt>
      <trkpt lat="38.271166" lon="-2.633577">
        <ele>1174.4</ele>
        <time>1989-12-30T23:59:59Z</time>
      </trkpt>
      <trkpt lat="38.271076" lon="-2.633508">
        <ele>1174.9</ele>
        <time>1989-12-30T23:59:59Z</time>
      </trkpt>
      <trkpt lat="38.270986" lon="-2.633459">
        <ele>1180.6</ele>
        <time>1989-12-30T23:59:59Z</time>
      </trkpt>
      <trkpt lat="38.270892" lon="-2.633429">
        <ele>1181.1</ele>
        <time>1989-12-30T23:59:59Z</time>
      </trkpt>
      <trkpt lat="38.270817" lon="-2.633363">
        <ele>1181.1</ele>
        <time>1989-12-30T23:59:59Z</time>
      </trkpt>
      <trkpt lat="38.270731" lon="-2.633339">
        <ele>1182.6</ele>
        <time>1989-12-30T23:59:59Z</time>
      </trkpt>
      <trkpt lat="38.270540" lon="-2.633360">
        <ele>1182.6</ele>
        <time>1989-12-30T23:59:59Z</time>
      </trkpt>
      <trkpt lat="38.270445" lon="-2.633363">
        <ele>1182.6</ele>
        <time>1989-12-30T23:59:59Z</time>
      </trkpt>
      <trkpt lat="38.270346" lon="-2.633354">
        <ele>1183.0</ele>
        <time>1989-12-30T23:59:59Z</time>
      </trkpt>
      <trkpt lat="38.270217" lon="-2.633295">
        <ele>1188.8</ele>
        <time>1989-12-30T23:59:59Z</time>
      </trkpt>
      <trkpt lat="38.270205" lon="-2.633238">
        <ele>1197.9</ele>
        <time>1989-12-30T23:59:59Z</time>
      </trkpt>
      <trkpt lat="38.269929" lon="-2.633185">
        <ele>1202.7</ele>
        <time>1989-12-30T23:59:59Z</time>
      </trkpt>
      <trkpt lat="38.269599" lon="-2.633060">
        <ele>1200.3</ele>
        <time>1989-12-30T23:59:59Z</time>
      </trkpt>
      <trkpt lat="38.269512" lon="-2.633345">
        <ele>1202.7</ele>
        <time>1989-12-30T23:59:59Z</time>
      </trkpt>
      <trkpt lat="38.269218" lon="-2.633365">
        <ele>1224.9</ele>
        <time>1989-12-30T23:59:59Z</time>
      </trkpt>
      <trkpt lat="38.268134" lon="-2.634260">
        <ele>1268.6</ele>
        <time>1989-12-30T23:59:59Z</time>
      </trkpt>
      <trkpt lat="38.267675" lon="-2.634300">
        <ele>1269.6</ele>
        <time>1989-12-30T23:59:59Z</time>
      </trkpt>
      <trkpt lat="38.267243" lon="-2.634373">
        <ele>1268.1</ele>
        <time>1989-12-30T23:59:59Z</time>
      </trkpt>
      <trkpt lat="38.266884" lon="-2.634401">
        <ele>1271.0</ele>
        <time>1989-12-30T23:59:59Z</time>
      </trkpt>
      <trkpt lat="38.266787" lon="-2.634055">
        <ele>1283.0</ele>
        <time>1989-12-30T23:59:59Z</time>
      </trkpt>
      <trkpt lat="38.267566" lon="-2.632942">
        <ele>1307.0</ele>
        <time>1989-12-30T23:59:59Z</time>
      </trkpt>
      <trkpt lat="38.267628" lon="-2.631950">
        <ele>1307.5</ele>
        <time>1989-12-30T23:59:59Z</time>
      </trkpt>
      <trkpt lat="38.267678" lon="-2.631480">
        <ele>1310.4</ele>
        <time>1989-12-30T23:59:59Z</time>
      </trkpt>
      <trkpt lat="38.267841" lon="-2.630856">
        <ele>1328.7</ele>
        <time>1989-12-30T23:59:59Z</time>
      </trkpt>
      <trkpt lat="38.267530" lon="-2.630594">
        <ele>1325.3</ele>
        <time>1989-12-30T23:59:59Z</time>
      </trkpt>
      <trkpt lat="38.267335" lon="-2.630603">
        <ele>1325.3</ele>
        <time>1989-12-30T23:59:59Z</time>
      </trkpt>
      <trkpt lat="38.266817" lon="-2.630487">
        <ele>1326.3</ele>
        <time>1989-12-30T23:59:59Z</time>
      </trkpt>
      <trkpt lat="38.266218" lon="-2.630444">
        <ele>1327.2</ele>
        <time>1989-12-30T23:59:59Z</time>
      </trkpt>
      <trkpt lat="38.265982" lon="-2.630537">
        <ele>1334.0</ele>
        <time>1989-12-30T23:59:59Z</time>
      </trkpt>
      <trkpt lat="38.265880" lon="-2.630565">
        <ele>1334.0</ele>
        <time>1989-12-30T23:59:59Z</time>
      </trkpt>
      <trkpt lat="38.265505" lon="-2.630711">
        <ele>1332.5</ele>
        <time>1989-12-30T23:59:59Z</time>
      </trkpt>
      <trkpt lat="38.265434" lon="-2.630797">
        <ele>1334.0</ele>
        <time>1989-12-30T23:59:59Z</time>
      </trkpt>
      <trkpt lat="38.265177" lon="-2.630975">
        <ele>1334.0</ele>
        <time>1989-12-30T23:59:59Z</time>
      </trkpt>
      <trkpt lat="38.264756" lon="-2.631183">
        <ele>1332.0</ele>
        <time>1989-12-30T23:59:59Z</time>
      </trkpt>
      <trkpt lat="38.264662" lon="-2.631259">
        <ele>1333.5</ele>
        <time>1989-12-30T23:59:59Z</time>
      </trkpt>
      <trkpt lat="38.264552" lon="-2.631333">
        <ele>1346.0</ele>
        <time>1989-12-30T23:59:59Z</time>
      </trkpt>
      <trkpt lat="38.264207" lon="-2.631539">
        <ele>1345.0</ele>
        <time>1989-12-30T23:59:59Z</time>
      </trkpt>
      <trkpt lat="38.264116" lon="-2.631635">
        <ele>1340.7</ele>
        <time>1989-12-30T23:59:59Z</time>
      </trkpt>
      <trkpt lat="38.263705" lon="-2.631706">
        <ele>1329.2</ele>
        <time>1989-12-30T23:59:59Z</time>
      </trkpt>
      <trkpt lat="38.263608" lon="-2.631772">
        <ele>1330.6</ele>
        <time>1989-12-30T23:59:59Z</time>
      </trkpt>
      <trkpt lat="38.263223" lon="-2.632092">
        <ele>1342.6</ele>
        <time>1989-12-30T23:59:59Z</time>
      </trkpt>
      <trkpt lat="38.263119" lon="-2.632144">
        <ele>1343.1</ele>
        <time>1989-12-30T23:59:59Z</time>
      </trkpt>
      <trkpt lat="38.262767" lon="-2.632363">
        <ele>1344.5</ele>
        <time>1989-12-30T23:59:59Z</time>
      </trkpt>
      <trkpt lat="38.262378" lon="-2.632514">
        <ele>1345.5</ele>
        <time>1989-12-30T23:59:59Z</time>
      </trkpt>
      <trkpt lat="38.262275" lon="-2.632491">
        <ele>1343.6</ele>
        <time>1989-12-30T23:59:59Z</time>
      </trkpt>
      <trkpt lat="38.261841" lon="-2.632430">
        <ele>1349.3</ele>
        <time>1989-12-30T23:59:59Z</time>
      </trkpt>
      <trkpt lat="38.261739" lon="-2.632424">
        <ele>1347.9</ele>
        <time>1989-12-30T23:59:59Z</time>
      </trkpt>
      <trkpt lat="38.261608" lon="-2.632425">
        <ele>1347.4</ele>
        <time>1989-12-30T23:59:59Z</time>
      </trkpt>
      <trkpt lat="38.261106" lon="-2.632737">
        <ele>1348.4</ele>
        <time>1989-12-30T23:59:59Z</time>
      </trkpt>
      <trkpt lat="38.260470" lon="-2.633072">
        <ele>1358.5</ele>
        <time>1989-12-30T23:59:59Z</time>
      </trkpt>
      <trkpt lat="38.259858" lon="-2.632980">
        <ele>1364.2</ele>
        <time>1989-12-30T23:59:59Z</time>
      </trkpt>
      <trkpt lat="38.259530" lon="-2.633020">
        <ele>1370.0</ele>
        <time>1989-12-30T23:59:59Z</time>
      </trkpt>
      <trkpt lat="38.259426" lon="-2.633057">
        <ele>1372.9</ele>
        <time>1989-12-30T23:59:59Z</time>
      </trkpt>
      <trkpt lat="38.259367" lon="-2.633063">
        <ele>1376.3</ele>
        <time>1989-12-30T23:59:59Z</time>
      </trkpt>
      <trkpt lat="38.259293" lon="-2.633104">
        <ele>1378.2</ele>
        <time>1989-12-30T23:59:59Z</time>
      </trkpt>
      <trkpt lat="38.259203" lon="-2.633123">
        <ele>1380.6</ele>
        <time>1989-12-30T23:59:59Z</time>
      </trkpt>
      <trkpt lat="38.259100" lon="-2.633099">
        <ele>1380.6</ele>
        <time>1989-12-30T23:59:59Z</time>
      </trkpt>
      <trkpt lat="38.259005" lon="-2.633056">
        <ele>1381.6</ele>
        <time>1989-12-30T23:59:59Z</time>
      </trkpt>
      <trkpt lat="38.258505" lon="-2.633045">
        <ele>1385.9</ele>
        <time>1989-12-30T23:59:59Z</time>
      </trkpt>
      <trkpt lat="38.258215" lon="-2.633005">
        <ele>1388.3</ele>
        <time>1989-12-30T23:59:59Z</time>
      </trkpt>
      <trkpt lat="38.258137" lon="-2.633106">
        <ele>1381.6</ele>
        <time>1989-12-30T23:59:59Z</time>
      </trkpt>
      <trkpt lat="38.258025" lon="-2.633235">
        <ele>1382.5</ele>
        <time>1989-12-30T23:59:59Z</time>
      </trkpt>
      <trkpt lat="38.258034" lon="-2.633575">
        <ele>1389.2</ele>
        <time>1989-12-30T23:59:59Z</time>
      </trkpt>
      <trkpt lat="38.257928" lon="-2.633919">
        <ele>1390.7</ele>
        <time>1989-12-30T23:59:59Z</time>
      </trkpt>
      <trkpt lat="38.257781" lon="-2.634275">
        <ele>1394.0</ele>
        <time>1989-12-30T23:59:59Z</time>
      </trkpt>
      <trkpt lat="38.257745" lon="-2.634517">
        <ele>1396.0</ele>
        <time>1989-12-30T23:59:59Z</time>
      </trkpt>
      <trkpt lat="38.257729" lon="-2.634637">
        <ele>1397.9</ele>
        <time>1989-12-30T23:59:59Z</time>
      </trkpt>
      <trkpt lat="38.257700" lon="-2.635086">
        <ele>1398.4</ele>
        <time>1989-12-30T23:59:59Z</time>
      </trkpt>
      <trkpt lat="38.257581" lon="-2.635916">
        <ele>1401.3</ele>
        <time>1989-12-30T23:59:59Z</time>
      </trkpt>
      <trkpt lat="38.257477" lon="-2.636264">
        <ele>1400.3</ele>
        <time>1989-12-30T23:59:59Z</time>
      </trkpt>
      <trkpt lat="38.257604" lon="-2.636351">
        <ele>1406.5</ele>
        <time>1989-12-30T23:59:59Z</time>
      </trkpt>
      <trkpt lat="38.258040" lon="-2.636449">
        <ele>1413.8</ele>
        <time>1989-12-30T23:59:59Z</time>
      </trkpt>
      <trkpt lat="38.257843" lon="-2.636598">
        <ele>1413.8</ele>
        <time>1989-12-30T23:59:59Z</time>
      </trkpt>
      <trkpt lat="38.257544" lon="-2.636970">
        <ele>1420.0</ele>
        <time>1989-12-30T23:59:59Z</time>
      </trkpt>
      <trkpt lat="38.257437" lon="-2.637024">
        <ele>1421.4</ele>
        <time>1989-12-30T23:59:59Z</time>
      </trkpt>
      <trkpt lat="38.257288" lon="-2.637126">
        <ele>1426.7</ele>
        <time>1989-12-30T23:59:59Z</time>
      </trkpt>
      <trkpt lat="38.257178" lon="-2.637313">
        <ele>1425.8</ele>
        <time>1989-12-30T23:59:59Z</time>
      </trkpt>
      <trkpt lat="38.256876" lon="-2.637511">
        <ele>1426.7</ele>
        <time>1989-12-30T23:59:59Z</time>
      </trkpt>
      <trkpt lat="38.256346" lon="-2.637872">
        <ele>1418.1</ele>
        <time>1989-12-30T23:59:59Z</time>
      </trkpt>
      <trkpt lat="38.256319" lon="-2.637996">
        <ele>1420.0</ele>
        <time>1989-12-30T23:59:59Z</time>
      </trkpt>
      <trkpt lat="38.256217" lon="-2.638312">
        <ele>1421.4</ele>
        <time>1989-12-30T23:59:59Z</time>
      </trkpt>
      <trkpt lat="38.256170" lon="-2.638406">
        <ele>1421.4</ele>
        <time>1989-12-30T23:59:59Z</time>
      </trkpt>
      <trkpt lat="38.256078" lon="-2.638749">
        <ele>1421.0</ele>
        <time>1989-12-30T23:59:59Z</time>
      </trkpt>
      <trkpt lat="38.256106" lon="-2.639336">
        <ele>1422.4</ele>
        <time>1989-12-30T23:59:59Z</time>
      </trkpt>
      <trkpt lat="38.256104" lon="-2.639579">
        <ele>1421.9</ele>
        <time>1989-12-30T23:59:59Z</time>
      </trkpt>
      <trkpt lat="38.255918" lon="-2.640128">
        <ele>1421.4</ele>
        <time>1989-12-30T23:59:59Z</time>
      </trkpt>
      <trkpt lat="38.255862" lon="-2.640314">
        <ele>1420.5</ele>
        <time>1989-12-30T23:59:59Z</time>
      </trkpt>
      <trkpt lat="38.255583" lon="-2.641074">
        <ele>1417.1</ele>
        <time>1989-12-30T23:59:59Z</time>
      </trkpt>
      <trkpt lat="38.255561" lon="-2.641196">
        <ele>1415.7</ele>
        <time>1989-12-30T23:59:59Z</time>
      </trkpt>
      <trkpt lat="38.255537" lon="-2.641344">
        <ele>1414.7</ele>
        <time>1989-12-30T23:59:59Z</time>
      </trkpt>
      <trkpt lat="38.255520" lon="-2.641480">
        <ele>1414.7</ele>
        <time>1989-12-30T23:59:59Z</time>
      </trkpt>
      <trkpt lat="38.255499" lon="-2.641749">
        <ele>1415.7</ele>
        <time>1989-12-30T23:59:59Z</time>
      </trkpt>
      <trkpt lat="38.255497" lon="-2.642132">
        <ele>1416.2</ele>
        <time>1989-12-30T23:59:59Z</time>
      </trkpt>
      <trkpt lat="38.255509" lon="-2.642253">
        <ele>1416.2</ele>
        <time>1989-12-30T23:59:59Z</time>
      </trkpt>
      <trkpt lat="38.255541" lon="-2.642337">
        <ele>1418.1</ele>
        <time>1989-12-30T23:59:59Z</time>
      </trkpt>
      <trkpt lat="38.255459" lon="-2.642674">
        <ele>1417.6</ele>
        <time>1989-12-30T23:59:59Z</time>
      </trkpt>
      <trkpt lat="38.255307" lon="-2.642971">
        <ele>1419.0</ele>
        <time>1989-12-30T23:59:59Z</time>
      </trkpt>
      <trkpt lat="38.255206" lon="-2.643231">
        <ele>1420.5</ele>
        <time>1989-12-30T23:59:59Z</time>
      </trkpt>
      <trkpt lat="38.254999" lon="-2.643674">
        <ele>1420.5</ele>
        <time>1989-12-30T23:59:59Z</time>
      </trkpt>
      <trkpt lat="38.254837" lon="-2.643994">
        <ele>1421.9</ele>
        <time>1989-12-30T23:59:59Z</time>
      </trkpt>
      <trkpt lat="38.254699" lon="-2.644334">
        <ele>1422.9</ele>
        <time>1989-12-30T23:59:59Z</time>
      </trkpt>
      <trkpt lat="38.254649" lon="-2.644452">
        <ele>1422.9</ele>
        <time>1989-12-30T23:59:59Z</time>
      </trkpt>
      <trkpt lat="38.254443" lon="-2.645048">
        <ele>1429.6</ele>
        <time>1989-12-30T23:59:59Z</time>
      </trkpt>
      <trkpt lat="38.254378" lon="-2.645136">
        <ele>1429.6</ele>
        <time>1989-12-30T23:59:59Z</time>
      </trkpt>
      <trkpt lat="38.254322" lon="-2.645240">
        <ele>1428.7</ele>
        <time>1989-12-30T23:59:59Z</time>
      </trkpt>
      <trkpt lat="38.254255" lon="-2.645337">
        <ele>1428.2</ele>
        <time>1989-12-30T23:59:59Z</time>
      </trkpt>
      <trkpt lat="38.253823" lon="-2.645679">
        <ele>1427.2</ele>
        <time>1989-12-30T23:59:59Z</time>
      </trkpt>
      <trkpt lat="38.253727" lon="-2.645730">
        <ele>1427.2</ele>
        <time>1989-12-30T23:59:59Z</time>
      </trkpt>
      <trkpt lat="38.253450" lon="-2.645882">
        <ele>1426.7</ele>
        <time>1989-12-30T23:59:59Z</time>
      </trkpt>
      <trkpt lat="38.253281" lon="-2.645987">
        <ele>1426.7</ele>
        <time>1989-12-30T23:59:59Z</time>
      </trkpt>
      <trkpt lat="38.253017" lon="-2.646160">
        <ele>1426.7</ele>
        <time>1989-12-30T23:59:59Z</time>
      </trkpt>
      <trkpt lat="38.252815" lon="-2.646427">
        <ele>1426.7</ele>
        <time>1989-12-30T23:59:59Z</time>
      </trkpt>
      <trkpt lat="38.252616" lon="-2.646703">
        <ele>1428.2</ele>
        <time>1989-12-30T23:59:59Z</time>
      </trkpt>
      <trkpt lat="38.252474" lon="-2.646880">
        <ele>1428.7</ele>
        <time>1989-12-30T23:59:59Z</time>
      </trkpt>
      <trkpt lat="38.252409" lon="-2.646969">
        <ele>1428.7</ele>
        <time>1989-12-30T23:59:59Z</time>
      </trkpt>
      <trkpt lat="38.252266" lon="-2.647142">
        <ele>1428.2</ele>
        <time>1989-12-30T23:59:59Z</time>
      </trkpt>
      <trkpt lat="38.251960" lon="-2.647428">
        <ele>1430.1</ele>
        <time>1989-12-30T23:59:59Z</time>
      </trkpt>
      <trkpt lat="38.251872" lon="-2.647483">
        <ele>1431.1</ele>
        <time>1989-12-30T23:59:59Z</time>
      </trkpt>
      <trkpt lat="38.251431" lon="-2.647717">
        <ele>1431.1</ele>
        <time>1989-12-30T23:59:59Z</time>
      </trkpt>
      <trkpt lat="38.250900" lon="-2.648087">
        <ele>1431.1</ele>
        <time>1989-12-30T23:59:59Z</time>
      </trkpt>
      <trkpt lat="38.250819" lon="-2.648145">
        <ele>1431.1</ele>
        <time>1989-12-30T23:59:59Z</time>
      </trkpt>
      <trkpt lat="38.250741" lon="-2.648210">
        <ele>1430.6</ele>
        <time>1989-12-30T23:59:59Z</time>
      </trkpt>
      <trkpt lat="38.250648" lon="-2.648274">
        <ele>1430.6</ele>
        <time>1989-12-30T23:59:59Z</time>
      </trkpt>
      <trkpt lat="38.250194" lon="-2.648575">
        <ele>1429.6</ele>
        <time>1989-12-30T23:59:59Z</time>
      </trkpt>
      <trkpt lat="38.249617" lon="-2.649044">
        <ele>1430.1</ele>
        <time>1989-12-30T23:59:59Z</time>
      </trkpt>
      <trkpt lat="38.249120" lon="-2.649410">
        <ele>1430.1</ele>
        <time>1989-12-30T23:59:59Z</time>
      </trkpt>
      <trkpt lat="38.248630" lon="-2.649528">
        <ele>1432.0</ele>
        <time>1989-12-30T23:59:59Z</time>
      </trkpt>
      <trkpt lat="38.248362" lon="-2.649659">
        <ele>1430.6</ele>
        <time>1989-12-30T23:59:59Z</time>
      </trkpt>
      <trkpt lat="38.248265" lon="-2.649694">
        <ele>1431.5</ele>
        <time>1989-12-30T23:59:59Z</time>
      </trkpt>
      <trkpt lat="38.248184" lon="-2.649728">
        <ele>1430.1</ele>
        <time>1989-12-30T23:59:59Z</time>
      </trkpt>
      <trkpt lat="38.248094" lon="-2.649777">
        <ele>1430.6</ele>
        <time>1989-12-30T23:59:59Z</time>
      </trkpt>
      <trkpt lat="38.247921" lon="-2.649894">
        <ele>1432.0</ele>
        <time>1989-12-30T23:59:59Z</time>
      </trkpt>
      <trkpt lat="38.247669" lon="-2.650083">
        <ele>1434.4</ele>
        <time>1989-12-30T23:59:59Z</time>
      </trkpt>
      <trkpt lat="38.247584" lon="-2.650132">
        <ele>1433.9</ele>
        <time>1989-12-30T23:59:59Z</time>
      </trkpt>
      <trkpt lat="38.247150" lon="-2.650359">
        <ele>1434.4</ele>
        <time>1989-12-30T23:59:59Z</time>
      </trkpt>
      <trkpt lat="38.247061" lon="-2.650401">
        <ele>1434.4</ele>
        <time>1989-12-30T23:59:59Z</time>
      </trkpt>
      <trkpt lat="38.246606" lon="-2.650624">
        <ele>1434.4</ele>
        <time>1989-12-30T23:59:59Z</time>
      </trkpt>
      <trkpt lat="38.246522" lon="-2.650665">
        <ele>1434.4</ele>
        <time>1989-12-30T23:59:59Z</time>
      </trkpt>
      <trkpt lat="38.246441" lon="-2.650702">
        <ele>1435.4</ele>
        <time>1989-12-30T23:59:59Z</time>
      </trkpt>
      <trkpt lat="38.246376" lon="-2.650737">
        <ele>1433.5</ele>
        <time>1989-12-30T23:59:59Z</time>
      </trkpt>
      <trkpt lat="38.246300" lon="-2.650809">
        <ele>1433.5</ele>
        <time>1989-12-30T23:59:59Z</time>
      </trkpt>
      <trkpt lat="38.246220" lon="-2.650855">
        <ele>1434.4</ele>
        <time>1989-12-30T23:59:59Z</time>
      </trkpt>
      <trkpt lat="38.245977" lon="-2.650978">
        <ele>1433.9</ele>
        <time>1989-12-30T23:59:59Z</time>
      </trkpt>
      <trkpt lat="38.245911" lon="-2.651127">
        <ele>1434.0</ele>
        <time>1989-12-30T23:59:59Z</time>
      </trkpt>
      <trkpt lat="38.245884" lon="-2.651105">
        <ele>1438.8</ele>
        <time>2010-02-07T07:45:47Z</time>
      </trkpt>
      <trkpt lat="38.245933" lon="-2.651077">
        <ele>1435.4</ele>
        <time>2010-02-07T07:48:56Z</time>
      </trkpt>
      <trkpt lat="38.245968" lon="-2.651191">
        <ele>1435.9</ele>
        <time>2010-02-07T07:49:04Z</time>
      </trkpt>
      <trkpt lat="38.245962" lon="-2.651411">
        <ele>1435.9</ele>
        <time>2010-02-07T07:49:27Z</time>
      </trkpt>
      <trkpt lat="38.245992" lon="-2.651567">
        <ele>1444.5</ele>
        <time>2010-02-07T07:52:28Z</time>
      </trkpt>
      <trkpt lat="38.245957" lon="-2.651820">
        <ele>1451.7</ele>
        <time>2010-02-07T07:53:28Z</time>
      </trkpt>
      <trkpt lat="38.245957" lon="-2.651820">
        <ele>1449.8</ele>
        <time>2010-02-07T07:53:34Z</time>
      </trkpt>
      <trkpt lat="38.245876" lon="-2.652028">
        <ele>1449.3</ele>
        <time>2010-02-07T07:53:40Z</time>
      </trkpt>
      <trkpt lat="38.245876" lon="-2.652028">
        <ele>1448.4</ele>
        <time>2010-02-07T07:53:48Z</time>
      </trkpt>
      <trkpt lat="38.245818" lon="-2.652192">
        <ele>1446.9</ele>
        <time>2010-02-07T07:53:57Z</time>
      </trkpt>
      <trkpt lat="38.245681" lon="-2.652424">
        <ele>1446.4</ele>
        <time>2010-02-07T07:54:47Z</time>
      </trkpt>
      <trkpt lat="38.245640" lon="-2.652537">
        <ele>1447.9</ele>
        <time>2010-02-07T07:54:57Z</time>
      </trkpt>
      <trkpt lat="38.245549" lon="-2.652637">
        <ele>1448.8</ele>
        <time>2010-02-07T07:55:09Z</time>
      </trkpt>
      <trkpt lat="38.245456" lon="-2.652720">
        <ele>1448.4</ele>
        <time>2010-02-07T07:55:18Z</time>
      </trkpt>
      <trkpt lat="38.245270" lon="-2.652870">
        <ele>1450.3</ele>
        <time>2010-02-07T07:55:35Z</time>
      </trkpt>
      <trkpt lat="38.245165" lon="-2.652954">
        <ele>1448.8</ele>
        <time>2010-02-07T07:55:42Z</time>
      </trkpt>
      <trkpt lat="38.245092" lon="-2.653045">
        <ele>1448.8</ele>
        <time>2010-02-07T07:55:49Z</time>
      </trkpt>
      <trkpt lat="38.245031" lon="-2.653143">
        <ele>1446.9</ele>
        <time>2010-02-07T07:55:56Z</time>
      </trkpt>
      <trkpt lat="38.244958" lon="-2.653241">
        <ele>1447.4</ele>
        <time>2010-02-07T07:56:03Z</time>
      </trkpt>
      <trkpt lat="38.244935" lon="-2.653341">
        <ele>1447.4</ele>
        <time>2010-02-07T07:56:10Z</time>
      </trkpt>
      <trkpt lat="38.244871" lon="-2.653425">
        <ele>1446.9</ele>
        <time>2010-02-07T07:56:16Z</time>
      </trkpt>
      <trkpt lat="38.244819" lon="-2.653491">
        <ele>1446.4</ele>
        <time>2010-02-07T07:56:21Z</time>
      </trkpt>
      <trkpt lat="38.244762" lon="-2.653581">
        <ele>1446.9</ele>
        <time>2010-02-07T07:56:28Z</time>
      </trkpt>
      <trkpt lat="38.244784" lon="-2.653830">
        <ele>1457.0</ele>
        <time>2010-02-07T07:58:29Z</time>
      </trkpt>
      <trkpt lat="38.244728" lon="-2.653909">
        <ele>1456.5</ele>
        <time>2010-02-07T07:58:47Z</time>
      </trkpt>
      <trkpt lat="38.244687" lon="-2.654033">
        <ele>1457.0</ele>
        <time>2010-02-07T07:59:01Z</time>
      </trkpt>
      <trkpt lat="38.244554" lon="-2.654253">
        <ele>1456.1</ele>
        <time>2010-02-07T07:59:19Z</time>
      </trkpt>
      <trkpt lat="38.244484" lon="-2.654385">
        <ele>1456.5</ele>
        <time>2010-02-07T07:59:28Z</time>
      </trkpt>
      <trkpt lat="38.244428" lon="-2.654494">
        <ele>1456.5</ele>
        <time>2010-02-07T07:59:35Z</time>
      </trkpt>
      <trkpt lat="38.244358" lon="-2.654610">
        <ele>1456.5</ele>
        <time>2010-02-07T07:59:43Z</time>
      </trkpt>
      <trkpt lat="38.244061" lon="-2.655116">
        <ele>1516.6</ele>
        <time>2010-02-07T08:00:20Z</time>
      </trkpt>
      <trkpt lat="38.242972" lon="-2.655822">
        <ele>1503.2</ele>
        <time>2010-02-07T08:01:49Z</time>
      </trkpt>
      <trkpt lat="38.242811" lon="-2.655935">
        <ele>1503.2</ele>
        <time>2010-02-07T08:02:07Z</time>
      </trkpt>
      <trkpt lat="38.242714" lon="-2.656043">
        <ele>1480.1</ele>
        <time>2010-02-07T08:02:46Z</time>
      </trkpt>
      <trkpt lat="38.242571" lon="-2.656448">
        <ele>1477.7</ele>
        <time>2010-02-07T08:09:41Z</time>
      </trkpt>
      <trkpt lat="38.242328" lon="-2.656803">
        <ele>1478.2</ele>
        <time>2010-02-07T08:10:05Z</time>
      </trkpt>
      <trkpt lat="38.242164" lon="-2.657167">
        <ele>1478.6</ele>
        <time>2010-02-07T08:10:23Z</time>
      </trkpt>
      <trkpt lat="38.242112" lon="-2.657285">
        <ele>1478.6</ele>
        <time>2010-02-07T08:10:29Z</time>
      </trkpt>
      <trkpt lat="38.241991" lon="-2.657637">
        <ele>1478.6</ele>
        <time>2010-02-07T08:10:50Z</time>
      </trkpt>
      <trkpt lat="38.241922" lon="-2.657867">
        <ele>1478.6</ele>
        <time>2010-02-07T08:11:31Z</time>
      </trkpt>
      <trkpt lat="38.241918" lon="-2.657993">
        <ele>1478.2</ele>
        <time>2010-02-07T08:11:38Z</time>
      </trkpt>
      <trkpt lat="38.241940" lon="-2.658108">
        <ele>1478.2</ele>
        <time>2010-02-07T08:11:45Z</time>
      </trkpt>
      <trkpt lat="38.241990" lon="-2.658236">
        <ele>1479.6</ele>
        <time>2010-02-07T08:11:53Z</time>
      </trkpt>
      <trkpt lat="38.242064" lon="-2.658316">
        <ele>1478.6</ele>
        <time>2010-02-07T08:12:00Z</time>
      </trkpt>
      <trkpt lat="38.242159" lon="-2.658365">
        <ele>1478.2</ele>
        <time>2010-02-07T08:12:07Z</time>
      </trkpt>
      <trkpt lat="38.242268" lon="-2.658390">
        <ele>1477.7</ele>
        <time>2010-02-07T08:12:14Z</time>
      </trkpt>
      <trkpt lat="38.242375" lon="-2.658374">
        <ele>1476.7</ele>
        <time>2010-02-07T08:12:21Z</time>
      </trkpt>
      <trkpt lat="38.242476" lon="-2.658354">
        <ele>1477.2</ele>
        <time>2010-02-07T08:12:28Z</time>
      </trkpt>
      <trkpt lat="38.242589" lon="-2.658341">
        <ele>1475.3</ele>
        <time>2010-02-07T08:12:36Z</time>
      </trkpt>
      <trkpt lat="38.242678" lon="-2.658361">
        <ele>1475.8</ele>
        <time>2010-02-07T08:12:43Z</time>
      </trkpt>
      <trkpt lat="38.242759" lon="-2.658435">
        <ele>1475.8</ele>
        <time>2010-02-07T08:12:50Z</time>
      </trkpt>
      <trkpt lat="38.242778" lon="-2.658573">
        <ele>1476.2</ele>
        <time>2010-02-07T08:12:58Z</time>
      </trkpt>
      <trkpt lat="38.242738" lon="-2.658789">
        <ele>1479.6</ele>
        <time>2010-02-07T08:13:12Z</time>
      </trkpt>
      <trkpt lat="38.242696" lon="-2.658909">
        <ele>1479.6</ele>
        <time>2010-02-07T08:13:20Z</time>
      </trkpt>
      <trkpt lat="38.242657" lon="-2.659038">
        <ele>1478.2</ele>
        <time>2010-02-07T08:13:28Z</time>
      </trkpt>
      <trkpt lat="38.242620" lon="-2.659148">
        <ele>1477.7</ele>
        <time>2010-02-07T08:13:35Z</time>
      </trkpt>
      <trkpt lat="38.242558" lon="-2.659256">
        <ele>1478.2</ele>
        <time>2010-02-07T08:13:43Z</time>
      </trkpt>
      <trkpt lat="38.242489" lon="-2.659348">
        <ele>1477.7</ele>
        <time>2010-02-07T08:13:51Z</time>
      </trkpt>
      <trkpt lat="38.242401" lon="-2.659411">
        <ele>1477.7</ele>
        <time>2010-02-07T08:13:58Z</time>
      </trkpt>
      <trkpt lat="38.242308" lon="-2.659498">
        <ele>1478.6</ele>
        <time>2010-02-07T08:14:09Z</time>
      </trkpt>
      <trkpt lat="38.242245" lon="-2.659598">
        <ele>1478.6</ele>
        <time>2010-02-07T08:14:16Z</time>
      </trkpt>
      <trkpt lat="38.242206" lon="-2.659706">
        <ele>1479.6</ele>
        <time>2010-02-07T08:14:24Z</time>
      </trkpt>
      <trkpt lat="38.242135" lon="-2.659818">
        <ele>1479.1</ele>
        <time>2010-02-07T08:14:32Z</time>
      </trkpt>
      <trkpt lat="38.241968" lon="-2.659966">
        <ele>1480.1</ele>
        <time>2010-02-07T08:14:50Z</time>
      </trkpt>
      <trkpt lat="38.241902" lon="-2.660034">
        <ele>1480.1</ele>
        <time>2010-02-07T08:14:58Z</time>
      </trkpt>
      <trkpt lat="38.241746" lon="-2.660180">
        <ele>1479.6</ele>
        <time>2010-02-07T08:15:16Z</time>
      </trkpt>
      <trkpt lat="38.241673" lon="-2.660273">
        <ele>1479.6</ele>
        <time>2010-02-07T08:15:27Z</time>
      </trkpt>
      <trkpt lat="38.241590" lon="-2.660375">
        <ele>1477.2</ele>
        <time>2010-02-07T08:15:36Z</time>
      </trkpt>
      <trkpt lat="38.241492" lon="-2.660456">
        <ele>1479.6</ele>
        <time>2010-02-07T08:15:44Z</time>
      </trkpt>
      <trkpt lat="38.241398" lon="-2.660532">
        <ele>1480.1</ele>
        <time>2010-02-07T08:15:52Z</time>
      </trkpt>
      <trkpt lat="38.241335" lon="-2.660606">
        <ele>1482.0</ele>
        <time>2010-02-07T08:15:59Z</time>
      </trkpt>
      <trkpt lat="38.241260" lon="-2.660675">
        <ele>1482.0</ele>
        <time>2010-02-07T08:16:07Z</time>
      </trkpt>
      <trkpt lat="38.241189" lon="-2.660750">
        <ele>1482.0</ele>
        <time>2010-02-07T08:16:15Z</time>
      </trkpt>
      <trkpt lat="38.241112" lon="-2.660846">
        <ele>1485.9</ele>
        <time>2010-02-07T08:16:23Z</time>
      </trkpt>
      <trkpt lat="38.241027" lon="-2.660932">
        <ele>1487.3</ele>
        <time>2010-02-07T08:16:32Z</time>
      </trkpt>
      <trkpt lat="38.240956" lon="-2.661015">
        <ele>1486.8</ele>
        <time>2010-02-07T08:16:41Z</time>
      </trkpt>
      <trkpt lat="38.240877" lon="-2.661092">
        <ele>1486.3</ele>
        <time>2010-02-07T08:16:52Z</time>
      </trkpt>
      <trkpt lat="38.240727" lon="-2.661229">
        <ele>1485.9</ele>
        <time>2010-02-07T08:17:10Z</time>
      </trkpt>
      <trkpt lat="38.240643" lon="-2.661320">
        <ele>1488.3</ele>
        <time>2010-02-07T08:17:20Z</time>
      </trkpt>
      <trkpt lat="38.240555" lon="-2.661407">
        <ele>1491.6</ele>
        <time>2010-02-07T08:17:29Z</time>
      </trkpt>
      <trkpt lat="38.240494" lon="-2.661515">
        <ele>1491.6</ele>
        <time>2010-02-07T08:17:43Z</time>
      </trkpt>
      <trkpt lat="38.240423" lon="-2.661621">
        <ele>1491.1</ele>
        <time>2010-02-07T08:17:51Z</time>
      </trkpt>
      <trkpt lat="38.240288" lon="-2.661809">
        <ele>1491.1</ele>
        <time>2010-02-07T08:18:08Z</time>
      </trkpt>
      <trkpt lat="38.240096" lon="-2.661945">
        <ele>1494.0</ele>
        <time>2010-02-07T08:18:25Z</time>
      </trkpt>
      <trkpt lat="38.239954" lon="-2.662067">
        <ele>1497.4</ele>
        <time>2010-02-07T08:20:00Z</time>
      </trkpt>
      <trkpt lat="38.239869" lon="-2.662160">
        <ele>1496.9</ele>
        <time>2010-02-07T08:20:10Z</time>
      </trkpt>
      <trkpt lat="38.239772" lon="-2.662250">
        <ele>1499.8</ele>
        <time>2010-02-07T08:20:32Z</time>
      </trkpt>
      <trkpt lat="38.239696" lon="-2.662366">
        <ele>1499.8</ele>
        <time>2010-02-07T08:20:44Z</time>
      </trkpt>
      <trkpt lat="38.239477" lon="-2.662677">
        <ele>1500.8</ele>
        <time>2010-02-07T08:21:13Z</time>
      </trkpt>
      <trkpt lat="38.239420" lon="-2.662793">
        <ele>1500.8</ele>
        <time>2010-02-07T08:21:23Z</time>
      </trkpt>
      <trkpt lat="38.239370" lon="-2.662903">
        <ele>1500.8</ele>
        <time>2010-02-07T08:21:32Z</time>
      </trkpt>
      <trkpt lat="38.239310" lon="-2.663034">
        <ele>1500.8</ele>
        <time>2010-02-07T08:21:39Z</time>
      </trkpt>
      <trkpt lat="38.239256" lon="-2.663128">
        <ele>1500.8</ele>
        <time>2010-02-07T08:21:46Z</time>
      </trkpt>
      <trkpt lat="38.239182" lon="-2.663224">
        <ele>1500.8</ele>
        <time>2010-02-07T08:21:54Z</time>
      </trkpt>
      <trkpt lat="38.239095" lon="-2.663282">
        <ele>1500.3</ele>
        <time>2010-02-07T08:22:03Z</time>
      </trkpt>
      <trkpt lat="38.239008" lon="-2.663359">
        <ele>1501.2</ele>
        <time>2010-02-07T08:22:11Z</time>
      </trkpt>
      <trkpt lat="38.238915" lon="-2.663428">
        <ele>1500.8</ele>
        <time>2010-02-07T08:22:19Z</time>
      </trkpt>
      <trkpt lat="38.238734" lon="-2.663528">
        <ele>1503.2</ele>
        <time>2010-02-07T08:22:33Z</time>
      </trkpt>
      <trkpt lat="38.238642" lon="-2.663573">
        <ele>1505.6</ele>
        <time>2010-02-07T08:22:41Z</time>
      </trkpt>
      <trkpt lat="38.238568" lon="-2.663653">
        <ele>1505.6</ele>
        <time>2010-02-07T08:22:50Z</time>
      </trkpt>
      <trkpt lat="38.238497" lon="-2.663743">
        <ele>1505.1</ele>
        <time>2010-02-07T08:22:59Z</time>
      </trkpt>
      <trkpt lat="38.238432" lon="-2.663848">
        <ele>1505.1</ele>
        <time>2010-02-07T08:23:07Z</time>
      </trkpt>
      <trkpt lat="38.238354" lon="-2.663942">
        <ele>1505.6</ele>
        <time>2010-02-07T08:23:14Z</time>
      </trkpt>
      <trkpt lat="38.238256" lon="-2.663994">
        <ele>1507.5</ele>
        <time>2010-02-07T08:23:22Z</time>
      </trkpt>
      <trkpt lat="38.238153" lon="-2.664005">
        <ele>1508.9</ele>
        <time>2010-02-07T08:23:30Z</time>
      </trkpt>
      <trkpt lat="38.238043" lon="-2.664003">
        <ele>1508.4</ele>
        <time>2010-02-07T08:23:39Z</time>
      </trkpt>
      <trkpt lat="38.237938" lon="-2.663995">
        <ele>1509.4</ele>
        <time>2010-02-07T08:23:52Z</time>
      </trkpt>
      <trkpt lat="38.237788" lon="-2.663914">
        <ele>1530.6</ele>
        <time>2010-02-07T08:32:50Z</time>
      </trkpt>
      <trkpt lat="38.237683" lon="-2.663939">
        <ele>1521.4</ele>
        <time>2010-02-07T08:33:40Z</time>
      </trkpt>
      <trkpt lat="38.237603" lon="-2.664012">
        <ele>1520.9</ele>
        <time>2010-02-07T08:33:48Z</time>
      </trkpt>
      <trkpt lat="38.237542" lon="-2.664116">
        <ele>1518.5</ele>
        <time>2010-02-07T08:33:57Z</time>
      </trkpt>
      <trkpt lat="38.237344" lon="-2.664221">
        <ele>1526.7</ele>
        <time>2010-02-07T08:43:54Z</time>
      </trkpt>
      <trkpt lat="38.237263" lon="-2.664332">
        <ele>1526.7</ele>
        <time>2010-02-07T08:44:07Z</time>
      </trkpt>
      <trkpt lat="38.237005" lon="-2.664833">
        <ele>1516.6</ele>
        <time>2010-02-07T08:45:19Z</time>
      </trkpt>
      <trkpt lat="38.236931" lon="-2.665061">
        <ele>1515.2</ele>
        <time>2010-02-07T08:45:43Z</time>
      </trkpt>
      <trkpt lat="38.236835" lon="-2.665254">
        <ele>1491.1</ele>
        <time>1989-12-30T23:59:59Z</time>
      </trkpt>
      <trkpt lat="38.236655" lon="-2.665341">
        <ele>1492.1</ele>
        <time>1989-12-30T23:59:59Z</time>
      </trkpt>
      <trkpt lat="38.236413" lon="-2.665236">
        <ele>1488.3</ele>
        <time>1989-12-30T23:59:59Z</time>
      </trkpt>
      <trkpt lat="38.236270" lon="-2.665305">
        <ele>1496.4</ele>
        <time>1989-12-30T23:59:59Z</time>
      </trkpt>
      <trkpt lat="38.236020" lon="-2.665502">
        <ele>1486.3</ele>
        <time>1989-12-30T23:59:59Z</time>
      </trkpt>
      <trkpt lat="38.235974" lon="-2.665540">
        <ele>1476.7</ele>
        <time>1989-12-30T23:59:59Z</time>
      </trkpt>
      <trkpt lat="38.235663" lon="-2.665927">
        <ele>1472.9</ele>
        <time>1989-12-30T23:59:59Z</time>
      </trkpt>
      <trkpt lat="38.235476" lon="-2.666339">
        <ele>1474.3</ele>
        <time>1989-12-30T23:59:59Z</time>
      </trkpt>
      <trkpt lat="38.235238" lon="-2.666474">
        <ele>1467.1</ele>
        <time>1989-12-30T23:59:59Z</time>
      </trkpt>
      <trkpt lat="38.235135" lon="-2.666548">
        <ele>1458.5</ele>
        <time>1989-12-30T23:59:59Z</time>
      </trkpt>
      <trkpt lat="38.234754" lon="-2.666894">
        <ele>1457.0</ele>
        <time>1989-12-30T23:59:59Z</time>
      </trkpt>
      <trkpt lat="38.234220" lon="-2.667245">
        <ele>1451.7</ele>
        <time>1989-12-30T23:59:59Z</time>
      </trkpt>
      <trkpt lat="38.233827" lon="-2.667300">
        <ele>1435.9</ele>
        <time>1989-12-30T23:59:59Z</time>
      </trkpt>
      <trkpt lat="38.233729" lon="-2.667323">
        <ele>1425.3</ele>
        <time>1989-12-30T23:59:59Z</time>
      </trkpt>
      <trkpt lat="38.233467" lon="-2.667672">
        <ele>1416.2</ele>
        <time>1989-12-30T23:59:59Z</time>
      </trkpt>
      <trkpt lat="38.233331" lon="-2.667800">
        <ele>1409.9</ele>
        <time>1989-12-30T23:59:59Z</time>
      </trkpt>
      <trkpt lat="38.233206" lon="-2.667967">
        <ele>1412.8</ele>
        <time>1989-12-30T23:59:59Z</time>
      </trkpt>
      <trkpt lat="38.233143" lon="-2.667954">
        <ele>1402.7</ele>
        <time>1989-12-30T23:59:59Z</time>
      </trkpt>
      <trkpt lat="38.232933" lon="-2.667940">
        <ele>1395.5</ele>
        <time>1989-12-30T23:59:59Z</time>
      </trkpt>
      <trkpt lat="38.232783" lon="-2.668054">
        <ele>1415.7</ele>
        <time>1989-12-30T23:59:59Z</time>
      </trkpt>
      <trkpt lat="38.232633" lon="-2.668303">
        <ele>1399.3</ele>
        <time>1989-12-30T23:59:59Z</time>
      </trkpt>
      <trkpt lat="38.232549" lon="-2.668374">
        <ele>1397.4</ele>
        <time>1989-12-30T23:59:59Z</time>
      </trkpt>
      <trkpt lat="38.232450" lon="-2.668391">
        <ele>1397.9</ele>
        <time>1989-12-30T23:59:59Z</time>
      </trkpt>
      <trkpt lat="38.232355" lon="-2.668427">
        <ele>1397.9</ele>
        <time>1989-12-30T23:59:59Z</time>
      </trkpt>
      <trkpt lat="38.232265" lon="-2.668392">
        <ele>1391.2</ele>
        <time>1989-12-30T23:59:59Z</time>
      </trkpt>
      <trkpt lat="38.232061" lon="-2.668332">
        <ele>1390.7</ele>
        <time>1989-12-30T23:59:59Z</time>
      </trkpt>
      <trkpt lat="38.231777" lon="-2.668343">
        <ele>1388.8</ele>
        <time>1989-12-30T23:59:59Z</time>
      </trkpt>
      <trkpt lat="38.231543" lon="-2.668715">
        <ele>1388.3</ele>
        <time>1989-12-30T23:59:59Z</time>
      </trkpt>
      <trkpt lat="38.231494" lon="-2.669013">
        <ele>1389.2</ele>
        <time>1989-12-30T23:59:59Z</time>
      </trkpt>
      <trkpt lat="38.231377" lon="-2.669102">
        <ele>1378.7</ele>
        <time>1989-12-30T23:59:59Z</time>
      </trkpt>
      <trkpt lat="38.231016" lon="-2.669388">
        <ele>1385.9</ele>
        <time>1989-12-30T23:59:59Z</time>
      </trkpt>
      <trkpt lat="38.230958" lon="-2.669591">
        <ele>1384.4</ele>
        <time>1989-12-30T23:59:59Z</time>
      </trkpt>
      <trkpt lat="38.230958" lon="-2.669802">
        <ele>1382.0</ele>
        <time>1989-12-30T23:59:59Z</time>
      </trkpt>
      <trkpt lat="38.230807" lon="-2.669931">
        <ele>1384.0</ele>
        <time>1989-12-30T23:59:59Z</time>
      </trkpt>
      <trkpt lat="38.230621" lon="-2.669876">
        <ele>1380.1</ele>
        <time>1989-12-30T23:59:59Z</time>
      </trkpt>
      <trkpt lat="38.230529" lon="-2.669895">
        <ele>1380.6</ele>
        <time>1989-12-30T23:59:59Z</time>
      </trkpt>
      <trkpt lat="38.230366" lon="-2.670102">
        <ele>1381.6</ele>
        <time>1989-12-30T23:59:59Z</time>
      </trkpt>
      <trkpt lat="38.230103" lon="-2.670158">
        <ele>1380.6</ele>
        <time>1989-12-30T23:59:59Z</time>
      </trkpt>
      <trkpt lat="38.230122" lon="-2.670287">
        <ele>1382.0</ele>
        <time>1989-12-30T23:59:59Z</time>
      </trkpt>
      <trkpt lat="38.230080" lon="-2.670397">
        <ele>1377.7</ele>
        <time>1989-12-30T23:59:59Z</time>
      </trkpt>
      <trkpt lat="38.229885" lon="-2.670719">
        <ele>1383.0</ele>
        <time>1989-12-30T23:59:59Z</time>
      </trkpt>
      <trkpt lat="38.229959" lon="-2.670774">
        <ele>1383.0</ele>
        <time>1989-12-30T23:59:59Z</time>
      </trkpt>
      <trkpt lat="38.229850" lon="-2.670977">
        <ele>1383.5</ele>
        <time>1989-12-30T23:59:59Z</time>
      </trkpt>
      <trkpt lat="38.229728" lon="-2.671029">
        <ele>1381.1</ele>
        <time>1989-12-30T23:59:59Z</time>
      </trkpt>
      <trkpt lat="38.229664" lon="-2.671251">
        <ele>1379.1</ele>
        <time>1989-12-30T23:59:59Z</time>
      </trkpt>
      <trkpt lat="38.229385" lon="-2.671506">
        <ele>1380.1</ele>
        <time>1989-12-30T23:59:59Z</time>
      </trkpt>
      <trkpt lat="38.229091" lon="-2.671977">
        <ele>1371.9</ele>
        <time>1989-12-30T23:59:59Z</time>
      </trkpt>
      <trkpt lat="38.228907" lon="-2.672021">
        <ele>1367.6</ele>
        <time>1989-12-30T23:59:59Z</time>
      </trkpt>
      <trkpt lat="38.228762" lon="-2.672151">
        <ele>1365.7</ele>
        <time>1989-12-30T23:59:59Z</time>
      </trkpt>
      <trkpt lat="38.228753" lon="-2.672264">
        <ele>1364.2</ele>
        <time>1989-12-30T23:59:59Z</time>
      </trkpt>
      <trkpt lat="38.228624" lon="-2.672508">
        <ele>1361.8</ele>
        <time>1989-12-30T23:59:59Z</time>
      </trkpt>
      <trkpt lat="38.228465" lon="-2.672708">
        <ele>1361.8</ele>
        <time>1989-12-30T23:59:59Z</time>
      </trkpt>
      <trkpt lat="38.228248" lon="-2.673125">
        <ele>1359.4</ele>
        <time>1989-12-30T23:59:59Z</time>
      </trkpt>
      <trkpt lat="38.228310" lon="-2.673388">
        <ele>1362.8</ele>
        <time>1989-12-30T23:59:59Z</time>
      </trkpt>
      <trkpt lat="38.228279" lon="-2.673532">
        <ele>1361.8</ele>
        <time>1989-12-30T23:59:59Z</time>
      </trkpt>
      <trkpt lat="38.228335" lon="-2.673676">
        <ele>1366.2</ele>
        <time>1989-12-30T23:59:59Z</time>
      </trkpt>
      <trkpt lat="38.228315" lon="-2.673786">
        <ele>1376.3</ele>
        <time>1989-12-30T23:59:59Z</time>
      </trkpt>
      <trkpt lat="38.228099" lon="-2.673576">
        <ele>1378.7</ele>
        <time>1989-12-30T23:59:59Z</time>
      </trkpt>
      <trkpt lat="38.227711" lon="-2.673633">
        <ele>1382.0</ele>
        <time>1989-12-30T23:59:59Z</time>
      </trkpt>
      <trkpt lat="38.227372" lon="-2.673576">
        <ele>1383.5</ele>
        <time>1989-12-30T23:59:59Z</time>
      </trkpt>
      <trkpt lat="38.226852" lon="-2.673355">
        <ele>1385.9</ele>
        <time>1989-12-30T23:59:59Z</time>
      </trkpt>
      <trkpt lat="38.226777" lon="-2.673259">
        <ele>1386.4</ele>
        <time>1989-12-30T23:59:59Z</time>
      </trkpt>
      <trkpt lat="38.226674" lon="-2.673125">
        <ele>1394.0</ele>
        <time>1989-12-30T23:59:59Z</time>
      </trkpt>
      <trkpt lat="38.226407" lon="-2.673278">
        <ele>1396.0</ele>
        <time>1989-12-30T23:59:59Z</time>
      </trkpt>
      <trkpt lat="38.226312" lon="-2.673283">
        <ele>1396.5</ele>
        <time>1989-12-30T23:59:59Z</time>
      </trkpt>
      <trkpt lat="38.226197" lon="-2.673191">
        <ele>1396.0</ele>
        <time>1989-12-30T23:59:59Z</time>
      </trkpt>
      <trkpt lat="38.226096" lon="-2.673239">
        <ele>1395.5</ele>
        <time>1989-12-30T23:59:59Z</time>
      </trkpt>
      <trkpt lat="38.226015" lon="-2.673476">
        <ele>1396.0</ele>
        <time>1989-12-30T23:59:59Z</time>
      </trkpt>
      <trkpt lat="38.225790" lon="-2.673723">
        <ele>1369.1</ele>
        <time>1989-12-30T23:59:59Z</time>
      </trkpt>
      <trkpt lat="38.225670" lon="-2.673934">
        <ele>1387.8</ele>
        <time>1989-12-30T23:59:59Z</time>
      </trkpt>
      <trkpt lat="38.225202" lon="-2.674109">
        <ele>1388.8</ele>
        <time>1989-12-30T23:59:59Z</time>
      </trkpt>
      <trkpt lat="38.224730" lon="-2.674176">
        <ele>1389.7</ele>
        <time>1989-12-30T23:59:59Z</time>
      </trkpt>
      <trkpt lat="38.224500" lon="-2.673995">
        <ele>1392.1</ele>
        <time>1989-12-30T23:59:59Z</time>
      </trkpt>
      <trkpt lat="38.224441" lon="-2.674497">
        <ele>1393.6</ele>
        <time>1989-12-30T23:59:59Z</time>
      </trkpt>
      <trkpt lat="38.224362" lon="-2.674790">
        <ele>1386.4</ele>
        <time>1989-12-30T23:59:59Z</time>
      </trkpt>
      <trkpt lat="38.224290" lon="-2.675068">
        <ele>1385.9</ele>
        <time>1989-12-30T23:59:59Z</time>
      </trkpt>
      <trkpt lat="38.224179" lon="-2.675340">
        <ele>1381.1</ele>
        <time>1989-12-30T23:59:59Z</time>
      </trkpt>
      <trkpt lat="38.223648" lon="-2.675814">
        <ele>1376.7</ele>
        <time>1989-12-30T23:59:59Z</time>
      </trkpt>
      <trkpt lat="38.223380" lon="-2.675910">
        <ele>1378.7</ele>
        <time>1989-12-30T23:59:59Z</time>
      </trkpt>
      <trkpt lat="38.222688" lon="-2.676188">
        <ele>1372.9</ele>
        <time>1989-12-30T23:59:59Z</time>
      </trkpt>
      <trkpt lat="38.222309" lon="-2.676240">
        <ele>1371.9</ele>
        <time>1989-12-30T23:59:59Z</time>
      </trkpt>
      <trkpt lat="38.222015" lon="-2.676214">
        <ele>1365.7</ele>
        <time>1989-12-30T23:59:59Z</time>
      </trkpt>
      <trkpt lat="38.221557" lon="-2.676347">
        <ele>1364.7</ele>
        <time>1989-12-30T23:59:59Z</time>
      </trkpt>
      <trkpt lat="38.221490" lon="-2.676425">
        <ele>1366.7</ele>
        <time>1989-12-30T23:59:59Z</time>
      </trkpt>
      <trkpt lat="38.221440" lon="-2.676654">
        <ele>1363.3</ele>
        <time>1989-12-30T23:59:59Z</time>
      </trkpt>
      <trkpt lat="38.221130" lon="-2.676996">
        <ele>1364.7</ele>
        <time>1989-12-30T23:59:59Z</time>
      </trkpt>
      <trkpt lat="38.221106" lon="-2.677049">
        <ele>1354.6</ele>
        <time>1989-12-30T23:59:59Z</time>
      </trkpt>
      <trkpt lat="38.221056" lon="-2.677289">
        <ele>1355.1</ele>
        <time>1989-12-30T23:59:59Z</time>
      </trkpt>
      <trkpt lat="38.220877" lon="-2.677597">
        <ele>1360.4</ele>
        <time>1989-12-30T23:59:59Z</time>
      </trkpt>
      <trkpt lat="38.220872" lon="-2.677621">
        <ele>1352.2</ele>
        <time>1989-12-30T23:59:59Z</time>
      </trkpt>
      <trkpt lat="38.220880" lon="-2.678576">
        <ele>1349.3</ele>
        <time>1989-12-30T23:59:59Z</time>
      </trkpt>
      <trkpt lat="38.220816" lon="-2.678699">
        <ele>1362.3</ele>
        <time>1989-12-30T23:59:59Z</time>
      </trkpt>
      <trkpt lat="38.220804" lon="-2.678835">
        <ele>1352.7</ele>
        <time>1989-12-30T23:59:59Z</time>
      </trkpt>
      <trkpt lat="38.220504" lon="-2.679120">
        <ele>1349.3</ele>
        <time>1989-12-30T23:59:59Z</time>
      </trkpt>
      <trkpt lat="38.219834" lon="-2.679430">
        <ele>1349.8</ele>
        <time>1989-12-30T23:59:59Z</time>
      </trkpt>
      <trkpt lat="38.219713" lon="-2.679423">
        <ele>1345.0</ele>
        <time>1989-12-30T23:59:59Z</time>
      </trkpt>
      <trkpt lat="38.219455" lon="-2.679565">
        <ele>1349.8</ele>
        <time>1989-12-30T23:59:59Z</time>
      </trkpt>
      <trkpt lat="38.219080" lon="-2.679681">
        <ele>1342.6</ele>
        <time>1989-12-30T23:59:59Z</time>
      </trkpt>
      <trkpt lat="38.219008" lon="-2.679770">
        <ele>1341.2</ele>
        <time>1989-12-30T23:59:59Z</time>
      </trkpt>
      <trkpt lat="38.218985" lon="-2.680014">
        <ele>1338.8</ele>
        <time>1989-12-30T23:59:59Z</time>
      </trkpt>
      <trkpt lat="38.219050" lon="-2.680485">
        <ele>1335.9</ele>
        <time>1989-12-30T23:59:59Z</time>
      </trkpt>
      <trkpt lat="38.218958" lon="-2.680703">
        <ele>1334.4</ele>
        <time>1989-12-30T23:59:59Z</time>
      </trkpt>
      <trkpt lat="38.218597" lon="-2.681058">
        <ele>1333.5</ele>
        <time>1989-12-30T23:59:59Z</time>
      </trkpt>
      <trkpt lat="38.218517" lon="-2.681669">
        <ele>1330.6</ele>
        <time>1989-12-30T23:59:59Z</time>
      </trkpt>
      <trkpt lat="38.218439" lon="-2.682148">
        <ele>1330.6</ele>
        <time>1989-12-30T23:59:59Z</time>
      </trkpt>
      <trkpt lat="38.218376" lon="-2.682407">
        <ele>1347.9</ele>
        <time>1989-12-30T23:59:59Z</time>
      </trkpt>
      <trkpt lat="38.218435" lon="-2.682706">
        <ele>1339.3</ele>
        <time>1989-12-30T23:59:59Z</time>
      </trkpt>
      <trkpt lat="38.218409" lon="-2.682895">
        <ele>1342.1</ele>
        <time>1989-12-30T23:59:59Z</time>
      </trkpt>
      <trkpt lat="38.218140" lon="-2.683171">
        <ele>1345.0</ele>
        <time>1989-12-30T23:59:59Z</time>
      </trkpt>
      <trkpt lat="38.217987" lon="-2.683466">
        <ele>1344.1</ele>
        <time>1989-12-30T23:59:59Z</time>
      </trkpt>
      <trkpt lat="38.217886" lon="-2.683822">
        <ele>1344.1</ele>
        <time>1989-12-30T23:59:59Z</time>
      </trkpt>
      <trkpt lat="38.217619" lon="-2.684317">
        <ele>1355.6</ele>
        <time>1989-12-30T23:59:59Z</time>
      </trkpt>
      <trkpt lat="38.217619" lon="-2.684317">
        <ele>1353.2</ele>
        <time>1989-12-30T23:59:59Z</time>
      </trkpt>
      <trkpt lat="38.217637" lon="-2.684563">
        <ele>1354.6</ele>
        <time>1989-12-30T23:59:59Z</time>
      </trkpt>
      <trkpt lat="38.217733" lon="-2.684911">
        <ele>1356.1</ele>
        <time>1989-12-30T23:59:59Z</time>
      </trkpt>
      <trkpt lat="38.217808" lon="-2.684953">
        <ele>1356.6</ele>
        <time>1989-12-30T23:59:59Z</time>
      </trkpt>
      <trkpt lat="38.218113" lon="-2.685455">
        <ele>1359.0</ele>
        <time>1989-12-30T23:59:59Z</time>
      </trkpt>
      <trkpt lat="38.218509" lon="-2.685874">
        <ele>1361.8</ele>
        <time>1989-12-30T23:59:59Z</time>
      </trkpt>
      <trkpt lat="38.218756" lon="-2.686038">
        <ele>1369.1</ele>
        <time>1989-12-30T23:59:59Z</time>
      </trkpt>
      <trkpt lat="38.219129" lon="-2.686241">
        <ele>1369.1</ele>
        <time>1989-12-30T23:59:59Z</time>
      </trkpt>
      <trkpt lat="38.219162" lon="-2.686337">
        <ele>1378.2</ele>
        <time>1989-12-30T23:59:59Z</time>
      </trkpt>
      <trkpt lat="38.219282" lon="-2.686520">
        <ele>1376.7</ele>
        <time>1989-12-30T23:59:59Z</time>
      </trkpt>
      <trkpt lat="38.219355" lon="-2.686624">
        <ele>1381.6</ele>
        <time>1989-12-30T23:59:59Z</time>
      </trkpt>
      <trkpt lat="38.219685" lon="-2.686894">
        <ele>1380.6</ele>
        <time>1989-12-30T23:59:59Z</time>
      </trkpt>
      <trkpt lat="38.219879" lon="-2.686980">
        <ele>1386.8</ele>
        <time>1989-12-30T23:59:59Z</time>
      </trkpt>
      <trkpt lat="38.220052" lon="-2.686975">
        <ele>1386.4</ele>
        <time>1989-12-30T23:59:59Z</time>
      </trkpt>
      <trkpt lat="38.220232" lon="-2.687051">
        <ele>1389.2</ele>
        <time>1989-12-30T23:59:59Z</time>
      </trkpt>
      <trkpt lat="38.220396" lon="-2.687053">
        <ele>1407.5</ele>
        <time>1989-12-30T23:59:59Z</time>
      </trkpt>
      <trkpt lat="38.221203" lon="-2.686425">
        <ele>1388.8</ele>
        <time>1989-12-30T23:59:59Z</time>
      </trkpt>
      <trkpt lat="38.221505" lon="-2.686255">
        <ele>1391.6</ele>
        <time>1989-12-30T23:59:59Z</time>
      </trkpt>
      <trkpt lat="38.222097" lon="-2.685641">
        <ele>1385.4</ele>
        <time>1989-12-30T23:59:59Z</time>
      </trkpt>
      <trkpt lat="38.222595" lon="-2.685322">
        <ele>1387.3</ele>
        <time>1989-12-30T23:59:59Z</time>
      </trkpt>
      <trkpt lat="38.222668" lon="-2.685261">
        <ele>1391.2</ele>
        <time>1989-12-30T23:59:59Z</time>
      </trkpt>
      <trkpt lat="38.222593" lon="-2.685031">
        <ele>1391.6</ele>
        <time>1989-12-30T23:59:59Z</time>
      </trkpt>
      <trkpt lat="38.222448" lon="-2.684876">
        <ele>1394.0</ele>
        <time>1989-12-30T23:59:59Z</time>
      </trkpt>
      <trkpt lat="38.222403" lon="-2.684789">
        <ele>1395.5</ele>
        <time>1989-12-30T23:59:59Z</time>
      </trkpt>
      <trkpt lat="38.222413" lon="-2.684275">
        <ele>1384.9</ele>
        <time>1989-12-30T23:59:59Z</time>
      </trkpt>
      <trkpt lat="38.222615" lon="-2.684101">
        <ele>1402.7</ele>
        <time>1989-12-30T23:59:59Z</time>
      </trkpt>
      <trkpt lat="38.222873" lon="-2.683476">
        <ele>1384.0</ele>
        <time>1989-12-30T23:59:59Z</time>
      </trkpt>
      <trkpt lat="38.223593" lon="-2.682491">
        <ele>1379.1</ele>
        <time>1989-12-30T23:59:59Z</time>
      </trkpt>
      <trkpt lat="38.223621" lon="-2.682290">
        <ele>1377.7</ele>
        <time>1989-12-30T23:59:59Z</time>
      </trkpt>
      <trkpt lat="38.223990" lon="-2.681530">
        <ele>1384.0</ele>
        <time>1989-12-30T23:59:59Z</time>
      </trkpt>
      <trkpt lat="38.224657" lon="-2.680973">
        <ele>1371.9</ele>
        <time>1989-12-30T23:59:59Z</time>
      </trkpt>
      <trkpt lat="38.224769" lon="-2.680763">
        <ele>1370.5</ele>
        <time>1989-12-30T23:59:59Z</time>
      </trkpt>
      <trkpt lat="38.224860" lon="-2.680696">
        <ele>1371.5</ele>
        <time>1989-12-30T23:59:59Z</time>
      </trkpt>
      <trkpt lat="38.225137" lon="-2.680794">
        <ele>1370.0</ele>
        <time>1989-12-30T23:59:59Z</time>
      </trkpt>
      <trkpt lat="38.225521" lon="-2.680206">
        <ele>1355.1</ele>
        <time>1989-12-30T23:59:59Z</time>
      </trkpt>
      <trkpt lat="38.226390" lon="-2.679375">
        <ele>1359.4</ele>
        <time>1989-12-30T23:59:59Z</time>
      </trkpt>
      <trkpt lat="38.226440" lon="-2.679414">
        <ele>1368.1</ele>
        <time>1989-12-30T23:59:59Z</time>
      </trkpt>
      <trkpt lat="38.226521" lon="-2.679353">
        <ele>1348.9</ele>
        <time>1989-12-30T23:59:59Z</time>
      </trkpt>
      <trkpt lat="38.226806" lon="-2.679466">
        <ele>1350.3</ele>
        <time>1989-12-30T23:59:59Z</time>
      </trkpt>
      <trkpt lat="38.227169" lon="-2.679316">
        <ele>1351.3</ele>
        <time>1989-12-30T23:59:59Z</time>
      </trkpt>
      <trkpt lat="38.227544" lon="-2.679247">
        <ele>1352.7</ele>
        <time>1989-12-30T23:59:59Z</time>
      </trkpt>
      <trkpt lat="38.227723" lon="-2.679289">
        <ele>1352.2</ele>
        <time>1989-12-30T23:59:59Z</time>
      </trkpt>
      <trkpt lat="38.227974" lon="-2.678951">
        <ele>1347.9</ele>
        <time>1989-12-30T23:59:59Z</time>
      </trkpt>
      <trkpt lat="38.228395" lon="-2.678524">
        <ele>1348.9</ele>
        <time>1989-12-30T23:59:59Z</time>
      </trkpt>
      <trkpt lat="38.228439" lon="-2.678411">
        <ele>1347.4</ele>
        <time>1989-12-30T23:59:59Z</time>
      </trkpt>
      <trkpt lat="38.228385" lon="-2.677829">
        <ele>1344.1</ele>
        <time>1989-12-30T23:59:59Z</time>
      </trkpt>
      <trkpt lat="38.228411" lon="-2.677695">
        <ele>1345.0</ele>
        <time>1989-12-30T23:59:59Z</time>
      </trkpt>
      <trkpt lat="38.228494" lon="-2.677647">
        <ele>1342.6</ele>
        <time>1989-12-30T23:59:59Z</time>
      </trkpt>
      <trkpt lat="38.228742" lon="-2.677670">
        <ele>1344.1</ele>
        <time>1989-12-30T23:59:59Z</time>
      </trkpt>
      <trkpt lat="38.228859" lon="-2.677576">
        <ele>1349.8</ele>
        <time>1989-12-30T23:59:59Z</time>
      </trkpt>
      <trkpt lat="38.229255" lon="-2.677460">
        <ele>1343.1</ele>
        <time>1989-12-30T23:59:59Z</time>
      </trkpt>
      <trkpt lat="38.229228" lon="-2.677959">
        <ele>1342.6</ele>
        <time>1989-12-30T23:59:59Z</time>
      </trkpt>
      <trkpt lat="38.229133" lon="-2.678135">
        <ele>1343.1</ele>
        <time>1989-12-30T23:59:59Z</time>
      </trkpt>
      <trkpt lat="38.228893" lon="-2.678176">
        <ele>1346.0</ele>
        <time>1989-12-30T23:59:59Z</time>
      </trkpt>
      <trkpt lat="38.228832" lon="-2.678301">
        <ele>1344.1</ele>
        <time>1989-12-30T23:59:59Z</time>
      </trkpt>
      <trkpt lat="38.228792" lon="-2.679129">
        <ele>1333.5</ele>
        <time>1989-12-30T23:59:59Z</time>
      </trkpt>
      <trkpt lat="38.228693" lon="-2.679421">
        <ele>1331.1</ele>
        <time>1989-12-30T23:59:59Z</time>
      </trkpt>
      <trkpt lat="38.228773" lon="-2.679462">
        <ele>1331.1</ele>
        <time>1989-12-30T23:59:59Z</time>
      </trkpt>
      <trkpt lat="38.228929" lon="-2.679258">
        <ele>1329.6</ele>
        <time>1989-12-30T23:59:59Z</time>
      </trkpt>
      <trkpt lat="38.228915" lon="-2.678868">
        <ele>1320.5</ele>
        <time>1989-12-30T23:59:59Z</time>
      </trkpt>
      <trkpt lat="38.228952" lon="-2.678767">
        <ele>1315.7</ele>
        <time>1989-12-30T23:59:59Z</time>
      </trkpt>
      <trkpt lat="38.229045" lon="-2.678733">
        <ele>1315.7</ele>
        <time>1989-12-30T23:59:59Z</time>
      </trkpt>
      <trkpt lat="38.229221" lon="-2.678830">
        <ele>1315.7</ele>
        <time>1989-12-30T23:59:59Z</time>
      </trkpt>
      <trkpt lat="38.229405" lon="-2.678839">
        <ele>1314.7</ele>
        <time>1989-12-30T23:59:59Z</time>
      </trkpt>
      <trkpt lat="38.229585" lon="-2.678764">
        <ele>1310.9</ele>
        <time>1989-12-30T23:59:59Z</time>
      </trkpt>
      <trkpt lat="38.229846" lon="-2.678556">
        <ele>1310.9</ele>
        <time>1989-12-30T23:59:59Z</time>
      </trkpt>
      <trkpt lat="38.230145" lon="-2.678532">
        <ele>1308.5</ele>
        <time>1989-12-30T23:59:59Z</time>
      </trkpt>
      <trkpt lat="38.231020" lon="-2.678203">
        <ele>1298.4</ele>
        <time>1989-12-30T23:59:59Z</time>
      </trkpt>
      <trkpt lat="38.231331" lon="-2.677953">
        <ele>1293.1</ele>
        <time>1989-12-30T23:59:59Z</time>
      </trkpt>
      <trkpt lat="38.231434" lon="-2.677916">
        <ele>1293.1</ele>
        <time>1989-12-30T23:59:59Z</time>
      </trkpt>
      <trkpt lat="38.231616" lon="-2.677939">
        <ele>1297.0</ele>
        <time>1989-12-30T23:59:59Z</time>
      </trkpt>
      <trkpt lat="38.231305" lon="-2.678444">
        <ele>1297.0</ele>
        <time>1989-12-30T23:59:59Z</time>
      </trkpt>
      <trkpt lat="38.230932" lon="-2.678789">
        <ele>1292.1</ele>
        <time>1989-12-30T23:59:59Z</time>
      </trkpt>
      <trkpt lat="38.230761" lon="-2.679094">
        <ele>1288.8</ele>
        <time>1989-12-30T23:59:59Z</time>
      </trkpt>
      <trkpt lat="38.230678" lon="-2.679478">
        <ele>1284.5</ele>
        <time>1989-12-30T23:59:59Z</time>
      </trkpt>
      <trkpt lat="38.230670" lon="-2.679625">
        <ele>1270.0</ele>
        <time>1989-12-30T23:59:59Z</time>
      </trkpt>
      <trkpt lat="38.230657" lon="-2.679783">
        <ele>1278.7</ele>
        <time>1989-12-30T23:59:59Z</time>
      </trkpt>
      <trkpt lat="38.230649" lon="-2.679936">
        <ele>1279.7</ele>
        <time>1989-12-30T23:59:59Z</time>
      </trkpt>
      <trkpt lat="38.230540" lon="-2.680151">
        <ele>1278.7</ele>
        <time>1989-12-30T23:59:59Z</time>
      </trkpt>
      <trkpt lat="38.230474" lon="-2.680364">
        <ele>1266.7</ele>
        <time>1989-12-30T23:59:59Z</time>
      </trkpt>
      <trkpt lat="38.230162" lon="-2.680887">
        <ele>1268.6</ele>
        <time>1989-12-30T23:59:59Z</time>
      </trkpt>
      <trkpt lat="38.229993" lon="-2.681114">
        <ele>1254.7</ele>
        <time>1989-12-30T23:59:59Z</time>
      </trkpt>
      <trkpt lat="38.229987" lon="-2.681372">
        <ele>1257.5</ele>
        <time>1989-12-30T23:59:59Z</time>
      </trkpt>
      <trkpt lat="38.230085" lon="-2.681518">
        <ele>1262.3</ele>
        <time>1989-12-30T23:59:59Z</time>
      </trkpt>
      <trkpt lat="38.230083" lon="-2.681578">
        <ele>1268.6</ele>
        <time>1989-12-30T23:59:59Z</time>
      </trkpt>
      <trkpt lat="38.229994" lon="-2.681691">
        <ele>1272.4</ele>
        <time>1989-12-30T23:59:59Z</time>
      </trkpt>
      <trkpt lat="38.229777" lon="-2.681532">
        <ele>1267.2</ele>
        <time>1989-12-30T23:59:59Z</time>
      </trkpt>
      <trkpt lat="38.229189" lon="-2.681549">
        <ele>1260.9</ele>
        <time>1989-12-30T23:59:59Z</time>
      </trkpt>
      <trkpt lat="38.228913" lon="-2.681661">
        <ele>1256.6</ele>
        <time>1989-12-30T23:59:59Z</time>
      </trkpt>
      <trkpt lat="38.228719" lon="-2.681665">
        <ele>1254.2</ele>
        <time>1989-12-30T23:59:59Z</time>
      </trkpt>
      <trkpt lat="38.228477" lon="-2.681886">
        <ele>1248.4</ele>
        <time>1989-12-30T23:59:59Z</time>
      </trkpt>
      <trkpt lat="38.228290" lon="-2.681926">
        <ele>1248.9</ele>
        <time>1989-12-30T23:59:59Z</time>
      </trkpt>
      <trkpt lat="38.228009" lon="-2.681798">
        <ele>1247.9</ele>
        <time>1989-12-30T23:59:59Z</time>
      </trkpt>
      <trkpt lat="38.227285" lon="-2.681487">
        <ele>1237.8</ele>
        <time>1989-12-30T23:59:59Z</time>
      </trkpt>
      <trkpt lat="38.226872" lon="-2.681562">
        <ele>1235.4</ele>
        <time>1989-12-30T23:59:59Z</time>
      </trkpt>
      <trkpt lat="38.226774" lon="-2.681575">
        <ele>1235.9</ele>
        <time>1989-12-30T23:59:59Z</time>
      </trkpt>
      <trkpt lat="38.226612" lon="-2.681785">
        <ele>1232.5</ele>
        <time>1989-12-30T23:59:59Z</time>
      </trkpt>
      <trkpt lat="38.226552" lon="-2.682042">
        <ele>1232.1</ele>
        <time>1989-12-30T23:59:59Z</time>
      </trkpt>
      <trkpt lat="38.226379" lon="-2.682231">
        <ele>1218.6</ele>
        <time>1989-12-30T23:59:59Z</time>
      </trkpt>
      <trkpt lat="38.225969" lon="-2.682677">
        <ele>1208.5</ele>
        <time>1989-12-30T23:59:59Z</time>
      </trkpt>
      <trkpt lat="38.225876" lon="-2.683031">
        <ele>1207.6</ele>
        <time>1989-12-30T23:59:59Z</time>
      </trkpt>
      <trkpt lat="38.225979" lon="-2.683501">
        <ele>1198.9</ele>
        <time>1989-12-30T23:59:59Z</time>
      </trkpt>
      <trkpt lat="38.226043" lon="-2.683876">
        <ele>1199.4</ele>
        <time>1989-12-30T23:59:59Z</time>
      </trkpt>
      <trkpt lat="38.225973" lon="-2.684293">
        <ele>1196.0</ele>
        <time>1989-12-30T23:59:59Z</time>
      </trkpt>
      <trkpt lat="38.225790" lon="-2.684445">
        <ele>1194.6</ele>
        <time>1989-12-30T23:59:59Z</time>
      </trkpt>
      <trkpt lat="38.225770" lon="-2.684591">
        <ele>1197.5</ele>
        <time>1989-12-30T23:59:59Z</time>
      </trkpt>
      <trkpt lat="38.225781" lon="-2.684687">
        <ele>1200.8</ele>
        <time>1989-12-30T23:59:59Z</time>
      </trkpt>
      <trkpt lat="38.225815" lon="-2.685205">
        <ele>1199.4</ele>
        <time>1989-12-30T23:59:59Z</time>
      </trkpt>
      <trkpt lat="38.225907" lon="-2.685611">
        <ele>1197.0</ele>
        <time>1989-12-30T23:59:59Z</time>
      </trkpt>
      <trkpt lat="38.225878" lon="-2.686031">
        <ele>1196.0</ele>
        <time>1989-12-30T23:59:59Z</time>
      </trkpt>
      <trkpt lat="38.225946" lon="-2.686418">
        <ele>1194.1</ele>
        <time>1989-12-30T23:59:59Z</time>
      </trkpt>
      <trkpt lat="38.225888" lon="-2.687144">
        <ele>1193.6</ele>
        <time>1989-12-30T23:59:59Z</time>
      </trkpt>
      <trkpt lat="38.225910" lon="-2.687565">
        <ele>1197.5</ele>
        <time>1989-12-30T23:59:59Z</time>
      </trkpt>
      <trkpt lat="38.226096" lon="-2.688244">
        <ele>1198.4</ele>
        <time>1989-12-30T23:59:59Z</time>
      </trkpt>
      <trkpt lat="38.226113" lon="-2.688595">
        <ele>1199.4</ele>
        <time>1989-12-30T23:59:59Z</time>
      </trkpt>
      <trkpt lat="38.225898" lon="-2.689079">
        <ele>1201.8</ele>
        <time>1989-12-30T23:59:59Z</time>
      </trkpt>
      <trkpt lat="38.225572" lon="-2.689546">
        <ele>1201.3</ele>
        <time>1989-12-30T23:59:59Z</time>
      </trkpt>
      <trkpt lat="38.225273" lon="-2.689675">
        <ele>1201.8</ele>
        <time>1989-12-30T23:59:59Z</time>
      </trkpt>
      <trkpt lat="38.225207" lon="-2.689766">
        <ele>1201.8</ele>
        <time>1989-12-30T23:59:59Z</time>
      </trkpt>
      <trkpt lat="38.225317" lon="-2.690487">
        <ele>1203.7</ele>
        <time>1989-12-30T23:59:59Z</time>
      </trkpt>
      <trkpt lat="38.225383" lon="-2.690604">
        <ele>1206.6</ele>
        <time>1989-12-30T23:59:59Z</time>
      </trkpt>
      <trkpt lat="38.225398" lon="-2.690758">
        <ele>1208.5</ele>
        <time>1989-12-30T23:59:59Z</time>
      </trkpt>
      <trkpt lat="38.225330" lon="-2.691035">
        <ele>1206.6</ele>
        <time>1989-12-30T23:59:59Z</time>
      </trkpt>
      <trkpt lat="38.224531" lon="-2.691836">
        <ele>1201.8</ele>
        <time>1989-12-30T23:59:59Z</time>
      </trkpt>
      <trkpt lat="38.224311" lon="-2.692170">
        <ele>1202.7</ele>
        <time>1989-12-30T23:59:59Z</time>
      </trkpt>
      <trkpt lat="38.224027" lon="-2.692093">
        <ele>1207.6</ele>
        <time>1989-12-30T23:59:59Z</time>
      </trkpt>
      <trkpt lat="38.223498" lon="-2.691757">
        <ele>1213.3</ele>
        <time>1989-12-30T23:59:59Z</time>
      </trkpt>
      <trkpt lat="38.223310" lon="-2.691705">
        <ele>1216.2</ele>
        <time>1989-12-30T23:59:59Z</time>
      </trkpt>
      <trkpt lat="38.223040" lon="-2.691704">
        <ele>1217.2</ele>
        <time>1989-12-30T23:59:59Z</time>
      </trkpt>
      <trkpt lat="38.222596" lon="-2.691968">
        <ele>1217.2</ele>
        <time>1989-12-30T23:59:59Z</time>
      </trkpt>
      <trkpt lat="38.222349" lon="-2.692123">
        <ele>1222.0</ele>
        <time>1989-12-30T23:59:59Z</time>
      </trkpt>
      <trkpt lat="38.221532" lon="-2.692705">
        <ele>1221.0</ele>
        <time>1989-12-30T23:59:59Z</time>
      </trkpt>
      <trkpt lat="38.221059" lon="-2.692682">
        <ele>1219.6</ele>
        <time>1989-12-30T23:59:59Z</time>
      </trkpt>
      <trkpt lat="38.220673" lon="-2.692756">
        <ele>1222.9</ele>
        <time>1989-12-30T23:59:59Z</time>
      </trkpt>
      <trkpt lat="38.220518" lon="-2.692699">
        <ele>1215.2</ele>
        <time>1989-12-30T23:59:59Z</time>
      </trkpt>
      <trkpt lat="38.220349" lon="-2.692589">
        <ele>1213.3</ele>
        <time>1989-12-30T23:59:59Z</time>
      </trkpt>
      <trkpt lat="38.220004" lon="-2.692456">
        <ele>1211.4</ele>
        <time>1989-12-30T23:59:59Z</time>
      </trkpt>
      <trkpt lat="38.220024" lon="-2.692229">
        <ele>1195.5</ele>
        <time>1989-12-30T23:59:59Z</time>
      </trkpt>
      <trkpt lat="38.220040" lon="-2.692128">
        <ele>1194.6</ele>
        <time>1989-12-30T23:59:59Z</time>
      </trkpt>
      <trkpt lat="38.219933" lon="-2.691687">
        <ele>1200.8</ele>
        <time>1989-12-30T23:59:59Z</time>
      </trkpt>
      <trkpt lat="38.219848" lon="-2.691503">
        <ele>1199.9</ele>
        <time>1989-12-30T23:59:59Z</time>
      </trkpt>
      <trkpt lat="38.219535" lon="-2.691210">
        <ele>1199.4</ele>
        <time>1989-12-30T23:59:59Z</time>
      </trkpt>
      <trkpt lat="38.219310" lon="-2.690840">
        <ele>1199.9</ele>
        <time>1989-12-30T23:59:59Z</time>
      </trkpt>
      <trkpt lat="38.219141" lon="-2.690746">
        <ele>1196.5</ele>
        <time>1989-12-30T23:59:59Z</time>
      </trkpt>
      <trkpt lat="38.218945" lon="-2.690859">
        <ele>1193.1</ele>
        <time>1989-12-30T23:59:59Z</time>
      </trkpt>
      <trkpt lat="38.218851" lon="-2.690925">
        <ele>1181.6</ele>
        <time>1989-12-30T23:59:59Z</time>
      </trkpt>
      <trkpt lat="38.218672" lon="-2.691000">
        <ele>1179.2</ele>
        <time>1989-12-30T23:59:59Z</time>
      </trkpt>
      <trkpt lat="38.218065" lon="-2.691056">
        <ele>1174.9</ele>
        <time>1989-12-30T23:59:59Z</time>
      </trkpt>
      <trkpt lat="38.215643" lon="-2.691491">
        <ele>1158.0</ele>
        <time>1989-12-30T23:59:59Z</time>
      </trkpt>
      <trkpt lat="38.215568" lon="-2.691513">
        <ele>1147.5</ele>
        <time>1989-12-30T23:59:59Z</time>
      </trkpt>
      <trkpt lat="38.215481" lon="-2.691541">
        <ele>1147.0</ele>
        <time>1989-12-30T23:59:59Z</time>
      </trkpt>
      <trkpt lat="38.215207" lon="-2.691497">
        <ele>1149.9</ele>
        <time>1989-12-30T23:59:59Z</time>
      </trkpt>
      <trkpt lat="38.215053" lon="-2.691289">
        <ele>1151.8</ele>
        <time>1989-12-30T23:59:59Z</time>
      </trkpt>
      <trkpt lat="38.214997" lon="-2.691047">
        <ele>1148.4</ele>
        <time>1989-12-30T23:59:59Z</time>
      </trkpt>
      <trkpt lat="38.215040" lon="-2.690176">
        <ele>1140.3</ele>
        <time>1989-12-30T23:59:59Z</time>
      </trkpt>
      <trkpt lat="38.215098" lon="-2.689958">
        <ele>1141.7</ele>
        <time>1989-12-30T23:59:59Z</time>
      </trkpt>
      <trkpt lat="38.215206" lon="-2.689834">
        <ele>1173.4</ele>
        <time>1989-12-30T23:59:59Z</time>
      </trkpt>
      <trkpt lat="38.215237" lon="-2.689608">
        <ele>1159.5</ele>
        <time>1989-12-30T23:59:59Z</time>
      </trkpt>
      <trkpt lat="38.215257" lon="-2.689135">
        <ele>1146.5</ele>
        <time>1989-12-30T23:59:59Z</time>
      </trkpt>
      <trkpt lat="38.215204" lon="-2.689005">
        <ele>1142.2</ele>
        <time>1989-12-30T23:59:59Z</time>
      </trkpt>
      <trkpt lat="38.215172" lon="-2.688906">
        <ele>1143.1</ele>
        <time>1989-12-30T23:59:59Z</time>
      </trkpt>
      <trkpt lat="38.215053" lon="-2.688656">
        <ele>1140.7</ele>
        <time>1989-12-30T23:59:59Z</time>
      </trkpt>
      <trkpt lat="38.215035" lon="-2.688604">
        <ele>1136.4</ele>
        <time>1989-12-30T23:59:59Z</time>
      </trkpt>
      <trkpt lat="38.214746" lon="-2.688285">
        <ele>1131.1</ele>
        <time>1989-12-30T23:59:59Z</time>
      </trkpt>
      <trkpt lat="38.214666" lon="-2.688233">
        <ele>1131.1</ele>
        <time>1989-12-30T23:59:59Z</time>
      </trkpt>
      <trkpt lat="38.214585" lon="-2.688216">
        <ele>1126.3</ele>
        <time>1989-12-30T23:59:59Z</time>
      </trkpt>
      <trkpt lat="38.214015" lon="-2.688374">
        <ele>1120.6</ele>
        <time>1989-12-30T23:59:59Z</time>
      </trkpt>
      <trkpt lat="38.213721" lon="-2.688440">
        <ele>1114.3</ele>
        <time>1989-12-30T23:59:59Z</time>
      </trkpt>
      <trkpt lat="38.213238" lon="-2.688369">
        <ele>1114.8</ele>
        <time>1989-12-30T23:59:59Z</time>
      </trkpt>
      <trkpt lat="38.213162" lon="-2.688391">
        <ele>1110.5</ele>
        <time>1989-12-30T23:59:59Z</time>
      </trkpt>
      <trkpt lat="38.213028" lon="-2.688325">
        <ele>1160.0</ele>
        <time>1989-12-30T23:59:59Z</time>
      </trkpt>
      <trkpt lat="38.212929" lon="-2.688255">
        <ele>1124.4</ele>
        <time>1989-12-30T23:59:59Z</time>
      </trkpt>
      <trkpt lat="38.212875" lon="-2.688039">
        <ele>1062.9</ele>
        <time>1989-12-30T23:59:59Z</time>
      </trkpt>
      <trkpt lat="38.212822" lon="-2.687909">
        <ele>1066.7</ele>
        <time>1989-12-30T23:59:59Z</time>
      </trkpt>
      <trkpt lat="38.212744" lon="-2.687716">
        <ele>1069.6</ele>
        <time>1989-12-30T23:59:59Z</time>
      </trkpt>
      <trkpt lat="38.212635" lon="-2.687701">
        <ele>1104.7</ele>
        <time>1989-12-30T23:59:59Z</time>
      </trkpt>
      <trkpt lat="38.212524" lon="-2.687684">
        <ele>1089.3</ele>
        <time>1989-12-30T23:59:59Z</time>
      </trkpt>
      <trkpt lat="38.212349" lon="-2.687555">
        <ele>1089.3</ele>
        <time>1989-12-30T23:59:59Z</time>
      </trkpt>
      <trkpt lat="38.212343" lon="-2.687262">
        <ele>1091.7</ele>
        <time>1989-12-30T23:59:59Z</time>
      </trkpt>
      <trkpt lat="38.212357" lon="-2.687146">
        <ele>1085.5</ele>
        <time>1989-12-30T23:59:59Z</time>
      </trkpt>
      <trkpt lat="38.212418" lon="-2.686889">
        <ele>1082.1</ele>
        <time>1989-12-30T23:59:59Z</time>
      </trkpt>
      <trkpt lat="38.212445" lon="-2.686649">
        <ele>1073.4</ele>
        <time>1989-12-30T23:59:59Z</time>
      </trkpt>
      <trkpt lat="38.212400" lon="-2.686537">
        <ele>1073.0</ele>
        <time>1989-12-30T23:59:59Z</time>
      </trkpt>
      <trkpt lat="38.212024" lon="-2.686407">
        <ele>1073.0</ele>
        <time>1989-12-30T23:59:59Z</time>
      </trkpt>
      <trkpt lat="38.211816" lon="-2.686110">
        <ele>1068.2</ele>
        <time>1989-12-30T23:59:59Z</time>
      </trkpt>
      <trkpt lat="38.211716" lon="-2.686068">
        <ele>1067.7</ele>
        <time>1989-12-30T23:59:59Z</time>
      </trkpt>
      <trkpt lat="38.211628" lon="-2.686125">
        <ele>1065.8</ele>
        <time>1989-12-30T23:59:59Z</time>
      </trkpt>
      <trkpt lat="38.211544" lon="-2.686361">
        <ele>1064.8</ele>
        <time>1989-12-30T23:59:59Z</time>
      </trkpt>
      <trkpt lat="38.211365" lon="-2.686658">
        <ele>1061.0</ele>
        <time>1989-12-30T23:59:59Z</time>
      </trkpt>
      <trkpt lat="38.211268" lon="-2.686693">
        <ele>1061.0</ele>
        <time>1989-12-30T23:59:59Z</time>
      </trkpt>
      <trkpt lat="38.211176" lon="-2.686656">
        <ele>1060.5</ele>
        <time>1989-12-30T23:59:59Z</time>
      </trkpt>
      <trkpt lat="38.210950" lon="-2.686434">
        <ele>1061.0</ele>
        <time>1989-12-30T23:59:59Z</time>
      </trkpt>
      <trkpt lat="38.210852" lon="-2.686202">
        <ele>1058.1</ele>
        <time>1989-12-30T23:59:59Z</time>
      </trkpt>
      <trkpt lat="38.210815" lon="-2.685835">
        <ele>1053.7</ele>
        <time>1989-12-30T23:59:59Z</time>
      </trkpt>
      <trkpt lat="38.210754" lon="-2.685807">
        <ele>1052.3</ele>
        <time>1989-12-30T23:59:59Z</time>
      </trkpt>
      <trkpt lat="38.210686" lon="-2.685881">
        <ele>1049.9</ele>
        <time>1989-12-30T23:59:59Z</time>
      </trkpt>
      <trkpt lat="38.210605" lon="-2.685809">
        <ele>1048.5</ele>
        <time>1989-12-30T23:59:59Z</time>
      </trkpt>
      <trkpt lat="38.210484" lon="-2.685603">
        <ele>1045.6</ele>
        <time>1989-12-30T23:59:59Z</time>
      </trkpt>
      <trkpt lat="38.210295" lon="-2.685296">
        <ele>1044.6</ele>
        <time>1989-12-30T23:59:59Z</time>
      </trkpt>
      <trkpt lat="38.210323" lon="-2.685598">
        <ele>1036.4</ele>
        <time>1989-12-30T23:59:59Z</time>
      </trkpt>
      <trkpt lat="38.210320" lon="-2.685716">
        <ele>1036.0</ele>
        <time>1989-12-30T23:59:59Z</time>
      </trkpt>
      <trkpt lat="38.210146" lon="-2.686163">
        <ele>1032.1</ele>
        <time>1989-12-30T23:59:59Z</time>
      </trkpt>
      <trkpt lat="38.210169" lon="-2.686407">
        <ele>1028.3</ele>
        <time>1989-12-30T23:59:59Z</time>
      </trkpt>
      <trkpt lat="38.210139" lon="-2.686864">
        <ele>1015.3</ele>
        <time>1989-12-30T23:59:59Z</time>
      </trkpt>
      <trkpt lat="38.210056" lon="-2.687077">
        <ele>1011.0</ele>
        <time>1989-12-30T23:59:59Z</time>
      </trkpt>
      <trkpt lat="38.209867" lon="-2.687123">
        <ele>1006.6</ele>
        <time>1989-12-30T23:59:59Z</time>
      </trkpt>
      <trkpt lat="38.209764" lon="-2.687114">
        <ele>1007.6</ele>
        <time>1989-12-30T23:59:59Z</time>
      </trkpt>
      <trkpt lat="38.209485" lon="-2.687073">
        <ele>997.5</ele>
        <time>1989-12-30T23:59:59Z</time>
      </trkpt>
      <trkpt lat="38.209237" lon="-2.686870">
        <ele>993.2</ele>
        <time>1989-12-30T23:59:59Z</time>
      </trkpt>
      <trkpt lat="38.209182" lon="-2.686716">
        <ele>989.3</ele>
        <time>1989-12-30T23:59:59Z</time>
      </trkpt>
      <trkpt lat="38.209181" lon="-2.686424">
        <ele>986.4</ele>
        <time>1989-12-30T23:59:59Z</time>
      </trkpt>
      <trkpt lat="38.209114" lon="-2.686401">
        <ele>984.5</ele>
        <time>1989-12-30T23:59:59Z</time>
      </trkpt>
      <trkpt lat="38.209017" lon="-2.686334">
        <ele>976.8</ele>
        <time>1989-12-30T23:59:59Z</time>
      </trkpt>
      <trkpt lat="38.208973" lon="-2.685932">
        <ele>967.7</ele>
        <time>1989-12-30T23:59:59Z</time>
      </trkpt>
      <trkpt lat="38.208800" lon="-2.685729">
        <ele>975.4</ele>
        <time>1989-12-30T23:59:59Z</time>
      </trkpt>
      <trkpt lat="38.208735" lon="-2.685734">
        <ele>919.6</ele>
        <time>1989-12-30T23:59:59Z</time>
      </trkpt>
      <trkpt lat="38.208653" lon="-2.686212">
        <ele>981.2</ele>
        <time>1989-12-30T23:59:59Z</time>
      </trkpt>
      <trkpt lat="38.208616" lon="-2.686663">
        <ele>979.7</ele>
        <time>1989-12-30T23:59:59Z</time>
      </trkpt>
      <trkpt lat="38.208529" lon="-2.687024">
        <ele>981.2</ele>
        <time>1989-12-30T23:59:59Z</time>
      </trkpt>
      <trkpt lat="38.208628" lon="-2.687087">
        <ele>976.4</ele>
        <time>1989-12-30T23:59:59Z</time>
      </trkpt>
      <trkpt lat="38.208733" lon="-2.687341">
        <ele>990.8</ele>
        <time>1989-12-30T23:59:59Z</time>
      </trkpt>
      <trkpt lat="38.208731" lon="-2.687662">
        <ele>983.1</ele>
        <time>1989-12-30T23:59:59Z</time>
      </trkpt>
      <trkpt lat="38.208806" lon="-2.687999">
        <ele>1024.4</ele>
        <time>1989-12-30T23:59:59Z</time>
      </trkpt>
      <trkpt lat="38.208764" lon="-2.688151">
        <ele>966.7</ele>
        <time>1989-12-30T23:59:59Z</time>
      </trkpt>
      <trkpt lat="38.208876" lon="-2.688476">
        <ele>968.7</ele>
        <time>1989-12-30T23:59:59Z</time>
      </trkpt>
      <trkpt lat="38.208877" lon="-2.688604">
        <ele>968.7</ele>
        <time>1989-12-30T23:59:59Z</time>
      </trkpt>
      <trkpt lat="38.209036" lon="-2.688935">
        <ele>960.5</ele>
        <time>1989-12-30T23:59:59Z</time>
      </trkpt>
      <trkpt lat="38.209157" lon="-2.689118">
        <ele>961.9</ele>
        <time>1989-12-30T23:59:59Z</time>
      </trkpt>
      <trkpt lat="38.209229" lon="-2.689331">
        <ele>956.2</ele>
        <time>1989-12-30T23:59:59Z</time>
      </trkpt>
      <trkpt lat="38.209264" lon="-2.689416">
        <ele>944.2</ele>
        <time>1989-12-30T23:59:59Z</time>
      </trkpt>
      <trkpt lat="38.209327" lon="-2.689618">
        <ele>975.9</ele>
        <time>1989-12-30T23:59:59Z</time>
      </trkpt>
      <trkpt lat="38.209205" lon="-2.689848">
        <ele>929.7</ele>
        <time>1989-12-30T23:59:59Z</time>
      </trkpt>
      <trkpt lat="38.209129" lon="-2.690757">
        <ele>930.7</ele>
        <time>1989-12-30T23:59:59Z</time>
      </trkpt>
      <trkpt lat="38.209097" lon="-2.690795">
        <ele>924.9</ele>
        <time>1989-12-30T23:59:59Z</time>
      </trkpt>
      <trkpt lat="38.209045" lon="-2.690878">
        <ele>926.8</ele>
        <time>1989-12-30T23:59:59Z</time>
      </trkpt>
      <trkpt lat="38.209043" lon="-2.691487">
        <ele>928.8</ele>
        <time>1989-12-30T23:59:59Z</time>
      </trkpt>
      <trkpt lat="38.208987" lon="-2.691757">
        <ele>929.7</ele>
        <time>1989-12-30T23:59:59Z</time>
      </trkpt>
      <trkpt lat="38.208885" lon="-2.691940">
        <ele>926.4</ele>
        <time>1989-12-30T23:59:59Z</time>
      </trkpt>
      <trkpt lat="38.208862" lon="-2.692305">
        <ele>925.4</ele>
        <time>1989-12-30T23:59:59Z</time>
      </trkpt>
      <trkpt lat="38.208777" lon="-2.692601">
        <ele>925.9</ele>
        <time>1989-12-30T23:59:59Z</time>
      </trkpt>
      <trkpt lat="38.208652" lon="-2.692610">
        <ele>931.7</ele>
        <time>1989-12-30T23:59:59Z</time>
      </trkpt>
      <trkpt lat="38.208574" lon="-2.692773">
        <ele>931.7</ele>
        <time>1989-12-30T23:59:59Z</time>
      </trkpt>
      <trkpt lat="38.208485" lon="-2.692872">
        <ele>926.4</ele>
        <time>1989-12-30T23:59:59Z</time>
      </trkpt>
      <trkpt lat="38.208447" lon="-2.692922">
        <ele>975.9</ele>
        <time>1989-12-30T23:59:59Z</time>
      </trkpt>
      <trkpt lat="38.208317" lon="-2.692956">
        <ele>932.1</ele>
        <time>1989-12-30T23:59:59Z</time>
      </trkpt>
      <trkpt lat="38.208203" lon="-2.692978">
        <ele>934.5</ele>
        <time>1989-12-30T23:59:59Z</time>
      </trkpt>
      <trkpt lat="38.208078" lon="-2.692996">
        <ele>937.9</ele>
        <time>1989-12-30T23:59:59Z</time>
      </trkpt>
      <trkpt lat="38.208070" lon="-2.692743">
        <ele>958.1</ele>
        <time>1989-12-30T23:59:59Z</time>
      </trkpt>
      <trkpt lat="38.208133" lon="-2.692406">
        <ele>960.0</ele>
        <time>1989-12-30T23:59:59Z</time>
      </trkpt>
      <trkpt lat="38.208094" lon="-2.692326">
        <ele>969.1</ele>
        <time>1989-12-30T23:59:59Z</time>
      </trkpt>
      <trkpt lat="38.208076" lon="-2.692234">
        <ele>957.6</ele>
        <time>1989-12-30T23:59:59Z</time>
      </trkpt>
      <trkpt lat="38.207778" lon="-2.692106">
        <ele>952.8</ele>
        <time>1989-12-30T23:59:59Z</time>
      </trkpt>
      <trkpt lat="38.207740" lon="-2.692428">
        <ele>974.0</ele>
        <time>1989-12-30T23:59:59Z</time>
      </trkpt>
      <trkpt lat="38.207661" lon="-2.692592">
        <ele>973.0</ele>
        <time>1989-12-30T23:59:59Z</time>
      </trkpt>
      <trkpt lat="38.207436" lon="-2.692986">
        <ele>975.9</ele>
        <time>1989-12-30T23:59:59Z</time>
      </trkpt>
      <trkpt lat="38.207324" lon="-2.693397">
        <ele>974.9</ele>
        <time>1989-12-30T23:59:59Z</time>
      </trkpt>
      <trkpt lat="38.207351" lon="-2.693537">
        <ele>975.9</ele>
        <time>1989-12-30T23:59:59Z</time>
      </trkpt>
      <trkpt lat="38.207431" lon="-2.693643">
        <ele>973.5</ele>
        <time>1989-12-30T23:59:59Z</time>
      </trkpt>
      <trkpt lat="38.207537" lon="-2.693698">
        <ele>973.0</ele>
        <time>1989-12-30T23:59:59Z</time>
      </trkpt>
      <trkpt lat="38.208026" lon="-2.693712">
        <ele>973.0</ele>
        <time>1989-12-30T23:59:59Z</time>
      </trkpt>
      <trkpt lat="38.208154" lon="-2.693853">
        <ele>969.1</ele>
        <time>1989-12-30T23:59:59Z</time>
      </trkpt>
      <trkpt lat="38.208245" lon="-2.694240">
        <ele>966.7</ele>
        <time>1989-12-30T23:59:59Z</time>
      </trkpt>
      <trkpt lat="38.208432" lon="-2.694431">
        <ele>966.7</ele>
        <time>1989-12-30T23:59:59Z</time>
      </trkpt>
      <trkpt lat="38.208953" lon="-2.694587">
        <ele>973.0</ele>
        <time>1989-12-30T23:59:59Z</time>
      </trkpt>
      <trkpt lat="38.209198" lon="-2.694881">
        <ele>974.0</ele>
        <time>1989-12-30T23:59:59Z</time>
      </trkpt>
      <trkpt lat="38.209266" lon="-2.695277">
        <ele>973.5</ele>
        <time>1989-12-30T23:59:59Z</time>
      </trkpt>
      <trkpt lat="38.209190" lon="-2.695547">
        <ele>972.0</ele>
        <time>1989-12-30T23:59:59Z</time>
      </trkpt>
      <trkpt lat="38.208703" lon="-2.696404">
        <ele>964.3</ele>
        <time>1989-12-30T23:59:59Z</time>
      </trkpt>
      <trkpt lat="38.208769" lon="-2.696637">
        <ele>964.8</ele>
        <time>1989-12-30T23:59:59Z</time>
      </trkpt>
      <trkpt lat="38.209055" lon="-2.696908">
        <ele>966.3</ele>
        <time>1989-12-30T23:59:59Z</time>
      </trkpt>
      <trkpt lat="38.209605" lon="-2.697019">
        <ele>964.3</ele>
        <time>1989-12-30T23:59:59Z</time>
      </trkpt>
      <trkpt lat="38.209934" lon="-2.697841">
        <ele>963.4</ele>
        <time>1989-12-30T23:59:59Z</time>
      </trkpt>
      <trkpt lat="38.209947" lon="-2.698087">
        <ele>962.4</ele>
        <time>1989-12-30T23:59:59Z</time>
      </trkpt>
      <trkpt lat="38.210492" lon="-2.698574">
        <ele>961.0</ele>
        <time>1989-12-30T23:59:59Z</time>
      </trkpt>
      <trkpt lat="38.210838" lon="-2.699080">
        <ele>958.1</ele>
        <time>1989-12-30T23:59:59Z</time>
      </trkpt>
      <trkpt lat="38.210960" lon="-2.699566">
        <ele>959.1</ele>
        <time>1989-12-30T23:59:59Z</time>
      </trkpt>
      <trkpt lat="38.210685" lon="-2.699875">
        <ele>956.6</ele>
        <time>1989-12-30T23:59:59Z</time>
      </trkpt>
      <trkpt lat="38.210643" lon="-2.700137">
        <ele>953.3</ele>
        <time>1989-12-30T23:59:59Z</time>
      </trkpt>
      <trkpt lat="38.210650" lon="-2.700277">
        <ele>956.2</ele>
        <time>1989-12-30T23:59:59Z</time>
      </trkpt>
      <trkpt lat="38.210691" lon="-2.700278">
        <ele>958.1</ele>
        <time>1989-12-30T23:59:59Z</time>
      </trkpt>
      <trkpt lat="38.210629" lon="-2.700495">
        <ele>964.3</ele>
        <time>1989-12-30T23:59:59Z</time>
      </trkpt>
      <trkpt lat="38.210648" lon="-2.700702">
        <ele>963.4</ele>
        <time>1989-12-30T23:59:59Z</time>
      </trkpt>
      <trkpt lat="38.210743" lon="-2.700963">
        <ele>965.3</ele>
        <time>1989-12-30T23:59:59Z</time>
      </trkpt>
      <trkpt lat="38.210816" lon="-2.701074">
        <ele>967.2</ele>
        <time>1989-12-30T23:59:59Z</time>
      </trkpt>
      <trkpt lat="38.211204" lon="-2.701170">
        <ele>967.7</ele>
        <time>1989-12-30T23:59:59Z</time>
      </trkpt>
      <trkpt lat="38.211426" lon="-2.701294">
        <ele>968.7</ele>
        <time>1989-12-30T23:59:59Z</time>
      </trkpt>
      <trkpt lat="38.211436" lon="-2.701444">
        <ele>967.7</ele>
        <time>1989-12-30T23:59:59Z</time>
      </trkpt>
      <trkpt lat="38.211554" lon="-2.701644">
        <ele>963.4</ele>
        <time>1989-12-30T23:59:59Z</time>
      </trkpt>
      <trkpt lat="38.211728" lon="-2.702017">
        <ele>974.0</ele>
        <time>1989-12-30T23:59:59Z</time>
      </trkpt>
      <trkpt lat="38.211724" lon="-2.702029">
        <ele>963.9</ele>
        <time>1989-12-30T23:59:59Z</time>
      </trkpt>
      <trkpt lat="38.211881" lon="-2.702271">
        <ele>967.7</ele>
        <time>1989-12-30T23:59:59Z</time>
      </trkpt>
      <trkpt lat="38.211995" lon="-2.702352">
        <ele>964.3</ele>
        <time>1989-12-30T23:59:59Z</time>
      </trkpt>
      <trkpt lat="38.212395" lon="-2.702788">
        <ele>959.5</ele>
        <time>1989-12-30T23:59:59Z</time>
      </trkpt>
      <trkpt lat="38.212648" lon="-2.702882">
        <ele>955.2</ele>
        <time>1989-12-30T23:59:59Z</time>
      </trkpt>
      <trkpt lat="38.212985" lon="-2.702878">
        <ele>951.8</ele>
        <time>1989-12-30T23:59:59Z</time>
      </trkpt>
      <trkpt lat="38.213344" lon="-2.703191">
        <ele>949.4</ele>
        <time>1989-12-30T23:59:59Z</time>
      </trkpt>
      <trkpt lat="38.213857" lon="-2.703253">
        <ele>954.7</ele>
        <time>1989-12-30T23:59:59Z</time>
      </trkpt>
      <trkpt lat="38.214254" lon="-2.703003">
        <ele>952.8</ele>
        <time>1989-12-30T23:59:59Z</time>
      </trkpt>
      <trkpt lat="38.214823" lon="-2.703514">
        <ele>957.1</ele>
        <time>1989-12-30T23:59:59Z</time>
      </trkpt>
      <trkpt lat="38.215094" lon="-2.703447">
        <ele>959.5</ele>
        <time>1989-12-30T23:59:59Z</time>
      </trkpt>
      <trkpt lat="38.215167" lon="-2.703313">
        <ele>959.1</ele>
        <time>1989-12-30T23:59:59Z</time>
      </trkpt>
      <trkpt lat="38.215474" lon="-2.703139">
        <ele>960.0</ele>
        <time>1989-12-30T23:59:59Z</time>
      </trkpt>
      <trkpt lat="38.215627" lon="-2.702967">
        <ele>957.6</ele>
        <time>1989-12-30T23:59:59Z</time>
      </trkpt>
      <trkpt lat="38.216066" lon="-2.702905">
        <ele>956.6</ele>
        <time>1989-12-30T23:59:59Z</time>
      </trkpt>
      <trkpt lat="38.216168" lon="-2.702867">
        <ele>956.6</ele>
        <time>1989-12-30T23:59:59Z</time>
      </trkpt>
      <trkpt lat="38.216313" lon="-2.702717">
        <ele>954.7</ele>
        <time>1989-12-30T23:59:59Z</time>
      </trkpt>
      <trkpt lat="38.216409" lon="-2.702737">
        <ele>955.2</ele>
        <time>1989-12-30T23:59:59Z</time>
      </trkpt>
      <trkpt lat="38.216546" lon="-2.703123">
        <ele>953.3</ele>
        <time>1989-12-30T23:59:59Z</time>
      </trkpt>
      <trkpt lat="38.216972" lon="-2.703512">
        <ele>952.8</ele>
        <time>1989-12-30T23:59:59Z</time>
      </trkpt>
      <trkpt lat="38.217298" lon="-2.704035">
        <ele>947.0</ele>
        <time>1989-12-30T23:59:59Z</time>
      </trkpt>
      <trkpt lat="38.217749" lon="-2.704330">
        <ele>949.9</ele>
        <time>1989-12-30T23:59:59Z</time>
      </trkpt>
      <trkpt lat="38.217758" lon="-2.704597">
        <ele>949.9</ele>
        <time>1989-12-30T23:59:59Z</time>
      </trkpt>
      <trkpt lat="38.217963" lon="-2.704971">
        <ele>950.9</ele>
        <time>1989-12-30T23:59:59Z</time>
      </trkpt>
      <trkpt lat="38.218681" lon="-2.705384">
        <ele>948.5</ele>
        <time>1989-12-30T23:59:59Z</time>
      </trkpt>
      <trkpt lat="38.218845" lon="-2.705549">
        <ele>948.0</ele>
        <time>1989-12-30T23:59:59Z</time>
      </trkpt>
      <trkpt lat="38.218820" lon="-2.705682">
        <ele>947.5</ele>
        <time>1989-12-30T23:59:59Z</time>
      </trkpt>
      <trkpt lat="38.218778" lon="-2.705857">
        <ele>941.3</ele>
        <time>1989-12-30T23:59:59Z</time>
      </trkpt>
      <trkpt lat="38.218930" lon="-2.706229">
        <ele>944.6</ele>
        <time>1989-12-30T23:59:59Z</time>
      </trkpt>
      <trkpt lat="38.219098" lon="-2.706581">
        <ele>938.9</ele>
        <time>1989-12-30T23:59:59Z</time>
      </trkpt>
      <trkpt lat="38.219244" lon="-2.706774">
        <ele>937.4</ele>
        <time>1989-12-30T23:59:59Z</time>
      </trkpt>
      <trkpt lat="38.219578" lon="-2.707024">
        <ele>936.0</ele>
        <time>1989-12-30T23:59:59Z</time>
      </trkpt>
      <trkpt lat="38.219643" lon="-2.707070">
        <ele>947.5</ele>
        <time>1989-12-30T23:59:59Z</time>
      </trkpt>
      <trkpt lat="38.220006" lon="-2.707475">
        <ele>944.6</ele>
        <time>1989-12-30T23:59:59Z</time>
      </trkpt>
      <trkpt lat="38.220170" lon="-2.707644">
        <ele>937.4</ele>
        <time>1989-12-30T23:59:59Z</time>
      </trkpt>
      <trkpt lat="38.220169" lon="-2.707661">
        <ele>941.3</ele>
        <time>1989-12-30T23:59:59Z</time>
      </trkpt>
      <trkpt lat="38.220403" lon="-2.708151">
        <ele>951.8</ele>
        <time>1989-12-30T23:59:59Z</time>
      </trkpt>
      <trkpt lat="38.220400" lon="-2.708180">
        <ele>941.3</ele>
        <time>1989-12-30T23:59:59Z</time>
      </trkpt>
      <trkpt lat="38.220123" lon="-2.708830">
        <ele>932.6</ele>
        <time>1989-12-30T23:59:59Z</time>
      </trkpt>
      <trkpt lat="38.219906" lon="-2.709055">
        <ele>933.1</ele>
        <time>1989-12-30T23:59:59Z</time>
      </trkpt>
      <trkpt lat="38.219874" lon="-2.709170">
        <ele>932.6</ele>
        <time>1989-12-30T23:59:59Z</time>
      </trkpt>
      <trkpt lat="38.219858" lon="-2.709633">
        <ele>930.7</ele>
        <time>1989-12-30T23:59:59Z</time>
      </trkpt>
      <trkpt lat="38.219652" lon="-2.711100">
        <ele>925.4</ele>
        <time>1989-12-30T23:59:59Z</time>
      </trkpt>
      <trkpt lat="38.219675" lon="-2.711210">
        <ele>925.4</ele>
        <time>1989-12-30T23:59:59Z</time>
      </trkpt>
      <trkpt lat="38.219585" lon="-2.711625">
        <ele>918.7</ele>
        <time>1989-12-30T23:59:59Z</time>
      </trkpt>
      <trkpt lat="38.219298" lon="-2.712085">
        <ele>920.6</ele>
        <time>1989-12-30T23:59:59Z</time>
      </trkpt>
      <trkpt lat="38.218866" lon="-2.712720">
        <ele>913.4</ele>
        <time>1989-12-30T23:59:59Z</time>
      </trkpt>
      <trkpt lat="38.218754" lon="-2.713051">
        <ele>912.9</ele>
        <time>1989-12-30T23:59:59Z</time>
      </trkpt>
      <trkpt lat="38.218642" lon="-2.713246">
        <ele>914.8</ele>
        <time>1989-12-30T23:59:59Z</time>
      </trkpt>
      <trkpt lat="38.218255" lon="-2.713625">
        <ele>915.3</ele>
        <time>1989-12-30T23:59:59Z</time>
      </trkpt>
      <trkpt lat="38.218195" lon="-2.713687">
        <ele>918.7</ele>
        <time>1989-12-30T23:59:59Z</time>
      </trkpt>
      <trkpt lat="38.218143" lon="-2.713780">
        <ele>921.1</ele>
        <time>1989-12-30T23:59:59Z</time>
      </trkpt>
      <trkpt lat="38.218067" lon="-2.713863">
        <ele>921.6</ele>
        <time>1989-12-30T23:59:59Z</time>
      </trkpt>
      <trkpt lat="38.217992" lon="-2.713944">
        <ele>922.5</ele>
        <time>1989-12-30T23:59:59Z</time>
      </trkpt>
      <trkpt lat="38.217913" lon="-2.714022">
        <ele>922.0</ele>
        <time>1989-12-30T23:59:59Z</time>
      </trkpt>
      <trkpt lat="38.217851" lon="-2.714114">
        <ele>923.5</ele>
        <time>1989-12-30T23:59:59Z</time>
      </trkpt>
      <trkpt lat="38.217784" lon="-2.714193">
        <ele>923.0</ele>
        <time>1989-12-30T23:59:59Z</time>
      </trkpt>
      <trkpt lat="38.217695" lon="-2.714259">
        <ele>923.0</ele>
        <time>1989-12-30T23:59:59Z</time>
      </trkpt>
      <trkpt lat="38.217623" lon="-2.714352">
        <ele>923.0</ele>
        <time>1989-12-30T23:59:59Z</time>
      </trkpt>
      <trkpt lat="38.217555" lon="-2.714433">
        <ele>923.0</ele>
        <time>1989-12-30T23:59:59Z</time>
      </trkpt>
      <trkpt lat="38.217485" lon="-2.714523">
        <ele>920.1</ele>
        <time>1989-12-30T23:59:59Z</time>
      </trkpt>
      <trkpt lat="38.217413" lon="-2.714598">
        <ele>913.4</ele>
        <time>1989-12-30T23:59:59Z</time>
      </trkpt>
      <trkpt lat="38.217322" lon="-2.714670">
        <ele>911.9</ele>
        <time>1989-12-30T23:59:59Z</time>
      </trkpt>
      <trkpt lat="38.217237" lon="-2.714792">
        <ele>910.0</ele>
        <time>1989-12-30T23:59:59Z</time>
      </trkpt>
      <trkpt lat="38.217173" lon="-2.714839">
        <ele>909.1</ele>
        <time>1989-12-30T23:59:59Z</time>
      </trkpt>
      <trkpt lat="38.217112" lon="-2.714881">
        <ele>910.5</ele>
        <time>1989-12-30T23:59:59Z</time>
      </trkpt>
      <trkpt lat="38.217066" lon="-2.714946">
        <ele>907.6</ele>
        <time>1989-12-30T23:59:59Z</time>
      </trkpt>
      <trkpt lat="38.217006" lon="-2.715022">
        <ele>905.7</ele>
        <time>1989-12-30T23:59:59Z</time>
      </trkpt>
      <trkpt lat="38.216964" lon="-2.715117">
        <ele>903.8</ele>
        <time>1989-12-30T23:59:59Z</time>
      </trkpt>
      <trkpt lat="38.216910" lon="-2.715209">
        <ele>902.8</ele>
        <time>1989-12-30T23:59:59Z</time>
      </trkpt>
      <trkpt lat="38.216859" lon="-2.715308">
        <ele>901.9</ele>
        <time>1989-12-30T23:59:59Z</time>
      </trkpt>
      <trkpt lat="38.216784" lon="-2.715405">
        <ele>899.9</ele>
        <time>1989-12-30T23:59:59Z</time>
      </trkpt>
      <trkpt lat="38.216710" lon="-2.715489">
        <ele>897.5</ele>
        <time>1989-12-30T23:59:59Z</time>
      </trkpt>
      <trkpt lat="38.216658" lon="-2.715604">
        <ele>897.0</ele>
        <time>1989-12-30T23:59:59Z</time>
      </trkpt>
      <trkpt lat="38.216624" lon="-2.715716">
        <ele>899.5</ele>
        <time>1989-12-30T23:59:59Z</time>
      </trkpt>
      <trkpt lat="38.216570" lon="-2.715826">
        <ele>899.0</ele>
        <time>1989-12-30T23:59:59Z</time>
      </trkpt>
      <trkpt lat="38.216506" lon="-2.715922">
        <ele>896.6</ele>
        <time>1989-12-30T23:59:59Z</time>
      </trkpt>
      <trkpt lat="38.216444" lon="-2.716010">
        <ele>892.7</ele>
        <time>1989-12-30T23:59:59Z</time>
      </trkpt>
      <trkpt lat="38.216402" lon="-2.716110">
        <ele>891.8</ele>
        <time>1989-12-30T23:59:59Z</time>
      </trkpt>
      <trkpt lat="38.216366" lon="-2.716230">
        <ele>892.2</ele>
        <time>1989-12-30T23:59:59Z</time>
      </trkpt>
      <trkpt lat="38.216307" lon="-2.716329">
        <ele>890.3</ele>
        <time>1989-12-30T23:59:59Z</time>
      </trkpt>
      <trkpt lat="38.216244" lon="-2.716411">
        <ele>889.4</ele>
        <time>1989-12-30T23:59:59Z</time>
      </trkpt>
      <trkpt lat="38.216204" lon="-2.716494">
        <ele>886.0</ele>
        <time>1989-12-30T23:59:59Z</time>
      </trkpt>
      <trkpt lat="38.216139" lon="-2.716577">
        <ele>886.0</ele>
        <time>1989-12-30T23:59:59Z</time>
      </trkpt>
      <trkpt lat="38.216074" lon="-2.716660">
        <ele>887.4</ele>
        <time>1989-12-30T23:59:59Z</time>
      </trkpt>
      <trkpt lat="38.216038" lon="-2.716724">
        <ele>886.5</ele>
        <time>1989-12-30T23:59:59Z</time>
      </trkpt>
      <trkpt lat="38.216002" lon="-2.716789">
        <ele>887.0</ele>
        <time>1989-12-30T23:59:59Z</time>
      </trkpt>
      <trkpt lat="38.214826" lon="-2.718649">
        <ele>849.5</ele>
        <time>1989-12-30T23:59:59Z</time>
      </trkpt>
      <trkpt lat="38.214795" lon="-2.718715">
        <ele>845.1</ele>
        <time>1989-12-30T23:59:59Z</time>
      </trkpt>
      <trkpt lat="38.214493" lon="-2.718894">
        <ele>845.1</ele>
        <time>1989-12-30T23:59:59Z</time>
      </trkpt>
      <trkpt lat="38.214337" lon="-2.718967">
        <ele>842.3</ele>
        <time>1989-12-30T23:59:59Z</time>
      </trkpt>
      <trkpt lat="38.214289" lon="-2.719174">
        <ele>847.1</ele>
        <time>1989-12-30T23:59:59Z</time>
      </trkpt>
      <trkpt lat="38.214340" lon="-2.719265">
        <ele>846.6</ele>
        <time>1989-12-30T23:59:59Z</time>
      </trkpt>
      <trkpt lat="38.214496" lon="-2.719412">
        <ele>841.3</ele>
        <time>1989-12-30T23:59:59Z</time>
      </trkpt>
      <trkpt lat="38.214496" lon="-2.719636">
        <ele>837.4</ele>
        <time>1989-12-30T23:59:59Z</time>
      </trkpt>
      <trkpt lat="38.214535" lon="-2.719740">
        <ele>835.0</ele>
        <time>1989-12-30T23:59:59Z</time>
      </trkpt>
      <trkpt lat="38.214586" lon="-2.719847">
        <ele>834.6</ele>
        <time>1989-12-30T23:59:59Z</time>
      </trkpt>
      <trkpt lat="38.214656" lon="-2.719921">
        <ele>833.1</ele>
        <time>1989-12-30T23:59:59Z</time>
      </trkpt>
      <trkpt lat="38.214774" lon="-2.720117">
        <ele>829.3</ele>
        <time>1989-12-30T23:59:59Z</time>
      </trkpt>
      <trkpt lat="38.214809" lon="-2.720217">
        <ele>827.4</ele>
        <time>1989-12-30T23:59:59Z</time>
      </trkpt>
      <trkpt lat="38.214812" lon="-2.720330">
        <ele>823.0</ele>
        <time>1989-12-30T23:59:59Z</time>
      </trkpt>
      <trkpt lat="38.214823" lon="-2.720571">
        <ele>820.6</ele>
        <time>1989-12-30T23:59:59Z</time>
      </trkpt>
      <trkpt lat="38.215028" lon="-2.720790">
        <ele>817.3</ele>
        <time>1989-12-30T23:59:59Z</time>
      </trkpt>
      <trkpt lat="38.215097" lon="-2.721015">
        <ele>813.4</ele>
        <time>1989-12-30T23:59:59Z</time>
      </trkpt>
      <trkpt lat="38.215330" lon="-2.721463">
        <ele>809.1</ele>
        <time>1989-12-30T23:59:59Z</time>
      </trkpt>
      <trkpt lat="38.215416" lon="-2.721700">
        <ele>802.8</ele>
        <time>1989-12-30T23:59:59Z</time>
      </trkpt>
      <trkpt lat="38.215681" lon="-2.721878">
        <ele>798.0</ele>
        <time>1989-12-30T23:59:59Z</time>
      </trkpt>
      <trkpt lat="38.215967" lon="-2.721874">
        <ele>793.7</ele>
        <time>1989-12-30T23:59:59Z</time>
      </trkpt>
      <trkpt lat="38.216143" lon="-2.721963">
        <ele>790.3</ele>
        <time>1989-12-30T23:59:59Z</time>
      </trkpt>
      <trkpt lat="38.216485" lon="-2.722529">
        <ele>779.8</ele>
        <time>1989-12-30T23:59:59Z</time>
      </trkpt>
      <trkpt lat="38.216719" lon="-2.722745">
        <ele>775.4</ele>
        <time>1989-12-30T23:59:59Z</time>
      </trkpt>
      <trkpt lat="38.216881" lon="-2.722886">
        <ele>774.0</ele>
        <time>1989-12-30T23:59:59Z</time>
      </trkpt>
      <trkpt lat="38.216978" lon="-2.722921">
        <ele>772.6</ele>
        <time>1989-12-30T23:59:59Z</time>
      </trkpt>
      <trkpt lat="38.217071" lon="-2.722923">
        <ele>771.6</ele>
        <time>1989-12-30T23:59:59Z</time>
      </trkpt>
      <trkpt lat="38.217122" lon="-2.722933">
        <ele>763.9</ele>
        <time>1989-12-30T23:59:59Z</time>
      </trkpt>
      <trkpt lat="38.217250" lon="-2.723008">
        <ele>770.6</ele>
        <time>1989-12-30T23:59:59Z</time>
      </trkpt>
      <trkpt lat="38.217209" lon="-2.723131">
        <ele>767.8</ele>
        <time>1989-12-30T23:59:59Z</time>
      </trkpt>
      <trkpt lat="38.217189" lon="-2.723263">
        <ele>768.7</ele>
        <time>1989-12-30T23:59:59Z</time>
      </trkpt>
      <trkpt lat="38.217139" lon="-2.723484">
        <ele>762.0</ele>
        <time>1989-12-30T23:59:59Z</time>
      </trkpt>
      <trkpt lat="38.217146" lon="-2.723548">
        <ele>752.8</ele>
        <time>1989-12-30T23:59:59Z</time>
      </trkpt>
      <trkpt lat="38.217123" lon="-2.723710">
        <ele>752.4</ele>
        <time>1989-12-30T23:59:59Z</time>
      </trkpt>
      <trkpt lat="38.217126" lon="-2.723904">
        <ele>761.0</ele>
        <time>1989-12-30T23:59:59Z</time>
      </trkpt>
      <trkpt lat="38.217120" lon="-2.724026">
        <ele>760.5</ele>
        <time>1989-12-30T23:59:59Z</time>
      </trkpt>
      <trkpt lat="38.217108" lon="-2.724129">
        <ele>757.7</ele>
        <time>1989-12-30T23:59:59Z</time>
      </trkpt>
      <trkpt lat="38.216993" lon="-2.724260">
        <ele>749.5</ele>
        <time>1989-12-30T23:59:59Z</time>
      </trkpt>
      <trkpt lat="38.216980" lon="-2.724359">
        <ele>749.0</ele>
        <time>1989-12-30T23:59:59Z</time>
      </trkpt>
      <trkpt lat="38.216999" lon="-2.724593">
        <ele>746.1</ele>
        <time>1989-12-30T23:59:59Z</time>
      </trkpt>
      <trkpt lat="38.217167" lon="-2.724970">
        <ele>738.9</ele>
        <time>1989-12-30T23:59:59Z</time>
      </trkpt>
      <trkpt lat="38.217223" lon="-2.725071">
        <ele>731.2</ele>
        <time>1989-12-30T23:59:59Z</time>
      </trkpt>
      <trkpt lat="38.217251" lon="-2.725233">
        <ele>731.7</ele>
        <time>1989-12-30T23:59:59Z</time>
      </trkpt>
      <trkpt lat="38.217223" lon="-2.725332">
        <ele>727.9</ele>
        <time>1989-12-30T23:59:59Z</time>
      </trkpt>
      <trkpt lat="38.217286" lon="-2.725412">
        <ele>727.4</ele>
        <time>1989-12-30T23:59:59Z</time>
      </trkpt>
      <trkpt lat="38.217318" lon="-2.725499">
        <ele>736.5</ele>
        <time>1989-12-30T23:59:59Z</time>
      </trkpt>
      <trkpt lat="38.217175" lon="-2.725544">
        <ele>730.7</ele>
        <time>1989-12-30T23:59:59Z</time>
      </trkpt>
      <trkpt lat="38.217202" lon="-2.725644">
        <ele>728.8</ele>
        <time>1989-12-30T23:59:59Z</time>
      </trkpt>
      <trkpt lat="38.217346" lon="-2.725798">
        <ele>724.0</ele>
        <time>1989-12-30T23:59:59Z</time>
      </trkpt>
      <trkpt lat="38.217259" lon="-2.725895">
        <ele>721.6</ele>
        <time>1989-12-30T23:59:59Z</time>
      </trkpt>
      <trkpt lat="38.217387" lon="-2.725973">
        <ele>707.2</ele>
        <time>1989-12-30T23:59:59Z</time>
      </trkpt>
      <trkpt lat="38.217370" lon="-2.726071">
        <ele>716.8</ele>
        <time>1989-12-30T23:59:59Z</time>
      </trkpt>
      <trkpt lat="38.217320" lon="-2.726122">
        <ele>719.2</ele>
        <time>1989-12-30T23:59:59Z</time>
      </trkpt>
      <trkpt lat="38.217247" lon="-2.726170">
        <ele>713.4</ele>
        <time>1989-12-30T23:59:59Z</time>
      </trkpt>
      <trkpt lat="38.217324" lon="-2.726260">
        <ele>711.0</ele>
        <time>1989-12-30T23:59:59Z</time>
      </trkpt>
      <trkpt lat="38.217294" lon="-2.726371">
        <ele>711.0</ele>
        <time>1989-12-30T23:59:59Z</time>
      </trkpt>
      <trkpt lat="38.217152" lon="-2.726374">
        <ele>710.1</ele>
        <time>1989-12-30T23:59:59Z</time>
      </trkpt>
      <trkpt lat="38.217074" lon="-2.726450">
        <ele>706.2</ele>
        <time>1989-12-30T23:59:59Z</time>
      </trkpt>
      <trkpt lat="38.217131" lon="-2.726527">
        <ele>704.3</ele>
        <time>1989-12-30T23:59:59Z</time>
      </trkpt>
      <trkpt lat="38.217271" lon="-2.726580">
        <ele>700.5</ele>
        <time>1989-12-30T23:59:59Z</time>
      </trkpt>
      <trkpt lat="38.217337" lon="-2.726679">
        <ele>700.9</ele>
        <time>1989-12-30T23:59:59Z</time>
      </trkpt>
      <trkpt lat="38.217359" lon="-2.726798">
        <ele>699.5</ele>
        <time>1989-12-30T23:59:59Z</time>
      </trkpt>
      <trkpt lat="38.217421" lon="-2.726894">
        <ele>697.1</ele>
        <time>1989-12-30T23:59:59Z</time>
      </trkpt>
      <trkpt lat="38.217467" lon="-2.727027">
        <ele>701.4</ele>
        <time>1989-12-30T23:59:59Z</time>
      </trkpt>
      <trkpt lat="38.217444" lon="-2.727133">
        <ele>696.6</ele>
        <time>1989-12-30T23:59:59Z</time>
      </trkpt>
      <trkpt lat="38.217462" lon="-2.727211">
        <ele>694.7</ele>
        <time>1989-12-30T23:59:59Z</time>
      </trkpt>
      <trkpt lat="38.217466" lon="-2.727409">
        <ele>695.7</ele>
        <time>1989-12-30T23:59:59Z</time>
      </trkpt>
      <trkpt lat="38.217459" lon="-2.727464">
        <ele>686.5</ele>
        <time>1989-12-30T23:59:59Z</time>
      </trkpt>
      <trkpt lat="38.217411" lon="-2.727585">
        <ele>684.1</ele>
        <time>1989-12-30T23:59:59Z</time>
      </trkpt>
      <trkpt lat="38.217356" lon="-2.727882">
        <ele>682.7</ele>
        <time>1989-12-30T23:59:59Z</time>
      </trkpt>
      <trkpt lat="38.217254" lon="-2.727980">
        <ele>682.7</ele>
        <time>1989-12-30T23:59:59Z</time>
      </trkpt>
      <trkpt lat="38.217282" lon="-2.728102">
        <ele>672.6</ele>
        <time>1989-12-30T23:59:59Z</time>
      </trkpt>
      <trkpt lat="38.217285" lon="-2.728394">
        <ele>668.3</ele>
        <time>1989-12-30T23:59:59Z</time>
      </trkpt>
      <trkpt lat="38.217397" lon="-2.728630">
        <ele>663.0</ele>
        <time>1989-12-30T23:59:59Z</time>
      </trkpt>
      <trkpt lat="38.217416" lon="-2.729175">
        <ele>658.6</ele>
        <time>1989-12-30T23:59:59Z</time>
      </trkpt>
      <trkpt lat="38.217352" lon="-2.729530">
        <ele>655.8</ele>
        <time>1989-12-30T23:59:59Z</time>
      </trkpt>
      <trkpt lat="38.217343" lon="-2.729732">
        <ele>657.7</ele>
        <time>1989-12-30T23:59:59Z</time>
      </trkpt>
      <trkpt lat="38.217363" lon="-2.729826">
        <ele>654.3</ele>
        <time>1989-12-30T23:59:59Z</time>
      </trkpt>
      <trkpt lat="38.217358" lon="-2.729944">
        <ele>653.4</ele>
        <time>1989-12-30T23:59:59Z</time>
      </trkpt>
      <trkpt lat="38.217582" lon="-2.729936">
        <ele>646.0</ele>
        <time>1989-12-30T23:59:59Z</time>
      </trkpt>
      <trkpt lat="38.217923" lon="-2.730076">
        <ele>640.9</ele>
        <time>1989-12-30T23:59:59Z</time>
      </trkpt>
      <trkpt lat="38.218215" lon="-2.730126">
        <ele>652.6</ele>
        <time>1989-12-30T23:59:59Z</time>
      </trkpt>
      <trkpt lat="38.218424" lon="-2.730207">
        <ele>653.5</ele>
        <time>1989-12-30T23:59:59Z</time>
      </trkpt>
      <trkpt lat="38.218528" lon="-2.730277">
        <ele>653.0</ele>
        <time>1989-12-30T23:59:59Z</time>
      </trkpt>
      <trkpt lat="38.218798" lon="-2.730344">
        <ele>645.2</ele>
        <time>1989-12-30T23:59:59Z</time>
      </trkpt>
      <trkpt lat="38.219073" lon="-2.730357">
        <ele>652.8</ele>
        <time>1989-12-30T23:59:59Z</time>
      </trkpt>
      <trkpt lat="38.219474" lon="-2.730457">
        <ele>651.4</ele>
        <time>1989-12-30T23:59:59Z</time>
      </trkpt>
      <trkpt lat="38.219787" lon="-2.730436">
        <ele>651.7</ele>
        <time>1989-12-30T23:59:59Z</time>
      </trkpt>
      <trkpt lat="38.220100" lon="-2.730342">
        <ele>652.7</ele>
        <time>1989-12-30T23:59:59Z</time>
      </trkpt>
      <trkpt lat="38.220268" lon="-2.730301">
        <ele>653.2</ele>
        <time>1989-12-30T23:59:59Z</time>
      </trkpt>
      <trkpt lat="38.220223" lon="-2.730682">
        <ele>649.8</ele>
        <time>1989-12-30T23:59:59Z</time>
      </trkpt>
      <trkpt lat="38.220211" lon="-2.730997">
        <ele>648.5</ele>
        <time>1989-12-30T23:59:59Z</time>
      </trkpt>
      <trkpt lat="38.220174" lon="-2.731187">
        <ele>648.3</ele>
        <time>1989-12-30T23:59:59Z</time>
      </trkpt>
      <trkpt lat="38.220199" lon="-2.731313">
        <ele>648.3</ele>
        <time>1989-12-30T23:59:59Z</time>
      </trkpt>
      <trkpt lat="38.220200" lon="-2.731518">
        <ele>648.3</ele>
        <time>1989-12-30T23:59:59Z</time>
      </trkpt>
      <trkpt lat="38.220200" lon="-2.731676">
        <ele>648.3</ele>
        <time>1989-12-30T23:59:59Z</time>
      </trkpt>
      <trkpt lat="38.220164" lon="-2.732102">
        <ele>650.9</ele>
        <time>1989-12-30T23:59:59Z</time>
      </trkpt>
      <trkpt lat="38.219919" lon="-2.731959">
        <ele>650.3</ele>
        <time>1989-12-30T23:59:59Z</time>
      </trkpt>
      <trkpt lat="38.219550" lon="-2.731879">
        <ele>650.2</ele>
        <time>1989-12-30T23:59:59Z</time>
      </trkpt>
      <trkpt lat="38.219334" lon="-2.731859">
        <ele>650.1</ele>
        <time>1989-12-30T23:59:59Z</time>
      </trkpt>
      <trkpt lat="38.219013" lon="-2.731810">
        <ele>650.0</ele>
        <time>1989-12-30T23:59:59Z</time>
      </trkpt>
      <trkpt lat="38.218744" lon="-2.731857">
        <ele>653.8</ele>
        <time>1989-12-30T23:59:59Z</time>
      </trkpt>
      <trkpt lat="38.218637" lon="-2.731862">
        <ele>652.4</ele>
        <time>1989-12-30T23:59:59Z</time>
      </trkpt>
      <trkpt lat="38.218326" lon="-2.731817">
        <ele>672.6</ele>
        <time>1989-12-30T23:59:59Z</time>
      </trkpt>
      <trkpt lat="38.218209" lon="-2.731803">
        <ele>658.2</ele>
        <time>1989-12-30T23:59:59Z</time>
      </trkpt>
      <trkpt lat="38.218095" lon="-2.731846">
        <ele>657.2</ele>
        <time>1989-12-30T23:59:59Z</time>
      </trkpt>
      <trkpt lat="38.217984" lon="-2.731836">
        <ele>656.2</ele>
        <time>1989-12-30T23:59:59Z</time>
      </trkpt>
      <trkpt lat="38.217767" lon="-2.731850">
        <ele>647.6</ele>
        <time>1989-12-30T23:59:59Z</time>
      </trkpt>
      <trkpt lat="38.217234" lon="-2.731939">
        <ele>647.6</ele>
        <time>1989-12-30T23:59:59Z</time>
      </trkpt>
      <trkpt lat="38.217187" lon="-2.731981">
        <ele>646.1</ele>
        <time>1989-12-30T23:59:59Z</time>
      </trkpt>
      <trkpt lat="38.217090" lon="-2.732030">
        <ele>646.1</ele>
        <time>1989-12-30T23:59:59Z</time>
      </trkpt>
      <trkpt lat="38.216990" lon="-2.732026">
        <ele>647.1</ele>
        <time>1989-12-30T23:59:59Z</time>
      </trkpt>
      <trkpt lat="38.216758" lon="-2.732042">
        <ele>650.9</ele>
        <time>1989-12-30T23:59:59Z</time>
      </trkpt>
      <trkpt lat="38.216671" lon="-2.732093">
        <ele>650.5</ele>
        <time>1989-12-30T23:59:59Z</time>
      </trkpt>
      <trkpt lat="38.216422" lon="-2.732297">
        <ele>651.4</ele>
        <time>1989-12-30T23:59:59Z</time>
      </trkpt>
      <trkpt lat="38.215823" lon="-2.732871">
        <ele>661.5</ele>
        <time>1989-12-30T23:59:59Z</time>
      </trkpt>
      <trkpt lat="38.215590" lon="-2.733097">
        <ele>659.6</ele>
        <time>1989-12-30T23:59:59Z</time>
      </trkpt>
      <trkpt lat="38.214742" lon="-2.734000">
        <ele>660.1</ele>
        <time>1989-12-30T23:59:59Z</time>
      </trkpt>
      <trkpt lat="38.214560" lon="-2.734134">
        <ele>659.6</ele>
        <time>1989-12-30T23:59:59Z</time>
      </trkpt>
      <trkpt lat="38.214298" lon="-2.734132">
        <ele>659.6</ele>
        <time>1989-12-30T23:59:59Z</time>
      </trkpt>
      <trkpt lat="38.214206" lon="-2.734145">
        <ele>660.6</ele>
        <time>1989-12-30T23:59:59Z</time>
      </trkpt>
      <trkpt lat="38.213996" lon="-2.734157">
        <ele>657.7</ele>
        <time>1989-12-30T23:59:59Z</time>
      </trkpt>
      <trkpt lat="38.213781" lon="-2.734158">
        <ele>660.1</ele>
        <time>1989-12-30T23:59:59Z</time>
      </trkpt>
      <trkpt lat="38.213589" lon="-2.734181">
        <ele>659.1</ele>
        <time>1989-12-30T23:59:59Z</time>
      </trkpt>
      <trkpt lat="38.213532" lon="-2.734307">
        <ele>657.7</ele>
        <time>1989-12-30T23:59:59Z</time>
      </trkpt>
      <trkpt lat="38.213434" lon="-2.734414">
        <ele>658.2</ele>
        <time>1989-12-30T23:59:59Z</time>
      </trkpt>
      <trkpt lat="38.213402" lon="-2.734498">
        <ele>658.6</ele>
        <time>1989-12-30T23:59:59Z</time>
      </trkpt>
      <trkpt lat="38.213281" lon="-2.734996">
        <ele>660.6</ele>
        <time>1989-12-30T23:59:59Z</time>
      </trkpt>
      <trkpt lat="38.213282" lon="-2.735147">
        <ele>661.5</ele>
        <time>1989-12-30T23:59:59Z</time>
      </trkpt>
      <trkpt lat="38.213306" lon="-2.735402">
        <ele>675.5</ele>
        <time>1989-12-30T23:59:59Z</time>
      </trkpt>
      <trkpt lat="38.213137" lon="-2.735524">
        <ele>677.4</ele>
        <time>1989-12-30T23:59:59Z</time>
      </trkpt>
      <trkpt lat="38.213018" lon="-2.735544">
        <ele>681.7</ele>
        <time>1989-12-30T23:59:59Z</time>
      </trkpt>
      <trkpt lat="38.212912" lon="-2.735573">
        <ele>679.8</ele>
        <time>1989-12-30T23:59:59Z</time>
      </trkpt>
      <trkpt lat="38.212811" lon="-2.735631">
        <ele>675.0</ele>
        <time>1989-12-30T23:59:59Z</time>
      </trkpt>
      <trkpt lat="38.212558" lon="-2.735818">
        <ele>674.0</ele>
        <time>1989-12-30T23:59:59Z</time>
      </trkpt>
      <trkpt lat="38.212267" lon="-2.735984">
        <ele>676.9</ele>
        <time>1989-12-30T23:59:59Z</time>
      </trkpt>
      <trkpt lat="38.212174" lon="-2.736028">
        <ele>671.6</ele>
        <time>1989-12-30T23:59:59Z</time>
      </trkpt>
      <trkpt lat="38.211858" lon="-2.736338">
        <ele>670.2</ele>
        <time>1989-12-30T23:59:59Z</time>
      </trkpt>
      <trkpt lat="38.211790" lon="-2.736494">
        <ele>664.9</ele>
        <time>1989-12-30T23:59:59Z</time>
      </trkpt>
      <trkpt lat="38.211431" lon="-2.736944">
        <ele>664.9</ele>
        <time>1989-12-30T23:59:59Z</time>
      </trkpt>
      <trkpt lat="38.211305" lon="-2.736958">
        <ele>664.9</ele>
        <time>1989-12-30T23:59:59Z</time>
      </trkpt>
      <trkpt lat="38.211193" lon="-2.736983">
        <ele>662.0</ele>
        <time>1989-12-30T23:59:59Z</time>
      </trkpt>
      <trkpt lat="38.211020" lon="-2.737022">
        <ele>660.6</ele>
        <time>1989-12-30T23:59:59Z</time>
      </trkpt>
      <trkpt lat="38.210685" lon="-2.737264">
        <ele>660.6</ele>
        <time>1989-12-30T23:59:59Z</time>
      </trkpt>
      <trkpt lat="38.210605" lon="-2.737350">
        <ele>660.1</ele>
        <time>1989-12-30T23:59:59Z</time>
      </trkpt>
      <trkpt lat="38.210397" lon="-2.737629">
        <ele>660.1</ele>
        <time>1989-12-30T23:59:59Z</time>
      </trkpt>
      <trkpt lat="38.210253" lon="-2.737757">
        <ele>660.6</ele>
        <time>1989-12-30T23:59:59Z</time>
      </trkpt>
      <trkpt lat="38.210038" lon="-2.737991">
        <ele>659.6</ele>
        <time>1989-12-30T23:59:59Z</time>
      </trkpt>
      <trkpt lat="38.209942" lon="-2.738166">
        <ele>651.4</ele>
        <time>1989-12-30T23:59:59Z</time>
      </trkpt>
      <trkpt lat="38.209759" lon="-2.738350">
        <ele>649.5</ele>
        <time>1989-12-30T23:59:59Z</time>
      </trkpt>
      <trkpt lat="38.209673" lon="-2.738443">
        <ele>651.9</ele>
        <time>1989-12-30T23:59:59Z</time>
      </trkpt>
      <trkpt lat="38.209418" lon="-2.738656">
        <ele>650.5</ele>
        <time>1989-12-30T23:59:59Z</time>
      </trkpt>
      <trkpt lat="38.209329" lon="-2.738712">
        <ele>650.5</ele>
        <time>1989-12-30T23:59:59Z</time>
      </trkpt>
      <trkpt lat="38.209230" lon="-2.738742">
        <ele>652.9</ele>
        <time>1989-12-30T23:59:59Z</time>
      </trkpt>
      <trkpt lat="38.209129" lon="-2.738742">
        <ele>653.8</ele>
        <time>1989-12-30T23:59:59Z</time>
      </trkpt>
      <trkpt lat="38.209035" lon="-2.738787">
        <ele>652.9</ele>
        <time>1989-12-30T23:59:59Z</time>
      </trkpt>
      <trkpt lat="38.208704" lon="-2.739055">
        <ele>650.9</ele>
        <time>1989-12-30T23:59:59Z</time>
      </trkpt>
      <trkpt lat="38.208766" lon="-2.739023">
        <ele>650.5</ele>
        <time>1989-12-30T23:59:59Z</time>
      </trkpt>
      <trkpt lat="38.208589" lon="-2.739094">
        <ele>650.0</ele>
        <time>1989-12-30T23:59:59Z</time>
      </trkpt>
      <trkpt lat="38.208474" lon="-2.739197">
        <ele>647.6</ele>
        <time>1989-12-30T23:59:59Z</time>
      </trkpt>
      <trkpt lat="38.208158" lon="-2.739306">
        <ele>647.1</ele>
        <time>1989-12-30T23:59:59Z</time>
      </trkpt>
      <trkpt lat="38.207644" lon="-2.739413">
        <ele>649.0</ele>
        <time>1989-12-30T23:59:59Z</time>
      </trkpt>
      <trkpt lat="38.207462" lon="-2.739499">
        <ele>649.0</ele>
        <time>1989-12-30T23:59:59Z</time>
      </trkpt>
      <trkpt lat="38.207087" lon="-2.739911">
        <ele>649.5</ele>
        <time>1989-12-30T23:59:59Z</time>
      </trkpt>
      <trkpt lat="38.206585" lon="-2.740363">
        <ele>650.0</ele>
        <time>1989-12-30T23:59:59Z</time>
      </trkpt>
      <trkpt lat="38.206351" lon="-2.740610">
        <ele>650.0</ele>
        <time>1989-12-30T23:59:59Z</time>
      </trkpt>
      <trkpt lat="38.205881" lon="-2.740930">
        <ele>650.9</ele>
        <time>1989-12-30T23:59:59Z</time>
      </trkpt>
      <trkpt lat="38.205801" lon="-2.740991">
        <ele>652.9</ele>
        <time>1989-12-30T23:59:59Z</time>
      </trkpt>
      <trkpt lat="38.205338" lon="-2.741268">
        <ele>652.4</ele>
        <time>1989-12-30T23:59:59Z</time>
      </trkpt>
      <trkpt lat="38.205189" lon="-2.741442">
        <ele>652.4</ele>
        <time>1989-12-30T23:59:59Z</time>
      </trkpt>
      <trkpt lat="38.205158" lon="-2.741543">
        <ele>652.4</ele>
        <time>1989-12-30T23:59:59Z</time>
      </trkpt>
      <trkpt lat="38.205103" lon="-2.741652">
        <ele>698.1</ele>
        <time>1989-12-30T23:59:59Z</time>
      </trkpt>
      <trkpt lat="38.205010" lon="-2.741723">
        <ele>704.8</ele>
        <time>1989-12-30T23:59:59Z</time>
      </trkpt>
      <trkpt lat="38.204916" lon="-2.741786">
        <ele>704.3</ele>
        <time>1989-12-30T23:59:59Z</time>
      </trkpt>
      <trkpt lat="38.204821" lon="-2.741830">
        <ele>674.0</ele>
        <time>1989-12-30T23:59:59Z</time>
      </trkpt>
      <trkpt lat="38.204549" lon="-2.741990">
        <ele>674.5</ele>
        <time>1989-12-30T23:59:59Z</time>
      </trkpt>
      <trkpt lat="38.204483" lon="-2.742075">
        <ele>676.4</ele>
        <time>1989-12-30T23:59:59Z</time>
      </trkpt>
      <trkpt lat="38.204520" lon="-2.742353">
        <ele>667.8</ele>
        <time>1989-12-30T23:59:59Z</time>
      </trkpt>
      <trkpt lat="38.204580" lon="-2.742469">
        <ele>667.3</ele>
        <time>1989-12-30T23:59:59Z</time>
      </trkpt>
      <trkpt lat="38.204639" lon="-2.742690">
        <ele>663.4</ele>
        <time>1989-12-30T23:59:59Z</time>
      </trkpt>
      <trkpt lat="38.204817" lon="-2.743121">
        <ele>658.6</ele>
        <time>1989-12-30T23:59:59Z</time>
      </trkpt>
      <trkpt lat="38.204858" lon="-2.743213">
        <ele>656.2</ele>
        <time>1989-12-30T23:59:59Z</time>
      </trkpt>
      <trkpt lat="38.204852" lon="-2.743334">
        <ele>655.8</ele>
        <time>1989-12-30T23:59:59Z</time>
      </trkpt>
      <trkpt lat="38.204785" lon="-2.743416">
        <ele>652.9</ele>
        <time>1989-12-30T23:59:59Z</time>
      </trkpt>
      <trkpt lat="38.204508" lon="-2.743455">
        <ele>656.2</ele>
        <time>1989-12-30T23:59:59Z</time>
      </trkpt>
      <trkpt lat="38.204403" lon="-2.743471">
        <ele>656.2</ele>
        <time>1989-12-30T23:59:59Z</time>
      </trkpt>
      <trkpt lat="38.204300" lon="-2.743501">
        <ele>658.6</ele>
        <time>1989-12-30T23:59:59Z</time>
      </trkpt>
      <trkpt lat="38.204092" lon="-2.743539">
        <ele>658.6</ele>
        <time>1989-12-30T23:59:59Z</time>
      </trkpt>
      <trkpt lat="38.203895" lon="-2.743586">
        <ele>656.7</ele>
        <time>1989-12-30T23:59:59Z</time>
      </trkpt>
      <trkpt lat="38.203789" lon="-2.743576">
        <ele>657.2</ele>
        <time>1989-12-30T23:59:59Z</time>
      </trkpt>
      <trkpt lat="38.203701" lon="-2.743616">
        <ele>653.8</ele>
        <time>1989-12-30T23:59:59Z</time>
      </trkpt>
      <trkpt lat="38.203631" lon="-2.743696">
        <ele>651.9</ele>
        <time>1989-12-30T23:59:59Z</time>
      </trkpt>
      <trkpt lat="38.203385" lon="-2.743894">
        <ele>651.9</ele>
        <time>1989-12-30T23:59:59Z</time>
      </trkpt>
      <trkpt lat="38.203009" lon="-2.744262">
        <ele>648.1</ele>
        <time>1989-12-30T23:59:59Z</time>
      </trkpt>
      <trkpt lat="38.202773" lon="-2.744482">
        <ele>649.0</ele>
        <time>1989-12-30T23:59:59Z</time>
      </trkpt>
      <trkpt lat="38.202599" lon="-2.744593">
        <ele>649.5</ele>
        <time>1989-12-30T23:59:59Z</time>
      </trkpt>
      <trkpt lat="38.202287" lon="-2.744594">
        <ele>651.9</ele>
        <time>1989-12-30T23:59:59Z</time>
      </trkpt>
      <trkpt lat="38.202074" lon="-2.744484">
        <ele>655.3</ele>
        <time>1989-12-30T23:59:59Z</time>
      </trkpt>
      <trkpt lat="38.201693" lon="-2.744013">
        <ele>653.8</ele>
        <time>1989-12-30T23:59:59Z</time>
      </trkpt>
      <trkpt lat="38.201493" lon="-2.743888">
        <ele>652.9</ele>
        <time>1989-12-30T23:59:59Z</time>
      </trkpt>
      <trkpt lat="38.201235" lon="-2.743608">
        <ele>656.7</ele>
        <time>1989-12-30T23:59:59Z</time>
      </trkpt>
      <trkpt lat="38.201014" lon="-2.743608">
        <ele>655.3</ele>
        <time>1989-12-30T23:59:59Z</time>
      </trkpt>
      <trkpt lat="38.200814" lon="-2.743733">
        <ele>652.4</ele>
        <time>1989-12-30T23:59:59Z</time>
      </trkpt>
      <trkpt lat="38.200731" lon="-2.743808">
        <ele>651.4</ele>
        <time>1989-12-30T23:59:59Z</time>
      </trkpt>
      <trkpt lat="38.200525" lon="-2.744104">
        <ele>656.2</ele>
        <time>1989-12-30T23:59:59Z</time>
      </trkpt>
      <trkpt lat="38.200400" lon="-2.744159">
        <ele>650.5</ele>
        <time>1989-12-30T23:59:59Z</time>
      </trkpt>
      <trkpt lat="38.200179" lon="-2.744598">
        <ele>649.5</ele>
        <time>1989-12-30T23:59:59Z</time>
      </trkpt>
      <trkpt lat="38.200017" lon="-2.744889">
        <ele>644.2</ele>
        <time>1989-12-30T23:59:59Z</time>
      </trkpt>
      <trkpt lat="38.199765" lon="-2.745201">
        <ele>643.7</ele>
        <time>1989-12-30T23:59:59Z</time>
      </trkpt>
      <trkpt lat="38.199691" lon="-2.745277">
        <ele>645.7</ele>
        <time>1989-12-30T23:59:59Z</time>
      </trkpt>
      <trkpt lat="38.199527" lon="-2.745449">
        <ele>643.7</ele>
        <time>1989-12-30T23:59:59Z</time>
      </trkpt>
      <trkpt lat="38.199426" lon="-2.745673">
        <ele>645.2</ele>
        <time>1989-12-30T23:59:59Z</time>
      </trkpt>
      <trkpt lat="38.199389" lon="-2.745792">
        <ele>646.6</ele>
        <time>1989-12-30T23:59:59Z</time>
      </trkpt>
      <trkpt lat="38.199202" lon="-2.746163">
        <ele>656.2</ele>
        <time>1989-12-30T23:59:59Z</time>
      </trkpt>
      <trkpt lat="38.199146" lon="-2.746392">
        <ele>657.7</ele>
        <time>1989-12-30T23:59:59Z</time>
      </trkpt>
      <trkpt lat="38.199132" lon="-2.746646">
        <ele>661.5</ele>
        <time>1989-12-30T23:59:59Z</time>
      </trkpt>
      <trkpt lat="38.199169" lon="-2.746825">
        <ele>659.1</ele>
        <time>1989-12-30T23:59:59Z</time>
      </trkpt>
      <trkpt lat="38.199203" lon="-2.746957">
        <ele>659.6</ele>
        <time>1989-12-30T23:59:59Z</time>
      </trkpt>
      <trkpt lat="38.199337" lon="-2.747385">
        <ele>658.2</ele>
        <time>1989-12-30T23:59:59Z</time>
      </trkpt>
      <trkpt lat="38.199461" lon="-2.747688">
        <ele>657.7</ele>
        <time>1989-12-30T23:59:59Z</time>
      </trkpt>
      <trkpt lat="38.199493" lon="-2.747930">
        <ele>654.8</ele>
        <time>1989-12-30T23:59:59Z</time>
      </trkpt>
      <trkpt lat="38.199460" lon="-2.748157">
        <ele>652.9</ele>
        <time>1989-12-30T23:59:59Z</time>
      </trkpt>
      <trkpt lat="38.199482" lon="-2.748264">
        <ele>650.0</ele>
        <time>1989-12-30T23:59:59Z</time>
      </trkpt>
      <trkpt lat="38.199429" lon="-2.748386">
        <ele>648.1</ele>
        <time>1989-12-30T23:59:59Z</time>
      </trkpt>
      <trkpt lat="38.199269" lon="-2.748579">
        <ele>648.1</ele>
        <time>1989-12-30T23:59:59Z</time>
      </trkpt>
      <trkpt lat="38.199199" lon="-2.748725">
        <ele>648.1</ele>
        <time>1989-12-30T23:59:59Z</time>
      </trkpt>
      <trkpt lat="38.199058" lon="-2.749965">
        <ele>651.4</ele>
        <time>1989-12-30T23:59:59Z</time>
      </trkpt>
      <trkpt lat="38.199101" lon="-2.750145">
        <ele>616.3</ele>
        <time>1989-12-30T23:59:59Z</time>
      </trkpt>
      <trkpt lat="38.199176" lon="-2.750428">
        <ele>646.6</ele>
        <time>1989-12-30T23:59:59Z</time>
      </trkpt>
      <trkpt lat="38.199361" lon="-2.750595">
        <ele>653.4</ele>
        <time>1989-12-30T23:59:59Z</time>
      </trkpt>
      <trkpt lat="38.199468" lon="-2.750763">
        <ele>654.3</ele>
        <time>1989-12-30T23:59:59Z</time>
      </trkpt>
      <trkpt lat="38.199474" lon="-2.750916">
        <ele>656.2</ele>
        <time>1989-12-30T23:59:59Z</time>
      </trkpt>
      <trkpt lat="38.199444" lon="-2.751042">
        <ele>655.3</ele>
        <time>1989-12-30T23:59:59Z</time>
      </trkpt>
      <trkpt lat="38.199409" lon="-2.751427">
        <ele>657.7</ele>
        <time>1989-12-30T23:59:59Z</time>
      </trkpt>
      <trkpt lat="38.199318" lon="-2.751706">
        <ele>654.8</ele>
        <time>1989-12-30T23:59:59Z</time>
      </trkpt>
      <trkpt lat="38.199260" lon="-2.752149">
        <ele>663.0</ele>
        <time>1989-12-30T23:59:59Z</time>
      </trkpt>
      <trkpt lat="38.199216" lon="-2.752278">
        <ele>657.2</ele>
        <time>1989-12-30T23:59:59Z</time>
      </trkpt>
      <trkpt lat="38.199040" lon="-2.752695">
        <ele>664.4</ele>
        <time>1989-12-30T23:59:59Z</time>
      </trkpt>
      <trkpt lat="38.199013" lon="-2.753017">
        <ele>658.2</ele>
        <time>1989-12-30T23:59:59Z</time>
      </trkpt>
      <trkpt lat="38.198894" lon="-2.753254">
        <ele>663.4</ele>
        <time>1989-12-30T23:59:59Z</time>
      </trkpt>
      <trkpt lat="38.198488" lon="-2.753613">
        <ele>666.3</ele>
        <time>1989-12-30T23:59:59Z</time>
      </trkpt>
      <trkpt lat="38.198371" lon="-2.753403">
        <ele>666.3</ele>
        <time>1989-12-30T23:59:59Z</time>
      </trkpt>
      <trkpt lat="38.198129" lon="-2.753084">
        <ele>666.8</ele>
        <time>1989-12-30T23:59:59Z</time>
      </trkpt>
      <trkpt lat="38.198076" lon="-2.752947">
        <ele>667.3</ele>
        <time>1989-12-30T23:59:59Z</time>
      </trkpt>
      <trkpt lat="38.198008" lon="-2.752831">
        <ele>647.6</ele>
        <time>1989-12-30T23:59:59Z</time>
      </trkpt>
      <trkpt lat="38.197550" lon="-2.752916">
        <ele>651.4</ele>
        <time>1989-12-30T23:59:59Z</time>
      </trkpt>
      <trkpt lat="38.197229" lon="-2.752991">
        <ele>650.9</ele>
        <time>1989-12-30T23:59:59Z</time>
      </trkpt>
      <trkpt lat="38.197118" lon="-2.753045">
        <ele>654.3</ele>
        <time>1989-12-30T23:59:59Z</time>
      </trkpt>
      <trkpt lat="38.197012" lon="-2.753135">
        <ele>666.3</ele>
        <time>1989-12-30T23:59:59Z</time>
      </trkpt>
      <trkpt lat="38.196941" lon="-2.753267">
        <ele>661.5</ele>
        <time>1989-12-30T23:59:59Z</time>
      </trkpt>
      <trkpt lat="38.196720" lon="-2.753834">
        <ele>658.2</ele>
        <time>1989-12-30T23:59:59Z</time>
      </trkpt>
      <trkpt lat="38.196657" lon="-2.753921">
        <ele>657.2</ele>
        <time>1989-12-30T23:59:59Z</time>
      </trkpt>
      <trkpt lat="38.196572" lon="-2.753983">
        <ele>657.2</ele>
        <time>1989-12-30T23:59:59Z</time>
      </trkpt>
      <trkpt lat="38.196417" lon="-2.754173">
        <ele>659.1</ele>
        <time>1989-12-30T23:59:59Z</time>
      </trkpt>
      <trkpt lat="38.196319" lon="-2.754403">
        <ele>659.6</ele>
        <time>1989-12-30T23:59:59Z</time>
      </trkpt>
      <trkpt lat="38.196236" lon="-2.754470">
        <ele>660.1</ele>
        <time>1989-12-30T23:59:59Z</time>
      </trkpt>
      <trkpt lat="38.196192" lon="-2.754558">
        <ele>660.1</ele>
        <time>1989-12-30T23:59:59Z</time>
      </trkpt>
      <trkpt lat="38.196077" lon="-2.754596">
        <ele>662.0</ele>
        <time>1989-12-30T23:59:59Z</time>
      </trkpt>
      <trkpt lat="38.195859" lon="-2.754639">
        <ele>660.1</ele>
        <time>1989-12-30T23:59:59Z</time>
      </trkpt>
      <trkpt lat="38.195593" lon="-2.754775">
        <ele>656.7</ele>
        <time>1989-12-30T23:59:59Z</time>
      </trkpt>
      <trkpt lat="38.195229" lon="-2.754908">
        <ele>658.6</ele>
        <time>1989-12-30T23:59:59Z</time>
      </trkpt>
      <trkpt lat="38.195227" lon="-2.754992">
        <ele>661.5</ele>
        <time>1989-12-30T23:59:59Z</time>
      </trkpt>
      <trkpt lat="38.195152" lon="-2.755268">
        <ele>665.4</ele>
        <time>1989-12-30T23:59:59Z</time>
      </trkpt>
      <trkpt lat="38.195407" lon="-2.755765">
        <ele>663.4</ele>
        <time>1989-12-30T23:59:59Z</time>
      </trkpt>
      <trkpt lat="38.195314" lon="-2.756356">
        <ele>664.9</ele>
        <time>1989-12-30T23:59:59Z</time>
      </trkpt>
      <trkpt lat="38.195245" lon="-2.756676">
        <ele>663.0</ele>
        <time>1989-12-30T23:59:59Z</time>
      </trkpt>
      <trkpt lat="38.195033" lon="-2.756806">
        <ele>654.8</ele>
        <time>1989-12-30T23:59:59Z</time>
      </trkpt>
      <trkpt lat="38.194889" lon="-2.756861">
        <ele>658.6</ele>
        <time>1989-12-30T23:59:59Z</time>
      </trkpt>
      <trkpt lat="38.194767" lon="-2.756938">
        <ele>661.5</ele>
        <time>1989-12-30T23:59:59Z</time>
      </trkpt>
      <trkpt lat="38.194420" lon="-2.757108">
        <ele>663.4</ele>
        <time>1989-12-30T23:59:59Z</time>
      </trkpt>
      <trkpt lat="38.194244" lon="-2.757284">
        <ele>665.9</ele>
        <time>1989-12-30T23:59:59Z</time>
      </trkpt>
      <trkpt lat="38.194056" lon="-2.757527">
        <ele>671.6</ele>
        <time>1989-12-30T23:59:59Z</time>
      </trkpt>
      <trkpt lat="38.193831" lon="-2.757974">
        <ele>670.7</ele>
        <time>1989-12-30T23:59:59Z</time>
      </trkpt>
      <trkpt lat="38.193696" lon="-2.758408">
        <ele>672.1</ele>
        <time>1989-12-30T23:59:59Z</time>
      </trkpt>
      <trkpt lat="38.193618" lon="-2.758504">
        <ele>673.5</ele>
        <time>1989-12-30T23:59:59Z</time>
      </trkpt>
      <trkpt lat="38.193508" lon="-2.758559">
        <ele>674.0</ele>
        <time>1989-12-30T23:59:59Z</time>
      </trkpt>
      <trkpt lat="38.193399" lon="-2.758571">
        <ele>675.9</ele>
        <time>1989-12-30T23:59:59Z</time>
      </trkpt>
      <trkpt lat="38.193048" lon="-2.758693">
        <ele>672.1</ele>
        <time>1989-12-30T23:59:59Z</time>
      </trkpt>
      <trkpt lat="38.192777" lon="-2.758734">
        <ele>672.1</ele>
        <time>1989-12-30T23:59:59Z</time>
      </trkpt>
      <trkpt lat="38.192203" lon="-2.758725">
        <ele>670.7</ele>
        <time>1989-12-30T23:59:59Z</time>
      </trkpt>
      <trkpt lat="38.191974" lon="-2.758698">
        <ele>669.2</ele>
        <time>1989-12-30T23:59:59Z</time>
      </trkpt>
      <trkpt lat="38.191760" lon="-2.758699">
        <ele>669.2</ele>
        <time>1989-12-30T23:59:59Z</time>
      </trkpt>
      <trkpt lat="38.191655" lon="-2.758717">
        <ele>666.8</ele>
        <time>1989-12-30T23:59:59Z</time>
      </trkpt>
      <trkpt lat="38.191394" lon="-2.758921">
        <ele>666.3</ele>
        <time>1989-12-30T23:59:59Z</time>
      </trkpt>
      <trkpt lat="38.191153" lon="-2.759280">
        <ele>665.9</ele>
        <time>1989-12-30T23:59:59Z</time>
      </trkpt>
      <trkpt lat="38.191003" lon="-2.759625">
        <ele>663.4</ele>
        <time>1989-12-30T23:59:59Z</time>
      </trkpt>
      <trkpt lat="38.190957" lon="-2.759864">
        <ele>662.5</ele>
        <time>1989-12-30T23:59:59Z</time>
      </trkpt>
      <trkpt lat="38.190915" lon="-2.759965">
        <ele>662.0</ele>
        <time>1989-12-30T23:59:59Z</time>
      </trkpt>
      <trkpt lat="38.190844" lon="-2.760015">
        <ele>662.5</ele>
        <time>1989-12-30T23:59:59Z</time>
      </trkpt>
      <trkpt lat="38.190739" lon="-2.760042">
        <ele>662.0</ele>
        <time>1989-12-30T23:59:59Z</time>
      </trkpt>
      <trkpt lat="38.190582" lon="-2.760179">
        <ele>661.0</ele>
        <time>1989-12-30T23:59:59Z</time>
      </trkpt>
      <trkpt lat="38.190397" lon="-2.760463">
        <ele>660.6</ele>
        <time>1989-12-30T23:59:59Z</time>
      </trkpt>
      <trkpt lat="38.190242" lon="-2.760637">
        <ele>660.6</ele>
        <time>1989-12-30T23:59:59Z</time>
      </trkpt>
      <trkpt lat="38.190573" lon="-2.761073">
        <ele>658.2</ele>
        <time>1989-12-30T23:59:59Z</time>
      </trkpt>
      <trkpt lat="38.190573" lon="-2.761223">
        <ele>657.2</ele>
        <time>1989-12-30T23:59:59Z</time>
      </trkpt>
      <trkpt lat="38.190400" lon="-2.761531">
        <ele>653.8</ele>
        <time>1989-12-30T23:59:59Z</time>
      </trkpt>
      <trkpt lat="38.190340" lon="-2.761642">
        <ele>655.3</ele>
        <time>1989-12-30T23:59:59Z</time>
      </trkpt>
      <trkpt lat="38.190206" lon="-2.761820">
        <ele>654.3</ele>
        <time>1989-12-30T23:59:59Z</time>
      </trkpt>
      <trkpt lat="38.189907" lon="-2.762112">
        <ele>653.8</ele>
        <time>1989-12-30T23:59:59Z</time>
      </trkpt>
      <trkpt lat="38.189884" lon="-2.762126">
        <ele>659.6</ele>
        <time>1989-12-30T23:59:59Z</time>
      </trkpt>
      <trkpt lat="38.189766" lon="-2.762558">
        <ele>658.2</ele>
        <time>1989-12-30T23:59:59Z</time>
      </trkpt>
      <trkpt lat="38.189891" lon="-2.762809">
        <ele>656.2</ele>
        <time>1989-12-30T23:59:59Z</time>
      </trkpt>
      <trkpt lat="38.189884" lon="-2.762897">
        <ele>656.7</ele>
        <time>1989-12-30T23:59:59Z</time>
      </trkpt>
      <trkpt lat="38.189854" lon="-2.763124">
        <ele>653.8</ele>
        <time>1989-12-30T23:59:59Z</time>
      </trkpt>
      <trkpt lat="38.189818" lon="-2.763227">
        <ele>653.8</ele>
        <time>1989-12-30T23:59:59Z</time>
      </trkpt>
      <trkpt lat="38.189676" lon="-2.763400">
        <ele>653.4</ele>
        <time>1989-12-30T23:59:59Z</time>
      </trkpt>
      <trkpt lat="38.189624" lon="-2.763496">
        <ele>653.4</ele>
        <time>1989-12-30T23:59:59Z</time>
      </trkpt>
      <trkpt lat="38.189469" lon="-2.763966">
        <ele>654.3</ele>
        <time>1989-12-30T23:59:59Z</time>
      </trkpt>
      <trkpt lat="38.189433" lon="-2.764179">
        <ele>657.2</ele>
        <time>1989-12-30T23:59:59Z</time>
      </trkpt>
      <trkpt lat="38.189475" lon="-2.764337">
        <ele>657.2</ele>
        <time>1989-12-30T23:59:59Z</time>
      </trkpt>
      <trkpt lat="38.189462" lon="-2.764456">
        <ele>661.0</ele>
        <time>1989-12-30T23:59:59Z</time>
      </trkpt>
      <trkpt lat="38.189270" lon="-2.764464">
        <ele>659.1</ele>
        <time>1989-12-30T23:59:59Z</time>
      </trkpt>
      <trkpt lat="38.189193" lon="-2.764434">
        <ele>659.1</ele>
        <time>1989-12-30T23:59:59Z</time>
      </trkpt>
      <trkpt lat="38.189023" lon="-2.764481">
        <ele>657.7</ele>
        <time>1989-12-30T23:59:59Z</time>
      </trkpt>
      <trkpt lat="38.188852" lon="-2.764479">
        <ele>655.8</ele>
        <time>1989-12-30T23:59:59Z</time>
      </trkpt>
      <trkpt lat="38.188701" lon="-2.764789">
        <ele>653.8</ele>
        <time>1989-12-30T23:59:59Z</time>
      </trkpt>
      <trkpt lat="38.188631" lon="-2.764877">
        <ele>655.8</ele>
        <time>1989-12-30T23:59:59Z</time>
      </trkpt>
      <trkpt lat="38.188650" lon="-2.765007">
        <ele>656.7</ele>
        <time>1989-12-30T23:59:59Z</time>
      </trkpt>
      <trkpt lat="38.188510" lon="-2.765454">
        <ele>654.8</ele>
        <time>1989-12-30T23:59:59Z</time>
      </trkpt>
      <trkpt lat="38.188136" lon="-2.765798">
        <ele>655.3</ele>
        <time>1989-12-30T23:59:59Z</time>
      </trkpt>
      <trkpt lat="38.187865" lon="-2.765867">
        <ele>697.1</ele>
        <time>1989-12-30T23:59:59Z</time>
      </trkpt>
      <trkpt lat="38.187514" lon="-2.766009">
        <ele>698.5</ele>
        <time>1989-12-30T23:59:59Z</time>
      </trkpt>
      <trkpt lat="38.187090" lon="-2.766399">
        <ele>688.0</ele>
        <time>1989-12-30T23:59:59Z</time>
      </trkpt>
      <trkpt lat="38.186832" lon="-2.766525">
        <ele>684.6</ele>
        <time>1989-12-30T23:59:59Z</time>
      </trkpt>
      <trkpt lat="38.186795" lon="-2.766917">
        <ele>682.2</ele>
        <time>1989-12-30T23:59:59Z</time>
      </trkpt>
      <trkpt lat="38.186755" lon="-2.767122">
        <ele>651.4</ele>
        <time>1989-12-30T23:59:59Z</time>
      </trkpt>
      <trkpt lat="38.186721" lon="-2.767480">
        <ele>674.5</ele>
        <time>1989-12-30T23:59:59Z</time>
      </trkpt>
      <trkpt lat="38.186710" lon="-2.767592">
        <ele>675.5</ele>
        <time>1989-12-30T23:59:59Z</time>
      </trkpt>
      <trkpt lat="38.186784" lon="-2.767755">
        <ele>677.4</ele>
        <time>1989-12-30T23:59:59Z</time>
      </trkpt>
      <trkpt lat="38.187077" lon="-2.767438">
        <ele>681.7</ele>
        <time>1989-12-30T23:59:59Z</time>
      </trkpt>
      <trkpt lat="38.187152" lon="-2.767368">
        <ele>681.2</ele>
        <time>1989-12-30T23:59:59Z</time>
      </trkpt>
      <trkpt lat="38.187430" lon="-2.767268">
        <ele>678.8</ele>
        <time>1989-12-30T23:59:59Z</time>
      </trkpt>
      <trkpt lat="38.187511" lon="-2.767217">
        <ele>678.8</ele>
        <time>1989-12-30T23:59:59Z</time>
      </trkpt>
      <trkpt lat="38.187599" lon="-2.767015">
        <ele>680.8</ele>
        <time>1989-12-30T23:59:59Z</time>
      </trkpt>
      <trkpt lat="38.187646" lon="-2.766775">
        <ele>679.8</ele>
        <time>1989-12-30T23:59:59Z</time>
      </trkpt>
      <trkpt lat="38.187739" lon="-2.766569">
        <ele>681.2</ele>
        <time>1989-12-30T23:59:59Z</time>
      </trkpt>
      <trkpt lat="38.187815" lon="-2.766504">
        <ele>682.7</ele>
        <time>1989-12-30T23:59:59Z</time>
      </trkpt>
      <trkpt lat="38.187910" lon="-2.766530">
        <ele>684.6</ele>
        <time>1989-12-30T23:59:59Z</time>
      </trkpt>
      <trkpt lat="38.188033" lon="-2.766722">
        <ele>686.5</ele>
        <time>1989-12-30T23:59:59Z</time>
      </trkpt>
      <trkpt lat="38.188073" lon="-2.766834">
        <ele>686.0</ele>
        <time>1989-12-30T23:59:59Z</time>
      </trkpt>
      <trkpt lat="38.188056" lon="-2.767181">
        <ele>688.4</ele>
        <time>1989-12-30T23:59:59Z</time>
      </trkpt>
      <trkpt lat="38.187947" lon="-2.767377">
        <ele>692.3</ele>
        <time>1989-12-30T23:59:59Z</time>
      </trkpt>
      <trkpt lat="38.187817" lon="-2.767513">
        <ele>695.2</ele>
        <time>1989-12-30T23:59:59Z</time>
      </trkpt>
      <trkpt lat="38.187537" lon="-2.767704">
        <ele>701.9</ele>
        <time>1989-12-30T23:59:59Z</time>
      </trkpt>
      <trkpt lat="38.187339" lon="-2.767834">
        <ele>702.9</ele>
        <time>1989-12-30T23:59:59Z</time>
      </trkpt>
      <trkpt lat="38.187181" lon="-2.767997">
        <ele>702.9</ele>
        <time>1989-12-30T23:59:59Z</time>
      </trkpt>
      <trkpt lat="38.187047" lon="-2.768202">
        <ele>702.4</ele>
        <time>1989-12-30T23:59:59Z</time>
      </trkpt>
      <trkpt lat="38.186962" lon="-2.768562">
        <ele>702.4</ele>
        <time>1989-12-30T23:59:59Z</time>
      </trkpt>
      <trkpt lat="38.186968" lon="-2.768919">
        <ele>700.9</ele>
        <time>1989-12-30T23:59:59Z</time>
      </trkpt>
      <trkpt lat="38.186951" lon="-2.769031">
        <ele>701.4</ele>
        <time>1989-12-30T23:59:59Z</time>
      </trkpt>
      <trkpt lat="38.187043" lon="-2.768983">
        <ele>703.3</ele>
        <time>1989-12-30T23:59:59Z</time>
      </trkpt>
      <trkpt lat="38.187165" lon="-2.768677">
        <ele>711.5</ele>
        <time>1989-12-30T23:59:59Z</time>
      </trkpt>
      <trkpt lat="38.187214" lon="-2.768493">
        <ele>711.5</ele>
        <time>1989-12-30T23:59:59Z</time>
      </trkpt>
      <trkpt lat="38.187287" lon="-2.768332">
        <ele>708.1</ele>
        <time>1989-12-30T23:59:59Z</time>
      </trkpt>
      <trkpt lat="38.187428" lon="-2.768110">
        <ele>704.8</ele>
        <time>1989-12-30T23:59:59Z</time>
      </trkpt>
      <trkpt lat="38.187382" lon="-2.768227">
        <ele>709.1</ele>
        <time>1989-12-30T23:59:59Z</time>
      </trkpt>
      <trkpt lat="38.187332" lon="-2.768606">
        <ele>716.8</ele>
        <time>1989-12-30T23:59:59Z</time>
      </trkpt>
      <trkpt lat="38.187316" lon="-2.768718">
        <ele>717.8</ele>
        <time>1989-12-30T23:59:59Z</time>
      </trkpt>
      <trkpt lat="38.187307" lon="-2.768972">
        <ele>720.6</ele>
        <time>1989-12-30T23:59:59Z</time>
      </trkpt>
      <trkpt lat="38.187335" lon="-2.769097">
        <ele>721.6</ele>
        <time>1989-12-30T23:59:59Z</time>
      </trkpt>
      <trkpt lat="38.187376" lon="-2.769190">
        <ele>721.1</ele>
        <time>1989-12-30T23:59:59Z</time>
      </trkpt>
      <trkpt lat="38.187452" lon="-2.769268">
        <ele>721.6</ele>
        <time>1989-12-30T23:59:59Z</time>
      </trkpt>
      <trkpt lat="38.187467" lon="-2.769266">
        <ele>725.0</ele>
        <time>1989-12-30T23:59:59Z</time>
      </trkpt>
      <trkpt lat="38.187466" lon="-2.769467">
        <ele>718.7</ele>
        <time>1989-12-30T23:59:59Z</time>
      </trkpt>
      <trkpt lat="38.187318" lon="-2.769666">
        <ele>724.5</ele>
        <time>1989-12-30T23:59:59Z</time>
      </trkpt>
      <trkpt lat="38.187259" lon="-2.769902">
        <ele>723.5</ele>
        <time>1989-12-30T23:59:59Z</time>
      </trkpt>
      <trkpt lat="38.187340" lon="-2.769900">
        <ele>722.6</ele>
        <time>1989-12-30T23:59:59Z</time>
      </trkpt>
      <trkpt lat="38.187525" lon="-2.769762">
        <ele>723.5</ele>
        <time>1989-12-30T23:59:59Z</time>
      </trkpt>
      <trkpt lat="38.187611" lon="-2.769737">
        <ele>724.0</ele>
        <time>1989-12-30T23:59:59Z</time>
      </trkpt>
      <trkpt lat="38.187716" lon="-2.769730">
        <ele>725.0</ele>
        <time>1989-12-30T23:59:59Z</time>
      </trkpt>
      <trkpt lat="38.187762" lon="-2.769834">
        <ele>725.0</ele>
        <time>1989-12-30T23:59:59Z</time>
      </trkpt>
      <trkpt lat="38.187439" lon="-2.770363">
        <ele>726.4</ele>
        <time>1989-12-30T23:59:59Z</time>
      </trkpt>
      <trkpt lat="38.187351" lon="-2.770496">
        <ele>728.3</ele>
        <time>1989-12-30T23:59:59Z</time>
      </trkpt>
      <trkpt lat="38.186834" lon="-2.771164">
        <ele>728.8</ele>
        <time>1989-12-30T23:59:59Z</time>
      </trkpt>
      <trkpt lat="38.186658" lon="-2.771316">
        <ele>744.7</ele>
      </trkpt>
      <trkpt lat="38.186609" lon="-2.771437">
        <ele>747.1</ele>
      </trkpt>
      <trkpt lat="38.186545" lon="-2.771683">
        <ele>762.0</ele>
      </trkpt>
      <trkpt lat="38.183110" lon="-2.774825">
        <ele>755.7</ele>
        <time>1989-12-30T23:59:59Z</time>
      </trkpt>
      <trkpt lat="38.183206" lon="-2.774883">
        <ele>763.9</ele>
        <time>1989-12-30T23:59:59Z</time>
      </trkpt>
      <trkpt lat="38.183211" lon="-2.774881">
        <ele>760.1</ele>
        <time>1989-12-30T23:59:59Z</time>
      </trkpt>
      <trkpt lat="38.183230" lon="-2.774907">
        <ele>759.1</ele>
        <time>1989-12-30T23:59:59Z</time>
      </trkpt>
      <trkpt lat="38.183621" lon="-2.775423">
        <ele>758.1</ele>
        <time>1989-12-30T23:59:59Z</time>
      </trkpt>
      <trkpt lat="38.183895" lon="-2.775930">
        <ele>760.5</ele>
        <time>1989-12-30T23:59:59Z</time>
      </trkpt>
      <trkpt lat="38.184074" lon="-2.776522">
        <ele>761.5</ele>
        <time>1989-12-30T23:59:59Z</time>
      </trkpt>
      <trkpt lat="38.184001" lon="-2.776867">
        <ele>766.3</ele>
        <time>1989-12-30T23:59:59Z</time>
      </trkpt>
      <trkpt lat="38.184078" lon="-2.777007">
        <ele>769.2</ele>
        <time>1989-12-30T23:59:59Z</time>
      </trkpt>
      <trkpt lat="38.184448" lon="-2.777389">
        <ele>773.0</ele>
        <time>1989-12-30T23:59:59Z</time>
      </trkpt>
      <trkpt lat="38.184594" lon="-2.777468">
        <ele>776.4</ele>
        <time>1989-12-30T23:59:59Z</time>
      </trkpt>
      <trkpt lat="38.184706" lon="-2.777368">
        <ele>777.8</ele>
        <time>1989-12-30T23:59:59Z</time>
      </trkpt>
      <trkpt lat="38.184784" lon="-2.777214">
        <ele>779.8</ele>
        <time>1989-12-30T23:59:59Z</time>
      </trkpt>
      <trkpt lat="38.184991" lon="-2.776466">
        <ele>781.2</ele>
        <time>1989-12-30T23:59:59Z</time>
      </trkpt>
      <trkpt lat="38.185174" lon="-2.776418">
        <ele>781.7</ele>
        <time>1989-12-30T23:59:59Z</time>
      </trkpt>
      <trkpt lat="38.185317" lon="-2.776549">
        <ele>784.1</ele>
        <time>1989-12-30T23:59:59Z</time>
      </trkpt>
      <trkpt lat="38.185563" lon="-2.776892">
        <ele>787.0</ele>
        <time>1989-12-30T23:59:59Z</time>
      </trkpt>
      <trkpt lat="38.185693" lon="-2.776989">
        <ele>790.8</ele>
        <time>1989-12-30T23:59:59Z</time>
      </trkpt>
      <trkpt lat="38.185860" lon="-2.776678">
        <ele>790.3</ele>
        <time>1989-12-30T23:59:59Z</time>
      </trkpt>
      <trkpt lat="38.185911" lon="-2.776268">
        <ele>791.8</ele>
        <time>1989-12-30T23:59:59Z</time>
      </trkpt>
      <trkpt lat="38.186428" lon="-2.776037">
        <ele>792.3</ele>
        <time>1989-12-30T23:59:59Z</time>
      </trkpt>
      <trkpt lat="38.186571" lon="-2.775853">
        <ele>796.6</ele>
        <time>1989-12-30T23:59:59Z</time>
      </trkpt>
      <trkpt lat="38.186642" lon="-2.775839">
        <ele>799.0</ele>
        <time>1989-12-30T23:59:59Z</time>
      </trkpt>
      <trkpt lat="38.186681" lon="-2.775858">
        <ele>806.2</ele>
        <time>1989-12-30T23:59:59Z</time>
      </trkpt>
      <trkpt lat="38.186759" lon="-2.775910">
        <ele>808.1</ele>
        <time>1989-12-30T23:59:59Z</time>
      </trkpt>
      <trkpt lat="38.186742" lon="-2.775914">
        <ele>809.6</ele>
        <time>1989-12-30T23:59:59Z</time>
      </trkpt>
      <trkpt lat="38.186760" lon="-2.775990">
        <ele>809.1</ele>
        <time>1989-12-30T23:59:59Z</time>
      </trkpt>
      <trkpt lat="38.186745" lon="-2.776237">
        <ele>810.0</ele>
        <time>1989-12-30T23:59:59Z</time>
      </trkpt>
      <trkpt lat="38.186694" lon="-2.776407">
        <ele>810.0</ele>
        <time>1989-12-30T23:59:59Z</time>
      </trkpt>
      <trkpt lat="38.186510" lon="-2.776760">
        <ele>811.5</ele>
        <time>1989-12-30T23:59:59Z</time>
      </trkpt>
      <trkpt lat="38.186267" lon="-2.777135">
        <ele>814.9</ele>
        <time>1989-12-30T23:59:59Z</time>
      </trkpt>
      <trkpt lat="38.186159" lon="-2.777380">
        <ele>817.7</ele>
        <time>1989-12-30T23:59:59Z</time>
      </trkpt>
      <trkpt lat="38.185991" lon="-2.777954">
        <ele>820.6</ele>
        <time>1989-12-30T23:59:59Z</time>
      </trkpt>
      <trkpt lat="38.185847" lon="-2.778193">
        <ele>823.0</ele>
        <time>1989-12-30T23:59:59Z</time>
      </trkpt>
      <trkpt lat="38.185691" lon="-2.778356">
        <ele>824.5</ele>
        <time>1989-12-30T23:59:59Z</time>
      </trkpt>
      <trkpt lat="38.185118" lon="-2.778707">
        <ele>828.3</ele>
        <time>1989-12-30T23:59:59Z</time>
      </trkpt>
      <trkpt lat="38.185071" lon="-2.778943">
        <ele>828.8</ele>
        <time>1989-12-30T23:59:59Z</time>
      </trkpt>
      <trkpt lat="38.185118" lon="-2.779684">
        <ele>830.7</ele>
        <time>1989-12-30T23:59:59Z</time>
      </trkpt>
      <trkpt lat="38.184703" lon="-2.779458">
        <ele>833.6</ele>
        <time>1989-12-30T23:59:59Z</time>
      </trkpt>
      <trkpt lat="38.184493" lon="-2.779473">
        <ele>834.6</ele>
        <time>1989-12-30T23:59:59Z</time>
      </trkpt>
      <trkpt lat="38.184136" lon="-2.779890">
        <ele>835.0</ele>
        <time>1989-12-30T23:59:59Z</time>
      </trkpt>
      <trkpt lat="38.183934" lon="-2.780036">
        <ele>836.0</ele>
        <time>1989-12-30T23:59:59Z</time>
      </trkpt>
      <trkpt lat="38.183813" lon="-2.780214">
        <ele>836.5</ele>
        <time>1989-12-30T23:59:59Z</time>
      </trkpt>
      <trkpt lat="38.183830" lon="-2.780435">
        <ele>837.0</ele>
        <time>1989-12-30T23:59:59Z</time>
      </trkpt>
      <trkpt lat="38.183918" lon="-2.780840">
        <ele>838.9</ele>
        <time>1989-12-30T23:59:59Z</time>
      </trkpt>
      <trkpt lat="38.183924" lon="-2.781070">
        <ele>839.8</ele>
        <time>1989-12-30T23:59:59Z</time>
      </trkpt>
      <trkpt lat="38.184011" lon="-2.781834">
        <ele>844.2</ele>
        <time>1989-12-30T23:59:59Z</time>
      </trkpt>
      <trkpt lat="38.183997" lon="-2.781813">
        <ele>856.7</ele>
        <time>1989-12-30T23:59:59Z</time>
      </trkpt>
      <trkpt lat="38.183991" lon="-2.781811">
        <ele>854.3</ele>
        <time>1989-12-30T23:59:59Z</time>
      </trkpt>
      <trkpt lat="38.184014" lon="-2.781881">
        <ele>855.2</ele>
        <time>1989-12-30T23:59:59Z</time>
      </trkpt>
      <trkpt lat="38.184005" lon="-2.781894">
        <ele>863.9</ele>
        <time>1989-12-30T23:59:59Z</time>
      </trkpt>
      <trkpt lat="38.184004" lon="-2.781894">
        <ele>862.4</ele>
        <time>1989-12-30T23:59:59Z</time>
      </trkpt>
      <trkpt lat="38.184005" lon="-2.781920">
        <ele>861.5</ele>
        <time>1989-12-30T23:59:59Z</time>
      </trkpt>
      <trkpt lat="38.184029" lon="-2.781922">
        <ele>856.2</ele>
        <time>1989-12-30T23:59:59Z</time>
      </trkpt>
      <trkpt lat="38.184051" lon="-2.781973">
        <ele>855.2</ele>
        <time>1989-12-30T23:59:59Z</time>
      </trkpt>
      <trkpt lat="38.184056" lon="-2.781969">
        <ele>853.8</ele>
        <time>1989-12-30T23:59:59Z</time>
      </trkpt>
      <trkpt lat="38.184054" lon="-2.781969">
        <ele>857.6</ele>
        <time>1989-12-30T23:59:59Z</time>
      </trkpt>
      <trkpt lat="38.184036" lon="-2.781994">
        <ele>855.7</ele>
        <time>1989-12-30T23:59:59Z</time>
      </trkpt>
      <trkpt lat="38.184107" lon="-2.782368">
        <ele>855.7</ele>
        <time>1989-12-30T23:59:59Z</time>
      </trkpt>
      <trkpt lat="38.184242" lon="-2.782958">
        <ele>857.6</ele>
        <time>1989-12-30T23:59:59Z</time>
      </trkpt>
      <trkpt lat="38.184263" lon="-2.783160">
        <ele>859.1</ele>
        <time>1989-12-30T23:59:59Z</time>
      </trkpt>
      <trkpt lat="38.184248" lon="-2.783378">
        <ele>860.5</ele>
        <time>1989-12-30T23:59:59Z</time>
      </trkpt>
      <trkpt lat="38.184187" lon="-2.783579">
        <ele>862.9</ele>
        <time>1989-12-30T23:59:59Z</time>
      </trkpt>
      <trkpt lat="38.183939" lon="-2.783924">
        <ele>866.3</ele>
        <time>1989-12-30T23:59:59Z</time>
      </trkpt>
      <trkpt lat="38.183831" lon="-2.784126">
        <ele>866.8</ele>
        <time>1989-12-30T23:59:59Z</time>
      </trkpt>
      <trkpt lat="38.183709" lon="-2.784616">
        <ele>867.2</ele>
        <time>1989-12-30T23:59:59Z</time>
      </trkpt>
      <trkpt lat="38.183144" lon="-2.785652">
        <ele>868.7</ele>
        <time>1989-12-30T23:59:59Z</time>
      </trkpt>
      <trkpt lat="38.183071" lon="-2.785892">
        <ele>868.2</ele>
        <time>1989-12-30T23:59:59Z</time>
      </trkpt>
      <trkpt lat="38.183015" lon="-2.786168">
        <ele>867.7</ele>
        <time>1989-12-30T23:59:59Z</time>
      </trkpt>
      <trkpt lat="38.182930" lon="-2.786426">
        <ele>868.7</ele>
        <time>1989-12-30T23:59:59Z</time>
      </trkpt>
      <trkpt lat="38.182749" lon="-2.786500">
        <ele>872.1</ele>
        <time>1989-12-30T23:59:59Z</time>
      </trkpt>
      <trkpt lat="38.182530" lon="-2.786648">
        <ele>874.9</ele>
        <time>1989-12-30T23:59:59Z</time>
      </trkpt>
      <trkpt lat="38.182129" lon="-2.786813">
        <ele>879.7</ele>
        <time>1989-12-30T23:59:59Z</time>
      </trkpt>
      <trkpt lat="38.181768" lon="-2.786945">
        <ele>883.1</ele>
        <time>1989-12-30T23:59:59Z</time>
      </trkpt>
      <trkpt lat="38.181315" lon="-2.787044">
        <ele>889.4</ele>
        <time>1989-12-30T23:59:59Z</time>
      </trkpt>
      <trkpt lat="38.180966" lon="-2.787127">
        <ele>894.2</ele>
        <time>1989-12-30T23:59:59Z</time>
      </trkpt>
      <trkpt lat="38.180699" lon="-2.787322">
        <ele>900.4</ele>
        <time>1989-12-30T23:59:59Z</time>
      </trkpt>
      <trkpt lat="38.180695" lon="-2.787313">
        <ele>897.5</ele>
        <time>1989-12-30T23:59:59Z</time>
      </trkpt>
      <trkpt lat="38.180673" lon="-2.787306">
        <ele>908.6</ele>
        <time>1989-12-30T23:59:59Z</time>
      </trkpt>
      <trkpt lat="38.180618" lon="-2.787357">
        <ele>908.1</ele>
        <time>1989-12-30T23:59:59Z</time>
      </trkpt>
      <trkpt lat="38.180663" lon="-2.787452">
        <ele>908.1</ele>
        <time>1989-12-30T23:59:59Z</time>
      </trkpt>
      <trkpt lat="38.180705" lon="-2.787512">
        <ele>918.2</ele>
        <time>1989-12-30T23:59:59Z</time>
      </trkpt>
      <trkpt lat="38.180719" lon="-2.787616">
        <ele>918.2</ele>
        <time>1989-12-30T23:59:59Z</time>
      </trkpt>
      <trkpt lat="38.180608" lon="-2.788569">
        <ele>918.7</ele>
        <time>1989-12-30T23:59:59Z</time>
      </trkpt>
      <trkpt lat="38.180731" lon="-2.789244">
        <ele>918.7</ele>
        <time>1989-12-30T23:59:59Z</time>
      </trkpt>
      <trkpt lat="38.180909" lon="-2.789715">
        <ele>920.1</ele>
        <time>1989-12-30T23:59:59Z</time>
      </trkpt>
      <trkpt lat="38.181333" lon="-2.790074">
        <ele>920.6</ele>
        <time>1989-12-30T23:59:59Z</time>
      </trkpt>
      <trkpt lat="38.181504" lon="-2.790203">
        <ele>924.9</ele>
        <time>1989-12-30T23:59:59Z</time>
      </trkpt>
      <trkpt lat="38.181708" lon="-2.790341">
        <ele>939.8</ele>
        <time>1989-12-30T23:59:59Z</time>
      </trkpt>
      <trkpt lat="38.181718" lon="-2.790336">
        <ele>930.7</ele>
        <time>1989-12-30T23:59:59Z</time>
      </trkpt>
      <trkpt lat="38.182018" lon="-2.790360">
        <ele>932.1</ele>
        <time>1989-12-30T23:59:59Z</time>
      </trkpt>
      <trkpt lat="38.182196" lon="-2.790398">
        <ele>932.6</ele>
        <time>1989-12-30T23:59:59Z</time>
      </trkpt>
      <trkpt lat="38.182912" lon="-2.790672">
        <ele>935.0</ele>
        <time>1989-12-30T23:59:59Z</time>
      </trkpt>
      <trkpt lat="38.183506" lon="-2.790677">
        <ele>935.5</ele>
        <time>1989-12-30T23:59:59Z</time>
      </trkpt>
      <trkpt lat="38.183988" lon="-2.790765">
        <ele>936.9</ele>
        <time>1989-12-30T23:59:59Z</time>
      </trkpt>
      <trkpt lat="38.184765" lon="-2.791134">
        <ele>954.2</ele>
        <time>1989-12-30T23:59:59Z</time>
      </trkpt>
      <trkpt lat="38.185292" lon="-2.791194">
        <ele>956.6</ele>
        <time>1989-12-30T23:59:59Z</time>
      </trkpt>
      <trkpt lat="38.185977" lon="-2.791061">
        <ele>958.6</ele>
        <time>1989-12-30T23:59:59Z</time>
      </trkpt>
      <trkpt lat="38.186482" lon="-2.791272">
        <ele>958.6</ele>
        <time>1989-12-30T23:59:59Z</time>
      </trkpt>
      <trkpt lat="38.187141" lon="-2.791254">
        <ele>961.5</ele>
        <time>1989-12-30T23:59:59Z</time>
      </trkpt>
      <trkpt lat="38.187103" lon="-2.791533">
        <ele>963.4</ele>
        <time>1989-12-30T23:59:59Z</time>
      </trkpt>
      <trkpt lat="38.186883" lon="-2.791681">
        <ele>966.7</ele>
        <time>1989-12-30T23:59:59Z</time>
      </trkpt>
      <trkpt lat="38.186560" lon="-2.791928">
        <ele>969.1</ele>
        <time>1989-12-30T23:59:59Z</time>
      </trkpt>
      <trkpt lat="38.186579" lon="-2.792136">
        <ele>1002.8</ele>
        <time>1989-12-30T23:59:59Z</time>
      </trkpt>
      <trkpt lat="38.186607" lon="-2.792139">
        <ele>984.5</ele>
        <time>1989-12-30T23:59:59Z</time>
      </trkpt>
      <trkpt lat="38.186897" lon="-2.792058">
        <ele>984.0</ele>
        <time>1989-12-30T23:59:59Z</time>
      </trkpt>
      <trkpt lat="38.187194" lon="-2.791959">
        <ele>984.0</ele>
        <time>1989-12-30T23:59:59Z</time>
      </trkpt>
      <trkpt lat="38.187634" lon="-2.791843">
        <ele>989.3</ele>
        <time>1989-12-30T23:59:59Z</time>
      </trkpt>
      <trkpt lat="38.187814" lon="-2.791466">
        <ele>1004.7</ele>
        <time>1989-12-30T23:59:59Z</time>
      </trkpt>
      <trkpt lat="38.187891" lon="-2.791089">
        <ele>1002.8</ele>
        <time>1989-12-30T23:59:59Z</time>
      </trkpt>
      <trkpt lat="38.188214" lon="-2.790580">
        <ele>1003.3</ele>
        <time>1989-12-30T23:59:59Z</time>
      </trkpt>
      <trkpt lat="38.188562" lon="-2.790153">
        <ele>1003.3</ele>
        <time>1989-12-30T23:59:59Z</time>
      </trkpt>
      <trkpt lat="38.188963" lon="-2.790037">
        <ele>1007.6</ele>
        <time>1989-12-30T23:59:59Z</time>
      </trkpt>
      <trkpt lat="38.189105" lon="-2.790299">
        <ele>1007.6</ele>
        <time>1989-12-30T23:59:59Z</time>
      </trkpt>
      <trkpt lat="38.188706" lon="-2.790988">
        <ele>1011.9</ele>
        <time>1989-12-30T23:59:59Z</time>
      </trkpt>
      <trkpt lat="38.188526" lon="-2.791791">
        <ele>1012.9</ele>
        <time>1989-12-30T23:59:59Z</time>
      </trkpt>
      <trkpt lat="38.188359" lon="-2.792283">
        <ele>1021.5</ele>
        <time>1989-12-30T23:59:59Z</time>
      </trkpt>
      <trkpt lat="38.188069" lon="-2.792682">
        <ele>1029.7</ele>
        <time>1989-12-30T23:59:59Z</time>
      </trkpt>
      <trkpt lat="38.187854" lon="-2.793291">
        <ele>1036.4</ele>
        <time>1989-12-30T23:59:59Z</time>
      </trkpt>
      <trkpt lat="38.187661" lon="-2.793671">
        <ele>1041.7</ele>
        <time>1989-12-30T23:59:59Z</time>
      </trkpt>
      <trkpt lat="38.187638" lon="-2.793848">
        <ele>1043.6</ele>
        <time>1989-12-30T23:59:59Z</time>
      </trkpt>
      <trkpt lat="38.187697" lon="-2.793995">
        <ele>1045.1</ele>
        <time>1989-12-30T23:59:59Z</time>
      </trkpt>
      <trkpt lat="38.187764" lon="-2.794072">
        <ele>1047.0</ele>
        <time>1989-12-30T23:59:59Z</time>
      </trkpt>
      <trkpt lat="38.187796" lon="-2.794065">
        <ele>1057.6</ele>
        <time>1989-12-30T23:59:59Z</time>
      </trkpt>
      <trkpt lat="38.187920" lon="-2.794152">
        <ele>1055.7</ele>
        <time>1989-12-30T23:59:59Z</time>
      </trkpt>
      <trkpt lat="38.188412" lon="-2.794538">
        <ele>1055.7</ele>
        <time>1989-12-30T23:59:59Z</time>
      </trkpt>
      <trkpt lat="38.188593" lon="-2.794638">
        <ele>1056.1</ele>
        <time>1989-12-30T23:59:59Z</time>
      </trkpt>
      <trkpt lat="38.188810" lon="-2.794689">
        <ele>1056.1</ele>
        <time>1989-12-30T23:59:59Z</time>
      </trkpt>
      <trkpt lat="38.188991" lon="-2.794686">
        <ele>1056.1</ele>
        <time>1989-12-30T23:59:59Z</time>
      </trkpt>
      <trkpt lat="38.189502" lon="-2.794572">
        <ele>1058.5</ele>
        <time>1989-12-30T23:59:59Z</time>
      </trkpt>
      <trkpt lat="38.190147" lon="-2.794308">
        <ele>1059.0</ele>
        <time>1989-12-30T23:59:59Z</time>
      </trkpt>
      <trkpt lat="38.190311" lon="-2.794268">
        <ele>1059.0</ele>
        <time>1989-12-30T23:59:59Z</time>
      </trkpt>
      <trkpt lat="38.190610" lon="-2.794257">
        <ele>1060.5</ele>
        <time>1989-12-30T23:59:59Z</time>
      </trkpt>
      <trkpt lat="38.191109" lon="-2.794349">
        <ele>1064.3</ele>
        <time>1989-12-30T23:59:59Z</time>
      </trkpt>
      <trkpt lat="38.191274" lon="-2.794440">
        <ele>1067.7</ele>
        <time>1989-12-30T23:59:59Z</time>
      </trkpt>
      <trkpt lat="38.191401" lon="-2.794492">
        <ele>1069.1</ele>
        <time>1989-12-30T23:59:59Z</time>
      </trkpt>
      <trkpt lat="38.191974" lon="-2.794860">
        <ele>1079.7</ele>
        <time>1989-12-30T23:59:59Z</time>
      </trkpt>
      <trkpt lat="38.192146" lon="-2.794948">
        <ele>1086.9</ele>
        <time>1989-12-30T23:59:59Z</time>
      </trkpt>
      <trkpt lat="38.192199" lon="-2.794972">
        <ele>1093.2</ele>
        <time>1989-12-30T23:59:59Z</time>
      </trkpt>
      <trkpt lat="38.192286" lon="-2.794945">
        <ele>1096.0</ele>
        <time>1989-12-30T23:59:59Z</time>
      </trkpt>
      <trkpt lat="38.192475" lon="-2.794778">
        <ele>1100.4</ele>
        <time>1989-12-30T23:59:59Z</time>
      </trkpt>
      <trkpt lat="38.192539" lon="-2.794614">
        <ele>1113.3</ele>
        <time>1989-12-30T23:59:59Z</time>
      </trkpt>
      <trkpt lat="38.192797" lon="-2.794450">
        <ele>1111.4</ele>
        <time>1989-12-30T23:59:59Z</time>
      </trkpt>
      <trkpt lat="38.192810" lon="-2.794270">
        <ele>1113.3</ele>
        <time>1989-12-30T23:59:59Z</time>
      </trkpt>
      <trkpt lat="38.192569" lon="-2.794373">
        <ele>1134.0</ele>
        <time>1989-12-30T23:59:59Z</time>
      </trkpt>
      <trkpt lat="38.192534" lon="-2.794393">
        <ele>1133.1</ele>
        <time>1989-12-30T23:59:59Z</time>
      </trkpt>
      <trkpt lat="38.192283" lon="-2.794516">
        <ele>1127.8</ele>
        <time>1989-12-30T23:59:59Z</time>
      </trkpt>
      <trkpt lat="38.192151" lon="-2.794337">
        <ele>1126.8</ele>
        <time>1989-12-30T23:59:59Z</time>
      </trkpt>
      <trkpt lat="38.192125" lon="-2.794107">
        <ele>1127.8</ele>
        <time>1989-12-30T23:59:59Z</time>
      </trkpt>
      <trkpt lat="38.192654" lon="-2.793811">
        <ele>1129.2</ele>
        <time>1989-12-30T23:59:59Z</time>
      </trkpt>
      <trkpt lat="38.192977" lon="-2.793548">
        <ele>1129.7</ele>
        <time>1989-12-30T23:59:59Z</time>
      </trkpt>
      <trkpt lat="38.193503" lon="-2.793308">
        <ele>1129.7</ele>
        <time>1989-12-30T23:59:59Z</time>
      </trkpt>
      <trkpt lat="38.194360" lon="-2.792802">
        <ele>1133.5</ele>
        <time>1989-12-30T23:59:59Z</time>
      </trkpt>
      <trkpt lat="38.194897" lon="-2.792641">
        <ele>1140.7</ele>
        <time>1989-12-30T23:59:59Z</time>
      </trkpt>
      <trkpt lat="38.194902" lon="-2.792646">
        <ele>1159.5</ele>
        <time>1989-12-30T23:59:59Z</time>
      </trkpt>
      <trkpt lat="38.194891" lon="-2.792667">
        <ele>1161.4</ele>
        <time>1989-12-30T23:59:59Z</time>
      </trkpt>
      <trkpt lat="38.194891" lon="-2.792661">
        <ele>1164.3</ele>
        <time>1989-12-30T23:59:59Z</time>
      </trkpt>
      <trkpt lat="38.194895" lon="-2.792670">
        <ele>1159.5</ele>
        <time>1989-12-30T23:59:59Z</time>
      </trkpt>
      <trkpt lat="38.194902" lon="-2.792677">
        <ele>1162.9</ele>
        <time>1989-12-30T23:59:59Z</time>
      </trkpt>
      <trkpt lat="38.195074" lon="-2.792687">
        <ele>1160.0</ele>
        <time>1989-12-30T23:59:59Z</time>
      </trkpt>
      <trkpt lat="38.195778" lon="-2.792585">
        <ele>1160.9</ele>
        <time>1989-12-30T23:59:59Z</time>
      </trkpt>
      <trkpt lat="38.195997" lon="-2.792488">
        <ele>1160.4</ele>
        <time>1989-12-30T23:59:59Z</time>
      </trkpt>
      <trkpt lat="38.196441" lon="-2.792342">
        <ele>1159.0</ele>
        <time>1989-12-30T23:59:59Z</time>
      </trkpt>
      <trkpt lat="38.196699" lon="-2.792079">
        <ele>1160.4</ele>
        <time>1989-12-30T23:59:59Z</time>
      </trkpt>
      <trkpt lat="38.197133" lon="-2.792194">
        <ele>1160.9</ele>
        <time>1989-12-30T23:59:59Z</time>
      </trkpt>
      <trkpt lat="38.197237" lon="-2.791951">
        <ele>1159.5</ele>
        <time>1989-12-30T23:59:59Z</time>
      </trkpt>
      <trkpt lat="38.197279" lon="-2.791690">
        <ele>1159.5</ele>
        <time>1989-12-30T23:59:59Z</time>
      </trkpt>
      <trkpt lat="38.197373" lon="-2.791457">
        <ele>1162.4</ele>
        <time>1989-12-30T23:59:59Z</time>
      </trkpt>
      <trkpt lat="38.197530" lon="-2.791282">
        <ele>1163.8</ele>
        <time>1989-12-30T23:59:59Z</time>
      </trkpt>
      <trkpt lat="38.197704" lon="-2.791128">
        <ele>1163.3</ele>
        <time>1989-12-30T23:59:59Z</time>
      </trkpt>
      <trkpt lat="38.198069" lon="-2.790994">
        <ele>1164.3</ele>
        <time>1989-12-30T23:59:59Z</time>
      </trkpt>
      <trkpt lat="38.198378" lon="-2.791173">
        <ele>1165.3</ele>
        <time>1989-12-30T23:59:59Z</time>
      </trkpt>
      <trkpt lat="38.198623" lon="-2.791173">
        <ele>1165.7</ele>
        <time>1989-12-30T23:59:59Z</time>
      </trkpt>
      <trkpt lat="38.198877" lon="-2.791019">
        <ele>1178.7</ele>
        <time>1989-12-30T23:59:59Z</time>
      </trkpt>
      <trkpt lat="38.199076" lon="-2.790975">
        <ele>1176.3</ele>
        <time>1989-12-30T23:59:59Z</time>
      </trkpt>
      <trkpt lat="38.199158" lon="-2.791183">
        <ele>1177.3</ele>
        <time>1989-12-30T23:59:59Z</time>
      </trkpt>
      <trkpt lat="38.199181" lon="-2.791277">
        <ele>1182.1</ele>
        <time>1989-12-30T23:59:59Z</time>
      </trkpt>
      <trkpt lat="38.199065" lon="-2.791504">
        <ele>1180.6</ele>
        <time>1989-12-30T23:59:59Z</time>
      </trkpt>
      <trkpt lat="38.199032" lon="-2.791538">
        <ele>1183.5</ele>
        <time>1989-12-30T23:59:59Z</time>
      </trkpt>
      <trkpt lat="38.199025" lon="-2.791540">
        <ele>1191.2</ele>
        <time>1989-12-30T23:59:59Z</time>
      </trkpt>
      <trkpt lat="38.199018" lon="-2.791548">
        <ele>1195.5</ele>
        <time>1989-12-30T23:59:59Z</time>
      </trkpt>
      <trkpt lat="38.199011" lon="-2.791560">
        <ele>1193.1</ele>
        <time>1989-12-30T23:59:59Z</time>
      </trkpt>
      <trkpt lat="38.199004" lon="-2.791568">
        <ele>1199.9</ele>
        <time>1989-12-30T23:59:59Z</time>
      </trkpt>
      <trkpt lat="38.198999" lon="-2.791581">
        <ele>1186.9</ele>
        <time>1989-12-30T23:59:59Z</time>
      </trkpt>
      <trkpt lat="38.198994" lon="-2.791575">
        <ele>1193.1</ele>
        <time>1989-12-30T23:59:59Z</time>
      </trkpt>
      <trkpt lat="38.198993" lon="-2.791573">
        <ele>1188.3</ele>
        <time>1989-12-30T23:59:59Z</time>
      </trkpt>
      <trkpt lat="38.198953" lon="-2.791703">
        <ele>1188.3</ele>
        <time>1989-12-30T23:59:59Z</time>
      </trkpt>
      <trkpt lat="38.198637" lon="-2.791844">
        <ele>1188.8</ele>
        <time>1989-12-30T23:59:59Z</time>
      </trkpt>
      <trkpt lat="38.198418" lon="-2.791927">
        <ele>1188.3</ele>
        <time>1989-12-30T23:59:59Z</time>
      </trkpt>
      <trkpt lat="38.198282" lon="-2.792215">
        <ele>1187.4</ele>
        <time>1989-12-30T23:59:59Z</time>
      </trkpt>
      <trkpt lat="38.198190" lon="-2.792399">
        <ele>1188.8</ele>
        <time>1989-12-30T23:59:59Z</time>
      </trkpt>
      <trkpt lat="38.198064" lon="-2.793125">
        <ele>1193.1</ele>
        <time>1989-12-30T23:59:59Z</time>
      </trkpt>
      <trkpt lat="38.198033" lon="-2.793468">
        <ele>1193.6</ele>
        <time>1989-12-30T23:59:59Z</time>
      </trkpt>
      <trkpt lat="38.197813" lon="-2.793829">
        <ele>1193.6</ele>
        <time>1989-12-30T23:59:59Z</time>
      </trkpt>
      <trkpt lat="38.197542" lon="-2.793863">
        <ele>1194.6</ele>
        <time>1989-12-30T23:59:59Z</time>
      </trkpt>
      <trkpt lat="38.197090" lon="-2.794257">
        <ele>1195.1</ele>
        <time>1989-12-30T23:59:59Z</time>
      </trkpt>
      <trkpt lat="38.196832" lon="-2.794340">
        <ele>1195.5</ele>
        <time>1989-12-30T23:59:59Z</time>
      </trkpt>
      <trkpt lat="38.196788" lon="-2.795140">
        <ele>1194.6</ele>
        <time>1989-12-30T23:59:59Z</time>
      </trkpt>
      <trkpt lat="38.196867" lon="-2.795397">
        <ele>1193.6</ele>
        <time>1989-12-30T23:59:59Z</time>
      </trkpt>
      <trkpt lat="38.196795" lon="-2.796005">
        <ele>1193.1</ele>
        <time>1989-12-30T23:59:59Z</time>
      </trkpt>
      <trkpt lat="38.196832" lon="-2.796138">
        <ele>1192.7</ele>
        <time>1989-12-30T23:59:59Z</time>
      </trkpt>
      <trkpt lat="38.196899" lon="-2.796167">
        <ele>1192.7</ele>
        <time>1989-12-30T23:59:59Z</time>
      </trkpt>
      <trkpt lat="38.197096" lon="-2.796174">
        <ele>1193.6</ele>
        <time>1989-12-30T23:59:59Z</time>
      </trkpt>
      <trkpt lat="38.197196" lon="-2.796192">
        <ele>1196.5</ele>
        <time>1989-12-30T23:59:59Z</time>
      </trkpt>
      <trkpt lat="38.197305" lon="-2.796244">
        <ele>1199.9</ele>
        <time>1989-12-30T23:59:59Z</time>
      </trkpt>
      <trkpt lat="38.197338" lon="-2.796254">
        <ele>1199.4</ele>
        <time>1989-12-30T23:59:59Z</time>
      </trkpt>
      <trkpt lat="38.197338" lon="-2.796257">
        <ele>1203.7</ele>
        <time>1989-12-30T23:59:59Z</time>
      </trkpt>
      <trkpt lat="38.197338" lon="-2.796260">
        <ele>1197.9</ele>
        <time>1989-12-30T23:59:59Z</time>
      </trkpt>
      <trkpt lat="38.197383" lon="-2.796287">
        <ele>1197.0</ele>
        <time>1989-12-30T23:59:59Z</time>
      </trkpt>
      <trkpt lat="38.197576" lon="-2.796356">
        <ele>1197.0</ele>
        <time>1989-12-30T23:59:59Z</time>
      </trkpt>
      <trkpt lat="38.197618" lon="-2.796505">
        <ele>1197.5</ele>
        <time>1989-12-30T23:59:59Z</time>
      </trkpt>
      <trkpt lat="38.197584" lon="-2.796667">
        <ele>1197.5</ele>
        <time>1989-12-30T23:59:59Z</time>
      </trkpt>
      <trkpt lat="38.197351" lon="-2.797034">
        <ele>1198.9</ele>
        <time>1989-12-30T23:59:59Z</time>
      </trkpt>
      <trkpt lat="38.197263" lon="-2.797247">
        <ele>1198.4</ele>
        <time>1989-12-30T23:59:59Z</time>
      </trkpt>
      <trkpt lat="38.197273" lon="-2.797216">
        <ele>1199.9</ele>
        <time>1989-12-30T23:59:59Z</time>
      </trkpt>
      <trkpt lat="38.197235" lon="-2.797346">
        <ele>1200.3</ele>
        <time>1989-12-30T23:59:59Z</time>
      </trkpt>
      <trkpt lat="38.196929" lon="-2.797996">
        <ele>1196.5</ele>
        <time>1989-12-30T23:59:59Z</time>
      </trkpt>
      <trkpt lat="38.196958" lon="-2.798121">
        <ele>1194.1</ele>
        <time>1989-12-30T23:59:59Z</time>
      </trkpt>
      <trkpt lat="38.197062" lon="-2.798311">
        <ele>1193.6</ele>
        <time>1989-12-30T23:59:59Z</time>
      </trkpt>
      <trkpt lat="38.197240" lon="-2.798517">
        <ele>1190.7</ele>
        <time>1989-12-30T23:59:59Z</time>
      </trkpt>
      <trkpt lat="38.197459" lon="-2.798615">
        <ele>1193.6</ele>
        <time>1989-12-30T23:59:59Z</time>
      </trkpt>
      <trkpt lat="38.197680" lon="-2.798679">
        <ele>1193.1</ele>
        <time>1989-12-30T23:59:59Z</time>
      </trkpt>
      <trkpt lat="38.197680" lon="-2.798679">
        <ele>1189.8</ele>
        <time>1989-12-30T23:59:59Z</time>
      </trkpt>
      <trkpt lat="38.197874" lon="-2.798761">
        <ele>1186.4</ele>
        <time>1989-12-30T23:59:59Z</time>
      </trkpt>
      <trkpt lat="38.198055" lon="-2.798810">
        <ele>1187.4</ele>
        <time>1989-12-30T23:59:59Z</time>
      </trkpt>
      <trkpt lat="38.198184" lon="-2.798989">
        <ele>1187.8</ele>
        <time>1989-12-30T23:59:59Z</time>
      </trkpt>
      <trkpt lat="38.198261" lon="-2.798967">
        <ele>1185.0</ele>
        <time>1989-12-30T23:59:59Z</time>
      </trkpt>
      <trkpt lat="38.198317" lon="-2.798889">
        <ele>1187.8</ele>
        <time>1989-12-30T23:59:59Z</time>
      </trkpt>
      <trkpt lat="38.198342" lon="-2.798830">
        <ele>1188.3</ele>
        <time>1989-12-30T23:59:59Z</time>
      </trkpt>
      <trkpt lat="38.198414" lon="-2.798725">
        <ele>1188.3</ele>
        <time>1989-12-30T23:59:59Z</time>
      </trkpt>
      <trkpt lat="38.198478" lon="-2.798620">
        <ele>1187.4</ele>
        <time>1989-12-30T23:59:59Z</time>
      </trkpt>
      <trkpt lat="38.198533" lon="-2.798500">
        <ele>1188.3</ele>
        <time>1989-12-30T23:59:59Z</time>
      </trkpt>
      <trkpt lat="38.198559" lon="-2.798370">
        <ele>1191.2</ele>
        <time>1989-12-30T23:59:59Z</time>
      </trkpt>
      <trkpt lat="38.198561" lon="-2.798246">
        <ele>1195.1</ele>
        <time>1989-12-30T23:59:59Z</time>
      </trkpt>
      <trkpt lat="38.198549" lon="-2.798119">
        <ele>1195.1</ele>
        <time>1989-12-30T23:59:59Z</time>
      </trkpt>
      <trkpt lat="38.198535" lon="-2.797927">
        <ele>1194.6</ele>
        <time>1989-12-30T23:59:59Z</time>
      </trkpt>
      <trkpt lat="38.198608" lon="-2.797722">
        <ele>1197.0</ele>
        <time>1989-12-30T23:59:59Z</time>
      </trkpt>
      <trkpt lat="38.198662" lon="-2.797629">
        <ele>1198.4</ele>
        <time>1989-12-30T23:59:59Z</time>
      </trkpt>
      <trkpt lat="38.198733" lon="-2.797533">
        <ele>1198.4</ele>
        <time>1989-12-30T23:59:59Z</time>
      </trkpt>
      <trkpt lat="38.198811" lon="-2.797463">
        <ele>1199.4</ele>
        <time>1989-12-30T23:59:59Z</time>
      </trkpt>
      <trkpt lat="38.198901" lon="-2.797496">
        <ele>1200.8</ele>
        <time>1989-12-30T23:59:59Z</time>
      </trkpt>
      <trkpt lat="38.198979" lon="-2.797576">
        <ele>1202.3</ele>
        <time>1989-12-30T23:59:59Z</time>
      </trkpt>
      <trkpt lat="38.199050" lon="-2.797646">
        <ele>1202.3</ele>
        <time>1989-12-30T23:59:59Z</time>
      </trkpt>
      <trkpt lat="38.199129" lon="-2.797708">
        <ele>1205.1</ele>
        <time>1989-12-30T23:59:59Z</time>
      </trkpt>
      <trkpt lat="38.199285" lon="-2.797818">
        <ele>1201.8</ele>
        <time>1989-12-30T23:59:59Z</time>
      </trkpt>
      <trkpt lat="38.199365" lon="-2.797884">
        <ele>1201.8</ele>
        <time>1989-12-30T23:59:59Z</time>
      </trkpt>
      <trkpt lat="38.199440" lon="-2.797955">
        <ele>1202.7</ele>
        <time>1989-12-30T23:59:59Z</time>
      </trkpt>
      <trkpt lat="38.199523" lon="-2.798003">
        <ele>1205.1</ele>
        <time>1989-12-30T23:59:59Z</time>
      </trkpt>
      <trkpt lat="38.199604" lon="-2.798038">
        <ele>1209.5</ele>
        <time>1989-12-30T23:59:59Z</time>
      </trkpt>
      <trkpt lat="38.199708" lon="-2.798071">
        <ele>1210.9</ele>
        <time>1989-12-30T23:59:59Z</time>
      </trkpt>
      <trkpt lat="38.199804" lon="-2.798081">
        <ele>1212.4</ele>
        <time>1989-12-30T23:59:59Z</time>
      </trkpt>
      <trkpt lat="38.199905" lon="-2.798089">
        <ele>1215.2</ele>
        <time>1989-12-30T23:59:59Z</time>
      </trkpt>
      <trkpt lat="38.200000" lon="-2.798096">
        <ele>1215.2</ele>
        <time>1989-12-30T23:59:59Z</time>
      </trkpt>
      <trkpt lat="38.200098" lon="-2.798114">
        <ele>1217.2</ele>
        <time>1989-12-30T23:59:59Z</time>
      </trkpt>
      <trkpt lat="38.200195" lon="-2.798131">
        <ele>1218.6</ele>
        <time>1989-12-30T23:59:59Z</time>
      </trkpt>
      <trkpt lat="38.200288" lon="-2.798156">
        <ele>1219.6</ele>
        <time>1989-12-30T23:59:59Z</time>
      </trkpt>
      <trkpt lat="38.200360" lon="-2.798145">
        <ele>1225.8</ele>
        <time>1989-12-30T23:59:59Z</time>
      </trkpt>
      <trkpt lat="38.200437" lon="-2.798194">
        <ele>1222.9</ele>
        <time>1989-12-30T23:59:59Z</time>
      </trkpt>
      <trkpt lat="38.200525" lon="-2.798231">
        <ele>1224.9</ele>
        <time>1989-12-30T23:59:59Z</time>
      </trkpt>
      <trkpt lat="38.200605" lon="-2.798293">
        <ele>1227.3</ele>
        <time>1989-12-30T23:59:59Z</time>
      </trkpt>
      <trkpt lat="38.200679" lon="-2.798373">
        <ele>1229.2</ele>
        <time>1989-12-30T23:59:59Z</time>
      </trkpt>
      <trkpt lat="38.200730" lon="-2.798467">
        <ele>1225.8</ele>
        <time>1989-12-30T23:59:59Z</time>
      </trkpt>
      <trkpt lat="38.200827" lon="-2.798493">
        <ele>1228.2</ele>
        <time>1989-12-30T23:59:59Z</time>
      </trkpt>
      <trkpt lat="38.200926" lon="-2.798517">
        <ele>1229.7</ele>
        <time>1989-12-30T23:59:59Z</time>
      </trkpt>
      <trkpt lat="38.201018" lon="-2.798533">
        <ele>1233.5</ele>
        <time>1989-12-30T23:59:59Z</time>
      </trkpt>
      <trkpt lat="38.201104" lon="-2.798593">
        <ele>1235.4</ele>
        <time>1989-12-30T23:59:59Z</time>
      </trkpt>
      <trkpt lat="38.201185" lon="-2.798650">
        <ele>1236.9</ele>
        <time>1989-12-30T23:59:59Z</time>
      </trkpt>
      <trkpt lat="38.201276" lon="-2.798705">
        <ele>1239.3</ele>
        <time>1989-12-30T23:59:59Z</time>
      </trkpt>
      <trkpt lat="38.201368" lon="-2.798742">
        <ele>1240.2</ele>
        <time>1989-12-30T23:59:59Z</time>
      </trkpt>
      <trkpt lat="38.201448" lon="-2.798697">
        <ele>1240.2</ele>
        <time>1989-12-30T23:59:59Z</time>
      </trkpt>
      <trkpt lat="38.201593" lon="-2.798419">
        <ele>1243.6</ele>
        <time>1989-12-30T23:59:59Z</time>
      </trkpt>
      <trkpt lat="38.201708" lon="-2.798297">
        <ele>1241.2</ele>
        <time>1989-12-30T23:59:59Z</time>
      </trkpt>
      <trkpt lat="38.201729" lon="-2.798185">
        <ele>1240.7</ele>
        <time>1989-12-30T23:59:59Z</time>
      </trkpt>
      <trkpt lat="38.201755" lon="-2.798064">
        <ele>1239.8</ele>
        <time>1989-12-30T23:59:59Z</time>
      </trkpt>
      <trkpt lat="38.201791" lon="-2.797947">
        <ele>1237.8</ele>
        <time>1989-12-30T23:59:59Z</time>
      </trkpt>
      <trkpt lat="38.201821" lon="-2.797837">
        <ele>1237.4</ele>
        <time>1989-12-30T23:59:59Z</time>
      </trkpt>
      <trkpt lat="38.201827" lon="-2.797719">
        <ele>1236.4</ele>
        <time>1989-12-30T23:59:59Z</time>
      </trkpt>
      <trkpt lat="38.201848" lon="-2.797603">
        <ele>1235.0</ele>
        <time>1989-12-30T23:59:59Z</time>
      </trkpt>
      <trkpt lat="38.201924" lon="-2.797490">
        <ele>1237.4</ele>
        <time>1989-12-30T23:59:59Z</time>
      </trkpt>
      <trkpt lat="38.201968" lon="-2.797416">
        <ele>1246.5</ele>
        <time>1989-12-30T23:59:59Z</time>
      </trkpt>
      <trkpt lat="38.202028" lon="-2.797308">
        <ele>1244.1</ele>
        <time>1989-12-30T23:59:59Z</time>
      </trkpt>
      <trkpt lat="38.202068" lon="-2.797184">
        <ele>1239.3</ele>
        <time>1989-12-30T23:59:59Z</time>
      </trkpt>
      <trkpt lat="38.202126" lon="-2.797076">
        <ele>1235.9</ele>
        <time>1989-12-30T23:59:59Z</time>
      </trkpt>
      <trkpt lat="38.202199" lon="-2.796979">
        <ele>1235.0</ele>
        <time>1989-12-30T23:59:59Z</time>
      </trkpt>
      <trkpt lat="38.202277" lon="-2.796880">
        <ele>1233.0</ele>
        <time>1989-12-30T23:59:59Z</time>
      </trkpt>
      <trkpt lat="38.202347" lon="-2.796786">
        <ele>1233.0</ele>
        <time>1989-12-30T23:59:59Z</time>
      </trkpt>
      <trkpt lat="38.202406" lon="-2.796700">
        <ele>1230.6</ele>
        <time>1989-12-30T23:59:59Z</time>
      </trkpt>
      <trkpt lat="38.202483" lon="-2.796590">
        <ele>1225.3</ele>
        <time>1989-12-30T23:59:59Z</time>
      </trkpt>
      <trkpt lat="38.202531" lon="-2.796492">
        <ele>1223.4</ele>
        <time>1989-12-30T23:59:59Z</time>
      </trkpt>
      <trkpt lat="38.202591" lon="-2.796383">
        <ele>1224.4</ele>
        <time>1989-12-30T23:59:59Z</time>
      </trkpt>
      <trkpt lat="38.202647" lon="-2.796279">
        <ele>1224.9</ele>
        <time>1989-12-30T23:59:59Z</time>
      </trkpt>
      <trkpt lat="38.202711" lon="-2.796174">
        <ele>1226.3</ele>
        <time>1989-12-30T23:59:59Z</time>
      </trkpt>
      <trkpt lat="38.202777" lon="-2.796107">
        <ele>1222.9</ele>
        <time>1989-12-30T23:59:59Z</time>
      </trkpt>
      <trkpt lat="38.202847" lon="-2.796086">
        <ele>1234.0</ele>
        <time>1989-12-30T23:59:59Z</time>
      </trkpt>
      <trkpt lat="38.202947" lon="-2.796040">
        <ele>1234.5</ele>
        <time>1989-12-30T23:59:59Z</time>
      </trkpt>
      <trkpt lat="38.203070" lon="-2.795991">
        <ele>1230.6</ele>
        <time>1989-12-30T23:59:59Z</time>
      </trkpt>
      <trkpt lat="38.203221" lon="-2.795914">
        <ele>1231.1</ele>
        <time>1989-12-30T23:59:59Z</time>
      </trkpt>
      <trkpt lat="38.203305" lon="-2.795873">
        <ele>1228.7</ele>
        <time>1989-12-30T23:59:59Z</time>
      </trkpt>
      <trkpt lat="38.203390" lon="-2.795832">
        <ele>1222.5</ele>
        <time>1989-12-30T23:59:59Z</time>
      </trkpt>
      <trkpt lat="38.203489" lon="-2.795788">
        <ele>1222.5</ele>
        <time>1989-12-30T23:59:59Z</time>
      </trkpt>
      <trkpt lat="38.203567" lon="-2.795724">
        <ele>1225.3</ele>
        <time>1989-12-30T23:59:59Z</time>
      </trkpt>
      <trkpt lat="38.203637" lon="-2.795644">
        <ele>1226.3</ele>
        <time>1989-12-30T23:59:59Z</time>
      </trkpt>
      <trkpt lat="38.203702" lon="-2.795544">
        <ele>1227.3</ele>
        <time>1989-12-30T23:59:59Z</time>
      </trkpt>
      <trkpt lat="38.203765" lon="-2.795450">
        <ele>1228.7</ele>
        <time>1989-12-30T23:59:59Z</time>
      </trkpt>
      <trkpt lat="38.203839" lon="-2.795375">
        <ele>1228.7</ele>
        <time>1989-12-30T23:59:59Z</time>
      </trkpt>
      <trkpt lat="38.203931" lon="-2.795343">
        <ele>1229.7</ele>
        <time>1989-12-30T23:59:59Z</time>
      </trkpt>
      <trkpt lat="38.204021" lon="-2.795338">
        <ele>1230.1</ele>
        <time>1989-12-30T23:59:59Z</time>
      </trkpt>
      <trkpt lat="38.204126" lon="-2.795328">
        <ele>1227.7</ele>
        <time>1989-12-30T23:59:59Z</time>
      </trkpt>
      <trkpt lat="38.204411" lon="-2.795218">
        <ele>1228.7</ele>
        <time>1989-12-30T23:59:59Z</time>
      </trkpt>
      <trkpt lat="38.204501" lon="-2.795170">
        <ele>1228.7</ele>
        <time>1989-12-30T23:59:59Z</time>
      </trkpt>
      <trkpt lat="38.204580" lon="-2.795101">
        <ele>1229.2</ele>
        <time>1989-12-30T23:59:59Z</time>
      </trkpt>
      <trkpt lat="38.204661" lon="-2.795030">
        <ele>1229.7</ele>
        <time>1989-12-30T23:59:59Z</time>
      </trkpt>
      <trkpt lat="38.204742" lon="-2.794961">
        <ele>1230.6</ele>
        <time>1989-12-30T23:59:59Z</time>
      </trkpt>
      <trkpt lat="38.204855" lon="-2.794911">
        <ele>1234.0</ele>
        <time>1989-12-30T23:59:59Z</time>
      </trkpt>
      <trkpt lat="38.205009" lon="-2.794873">
        <ele>1235.9</ele>
        <time>1989-12-30T23:59:59Z</time>
      </trkpt>
      <trkpt lat="38.205087" lon="-2.794816">
        <ele>1235.9</ele>
        <time>1989-12-30T23:59:59Z</time>
      </trkpt>
      <trkpt lat="38.205191" lon="-2.794740">
        <ele>1237.4</ele>
        <time>1989-12-30T23:59:59Z</time>
      </trkpt>
      <trkpt lat="38.205274" lon="-2.794642">
        <ele>1238.3</ele>
        <time>1989-12-30T23:59:59Z</time>
      </trkpt>
      <trkpt lat="38.205474" lon="-2.794570">
        <ele>1243.6</ele>
        <time>1989-12-30T23:59:59Z</time>
      </trkpt>
      <trkpt lat="38.205532" lon="-2.794439">
        <ele>1244.1</ele>
        <time>1989-12-30T23:59:59Z</time>
      </trkpt>
      <trkpt lat="38.205626" lon="-2.794368">
        <ele>1245.0</ele>
        <time>1989-12-30T23:59:59Z</time>
      </trkpt>
      <trkpt lat="38.205811" lon="-2.794177">
        <ele>1247.4</ele>
        <time>1989-12-30T23:59:59Z</time>
      </trkpt>
      <trkpt lat="38.206131" lon="-2.793769">
        <ele>1249.4</ele>
        <time>1989-12-30T23:59:59Z</time>
      </trkpt>
      <trkpt lat="38.206216" lon="-2.793691">
        <ele>1249.9</ele>
        <time>1989-12-30T23:59:59Z</time>
      </trkpt>
      <trkpt lat="38.206294" lon="-2.793597">
        <ele>1251.8</ele>
        <time>1989-12-30T23:59:59Z</time>
      </trkpt>
      <trkpt lat="38.206460" lon="-2.793299">
        <ele>1260.4</ele>
        <time>1989-12-30T23:59:59Z</time>
      </trkpt>
      <trkpt lat="38.206548" lon="-2.792988">
        <ele>1268.1</ele>
        <time>1989-12-30T23:59:59Z</time>
      </trkpt>
      <trkpt lat="38.206662" lon="-2.792927">
        <ele>1273.4</ele>
        <time>1989-12-30T23:59:59Z</time>
      </trkpt>
      <trkpt lat="38.206756" lon="-2.792860">
        <ele>1274.8</ele>
        <time>1989-12-30T23:59:59Z</time>
      </trkpt>
      <trkpt lat="38.206826" lon="-2.792763">
        <ele>1276.8</ele>
        <time>1989-12-30T23:59:59Z</time>
      </trkpt>
      <trkpt lat="38.206882" lon="-2.792668">
        <ele>1278.7</ele>
        <time>1989-12-30T23:59:59Z</time>
      </trkpt>
      <trkpt lat="38.206982" lon="-2.792570">
        <ele>1279.7</ele>
        <time>1989-12-30T23:59:59Z</time>
      </trkpt>
      <trkpt lat="38.207169" lon="-2.792412">
        <ele>1280.6</ele>
        <time>1989-12-30T23:59:59Z</time>
      </trkpt>
      <trkpt lat="38.207226" lon="-2.792360">
        <ele>1293.1</ele>
        <time>1989-12-30T23:59:59Z</time>
      </trkpt>
      <trkpt lat="38.207294" lon="-2.792177">
        <ele>1286.9</ele>
        <time>1989-12-30T23:59:59Z</time>
      </trkpt>
      <trkpt lat="38.207412" lon="-2.791790">
        <ele>1286.4</ele>
        <time>1989-12-30T23:59:59Z</time>
      </trkpt>
      <trkpt lat="38.207604" lon="-2.791497">
        <ele>1286.9</ele>
        <time>1989-12-30T23:59:59Z</time>
      </trkpt>
      <trkpt lat="38.207604" lon="-2.791497">
        <ele>1281.1</ele>
        <time>1989-12-30T23:59:59Z</time>
      </trkpt>
      <trkpt lat="38.207604" lon="-2.791497">
        <ele>1281.1</ele>
        <time>1989-12-30T23:59:59Z</time>
      </trkpt>
      <trkpt lat="38.207722" lon="-2.791166">
        <ele>1278.2</ele>
        <time>1989-12-30T23:59:59Z</time>
      </trkpt>
      <trkpt lat="38.207747" lon="-2.790907">
        <ele>1277.2</ele>
        <time>1989-12-30T23:59:59Z</time>
      </trkpt>
      <trkpt lat="38.207886" lon="-2.790655">
        <ele>1267.6</ele>
        <time>1989-12-30T23:59:59Z</time>
      </trkpt>
      <trkpt lat="38.207971" lon="-2.790601">
        <ele>1262.3</ele>
        <time>1989-12-30T23:59:59Z</time>
      </trkpt>
      <trkpt lat="38.208070" lon="-2.790520">
        <ele>1236.6</ele>
        <time>1989-12-30T23:59:59Z</time>
      </trkpt>
      <trkpt lat="38.208129" lon="-2.790455">
        <ele>1236.9</ele>
        <time>1989-12-30T23:59:59Z</time>
      </trkpt>
      <trkpt lat="38.208203" lon="-2.790323">
        <ele>1239.3</ele>
        <time>1989-12-30T23:59:59Z</time>
      </trkpt>
      <trkpt lat="38.208251" lon="-2.790296">
        <ele>1239.2</ele>
        <time>1989-12-30T23:59:59Z</time>
      </trkpt>
      <trkpt lat="38.208303" lon="-2.790277">
        <ele>1251.8</ele>
        <time>1989-12-30T23:59:59Z</time>
      </trkpt>
      <trkpt lat="38.208373" lon="-2.790211">
        <ele>1252.7</ele>
        <time>1989-12-30T23:59:59Z</time>
      </trkpt>
      <trkpt lat="38.208453" lon="-2.790159">
        <ele>1243.1</ele>
        <time>1989-12-30T23:59:59Z</time>
      </trkpt>
      <trkpt lat="38.208546" lon="-2.790070">
        <ele>1247.3</ele>
        <time>1989-12-30T23:59:59Z</time>
      </trkpt>
      <trkpt lat="38.208608" lon="-2.789958">
        <ele>1251.8</ele>
        <time>1989-12-30T23:59:59Z</time>
      </trkpt>
      <trkpt lat="38.208664" lon="-2.789845">
        <ele>1254.9</ele>
        <time>1989-12-30T23:59:59Z</time>
      </trkpt>
      <trkpt lat="38.208671" lon="-2.789691">
        <ele>1258.1</ele>
        <time>1989-12-30T23:59:59Z</time>
      </trkpt>
      <trkpt lat="38.208719" lon="-2.789611">
        <ele>1260.6</ele>
        <time>1989-12-30T23:59:59Z</time>
      </trkpt>
      <trkpt lat="38.208834" lon="-2.789615">
        <ele>1261.7</ele>
        <time>1989-12-30T23:59:59Z</time>
      </trkpt>
      <trkpt lat="38.208911" lon="-2.789605">
        <ele>1262.9</ele>
        <time>1989-12-30T23:59:59Z</time>
      </trkpt>
      <trkpt lat="38.208905" lon="-2.789722">
        <ele>1260.2</ele>
        <time>1989-12-30T23:59:59Z</time>
      </trkpt>
      <trkpt lat="38.208905" lon="-2.789857">
        <ele>1257.3</ele>
        <time>1989-12-30T23:59:59Z</time>
      </trkpt>
      <trkpt lat="38.208935" lon="-2.790002">
        <ele>1253.9</ele>
        <time>1989-12-30T23:59:59Z</time>
      </trkpt>
      <trkpt lat="38.208930" lon="-2.790252">
        <ele>1243.1</ele>
        <time>1989-12-30T23:59:59Z</time>
      </trkpt>
      <trkpt lat="38.208867" lon="-2.790364">
        <ele>1238.3</ele>
        <time>1989-12-30T23:59:59Z</time>
      </trkpt>
      <trkpt lat="38.208801" lon="-2.790467">
        <ele>1233.6</ele>
        <time>1989-12-30T23:59:59Z</time>
      </trkpt>
      <trkpt lat="38.208720" lon="-2.790533">
        <ele>1230.6</ele>
        <time>1989-12-30T23:59:59Z</time>
      </trkpt>
      <trkpt lat="38.208665" lon="-2.790594">
        <ele>1227.9</ele>
        <time>1989-12-30T23:59:59Z</time>
      </trkpt>
      <trkpt lat="38.208568" lon="-2.790644">
        <ele>1247.4</ele>
        <time>1989-12-30T23:59:59Z</time>
      </trkpt>
      <trkpt lat="38.208528" lon="-2.790828">
        <ele>1218.8</ele>
        <time>1989-12-30T23:59:59Z</time>
      </trkpt>
      <trkpt lat="38.208526" lon="-2.790959">
        <ele>1244.6</ele>
        <time>1989-12-30T23:59:59Z</time>
      </trkpt>
      <trkpt lat="38.208478" lon="-2.791137">
        <ele>1235.0</ele>
        <time>1989-12-30T23:59:59Z</time>
      </trkpt>
      <trkpt lat="38.208469" lon="-2.791277">
        <ele>1230.1</ele>
        <time>1989-12-30T23:59:59Z</time>
      </trkpt>
      <trkpt lat="38.208506" lon="-2.791435">
        <ele>1230.6</ele>
        <time>1989-12-30T23:59:59Z</time>
      </trkpt>
      <trkpt lat="38.208501" lon="-2.791542">
        <ele>1230.1</ele>
        <time>1989-12-30T23:59:59Z</time>
      </trkpt>
      <trkpt lat="38.208505" lon="-2.791675">
        <ele>1232.1</ele>
        <time>1989-12-30T23:59:59Z</time>
      </trkpt>
      <trkpt lat="38.208536" lon="-2.791764">
        <ele>1230.1</ele>
        <time>1989-12-30T23:59:59Z</time>
      </trkpt>
      <trkpt lat="38.208603" lon="-2.791991">
        <ele>1225.8</ele>
        <time>1989-12-30T23:59:59Z</time>
      </trkpt>
      <trkpt lat="38.208614" lon="-2.792452">
        <ele>1223.4</ele>
        <time>1989-12-30T23:59:59Z</time>
      </trkpt>
      <trkpt lat="38.208598" lon="-2.792685">
        <ele>1222.9</ele>
        <time>1989-12-30T23:59:59Z</time>
      </trkpt>
      <trkpt lat="38.208618" lon="-2.792809">
        <ele>1224.9</ele>
        <time>1989-12-30T23:59:59Z</time>
      </trkpt>
      <trkpt lat="38.208626" lon="-2.792924">
        <ele>1223.9</ele>
        <time>1989-12-30T23:59:59Z</time>
      </trkpt>
      <trkpt lat="38.208618" lon="-2.793020">
        <ele>1218.6</ele>
        <time>1989-12-30T23:59:59Z</time>
      </trkpt>
      <trkpt lat="38.208629" lon="-2.793119">
        <ele>1216.2</ele>
        <time>1989-12-30T23:59:59Z</time>
      </trkpt>
      <trkpt lat="38.208622" lon="-2.793227">
        <ele>1214.8</ele>
        <time>1989-12-30T23:59:59Z</time>
      </trkpt>
      <trkpt lat="38.208724" lon="-2.793206">
        <ele>1218.6</ele>
        <time>1989-12-30T23:59:59Z</time>
      </trkpt>
      <trkpt lat="38.208748" lon="-2.793369">
        <ele>1210.9</ele>
        <time>1989-12-30T23:59:59Z</time>
      </trkpt>
      <trkpt lat="38.208820" lon="-2.793595">
        <ele>1205.6</ele>
        <time>1989-12-30T23:59:59Z</time>
      </trkpt>
      <trkpt lat="38.208833" lon="-2.793739">
        <ele>1206.6</ele>
        <time>1989-12-30T23:59:59Z</time>
      </trkpt>
      <trkpt lat="38.208838" lon="-2.793869">
        <ele>1208.0</ele>
        <time>1989-12-30T23:59:59Z</time>
      </trkpt>
      <trkpt lat="38.208829" lon="-2.794004">
        <ele>1209.0</ele>
        <time>1989-12-30T23:59:59Z</time>
      </trkpt>
      <trkpt lat="38.208844" lon="-2.794134">
        <ele>1209.0</ele>
        <time>1989-12-30T23:59:59Z</time>
      </trkpt>
      <trkpt lat="38.208900" lon="-2.794246">
        <ele>1210.9</ele>
        <time>1989-12-30T23:59:59Z</time>
      </trkpt>
      <trkpt lat="38.208967" lon="-2.794341">
        <ele>1212.4</ele>
        <time>1989-12-30T23:59:59Z</time>
      </trkpt>
      <trkpt lat="38.208962" lon="-2.794473">
        <ele>1214.3</ele>
        <time>1989-12-30T23:59:59Z</time>
      </trkpt>
      <trkpt lat="38.208929" lon="-2.794589">
        <ele>1214.3</ele>
        <time>1989-12-30T23:59:59Z</time>
      </trkpt>
      <trkpt lat="38.208903" lon="-2.794710">
        <ele>1212.4</ele>
        <time>1989-12-30T23:59:59Z</time>
      </trkpt>
      <trkpt lat="38.208866" lon="-2.794821">
        <ele>1211.4</ele>
        <time>1989-12-30T23:59:59Z</time>
      </trkpt>
      <trkpt lat="38.208822" lon="-2.794965">
        <ele>1211.4</ele>
        <time>1989-12-30T23:59:59Z</time>
      </trkpt>
      <trkpt lat="38.208826" lon="-2.795089">
        <ele>1212.4</ele>
        <time>1989-12-30T23:59:59Z</time>
      </trkpt>
      <trkpt lat="38.208773" lon="-2.795536">
        <ele>1203.2</ele>
        <time>1989-12-30T23:59:59Z</time>
      </trkpt>
      <trkpt lat="38.208746" lon="-2.795673">
        <ele>1207.6</ele>
        <time>1989-12-30T23:59:59Z</time>
      </trkpt>
      <trkpt lat="38.208728" lon="-2.795803">
        <ele>1209.5</ele>
        <time>1989-12-30T23:59:59Z</time>
      </trkpt>
      <trkpt lat="38.208708" lon="-2.795952">
        <ele>1212.4</ele>
        <time>1989-12-30T23:59:59Z</time>
      </trkpt>
      <trkpt lat="38.208723" lon="-2.796187">
        <ele>1222.9</ele>
        <time>1989-12-30T23:59:59Z</time>
      </trkpt>
      <trkpt lat="38.208722" lon="-2.796277">
        <ele>1219.6</ele>
        <time>1989-12-30T23:59:59Z</time>
      </trkpt>
      <trkpt lat="38.208722" lon="-2.796369">
        <ele>1216.7</ele>
        <time>1989-12-30T23:59:59Z</time>
      </trkpt>
      <trkpt lat="38.208629" lon="-2.796563">
        <ele>1213.3</ele>
        <time>1989-12-30T23:59:59Z</time>
      </trkpt>
      <trkpt lat="38.208606" lon="-2.796672">
        <ele>1210.9</ele>
        <time>1989-12-30T23:59:59Z</time>
      </trkpt>
      <trkpt lat="38.208577" lon="-2.796773">
        <ele>1210.0</ele>
        <time>1989-12-30T23:59:59Z</time>
      </trkpt>
      <trkpt lat="38.208571" lon="-2.796835">
        <ele>1213.3</ele>
        <time>1989-12-30T23:59:59Z</time>
      </trkpt>
      <trkpt lat="38.208612" lon="-2.797335">
        <ele>1213.3</ele>
        <time>1989-12-30T23:59:59Z</time>
      </trkpt>
      <trkpt lat="38.208703" lon="-2.797419">
        <ele>1205.1</ele>
        <time>1989-12-30T23:59:59Z</time>
      </trkpt>
      <trkpt lat="38.208729" lon="-2.797563">
        <ele>1207.1</ele>
        <time>1989-12-30T23:59:59Z</time>
      </trkpt>
      <trkpt lat="38.208770" lon="-2.797690">
        <ele>1205.1</ele>
        <time>1989-12-30T23:59:59Z</time>
      </trkpt>
      <trkpt lat="38.208802" lon="-2.797833">
        <ele>1204.7</ele>
        <time>1989-12-30T23:59:59Z</time>
      </trkpt>
      <trkpt lat="38.208768" lon="-2.797961">
        <ele>1203.2</ele>
        <time>1989-12-30T23:59:59Z</time>
      </trkpt>
      <trkpt lat="38.208802" lon="-2.798012">
        <ele>1196.0</ele>
        <time>1989-12-30T23:59:59Z</time>
      </trkpt>
      <trkpt lat="38.208788" lon="-2.798245">
        <ele>1196.5</ele>
        <time>1989-12-30T23:59:59Z</time>
      </trkpt>
      <trkpt lat="38.208806" lon="-2.798282">
        <ele>1199.4</ele>
        <time>1989-12-30T23:59:59Z</time>
      </trkpt>
      <trkpt lat="38.208832" lon="-2.798367">
        <ele>1201.8</ele>
        <time>1989-12-30T23:59:59Z</time>
      </trkpt>
      <trkpt lat="38.208873" lon="-2.798442">
        <ele>1205.1</ele>
        <time>1989-12-30T23:59:59Z</time>
      </trkpt>
      <trkpt lat="38.208894" lon="-2.798523">
        <ele>1208.5</ele>
        <time>1989-12-30T23:59:59Z</time>
      </trkpt>
      <trkpt lat="38.208949" lon="-2.798610">
        <ele>1211.4</ele>
        <time>1989-12-30T23:59:59Z</time>
      </trkpt>
      <trkpt lat="38.208994" lon="-2.798619">
        <ele>1200.3</ele>
        <time>1989-12-30T23:59:59Z</time>
      </trkpt>
      <trkpt lat="38.209190" lon="-2.798750">
        <ele>1200.3</ele>
        <time>1989-12-30T23:59:59Z</time>
      </trkpt>
      <trkpt lat="38.209384" lon="-2.798877">
        <ele>1209.5</ele>
        <time>1989-12-30T23:59:59Z</time>
      </trkpt>
      <trkpt lat="38.209442" lon="-2.798986">
        <ele>1217.6</ele>
        <time>1989-12-30T23:59:59Z</time>
      </trkpt>
      <trkpt lat="38.209528" lon="-2.799069">
        <ele>1218.1</ele>
        <time>1989-12-30T23:59:59Z</time>
      </trkpt>
      <trkpt lat="38.209596" lon="-2.799162">
        <ele>1219.6</ele>
        <time>1989-12-30T23:59:59Z</time>
      </trkpt>
      <trkpt lat="38.209683" lon="-2.799224">
        <ele>1220.1</ele>
        <time>1989-12-30T23:59:59Z</time>
      </trkpt>
      <trkpt lat="38.209769" lon="-2.799276">
        <ele>1221.0</ele>
        <time>1989-12-30T23:59:59Z</time>
      </trkpt>
      <trkpt lat="38.209841" lon="-2.799359">
        <ele>1222.9</ele>
        <time>1989-12-30T23:59:59Z</time>
      </trkpt>
      <trkpt lat="38.209915" lon="-2.799447">
        <ele>1225.8</ele>
        <time>1989-12-30T23:59:59Z</time>
      </trkpt>
      <trkpt lat="38.210000" lon="-2.799523">
        <ele>1226.3</ele>
        <time>1989-12-30T23:59:59Z</time>
      </trkpt>
      <trkpt lat="38.210133" lon="-2.799647">
        <ele>1226.3</ele>
        <time>1989-12-30T23:59:59Z</time>
      </trkpt>
      <trkpt lat="38.210243" lon="-2.799745">
        <ele>1225.3</ele>
        <time>1989-12-30T23:59:59Z</time>
      </trkpt>
      <trkpt lat="38.210308" lon="-2.799851">
        <ele>1223.4</ele>
        <time>1989-12-30T23:59:59Z</time>
      </trkpt>
      <trkpt lat="38.210360" lon="-2.799971">
        <ele>1221.5</ele>
        <time>1989-12-30T23:59:59Z</time>
      </trkpt>
      <trkpt lat="38.210404" lon="-2.800101">
        <ele>1220.1</ele>
        <time>1989-12-30T23:59:59Z</time>
      </trkpt>
      <trkpt lat="38.210437" lon="-2.800222">
        <ele>1216.2</ele>
        <time>1989-12-30T23:59:59Z</time>
      </trkpt>
      <trkpt lat="38.210494" lon="-2.800333">
        <ele>1215.7</ele>
        <time>1989-12-30T23:59:59Z</time>
      </trkpt>
      <trkpt lat="38.210538" lon="-2.800444">
        <ele>1211.4</ele>
        <time>1989-12-30T23:59:59Z</time>
      </trkpt>
      <trkpt lat="38.210573" lon="-2.800562">
        <ele>1210.4</ele>
        <time>1989-12-30T23:59:59Z</time>
      </trkpt>
      <trkpt lat="38.210624" lon="-2.800599">
        <ele>1212.8</ele>
        <time>1989-12-30T23:59:59Z</time>
      </trkpt>
      <trkpt lat="38.210646" lon="-2.800730">
        <ele>1207.6</ele>
        <time>1989-12-30T23:59:59Z</time>
      </trkpt>
      <trkpt lat="38.210651" lon="-2.800855">
        <ele>1209.0</ele>
        <time>1989-12-30T23:59:59Z</time>
      </trkpt>
      <trkpt lat="38.210657" lon="-2.800975">
        <ele>1212.4</ele>
        <time>1989-12-30T23:59:59Z</time>
      </trkpt>
      <trkpt lat="38.210700" lon="-2.801089">
        <ele>1210.0</ele>
        <time>1989-12-30T23:59:59Z</time>
      </trkpt>
      <trkpt lat="38.210767" lon="-2.801176">
        <ele>1211.9</ele>
        <time>1989-12-30T23:59:59Z</time>
      </trkpt>
      <trkpt lat="38.210832" lon="-2.801260">
        <ele>1215.2</ele>
        <time>1989-12-30T23:59:59Z</time>
      </trkpt>
      <trkpt lat="38.210893" lon="-2.801348">
        <ele>1221.5</ele>
        <time>1989-12-30T23:59:59Z</time>
      </trkpt>
      <trkpt lat="38.210925" lon="-2.801468">
        <ele>1224.4</ele>
        <time>1989-12-30T23:59:59Z</time>
      </trkpt>
      <trkpt lat="38.210944" lon="-2.801593">
        <ele>1226.8</ele>
        <time>1989-12-30T23:59:59Z</time>
      </trkpt>
      <trkpt lat="38.210969" lon="-2.801704">
        <ele>1228.7</ele>
        <time>1989-12-30T23:59:59Z</time>
      </trkpt>
      <trkpt lat="38.211025" lon="-2.801792">
        <ele>1229.7</ele>
        <time>1989-12-30T23:59:59Z</time>
      </trkpt>
      <trkpt lat="38.211095" lon="-2.801857">
        <ele>1229.7</ele>
        <time>1989-12-30T23:59:59Z</time>
      </trkpt>
      <trkpt lat="38.211127" lon="-2.801961">
        <ele>1231.6</ele>
        <time>1989-12-30T23:59:59Z</time>
      </trkpt>
      <trkpt lat="38.211174" lon="-2.802088">
        <ele>1226.3</ele>
        <time>1989-12-30T23:59:59Z</time>
      </trkpt>
      <trkpt lat="38.211205" lon="-2.802306">
        <ele>1223.9</ele>
        <time>1989-12-30T23:59:59Z</time>
      </trkpt>
      <trkpt lat="38.211215" lon="-2.802519">
        <ele>1227.3</ele>
        <time>1989-12-30T23:59:59Z</time>
      </trkpt>
      <trkpt lat="38.211218" lon="-2.802616">
        <ele>1231.1</ele>
        <time>1989-12-30T23:59:59Z</time>
      </trkpt>
      <trkpt lat="38.211195" lon="-2.802754">
        <ele>1235.0</ele>
        <time>1989-12-30T23:59:59Z</time>
      </trkpt>
      <trkpt lat="38.211171" lon="-2.802834">
        <ele>1238.8</ele>
        <time>1989-12-30T23:59:59Z</time>
      </trkpt>
      <trkpt lat="38.211154" lon="-2.802831">
        <ele>1235.9</ele>
        <time>1989-12-30T23:59:59Z</time>
      </trkpt>
      <trkpt lat="38.211141" lon="-2.803021">
        <ele>1235.9</ele>
        <time>1989-12-30T23:59:59Z</time>
      </trkpt>
      <trkpt lat="38.211099" lon="-2.803093">
        <ele>1237.4</ele>
        <time>1989-12-30T23:59:59Z</time>
      </trkpt>
      <trkpt lat="38.210982" lon="-2.803280">
        <ele>1238.3</ele>
        <time>1989-12-30T23:59:59Z</time>
      </trkpt>
      <trkpt lat="38.210930" lon="-2.803521">
        <ele>1232.5</ele>
        <time>1989-12-30T23:59:59Z</time>
      </trkpt>
      <trkpt lat="38.210940" lon="-2.803653">
        <ele>1235.9</ele>
        <time>1989-12-30T23:59:59Z</time>
      </trkpt>
      <trkpt lat="38.210957" lon="-2.803801">
        <ele>1236.4</ele>
        <time>1989-12-30T23:59:59Z</time>
      </trkpt>
      <trkpt lat="38.210931" lon="-2.803931">
        <ele>1237.8</ele>
        <time>1989-12-30T23:59:59Z</time>
      </trkpt>
      <trkpt lat="38.210907" lon="-2.804040">
        <ele>1235.0</ele>
        <time>1989-12-30T23:59:59Z</time>
      </trkpt>
      <trkpt lat="38.210893" lon="-2.804164">
        <ele>1228.2</ele>
        <time>1989-12-30T23:59:59Z</time>
      </trkpt>
      <trkpt lat="38.210883" lon="-2.804345">
        <ele>1221.5</ele>
        <time>1989-12-30T23:59:59Z</time>
      </trkpt>
      <trkpt lat="38.210912" lon="-2.804451">
        <ele>1222.9</ele>
        <time>1989-12-30T23:59:59Z</time>
      </trkpt>
      <trkpt lat="38.210893" lon="-2.804631">
        <ele>1226.3</ele>
        <time>1989-12-30T23:59:59Z</time>
      </trkpt>
      <trkpt lat="38.210867" lon="-2.804691">
        <ele>1215.7</ele>
        <time>1989-12-30T23:59:59Z</time>
      </trkpt>
      <trkpt lat="38.210872" lon="-2.804859">
        <ele>1222.0</ele>
        <time>1989-12-30T23:59:59Z</time>
      </trkpt>
      <trkpt lat="38.210866" lon="-2.804952">
        <ele>1214.3</ele>
        <time>1989-12-30T23:59:59Z</time>
      </trkpt>
      <trkpt lat="38.210863" lon="-2.805039">
        <ele>1211.9</ele>
        <time>1989-12-30T23:59:59Z</time>
      </trkpt>
      <trkpt lat="38.210761" lon="-2.805365">
        <ele>1209.0</ele>
        <time>1989-12-30T23:59:59Z</time>
      </trkpt>
      <trkpt lat="38.210734" lon="-2.805458">
        <ele>1207.1</ele>
        <time>1989-12-30T23:59:59Z</time>
      </trkpt>
      <trkpt lat="38.210729" lon="-2.805549">
        <ele>1207.1</ele>
        <time>1989-12-30T23:59:59Z</time>
      </trkpt>
      <trkpt lat="38.210723" lon="-2.805647">
        <ele>1206.1</ele>
        <time>1989-12-30T23:59:59Z</time>
      </trkpt>
      <trkpt lat="38.210707" lon="-2.805760">
        <ele>1209.5</ele>
        <time>1989-12-30T23:59:59Z</time>
      </trkpt>
      <trkpt lat="38.210673" lon="-2.805878">
        <ele>1208.5</ele>
        <time>1989-12-30T23:59:59Z</time>
      </trkpt>
      <trkpt lat="38.210645" lon="-2.805994">
        <ele>1206.6</ele>
        <time>1989-12-30T23:59:59Z</time>
      </trkpt>
      <trkpt lat="38.210644" lon="-2.806114">
        <ele>1205.1</ele>
        <time>1989-12-30T23:59:59Z</time>
      </trkpt>
      <trkpt lat="38.210599" lon="-2.806186">
        <ele>1201.8</ele>
        <time>1989-12-30T23:59:59Z</time>
      </trkpt>
      <trkpt lat="38.210579" lon="-2.806309">
        <ele>1203.2</ele>
        <time>1989-12-30T23:59:59Z</time>
      </trkpt>
      <trkpt lat="38.210536" lon="-2.806422">
        <ele>1202.3</ele>
        <time>1989-12-30T23:59:59Z</time>
      </trkpt>
      <trkpt lat="38.210519" lon="-2.806521">
        <ele>1201.3</ele>
        <time>1989-12-30T23:59:59Z</time>
      </trkpt>
      <trkpt lat="38.210524" lon="-2.806649">
        <ele>1200.3</ele>
        <time>1989-12-30T23:59:59Z</time>
      </trkpt>
      <trkpt lat="38.210521" lon="-2.806752">
        <ele>1200.3</ele>
        <time>1989-12-30T23:59:59Z</time>
      </trkpt>
      <trkpt lat="38.210537" lon="-2.806886">
        <ele>1201.8</ele>
        <time>1989-12-30T23:59:59Z</time>
      </trkpt>
      <trkpt lat="38.210553" lon="-2.807006">
        <ele>1202.3</ele>
        <time>1989-12-30T23:59:59Z</time>
      </trkpt>
      <trkpt lat="38.210538" lon="-2.807120">
        <ele>1204.2</ele>
        <time>1989-12-30T23:59:59Z</time>
      </trkpt>
      <trkpt lat="38.210429" lon="-2.807255">
        <ele>1199.9</ele>
        <time>1989-12-30T23:59:59Z</time>
      </trkpt>
      <trkpt lat="38.210415" lon="-2.807234">
        <ele>1253.7</ele>
        <time>1989-12-30T23:59:59Z</time>
      </trkpt>
      <trkpt lat="38.210346" lon="-2.807556">
        <ele>1212.8</ele>
        <time>1989-12-30T23:59:59Z</time>
      </trkpt>
      <trkpt lat="38.210312" lon="-2.807629">
        <ele>1207.6</ele>
        <time>1989-12-30T23:59:59Z</time>
      </trkpt>
      <trkpt lat="38.210253" lon="-2.807687">
        <ele>1204.7</ele>
        <time>1989-12-30T23:59:59Z</time>
      </trkpt>
      <trkpt lat="38.210199" lon="-2.807761">
        <ele>1206.1</ele>
        <time>1989-12-30T23:59:59Z</time>
      </trkpt>
      <trkpt lat="38.210135" lon="-2.807846">
        <ele>1201.8</ele>
        <time>1989-12-30T23:59:59Z</time>
      </trkpt>
      <trkpt lat="38.210079" lon="-2.807929">
        <ele>1194.1</ele>
        <time>1989-12-30T23:59:59Z</time>
      </trkpt>
      <trkpt lat="38.209971" lon="-2.808115">
        <ele>1194.6</ele>
        <time>1989-12-30T23:59:59Z</time>
      </trkpt>
      <trkpt lat="38.209933" lon="-2.808244">
        <ele>1195.1</ele>
        <time>1989-12-30T23:59:59Z</time>
      </trkpt>
      <trkpt lat="38.209923" lon="-2.808376">
        <ele>1197.5</ele>
        <time>1989-12-30T23:59:59Z</time>
      </trkpt>
      <trkpt lat="38.209964" lon="-2.808478">
        <ele>1197.9</ele>
        <time>1989-12-30T23:59:59Z</time>
      </trkpt>
      <trkpt lat="38.209955" lon="-2.808592">
        <ele>1197.0</ele>
        <time>1989-12-30T23:59:59Z</time>
      </trkpt>
      <trkpt lat="38.209933" lon="-2.808689">
        <ele>1196.0</ele>
        <time>1989-12-30T23:59:59Z</time>
      </trkpt>
      <trkpt lat="38.209877" lon="-2.808713">
        <ele>1198.9</ele>
        <time>1989-12-30T23:59:59Z</time>
      </trkpt>
      <trkpt lat="38.209816" lon="-2.808777">
        <ele>1195.5</ele>
        <time>1989-12-30T23:59:59Z</time>
      </trkpt>
      <trkpt lat="38.209719" lon="-2.808848">
        <ele>1195.5</ele>
        <time>1989-12-30T23:59:59Z</time>
      </trkpt>
      <trkpt lat="38.209671" lon="-2.808952">
        <ele>1197.0</ele>
        <time>1989-12-30T23:59:59Z</time>
      </trkpt>
      <trkpt lat="38.209711" lon="-2.809212">
        <ele>1197.0</ele>
        <time>1989-12-30T23:59:59Z</time>
      </trkpt>
      <trkpt lat="38.209681" lon="-2.809284">
        <ele>1195.1</ele>
        <time>1989-12-30T23:59:59Z</time>
      </trkpt>
      <trkpt lat="38.209655" lon="-2.809382">
        <ele>1195.1</ele>
        <time>1989-12-30T23:59:59Z</time>
      </trkpt>
      <trkpt lat="38.209657" lon="-2.809485">
        <ele>1194.1</ele>
        <time>1989-12-30T23:59:59Z</time>
      </trkpt>
      <trkpt lat="38.209627" lon="-2.809569">
        <ele>1192.2</ele>
        <time>1989-12-30T23:59:59Z</time>
      </trkpt>
      <trkpt lat="38.209594" lon="-2.809661">
        <ele>1189.8</ele>
        <time>1989-12-30T23:59:59Z</time>
      </trkpt>
      <trkpt lat="38.209459" lon="-2.809705">
        <ele>1184.0</ele>
        <time>1989-12-30T23:59:59Z</time>
      </trkpt>
      <trkpt lat="38.209399" lon="-2.809672">
        <ele>1184.5</ele>
        <time>1989-12-30T23:59:59Z</time>
      </trkpt>
      <trkpt lat="38.209350" lon="-2.809721">
        <ele>1180.2</ele>
        <time>1989-12-30T23:59:59Z</time>
      </trkpt>
      <trkpt lat="38.209262" lon="-2.809786">
        <ele>1177.8</ele>
        <time>1989-12-30T23:59:59Z</time>
      </trkpt>
      <trkpt lat="38.209211" lon="-2.809886">
        <ele>1175.3</ele>
        <time>1989-12-30T23:59:59Z</time>
      </trkpt>
      <trkpt lat="38.209179" lon="-2.809975">
        <ele>1173.4</ele>
        <time>1989-12-30T23:59:59Z</time>
      </trkpt>
      <trkpt lat="38.209032" lon="-2.810052">
        <ele>1166.7</ele>
        <time>1989-12-30T23:59:59Z</time>
      </trkpt>
      <trkpt lat="38.209049" lon="-2.810195">
        <ele>1170.1</ele>
        <time>1989-12-30T23:59:59Z</time>
      </trkpt>
      <trkpt lat="38.209022" lon="-2.810303">
        <ele>1171.5</ele>
        <time>1989-12-30T23:59:59Z</time>
      </trkpt>
      <trkpt lat="38.209009" lon="-2.810430">
        <ele>1172.9</ele>
        <time>1989-12-30T23:59:59Z</time>
      </trkpt>
      <trkpt lat="38.209082" lon="-2.810546">
        <ele>1172.5</ele>
        <time>1989-12-30T23:59:59Z</time>
      </trkpt>
      <trkpt lat="38.209081" lon="-2.810898">
        <ele>1173.4</ele>
        <time>1989-12-30T23:59:59Z</time>
      </trkpt>
      <trkpt lat="38.209032" lon="-2.810983">
        <ele>1172.9</ele>
        <time>1989-12-30T23:59:59Z</time>
      </trkpt>
      <trkpt lat="38.208974" lon="-2.811049">
        <ele>1170.5</ele>
        <time>1989-12-30T23:59:59Z</time>
      </trkpt>
      <trkpt lat="38.208909" lon="-2.811144">
        <ele>1170.5</ele>
        <time>1989-12-30T23:59:59Z</time>
      </trkpt>
      <trkpt lat="38.208875" lon="-2.811225">
        <ele>1172.5</ele>
        <time>1989-12-30T23:59:59Z</time>
      </trkpt>
      <trkpt lat="38.208805" lon="-2.811361">
        <ele>1172.0</ele>
        <time>1989-12-30T23:59:59Z</time>
      </trkpt>
      <trkpt lat="38.208690" lon="-2.811714">
        <ele>1167.7</ele>
        <time>1989-12-30T23:59:59Z</time>
      </trkpt>
      <trkpt lat="38.208644" lon="-2.811824">
        <ele>1165.7</ele>
        <time>1989-12-30T23:59:59Z</time>
      </trkpt>
      <trkpt lat="38.208621" lon="-2.811947">
        <ele>1165.3</ele>
        <time>1989-12-30T23:59:59Z</time>
      </trkpt>
      <trkpt lat="38.208602" lon="-2.812090">
        <ele>1166.2</ele>
        <time>1989-12-30T23:59:59Z</time>
      </trkpt>
      <trkpt lat="38.208596" lon="-2.812214">
        <ele>1166.7</ele>
        <time>1989-12-30T23:59:59Z</time>
      </trkpt>
      <trkpt lat="38.208589" lon="-2.812345">
        <ele>1166.7</ele>
        <time>1989-12-30T23:59:59Z</time>
      </trkpt>
      <trkpt lat="38.208410" lon="-2.812359">
        <ele>1170.1</ele>
        <time>1989-12-30T23:59:59Z</time>
      </trkpt>
      <trkpt lat="38.208300" lon="-2.812313">
        <ele>1171.0</ele>
        <time>1989-12-30T23:59:59Z</time>
      </trkpt>
      <trkpt lat="38.208225" lon="-2.812227">
        <ele>1171.0</ele>
        <time>1989-12-30T23:59:59Z</time>
      </trkpt>
      <trkpt lat="38.208185" lon="-2.812104">
        <ele>1171.5</ele>
        <time>1989-12-30T23:59:59Z</time>
      </trkpt>
      <trkpt lat="38.208158" lon="-2.812014">
        <ele>1173.9</ele>
        <time>1989-12-30T23:59:59Z</time>
      </trkpt>
      <trkpt lat="38.208073" lon="-2.811948">
        <ele>1174.4</ele>
        <time>1989-12-30T23:59:59Z</time>
      </trkpt>
      <trkpt lat="38.207990" lon="-2.811881">
        <ele>1173.9</ele>
        <time>1989-12-30T23:59:59Z</time>
      </trkpt>
      <trkpt lat="38.207912" lon="-2.811833">
        <ele>1175.3</ele>
        <time>1989-12-30T23:59:59Z</time>
      </trkpt>
      <trkpt lat="38.207747" lon="-2.811636">
        <ele>1175.8</ele>
        <time>1989-12-30T23:59:59Z</time>
      </trkpt>
      <trkpt lat="38.207716" lon="-2.811440">
        <ele>1175.3</ele>
        <time>1989-12-30T23:59:59Z</time>
      </trkpt>
      <trkpt lat="38.207617" lon="-2.811308">
        <ele>1175.3</ele>
        <time>1989-12-30T23:59:59Z</time>
      </trkpt>
      <trkpt lat="38.207499" lon="-2.811240">
        <ele>1175.3</ele>
        <time>1989-12-30T23:59:59Z</time>
      </trkpt>
      <trkpt lat="38.207399" lon="-2.811155">
        <ele>1175.3</ele>
        <time>1989-12-30T23:59:59Z</time>
      </trkpt>
      <trkpt lat="38.207320" lon="-2.811058">
        <ele>1174.4</ele>
        <time>1989-12-30T23:59:59Z</time>
      </trkpt>
      <trkpt lat="38.207324" lon="-2.810857">
        <ele>1165.3</ele>
        <time>1989-12-30T23:59:59Z</time>
      </trkpt>
      <trkpt lat="38.207275" lon="-2.810750">
        <ele>1163.8</ele>
        <time>1989-12-30T23:59:59Z</time>
      </trkpt>
      <trkpt lat="38.207212" lon="-2.810660">
        <ele>1162.9</ele>
        <time>1989-12-30T23:59:59Z</time>
      </trkpt>
      <trkpt lat="38.207122" lon="-2.810579">
        <ele>1162.9</ele>
        <time>1989-12-30T23:59:59Z</time>
      </trkpt>
      <trkpt lat="38.207038" lon="-2.810501">
        <ele>1165.7</ele>
        <time>1989-12-30T23:59:59Z</time>
      </trkpt>
      <trkpt lat="38.206961" lon="-2.810402">
        <ele>1165.7</ele>
        <time>1989-12-30T23:59:59Z</time>
      </trkpt>
      <trkpt lat="38.206889" lon="-2.810299">
        <ele>1165.7</ele>
        <time>1989-12-30T23:59:59Z</time>
      </trkpt>
      <trkpt lat="38.206704" lon="-2.810151">
        <ele>1162.9</ele>
        <time>1989-12-30T23:59:59Z</time>
      </trkpt>
      <trkpt lat="38.206641" lon="-2.810057">
        <ele>1163.8</ele>
        <time>1989-12-30T23:59:59Z</time>
      </trkpt>
      <trkpt lat="38.206602" lon="-2.809967">
        <ele>1164.3</ele>
        <time>1989-12-30T23:59:59Z</time>
      </trkpt>
      <trkpt lat="38.206576" lon="-2.809824">
        <ele>1164.8</ele>
        <time>1989-12-30T23:59:59Z</time>
      </trkpt>
      <trkpt lat="38.206526" lon="-2.809706">
        <ele>1166.7</ele>
        <time>1989-12-30T23:59:59Z</time>
      </trkpt>
      <trkpt lat="38.206498" lon="-2.809582">
        <ele>1167.7</ele>
        <time>1989-12-30T23:59:59Z</time>
      </trkpt>
      <trkpt lat="38.206484" lon="-2.809471">
        <ele>1168.1</ele>
        <time>1989-12-30T23:59:59Z</time>
      </trkpt>
      <trkpt lat="38.206518" lon="-2.809348">
        <ele>1169.1</ele>
        <time>1989-12-30T23:59:59Z</time>
      </trkpt>
      <trkpt lat="38.206596" lon="-2.809257">
        <ele>1170.5</ele>
        <time>1989-12-30T23:59:59Z</time>
      </trkpt>
      <trkpt lat="38.206675" lon="-2.809194">
        <ele>1170.1</ele>
        <time>1989-12-30T23:59:59Z</time>
      </trkpt>
      <trkpt lat="38.206784" lon="-2.809134">
        <ele>1171.0</ele>
        <time>1989-12-30T23:59:59Z</time>
      </trkpt>
      <trkpt lat="38.206879" lon="-2.809097">
        <ele>1172.0</ele>
        <time>1989-12-30T23:59:59Z</time>
      </trkpt>
      <trkpt lat="38.206950" lon="-2.809071">
        <ele>1172.0</ele>
        <time>1989-12-30T23:59:59Z</time>
      </trkpt>
      <trkpt lat="38.207047" lon="-2.809008">
        <ele>1170.5</ele>
        <time>1989-12-30T23:59:59Z</time>
      </trkpt>
      <trkpt lat="38.207148" lon="-2.808988">
        <ele>1171.0</ele>
        <time>1989-12-30T23:59:59Z</time>
      </trkpt>
      <trkpt lat="38.207251" lon="-2.808982">
        <ele>1170.5</ele>
        <time>1989-12-30T23:59:59Z</time>
      </trkpt>
      <trkpt lat="38.207348" lon="-2.808975">
        <ele>1170.5</ele>
        <time>1989-12-30T23:59:59Z</time>
      </trkpt>
      <trkpt lat="38.207431" lon="-2.808928">
        <ele>1170.1</ele>
        <time>1989-12-30T23:59:59Z</time>
      </trkpt>
      <trkpt lat="38.207497" lon="-2.808849">
        <ele>1169.1</ele>
        <time>1989-12-30T23:59:59Z</time>
      </trkpt>
      <trkpt lat="38.207538" lon="-2.808742">
        <ele>1166.7</ele>
        <time>1989-12-30T23:59:59Z</time>
      </trkpt>
      <trkpt lat="38.207547" lon="-2.808619">
        <ele>1166.7</ele>
        <time>1989-12-30T23:59:59Z</time>
      </trkpt>
      <trkpt lat="38.207522" lon="-2.808510">
        <ele>1166.2</ele>
        <time>1989-12-30T23:59:59Z</time>
      </trkpt>
      <trkpt lat="38.207503" lon="-2.808391">
        <ele>1163.8</ele>
        <time>1989-12-30T23:59:59Z</time>
      </trkpt>
      <trkpt lat="38.207511" lon="-2.808330">
        <ele>1157.6</ele>
        <time>1989-12-30T23:59:59Z</time>
      </trkpt>
      <trkpt lat="38.207515" lon="-2.808199">
        <ele>1157.6</ele>
        <time>1989-12-30T23:59:59Z</time>
      </trkpt>
      <trkpt lat="38.207545" lon="-2.808081">
        <ele>1158.0</ele>
        <time>1989-12-30T23:59:59Z</time>
      </trkpt>
      <trkpt lat="38.207593" lon="-2.807935">
        <ele>1158.0</ele>
        <time>1989-12-30T23:59:59Z</time>
      </trkpt>
      <trkpt lat="38.207545" lon="-2.807826">
        <ele>1157.1</ele>
        <time>1989-12-30T23:59:59Z</time>
      </trkpt>
      <trkpt lat="38.207463" lon="-2.807740">
        <ele>1157.1</ele>
        <time>1989-12-30T23:59:59Z</time>
      </trkpt>
      <trkpt lat="38.207364" lon="-2.807664">
        <ele>1157.6</ele>
        <time>1989-12-30T23:59:59Z</time>
      </trkpt>
      <trkpt lat="38.207271" lon="-2.807587">
        <ele>1157.1</ele>
        <time>1989-12-30T23:59:59Z</time>
      </trkpt>
      <trkpt lat="38.207177" lon="-2.807520">
        <ele>1157.1</ele>
        <time>1989-12-30T23:59:59Z</time>
      </trkpt>
      <trkpt lat="38.207079" lon="-2.807465">
        <ele>1157.6</ele>
        <time>1989-12-30T23:59:59Z</time>
      </trkpt>
      <trkpt lat="38.206990" lon="-2.807389">
        <ele>1157.1</ele>
        <time>1989-12-30T23:59:59Z</time>
      </trkpt>
      <trkpt lat="38.206908" lon="-2.807310">
        <ele>1157.1</ele>
        <time>1989-12-30T23:59:59Z</time>
      </trkpt>
      <trkpt lat="38.206829" lon="-2.807234">
        <ele>1156.1</ele>
        <time>1989-12-30T23:59:59Z</time>
      </trkpt>
      <trkpt lat="38.206768" lon="-2.807134">
        <ele>1155.6</ele>
        <time>1989-12-30T23:59:59Z</time>
      </trkpt>
      <trkpt lat="38.206723" lon="-2.807022">
        <ele>1154.2</ele>
        <time>1989-12-30T23:59:59Z</time>
      </trkpt>
      <trkpt lat="38.206702" lon="-2.806899">
        <ele>1152.8</ele>
        <time>1989-12-30T23:59:59Z</time>
      </trkpt>
      <trkpt lat="38.206687" lon="-2.806773">
        <ele>1152.3</ele>
        <time>1989-12-30T23:59:59Z</time>
      </trkpt>
      <trkpt lat="38.206660" lon="-2.806647">
        <ele>1152.3</ele>
        <time>1989-12-30T23:59:59Z</time>
      </trkpt>
      <trkpt lat="38.206627" lon="-2.806522">
        <ele>1152.3</ele>
        <time>1989-12-30T23:59:59Z</time>
      </trkpt>
      <trkpt lat="38.206614" lon="-2.806398">
        <ele>1151.8</ele>
        <time>1989-12-30T23:59:59Z</time>
      </trkpt>
      <trkpt lat="38.206621" lon="-2.806269">
        <ele>1151.8</ele>
        <time>1989-12-30T23:59:59Z</time>
      </trkpt>
      <trkpt lat="38.206630" lon="-2.806141">
        <ele>1151.8</ele>
        <time>1989-12-30T23:59:59Z</time>
      </trkpt>
      <trkpt lat="38.206638" lon="-2.806026">
        <ele>1151.3</ele>
        <time>1989-12-30T23:59:59Z</time>
      </trkpt>
      <trkpt lat="38.206661" lon="-2.805902">
        <ele>1150.8</ele>
        <time>1989-12-30T23:59:59Z</time>
      </trkpt>
      <trkpt lat="38.206689" lon="-2.805788">
        <ele>1149.9</ele>
        <time>1989-12-30T23:59:59Z</time>
      </trkpt>
      <trkpt lat="38.206718" lon="-2.805654">
        <ele>1149.9</ele>
        <time>1989-12-30T23:59:59Z</time>
      </trkpt>
      <trkpt lat="38.206738" lon="-2.805531">
        <ele>1149.4</ele>
        <time>1989-12-30T23:59:59Z</time>
      </trkpt>
      <trkpt lat="38.206745" lon="-2.805397">
        <ele>1149.9</ele>
        <time>1989-12-30T23:59:59Z</time>
      </trkpt>
      <trkpt lat="38.206738" lon="-2.805273">
        <ele>1148.9</ele>
        <time>1989-12-30T23:59:59Z</time>
      </trkpt>
      <trkpt lat="38.206748" lon="-2.805151">
        <ele>1148.4</ele>
        <time>1989-12-30T23:59:59Z</time>
      </trkpt>
      <trkpt lat="38.206748" lon="-2.805030">
        <ele>1148.4</ele>
        <time>1989-12-30T23:59:59Z</time>
      </trkpt>
      <trkpt lat="38.206771" lon="-2.804913">
        <ele>1148.0</ele>
        <time>1989-12-30T23:59:59Z</time>
      </trkpt>
      <trkpt lat="38.206813" lon="-2.804800">
        <ele>1148.4</ele>
        <time>1989-12-30T23:59:59Z</time>
      </trkpt>
      <trkpt lat="38.206878" lon="-2.804694">
        <ele>1148.9</ele>
        <time>1989-12-30T23:59:59Z</time>
      </trkpt>
      <trkpt lat="38.206935" lon="-2.804587">
        <ele>1148.4</ele>
        <time>1989-12-30T23:59:59Z</time>
      </trkpt>
      <trkpt lat="38.206979" lon="-2.804485">
        <ele>1147.0</ele>
        <time>1989-12-30T23:59:59Z</time>
      </trkpt>
      <trkpt lat="38.207032" lon="-2.804371">
        <ele>1148.0</ele>
        <time>1989-12-30T23:59:59Z</time>
      </trkpt>
      <trkpt lat="38.207080" lon="-2.804264">
        <ele>1147.0</ele>
        <time>1989-12-30T23:59:59Z</time>
      </trkpt>
      <trkpt lat="38.207124" lon="-2.804154">
        <ele>1146.0</ele>
        <time>1989-12-30T23:59:59Z</time>
      </trkpt>
      <trkpt lat="38.207163" lon="-2.804050">
        <ele>1144.6</ele>
        <time>1989-12-30T23:59:59Z</time>
      </trkpt>
      <trkpt lat="38.207201" lon="-2.803942">
        <ele>1143.1</ele>
        <time>1989-12-30T23:59:59Z</time>
      </trkpt>
      <trkpt lat="38.207244" lon="-2.803836">
        <ele>1142.2</ele>
        <time>1989-12-30T23:59:59Z</time>
      </trkpt>
      <trkpt lat="38.207264" lon="-2.803718">
        <ele>1139.8</ele>
        <time>1989-12-30T23:59:59Z</time>
      </trkpt>
      <trkpt lat="38.207274" lon="-2.803601">
        <ele>1140.3</ele>
        <time>1989-12-30T23:59:59Z</time>
      </trkpt>
      <trkpt lat="38.207289" lon="-2.803479">
        <ele>1139.8</ele>
        <time>1989-12-30T23:59:59Z</time>
      </trkpt>
      <trkpt lat="38.207301" lon="-2.803343">
        <ele>1139.8</ele>
        <time>1989-12-30T23:59:59Z</time>
      </trkpt>
      <trkpt lat="38.207326" lon="-2.803215">
        <ele>1140.3</ele>
        <time>1989-12-30T23:59:59Z</time>
      </trkpt>
      <trkpt lat="38.207339" lon="-2.803097">
        <ele>1139.8</ele>
        <time>1989-12-30T23:59:59Z</time>
      </trkpt>
      <trkpt lat="38.207387" lon="-2.802983">
        <ele>1141.2</ele>
        <time>1989-12-30T23:59:59Z</time>
      </trkpt>
      <trkpt lat="38.207347" lon="-2.802904">
        <ele>1142.7</ele>
        <time>1989-12-30T23:59:59Z</time>
      </trkpt>
      <trkpt lat="38.207403" lon="-2.802775">
        <ele>1140.7</ele>
        <time>1989-12-30T23:59:59Z</time>
      </trkpt>
      <trkpt lat="38.207470" lon="-2.802681">
        <ele>1139.3</ele>
        <time>1989-12-30T23:59:59Z</time>
      </trkpt>
      <trkpt lat="38.207666" lon="-2.802582">
        <ele>1136.4</ele>
        <time>1989-12-30T23:59:59Z</time>
      </trkpt>
      <trkpt lat="38.207766" lon="-2.802513">
        <ele>1136.4</ele>
        <time>1989-12-30T23:59:59Z</time>
      </trkpt>
      <trkpt lat="38.207916" lon="-2.802359">
        <ele>1135.5</ele>
        <time>1989-12-30T23:59:59Z</time>
      </trkpt>
      <trkpt lat="38.207947" lon="-2.802246">
        <ele>1134.5</ele>
        <time>1989-12-30T23:59:59Z</time>
      </trkpt>
      <trkpt lat="38.207971" lon="-2.802124">
        <ele>1134.0</ele>
        <time>1989-12-30T23:59:59Z</time>
      </trkpt>
      <trkpt lat="38.208008" lon="-2.801999">
        <ele>1133.1</ele>
        <time>1989-12-30T23:59:59Z</time>
      </trkpt>
      <trkpt lat="38.208040" lon="-2.801883">
        <ele>1132.6</ele>
        <time>1989-12-30T23:59:59Z</time>
      </trkpt>
      <trkpt lat="38.208070" lon="-2.801782">
        <ele>1132.1</ele>
        <time>1989-12-30T23:59:59Z</time>
      </trkpt>
      <trkpt lat="38.208104" lon="-2.801654">
        <ele>1132.1</ele>
        <time>1989-12-30T23:59:59Z</time>
      </trkpt>
      <trkpt lat="38.208118" lon="-2.801533">
        <ele>1132.1</ele>
        <time>1989-12-30T23:59:59Z</time>
      </trkpt>
      <trkpt lat="38.208137" lon="-2.801288">
        <ele>1132.1</ele>
        <time>1989-12-30T23:59:59Z</time>
      </trkpt>
      <trkpt lat="38.208076" lon="-2.801196">
        <ele>1134.0</ele>
        <time>1989-12-30T23:59:59Z</time>
      </trkpt>
      <trkpt lat="38.207986" lon="-2.801129">
        <ele>1140.7</ele>
        <time>1989-12-30T23:59:59Z</time>
      </trkpt>
      <trkpt lat="38.207896" lon="-2.801255">
        <ele>1158.5</ele>
        <time>1989-12-30T23:59:59Z</time>
      </trkpt>
      <trkpt lat="38.207854" lon="-2.801327">
        <ele>1131.6</ele>
        <time>1989-12-30T23:59:59Z</time>
      </trkpt>
      <trkpt lat="38.207668" lon="-2.801450">
        <ele>1130.2</ele>
        <time>1989-12-30T23:59:59Z</time>
      </trkpt>
      <trkpt lat="38.207459" lon="-2.801444">
        <ele>1130.2</ele>
        <time>1989-12-30T23:59:59Z</time>
      </trkpt>
      <trkpt lat="38.207301" lon="-2.801313">
        <ele>1126.8</ele>
        <time>1989-12-30T23:59:59Z</time>
      </trkpt>
      <trkpt lat="38.207213" lon="-2.801338">
        <ele>1125.8</ele>
        <time>1989-12-30T23:59:59Z</time>
      </trkpt>
      <trkpt lat="38.206951" lon="-2.801521">
        <ele>1124.9</ele>
        <time>1989-12-30T23:59:59Z</time>
      </trkpt>
      <trkpt lat="38.206697" lon="-2.801630">
        <ele>1122.5</ele>
        <time>1989-12-30T23:59:59Z</time>
      </trkpt>
      <trkpt lat="38.206504" lon="-2.801556">
        <ele>1122.5</ele>
        <time>1989-12-30T23:59:59Z</time>
      </trkpt>
      <trkpt lat="38.206413" lon="-2.801551">
        <ele>1122.5</ele>
        <time>1989-12-30T23:59:59Z</time>
      </trkpt>
      <trkpt lat="38.206304" lon="-2.801592">
        <ele>1123.0</ele>
        <time>1989-12-30T23:59:59Z</time>
      </trkpt>
      <trkpt lat="38.206208" lon="-2.801555">
        <ele>1121.5</ele>
        <time>1989-12-30T23:59:59Z</time>
      </trkpt>
      <trkpt lat="38.206132" lon="-2.801493">
        <ele>1121.0</ele>
        <time>1989-12-30T23:59:59Z</time>
      </trkpt>
      <trkpt lat="38.205999" lon="-2.801313">
        <ele>1116.7</ele>
        <time>1989-12-30T23:59:59Z</time>
      </trkpt>
      <trkpt lat="38.205941" lon="-2.801222">
        <ele>1111.4</ele>
        <time>1989-12-30T23:59:59Z</time>
      </trkpt>
      <trkpt lat="38.205893" lon="-2.801105">
        <ele>1110.5</ele>
        <time>1989-12-30T23:59:59Z</time>
      </trkpt>
      <trkpt lat="38.205860" lon="-2.800977">
        <ele>1109.0</ele>
        <time>1989-12-30T23:59:59Z</time>
      </trkpt>
      <trkpt lat="38.205894" lon="-2.800866">
        <ele>1107.1</ele>
        <time>1989-12-30T23:59:59Z</time>
      </trkpt>
      <trkpt lat="38.206007" lon="-2.800674">
        <ele>1102.8</ele>
        <time>1989-12-30T23:59:59Z</time>
      </trkpt>
      <trkpt lat="38.206003" lon="-2.800553">
        <ele>1102.3</ele>
        <time>1989-12-30T23:59:59Z</time>
      </trkpt>
      <trkpt lat="38.205904" lon="-2.800528">
        <ele>1101.8</ele>
        <time>1989-12-30T23:59:59Z</time>
      </trkpt>
      <trkpt lat="38.205629" lon="-2.800659">
        <ele>1103.7</ele>
        <time>1989-12-30T23:59:59Z</time>
      </trkpt>
      <trkpt lat="38.205378" lon="-2.800848">
        <ele>1102.3</ele>
        <time>1989-12-30T23:59:59Z</time>
      </trkpt>
      <trkpt lat="38.205121" lon="-2.800997">
        <ele>1095.6</ele>
        <time>1989-12-30T23:59:59Z</time>
      </trkpt>
      <trkpt lat="38.205048" lon="-2.801084">
        <ele>1093.2</ele>
        <time>1989-12-30T23:59:59Z</time>
      </trkpt>
      <trkpt lat="38.204980" lon="-2.801170">
        <ele>1091.7</ele>
        <time>1989-12-30T23:59:59Z</time>
      </trkpt>
      <trkpt lat="38.204924" lon="-2.801252">
        <ele>1102.3</ele>
        <time>1989-12-30T23:59:59Z</time>
      </trkpt>
      <trkpt lat="38.204873" lon="-2.801350">
        <ele>1102.8</ele>
        <time>1989-12-30T23:59:59Z</time>
      </trkpt>
      <trkpt lat="38.204835" lon="-2.801459">
        <ele>1100.4</ele>
        <time>1989-12-30T23:59:59Z</time>
      </trkpt>
      <trkpt lat="38.204813" lon="-2.801730">
        <ele>1097.0</ele>
        <time>1989-12-30T23:59:59Z</time>
      </trkpt>
      <trkpt lat="38.204847" lon="-2.801979">
        <ele>1093.6</ele>
        <time>1989-12-30T23:59:59Z</time>
      </trkpt>
      <trkpt lat="38.204938" lon="-2.802032">
        <ele>1093.2</ele>
        <time>1989-12-30T23:59:59Z</time>
      </trkpt>
      <trkpt lat="38.205044" lon="-2.802023">
        <ele>1092.7</ele>
        <time>1989-12-30T23:59:59Z</time>
      </trkpt>
      <trkpt lat="38.205135" lon="-2.802030">
        <ele>1091.2</ele>
        <time>1989-12-30T23:59:59Z</time>
      </trkpt>
      <trkpt lat="38.205196" lon="-2.802137">
        <ele>1090.8</ele>
        <time>1989-12-30T23:59:59Z</time>
      </trkpt>
      <trkpt lat="38.205176" lon="-2.802254">
        <ele>1090.8</ele>
        <time>1989-12-30T23:59:59Z</time>
      </trkpt>
      <trkpt lat="38.205125" lon="-2.802369">
        <ele>1090.8</ele>
        <time>1989-12-30T23:59:59Z</time>
      </trkpt>
      <trkpt lat="38.204971" lon="-2.802682">
        <ele>1084.5</ele>
        <time>1989-12-30T23:59:59Z</time>
      </trkpt>
      <trkpt lat="38.204945" lon="-2.802815">
        <ele>1081.1</ele>
        <time>1989-12-30T23:59:59Z</time>
      </trkpt>
      <trkpt lat="38.204882" lon="-2.802915">
        <ele>1081.1</ele>
        <time>1989-12-30T23:59:59Z</time>
      </trkpt>
      <trkpt lat="38.204797" lon="-2.802994">
        <ele>1082.1</ele>
        <time>1989-12-30T23:59:59Z</time>
      </trkpt>
      <trkpt lat="38.204479" lon="-2.803459">
        <ele>1074.9</ele>
        <time>1989-12-30T23:59:59Z</time>
      </trkpt>
      <trkpt lat="38.204207" lon="-2.803616">
        <ele>1071.0</ele>
        <time>1989-12-30T23:59:59Z</time>
      </trkpt>
      <trkpt lat="38.204102" lon="-2.803670">
        <ele>1071.5</ele>
        <time>1989-12-30T23:59:59Z</time>
      </trkpt>
      <trkpt lat="38.204004" lon="-2.803708">
        <ele>1070.1</ele>
        <time>1989-12-30T23:59:59Z</time>
      </trkpt>
      <trkpt lat="38.203830" lon="-2.803802">
        <ele>1070.6</ele>
        <time>1989-12-30T23:59:59Z</time>
      </trkpt>
      <trkpt lat="38.203747" lon="-2.803868">
        <ele>1069.6</ele>
        <time>1989-12-30T23:59:59Z</time>
      </trkpt>
      <trkpt lat="38.203661" lon="-2.803926">
        <ele>1065.8</ele>
        <time>1989-12-30T23:59:59Z</time>
      </trkpt>
      <trkpt lat="38.203488" lon="-2.804041">
        <ele>1063.8</ele>
        <time>1989-12-30T23:59:59Z</time>
      </trkpt>
      <trkpt lat="38.203296" lon="-2.804131">
        <ele>1057.6</ele>
        <time>1989-12-30T23:59:59Z</time>
      </trkpt>
      <trkpt lat="38.203193" lon="-2.804144">
        <ele>1057.1</ele>
        <time>1989-12-30T23:59:59Z</time>
      </trkpt>
      <trkpt lat="38.203089" lon="-2.804110">
        <ele>1057.1</ele>
        <time>1989-12-30T23:59:59Z</time>
      </trkpt>
      <trkpt lat="38.202931" lon="-2.803935">
        <ele>1054.2</ele>
        <time>1989-12-30T23:59:59Z</time>
      </trkpt>
      <trkpt lat="38.202835" lon="-2.803910">
        <ele>1053.7</ele>
        <time>1989-12-30T23:59:59Z</time>
      </trkpt>
      <trkpt lat="38.202652" lon="-2.803999">
        <ele>1049.9</ele>
        <time>1989-12-30T23:59:59Z</time>
      </trkpt>
      <trkpt lat="38.202458" lon="-2.804012">
        <ele>1046.5</ele>
        <time>1989-12-30T23:59:59Z</time>
      </trkpt>
      <trkpt lat="38.202476" lon="-2.803960">
        <ele>1049.4</ele>
        <time>1989-12-30T23:59:59Z</time>
      </trkpt>
      <trkpt lat="38.202435" lon="-2.804028">
        <ele>1049.9</ele>
        <time>1989-12-30T23:59:59Z</time>
      </trkpt>
      <trkpt lat="38.202285" lon="-2.804163">
        <ele>1048.5</ele>
        <time>1989-12-30T23:59:59Z</time>
      </trkpt>
      <trkpt lat="38.202188" lon="-2.804212">
        <ele>1046.1</ele>
        <time>1989-12-30T23:59:59Z</time>
      </trkpt>
      <trkpt lat="38.201890" lon="-2.804275">
        <ele>1037.9</ele>
        <time>1989-12-30T23:59:59Z</time>
      </trkpt>
      <trkpt lat="38.201627" lon="-2.804494">
        <ele>1036.4</ele>
        <time>1989-12-30T23:59:59Z</time>
      </trkpt>
      <trkpt lat="38.201433" lon="-2.804514">
        <ele>1034.5</ele>
        <time>1989-12-30T23:59:59Z</time>
      </trkpt>
      <trkpt lat="38.201265" lon="-2.804599">
        <ele>1033.1</ele>
        <time>1989-12-30T23:59:59Z</time>
      </trkpt>
      <trkpt lat="38.201162" lon="-2.804611">
        <ele>1032.1</ele>
        <time>1989-12-30T23:59:59Z</time>
      </trkpt>
      <trkpt lat="38.200891" lon="-2.804549">
        <ele>1029.2</ele>
        <time>1989-12-30T23:59:59Z</time>
      </trkpt>
      <trkpt lat="38.200711" lon="-2.804429">
        <ele>1028.3</ele>
        <time>1989-12-30T23:59:59Z</time>
      </trkpt>
      <trkpt lat="38.200586" lon="-2.804253">
        <ele>1027.8</ele>
        <time>1989-12-30T23:59:59Z</time>
      </trkpt>
      <trkpt lat="38.200508" lon="-2.804188">
        <ele>1027.3</ele>
        <time>1989-12-30T23:59:59Z</time>
      </trkpt>
      <trkpt lat="38.200231" lon="-2.804080">
        <ele>1023.9</ele>
        <time>1989-12-30T23:59:59Z</time>
      </trkpt>
      <trkpt lat="38.200075" lon="-2.803943">
        <ele>1022.5</ele>
        <time>1989-12-30T23:59:59Z</time>
      </trkpt>
      <trkpt lat="38.199985" lon="-2.803963">
        <ele>1022.5</ele>
        <time>1989-12-30T23:59:59Z</time>
      </trkpt>
      <trkpt lat="38.199819" lon="-2.804117">
        <ele>1018.2</ele>
        <time>1989-12-30T23:59:59Z</time>
      </trkpt>
      <trkpt lat="38.199718" lon="-2.804130">
        <ele>1017.2</ele>
        <time>1989-12-30T23:59:59Z</time>
      </trkpt>
      <trkpt lat="38.199215" lon="-2.803753">
        <ele>1013.8</ele>
        <time>1989-12-30T23:59:59Z</time>
      </trkpt>
      <trkpt lat="38.199035" lon="-2.803691">
        <ele>1011.9</ele>
        <time>1989-12-30T23:59:59Z</time>
      </trkpt>
      <trkpt lat="38.198934" lon="-2.803715">
        <ele>1017.7</ele>
        <time>1989-12-30T23:59:59Z</time>
      </trkpt>
      <trkpt lat="38.198866" lon="-2.803790">
        <ele>1012.4</ele>
        <time>1989-12-30T23:59:59Z</time>
      </trkpt>
      <trkpt lat="38.198900" lon="-2.803932">
        <ele>1006.2</ele>
        <time>1989-12-30T23:59:59Z</time>
      </trkpt>
      <trkpt lat="38.198935" lon="-2.804052">
        <ele>1005.2</ele>
        <time>1989-12-30T23:59:59Z</time>
      </trkpt>
      <trkpt lat="38.199023" lon="-2.804258">
        <ele>1005.2</ele>
        <time>1989-12-30T23:59:59Z</time>
      </trkpt>
      <trkpt lat="38.199048" lon="-2.804374">
        <ele>1003.8</ele>
        <time>1989-12-30T23:59:59Z</time>
      </trkpt>
      <trkpt lat="38.199112" lon="-2.804613">
        <ele>1005.7</ele>
        <time>1989-12-30T23:59:59Z</time>
      </trkpt>
      <trkpt lat="38.199131" lon="-2.804985">
        <ele>1003.8</ele>
        <time>1989-12-30T23:59:59Z</time>
      </trkpt>
      <trkpt lat="38.199061" lon="-2.805490">
        <ele>1001.8</ele>
        <time>1989-12-30T23:59:59Z</time>
      </trkpt>
      <trkpt lat="38.199093" lon="-2.805852">
        <ele>1000.9</ele>
        <time>1989-12-30T23:59:59Z</time>
      </trkpt>
      <trkpt lat="38.199009" lon="-2.806330">
        <ele>994.6</ele>
        <time>1989-12-30T23:59:59Z</time>
      </trkpt>
      <trkpt lat="38.199034" lon="-2.806460">
        <ele>994.6</ele>
        <time>1989-12-30T23:59:59Z</time>
      </trkpt>
      <trkpt lat="38.199143" lon="-2.806657">
        <ele>992.2</ele>
        <time>1989-12-30T23:59:59Z</time>
      </trkpt>
      <trkpt lat="38.199136" lon="-2.806802">
        <ele>993.2</ele>
        <time>1989-12-30T23:59:59Z</time>
      </trkpt>
      <trkpt lat="38.198965" lon="-2.807243">
        <ele>989.8</ele>
        <time>1989-12-30T23:59:59Z</time>
      </trkpt>
      <trkpt lat="38.198826" lon="-2.807409">
        <ele>988.4</ele>
        <time>1989-12-30T23:59:59Z</time>
      </trkpt>
      <trkpt lat="38.198738" lon="-2.807461">
        <ele>984.5</ele>
        <time>1989-12-30T23:59:59Z</time>
      </trkpt>
      <trkpt lat="38.198665" lon="-2.807541">
        <ele>982.1</ele>
        <time>1989-12-30T23:59:59Z</time>
      </trkpt>
      <trkpt lat="38.198572" lon="-2.807765">
        <ele>979.2</ele>
        <time>1989-12-30T23:59:59Z</time>
      </trkpt>
      <trkpt lat="38.198474" lon="-2.807790">
        <ele>978.3</ele>
        <time>1989-12-30T23:59:59Z</time>
      </trkpt>
      <trkpt lat="38.198269" lon="-2.807765">
        <ele>976.8</ele>
        <time>1989-12-30T23:59:59Z</time>
      </trkpt>
      <trkpt lat="38.198185" lon="-2.807810">
        <ele>976.4</ele>
        <time>1989-12-30T23:59:59Z</time>
      </trkpt>
      <trkpt lat="38.198192" lon="-2.807923">
        <ele>976.4</ele>
        <time>1989-12-30T23:59:59Z</time>
      </trkpt>
      <trkpt lat="38.198321" lon="-2.808265">
        <ele>975.9</ele>
        <time>1989-12-30T23:59:59Z</time>
      </trkpt>
      <trkpt lat="38.198321" lon="-2.808390">
        <ele>975.9</ele>
        <time>1989-12-30T23:59:59Z</time>
      </trkpt>
      <trkpt lat="38.198212" lon="-2.808616">
        <ele>973.5</ele>
        <time>1989-12-30T23:59:59Z</time>
      </trkpt>
      <trkpt lat="38.198179" lon="-2.808726">
        <ele>975.4</ele>
        <time>1989-12-30T23:59:59Z</time>
      </trkpt>
      <trkpt lat="38.198164" lon="-2.808835">
        <ele>974.4</ele>
        <time>1989-12-30T23:59:59Z</time>
      </trkpt>
      <trkpt lat="38.198173" lon="-2.808727">
        <ele>972.5</ele>
        <time>1989-12-30T23:59:59Z</time>
      </trkpt>
      <trkpt lat="38.198153" lon="-2.808845">
        <ele>975.4</ele>
        <time>1989-12-30T23:59:59Z</time>
      </trkpt>
      <trkpt lat="38.197920" lon="-2.809094">
        <ele>973.5</ele>
        <time>1989-12-30T23:59:59Z</time>
      </trkpt>
      <trkpt lat="38.197853" lon="-2.809320">
        <ele>971.5</ele>
        <time>1989-12-30T23:59:59Z</time>
      </trkpt>
      <trkpt lat="38.197716" lon="-2.809502">
        <ele>969.1</ele>
        <time>1989-12-30T23:59:59Z</time>
      </trkpt>
      <trkpt lat="38.197513" lon="-2.809492">
        <ele>964.8</ele>
        <time>1989-12-30T23:59:59Z</time>
      </trkpt>
      <trkpt lat="38.197438" lon="-2.809555">
        <ele>962.4</ele>
        <time>1989-12-30T23:59:59Z</time>
      </trkpt>
      <trkpt lat="38.197451" lon="-2.809683">
        <ele>961.5</ele>
        <time>1989-12-30T23:59:59Z</time>
      </trkpt>
      <trkpt lat="38.197556" lon="-2.809890">
        <ele>961.0</ele>
        <time>1989-12-30T23:59:59Z</time>
      </trkpt>
      <trkpt lat="38.197646" lon="-2.809939">
        <ele>960.5</ele>
        <time>1989-12-30T23:59:59Z</time>
      </trkpt>
      <trkpt lat="38.197694" lon="-2.809962">
        <ele>962.4</ele>
        <time>1989-12-30T23:59:59Z</time>
      </trkpt>
      <trkpt lat="38.197795" lon="-2.809967">
        <ele>961.0</ele>
        <time>1989-12-30T23:59:59Z</time>
      </trkpt>
      <trkpt lat="38.197851" lon="-2.809998">
        <ele>955.7</ele>
        <time>1989-12-30T23:59:59Z</time>
      </trkpt>
      <trkpt lat="38.197931" lon="-2.809994">
        <ele>956.6</ele>
        <time>1989-12-30T23:59:59Z</time>
      </trkpt>
      <trkpt lat="38.197854" lon="-2.810073">
        <ele>956.6</ele>
        <time>1989-12-30T23:59:59Z</time>
      </trkpt>
      <trkpt lat="38.197759" lon="-2.810065">
        <ele>955.2</ele>
        <time>1989-12-30T23:59:59Z</time>
      </trkpt>
      <trkpt lat="38.197678" lon="-2.810079">
        <ele>957.1</ele>
        <time>1989-12-30T23:59:59Z</time>
      </trkpt>
      <trkpt lat="38.197467" lon="-2.810095">
        <ele>953.3</ele>
        <time>1989-12-30T23:59:59Z</time>
      </trkpt>
      <trkpt lat="38.197275" lon="-2.810081">
        <ele>951.8</ele>
        <time>1989-12-30T23:59:59Z</time>
      </trkpt>
      <trkpt lat="38.197073" lon="-2.810108">
        <ele>949.0</ele>
        <time>1989-12-30T23:59:59Z</time>
      </trkpt>
      <trkpt lat="38.196980" lon="-2.810181">
        <ele>947.5</ele>
        <time>1989-12-30T23:59:59Z</time>
      </trkpt>
      <trkpt lat="38.196785" lon="-2.810453">
        <ele>944.2</ele>
        <time>1989-12-30T23:59:59Z</time>
      </trkpt>
      <trkpt lat="38.196688" lon="-2.810509">
        <ele>942.7</ele>
        <time>1989-12-30T23:59:59Z</time>
      </trkpt>
      <trkpt lat="38.196613" lon="-2.810453">
        <ele>942.2</ele>
        <time>1989-12-30T23:59:59Z</time>
      </trkpt>
      <trkpt lat="38.196574" lon="-2.810333">
        <ele>940.8</ele>
        <time>1989-12-30T23:59:59Z</time>
      </trkpt>
      <trkpt lat="38.196495" lon="-2.810272">
        <ele>940.3</ele>
        <time>1989-12-30T23:59:59Z</time>
      </trkpt>
      <trkpt lat="38.196423" lon="-2.810353">
        <ele>940.8</ele>
        <time>1989-12-30T23:59:59Z</time>
      </trkpt>
      <trkpt lat="38.196246" lon="-2.810795">
        <ele>941.7</ele>
        <time>1989-12-30T23:59:59Z</time>
      </trkpt>
      <trkpt lat="38.196122" lon="-2.810993">
        <ele>942.2</ele>
        <time>1989-12-30T23:59:59Z</time>
      </trkpt>
      <trkpt lat="38.196074" lon="-2.811091">
        <ele>941.3</ele>
        <time>1989-12-30T23:59:59Z</time>
      </trkpt>
      <trkpt lat="38.196060" lon="-2.811211">
        <ele>940.3</ele>
        <time>1989-12-30T23:59:59Z</time>
      </trkpt>
      <trkpt lat="38.196100" lon="-2.811596">
        <ele>936.9</ele>
        <time>1989-12-30T23:59:59Z</time>
      </trkpt>
      <trkpt lat="38.196007" lon="-2.811834">
        <ele>934.5</ele>
        <time>1989-12-30T23:59:59Z</time>
      </trkpt>
      <trkpt lat="38.195933" lon="-2.811928">
        <ele>933.1</ele>
        <time>1989-12-30T23:59:59Z</time>
      </trkpt>
      <trkpt lat="38.195760" lon="-2.812079">
        <ele>930.2</ele>
        <time>1989-12-30T23:59:59Z</time>
      </trkpt>
      <trkpt lat="38.195605" lon="-2.812204">
        <ele>929.7</ele>
        <time>1989-12-30T23:59:59Z</time>
      </trkpt>
      <trkpt lat="38.195448" lon="-2.812331">
        <ele>924.9</ele>
        <time>1989-12-30T23:59:59Z</time>
      </trkpt>
      <trkpt lat="38.195179" lon="-2.812527">
        <ele>924.9</ele>
        <time>1989-12-30T23:59:59Z</time>
      </trkpt>
      <trkpt lat="38.195081" lon="-2.812556">
        <ele>924.0</ele>
        <time>1989-12-30T23:59:59Z</time>
      </trkpt>
      <trkpt lat="38.194986" lon="-2.812526">
        <ele>923.0</ele>
        <time>1989-12-30T23:59:59Z</time>
      </trkpt>
      <trkpt lat="38.194905" lon="-2.812502">
        <ele>925.9</ele>
        <time>1989-12-30T23:59:59Z</time>
      </trkpt>
      <trkpt lat="38.194843" lon="-2.812411">
        <ele>924.9</ele>
        <time>1989-12-30T23:59:59Z</time>
      </trkpt>
      <trkpt lat="38.194759" lon="-2.812417">
        <ele>924.9</ele>
        <time>1989-12-30T23:59:59Z</time>
      </trkpt>
      <trkpt lat="38.194702" lon="-2.812519">
        <ele>925.4</ele>
        <time>1989-12-30T23:59:59Z</time>
      </trkpt>
      <trkpt lat="38.194628" lon="-2.812585">
        <ele>924.4</ele>
        <time>1989-12-30T23:59:59Z</time>
      </trkpt>
      <trkpt lat="38.194521" lon="-2.812613">
        <ele>923.5</ele>
        <time>1989-12-30T23:59:59Z</time>
      </trkpt>
      <trkpt lat="38.194331" lon="-2.812600">
        <ele>921.1</ele>
        <time>1989-12-30T23:59:59Z</time>
      </trkpt>
      <trkpt lat="38.194266" lon="-2.812568">
        <ele>916.8</ele>
        <time>1989-12-30T23:59:59Z</time>
      </trkpt>
      <trkpt lat="38.194178" lon="-2.812561">
        <ele>913.9</ele>
        <time>1989-12-30T23:59:59Z</time>
      </trkpt>
      <trkpt lat="38.193973" lon="-2.812601">
        <ele>911.5</ele>
        <time>1989-12-30T23:59:59Z</time>
      </trkpt>
      <trkpt lat="38.193865" lon="-2.812588">
        <ele>910.5</ele>
        <time>1989-12-30T23:59:59Z</time>
      </trkpt>
      <trkpt lat="38.193762" lon="-2.812609">
        <ele>910.0</ele>
        <time>1989-12-30T23:59:59Z</time>
      </trkpt>
      <trkpt lat="38.193494" lon="-2.812758">
        <ele>908.1</ele>
        <time>1989-12-30T23:59:59Z</time>
      </trkpt>
      <trkpt lat="38.193409" lon="-2.812828">
        <ele>907.1</ele>
        <time>1989-12-30T23:59:59Z</time>
      </trkpt>
      <trkpt lat="38.193036" lon="-2.813247">
        <ele>909.5</ele>
        <time>1989-12-30T23:59:59Z</time>
      </trkpt>
      <trkpt lat="38.192888" lon="-2.813402">
        <ele>911.5</ele>
        <time>1989-12-30T23:59:59Z</time>
      </trkpt>
      <trkpt lat="38.192810" lon="-2.813444">
        <ele>911.9</ele>
        <time>1989-12-30T23:59:59Z</time>
      </trkpt>
      <trkpt lat="38.192754" lon="-2.813408">
        <ele>917.2</ele>
        <time>1989-12-30T23:59:59Z</time>
      </trkpt>
      <trkpt lat="38.192750" lon="-2.813409">
        <ele>910.5</ele>
        <time>1989-12-30T23:59:59Z</time>
      </trkpt>
      <trkpt lat="38.192698" lon="-2.813156">
        <ele>910.0</ele>
        <time>1989-12-30T23:59:59Z</time>
      </trkpt>
      <trkpt lat="38.192690" lon="-2.812900">
        <ele>911.0</ele>
        <time>1989-12-30T23:59:59Z</time>
      </trkpt>
      <trkpt lat="38.192708" lon="-2.812649">
        <ele>911.9</ele>
        <time>1989-12-30T23:59:59Z</time>
      </trkpt>
      <trkpt lat="38.192747" lon="-2.812537">
        <ele>912.4</ele>
        <time>1989-12-30T23:59:59Z</time>
      </trkpt>
      <trkpt lat="38.192964" lon="-2.812316">
        <ele>912.9</ele>
        <time>1989-12-30T23:59:59Z</time>
      </trkpt>
      <trkpt lat="38.192952" lon="-2.812205">
        <ele>913.4</ele>
        <time>1989-12-30T23:59:59Z</time>
      </trkpt>
      <trkpt lat="38.192874" lon="-2.812152">
        <ele>911.9</ele>
        <time>1989-12-30T23:59:59Z</time>
      </trkpt>
      <trkpt lat="38.192586" lon="-2.812115">
        <ele>908.6</ele>
        <time>1989-12-30T23:59:59Z</time>
      </trkpt>
      <trkpt lat="38.192389" lon="-2.812059">
        <ele>905.2</ele>
        <time>1989-12-30T23:59:59Z</time>
      </trkpt>
      <trkpt lat="38.192198" lon="-2.811991">
        <ele>901.4</ele>
        <time>1989-12-30T23:59:59Z</time>
      </trkpt>
      <trkpt lat="38.192113" lon="-2.811944">
        <ele>899.5</ele>
        <time>1989-12-30T23:59:59Z</time>
      </trkpt>
      <trkpt lat="38.191907" lon="-2.811966">
        <ele>896.1</ele>
        <time>1989-12-30T23:59:59Z</time>
      </trkpt>
      <trkpt lat="38.191707" lon="-2.812047">
        <ele>895.1</ele>
        <time>1989-12-30T23:59:59Z</time>
      </trkpt>
      <trkpt lat="38.191609" lon="-2.812056">
        <ele>894.6</ele>
        <time>1989-12-30T23:59:59Z</time>
      </trkpt>
      <trkpt lat="38.191456" lon="-2.811914">
        <ele>892.2</ele>
        <time>1989-12-30T23:59:59Z</time>
      </trkpt>
      <trkpt lat="38.191277" lon="-2.811812">
        <ele>888.9</ele>
        <time>1989-12-30T23:59:59Z</time>
      </trkpt>
      <trkpt lat="38.191028" lon="-2.811614">
        <ele>884.1</ele>
        <time>1989-12-30T23:59:59Z</time>
      </trkpt>
      <trkpt lat="38.190933" lon="-2.811625">
        <ele>882.1</ele>
        <time>1989-12-30T23:59:59Z</time>
      </trkpt>
      <trkpt lat="38.190866" lon="-2.811715">
        <ele>881.2</ele>
        <time>1989-12-30T23:59:59Z</time>
      </trkpt>
      <trkpt lat="38.190834" lon="-2.811842">
        <ele>880.7</ele>
        <time>1989-12-30T23:59:59Z</time>
      </trkpt>
      <trkpt lat="38.190783" lon="-2.811938">
        <ele>879.3</ele>
        <time>1989-12-30T23:59:59Z</time>
      </trkpt>
      <trkpt lat="38.190550" lon="-2.812154">
        <ele>874.0</ele>
        <time>1989-12-30T23:59:59Z</time>
      </trkpt>
      <trkpt lat="38.190458" lon="-2.812180">
        <ele>872.5</ele>
        <time>1989-12-30T23:59:59Z</time>
      </trkpt>
      <trkpt lat="38.190362" lon="-2.812149">
        <ele>870.6</ele>
        <time>1989-12-30T23:59:59Z</time>
      </trkpt>
      <trkpt lat="38.190266" lon="-2.812145">
        <ele>869.2</ele>
        <time>1989-12-30T23:59:59Z</time>
      </trkpt>
      <trkpt lat="38.190182" lon="-2.812214">
        <ele>867.7</ele>
        <time>1989-12-30T23:59:59Z</time>
      </trkpt>
      <trkpt lat="38.190073" lon="-2.812431">
        <ele>863.4</ele>
        <time>1989-12-30T23:59:59Z</time>
      </trkpt>
      <trkpt lat="38.189840" lon="-2.813101">
        <ele>854.3</ele>
        <time>1989-12-30T23:59:59Z</time>
      </trkpt>
      <trkpt lat="38.189704" lon="-2.813270">
        <ele>851.9</ele>
        <time>1989-12-30T23:59:59Z</time>
      </trkpt>
      <trkpt lat="38.189673" lon="-2.813350">
        <ele>850.9</ele>
        <time>1989-12-30T23:59:59Z</time>
      </trkpt>
      <trkpt lat="38.189737" lon="-2.813443">
        <ele>851.4</ele>
        <time>1989-12-30T23:59:59Z</time>
      </trkpt>
      <trkpt lat="38.189835" lon="-2.813451">
        <ele>850.4</ele>
        <time>1989-12-30T23:59:59Z</time>
      </trkpt>
      <trkpt lat="38.189936" lon="-2.813430">
        <ele>849.9</ele>
        <time>1989-12-30T23:59:59Z</time>
      </trkpt>
      <trkpt lat="38.190035" lon="-2.813376">
        <ele>849.9</ele>
        <time>1989-12-30T23:59:59Z</time>
      </trkpt>
      <trkpt lat="38.190182" lon="-2.813238">
        <ele>847.5</ele>
        <time>1989-12-30T23:59:59Z</time>
      </trkpt>
      <trkpt lat="38.190183" lon="-2.813226">
        <ele>845.6</ele>
        <time>1989-12-30T23:59:59Z</time>
      </trkpt>
      <trkpt lat="38.190216" lon="-2.813137">
        <ele>844.2</ele>
        <time>1989-12-30T23:59:59Z</time>
      </trkpt>
      <trkpt lat="38.190281" lon="-2.813067">
        <ele>843.2</ele>
        <time>1989-12-30T23:59:59Z</time>
      </trkpt>
      <trkpt lat="38.190375" lon="-2.813104">
        <ele>843.2</ele>
        <time>1989-12-30T23:59:59Z</time>
      </trkpt>
      <trkpt lat="38.190549" lon="-2.813209">
        <ele>842.3</ele>
        <time>1989-12-30T23:59:59Z</time>
      </trkpt>
      <trkpt lat="38.190737" lon="-2.813180">
        <ele>841.3</ele>
        <time>1989-12-30T23:59:59Z</time>
      </trkpt>
      <trkpt lat="38.190805" lon="-2.813255">
        <ele>843.2</ele>
        <time>1989-12-30T23:59:59Z</time>
      </trkpt>
      <trkpt lat="38.190886" lon="-2.813477">
        <ele>846.6</ele>
        <time>1989-12-30T23:59:59Z</time>
      </trkpt>
      <trkpt lat="38.190955" lon="-2.813517">
        <ele>849.5</ele>
        <time>1989-12-30T23:59:59Z</time>
      </trkpt>
      <trkpt lat="38.191061" lon="-2.813520">
        <ele>848.5</ele>
        <time>1989-12-30T23:59:59Z</time>
      </trkpt>
      <trkpt lat="38.191241" lon="-2.813595">
        <ele>845.1</ele>
        <time>1989-12-30T23:59:59Z</time>
      </trkpt>
      <trkpt lat="38.191265" lon="-2.813704">
        <ele>843.2</ele>
        <time>1989-12-30T23:59:59Z</time>
      </trkpt>
      <trkpt lat="38.191236" lon="-2.813817">
        <ele>846.1</ele>
        <time>1989-12-30T23:59:59Z</time>
      </trkpt>
      <trkpt lat="38.191013" lon="-2.814094">
        <ele>844.2</ele>
        <time>1989-12-30T23:59:59Z</time>
      </trkpt>
      <trkpt lat="38.190849" lon="-2.814380">
        <ele>846.6</ele>
        <time>1989-12-30T23:59:59Z</time>
      </trkpt>
      <trkpt lat="38.190490" lon="-2.814948">
        <ele>848.0</ele>
        <time>1989-12-30T23:59:59Z</time>
      </trkpt>
      <trkpt lat="38.190392" lon="-2.815162">
        <ele>849.9</ele>
        <time>1989-12-30T23:59:59Z</time>
      </trkpt>
      <trkpt lat="38.190368" lon="-2.815274">
        <ele>850.9</ele>
        <time>1989-12-30T23:59:59Z</time>
      </trkpt>
      <trkpt lat="38.190380" lon="-2.815387">
        <ele>851.4</ele>
        <time>1989-12-30T23:59:59Z</time>
      </trkpt>
      <trkpt lat="38.190474" lon="-2.815647">
        <ele>850.9</ele>
        <time>1989-12-30T23:59:59Z</time>
      </trkpt>
      <trkpt lat="38.190575" lon="-2.815691">
        <ele>853.8</ele>
        <time>1989-12-30T23:59:59Z</time>
      </trkpt>
      <trkpt lat="38.190852" lon="-2.815762">
        <ele>852.8</ele>
        <time>1989-12-30T23:59:59Z</time>
      </trkpt>
      <trkpt lat="38.191129" lon="-2.815807">
        <ele>853.8</ele>
        <time>1989-12-30T23:59:59Z</time>
      </trkpt>
      <trkpt lat="38.191431" lon="-2.815803">
        <ele>853.3</ele>
        <time>1989-12-30T23:59:59Z</time>
      </trkpt>
      <trkpt lat="38.191500" lon="-2.815774">
        <ele>856.2</ele>
        <time>1989-12-30T23:59:59Z</time>
      </trkpt>
      <trkpt lat="38.191508" lon="-2.815783">
        <ele>856.7</ele>
        <time>1989-12-30T23:59:59Z</time>
      </trkpt>
      <trkpt lat="38.191581" lon="-2.815781">
        <ele>856.2</ele>
        <time>1989-12-30T23:59:59Z</time>
      </trkpt>
      <trkpt lat="38.191702" lon="-2.815827">
        <ele>856.2</ele>
        <time>1989-12-30T23:59:59Z</time>
      </trkpt>
      <trkpt lat="38.191757" lon="-2.815777">
        <ele>856.2</ele>
        <time>1989-12-30T23:59:59Z</time>
      </trkpt>
      <trkpt lat="38.191852" lon="-2.815786">
        <ele>854.7</ele>
        <time>1989-12-30T23:59:59Z</time>
      </trkpt>
      <trkpt lat="38.192038" lon="-2.815896">
        <ele>851.9</ele>
        <time>1989-12-30T23:59:59Z</time>
      </trkpt>
      <trkpt lat="38.192163" lon="-2.816084">
        <ele>851.9</ele>
        <time>1989-12-30T23:59:59Z</time>
      </trkpt>
      <trkpt lat="38.192204" lon="-2.816201">
        <ele>852.3</ele>
        <time>1989-12-30T23:59:59Z</time>
      </trkpt>
      <trkpt lat="38.192219" lon="-2.816304">
        <ele>853.8</ele>
        <time>1989-12-30T23:59:59Z</time>
      </trkpt>
      <trkpt lat="38.192205" lon="-2.816447">
        <ele>851.9</ele>
        <time>1989-12-30T23:59:59Z</time>
      </trkpt>
      <trkpt lat="38.192128" lon="-2.816674">
        <ele>852.3</ele>
        <time>1989-12-30T23:59:59Z</time>
      </trkpt>
      <trkpt lat="38.192133" lon="-2.816791">
        <ele>852.8</ele>
        <time>1989-12-30T23:59:59Z</time>
      </trkpt>
      <trkpt lat="38.192169" lon="-2.816906">
        <ele>851.9</ele>
        <time>1989-12-30T23:59:59Z</time>
      </trkpt>
      <trkpt lat="38.192205" lon="-2.817159">
        <ele>850.9</ele>
        <time>1989-12-30T23:59:59Z</time>
      </trkpt>
      <trkpt lat="38.192193" lon="-2.817282">
        <ele>849.5</ele>
        <time>1989-12-30T23:59:59Z</time>
      </trkpt>
      <trkpt lat="38.192140" lon="-2.817486">
        <ele>847.5</ele>
        <time>1989-12-30T23:59:59Z</time>
      </trkpt>
      <trkpt lat="38.192087" lon="-2.817601">
        <ele>847.5</ele>
        <time>1989-12-30T23:59:59Z</time>
      </trkpt>
      <trkpt lat="38.192087" lon="-2.817711">
        <ele>845.6</ele>
        <time>1989-12-30T23:59:59Z</time>
      </trkpt>
      <trkpt lat="38.191984" lon="-2.817914">
        <ele>844.2</ele>
        <time>1989-12-30T23:59:59Z</time>
      </trkpt>
      <trkpt lat="38.191896" lon="-2.817968">
        <ele>843.2</ele>
        <time>1989-12-30T23:59:59Z</time>
      </trkpt>
      <trkpt lat="38.191784" lon="-2.817971">
        <ele>842.7</ele>
        <time>1989-12-30T23:59:59Z</time>
      </trkpt>
      <trkpt lat="38.191686" lon="-2.817973">
        <ele>839.8</ele>
        <time>1989-12-30T23:59:59Z</time>
      </trkpt>
      <trkpt lat="38.191428" lon="-2.818028">
        <ele>832.6</ele>
        <time>1989-12-30T23:59:59Z</time>
      </trkpt>
      <trkpt lat="38.191090" lon="-2.818227">
        <ele>826.4</ele>
        <time>1989-12-30T23:59:59Z</time>
      </trkpt>
      <trkpt lat="38.191008" lon="-2.818294">
        <ele>823.5</ele>
        <time>1989-12-30T23:59:59Z</time>
      </trkpt>
      <trkpt lat="38.190966" lon="-2.818407">
        <ele>821.6</ele>
        <time>1989-12-30T23:59:59Z</time>
      </trkpt>
      <trkpt lat="38.190961" lon="-2.818537">
        <ele>818.7</ele>
        <time>1989-12-30T23:59:59Z</time>
      </trkpt>
      <trkpt lat="38.190903" lon="-2.818644">
        <ele>817.3</ele>
        <time>1989-12-30T23:59:59Z</time>
      </trkpt>
      <trkpt lat="38.190704" lon="-2.818690">
        <ele>814.4</ele>
        <time>1989-12-30T23:59:59Z</time>
      </trkpt>
      <trkpt lat="38.190528" lon="-2.818671">
        <ele>811.0</ele>
        <time>1989-12-30T23:59:59Z</time>
      </trkpt>
      <trkpt lat="38.190433" lon="-2.818703">
        <ele>804.3</ele>
        <time>1989-12-30T23:59:59Z</time>
      </trkpt>
      <trkpt lat="38.190350" lon="-2.818716">
        <ele>807.2</ele>
        <time>1989-12-30T23:59:59Z</time>
      </trkpt>
      <trkpt lat="38.190237" lon="-2.818744">
        <ele>805.7</ele>
        <time>1989-12-30T23:59:59Z</time>
      </trkpt>
      <trkpt lat="38.190141" lon="-2.818748">
        <ele>805.7</ele>
        <time>1989-12-30T23:59:59Z</time>
      </trkpt>
      <trkpt lat="38.190000" lon="-2.818827">
        <ele>806.7</ele>
        <time>1989-12-30T23:59:59Z</time>
      </trkpt>
      <trkpt lat="38.189868" lon="-2.819001">
        <ele>805.2</ele>
        <time>1989-12-30T23:59:59Z</time>
      </trkpt>
      <trkpt lat="38.189782" lon="-2.819066">
        <ele>803.3</ele>
        <time>1989-12-30T23:59:59Z</time>
      </trkpt>
      <trkpt lat="38.189693" lon="-2.819086">
        <ele>802.4</ele>
        <time>1989-12-30T23:59:59Z</time>
      </trkpt>
      <trkpt lat="38.189215" lon="-2.819045">
        <ele>798.0</ele>
        <time>1989-12-30T23:59:59Z</time>
      </trkpt>
      <trkpt lat="38.188941" lon="-2.818879">
        <ele>792.3</ele>
        <time>1989-12-30T23:59:59Z</time>
      </trkpt>
      <trkpt lat="38.188770" lon="-2.818742">
        <ele>789.9</ele>
        <time>1989-12-30T23:59:59Z</time>
      </trkpt>
      <trkpt lat="38.188678" lon="-2.818684">
        <ele>786.5</ele>
        <time>1989-12-30T23:59:59Z</time>
      </trkpt>
      <trkpt lat="38.188497" lon="-2.818591">
        <ele>784.6</ele>
        <time>1989-12-30T23:59:59Z</time>
      </trkpt>
      <trkpt lat="38.188329" lon="-2.818390">
        <ele>781.2</ele>
        <time>1989-12-30T23:59:59Z</time>
      </trkpt>
      <trkpt lat="38.188159" lon="-2.818326">
        <ele>783.6</ele>
        <time>1989-12-30T23:59:59Z</time>
      </trkpt>
      <trkpt lat="38.188008" lon="-2.818391">
        <ele>787.0</ele>
        <time>1989-12-30T23:59:59Z</time>
      </trkpt>
      <trkpt lat="38.187808" lon="-2.818525">
        <ele>786.5</ele>
        <time>1989-12-30T23:59:59Z</time>
      </trkpt>
      <trkpt lat="38.187635" lon="-2.818617">
        <ele>788.9</ele>
        <time>1989-12-30T23:59:59Z</time>
      </trkpt>
      <trkpt lat="38.187448" lon="-2.818674">
        <ele>786.5</ele>
        <time>1989-12-30T23:59:59Z</time>
      </trkpt>
      <trkpt lat="38.187340" lon="-2.818680">
        <ele>786.0</ele>
        <time>1989-12-30T23:59:59Z</time>
      </trkpt>
      <trkpt lat="38.187230" lon="-2.818683">
        <ele>787.0</ele>
        <time>1989-12-30T23:59:59Z</time>
      </trkpt>
      <trkpt lat="38.187035" lon="-2.818735">
        <ele>790.3</ele>
        <time>1989-12-30T23:59:59Z</time>
      </trkpt>
      <trkpt lat="38.187015" lon="-2.818716">
        <ele>793.2</ele>
        <time>1989-12-30T23:59:59Z</time>
      </trkpt>
      <trkpt lat="38.186947" lon="-2.818833">
        <ele>793.7</ele>
        <time>1989-12-30T23:59:59Z</time>
      </trkpt>
      <trkpt lat="38.186900" lon="-2.819084">
        <ele>795.6</ele>
        <time>1989-12-30T23:59:59Z</time>
      </trkpt>
      <trkpt lat="38.186699" lon="-2.819522">
        <ele>794.2</ele>
        <time>1989-12-30T23:59:59Z</time>
      </trkpt>
      <trkpt lat="38.186664" lon="-2.819635">
        <ele>793.7</ele>
        <time>1989-12-30T23:59:59Z</time>
      </trkpt>
      <trkpt lat="38.186647" lon="-2.819760">
        <ele>797.6</ele>
        <time>1989-12-30T23:59:59Z</time>
      </trkpt>
      <trkpt lat="38.186635" lon="-2.819877">
        <ele>797.1</ele>
        <time>1989-12-30T23:59:59Z</time>
      </trkpt>
      <trkpt lat="38.186584" lon="-2.819974">
        <ele>794.2</ele>
        <time>1989-12-30T23:59:59Z</time>
      </trkpt>
      <trkpt lat="38.186576" lon="-2.820243">
        <ele>789.4</ele>
        <time>1989-12-30T23:59:59Z</time>
      </trkpt>
      <trkpt lat="38.186536" lon="-2.820643">
        <ele>786.0</ele>
        <time>1989-12-30T23:59:59Z</time>
      </trkpt>
      <trkpt lat="38.186434" lon="-2.821041">
        <ele>783.1</ele>
        <time>1989-12-30T23:59:59Z</time>
      </trkpt>
      <trkpt lat="38.186379" lon="-2.821159">
        <ele>779.3</ele>
        <time>1989-12-30T23:59:59Z</time>
      </trkpt>
      <trkpt lat="38.186296" lon="-2.821095">
        <ele>777.8</ele>
        <time>1989-12-30T23:59:59Z</time>
      </trkpt>
      <trkpt lat="38.186246" lon="-2.821008">
        <ele>774.5</ele>
        <time>1989-12-30T23:59:59Z</time>
      </trkpt>
      <trkpt lat="38.186113" lon="-2.821024">
        <ele>773.0</ele>
        <time>1989-12-30T23:59:59Z</time>
      </trkpt>
      <trkpt lat="38.186038" lon="-2.821184">
        <ele>769.7</ele>
        <time>1989-12-30T23:59:59Z</time>
      </trkpt>
      <trkpt lat="38.185975" lon="-2.821320">
        <ele>767.3</ele>
        <time>1989-12-30T23:59:59Z</time>
      </trkpt>
      <trkpt lat="38.186047" lon="-2.821436">
        <ele>768.7</ele>
        <time>1989-12-30T23:59:59Z</time>
      </trkpt>
      <trkpt lat="38.186152" lon="-2.821731">
        <ele>766.3</ele>
        <time>1989-12-30T23:59:59Z</time>
      </trkpt>
      <trkpt lat="38.186274" lon="-2.821852">
        <ele>762.0</ele>
        <time>1989-12-30T23:59:59Z</time>
      </trkpt>
      <trkpt lat="38.186292" lon="-2.821930">
        <ele>756.2</ele>
        <time>1989-12-30T23:59:59Z</time>
      </trkpt>
      <trkpt lat="38.186252" lon="-2.821961">
        <ele>760.1</ele>
        <time>1989-12-30T23:59:59Z</time>
      </trkpt>
      <trkpt lat="38.186250" lon="-2.822136">
        <ele>751.9</ele>
        <time>1989-12-30T23:59:59Z</time>
      </trkpt>
      <trkpt lat="38.186290" lon="-2.822156">
        <ele>750.4</ele>
        <time>1989-12-30T23:59:59Z</time>
      </trkpt>
      <trkpt lat="38.186377" lon="-2.822376">
        <ele>751.4</ele>
        <time>1989-12-30T23:59:59Z</time>
      </trkpt>
      <trkpt lat="38.186435" lon="-2.822485">
        <ele>752.8</ele>
      </trkpt>
      <trkpt lat="38.186594" lon="-2.822709">
        <ele>754.3</ele>
      </trkpt>
      <trkpt lat="38.186705" lon="-2.822733">
        <ele>755.3</ele>
      </trkpt>
      <trkpt lat="38.186754" lon="-2.822836">
        <ele>755.3</ele>
      </trkpt>
      <trkpt lat="38.186793" lon="-2.822901">
        <ele>762.9</ele>
      </trkpt>
      <trkpt lat="38.186883" lon="-2.822957">
        <ele>763.9</ele>
      </trkpt>
      <trkpt lat="38.187073" lon="-2.823130">
        <ele>765.8</ele>
        <time>1989-12-30T23:59:59Z</time>
      </trkpt>
      <trkpt lat="38.187019" lon="-2.823113">
        <ele>766.3</ele>
        <time>1989-12-30T23:59:59Z</time>
      </trkpt>
      <trkpt lat="38.186973" lon="-2.823053">
        <ele>765.3</ele>
        <time>1989-12-30T23:59:59Z</time>
      </trkpt>
      <trkpt lat="38.186864" lon="-2.822798">
        <ele>765.8</ele>
        <time>1989-12-30T23:59:59Z</time>
      </trkpt>
      <trkpt lat="38.186774" lon="-2.822744">
        <ele>766.3</ele>
        <time>1989-12-30T23:59:59Z</time>
      </trkpt>
      <trkpt lat="38.186454" lon="-2.822440">
        <ele>765.3</ele>
        <time>1989-12-30T23:59:59Z</time>
      </trkpt>
      <trkpt lat="38.186274" lon="-2.822105">
        <ele>762.9</ele>
        <time>1989-12-30T23:59:59Z</time>
      </trkpt>
      <trkpt lat="38.186219" lon="-2.821979">
        <ele>762.5</ele>
        <time>1989-12-30T23:59:59Z</time>
      </trkpt>
      <trkpt lat="38.186058" lon="-2.821733">
        <ele>762.5</ele>
        <time>1989-12-30T23:59:59Z</time>
      </trkpt>
      <trkpt lat="38.185906" lon="-2.821591">
        <ele>761.5</ele>
        <time>1989-12-30T23:59:59Z</time>
      </trkpt>
      <trkpt lat="38.185716" lon="-2.821465">
        <ele>761.5</ele>
        <time>1989-12-30T23:59:59Z</time>
      </trkpt>
      <trkpt lat="38.185535" lon="-2.821274">
        <ele>760.5</ele>
        <time>1989-12-30T23:59:59Z</time>
      </trkpt>
      <trkpt lat="38.185408" lon="-2.821035">
        <ele>759.6</ele>
        <time>1989-12-30T23:59:59Z</time>
      </trkpt>
      <trkpt lat="38.185322" lon="-2.820801">
        <ele>758.6</ele>
        <time>1989-12-30T23:59:59Z</time>
      </trkpt>
      <trkpt lat="38.185303" lon="-2.820579">
        <ele>757.7</ele>
        <time>1989-12-30T23:59:59Z</time>
      </trkpt>
      <trkpt lat="38.185285" lon="-2.820340">
        <ele>753.8</ele>
        <time>1989-12-30T23:59:59Z</time>
      </trkpt>
      <trkpt lat="38.185319" lon="-2.820215">
        <ele>750.0</ele>
        <time>1989-12-30T23:59:59Z</time>
      </trkpt>
      <trkpt lat="38.185324" lon="-2.820203">
        <ele>746.1</ele>
        <time>1989-12-30T23:59:59Z</time>
      </trkpt>
      <trkpt lat="38.185336" lon="-2.820162">
        <ele>735.1</ele>
        <time>1989-12-30T23:59:59Z</time>
      </trkpt>
      <trkpt lat="38.185359" lon="-2.820049">
        <ele>731.7</ele>
        <time>1989-12-30T23:59:59Z</time>
      </trkpt>
      <trkpt lat="38.185368" lon="-2.819990">
        <ele>731.7</ele>
        <time>1989-12-30T23:59:59Z</time>
      </trkpt>
      <trkpt lat="38.185331" lon="-2.819947">
        <ele>731.7</ele>
        <time>1989-12-30T23:59:59Z</time>
      </trkpt>
      <trkpt lat="38.185363" lon="-2.819928">
        <ele>711.4</ele>
        <time>2010-06-04T10:07:11Z</time>
      </trkpt>
      <trkpt lat="38.185432" lon="-2.819785">
        <ele>710.7</ele>
        <time>2010-06-04T10:07:11Z</time>
      </trkpt>
      <trkpt lat="38.185468" lon="-2.819684">
        <ele>710.1</ele>
        <time>2010-06-04T10:07:11Z</time>
      </trkpt>
      <trkpt lat="38.185504" lon="-2.819582">
        <ele>709.6</ele>
        <time>2010-06-04T10:07:11Z</time>
      </trkpt>
      <trkpt lat="38.185518" lon="-2.819454">
        <ele>709.4</ele>
        <time>2010-06-04T10:07:11Z</time>
      </trkpt>
      <trkpt lat="38.185533" lon="-2.819325">
        <ele>709.2</ele>
        <time>2010-06-04T10:07:11Z</time>
      </trkpt>
      <trkpt lat="38.185532" lon="-2.819187">
        <ele>708.3</ele>
        <time>2010-06-04T10:07:11Z</time>
      </trkpt>
      <trkpt lat="38.185532" lon="-2.819049">
        <ele>707.3</ele>
        <time>2010-06-04T10:07:11Z</time>
      </trkpt>
      <trkpt lat="38.185507" lon="-2.818948">
        <ele>705.4</ele>
        <time>2010-06-04T10:07:11Z</time>
      </trkpt>
      <trkpt lat="38.185481" lon="-2.818847">
        <ele>703.4</ele>
        <time>2010-06-04T10:07:11Z</time>
      </trkpt>
      <trkpt lat="38.185391" lon="-2.818802">
        <ele>698.4</ele>
        <time>2010-06-04T10:07:11Z</time>
      </trkpt>
      <trkpt lat="38.185300" lon="-2.818755">
        <ele>693.7</ele>
        <time>2010-06-04T10:07:11Z</time>
      </trkpt>
      <trkpt lat="38.185307" lon="-2.818880">
        <ele>695.1</ele>
        <time>2010-06-04T10:07:11Z</time>
      </trkpt>
      <trkpt lat="38.185315" lon="-2.819004">
        <ele>696.5</ele>
        <time>2010-06-04T10:07:11Z</time>
      </trkpt>
      <trkpt lat="38.185242" lon="-2.819206">
        <ele>695.3</ele>
        <time>2010-06-04T10:07:11Z</time>
      </trkpt>
      <trkpt lat="38.185170" lon="-2.819409">
        <ele>694.7</ele>
        <time>2010-06-04T10:07:11Z</time>
      </trkpt>
      <trkpt lat="38.185068" lon="-2.819492">
        <ele>692.0</ele>
        <time>2010-06-04T10:07:11Z</time>
      </trkpt>
      <trkpt lat="38.184967" lon="-2.819574">
        <ele>689.6</ele>
        <time>2010-06-04T10:07:11Z</time>
      </trkpt>
      <trkpt lat="38.184898" lon="-2.819681">
        <ele>689.9</ele>
        <time>2010-06-04T10:07:11Z</time>
      </trkpt>
      <trkpt lat="38.184830" lon="-2.819787">
        <ele>690.3</ele>
        <time>2010-06-04T10:07:11Z</time>
      </trkpt>
      <trkpt lat="38.184779" lon="-2.819980">
        <ele>693.7</ele>
        <time>2010-06-04T10:07:11Z</time>
      </trkpt>
      <trkpt lat="38.184728" lon="-2.820173">
        <ele>697.0</ele>
        <time>2010-06-04T10:07:11Z</time>
      </trkpt>
      <trkpt lat="38.184616" lon="-2.820343">
        <ele>697.9</ele>
        <time>2010-06-04T10:07:11Z</time>
      </trkpt>
      <trkpt lat="38.184504" lon="-2.820514">
        <ele>697.9</ele>
        <time>2010-06-04T10:07:11Z</time>
      </trkpt>
      <trkpt lat="38.184388" lon="-2.820587">
        <ele>693.2</ele>
        <time>2010-06-04T10:07:11Z</time>
      </trkpt>
      <trkpt lat="38.184272" lon="-2.820662">
        <ele>688.3</ele>
        <time>2010-06-04T10:07:11Z</time>
      </trkpt>
      <trkpt lat="38.184174" lon="-2.820795">
        <ele>686.1</ele>
        <time>2010-06-04T10:07:11Z</time>
      </trkpt>
      <trkpt lat="38.184077" lon="-2.820929">
        <ele>683.5</ele>
        <time>2010-06-04T10:07:11Z</time>
      </trkpt>
      <trkpt lat="38.184011" lon="-2.820961">
        <ele>680.1</ele>
        <time>2010-06-04T10:07:11Z</time>
      </trkpt>
      <trkpt lat="38.183946" lon="-2.820993">
        <ele>676.7</ele>
        <time>2010-06-04T10:07:11Z</time>
      </trkpt>
      <trkpt lat="38.183949" lon="-2.820865">
        <ele>673.6</ele>
        <time>2010-06-04T10:07:11Z</time>
      </trkpt>
      <trkpt lat="38.183953" lon="-2.820736">
        <ele>670.6</ele>
        <time>2010-06-04T10:07:11Z</time>
      </trkpt>
      <trkpt lat="38.184040" lon="-2.820625">
        <ele>673.1</ele>
        <time>2010-06-04T10:07:11Z</time>
      </trkpt>
      <trkpt lat="38.184127" lon="-2.820515">
        <ele>675.4</ele>
        <time>2010-06-04T10:07:11Z</time>
      </trkpt>
      <trkpt lat="38.184203" lon="-2.820427">
        <ele>677.4</ele>
        <time>2010-06-04T10:07:11Z</time>
      </trkpt>
      <trkpt lat="38.184279" lon="-2.820340">
        <ele>679.7</ele>
        <time>2010-06-04T10:07:11Z</time>
      </trkpt>
      <trkpt lat="38.184304" lon="-2.820165">
        <ele>676.9</ele>
        <time>2010-06-04T10:07:11Z</time>
      </trkpt>
      <trkpt lat="38.184329" lon="-2.819990">
        <ele>674.0</ele>
        <time>2010-06-04T10:07:11Z</time>
      </trkpt>
      <trkpt lat="38.184260" lon="-2.819719">
        <ele>663.6</ele>
        <time>2010-06-04T10:07:11Z</time>
      </trkpt>
      <trkpt lat="38.184190" lon="-2.819448">
        <ele>653.6</ele>
        <time>2010-06-04T10:07:11Z</time>
      </trkpt>
      <trkpt lat="38.184212" lon="-2.819222">
        <ele>649.6</ele>
        <time>2010-06-04T10:07:11Z</time>
      </trkpt>
      <trkpt lat="38.184233" lon="-2.818997">
        <ele>645.7</ele>
        <time>2010-06-04T10:07:11Z</time>
      </trkpt>
      <trkpt lat="38.184353" lon="-2.818845">
        <ele>648.8</ele>
        <time>2010-06-04T10:07:11Z</time>
      </trkpt>
      <trkpt lat="38.184472" lon="-2.818693">
        <ele>652.3</ele>
        <time>2010-06-04T10:07:11Z</time>
      </trkpt>
      <trkpt lat="38.184465" lon="-2.818518">
        <ele>648.9</ele>
        <time>2010-06-04T10:07:11Z</time>
      </trkpt>
      <trkpt lat="38.184457" lon="-2.818344">
        <ele>645.5</ele>
        <time>2010-06-04T10:07:11Z</time>
      </trkpt>
      <trkpt lat="38.184432" lon="-2.818197">
        <ele>641.5</ele>
        <time>2010-06-04T10:07:11Z</time>
      </trkpt>
      <trkpt lat="38.184406" lon="-2.818050">
        <ele>637.4</ele>
        <time>2010-06-04T10:07:11Z</time>
      </trkpt>
      <trkpt lat="38.184395" lon="-2.817889">
        <ele>634.2</ele>
        <time>2010-06-04T10:07:11Z</time>
      </trkpt>
      <trkpt lat="38.184384" lon="-2.817728">
        <ele>631.9</ele>
        <time>2010-06-04T10:07:11Z</time>
      </trkpt>
      <trkpt lat="38.184376" lon="-2.817613">
        <ele>630.3</ele>
        <time>2010-06-04T10:07:11Z</time>
      </trkpt>
      <trkpt lat="38.184369" lon="-2.817498">
        <ele>628.7</ele>
        <time>2010-06-04T10:07:11Z</time>
      </trkpt>
      <trkpt lat="38.184368" lon="-2.817383">
        <ele>627.6</ele>
        <time>2010-06-04T10:07:11Z</time>
      </trkpt>
      <trkpt lat="38.184368" lon="-2.817269">
        <ele>626.4</ele>
        <time>2010-06-04T10:07:11Z</time>
      </trkpt>
      <trkpt lat="38.184390" lon="-2.817172">
        <ele>626.7</ele>
        <time>2010-06-04T10:07:11Z</time>
      </trkpt>
      <trkpt lat="38.184412" lon="-2.817075">
        <ele>626.8</ele>
        <time>2010-06-04T10:07:11Z</time>
      </trkpt>
      <trkpt lat="38.184455" lon="-2.817029">
        <ele>628.3</ele>
        <time>2010-06-04T10:07:11Z</time>
      </trkpt>
      <trkpt lat="38.184499" lon="-2.816983">
        <ele>629.7</ele>
        <time>2010-06-04T10:07:11Z</time>
      </trkpt>
      <trkpt lat="38.184611" lon="-2.816886">
        <ele>633.4</ele>
        <time>2010-06-04T10:07:11Z</time>
      </trkpt>
      <trkpt lat="38.184723" lon="-2.816790">
        <ele>636.4</ele>
        <time>2010-06-04T10:07:11Z</time>
      </trkpt>
      <trkpt lat="38.184807" lon="-2.816757">
        <ele>639.4</ele>
        <time>2010-06-04T10:07:11Z</time>
      </trkpt>
      <trkpt lat="38.184890" lon="-2.816725">
        <ele>642.3</ele>
        <time>2010-06-04T10:07:11Z</time>
      </trkpt>
      <trkpt lat="38.185010" lon="-2.816692">
        <ele>646.6</ele>
        <time>2010-06-04T10:07:11Z</time>
      </trkpt>
      <trkpt lat="38.185129" lon="-2.816660">
        <ele>650.8</ele>
        <time>2010-06-04T10:07:11Z</time>
      </trkpt>
      <trkpt lat="38.185202" lon="-2.816591">
        <ele>651.4</ele>
        <time>2010-06-04T10:07:11Z</time>
      </trkpt>
      <trkpt lat="38.185275" lon="-2.816522">
        <ele>651.7</ele>
        <time>2010-06-04T10:07:11Z</time>
      </trkpt>
      <trkpt lat="38.185303" lon="-2.816499">
        <ele>652.0</ele>
        <time>2010-06-04T10:07:11Z</time>
      </trkpt>
      <trkpt lat="38.185332" lon="-2.816475">
        <ele>652.2</ele>
        <time>2010-06-04T10:07:11Z</time>
      </trkpt>
      <trkpt lat="38.185488" lon="-2.816516">
        <ele>658.1</ele>
        <time>2010-06-04T10:07:11Z</time>
      </trkpt>
      <trkpt lat="38.185644" lon="-2.816557">
        <ele>662.8</ele>
        <time>2010-06-04T10:07:11Z</time>
      </trkpt>
      <trkpt lat="38.185811" lon="-2.816566">
        <ele>666.5</ele>
        <time>2010-06-04T10:07:11Z</time>
      </trkpt>
      <trkpt lat="38.185979" lon="-2.816575">
        <ele>670.1</ele>
        <time>2010-06-04T10:07:11Z</time>
      </trkpt>
      <trkpt lat="38.186043" lon="-2.816487">
        <ele>667.8</ele>
        <time>2010-06-04T10:07:11Z</time>
      </trkpt>
      <trkpt lat="38.186109" lon="-2.816400">
        <ele>665.6</ele>
        <time>2010-06-04T10:07:11Z</time>
      </trkpt>
      <trkpt lat="38.186040" lon="-2.816303">
        <ele>660.4</ele>
        <time>2010-06-04T10:07:11Z</time>
      </trkpt>
      <trkpt lat="38.185970" lon="-2.816207">
        <ele>656.2</ele>
        <time>2010-06-04T10:07:11Z</time>
      </trkpt>
      <trkpt lat="38.185826" lon="-2.816161">
        <ele>652.4</ele>
        <time>2010-06-04T10:07:11Z</time>
      </trkpt>
      <trkpt lat="38.185680" lon="-2.816116">
        <ele>648.5</ele>
        <time>2010-06-04T10:07:11Z</time>
      </trkpt>
      <trkpt lat="38.185630" lon="-2.816208">
        <ele>649.1</ele>
        <time>2010-06-04T10:07:11Z</time>
      </trkpt>
      <trkpt lat="38.185579" lon="-2.816300">
        <ele>650.9</ele>
        <time>2010-06-04T10:07:11Z</time>
      </trkpt>
      <trkpt lat="38.185441" lon="-2.816295">
        <ele>647.9</ele>
        <time>2010-06-04T10:07:11Z</time>
      </trkpt>
      <trkpt lat="38.185303" lon="-2.816291">
        <ele>643.7</ele>
        <time>2010-06-04T10:07:11Z</time>
      </trkpt>
      <trkpt lat="38.185140" lon="-2.816310">
        <ele>638.7</ele>
        <time>2010-06-04T10:07:11Z</time>
      </trkpt>
      <trkpt lat="38.184977" lon="-2.816329">
        <ele>633.6</ele>
        <time>2010-06-04T10:07:11Z</time>
      </trkpt>
      <trkpt lat="38.184792" lon="-2.816408">
        <ele>629.2</ele>
        <time>2010-06-04T10:07:11Z</time>
      </trkpt>
      <trkpt lat="38.184607" lon="-2.816486">
        <ele>624.0</ele>
        <time>2010-06-04T10:07:11Z</time>
      </trkpt>
      <trkpt lat="38.184483" lon="-2.816528">
        <ele>619.5</ele>
        <time>2010-06-04T10:07:11Z</time>
      </trkpt>
      <trkpt lat="38.184360" lon="-2.816569">
        <ele>614.3</ele>
        <time>2010-06-04T10:07:11Z</time>
      </trkpt>
      <trkpt lat="38.184251" lon="-2.816639">
        <ele>610.3</ele>
        <time>2010-06-04T10:07:11Z</time>
      </trkpt>
      <trkpt lat="38.184143" lon="-2.816708">
        <ele>606.0</ele>
        <time>2010-06-04T10:07:11Z</time>
      </trkpt>
      <trkpt lat="38.184074" lon="-2.816828">
        <ele>604.4</ele>
        <time>2010-06-04T10:07:11Z</time>
      </trkpt>
      <trkpt lat="38.184005" lon="-2.816948">
        <ele>602.6</ele>
        <time>2010-06-04T10:07:11Z</time>
      </trkpt>
      <trkpt lat="38.183969" lon="-2.817154">
        <ele>603.1</ele>
        <time>2010-06-04T10:07:11Z</time>
      </trkpt>
      <trkpt lat="38.183933" lon="-2.817362">
        <ele>602.8</ele>
        <time>2010-06-04T10:07:11Z</time>
      </trkpt>
      <trkpt lat="38.183926" lon="-2.817610">
        <ele>604.4</ele>
        <time>2010-06-04T10:07:11Z</time>
      </trkpt>
      <trkpt lat="38.183919" lon="-2.817858">
        <ele>606.0</ele>
        <time>2010-06-04T10:07:11Z</time>
      </trkpt>
      <trkpt lat="38.183898" lon="-2.818070">
        <ele>608.2</ele>
        <time>2010-06-04T10:07:11Z</time>
      </trkpt>
      <trkpt lat="38.183876" lon="-2.818281">
        <ele>611.2</ele>
        <time>2010-06-04T10:07:11Z</time>
      </trkpt>
      <trkpt lat="38.183764" lon="-2.818557">
        <ele>610.3</ele>
        <time>2010-06-04T10:07:11Z</time>
      </trkpt>
      <trkpt lat="38.183652" lon="-2.818833">
        <ele>610.7</ele>
        <time>2010-06-04T10:07:11Z</time>
      </trkpt>
      <trkpt lat="38.183580" lon="-2.819086">
        <ele>613.0</ele>
        <time>2010-06-04T10:07:11Z</time>
      </trkpt>
      <trkpt lat="38.183508" lon="-2.819339">
        <ele>614.8</ele>
        <time>2010-06-04T10:07:11Z</time>
      </trkpt>
      <trkpt lat="38.183341" lon="-2.819570">
        <ele>610.6</ele>
        <time>2010-06-04T10:07:11Z</time>
      </trkpt>
      <trkpt lat="38.183175" lon="-2.819800">
        <ele>605.3</ele>
        <time>2010-06-04T10:07:11Z</time>
      </trkpt>
      <trkpt lat="38.183113" lon="-2.819938">
        <ele>604.0</ele>
        <time>2010-06-04T10:07:11Z</time>
      </trkpt>
      <trkpt lat="38.183052" lon="-2.820076">
        <ele>602.6</ele>
        <time>2010-06-04T10:07:11Z</time>
      </trkpt>
      <trkpt lat="38.183023" lon="-2.820228">
        <ele>603.2</ele>
        <time>2010-06-04T10:07:11Z</time>
      </trkpt>
      <trkpt lat="38.182994" lon="-2.820379">
        <ele>603.8</ele>
        <time>2010-06-04T10:07:11Z</time>
      </trkpt>
      <trkpt lat="38.182904" lon="-2.820577">
        <ele>602.1</ele>
        <time>2010-06-04T10:07:11Z</time>
      </trkpt>
      <trkpt lat="38.182813" lon="-2.820775">
        <ele>602.4</ele>
        <time>2010-06-04T10:07:11Z</time>
      </trkpt>
      <trkpt lat="38.182749" lon="-2.820968">
        <ele>603.5</ele>
        <time>2010-06-04T10:07:11Z</time>
      </trkpt>
      <trkpt lat="38.182683" lon="-2.821162">
        <ele>604.2</ele>
        <time>2010-06-04T10:07:11Z</time>
      </trkpt>
      <trkpt lat="38.182637" lon="-2.821323">
        <ele>604.2</ele>
        <time>2010-06-04T10:07:11Z</time>
      </trkpt>
      <trkpt lat="38.182590" lon="-2.821484">
        <ele>603.3</ele>
        <time>2010-06-04T10:07:11Z</time>
      </trkpt>
      <trkpt lat="38.182615" lon="-2.821806">
        <ele>606.8</ele>
        <time>2010-06-04T10:07:11Z</time>
      </trkpt>
      <trkpt lat="38.182641" lon="-2.822127">
        <ele>610.7</ele>
        <time>2010-06-04T10:07:11Z</time>
      </trkpt>
      <trkpt lat="38.182609" lon="-2.822302">
        <ele>612.3</ele>
        <time>2010-06-04T10:07:11Z</time>
      </trkpt>
      <trkpt lat="38.182577" lon="-2.822477">
        <ele>613.5</ele>
        <time>2010-06-04T10:07:11Z</time>
      </trkpt>
      <trkpt lat="38.182356" lon="-2.822864">
        <ele>604.6</ele>
        <time>2010-06-04T10:07:11Z</time>
      </trkpt>
      <trkpt lat="38.182135" lon="-2.823250">
        <ele>589.5</ele>
        <time>2010-06-04T10:07:11Z</time>
      </trkpt>
      <trkpt lat="38.182117" lon="-2.823375">
        <ele>588.1</ele>
        <time>2010-06-04T10:07:11Z</time>
      </trkpt>
      <trkpt lat="38.182099" lon="-2.823499">
        <ele>586.6</ele>
        <time>2010-06-04T10:07:11Z</time>
      </trkpt>
      <trkpt lat="38.182019" lon="-2.823434">
        <ele>583.0</ele>
        <time>2010-06-04T10:07:11Z</time>
      </trkpt>
      <trkpt lat="38.181939" lon="-2.823370">
        <ele>582.3</ele>
        <time>2010-06-04T10:07:11Z</time>
      </trkpt>
      <trkpt lat="38.181947" lon="-2.823301">
        <ele>582.3</ele>
        <time>2010-06-04T10:07:11Z</time>
      </trkpt>
      <trkpt lat="38.181954" lon="-2.823232">
        <ele>582.3</ele>
        <time>2010-06-04T10:07:11Z</time>
      </trkpt>
      <trkpt lat="38.182026" lon="-2.823062">
        <ele>583.3</ele>
        <time>2010-06-04T10:07:11Z</time>
      </trkpt>
      <trkpt lat="38.182098" lon="-2.822892">
        <ele>586.9</ele>
        <time>2010-06-04T10:07:11Z</time>
      </trkpt>
      <trkpt lat="38.182214" lon="-2.822620">
        <ele>593.6</ele>
        <time>2010-06-04T10:07:11Z</time>
      </trkpt>
      <trkpt lat="38.182330" lon="-2.822349">
        <ele>598.4</ele>
        <time>2010-06-04T10:07:11Z</time>
      </trkpt>
      <trkpt lat="38.182308" lon="-2.822215">
        <ele>596.2</ele>
        <time>2010-06-04T10:07:11Z</time>
      </trkpt>
      <trkpt lat="38.182286" lon="-2.822082">
        <ele>594.1</ele>
        <time>2010-06-04T10:07:11Z</time>
      </trkpt>
      <trkpt lat="38.182155" lon="-2.821940">
        <ele>587.3</ele>
        <time>2010-06-04T10:07:11Z</time>
      </trkpt>
      <trkpt lat="38.182024" lon="-2.821798">
        <ele>581.2</ele>
        <time>2010-06-04T10:07:11Z</time>
      </trkpt>
      <trkpt lat="38.181973" lon="-2.821853">
        <ele>580.4</ele>
        <time>2010-06-04T10:07:11Z</time>
      </trkpt>
      <trkpt lat="38.181922" lon="-2.821908">
        <ele>579.5</ele>
        <time>2010-06-04T10:07:11Z</time>
      </trkpt>
      <trkpt lat="38.181959" lon="-2.822032">
        <ele>581.0</ele>
        <time>2010-06-04T10:07:11Z</time>
      </trkpt>
      <trkpt lat="38.181996" lon="-2.822157">
        <ele>582.3</ele>
        <time>2010-06-04T10:07:11Z</time>
      </trkpt>
      <trkpt lat="38.181985" lon="-2.822267">
        <ele>582.1</ele>
        <time>2010-06-04T10:07:11Z</time>
      </trkpt>
      <trkpt lat="38.181974" lon="-2.822377">
        <ele>582.0</ele>
        <time>2010-06-04T10:07:11Z</time>
      </trkpt>
      <trkpt lat="38.181836" lon="-2.822327">
        <ele>578.4</ele>
        <time>2010-06-04T10:07:11Z</time>
      </trkpt>
      <trkpt lat="38.181698" lon="-2.822276">
        <ele>574.8</ele>
        <time>2010-06-04T10:07:11Z</time>
      </trkpt>
      <trkpt lat="38.181622" lon="-2.822245">
        <ele>572.7</ele>
        <time>2010-06-04T10:07:11Z</time>
      </trkpt>
      <trkpt lat="38.181546" lon="-2.822213">
        <ele>570.5</ele>
        <time>2010-06-04T10:07:11Z</time>
      </trkpt>
      <trkpt lat="38.181528" lon="-2.822314">
        <ele>570.6</ele>
        <time>2010-06-04T10:07:11Z</time>
      </trkpt>
      <trkpt lat="38.181509" lon="-2.822415">
        <ele>570.7</ele>
        <time>2010-06-04T10:07:11Z</time>
      </trkpt>
      <trkpt lat="38.181597" lon="-2.822502">
        <ele>573.2</ele>
        <time>2010-06-04T10:07:11Z</time>
      </trkpt>
      <trkpt lat="38.181684" lon="-2.822589">
        <ele>575.6</ele>
        <time>2010-06-04T10:07:11Z</time>
      </trkpt>
      <trkpt lat="38.181651" lon="-2.822668">
        <ele>575.2</ele>
        <time>2010-06-04T10:07:11Z</time>
      </trkpt>
      <trkpt lat="38.181619" lon="-2.822746">
        <ele>574.8</ele>
        <time>2010-06-04T10:07:11Z</time>
      </trkpt>
      <trkpt lat="38.181539" lon="-2.822824">
        <ele>573.6</ele>
        <time>2010-06-04T10:07:11Z</time>
      </trkpt>
      <trkpt lat="38.181460" lon="-2.822903">
        <ele>572.4</ele>
        <time>2010-06-04T10:07:11Z</time>
      </trkpt>
      <trkpt lat="38.181419" lon="-2.822893">
        <ele>571.6</ele>
        <time>2010-06-04T10:07:11Z</time>
      </trkpt>
      <trkpt lat="38.181379" lon="-2.822884">
        <ele>570.8</ele>
        <time>2010-06-04T10:07:11Z</time>
      </trkpt>
      <trkpt lat="38.181347" lon="-2.823054">
        <ele>572.2</ele>
        <time>2010-06-04T10:07:11Z</time>
      </trkpt>
      <trkpt lat="38.181315" lon="-2.823225">
        <ele>574.0</ele>
        <time>2010-06-04T10:07:11Z</time>
      </trkpt>
      <trkpt lat="38.181352" lon="-2.823385">
        <ele>576.5</ele>
        <time>2010-06-04T10:07:11Z</time>
      </trkpt>
      <trkpt lat="38.181388" lon="-2.823546">
        <ele>578.9</ele>
        <time>2010-06-04T10:07:11Z</time>
      </trkpt>
      <trkpt lat="38.181399" lon="-2.823702">
        <ele>580.8</ele>
        <time>2010-06-04T10:07:11Z</time>
      </trkpt>
      <trkpt lat="38.181410" lon="-2.823859">
        <ele>580.8</ele>
        <time>2010-06-04T10:07:11Z</time>
      </trkpt>
      <trkpt lat="38.181458" lon="-2.823996">
        <ele>580.3</ele>
        <time>2010-06-04T10:07:11Z</time>
      </trkpt>
      <trkpt lat="38.181505" lon="-2.824134">
        <ele>580.0</ele>
        <time>2010-06-04T10:07:11Z</time>
      </trkpt>
      <trkpt lat="38.181494" lon="-2.824272">
        <ele>579.3</ele>
        <time>2010-06-04T10:07:11Z</time>
      </trkpt>
      <trkpt lat="38.181484" lon="-2.824410">
        <ele>578.5</ele>
        <time>2010-06-04T10:07:11Z</time>
      </trkpt>
      <trkpt lat="38.181480" lon="-2.824456">
        <ele>578.2</ele>
        <time>2010-06-04T10:07:11Z</time>
      </trkpt>
      <trkpt lat="38.181476" lon="-2.824502">
        <ele>577.9</ele>
        <time>2010-06-04T10:07:11Z</time>
      </trkpt>
      <trkpt lat="38.181451" lon="-2.824603">
        <ele>577.3</ele>
        <time>2010-06-04T10:07:11Z</time>
      </trkpt>
      <trkpt lat="38.181426" lon="-2.824705">
        <ele>577.8</ele>
        <time>2010-06-04T10:07:11Z</time>
      </trkpt>
      <trkpt lat="38.181401" lon="-2.824842">
        <ele>578.5</ele>
        <time>2010-06-04T10:07:11Z</time>
      </trkpt>
      <trkpt lat="38.181376" lon="-2.824981">
        <ele>579.2</ele>
        <time>2010-06-04T10:07:11Z</time>
      </trkpt>
      <trkpt lat="38.181354" lon="-2.825146">
        <ele>580.0</ele>
        <time>2010-06-04T10:07:11Z</time>
      </trkpt>
      <trkpt lat="38.181333" lon="-2.825311">
        <ele>580.7</ele>
        <time>2010-06-04T10:07:11Z</time>
      </trkpt>
      <trkpt lat="38.181283" lon="-2.825548">
        <ele>578.0</ele>
        <time>2010-06-04T10:07:11Z</time>
      </trkpt>
      <trkpt lat="38.181066" lon="-2.825685">
        <ele>577.0</ele>
        <time>2010-06-04T10:07:11Z</time>
      </trkpt>
      <trkpt lat="38.180914" lon="-2.825766">
        <ele>576.0</ele>
        <time>2010-06-04T10:07:11Z</time>
      </trkpt>
      <trkpt lat="38.180805" lon="-2.825823">
        <ele>576.0</ele>
        <time>2010-06-04T10:07:11Z</time>
      </trkpt>
      <trkpt lat="38.180805" lon="-2.825823">
        <ele>575.0</ele>
        <time>2010-06-04T10:07:11Z</time>
      </trkpt>
      <trkpt lat="38.180715" lon="-2.825915">
        <ele>574.0</ele>
        <time>2010-06-04T10:07:11Z</time>
      </trkpt>
      <trkpt lat="38.180634" lon="-2.825983">
        <ele>573.0</ele>
        <time>2010-06-04T10:07:11Z</time>
      </trkpt>
      <trkpt lat="38.180563" lon="-2.826052">
        <ele>572.0</ele>
        <time>2010-06-04T10:07:11Z</time>
      </trkpt>
      <trkpt lat="38.180482" lon="-2.826109">
        <ele>572.0</ele>
        <time>2010-06-04T10:07:11Z</time>
      </trkpt>
      <trkpt lat="38.180482" lon="-2.826109">
        <ele>572.0</ele>
        <time>2010-06-04T10:07:11Z</time>
      </trkpt>
      <trkpt lat="38.180364" lon="-2.826109">
        <ele>571.0</ele>
        <time>2010-06-04T10:07:11Z</time>
      </trkpt>
      <trkpt lat="38.180337" lon="-2.826064">
        <ele>569.0</ele>
        <time>2010-06-04T10:07:11Z</time>
      </trkpt>
      <trkpt lat="38.180265" lon="-2.826030">
        <ele>568.0</ele>
        <time>2010-06-04T10:07:11Z</time>
      </trkpt>
      <trkpt lat="38.180184" lon="-2.826053">
        <ele>570.0</ele>
        <time>2010-06-04T10:07:11Z</time>
      </trkpt>
      <trkpt lat="38.180180" lon="-2.826050">
        <ele>571.0</ele>
        <time>2010-06-04T10:07:11Z</time>
      </trkpt>
      <trkpt lat="38.180129" lon="-2.826119">
        <ele>569.8</ele>
        <time>2010-06-04T10:07:11Z</time>
      </trkpt>
      <trkpt lat="38.180078" lon="-2.826188">
        <ele>568.3</ele>
        <time>2010-06-04T10:07:11Z</time>
      </trkpt>
      <trkpt lat="38.180027" lon="-2.826289">
        <ele>566.6</ele>
        <time>2010-06-04T10:07:11Z</time>
      </trkpt>
      <trkpt lat="38.179977" lon="-2.826390">
        <ele>566.1</ele>
        <time>2010-06-04T10:07:11Z</time>
      </trkpt>
      <trkpt lat="38.179908" lon="-2.826455">
        <ele>565.1</ele>
        <time>2010-06-04T10:07:11Z</time>
      </trkpt>
      <trkpt lat="38.179839" lon="-2.826519">
        <ele>563.8</ele>
        <time>2010-06-04T10:07:11Z</time>
      </trkpt>
      <trkpt lat="38.179807" lon="-2.826602">
        <ele>562.8</ele>
        <time>2010-06-04T10:07:11Z</time>
      </trkpt>
      <trkpt lat="38.179774" lon="-2.826685">
        <ele>561.7</ele>
        <time>2010-06-04T10:07:11Z</time>
      </trkpt>
      <trkpt lat="38.179746" lon="-2.826869">
        <ele>559.9</ele>
        <time>2010-06-04T10:07:11Z</time>
      </trkpt>
      <trkpt lat="38.179717" lon="-2.827053">
        <ele>557.8</ele>
        <time>2010-06-04T10:07:11Z</time>
      </trkpt>
      <trkpt lat="38.179672" lon="-2.827081">
        <ele>556.0</ele>
        <time>2010-06-04T10:07:11Z</time>
      </trkpt>
      <trkpt lat="38.179582" lon="-2.827025">
        <ele>554.0</ele>
        <time>2010-06-04T10:07:11Z</time>
      </trkpt>
      <trkpt lat="38.179509" lon="-2.827002">
        <ele>558.0</ele>
        <time>2010-06-04T10:07:11Z</time>
      </trkpt>
      <trkpt lat="38.179437" lon="-2.826957">
        <ele>563.0</ele>
        <time>2010-06-04T10:07:11Z</time>
      </trkpt>
      <trkpt lat="38.179383" lon="-2.826991">
        <ele>567.0</ele>
        <time>2010-06-04T10:07:11Z</time>
      </trkpt>
      <trkpt lat="38.179338" lon="-2.827071">
        <ele>571.0</ele>
        <time>2010-06-04T10:07:11Z</time>
      </trkpt>
      <trkpt lat="38.179288" lon="-2.827265">
        <ele>569.6</ele>
        <time>2010-06-04T10:07:11Z</time>
      </trkpt>
      <trkpt lat="38.179282" lon="-2.827491">
        <ele>568.8</ele>
        <time>2010-06-04T10:07:11Z</time>
      </trkpt>
      <trkpt lat="38.179275" lon="-2.827716">
        <ele>567.7</ele>
        <time>2010-06-04T10:07:11Z</time>
      </trkpt>
      <trkpt lat="38.179239" lon="-2.827923">
        <ele>567.7</ele>
        <time>2010-06-04T10:07:11Z</time>
      </trkpt>
      <trkpt lat="38.179202" lon="-2.828130">
        <ele>568.1</ele>
        <time>2010-06-04T10:07:11Z</time>
      </trkpt>
      <trkpt lat="38.179181" lon="-2.828226">
        <ele>568.4</ele>
        <time>2010-06-04T10:07:11Z</time>
      </trkpt>
      <trkpt lat="38.179159" lon="-2.828323">
        <ele>568.6</ele>
        <time>2010-06-04T10:07:11Z</time>
      </trkpt>
      <trkpt lat="38.179167" lon="-2.828571">
        <ele>567.3</ele>
        <time>2010-06-04T10:07:11Z</time>
      </trkpt>
      <trkpt lat="38.179175" lon="-2.828820">
        <ele>566.6</ele>
        <time>2010-06-04T10:07:11Z</time>
      </trkpt>
      <trkpt lat="38.179170" lon="-2.828953">
        <ele>567.8</ele>
        <time>2010-06-04T10:07:11Z</time>
      </trkpt>
      <trkpt lat="38.179138" lon="-2.829065">
        <ele>569.2</ele>
        <time>2010-06-04T10:07:11Z</time>
      </trkpt>
      <trkpt lat="38.179124" lon="-2.829158">
        <ele>570.2</ele>
        <time>2010-06-04T10:07:11Z</time>
      </trkpt>
      <trkpt lat="38.179096" lon="-2.829258">
        <ele>571.3</ele>
        <time>2010-06-04T10:07:11Z</time>
      </trkpt>
      <trkpt lat="38.179092" lon="-2.829346">
        <ele>572.0</ele>
        <time>2010-06-04T10:07:11Z</time>
      </trkpt>
      <trkpt lat="38.179101" lon="-2.829440">
        <ele>572.8</ele>
        <time>2010-06-04T10:07:11Z</time>
      </trkpt>
      <trkpt lat="38.179110" lon="-2.829534">
        <ele>573.5</ele>
        <time>2010-06-04T10:07:11Z</time>
      </trkpt>
      <trkpt lat="38.179115" lon="-2.829664">
        <ele>573.4</ele>
        <time>2010-06-04T10:07:11Z</time>
      </trkpt>
      <trkpt lat="38.179082" lon="-2.829767">
        <ele>571.5</ele>
        <time>2010-06-04T10:07:11Z</time>
      </trkpt>
      <trkpt lat="38.179111" lon="-2.829886">
        <ele>569.5</ele>
        <time>2010-06-04T10:07:11Z</time>
      </trkpt>
      <trkpt lat="38.179169" lon="-2.830042">
        <ele>566.0</ele>
        <time>2010-06-04T10:07:11Z</time>
      </trkpt>
      <trkpt lat="38.179227" lon="-2.830199">
        <ele>562.2</ele>
        <time>2010-06-04T10:07:11Z</time>
      </trkpt>
      <trkpt lat="38.179271" lon="-2.830382">
        <ele>558.7</ele>
        <time>2010-06-04T10:07:11Z</time>
      </trkpt>
      <trkpt lat="38.179315" lon="-2.830566">
        <ele>556.2</ele>
        <time>2010-06-04T10:07:11Z</time>
      </trkpt>
      <trkpt lat="38.179284" lon="-2.830734">
        <ele>553.4</ele>
        <time>2010-06-04T10:07:11Z</time>
      </trkpt>
      <trkpt lat="38.179284" lon="-2.830734">
        <ele>554.6</ele>
        <time>2010-06-04T10:07:11Z</time>
      </trkpt>
      <trkpt lat="38.179270" lon="-2.830867">
        <ele>554.6</ele>
        <time>2010-06-04T10:07:11Z</time>
      </trkpt>
      <trkpt lat="38.179264" lon="-2.830964">
        <ele>554.6</ele>
        <time>2010-06-04T10:07:11Z</time>
      </trkpt>
      <trkpt lat="38.179268" lon="-2.831194">
        <ele>556.7</ele>
        <time>2010-06-04T10:07:11Z</time>
      </trkpt>
      <trkpt lat="38.179173" lon="-2.831345">
        <ele>558.9</ele>
        <time>2010-06-04T10:07:11Z</time>
      </trkpt>
      <trkpt lat="38.179123" lon="-2.831463">
        <ele>560.7</ele>
        <time>2010-06-04T10:07:11Z</time>
      </trkpt>
      <trkpt lat="38.179142" lon="-2.831642">
        <ele>562.4</ele>
        <time>2010-06-04T10:07:11Z</time>
      </trkpt>
      <trkpt lat="38.179121" lon="-2.831743">
        <ele>563.2</ele>
        <time>2010-06-04T10:07:11Z</time>
      </trkpt>
      <trkpt lat="38.179146" lon="-2.831873">
        <ele>564.0</ele>
        <time>2010-06-04T10:07:11Z</time>
      </trkpt>
      <trkpt lat="38.179163" lon="-2.831951">
        <ele>564.3</ele>
        <time>2010-06-04T10:07:11Z</time>
      </trkpt>
      <trkpt lat="38.179180" lon="-2.832050">
        <ele>564.6</ele>
        <time>2010-06-04T10:07:11Z</time>
      </trkpt>
      <trkpt lat="38.179219" lon="-2.832163">
        <ele>563.1</ele>
        <time>2010-06-04T10:07:11Z</time>
      </trkpt>
      <trkpt lat="38.179223" lon="-2.832267">
        <ele>561.4</ele>
        <time>2010-06-04T10:07:11Z</time>
      </trkpt>
      <trkpt lat="38.179205" lon="-2.832483">
        <ele>561.5</ele>
        <time>2010-06-04T10:07:11Z</time>
      </trkpt>
      <trkpt lat="38.179188" lon="-2.832699">
        <ele>561.5</ele>
        <time>2010-06-04T10:07:11Z</time>
      </trkpt>
      <trkpt lat="38.179141" lon="-2.832925">
        <ele>562.0</ele>
        <time>2010-06-04T10:07:11Z</time>
      </trkpt>
      <trkpt lat="38.179094" lon="-2.833150">
        <ele>563.4</ele>
        <time>2010-06-04T10:07:11Z</time>
      </trkpt>
      <trkpt lat="38.179058" lon="-2.833288">
        <ele>564.5</ele>
        <time>2010-06-04T10:07:11Z</time>
      </trkpt>
      <trkpt lat="38.179022" lon="-2.833426">
        <ele>565.7</ele>
        <time>2010-06-04T10:07:11Z</time>
      </trkpt>
      <trkpt lat="38.179007" lon="-2.833596">
        <ele>566.6</ele>
        <time>2010-06-04T10:07:11Z</time>
      </trkpt>
      <trkpt lat="38.178993" lon="-2.833767">
        <ele>567.5</ele>
        <time>2010-06-04T10:07:11Z</time>
      </trkpt>
      <trkpt lat="38.179004" lon="-2.833941">
        <ele>566.5</ele>
        <time>2010-06-04T10:07:11Z</time>
      </trkpt>
      <trkpt lat="38.179015" lon="-2.834116">
        <ele>565.5</ele>
        <time>2010-06-04T10:07:11Z</time>
      </trkpt>
      <trkpt lat="38.178997" lon="-2.834263">
        <ele>565.4</ele>
        <time>2010-06-04T10:07:11Z</time>
      </trkpt>
      <trkpt lat="38.178980" lon="-2.834410">
        <ele>565.4</ele>
        <time>2010-06-04T10:07:11Z</time>
      </trkpt>
      <trkpt lat="38.179005" lon="-2.834599">
        <ele>563.6</ele>
        <time>2010-06-04T10:07:11Z</time>
      </trkpt>
      <trkpt lat="38.179031" lon="-2.834787">
        <ele>559.3</ele>
        <time>2010-06-04T10:07:11Z</time>
      </trkpt>
      <trkpt lat="38.179107" lon="-2.834971">
        <ele>553.9</ele>
        <time>2010-06-04T10:07:11Z</time>
      </trkpt>
      <trkpt lat="38.179184" lon="-2.835154">
        <ele>549.0</ele>
        <time>2010-06-04T10:07:11Z</time>
      </trkpt>
      <trkpt lat="38.179227" lon="-2.835255">
        <ele>546.6</ele>
        <time>2010-06-04T10:07:11Z</time>
      </trkpt>
      <trkpt lat="38.179271" lon="-2.835356">
        <ele>544.3</ele>
        <time>2010-06-04T10:07:11Z</time>
      </trkpt>
      <trkpt lat="38.179235" lon="-2.835448">
        <ele>544.1</ele>
        <time>2010-06-04T10:07:11Z</time>
      </trkpt>
      <trkpt lat="38.179235" lon="-2.835448">
        <ele>544.1</ele>
        <time>2009-03-11T08:08:02Z</time>
      </trkpt>
      <trkpt lat="38.179199" lon="-2.835541">
        <ele>544.6</ele>
        <time>2009-03-11T08:08:03Z</time>
      </trkpt>
      <trkpt lat="38.179036" lon="-2.835555">
        <ele>547.6</ele>
        <time>2009-03-11T08:08:05Z</time>
      </trkpt>
      <trkpt lat="38.178872" lon="-2.835569">
        <ele>550.5</ele>
        <time>2009-03-11T08:08:07Z</time>
      </trkpt>
      <trkpt lat="38.178850" lon="-2.835610">
        <ele>550.8</ele>
        <time>2009-03-11T08:08:07Z</time>
      </trkpt>
      <trkpt lat="38.178829" lon="-2.835652">
        <ele>551.0</ele>
        <time>2009-03-11T08:08:08Z</time>
      </trkpt>
      <trkpt lat="38.178742" lon="-2.835665">
        <ele>552.5</ele>
        <time>2009-03-11T08:08:09Z</time>
      </trkpt>
      <trkpt lat="38.178655" lon="-2.835680">
        <ele>553.7</ele>
        <time>2009-03-11T08:08:10Z</time>
      </trkpt>
      <trkpt lat="38.178601" lon="-2.835739">
        <ele>554.3</ele>
        <time>2009-03-11T08:08:10Z</time>
      </trkpt>
      <trkpt lat="38.178546" lon="-2.835799">
        <ele>554.9</ele>
        <time>2009-03-11T08:08:11Z</time>
      </trkpt>
      <trkpt lat="38.178401" lon="-2.835997">
        <ele>557.3</ele>
        <time>2009-03-11T08:08:14Z</time>
      </trkpt>
      <trkpt lat="38.178256" lon="-2.836195">
        <ele>560.5</ele>
        <time>2009-03-11T08:08:16Z</time>
      </trkpt>
      <trkpt lat="38.178209" lon="-2.836264">
        <ele>562.4</ele>
        <time>2009-03-11T08:08:17Z</time>
      </trkpt>
      <trkpt lat="38.178162" lon="-2.836333">
        <ele>566.8</ele>
        <time>2009-03-11T08:08:18Z</time>
      </trkpt>
      <trkpt lat="38.178177" lon="-2.836467">
        <ele>572.8</ele>
        <time>2009-03-11T08:08:19Z</time>
      </trkpt>
      <trkpt lat="38.178192" lon="-2.836600">
        <ele>578.7</ele>
        <time>2009-03-11T08:08:20Z</time>
      </trkpt>
      <trkpt lat="38.178373" lon="-2.836646">
        <ele>575.5</ele>
        <time>2009-03-11T08:08:22Z</time>
      </trkpt>
      <trkpt lat="38.178555" lon="-2.836691">
        <ele>572.0</ele>
        <time>2009-03-11T08:08:24Z</time>
      </trkpt>
      <trkpt lat="38.178711" lon="-2.836787">
        <ele>571.0</ele>
        <time>2009-03-11T08:08:26Z</time>
      </trkpt>
      <trkpt lat="38.178867" lon="-2.836883">
        <ele>570.3</ele>
        <time>2009-03-11T08:08:28Z</time>
      </trkpt>
      <trkpt lat="38.178939" lon="-2.837008">
        <ele>572.4</ele>
        <time>2009-03-11T08:08:29Z</time>
      </trkpt>
      <trkpt lat="38.179012" lon="-2.837131">
        <ele>574.4</ele>
        <time>2009-03-11T08:08:31Z</time>
      </trkpt>
      <trkpt lat="38.179154" lon="-2.837402">
        <ele>579.9</ele>
        <time>2009-03-11T08:08:33Z</time>
      </trkpt>
      <trkpt lat="38.179296" lon="-2.837673">
        <ele>585.1</ele>
        <time>2009-03-11T08:08:36Z</time>
      </trkpt>
      <trkpt lat="38.179459" lon="-2.837912">
        <ele>588.2</ele>
        <time>2009-03-11T08:08:39Z</time>
      </trkpt>
      <trkpt lat="38.179623" lon="-2.838150">
        <ele>586.3</ele>
        <time>2009-03-11T08:08:42Z</time>
      </trkpt>
      <trkpt lat="38.179834" lon="-2.838573">
        <ele>583.5</ele>
        <time>2009-03-11T08:08:46Z</time>
      </trkpt>
      <trkpt lat="38.180046" lon="-2.838996">
        <ele>576.4</ele>
        <time>2009-03-11T08:08:51Z</time>
      </trkpt>
      <trkpt lat="38.180122" lon="-2.839253">
        <ele>573.0</ele>
        <time>2009-03-11T08:08:53Z</time>
      </trkpt>
      <trkpt lat="38.180198" lon="-2.839510">
        <ele>569.4</ele>
        <time>2009-03-11T08:08:55Z</time>
      </trkpt>
      <trkpt lat="38.180202" lon="-2.839662">
        <ele>569.3</ele>
        <time>2009-03-11T08:08:57Z</time>
      </trkpt>
      <trkpt lat="38.180206" lon="-2.839813">
        <ele>569.1</ele>
        <time>2009-03-11T08:08:58Z</time>
      </trkpt>
      <trkpt lat="38.180222" lon="-2.840452">
        <ele>568.2</ele>
        <time>2009-03-11T08:09:04Z</time>
      </trkpt>
      <trkpt lat="38.180237" lon="-2.841092">
        <ele>565.3</ele>
        <time>2009-03-11T08:09:09Z</time>
      </trkpt>
      <trkpt lat="38.180270" lon="-2.841330">
        <ele>563.1</ele>
        <time>2009-03-11T08:09:11Z</time>
      </trkpt>
      <trkpt lat="38.180303" lon="-2.841569">
        <ele>561.6</ele>
        <time>2009-03-11T08:09:13Z</time>
      </trkpt>
      <trkpt lat="38.180242" lon="-2.841845">
        <ele>565.0</ele>
        <time>2009-03-11T08:09:16Z</time>
      </trkpt>
      <trkpt lat="38.180180" lon="-2.842121">
        <ele>569.0</ele>
        <time>2009-03-11T08:09:18Z</time>
      </trkpt>
      <trkpt lat="38.180173" lon="-2.842273">
        <ele>571.2</ele>
        <time>2009-03-11T08:09:20Z</time>
      </trkpt>
      <trkpt lat="38.180166" lon="-2.842425">
        <ele>573.5</ele>
        <time>2009-03-11T08:09:21Z</time>
      </trkpt>
      <trkpt lat="38.180183" lon="-2.842794">
        <ele>577.0</ele>
        <time>2009-03-11T08:09:24Z</time>
      </trkpt>
      <trkpt lat="38.180199" lon="-2.843162">
        <ele>585.8</ele>
        <time>2009-03-11T08:09:28Z</time>
      </trkpt>
      <trkpt lat="38.180222" lon="-2.843392">
        <ele>592.0</ele>
        <time>2009-03-11T08:09:30Z</time>
      </trkpt>
      <trkpt lat="38.180245" lon="-2.843621">
        <ele>598.0</ele>
        <time>2009-03-11T08:09:32Z</time>
      </trkpt>
      <trkpt lat="38.180408" lon="-2.843752">
        <ele>590.3</ele>
        <time>2009-03-11T08:09:34Z</time>
      </trkpt>
      <trkpt lat="38.180571" lon="-2.843884">
        <ele>589.4</ele>
        <time>2009-03-11T08:09:36Z</time>
      </trkpt>
      <trkpt lat="38.180785" lon="-2.844320">
        <ele>599.3</ele>
        <time>2009-03-11T08:09:40Z</time>
      </trkpt>
      <trkpt lat="38.180998" lon="-2.844755">
        <ele>606.3</ele>
        <time>2009-03-11T08:09:45Z</time>
      </trkpt>
      <trkpt lat="38.181228" lon="-2.845185">
        <ele>608.7</ele>
        <time>2009-03-11T08:09:49Z</time>
      </trkpt>
      <trkpt lat="38.181459" lon="-2.845614">
        <ele>603.4</ele>
        <time>2009-03-11T08:09:54Z</time>
      </trkpt>
      <trkpt lat="38.181577" lon="-2.845757">
        <ele>596.1</ele>
        <time>2009-03-11T08:09:56Z</time>
      </trkpt>
      <trkpt lat="38.181697" lon="-2.845899">
        <ele>588.1</ele>
        <time>2009-03-11T08:09:58Z</time>
      </trkpt>
      <trkpt lat="38.181731" lon="-2.846036">
        <ele>586.9</ele>
        <time>2009-03-11T08:09:59Z</time>
      </trkpt>
      <trkpt lat="38.181765" lon="-2.846171">
        <ele>585.6</ele>
        <time>2009-03-11T08:10:00Z</time>
      </trkpt>
      <trkpt lat="38.181737" lon="-2.846372">
        <ele>588.3</ele>
        <time>2009-03-11T08:10:02Z</time>
      </trkpt>
      <trkpt lat="38.181709" lon="-2.846572">
        <ele>589.5</ele>
        <time>2009-03-11T08:10:04Z</time>
      </trkpt>
      <trkpt lat="38.181624" lon="-2.846773">
        <ele>596.7</ele>
        <time>2009-03-11T08:10:06Z</time>
      </trkpt>
      <trkpt lat="38.181540" lon="-2.846973">
        <ele>604.6</ele>
        <time>2009-03-11T08:10:08Z</time>
      </trkpt>
      <trkpt lat="38.181495" lon="-2.847546">
        <ele>608.3</ele>
        <time>2009-03-11T08:10:13Z</time>
      </trkpt>
      <trkpt lat="38.181451" lon="-2.848119">
        <ele>610.8</ele>
        <time>2009-03-11T08:10:18Z</time>
      </trkpt>
      <trkpt lat="38.181474" lon="-2.848413">
        <ele>605.4</ele>
        <time>2009-03-11T08:10:20Z</time>
      </trkpt>
      <trkpt lat="38.181497" lon="-2.848706">
        <ele>600.5</ele>
        <time>2009-03-11T08:10:23Z</time>
      </trkpt>
      <trkpt lat="38.181554" lon="-2.849214">
        <ele>593.0</ele>
        <time>2009-03-11T08:10:27Z</time>
      </trkpt>
      <trkpt lat="38.181611" lon="-2.849722">
        <ele>587.2</ele>
        <time>2009-03-11T08:10:32Z</time>
      </trkpt>
      <trkpt lat="38.181566" lon="-2.849937">
        <ele>589.3</ele>
        <time>2009-03-11T08:10:34Z</time>
      </trkpt>
      <trkpt lat="38.181521" lon="-2.850152">
        <ele>590.7</ele>
        <time>2009-03-11T08:10:36Z</time>
      </trkpt>
      <trkpt lat="38.181527" lon="-2.850352">
        <ele>589.4</ele>
        <time>2009-03-11T08:10:37Z</time>
      </trkpt>
      <trkpt lat="38.181470" lon="-2.850554">
        <ele>591.6</ele>
        <time>2009-03-11T08:10:39Z</time>
      </trkpt>
      <trkpt lat="38.181531" lon="-2.850744">
        <ele>591.9</ele>
        <time>2009-03-11T08:10:40Z</time>
      </trkpt>
      <trkpt lat="38.181643" lon="-2.850829">
        <ele>592.4</ele>
        <time>2009-03-11T08:10:41Z</time>
      </trkpt>
      <trkpt lat="38.181929" lon="-2.850888">
        <ele>586.3</ele>
        <time>2009-03-11T08:10:45Z</time>
      </trkpt>
      <trkpt lat="38.182223" lon="-2.851024">
        <ele>582.8</ele>
        <time>2009-03-11T08:10:48Z</time>
      </trkpt>
      <trkpt lat="38.182374" lon="-2.851223">
        <ele>584.1</ele>
        <time>2009-03-11T08:10:50Z</time>
      </trkpt>
      <trkpt lat="38.182391" lon="-2.851365">
        <ele>585.3</ele>
        <time>2009-03-11T08:10:51Z</time>
      </trkpt>
      <trkpt lat="38.182263" lon="-2.851323">
        <ele>588.9</ele>
        <time>2009-03-11T08:10:54Z</time>
      </trkpt>
      <trkpt lat="38.182012" lon="-2.851277">
        <ele>593.3</ele>
        <time>2009-03-11T08:10:56Z</time>
      </trkpt>
      <trkpt lat="38.181717" lon="-2.851239">
        <ele>599.8</ele>
        <time>2009-03-11T08:10:59Z</time>
      </trkpt>
      <trkpt lat="38.181469" lon="-2.851239">
        <ele>606.3</ele>
        <time>2009-03-11T08:11:02Z</time>
      </trkpt>
      <trkpt lat="38.181332" lon="-2.851331">
        <ele>609.3</ele>
        <time>2009-03-11T08:11:03Z</time>
      </trkpt>
      <trkpt lat="38.181410" lon="-2.851458">
        <ele>613.2</ele>
        <time>2009-03-11T08:11:04Z</time>
      </trkpt>
      <trkpt lat="38.181630" lon="-2.851455">
        <ele>609.2</ele>
        <time>2009-03-11T08:11:06Z</time>
      </trkpt>
      <trkpt lat="38.181828" lon="-2.851497">
        <ele>605.3</ele>
        <time>2009-03-11T08:11:08Z</time>
      </trkpt>
      <trkpt lat="38.181970" lon="-2.851761">
        <ele>609.5</ele>
        <time>2009-03-11T08:11:11Z</time>
      </trkpt>
      <trkpt lat="38.182111" lon="-2.852026">
        <ele>613.9</ele>
        <time>2009-03-11T08:11:14Z</time>
      </trkpt>
      <trkpt lat="38.182281" lon="-2.852212">
        <ele>615.0</ele>
        <time>2009-03-11T08:11:16Z</time>
      </trkpt>
      <trkpt lat="38.182451" lon="-2.852397">
        <ele>615.4</ele>
        <time>2009-03-11T08:11:19Z</time>
      </trkpt>
      <trkpt lat="38.182389" lon="-2.852577">
        <ele>622.1</ele>
        <time>2009-03-11T08:11:21Z</time>
      </trkpt>
      <trkpt lat="38.182327" lon="-2.852756">
        <ele>629.0</ele>
        <time>2009-03-11T08:11:22Z</time>
      </trkpt>
      <trkpt lat="38.182304" lon="-2.852928">
        <ele>634.6</ele>
        <time>2009-03-11T08:11:24Z</time>
      </trkpt>
      <trkpt lat="38.182282" lon="-2.853099">
        <ele>639.9</ele>
        <time>2009-03-11T08:11:25Z</time>
      </trkpt>
      <trkpt lat="38.182259" lon="-2.853236">
        <ele>644.1</ele>
        <time>2009-03-11T08:11:27Z</time>
      </trkpt>
      <trkpt lat="38.182237" lon="-2.853372">
        <ele>648.4</ele>
        <time>2009-03-11T08:11:28Z</time>
      </trkpt>
      <trkpt lat="38.182083" lon="-2.853163">
        <ele>645.4</ele>
        <time>2009-03-11T08:11:30Z</time>
      </trkpt>
      <trkpt lat="38.182021" lon="-2.853021">
        <ele>642.4</ele>
        <time>2009-03-11T08:11:33Z</time>
      </trkpt>
      <trkpt lat="38.181951" lon="-2.852933">
        <ele>645.2</ele>
        <time>2009-03-11T08:11:33Z</time>
      </trkpt>
      <trkpt lat="38.181874" lon="-2.853100">
        <ele>647.9</ele>
        <time>2009-03-11T08:11:34Z</time>
      </trkpt>
      <trkpt lat="38.181875" lon="-2.853331">
        <ele>654.0</ele>
        <time>2009-03-11T08:11:36Z</time>
      </trkpt>
      <trkpt lat="38.181925" lon="-2.853571">
        <ele>660.1</ele>
        <time>2009-03-11T08:11:38Z</time>
      </trkpt>
      <trkpt lat="38.182019" lon="-2.853743">
        <ele>662.9</ele>
        <time>2009-03-11T08:11:40Z</time>
      </trkpt>
      <trkpt lat="38.182080" lon="-2.853844">
        <ele>665.7</ele>
        <time>2009-03-11T08:11:42Z</time>
      </trkpt>
      <trkpt lat="38.182170" lon="-2.853959">
        <ele>665.8</ele>
        <time>2009-03-11T08:11:43Z</time>
      </trkpt>
      <trkpt lat="38.182261" lon="-2.854073">
        <ele>665.8</ele>
        <time>2009-03-11T08:11:45Z</time>
      </trkpt>
      <trkpt lat="38.182204" lon="-2.854130">
        <ele>669.1</ele>
        <time>2009-03-11T08:11:46Z</time>
      </trkpt>
      <trkpt lat="38.182092" lon="-2.854128">
        <ele>672.5</ele>
        <time>2009-03-11T08:11:46Z</time>
      </trkpt>
      <trkpt lat="38.181758" lon="-2.853749">
        <ele>673.1</ele>
        <time>2009-03-11T08:11:53Z</time>
      </trkpt>
      <trkpt lat="38.181339" lon="-2.853264">
        <ele>672.4</ele>
        <time>2009-03-11T08:11:59Z</time>
      </trkpt>
      <trkpt lat="38.181061" lon="-2.853138">
        <ele>677.6</ele>
        <time>2009-03-11T08:12:02Z</time>
      </trkpt>
      <trkpt lat="38.180745" lon="-2.853074">
        <ele>679.1</ele>
        <time>2009-03-11T08:12:06Z</time>
      </trkpt>
      <trkpt lat="38.180587" lon="-2.853138">
        <ele>683.3</ele>
        <time>2009-03-11T08:12:08Z</time>
      </trkpt>
      <trkpt lat="38.180577" lon="-2.853128">
        <ele>671.1</ele>
        <time>1989-12-30T23:59:59Z</time>
      </trkpt>
      <trkpt lat="38.180499" lon="-2.853200">
        <ele>667.3</ele>
        <time>1989-12-30T23:59:59Z</time>
      </trkpt>
      <trkpt lat="38.180429" lon="-2.853282">
        <ele>667.8</ele>
        <time>1989-12-30T23:59:59Z</time>
      </trkpt>
      <trkpt lat="38.180364" lon="-2.853372">
        <ele>669.2</ele>
        <time>1989-12-30T23:59:59Z</time>
      </trkpt>
      <trkpt lat="38.180285" lon="-2.853444">
        <ele>669.7</ele>
        <time>1989-12-30T23:59:59Z</time>
      </trkpt>
      <trkpt lat="38.180221" lon="-2.853537">
        <ele>669.7</ele>
        <time>1989-12-30T23:59:59Z</time>
      </trkpt>
      <trkpt lat="38.180358" lon="-2.853703">
        <ele>673.5</ele>
        <time>1989-12-30T23:59:59Z</time>
      </trkpt>
      <trkpt lat="38.180430" lon="-2.853799">
        <ele>675.0</ele>
        <time>1989-12-30T23:59:59Z</time>
      </trkpt>
      <trkpt lat="38.180509" lon="-2.853881">
        <ele>675.5</ele>
        <time>1989-12-30T23:59:59Z</time>
      </trkpt>
      <trkpt lat="38.180598" lon="-2.853910">
        <ele>677.4</ele>
        <time>1989-12-30T23:59:59Z</time>
      </trkpt>
      <trkpt lat="38.180700" lon="-2.853969">
        <ele>678.8</ele>
        <time>1989-12-30T23:59:59Z</time>
      </trkpt>
      <trkpt lat="38.180775" lon="-2.854048">
        <ele>679.8</ele>
        <time>1989-12-30T23:59:59Z</time>
      </trkpt>
      <trkpt lat="38.180867" lon="-2.854099">
        <ele>681.2</ele>
        <time>1989-12-30T23:59:59Z</time>
      </trkpt>
      <trkpt lat="38.180958" lon="-2.854151">
        <ele>681.7</ele>
        <time>1989-12-30T23:59:59Z</time>
      </trkpt>
      <trkpt lat="38.181020" lon="-2.854248">
        <ele>685.6</ele>
        <time>1989-12-30T23:59:59Z</time>
      </trkpt>
      <trkpt lat="38.181063" lon="-2.854361">
        <ele>688.4</ele>
        <time>1989-12-30T23:59:59Z</time>
      </trkpt>
      <trkpt lat="38.181097" lon="-2.854484">
        <ele>689.9</ele>
        <time>1989-12-30T23:59:59Z</time>
      </trkpt>
      <trkpt lat="38.181104" lon="-2.854606">
        <ele>691.3</ele>
        <time>1989-12-30T23:59:59Z</time>
      </trkpt>
      <trkpt lat="38.181128" lon="-2.854730">
        <ele>691.8</ele>
        <time>1989-12-30T23:59:59Z</time>
      </trkpt>
      <trkpt lat="38.181164" lon="-2.854982">
        <ele>694.2</ele>
        <time>1989-12-30T23:59:59Z</time>
      </trkpt>
      <trkpt lat="38.181200" lon="-2.855101">
        <ele>695.7</ele>
        <time>1989-12-30T23:59:59Z</time>
      </trkpt>
      <trkpt lat="38.181282" lon="-2.855179">
        <ele>697.1</ele>
        <time>1989-12-30T23:59:59Z</time>
      </trkpt>
      <trkpt lat="38.181353" lon="-2.855264">
        <ele>699.0</ele>
        <time>1989-12-30T23:59:59Z</time>
      </trkpt>
      <trkpt lat="38.181393" lon="-2.855382">
        <ele>700.5</ele>
        <time>1989-12-30T23:59:59Z</time>
      </trkpt>
      <trkpt lat="38.181423" lon="-2.855494">
        <ele>704.3</ele>
        <time>1989-12-30T23:59:59Z</time>
      </trkpt>
      <trkpt lat="38.181439" lon="-2.855606">
        <ele>709.1</ele>
        <time>1989-12-30T23:59:59Z</time>
      </trkpt>
      <trkpt lat="38.181467" lon="-2.855726">
        <ele>711.5</ele>
        <time>1989-12-30T23:59:59Z</time>
      </trkpt>
      <trkpt lat="38.181510" lon="-2.855832">
        <ele>713.9</ele>
        <time>1989-12-30T23:59:59Z</time>
      </trkpt>
      <trkpt lat="38.181574" lon="-2.855923">
        <ele>716.3</ele>
        <time>1989-12-30T23:59:59Z</time>
      </trkpt>
      <trkpt lat="38.181648" lon="-2.855989">
        <ele>717.8</ele>
        <time>1989-12-30T23:59:59Z</time>
      </trkpt>
      <trkpt lat="38.181693" lon="-2.856089">
        <ele>719.7</ele>
        <time>1989-12-30T23:59:59Z</time>
      </trkpt>
      <trkpt lat="38.181687" lon="-2.856208">
        <ele>722.1</ele>
        <time>1989-12-30T23:59:59Z</time>
      </trkpt>
      <trkpt lat="38.181697" lon="-2.856321">
        <ele>725.0</ele>
        <time>1989-12-30T23:59:59Z</time>
      </trkpt>
      <trkpt lat="38.181753" lon="-2.856417">
        <ele>726.9</ele>
        <time>1989-12-30T23:59:59Z</time>
      </trkpt>
      <trkpt lat="38.181660" lon="-2.856453">
        <ele>726.9</ele>
        <time>1989-12-30T23:59:59Z</time>
      </trkpt>
      <trkpt lat="38.181579" lon="-2.856359">
        <ele>728.3</ele>
        <time>1989-12-30T23:59:59Z</time>
      </trkpt>
      <trkpt lat="38.181517" lon="-2.856263">
        <ele>730.3</ele>
        <time>1989-12-30T23:59:59Z</time>
      </trkpt>
      <trkpt lat="38.181436" lon="-2.856187">
        <ele>732.2</ele>
        <time>1989-12-30T23:59:59Z</time>
      </trkpt>
      <trkpt lat="38.181347" lon="-2.856137">
        <ele>733.6</ele>
        <time>1989-12-30T23:59:59Z</time>
      </trkpt>
      <trkpt lat="38.181284" lon="-2.856065">
        <ele>735.5</ele>
        <time>1989-12-30T23:59:59Z</time>
      </trkpt>
      <trkpt lat="38.181203" lon="-2.855995">
        <ele>737.0</ele>
        <time>1989-12-30T23:59:59Z</time>
      </trkpt>
      <trkpt lat="38.181121" lon="-2.855967">
        <ele>737.0</ele>
        <time>1989-12-30T23:59:59Z</time>
      </trkpt>
      <trkpt lat="38.181053" lon="-2.855896">
        <ele>737.5</ele>
        <time>1989-12-30T23:59:59Z</time>
      </trkpt>
      <trkpt lat="38.180992" lon="-2.855798">
        <ele>739.4</ele>
        <time>1989-12-30T23:59:59Z</time>
      </trkpt>
      <trkpt lat="38.180926" lon="-2.855724">
        <ele>740.8</ele>
        <time>1989-12-30T23:59:59Z</time>
      </trkpt>
      <trkpt lat="38.180871" lon="-2.855648">
        <ele>742.8</ele>
        <time>1989-12-30T23:59:59Z</time>
      </trkpt>
      <trkpt lat="38.180801" lon="-2.855582">
        <ele>743.7</ele>
        <time>1989-12-30T23:59:59Z</time>
      </trkpt>
      <trkpt lat="38.180716" lon="-2.855524">
        <ele>744.2</ele>
        <time>1989-12-30T23:59:59Z</time>
      </trkpt>
      <trkpt lat="38.180627" lon="-2.855485">
        <ele>744.7</ele>
        <time>1989-12-30T23:59:59Z</time>
      </trkpt>
      <trkpt lat="38.180552" lon="-2.855451">
        <ele>745.6</ele>
        <time>1989-12-30T23:59:59Z</time>
      </trkpt>
      <trkpt lat="38.180454" lon="-2.855371">
        <ele>748.5</ele>
        <time>1989-12-30T23:59:59Z</time>
      </trkpt>
      <trkpt lat="38.180371" lon="-2.855310">
        <ele>749.5</ele>
        <time>1989-12-30T23:59:59Z</time>
      </trkpt>
      <trkpt lat="38.180280" lon="-2.855230">
        <ele>749.0</ele>
        <time>1989-12-30T23:59:59Z</time>
      </trkpt>
      <trkpt lat="38.180265" lon="-2.855192">
        <ele>749.5</ele>
        <time>1989-12-30T23:59:59Z</time>
      </trkpt>
      <trkpt lat="38.180230" lon="-2.855287">
        <ele>746.6</ele>
        <time>1989-12-30T23:59:59Z</time>
      </trkpt>
      <trkpt lat="38.180348" lon="-2.855440">
        <ele>744.7</ele>
        <time>1989-12-30T23:59:59Z</time>
      </trkpt>
      <trkpt lat="38.180414" lon="-2.855515">
        <ele>745.6</ele>
        <time>1989-12-30T23:59:59Z</time>
      </trkpt>
      <trkpt lat="38.180479" lon="-2.855596">
        <ele>749.5</ele>
        <time>1989-12-30T23:59:59Z</time>
      </trkpt>
      <trkpt lat="38.180532" lon="-2.855685">
        <ele>748.0</ele>
        <time>1989-12-30T23:59:59Z</time>
      </trkpt>
      <trkpt lat="38.180569" lon="-2.855797">
        <ele>750.0</ele>
        <time>1989-12-30T23:59:59Z</time>
      </trkpt>
      <trkpt lat="38.180628" lon="-2.855876">
        <ele>749.5</ele>
        <time>1989-12-30T23:59:59Z</time>
      </trkpt>
      <trkpt lat="38.180674" lon="-2.855967">
        <ele>753.3</ele>
        <time>1989-12-30T23:59:59Z</time>
      </trkpt>
      <trkpt lat="38.180730" lon="-2.856061">
        <ele>753.3</ele>
        <time>1989-12-30T23:59:59Z</time>
      </trkpt>
      <trkpt lat="38.180794" lon="-2.856134">
        <ele>755.7</ele>
        <time>1989-12-30T23:59:59Z</time>
      </trkpt>
      <trkpt lat="38.180808" lon="-2.856238">
        <ele>755.7</ele>
        <time>1989-12-30T23:59:59Z</time>
      </trkpt>
      <trkpt lat="38.180815" lon="-2.856361">
        <ele>756.7</ele>
        <time>1989-12-30T23:59:59Z</time>
      </trkpt>
      <trkpt lat="38.180866" lon="-2.856466">
        <ele>757.7</ele>
        <time>1989-12-30T23:59:59Z</time>
      </trkpt>
      <trkpt lat="38.180911" lon="-2.856561">
        <ele>758.1</ele>
        <time>1989-12-30T23:59:59Z</time>
      </trkpt>
      <trkpt lat="38.180948" lon="-2.856661">
        <ele>757.2</ele>
        <time>1989-12-30T23:59:59Z</time>
      </trkpt>
      <trkpt lat="38.180982" lon="-2.856768">
        <ele>759.1</ele>
        <time>1989-12-30T23:59:59Z</time>
      </trkpt>
      <trkpt lat="38.181012" lon="-2.856885">
        <ele>762.9</ele>
        <time>1989-12-30T23:59:59Z</time>
      </trkpt>
      <trkpt lat="38.181039" lon="-2.857002">
        <ele>764.9</ele>
        <time>1989-12-30T23:59:59Z</time>
      </trkpt>
      <trkpt lat="38.181071" lon="-2.857102">
        <ele>763.4</ele>
        <time>1989-12-30T23:59:59Z</time>
      </trkpt>
      <trkpt lat="38.181122" lon="-2.857206">
        <ele>764.9</ele>
        <time>1989-12-30T23:59:59Z</time>
      </trkpt>
      <trkpt lat="38.181120" lon="-2.857327">
        <ele>765.8</ele>
        <time>1989-12-30T23:59:59Z</time>
      </trkpt>
      <trkpt lat="38.181078" lon="-2.857425">
        <ele>768.7</ele>
        <time>1989-12-30T23:59:59Z</time>
      </trkpt>
      <trkpt lat="38.181038" lon="-2.857530">
        <ele>771.6</ele>
        <time>1989-12-30T23:59:59Z</time>
      </trkpt>
      <trkpt lat="38.181011" lon="-2.857650">
        <ele>773.0</ele>
        <time>1989-12-30T23:59:59Z</time>
      </trkpt>
      <trkpt lat="38.180991" lon="-2.857767">
        <ele>772.6</ele>
        <time>1989-12-30T23:59:59Z</time>
      </trkpt>
      <trkpt lat="38.180976" lon="-2.857875">
        <ele>775.0</ele>
        <time>1989-12-30T23:59:59Z</time>
      </trkpt>
      <trkpt lat="38.180941" lon="-2.857989">
        <ele>775.9</ele>
        <time>1989-12-30T23:59:59Z</time>
      </trkpt>
      <trkpt lat="38.180884" lon="-2.858084">
        <ele>775.9</ele>
        <time>1989-12-30T23:59:59Z</time>
      </trkpt>
      <trkpt lat="38.180841" lon="-2.858189">
        <ele>776.9</ele>
        <time>1989-12-30T23:59:59Z</time>
      </trkpt>
      <trkpt lat="38.180805" lon="-2.858291">
        <ele>777.4</ele>
        <time>1989-12-30T23:59:59Z</time>
      </trkpt>
      <trkpt lat="38.180771" lon="-2.858390">
        <ele>778.3</ele>
        <time>1989-12-30T23:59:59Z</time>
      </trkpt>
      <trkpt lat="38.180736" lon="-2.858500">
        <ele>778.3</ele>
        <time>1989-12-30T23:59:59Z</time>
      </trkpt>
      <trkpt lat="38.180750" lon="-2.858695">
        <ele>808.1</ele>
        <time>1989-12-30T23:59:59Z</time>
      </trkpt>
      <trkpt lat="38.180762" lon="-2.858779">
        <ele>806.7</ele>
        <time>1989-12-30T23:59:59Z</time>
      </trkpt>
      <trkpt lat="38.180732" lon="-2.858905">
        <ele>782.7</ele>
        <time>1989-12-30T23:59:59Z</time>
      </trkpt>
      <trkpt lat="38.180812" lon="-2.858973">
        <ele>786.5</ele>
        <time>1989-12-30T23:59:59Z</time>
      </trkpt>
      <trkpt lat="38.180884" lon="-2.859053">
        <ele>787.5</ele>
        <time>1989-12-30T23:59:59Z</time>
      </trkpt>
      <trkpt lat="38.180940" lon="-2.859146">
        <ele>789.4</ele>
        <time>1989-12-30T23:59:59Z</time>
      </trkpt>
      <trkpt lat="38.181002" lon="-2.859234">
        <ele>788.4</ele>
        <time>1989-12-30T23:59:59Z</time>
      </trkpt>
      <trkpt lat="38.181083" lon="-2.859295">
        <ele>790.3</ele>
        <time>1989-12-30T23:59:59Z</time>
      </trkpt>
      <trkpt lat="38.181171" lon="-2.859337">
        <ele>791.8</ele>
        <time>1989-12-30T23:59:59Z</time>
      </trkpt>
      <trkpt lat="38.181257" lon="-2.859396">
        <ele>793.2</ele>
        <time>1989-12-30T23:59:59Z</time>
      </trkpt>
      <trkpt lat="38.181331" lon="-2.859479">
        <ele>795.1</ele>
        <time>1989-12-30T23:59:59Z</time>
      </trkpt>
      <trkpt lat="38.181396" lon="-2.859569">
        <ele>798.0</ele>
        <time>1989-12-30T23:59:59Z</time>
      </trkpt>
      <trkpt lat="38.181456" lon="-2.859687">
        <ele>797.1</ele>
        <time>1989-12-30T23:59:59Z</time>
      </trkpt>
      <trkpt lat="38.181515" lon="-2.859795">
        <ele>798.5</ele>
        <time>1989-12-30T23:59:59Z</time>
      </trkpt>
      <trkpt lat="38.181550" lon="-2.859924">
        <ele>798.0</ele>
        <time>1989-12-30T23:59:59Z</time>
      </trkpt>
      <trkpt lat="38.181596" lon="-2.860044">
        <ele>800.0</ele>
        <time>1989-12-30T23:59:59Z</time>
      </trkpt>
      <trkpt lat="38.181621" lon="-2.860164">
        <ele>797.1</ele>
        <time>1989-12-30T23:59:59Z</time>
      </trkpt>
      <trkpt lat="38.181643" lon="-2.860286">
        <ele>798.0</ele>
        <time>1989-12-30T23:59:59Z</time>
      </trkpt>
      <trkpt lat="38.181706" lon="-2.860381">
        <ele>799.0</ele>
        <time>1989-12-30T23:59:59Z</time>
      </trkpt>
      <trkpt lat="38.181852" lon="-2.860537">
        <ele>796.6</ele>
        <time>1989-12-30T23:59:59Z</time>
      </trkpt>
      <trkpt lat="38.181921" lon="-2.860601">
        <ele>805.7</ele>
        <time>1989-12-30T23:59:59Z</time>
      </trkpt>
      <trkpt lat="38.181987" lon="-2.860660">
        <ele>804.3</ele>
        <time>1989-12-30T23:59:59Z</time>
      </trkpt>
      <trkpt lat="38.182059" lon="-2.860716">
        <ele>803.3</ele>
        <time>1989-12-30T23:59:59Z</time>
      </trkpt>
      <trkpt lat="38.182091" lon="-2.860829">
        <ele>804.3</ele>
        <time>1989-12-30T23:59:59Z</time>
      </trkpt>
      <trkpt lat="38.182134" lon="-2.860923">
        <ele>804.8</ele>
        <time>1989-12-30T23:59:59Z</time>
      </trkpt>
      <trkpt lat="38.182175" lon="-2.861030">
        <ele>804.8</ele>
        <time>1989-12-30T23:59:59Z</time>
      </trkpt>
      <trkpt lat="38.182222" lon="-2.861140">
        <ele>806.2</ele>
        <time>1989-12-30T23:59:59Z</time>
      </trkpt>
      <trkpt lat="38.182295" lon="-2.861220">
        <ele>806.7</ele>
        <time>1989-12-30T23:59:59Z</time>
      </trkpt>
      <trkpt lat="38.182351" lon="-2.861310">
        <ele>807.2</ele>
        <time>1989-12-30T23:59:59Z</time>
      </trkpt>
      <trkpt lat="38.182428" lon="-2.861386">
        <ele>808.6</ele>
        <time>1989-12-30T23:59:59Z</time>
      </trkpt>
      <trkpt lat="38.182499" lon="-2.861460">
        <ele>809.6</ele>
        <time>1989-12-30T23:59:59Z</time>
      </trkpt>
      <trkpt lat="38.182586" lon="-2.861502">
        <ele>809.6</ele>
        <time>1989-12-30T23:59:59Z</time>
      </trkpt>
      <trkpt lat="38.182663" lon="-2.861521">
        <ele>811.0</ele>
        <time>1989-12-30T23:59:59Z</time>
      </trkpt>
      <trkpt lat="38.182746" lon="-2.861554">
        <ele>811.0</ele>
        <time>1989-12-30T23:59:59Z</time>
      </trkpt>
      <trkpt lat="38.182833" lon="-2.861603">
        <ele>812.0</ele>
        <time>1989-12-30T23:59:59Z</time>
      </trkpt>
      <trkpt lat="38.182925" lon="-2.861582">
        <ele>812.0</ele>
        <time>1989-12-30T23:59:59Z</time>
      </trkpt>
      <trkpt lat="38.183017" lon="-2.861530">
        <ele>812.5</ele>
        <time>1989-12-30T23:59:59Z</time>
      </trkpt>
      <trkpt lat="38.183095" lon="-2.861474">
        <ele>813.4</ele>
        <time>1989-12-30T23:59:59Z</time>
      </trkpt>
      <trkpt lat="38.183177" lon="-2.861404">
        <ele>814.9</ele>
        <time>1989-12-30T23:59:59Z</time>
      </trkpt>
      <trkpt lat="38.183254" lon="-2.861328">
        <ele>815.8</ele>
        <time>1989-12-30T23:59:59Z</time>
      </trkpt>
      <trkpt lat="38.183296" lon="-2.861306">
        <ele>816.3</ele>
        <time>1989-12-30T23:59:59Z</time>
      </trkpt>
      <trkpt lat="38.183387" lon="-2.861198">
        <ele>819.2</ele>
        <time>1989-12-30T23:59:59Z</time>
      </trkpt>
      <trkpt lat="38.183472" lon="-2.861179">
        <ele>822.1</ele>
        <time>1989-12-30T23:59:59Z</time>
      </trkpt>
      <trkpt lat="38.183559" lon="-2.861152">
        <ele>822.5</ele>
        <time>1989-12-30T23:59:59Z</time>
      </trkpt>
      <trkpt lat="38.183647" lon="-2.861121">
        <ele>822.5</ele>
        <time>1989-12-30T23:59:59Z</time>
      </trkpt>
      <trkpt lat="38.183741" lon="-2.861120">
        <ele>825.9</ele>
        <time>1989-12-30T23:59:59Z</time>
      </trkpt>
      <trkpt lat="38.183832" lon="-2.861108">
        <ele>829.8</ele>
        <time>1989-12-30T23:59:59Z</time>
      </trkpt>
      <trkpt lat="38.183920" lon="-2.861090">
        <ele>831.2</ele>
        <time>1989-12-30T23:59:59Z</time>
      </trkpt>
      <trkpt lat="38.183970" lon="-2.861083">
        <ele>828.3</ele>
        <time>1989-12-30T23:59:59Z</time>
      </trkpt>
      <trkpt lat="38.184060" lon="-2.861070">
        <ele>828.3</ele>
        <time>1989-12-30T23:59:59Z</time>
      </trkpt>
      <trkpt lat="38.184148" lon="-2.861064">
        <ele>829.3</ele>
        <time>1989-12-30T23:59:59Z</time>
      </trkpt>
      <trkpt lat="38.184245" lon="-2.861052">
        <ele>830.2</ele>
        <time>1989-12-30T23:59:59Z</time>
      </trkpt>
      <trkpt lat="38.184336" lon="-2.861039">
        <ele>831.2</ele>
        <time>1989-12-30T23:59:59Z</time>
      </trkpt>
      <trkpt lat="38.184434" lon="-2.861051">
        <ele>832.2</ele>
        <time>1989-12-30T23:59:59Z</time>
      </trkpt>
      <trkpt lat="38.184519" lon="-2.861083">
        <ele>834.1</ele>
        <time>1989-12-30T23:59:59Z</time>
      </trkpt>
      <trkpt lat="38.184603" lon="-2.861125">
        <ele>834.6</ele>
        <time>1989-12-30T23:59:59Z</time>
      </trkpt>
      <trkpt lat="38.184694" lon="-2.861174">
        <ele>834.1</ele>
        <time>1989-12-30T23:59:59Z</time>
      </trkpt>
      <trkpt lat="38.184788" lon="-2.861209">
        <ele>837.0</ele>
        <time>1989-12-30T23:59:59Z</time>
      </trkpt>
      <trkpt lat="38.184879" lon="-2.861241">
        <ele>838.4</ele>
        <time>1989-12-30T23:59:59Z</time>
      </trkpt>
      <trkpt lat="38.184975" lon="-2.861282">
        <ele>840.3</ele>
        <time>1989-12-30T23:59:59Z</time>
      </trkpt>
      <trkpt lat="38.185059" lon="-2.861313">
        <ele>841.3</ele>
        <time>1989-12-30T23:59:59Z</time>
      </trkpt>
      <trkpt lat="38.185159" lon="-2.861330">
        <ele>841.3</ele>
        <time>1989-12-30T23:59:59Z</time>
      </trkpt>
      <trkpt lat="38.185251" lon="-2.861324">
        <ele>841.3</ele>
        <time>1989-12-30T23:59:59Z</time>
      </trkpt>
      <trkpt lat="38.185347" lon="-2.861312">
        <ele>841.3</ele>
        <time>1989-12-30T23:59:59Z</time>
      </trkpt>
      <trkpt lat="38.185435" lon="-2.861266">
        <ele>842.7</ele>
        <time>1989-12-30T23:59:59Z</time>
      </trkpt>
      <trkpt lat="38.185523" lon="-2.861197">
        <ele>844.2</ele>
        <time>1989-12-30T23:59:59Z</time>
      </trkpt>
      <trkpt lat="38.185600" lon="-2.861131">
        <ele>845.1</ele>
        <time>1989-12-30T23:59:59Z</time>
      </trkpt>
      <trkpt lat="38.185689" lon="-2.861076">
        <ele>847.1</ele>
        <time>1989-12-30T23:59:59Z</time>
      </trkpt>
      <trkpt lat="38.185774" lon="-2.861029">
        <ele>848.0</ele>
        <time>1989-12-30T23:59:59Z</time>
      </trkpt>
      <trkpt lat="38.185866" lon="-2.860991">
        <ele>849.9</ele>
        <time>1989-12-30T23:59:59Z</time>
      </trkpt>
      <trkpt lat="38.185960" lon="-2.860993">
        <ele>851.4</ele>
        <time>1989-12-30T23:59:59Z</time>
      </trkpt>
      <trkpt lat="38.186040" lon="-2.861068">
        <ele>852.8</ele>
        <time>1989-12-30T23:59:59Z</time>
      </trkpt>
      <trkpt lat="38.186091" lon="-2.861179">
        <ele>853.8</ele>
        <time>1989-12-30T23:59:59Z</time>
      </trkpt>
      <trkpt lat="38.186134" lon="-2.861300">
        <ele>853.3</ele>
        <time>1989-12-30T23:59:59Z</time>
      </trkpt>
      <trkpt lat="38.186184" lon="-2.861404">
        <ele>853.8</ele>
        <time>1989-12-30T23:59:59Z</time>
      </trkpt>
      <trkpt lat="38.186228" lon="-2.861512">
        <ele>853.3</ele>
        <time>1989-12-30T23:59:59Z</time>
      </trkpt>
      <trkpt lat="38.186270" lon="-2.861627">
        <ele>853.3</ele>
        <time>1989-12-30T23:59:59Z</time>
      </trkpt>
      <trkpt lat="38.186312" lon="-2.861739">
        <ele>853.8</ele>
        <time>1989-12-30T23:59:59Z</time>
      </trkpt>
      <trkpt lat="38.186355" lon="-2.861854">
        <ele>854.7</ele>
        <time>1989-12-30T23:59:59Z</time>
      </trkpt>
      <trkpt lat="38.186397" lon="-2.861982">
        <ele>855.7</ele>
        <time>1989-12-30T23:59:59Z</time>
      </trkpt>
      <trkpt lat="38.186426" lon="-2.862086">
        <ele>856.2</ele>
        <time>1989-12-30T23:59:59Z</time>
      </trkpt>
      <trkpt lat="38.186442" lon="-2.862105">
        <ele>856.2</ele>
        <time>1989-12-30T23:59:59Z</time>
      </trkpt>
      <trkpt lat="38.186455" lon="-2.862165">
        <ele>856.7</ele>
        <time>1989-12-30T23:59:59Z</time>
      </trkpt>
      <trkpt lat="38.186483" lon="-2.862294">
        <ele>856.7</ele>
        <time>1989-12-30T23:59:59Z</time>
      </trkpt>
      <trkpt lat="38.186488" lon="-2.862426">
        <ele>856.2</ele>
        <time>1989-12-30T23:59:59Z</time>
      </trkpt>
      <trkpt lat="38.186473" lon="-2.862548">
        <ele>856.7</ele>
        <time>1989-12-30T23:59:59Z</time>
      </trkpt>
      <trkpt lat="38.186422" lon="-2.862669">
        <ele>856.7</ele>
        <time>1989-12-30T23:59:59Z</time>
      </trkpt>
      <trkpt lat="38.186400" lon="-2.862704">
        <ele>855.2</ele>
        <time>1989-12-30T23:59:59Z</time>
      </trkpt>
      <trkpt lat="38.186340" lon="-2.862800">
        <ele>855.2</ele>
        <time>1989-12-30T23:59:59Z</time>
      </trkpt>
      <trkpt lat="38.186269" lon="-2.862896">
        <ele>855.7</ele>
        <time>1989-12-30T23:59:59Z</time>
      </trkpt>
      <trkpt lat="38.186187" lon="-2.862982">
        <ele>855.7</ele>
        <time>1989-12-30T23:59:59Z</time>
      </trkpt>
      <trkpt lat="38.186109" lon="-2.863065">
        <ele>856.7</ele>
        <time>1989-12-30T23:59:59Z</time>
      </trkpt>
      <trkpt lat="38.186020" lon="-2.863105">
        <ele>859.1</ele>
        <time>1989-12-30T23:59:59Z</time>
      </trkpt>
      <trkpt lat="38.185948" lon="-2.863087">
        <ele>856.7</ele>
        <time>1989-12-30T23:59:59Z</time>
      </trkpt>
      <trkpt lat="38.185993" lon="-2.863007">
        <ele>859.1</ele>
        <time>1989-12-30T23:59:59Z</time>
      </trkpt>
      <trkpt lat="38.186015" lon="-2.862894">
        <ele>861.5</ele>
        <time>1989-12-30T23:59:59Z</time>
      </trkpt>
      <trkpt lat="38.186048" lon="-2.862798">
        <ele>862.4</ele>
        <time>1989-12-30T23:59:59Z</time>
      </trkpt>
      <trkpt lat="38.186091" lon="-2.862694">
        <ele>863.9</ele>
        <time>1989-12-30T23:59:59Z</time>
      </trkpt>
      <trkpt lat="38.186109" lon="-2.862581">
        <ele>865.8</ele>
        <time>1989-12-30T23:59:59Z</time>
      </trkpt>
      <trkpt lat="38.186106" lon="-2.862509">
        <ele>867.2</ele>
        <time>1989-12-30T23:59:59Z</time>
      </trkpt>
      <trkpt lat="38.186097" lon="-2.862404">
        <ele>866.8</ele>
        <time>1989-12-30T23:59:59Z</time>
      </trkpt>
      <trkpt lat="38.186060" lon="-2.862316">
        <ele>867.2</ele>
        <time>1989-12-30T23:59:59Z</time>
      </trkpt>
      <trkpt lat="38.186017" lon="-2.862216">
        <ele>868.2</ele>
        <time>1989-12-30T23:59:59Z</time>
      </trkpt>
      <trkpt lat="38.185965" lon="-2.862121">
        <ele>869.6</ele>
        <time>1989-12-30T23:59:59Z</time>
      </trkpt>
      <trkpt lat="38.185893" lon="-2.862028">
        <ele>872.1</ele>
        <time>1989-12-30T23:59:59Z</time>
      </trkpt>
      <trkpt lat="38.185818" lon="-2.861997">
        <ele>873.5</ele>
        <time>1989-12-30T23:59:59Z</time>
      </trkpt>
      <trkpt lat="38.185731" lon="-2.861968">
        <ele>876.4</ele>
        <time>1989-12-30T23:59:59Z</time>
      </trkpt>
      <trkpt lat="38.185632" lon="-2.861987">
        <ele>878.3</ele>
        <time>1989-12-30T23:59:59Z</time>
      </trkpt>
      <trkpt lat="38.185542" lon="-2.862043">
        <ele>881.2</ele>
        <time>1989-12-30T23:59:59Z</time>
      </trkpt>
      <trkpt lat="38.185455" lon="-2.862123">
        <ele>883.6</ele>
        <time>1989-12-30T23:59:59Z</time>
      </trkpt>
      <trkpt lat="38.185363" lon="-2.862190">
        <ele>887.0</ele>
        <time>1989-12-30T23:59:59Z</time>
      </trkpt>
      <trkpt lat="38.185273" lon="-2.862239">
        <ele>887.0</ele>
        <time>1989-12-30T23:59:59Z</time>
      </trkpt>
      <trkpt lat="38.185218" lon="-2.862283">
        <ele>884.6</ele>
        <time>1989-12-30T23:59:59Z</time>
      </trkpt>
      <trkpt lat="38.185095" lon="-2.862313">
        <ele>882.1</ele>
        <time>1989-12-30T23:59:59Z</time>
      </trkpt>
      <trkpt lat="38.185027" lon="-2.862380">
        <ele>883.1</ele>
        <time>1989-12-30T23:59:59Z</time>
      </trkpt>
      <trkpt lat="38.184964" lon="-2.862478">
        <ele>885.0</ele>
        <time>1989-12-30T23:59:59Z</time>
      </trkpt>
      <trkpt lat="38.184910" lon="-2.862568">
        <ele>887.0</ele>
        <time>1989-12-30T23:59:59Z</time>
      </trkpt>
      <trkpt lat="38.184851" lon="-2.862656">
        <ele>888.4</ele>
        <time>1989-12-30T23:59:59Z</time>
      </trkpt>
      <trkpt lat="38.184767" lon="-2.862692">
        <ele>888.4</ele>
        <time>1989-12-30T23:59:59Z</time>
      </trkpt>
      <trkpt lat="38.184678" lon="-2.862721">
        <ele>889.4</ele>
        <time>1989-12-30T23:59:59Z</time>
      </trkpt>
      <trkpt lat="38.184591" lon="-2.862757">
        <ele>890.3</ele>
        <time>1989-12-30T23:59:59Z</time>
      </trkpt>
      <trkpt lat="38.184512" lon="-2.862815">
        <ele>891.3</ele>
        <time>1989-12-30T23:59:59Z</time>
      </trkpt>
      <trkpt lat="38.184419" lon="-2.862857">
        <ele>892.7</ele>
        <time>1989-12-30T23:59:59Z</time>
      </trkpt>
      <trkpt lat="38.184327" lon="-2.862883">
        <ele>894.2</ele>
        <time>1989-12-30T23:59:59Z</time>
      </trkpt>
      <trkpt lat="38.184243" lon="-2.862908">
        <ele>897.0</ele>
        <time>1989-12-30T23:59:59Z</time>
      </trkpt>
      <trkpt lat="38.184153" lon="-2.863020">
        <ele>897.5</ele>
        <time>1989-12-30T23:59:59Z</time>
      </trkpt>
      <trkpt lat="38.184136" lon="-2.863088">
        <ele>895.6</ele>
        <time>1989-12-30T23:59:59Z</time>
      </trkpt>
      <trkpt lat="38.184081" lon="-2.863191">
        <ele>897.0</ele>
        <time>1989-12-30T23:59:59Z</time>
      </trkpt>
      <trkpt lat="38.184027" lon="-2.863281">
        <ele>898.0</ele>
        <time>1989-12-30T23:59:59Z</time>
      </trkpt>
      <trkpt lat="38.183971" lon="-2.863382">
        <ele>899.5</ele>
        <time>1989-12-30T23:59:59Z</time>
      </trkpt>
      <trkpt lat="38.183917" lon="-2.863509">
        <ele>898.0</ele>
        <time>1989-12-30T23:59:59Z</time>
      </trkpt>
      <trkpt lat="38.183854" lon="-2.863598">
        <ele>899.0</ele>
        <time>1989-12-30T23:59:59Z</time>
      </trkpt>
      <trkpt lat="38.183839" lon="-2.863614">
        <ele>901.9</ele>
        <time>1989-12-30T23:59:59Z</time>
      </trkpt>
      <trkpt lat="38.183761" lon="-2.863674">
        <ele>903.3</ele>
        <time>1989-12-30T23:59:59Z</time>
      </trkpt>
      <trkpt lat="38.183659" lon="-2.863699">
        <ele>905.7</ele>
        <time>1989-12-30T23:59:59Z</time>
      </trkpt>
      <trkpt lat="38.183567" lon="-2.863732">
        <ele>907.6</ele>
        <time>1989-12-30T23:59:59Z</time>
      </trkpt>
      <trkpt lat="38.183464" lon="-2.863746">
        <ele>907.6</ele>
        <time>1989-12-30T23:59:59Z</time>
      </trkpt>
      <trkpt lat="38.183369" lon="-2.863748">
        <ele>909.1</ele>
        <time>1989-12-30T23:59:59Z</time>
      </trkpt>
      <trkpt lat="38.183277" lon="-2.863750">
        <ele>910.5</ele>
        <time>1989-12-30T23:59:59Z</time>
      </trkpt>
      <trkpt lat="38.183179" lon="-2.863741">
        <ele>911.0</ele>
        <time>1989-12-30T23:59:59Z</time>
      </trkpt>
      <trkpt lat="38.183079" lon="-2.863731">
        <ele>912.9</ele>
        <time>1989-12-30T23:59:59Z</time>
      </trkpt>
      <trkpt lat="38.182994" lon="-2.863741">
        <ele>911.9</ele>
        <time>1989-12-30T23:59:59Z</time>
      </trkpt>
      <trkpt lat="38.182909" lon="-2.863738">
        <ele>912.4</ele>
        <time>1989-12-30T23:59:59Z</time>
      </trkpt>
      <trkpt lat="38.182821" lon="-2.863754">
        <ele>913.4</ele>
        <time>1989-12-30T23:59:59Z</time>
      </trkpt>
      <trkpt lat="38.182737" lon="-2.863780">
        <ele>911.9</ele>
        <time>1989-12-30T23:59:59Z</time>
      </trkpt>
      <trkpt lat="38.182646" lon="-2.863810">
        <ele>912.4</ele>
        <time>1989-12-30T23:59:59Z</time>
      </trkpt>
      <trkpt lat="38.182553" lon="-2.863804">
        <ele>913.9</ele>
        <time>1989-12-30T23:59:59Z</time>
      </trkpt>
      <trkpt lat="38.182454" lon="-2.863803">
        <ele>915.3</ele>
        <time>1989-12-30T23:59:59Z</time>
      </trkpt>
      <trkpt lat="38.182364" lon="-2.863842">
        <ele>915.8</ele>
        <time>1989-12-30T23:59:59Z</time>
      </trkpt>
      <trkpt lat="38.182266" lon="-2.863859">
        <ele>918.2</ele>
        <time>1989-12-30T23:59:59Z</time>
      </trkpt>
      <trkpt lat="38.182174" lon="-2.863911">
        <ele>919.2</ele>
        <time>1989-12-30T23:59:59Z</time>
      </trkpt>
      <trkpt lat="38.182080" lon="-2.863984">
        <ele>920.6</ele>
        <time>1989-12-30T23:59:59Z</time>
      </trkpt>
      <trkpt lat="38.182014" lon="-2.864093">
        <ele>922.5</ele>
        <time>1989-12-30T23:59:59Z</time>
      </trkpt>
      <trkpt lat="38.182011" lon="-2.864255">
        <ele>926.4</ele>
        <time>1989-12-30T23:59:59Z</time>
      </trkpt>
      <trkpt lat="38.181941" lon="-2.864307">
        <ele>925.9</ele>
        <time>1989-12-30T23:59:59Z</time>
      </trkpt>
      <trkpt lat="38.181879" lon="-2.864345">
        <ele>925.9</ele>
        <time>1989-12-30T23:59:59Z</time>
      </trkpt>
      <trkpt lat="38.181860" lon="-2.864238">
        <ele>927.3</ele>
        <time>1989-12-30T23:59:59Z</time>
      </trkpt>
      <trkpt lat="38.181898" lon="-2.864133">
        <ele>928.3</ele>
        <time>1989-12-30T23:59:59Z</time>
      </trkpt>
      <trkpt lat="38.181928" lon="-2.864012">
        <ele>928.3</ele>
        <time>1989-12-30T23:59:59Z</time>
      </trkpt>
      <trkpt lat="38.181949" lon="-2.863906">
        <ele>931.7</ele>
        <time>1989-12-30T23:59:59Z</time>
      </trkpt>
      <trkpt lat="38.181912" lon="-2.863802">
        <ele>930.7</ele>
        <time>1989-12-30T23:59:59Z</time>
      </trkpt>
      <trkpt lat="38.181839" lon="-2.863732">
        <ele>932.1</ele>
        <time>1989-12-30T23:59:59Z</time>
      </trkpt>
      <trkpt lat="38.181747" lon="-2.863675">
        <ele>934.1</ele>
        <time>1989-12-30T23:59:59Z</time>
      </trkpt>
      <trkpt lat="38.181660" lon="-2.863617">
        <ele>935.5</ele>
        <time>1989-12-30T23:59:59Z</time>
      </trkpt>
      <trkpt lat="38.181579" lon="-2.863543">
        <ele>936.9</ele>
        <time>1989-12-30T23:59:59Z</time>
      </trkpt>
      <trkpt lat="38.181513" lon="-2.863462">
        <ele>938.4</ele>
        <time>1989-12-30T23:59:59Z</time>
      </trkpt>
      <trkpt lat="38.181440" lon="-2.863394">
        <ele>939.3</ele>
        <time>1989-12-30T23:59:59Z</time>
      </trkpt>
      <trkpt lat="38.181348" lon="-2.863327">
        <ele>941.7</ele>
        <time>1989-12-30T23:59:59Z</time>
      </trkpt>
      <trkpt lat="38.181265" lon="-2.863287">
        <ele>941.7</ele>
        <time>1989-12-30T23:59:59Z</time>
      </trkpt>
      <trkpt lat="38.181182" lon="-2.863238">
        <ele>942.2</ele>
        <time>1989-12-30T23:59:59Z</time>
      </trkpt>
      <trkpt lat="38.181097" lon="-2.863198">
        <ele>938.4</ele>
        <time>1989-12-30T23:59:59Z</time>
      </trkpt>
      <trkpt lat="38.181010" lon="-2.863149">
        <ele>941.7</ele>
        <time>1989-12-30T23:59:59Z</time>
      </trkpt>
      <trkpt lat="38.180968" lon="-2.863063">
        <ele>939.8</ele>
        <time>1989-12-30T23:59:59Z</time>
      </trkpt>
      <trkpt lat="38.180970" lon="-2.862939">
        <ele>943.7</ele>
        <time>1989-12-30T23:59:59Z</time>
      </trkpt>
      <trkpt lat="38.180884" lon="-2.862842">
        <ele>943.2</ele>
        <time>1989-12-30T23:59:59Z</time>
      </trkpt>
      <trkpt lat="38.180845" lon="-2.862726">
        <ele>942.7</ele>
        <time>1989-12-30T23:59:59Z</time>
      </trkpt>
      <trkpt lat="38.180784" lon="-2.862616">
        <ele>943.7</ele>
        <time>1989-12-30T23:59:59Z</time>
      </trkpt>
      <trkpt lat="38.180728" lon="-2.862516">
        <ele>944.6</ele>
        <time>1989-12-30T23:59:59Z</time>
      </trkpt>
      <trkpt lat="38.180664" lon="-2.862426">
        <ele>945.6</ele>
        <time>1989-12-30T23:59:59Z</time>
      </trkpt>
      <trkpt lat="38.180608" lon="-2.862331">
        <ele>945.6</ele>
        <time>1989-12-30T23:59:59Z</time>
      </trkpt>
      <trkpt lat="38.180546" lon="-2.862238">
        <ele>946.6</ele>
        <time>1989-12-30T23:59:59Z</time>
      </trkpt>
      <trkpt lat="38.180489" lon="-2.862148">
        <ele>943.2</ele>
        <time>1989-12-30T23:59:59Z</time>
      </trkpt>
      <trkpt lat="38.180417" lon="-2.862073">
        <ele>943.7</ele>
        <time>1989-12-30T23:59:59Z</time>
      </trkpt>
      <trkpt lat="38.180344" lon="-2.862004">
        <ele>943.7</ele>
        <time>1989-12-30T23:59:59Z</time>
      </trkpt>
      <trkpt lat="38.180271" lon="-2.861929">
        <ele>944.2</ele>
        <time>1989-12-30T23:59:59Z</time>
      </trkpt>
      <trkpt lat="38.180194" lon="-2.861851">
        <ele>944.6</ele>
        <time>1989-12-30T23:59:59Z</time>
      </trkpt>
      <trkpt lat="38.180115" lon="-2.861771">
        <ele>945.1</ele>
        <time>1989-12-30T23:59:59Z</time>
      </trkpt>
      <trkpt lat="38.180035" lon="-2.861692">
        <ele>945.6</ele>
        <time>1989-12-30T23:59:59Z</time>
      </trkpt>
      <trkpt lat="38.179955" lon="-2.861616">
        <ele>945.6</ele>
        <time>1989-12-30T23:59:59Z</time>
      </trkpt>
      <trkpt lat="38.179877" lon="-2.861536">
        <ele>945.6</ele>
        <time>1989-12-30T23:59:59Z</time>
      </trkpt>
      <trkpt lat="38.179803" lon="-2.861461">
        <ele>946.1</ele>
        <time>1989-12-30T23:59:59Z</time>
      </trkpt>
      <trkpt lat="38.179730" lon="-2.861388">
        <ele>946.6</ele>
        <time>1989-12-30T23:59:59Z</time>
      </trkpt>
      <trkpt lat="38.179659" lon="-2.861307">
        <ele>948.0</ele>
        <time>1989-12-30T23:59:59Z</time>
      </trkpt>
      <trkpt lat="38.179584" lon="-2.861219">
        <ele>949.0</ele>
        <time>1989-12-30T23:59:59Z</time>
      </trkpt>
      <trkpt lat="38.179515" lon="-2.861134">
        <ele>949.9</ele>
        <time>1989-12-30T23:59:59Z</time>
      </trkpt>
      <trkpt lat="38.179445" lon="-2.861063">
        <ele>950.9</ele>
        <time>1989-12-30T23:59:59Z</time>
      </trkpt>
      <trkpt lat="38.179366" lon="-2.860998">
        <ele>951.4</ele>
        <time>1989-12-30T23:59:59Z</time>
      </trkpt>
      <trkpt lat="38.179299" lon="-2.860935">
        <ele>952.8</ele>
        <time>1989-12-30T23:59:59Z</time>
      </trkpt>
      <trkpt lat="38.179211" lon="-2.860835">
        <ele>951.4</ele>
        <time>1989-12-30T23:59:59Z</time>
      </trkpt>
      <trkpt lat="38.179154" lon="-2.860728">
        <ele>949.4</ele>
        <time>1989-12-30T23:59:59Z</time>
      </trkpt>
      <trkpt lat="38.179119" lon="-2.860612">
        <ele>949.0</ele>
        <time>1989-12-30T23:59:59Z</time>
      </trkpt>
      <trkpt lat="38.179142" lon="-2.860608">
        <ele>950.9</ele>
        <time>1989-12-30T23:59:59Z</time>
      </trkpt>
      <trkpt lat="38.179110" lon="-2.860582">
        <ele>950.9</ele>
        <time>1989-12-30T23:59:59Z</time>
      </trkpt>
      <trkpt lat="38.179044" lon="-2.860523">
        <ele>951.4</ele>
        <time>1989-12-30T23:59:59Z</time>
      </trkpt>
      <trkpt lat="38.178970" lon="-2.860456">
        <ele>951.8</ele>
        <time>1989-12-30T23:59:59Z</time>
      </trkpt>
      <trkpt lat="38.178900" lon="-2.860368">
        <ele>953.8</ele>
        <time>1989-12-30T23:59:59Z</time>
      </trkpt>
      <trkpt lat="38.178831" lon="-2.860283">
        <ele>955.2</ele>
        <time>1989-12-30T23:59:59Z</time>
      </trkpt>
      <trkpt lat="38.178745" lon="-2.860212">
        <ele>955.2</ele>
        <time>1989-12-30T23:59:59Z</time>
      </trkpt>
      <trkpt lat="38.178664" lon="-2.860134">
        <ele>956.2</ele>
        <time>1989-12-30T23:59:59Z</time>
      </trkpt>
      <trkpt lat="38.178605" lon="-2.860039">
        <ele>956.2</ele>
        <time>1989-12-30T23:59:59Z</time>
      </trkpt>
      <trkpt lat="38.178542" lon="-2.859906">
        <ele>958.1</ele>
        <time>1989-12-30T23:59:59Z</time>
      </trkpt>
      <trkpt lat="38.178498" lon="-2.859796">
        <ele>957.1</ele>
        <time>1989-12-30T23:59:59Z</time>
      </trkpt>
      <trkpt lat="38.178458" lon="-2.859661">
        <ele>955.2</ele>
        <time>1989-12-30T23:59:59Z</time>
      </trkpt>
      <trkpt lat="38.178427" lon="-2.859531">
        <ele>953.8</ele>
        <time>1989-12-30T23:59:59Z</time>
      </trkpt>
      <trkpt lat="38.178402" lon="-2.859393">
        <ele>953.3</ele>
        <time>1989-12-30T23:59:59Z</time>
      </trkpt>
      <trkpt lat="38.178340" lon="-2.859366">
        <ele>959.1</ele>
        <time>1989-12-30T23:59:59Z</time>
      </trkpt>
      <trkpt lat="38.178318" lon="-2.859253">
        <ele>958.1</ele>
        <time>1989-12-30T23:59:59Z</time>
      </trkpt>
      <trkpt lat="38.178248" lon="-2.859156">
        <ele>956.6</ele>
        <time>1989-12-30T23:59:59Z</time>
      </trkpt>
      <trkpt lat="38.178184" lon="-2.859073">
        <ele>956.6</ele>
        <time>1989-12-30T23:59:59Z</time>
      </trkpt>
      <trkpt lat="38.178089" lon="-2.859022">
        <ele>956.2</ele>
        <time>1989-12-30T23:59:59Z</time>
      </trkpt>
      <trkpt lat="38.177994" lon="-2.859004">
        <ele>955.2</ele>
        <time>1989-12-30T23:59:59Z</time>
      </trkpt>
      <trkpt lat="38.177907" lon="-2.859030">
        <ele>956.2</ele>
        <time>1989-12-30T23:59:59Z</time>
      </trkpt>
      <trkpt lat="38.177831" lon="-2.859056">
        <ele>954.2</ele>
        <time>1989-12-30T23:59:59Z</time>
      </trkpt>
      <trkpt lat="38.177735" lon="-2.859091">
        <ele>951.4</ele>
        <time>1989-12-30T23:59:59Z</time>
      </trkpt>
      <trkpt lat="38.177644" lon="-2.859131">
        <ele>948.5</ele>
        <time>1989-12-30T23:59:59Z</time>
      </trkpt>
      <trkpt lat="38.177540" lon="-2.859161">
        <ele>945.1</ele>
        <time>1989-12-30T23:59:59Z</time>
      </trkpt>
      <trkpt lat="38.177442" lon="-2.859194">
        <ele>941.7</ele>
        <time>1989-12-30T23:59:59Z</time>
      </trkpt>
      <trkpt lat="38.177344" lon="-2.859187">
        <ele>940.8</ele>
        <time>1989-12-30T23:59:59Z</time>
      </trkpt>
      <trkpt lat="38.177246" lon="-2.859177">
        <ele>938.9</ele>
        <time>1989-12-30T23:59:59Z</time>
      </trkpt>
      <trkpt lat="38.177154" lon="-2.859177">
        <ele>937.9</ele>
        <time>1989-12-30T23:59:59Z</time>
      </trkpt>
      <trkpt lat="38.177065" lon="-2.859149">
        <ele>936.5</ele>
        <time>1989-12-30T23:59:59Z</time>
      </trkpt>
      <trkpt lat="38.176994" lon="-2.859073">
        <ele>934.1</ele>
        <time>1989-12-30T23:59:59Z</time>
      </trkpt>
      <trkpt lat="38.176917" lon="-2.858995">
        <ele>932.1</ele>
        <time>1989-12-30T23:59:59Z</time>
      </trkpt>
      <trkpt lat="38.176835" lon="-2.858924">
        <ele>930.2</ele>
        <time>1989-12-30T23:59:59Z</time>
      </trkpt>
      <trkpt lat="38.176738" lon="-2.858870">
        <ele>934.5</ele>
        <time>1989-12-30T23:59:59Z</time>
      </trkpt>
      <trkpt lat="38.176661" lon="-2.858791">
        <ele>934.1</ele>
        <time>1989-12-30T23:59:59Z</time>
      </trkpt>
      <trkpt lat="38.176601" lon="-2.858693">
        <ele>934.1</ele>
        <time>1989-12-30T23:59:59Z</time>
      </trkpt>
      <trkpt lat="38.176514" lon="-2.858630">
        <ele>933.1</ele>
        <time>1989-12-30T23:59:59Z</time>
      </trkpt>
      <trkpt lat="38.176431" lon="-2.858628">
        <ele>932.6</ele>
        <time>1989-12-30T23:59:59Z</time>
      </trkpt>
      <trkpt lat="38.176347" lon="-2.858728">
        <ele>927.3</ele>
        <time>1989-12-30T23:59:59Z</time>
      </trkpt>
      <trkpt lat="38.176254" lon="-2.858775">
        <ele>924.9</ele>
        <time>1989-12-30T23:59:59Z</time>
      </trkpt>
      <trkpt lat="38.176162" lon="-2.858802">
        <ele>923.0</ele>
        <time>1989-12-30T23:59:59Z</time>
      </trkpt>
      <trkpt lat="38.176075" lon="-2.858747">
        <ele>920.6</ele>
        <time>1989-12-30T23:59:59Z</time>
      </trkpt>
      <trkpt lat="38.176015" lon="-2.858651">
        <ele>918.7</ele>
        <time>1989-12-30T23:59:59Z</time>
      </trkpt>
      <trkpt lat="38.175961" lon="-2.858551">
        <ele>916.8</ele>
        <time>1989-12-30T23:59:59Z</time>
      </trkpt>
      <trkpt lat="38.175946" lon="-2.858400">
        <ele>917.7</ele>
        <time>1989-12-30T23:59:59Z</time>
      </trkpt>
      <trkpt lat="38.175898" lon="-2.858280">
        <ele>920.1</ele>
        <time>1989-12-30T23:59:59Z</time>
      </trkpt>
      <trkpt lat="38.175839" lon="-2.858175">
        <ele>921.6</ele>
        <time>1989-12-30T23:59:59Z</time>
      </trkpt>
      <trkpt lat="38.175766" lon="-2.858122">
        <ele>920.6</ele>
        <time>1989-12-30T23:59:59Z</time>
      </trkpt>
      <trkpt lat="38.175700" lon="-2.858122">
        <ele>914.4</ele>
        <time>1989-12-30T23:59:59Z</time>
      </trkpt>
      <trkpt lat="38.175621" lon="-2.858112">
        <ele>911.0</ele>
        <time>1989-12-30T23:59:59Z</time>
      </trkpt>
      <trkpt lat="38.175536" lon="-2.858092">
        <ele>910.5</ele>
        <time>1989-12-30T23:59:59Z</time>
      </trkpt>
      <trkpt lat="38.175433" lon="-2.858059">
        <ele>909.5</ele>
        <time>1989-12-30T23:59:59Z</time>
      </trkpt>
      <trkpt lat="38.175334" lon="-2.858042">
        <ele>908.1</ele>
        <time>1989-12-30T23:59:59Z</time>
      </trkpt>
      <trkpt lat="38.175247" lon="-2.858033">
        <ele>908.1</ele>
        <time>1989-12-30T23:59:59Z</time>
      </trkpt>
      <trkpt lat="38.175148" lon="-2.858020">
        <ele>907.6</ele>
        <time>1989-12-30T23:59:59Z</time>
      </trkpt>
      <trkpt lat="38.175058" lon="-2.858012">
        <ele>907.1</ele>
        <time>1989-12-30T23:59:59Z</time>
      </trkpt>
      <trkpt lat="38.174969" lon="-2.858001">
        <ele>907.1</ele>
        <time>1989-12-30T23:59:59Z</time>
      </trkpt>
      <trkpt lat="38.174877" lon="-2.857964">
        <ele>905.7</ele>
        <time>1989-12-30T23:59:59Z</time>
      </trkpt>
      <trkpt lat="38.174791" lon="-2.857957">
        <ele>903.3</ele>
        <time>1989-12-30T23:59:59Z</time>
      </trkpt>
      <trkpt lat="38.174702" lon="-2.857947">
        <ele>903.8</ele>
        <time>1989-12-30T23:59:59Z</time>
      </trkpt>
      <trkpt lat="38.174619" lon="-2.857937">
        <ele>902.8</ele>
        <time>1989-12-30T23:59:59Z</time>
      </trkpt>
      <trkpt lat="38.174550" lon="-2.857928">
        <ele>901.4</ele>
        <time>1989-12-30T23:59:59Z</time>
      </trkpt>
      <trkpt lat="38.174463" lon="-2.857886">
        <ele>901.4</ele>
        <time>1989-12-30T23:59:59Z</time>
      </trkpt>
      <trkpt lat="38.174371" lon="-2.857833">
        <ele>900.9</ele>
        <time>1989-12-30T23:59:59Z</time>
      </trkpt>
      <trkpt lat="38.174303" lon="-2.857758">
        <ele>899.0</ele>
        <time>1989-12-30T23:59:59Z</time>
      </trkpt>
      <trkpt lat="38.174211" lon="-2.857703">
        <ele>899.0</ele>
        <time>1989-12-30T23:59:59Z</time>
      </trkpt>
      <trkpt lat="38.174135" lon="-2.857640">
        <ele>901.4</ele>
        <time>1989-12-30T23:59:59Z</time>
      </trkpt>
      <trkpt lat="38.174081" lon="-2.857552">
        <ele>900.4</ele>
        <time>1989-12-30T23:59:59Z</time>
      </trkpt>
      <trkpt lat="38.174045" lon="-2.857444">
        <ele>897.5</ele>
        <time>1989-12-30T23:59:59Z</time>
      </trkpt>
      <trkpt lat="38.174015" lon="-2.857331">
        <ele>894.6</ele>
        <time>1989-12-30T23:59:59Z</time>
      </trkpt>
      <trkpt lat="38.174005" lon="-2.857213">
        <ele>890.3</ele>
        <time>1989-12-30T23:59:59Z</time>
      </trkpt>
      <trkpt lat="38.174052" lon="-2.857116">
        <ele>886.5</ele>
        <time>1989-12-30T23:59:59Z</time>
      </trkpt>
      <trkpt lat="38.174123" lon="-2.857039">
        <ele>884.1</ele>
        <time>1989-12-30T23:59:59Z</time>
      </trkpt>
      <trkpt lat="38.174219" lon="-2.857012">
        <ele>882.1</ele>
        <time>1989-12-30T23:59:59Z</time>
      </trkpt>
      <trkpt lat="38.174297" lon="-2.856959">
        <ele>880.2</ele>
        <time>1989-12-30T23:59:59Z</time>
      </trkpt>
      <trkpt lat="38.174372" lon="-2.856883">
        <ele>875.9</ele>
        <time>1989-12-30T23:59:59Z</time>
      </trkpt>
      <trkpt lat="38.174461" lon="-2.856810">
        <ele>873.5</ele>
        <time>1989-12-30T23:59:59Z</time>
      </trkpt>
      <trkpt lat="38.174549" lon="-2.856719">
        <ele>868.2</ele>
        <time>1989-12-30T23:59:59Z</time>
      </trkpt>
      <trkpt lat="38.174572" lon="-2.856693">
        <ele>871.1</ele>
        <time>1989-12-30T23:59:59Z</time>
      </trkpt>
      <trkpt lat="38.174609" lon="-2.856585">
        <ele>870.6</ele>
        <time>1989-12-30T23:59:59Z</time>
      </trkpt>
      <trkpt lat="38.174633" lon="-2.856464">
        <ele>868.2</ele>
        <time>1989-12-30T23:59:59Z</time>
      </trkpt>
      <trkpt lat="38.174654" lon="-2.856348">
        <ele>865.3</ele>
        <time>1989-12-30T23:59:59Z</time>
      </trkpt>
      <trkpt lat="38.174693" lon="-2.856243">
        <ele>863.4</ele>
        <time>1989-12-30T23:59:59Z</time>
      </trkpt>
      <trkpt lat="38.174717" lon="-2.856127">
        <ele>859.1</ele>
        <time>1989-12-30T23:59:59Z</time>
      </trkpt>
      <trkpt lat="38.174735" lon="-2.856023">
        <ele>856.7</ele>
        <time>1989-12-30T23:59:59Z</time>
      </trkpt>
      <trkpt lat="38.174776" lon="-2.855937">
        <ele>850.9</ele>
        <time>1989-12-30T23:59:59Z</time>
      </trkpt>
      <trkpt lat="38.174769" lon="-2.855893">
        <ele>849.9</ele>
        <time>1989-12-30T23:59:59Z</time>
      </trkpt>
      <trkpt lat="38.174710" lon="-2.855817">
        <ele>848.5</ele>
        <time>1989-12-30T23:59:59Z</time>
      </trkpt>
      <trkpt lat="38.174658" lon="-2.855716">
        <ele>846.1</ele>
        <time>1989-12-30T23:59:59Z</time>
      </trkpt>
      <trkpt lat="38.174654" lon="-2.855624">
        <ele>848.0</ele>
        <time>1989-12-30T23:59:59Z</time>
      </trkpt>
      <trkpt lat="38.174632" lon="-2.855527">
        <ele>853.3</ele>
        <time>1989-12-30T23:59:59Z</time>
      </trkpt>
      <trkpt lat="38.174581" lon="-2.855424">
        <ele>852.3</ele>
        <time>1989-12-30T23:59:59Z</time>
      </trkpt>
      <trkpt lat="38.174550" lon="-2.855383">
        <ele>848.0</ele>
        <time>1989-12-30T23:59:59Z</time>
      </trkpt>
      <trkpt lat="38.174461" lon="-2.855350">
        <ele>846.1</ele>
        <time>1989-12-30T23:59:59Z</time>
      </trkpt>
      <trkpt lat="38.174375" lon="-2.855306">
        <ele>845.6</ele>
        <time>1989-12-30T23:59:59Z</time>
      </trkpt>
      <trkpt lat="38.174308" lon="-2.855264">
        <ele>844.7</ele>
        <time>1989-12-30T23:59:59Z</time>
      </trkpt>
      <trkpt lat="38.174288" lon="-2.855235">
        <ele>847.1</ele>
        <time>1989-12-30T23:59:59Z</time>
      </trkpt>
      <trkpt lat="38.174193" lon="-2.855218">
        <ele>844.2</ele>
        <time>1989-12-30T23:59:59Z</time>
      </trkpt>
      <trkpt lat="38.174103" lon="-2.855243">
        <ele>843.7</ele>
        <time>1989-12-30T23:59:59Z</time>
      </trkpt>
      <trkpt lat="38.173999" lon="-2.855280">
        <ele>835.0</ele>
        <time>1989-12-30T23:59:59Z</time>
      </trkpt>
      <trkpt lat="38.173834" lon="-2.855192">
        <ele>844.7</ele>
        <time>1989-12-30T23:59:59Z</time>
      </trkpt>
      <trkpt lat="38.173896" lon="-2.855099">
        <ele>845.1</ele>
        <time>1989-12-30T23:59:59Z</time>
      </trkpt>
      <trkpt lat="38.173956" lon="-2.855011">
        <ele>845.6</ele>
        <time>1989-12-30T23:59:59Z</time>
      </trkpt>
      <trkpt lat="38.173991" lon="-2.854930">
        <ele>840.8</ele>
        <time>1989-12-30T23:59:59Z</time>
      </trkpt>
      <trkpt lat="38.174023" lon="-2.854907">
        <ele>839.4</ele>
        <time>1989-12-30T23:59:59Z</time>
      </trkpt>
      <trkpt lat="38.174067" lon="-2.854818">
        <ele>839.8</ele>
        <time>1989-12-30T23:59:59Z</time>
      </trkpt>
      <trkpt lat="38.174114" lon="-2.854717">
        <ele>839.8</ele>
        <time>1989-12-30T23:59:59Z</time>
      </trkpt>
      <trkpt lat="38.174160" lon="-2.854615">
        <ele>840.8</ele>
        <time>1989-12-30T23:59:59Z</time>
      </trkpt>
      <trkpt lat="38.174191" lon="-2.854519">
        <ele>838.9</ele>
        <time>1989-12-30T23:59:59Z</time>
      </trkpt>
      <trkpt lat="38.174236" lon="-2.854413">
        <ele>838.9</ele>
        <time>1989-12-30T23:59:59Z</time>
      </trkpt>
      <trkpt lat="38.174319" lon="-2.854353">
        <ele>838.4</ele>
        <time>1989-12-30T23:59:59Z</time>
      </trkpt>
      <trkpt lat="38.174385" lon="-2.854271">
        <ele>836.5</ele>
        <time>1989-12-30T23:59:59Z</time>
      </trkpt>
      <trkpt lat="38.174462" lon="-2.854187">
        <ele>833.6</ele>
        <time>1989-12-30T23:59:59Z</time>
      </trkpt>
      <trkpt lat="38.174559" lon="-2.854126">
        <ele>834.6</ele>
        <time>1989-12-30T23:59:59Z</time>
      </trkpt>
      <trkpt lat="38.174636" lon="-2.854064">
        <ele>834.1</ele>
        <time>1989-12-30T23:59:59Z</time>
      </trkpt>
      <trkpt lat="38.174711" lon="-2.854005">
        <ele>833.1</ele>
        <time>1989-12-30T23:59:59Z</time>
      </trkpt>
      <trkpt lat="38.174792" lon="-2.853932">
        <ele>833.1</ele>
        <time>1989-12-30T23:59:59Z</time>
      </trkpt>
      <trkpt lat="38.174866" lon="-2.853851">
        <ele>833.1</ele>
        <time>1989-12-30T23:59:59Z</time>
      </trkpt>
      <trkpt lat="38.174928" lon="-2.853749">
        <ele>833.1</ele>
        <time>1989-12-30T23:59:59Z</time>
      </trkpt>
      <trkpt lat="38.174978" lon="-2.853641">
        <ele>834.1</ele>
        <time>1989-12-30T23:59:59Z</time>
      </trkpt>
      <trkpt lat="38.175025" lon="-2.853524">
        <ele>834.1</ele>
        <time>1989-12-30T23:59:59Z</time>
      </trkpt>
      <trkpt lat="38.175051" lon="-2.853416">
        <ele>828.8</ele>
        <time>1989-12-30T23:59:59Z</time>
      </trkpt>
      <trkpt lat="38.175092" lon="-2.853318">
        <ele>831.7</ele>
        <time>1989-12-30T23:59:59Z</time>
      </trkpt>
      <trkpt lat="38.175118" lon="-2.853197">
        <ele>831.2</ele>
        <time>1989-12-30T23:59:59Z</time>
      </trkpt>
      <trkpt lat="38.175157" lon="-2.853103">
        <ele>830.7</ele>
        <time>1989-12-30T23:59:59Z</time>
      </trkpt>
      <trkpt lat="38.175221" lon="-2.853038">
        <ele>836.0</ele>
        <time>1989-12-30T23:59:59Z</time>
      </trkpt>
      <trkpt lat="38.175297" lon="-2.852978">
        <ele>834.6</ele>
        <time>1989-12-30T23:59:59Z</time>
      </trkpt>
      <trkpt lat="38.175379" lon="-2.852910">
        <ele>834.6</ele>
        <time>1989-12-30T23:59:59Z</time>
      </trkpt>
      <trkpt lat="38.175449" lon="-2.852836">
        <ele>834.6</ele>
        <time>1989-12-30T23:59:59Z</time>
      </trkpt>
      <trkpt lat="38.175514" lon="-2.852730">
        <ele>835.0</ele>
        <time>1989-12-30T23:59:59Z</time>
      </trkpt>
      <trkpt lat="38.175550" lon="-2.852608">
        <ele>835.0</ele>
        <time>1989-12-30T23:59:59Z</time>
      </trkpt>
      <trkpt lat="38.175566" lon="-2.852499">
        <ele>832.2</ele>
        <time>1989-12-30T23:59:59Z</time>
      </trkpt>
      <trkpt lat="38.175617" lon="-2.852410">
        <ele>837.4</ele>
        <time>1989-12-30T23:59:59Z</time>
      </trkpt>
      <trkpt lat="38.175675" lon="-2.852315">
        <ele>834.6</ele>
        <time>1989-12-30T23:59:59Z</time>
      </trkpt>
      <trkpt lat="38.175728" lon="-2.852299">
        <ele>831.2</ele>
        <time>1989-12-30T23:59:59Z</time>
      </trkpt>
      <trkpt lat="38.175827" lon="-2.852285">
        <ele>831.2</ele>
        <time>1989-12-30T23:59:59Z</time>
      </trkpt>
      <trkpt lat="38.175921" lon="-2.852299">
        <ele>830.7</ele>
        <time>1989-12-30T23:59:59Z</time>
      </trkpt>
      <trkpt lat="38.176021" lon="-2.852296">
        <ele>831.2</ele>
        <time>1989-12-30T23:59:59Z</time>
      </trkpt>
      <trkpt lat="38.176121" lon="-2.852277">
        <ele>830.2</ele>
        <time>1989-12-30T23:59:59Z</time>
      </trkpt>
      <trkpt lat="38.176220" lon="-2.852236">
        <ele>830.2</ele>
        <time>1989-12-30T23:59:59Z</time>
      </trkpt>
      <trkpt lat="38.176315" lon="-2.852203">
        <ele>829.8</ele>
        <time>1989-12-30T23:59:59Z</time>
      </trkpt>
      <trkpt lat="38.176409" lon="-2.852224">
        <ele>829.8</ele>
        <time>1989-12-30T23:59:59Z</time>
      </trkpt>
      <trkpt lat="38.176500" lon="-2.852263">
        <ele>830.2</ele>
        <time>1989-12-30T23:59:59Z</time>
      </trkpt>
      <trkpt lat="38.176601" lon="-2.852284">
        <ele>830.2</ele>
        <time>1989-12-30T23:59:59Z</time>
      </trkpt>
      <trkpt lat="38.176700" lon="-2.852275">
        <ele>830.2</ele>
        <time>1989-12-30T23:59:59Z</time>
      </trkpt>
      <trkpt lat="38.176793" lon="-2.852250">
        <ele>830.7</ele>
        <time>1989-12-30T23:59:59Z</time>
      </trkpt>
      <trkpt lat="38.176882" lon="-2.852269">
        <ele>829.3</ele>
        <time>1989-12-30T23:59:59Z</time>
      </trkpt>
      <trkpt lat="38.176983" lon="-2.852291">
        <ele>829.3</ele>
        <time>1989-12-30T23:59:59Z</time>
      </trkpt>
      <trkpt lat="38.177079" lon="-2.852294">
        <ele>829.3</ele>
        <time>1989-12-30T23:59:59Z</time>
      </trkpt>
      <trkpt lat="38.177174" lon="-2.852327">
        <ele>830.2</ele>
        <time>1989-12-30T23:59:59Z</time>
      </trkpt>
      <trkpt lat="38.177202" lon="-2.852325">
        <ele>826.9</ele>
        <time>1989-12-30T23:59:59Z</time>
      </trkpt>
      <trkpt lat="38.177290" lon="-2.852318">
        <ele>826.4</ele>
        <time>1989-12-30T23:59:59Z</time>
      </trkpt>
      <trkpt lat="38.177385" lon="-2.852296">
        <ele>826.9</ele>
        <time>1989-12-30T23:59:59Z</time>
      </trkpt>
      <trkpt lat="38.177479" lon="-2.852256">
        <ele>826.9</ele>
        <time>1989-12-30T23:59:59Z</time>
      </trkpt>
      <trkpt lat="38.177558" lon="-2.852184">
        <ele>826.4</ele>
        <time>1989-12-30T23:59:59Z</time>
      </trkpt>
      <trkpt lat="38.177638" lon="-2.852098">
        <ele>826.9</ele>
        <time>1989-12-30T23:59:59Z</time>
      </trkpt>
      <trkpt lat="38.177713" lon="-2.852009">
        <ele>827.4</ele>
        <time>1989-12-30T23:59:59Z</time>
      </trkpt>
      <trkpt lat="38.177788" lon="-2.851917">
        <ele>827.4</ele>
        <time>1989-12-30T23:59:59Z</time>
      </trkpt>
      <trkpt lat="38.177846" lon="-2.851825">
        <ele>827.4</ele>
        <time>1989-12-30T23:59:59Z</time>
      </trkpt>
      <trkpt lat="38.177903" lon="-2.851733">
        <ele>827.8</ele>
        <time>1989-12-30T23:59:59Z</time>
      </trkpt>
      <trkpt lat="38.177957" lon="-2.851616">
        <ele>828.3</ele>
        <time>1989-12-30T23:59:59Z</time>
      </trkpt>
      <trkpt lat="38.177996" lon="-2.851491">
        <ele>829.8</ele>
        <time>1989-12-30T23:59:59Z</time>
      </trkpt>
      <trkpt lat="38.178026" lon="-2.851367">
        <ele>830.7</ele>
        <time>1989-12-30T23:59:59Z</time>
      </trkpt>
      <trkpt lat="38.178033" lon="-2.851248">
        <ele>831.2</ele>
        <time>1989-12-30T23:59:59Z</time>
      </trkpt>
      <trkpt lat="38.178026" lon="-2.851147">
        <ele>825.4</ele>
        <time>1989-12-30T23:59:59Z</time>
      </trkpt>
      <trkpt lat="38.178031" lon="-2.851053">
        <ele>824.0</ele>
        <time>1989-12-30T23:59:59Z</time>
      </trkpt>
      <trkpt lat="38.178041" lon="-2.850928">
        <ele>823.5</ele>
        <time>1989-12-30T23:59:59Z</time>
      </trkpt>
      <trkpt lat="38.178059" lon="-2.850814">
        <ele>822.5</ele>
        <time>1989-12-30T23:59:59Z</time>
      </trkpt>
      <trkpt lat="38.178079" lon="-2.850703">
        <ele>821.6</ele>
        <time>1989-12-30T23:59:59Z</time>
      </trkpt>
      <trkpt lat="38.178091" lon="-2.850582">
        <ele>821.6</ele>
        <time>1989-12-30T23:59:59Z</time>
      </trkpt>
      <trkpt lat="38.178104" lon="-2.850466">
        <ele>821.1</ele>
        <time>1989-12-30T23:59:59Z</time>
      </trkpt>
      <trkpt lat="38.178117" lon="-2.850340">
        <ele>819.2</ele>
        <time>1989-12-30T23:59:59Z</time>
      </trkpt>
      <trkpt lat="38.178141" lon="-2.850220">
        <ele>819.7</ele>
        <time>1989-12-30T23:59:59Z</time>
      </trkpt>
      <trkpt lat="38.178159" lon="-2.850103">
        <ele>818.7</ele>
        <time>1989-12-30T23:59:59Z</time>
      </trkpt>
      <trkpt lat="38.178175" lon="-2.849982">
        <ele>816.3</ele>
        <time>1989-12-30T23:59:59Z</time>
      </trkpt>
      <trkpt lat="38.178200" lon="-2.849873">
        <ele>814.4</ele>
        <time>1989-12-30T23:59:59Z</time>
      </trkpt>
      <trkpt lat="38.178212" lon="-2.849765">
        <ele>812.5</ele>
        <time>1989-12-30T23:59:59Z</time>
      </trkpt>
      <trkpt lat="38.178234" lon="-2.849643">
        <ele>812.9</ele>
        <time>1989-12-30T23:59:59Z</time>
      </trkpt>
      <trkpt lat="38.178219" lon="-2.849536">
        <ele>811.5</ele>
        <time>1989-12-30T23:59:59Z</time>
      </trkpt>
      <trkpt lat="38.178182" lon="-2.849461">
        <ele>811.0</ele>
        <time>1989-12-30T23:59:59Z</time>
      </trkpt>
      <trkpt lat="38.178200" lon="-2.849369">
        <ele>809.6</ele>
        <time>1989-12-30T23:59:59Z</time>
      </trkpt>
      <trkpt lat="38.178227" lon="-2.849231">
        <ele>809.1</ele>
        <time>1989-12-30T23:59:59Z</time>
      </trkpt>
      <trkpt lat="38.178232" lon="-2.849121">
        <ele>807.2</ele>
        <time>1989-12-30T23:59:59Z</time>
      </trkpt>
      <trkpt lat="38.178239" lon="-2.849007">
        <ele>804.3</ele>
        <time>1989-12-30T23:59:59Z</time>
      </trkpt>
      <trkpt lat="38.178260" lon="-2.848892">
        <ele>803.3</ele>
        <time>1989-12-30T23:59:59Z</time>
      </trkpt>
      <trkpt lat="38.178260" lon="-2.848762">
        <ele>801.9</ele>
        <time>1989-12-30T23:59:59Z</time>
      </trkpt>
      <trkpt lat="38.178227" lon="-2.848636">
        <ele>800.0</ele>
        <time>1989-12-30T23:59:59Z</time>
      </trkpt>
      <trkpt lat="38.178227" lon="-2.848521">
        <ele>798.5</ele>
        <time>1989-12-30T23:59:59Z</time>
      </trkpt>
      <trkpt lat="38.178216" lon="-2.848408">
        <ele>797.1</ele>
        <time>1989-12-30T23:59:59Z</time>
      </trkpt>
      <trkpt lat="38.178203" lon="-2.848289">
        <ele>796.1</ele>
        <time>1989-12-30T23:59:59Z</time>
      </trkpt>
      <trkpt lat="38.178219" lon="-2.848175">
        <ele>795.1</ele>
        <time>1989-12-30T23:59:59Z</time>
      </trkpt>
      <trkpt lat="38.178239" lon="-2.848054">
        <ele>794.7</ele>
        <time>1989-12-30T23:59:59Z</time>
      </trkpt>
      <trkpt lat="38.178244" lon="-2.847934">
        <ele>793.7</ele>
        <time>1989-12-30T23:59:59Z</time>
      </trkpt>
      <trkpt lat="38.178261" lon="-2.847816">
        <ele>791.8</ele>
        <time>1989-12-30T23:59:59Z</time>
      </trkpt>
      <trkpt lat="38.178305" lon="-2.847695">
        <ele>790.8</ele>
        <time>1989-12-30T23:59:59Z</time>
      </trkpt>
      <trkpt lat="38.178339" lon="-2.847583">
        <ele>790.3</ele>
        <time>1989-12-30T23:59:59Z</time>
      </trkpt>
      <trkpt lat="38.178324" lon="-2.847457">
        <ele>788.9</ele>
        <time>1989-12-30T23:59:59Z</time>
      </trkpt>
      <trkpt lat="38.178319" lon="-2.847420">
        <ele>787.5</ele>
        <time>1989-12-30T23:59:59Z</time>
      </trkpt>
      <trkpt lat="38.178255" lon="-2.847338">
        <ele>788.4</ele>
        <time>1989-12-30T23:59:59Z</time>
      </trkpt>
      <trkpt lat="38.178206" lon="-2.847239">
        <ele>790.3</ele>
        <time>1989-12-30T23:59:59Z</time>
      </trkpt>
      <trkpt lat="38.178151" lon="-2.847165">
        <ele>790.3</ele>
        <time>1989-12-30T23:59:59Z</time>
      </trkpt>
      <trkpt lat="38.178069" lon="-2.847134">
        <ele>790.3</ele>
        <time>1989-12-30T23:59:59Z</time>
      </trkpt>
      <trkpt lat="38.177999" lon="-2.847135">
        <ele>787.9</ele>
        <time>1989-12-30T23:59:59Z</time>
      </trkpt>
      <trkpt lat="38.177903" lon="-2.847170">
        <ele>789.9</ele>
        <time>1989-12-30T23:59:59Z</time>
      </trkpt>
      <trkpt lat="38.177837" lon="-2.847229">
        <ele>789.4</ele>
        <time>1989-12-30T23:59:59Z</time>
      </trkpt>
      <trkpt lat="38.177765" lon="-2.847322">
        <ele>788.9</ele>
        <time>1989-12-30T23:59:59Z</time>
      </trkpt>
      <trkpt lat="38.177691" lon="-2.847388">
        <ele>790.8</ele>
        <time>1989-12-30T23:59:59Z</time>
      </trkpt>
      <trkpt lat="38.177615" lon="-2.847381">
        <ele>791.3</ele>
        <time>1989-12-30T23:59:59Z</time>
      </trkpt>
      <trkpt lat="38.177515" lon="-2.847386">
        <ele>791.3</ele>
        <time>1989-12-30T23:59:59Z</time>
      </trkpt>
      <trkpt lat="38.177430" lon="-2.847376">
        <ele>790.3</ele>
        <time>1989-12-30T23:59:59Z</time>
      </trkpt>
      <trkpt lat="38.177333" lon="-2.847351">
        <ele>789.9</ele>
        <time>1989-12-30T23:59:59Z</time>
      </trkpt>
      <trkpt lat="38.177247" lon="-2.847300">
        <ele>788.9</ele>
        <time>1989-12-30T23:59:59Z</time>
      </trkpt>
      <trkpt lat="38.177163" lon="-2.847244">
        <ele>788.4</ele>
        <time>1989-12-30T23:59:59Z</time>
      </trkpt>
      <trkpt lat="38.177078" lon="-2.847190">
        <ele>787.5</ele>
        <time>1989-12-30T23:59:59Z</time>
      </trkpt>
      <trkpt lat="38.176997" lon="-2.847129">
        <ele>787.0</ele>
        <time>1989-12-30T23:59:59Z</time>
      </trkpt>
      <trkpt lat="38.176905" lon="-2.847097">
        <ele>786.5</ele>
        <time>1989-12-30T23:59:59Z</time>
      </trkpt>
      <trkpt lat="38.176813" lon="-2.847064">
        <ele>786.0</ele>
        <time>1989-12-30T23:59:59Z</time>
      </trkpt>
      <trkpt lat="38.176745" lon="-2.846975">
        <ele>786.5</ele>
        <time>1989-12-30T23:59:59Z</time>
      </trkpt>
      <trkpt lat="38.176671" lon="-2.846909">
        <ele>786.0</ele>
        <time>1989-12-30T23:59:59Z</time>
      </trkpt>
      <trkpt lat="38.176600" lon="-2.846831">
        <ele>786.0</ele>
        <time>1989-12-30T23:59:59Z</time>
      </trkpt>
      <trkpt lat="38.176524" lon="-2.846768">
        <ele>786.5</ele>
        <time>1989-12-30T23:59:59Z</time>
      </trkpt>
      <trkpt lat="38.176463" lon="-2.846679">
        <ele>787.0</ele>
        <time>1989-12-30T23:59:59Z</time>
      </trkpt>
      <trkpt lat="38.176452" lon="-2.846562">
        <ele>788.4</ele>
        <time>1989-12-30T23:59:59Z</time>
      </trkpt>
      <trkpt lat="38.176484" lon="-2.846464">
        <ele>786.5</ele>
        <time>1989-12-30T23:59:59Z</time>
      </trkpt>
      <trkpt lat="38.176540" lon="-2.846378">
        <ele>784.6</ele>
        <time>1989-12-30T23:59:59Z</time>
      </trkpt>
      <trkpt lat="38.176641" lon="-2.846276">
        <ele>784.6</ele>
        <time>1989-12-30T23:59:59Z</time>
      </trkpt>
      <trkpt lat="38.176725" lon="-2.846195">
        <ele>784.1</ele>
        <time>1989-12-30T23:59:59Z</time>
      </trkpt>
      <trkpt lat="38.176798" lon="-2.846161">
        <ele>788.9</ele>
        <time>1989-12-30T23:59:59Z</time>
      </trkpt>
      <trkpt lat="38.176713" lon="-2.846221">
        <ele>788.9</ele>
        <time>1989-12-30T23:59:59Z</time>
      </trkpt>
      <trkpt lat="38.176751" lon="-2.846173">
        <ele>789.9</ele>
        <time>1989-12-30T23:59:59Z</time>
      </trkpt>
      <trkpt lat="38.176834" lon="-2.846116">
        <ele>791.3</ele>
        <time>1989-12-30T23:59:59Z</time>
      </trkpt>
      <trkpt lat="38.176906" lon="-2.846040">
        <ele>789.9</ele>
        <time>1989-12-30T23:59:59Z</time>
      </trkpt>
      <trkpt lat="38.176987" lon="-2.845963">
        <ele>788.9</ele>
        <time>1989-12-30T23:59:59Z</time>
      </trkpt>
      <trkpt lat="38.177065" lon="-2.845903">
        <ele>788.4</ele>
        <time>1989-12-30T23:59:59Z</time>
      </trkpt>
      <trkpt lat="38.177143" lon="-2.845838">
        <ele>788.9</ele>
        <time>1989-12-30T23:59:59Z</time>
      </trkpt>
      <trkpt lat="38.177216" lon="-2.845774">
        <ele>789.4</ele>
        <time>1989-12-30T23:59:59Z</time>
      </trkpt>
      <trkpt lat="38.177297" lon="-2.845709">
        <ele>789.9</ele>
        <time>1989-12-30T23:59:59Z</time>
      </trkpt>
      <trkpt lat="38.177366" lon="-2.845629">
        <ele>789.9</ele>
        <time>1989-12-30T23:59:59Z</time>
      </trkpt>
      <trkpt lat="38.177419" lon="-2.845537">
        <ele>790.3</ele>
        <time>1989-12-30T23:59:59Z</time>
      </trkpt>
      <trkpt lat="38.177432" lon="-2.845418">
        <ele>790.3</ele>
        <time>1989-12-30T23:59:59Z</time>
      </trkpt>
      <trkpt lat="38.177438" lon="-2.845300">
        <ele>791.3</ele>
        <time>1989-12-30T23:59:59Z</time>
      </trkpt>
      <trkpt lat="38.177445" lon="-2.845178">
        <ele>791.8</ele>
        <time>1989-12-30T23:59:59Z</time>
      </trkpt>
      <trkpt lat="38.177454" lon="-2.845058">
        <ele>792.3</ele>
        <time>1989-12-30T23:59:59Z</time>
      </trkpt>
      <trkpt lat="38.177463" lon="-2.844940">
        <ele>793.7</ele>
        <time>1989-12-30T23:59:59Z</time>
      </trkpt>
      <trkpt lat="38.177463" lon="-2.844820">
        <ele>794.7</ele>
        <time>1989-12-30T23:59:59Z</time>
      </trkpt>
      <trkpt lat="38.177428" lon="-2.844703">
        <ele>795.1</ele>
        <time>1989-12-30T23:59:59Z</time>
      </trkpt>
      <trkpt lat="38.177385" lon="-2.844588">
        <ele>795.1</ele>
        <time>1989-12-30T23:59:59Z</time>
      </trkpt>
      <trkpt lat="38.177343" lon="-2.844473">
        <ele>795.6</ele>
        <time>1989-12-30T23:59:59Z</time>
      </trkpt>
      <trkpt lat="38.177290" lon="-2.844369">
        <ele>795.6</ele>
        <time>1989-12-30T23:59:59Z</time>
      </trkpt>
      <trkpt lat="38.177238" lon="-2.844273">
        <ele>796.6</ele>
        <time>1989-12-30T23:59:59Z</time>
      </trkpt>
      <trkpt lat="38.177197" lon="-2.844149">
        <ele>796.6</ele>
        <time>1989-12-30T23:59:59Z</time>
      </trkpt>
      <trkpt lat="38.177175" lon="-2.844033">
        <ele>796.6</ele>
        <time>1989-12-30T23:59:59Z</time>
      </trkpt>
      <trkpt lat="38.177162" lon="-2.843914">
        <ele>796.1</ele>
        <time>1989-12-30T23:59:59Z</time>
      </trkpt>
      <trkpt lat="38.177125" lon="-2.843801">
        <ele>798.0</ele>
        <time>1989-12-30T23:59:59Z</time>
      </trkpt>
      <trkpt lat="38.177066" lon="-2.843707">
        <ele>799.0</ele>
        <time>1989-12-30T23:59:59Z</time>
      </trkpt>
      <trkpt lat="38.177001" lon="-2.843611">
        <ele>800.9</ele>
        <time>1989-12-30T23:59:59Z</time>
      </trkpt>
      <trkpt lat="38.176943" lon="-2.843519">
        <ele>801.9</ele>
        <time>1989-12-30T23:59:59Z</time>
      </trkpt>
      <trkpt lat="38.176885" lon="-2.843417">
        <ele>802.8</ele>
        <time>1989-12-30T23:59:59Z</time>
      </trkpt>
      <trkpt lat="38.176830" lon="-2.843319">
        <ele>803.3</ele>
        <time>1989-12-30T23:59:59Z</time>
      </trkpt>
      <trkpt lat="38.176780" lon="-2.843206">
        <ele>804.3</ele>
        <time>1989-12-30T23:59:59Z</time>
      </trkpt>
      <trkpt lat="38.176724" lon="-2.843068">
        <ele>803.3</ele>
        <time>1989-12-30T23:59:59Z</time>
      </trkpt>
      <trkpt lat="38.176734" lon="-2.842949">
        <ele>804.8</ele>
        <time>1989-12-30T23:59:59Z</time>
      </trkpt>
      <trkpt lat="38.176760" lon="-2.842843">
        <ele>807.2</ele>
        <time>1989-12-30T23:59:59Z</time>
      </trkpt>
      <trkpt lat="38.176762" lon="-2.842722">
        <ele>809.6</ele>
        <time>1989-12-30T23:59:59Z</time>
      </trkpt>
      <trkpt lat="38.176765" lon="-2.842614">
        <ele>814.9</ele>
        <time>1989-12-30T23:59:59Z</time>
      </trkpt>
      <trkpt lat="38.176748" lon="-2.842491">
        <ele>813.9</ele>
        <time>1989-12-30T23:59:59Z</time>
      </trkpt>
      <trkpt lat="38.176741" lon="-2.842374">
        <ele>810.0</ele>
        <time>1989-12-30T23:59:59Z</time>
      </trkpt>
      <trkpt lat="38.176733" lon="-2.842247">
        <ele>811.0</ele>
        <time>1989-12-30T23:59:59Z</time>
      </trkpt>
      <trkpt lat="38.176720" lon="-2.842131">
        <ele>811.5</ele>
        <time>1989-12-30T23:59:59Z</time>
      </trkpt>
      <trkpt lat="38.176715" lon="-2.842008">
        <ele>810.0</ele>
        <time>1989-12-30T23:59:59Z</time>
      </trkpt>
      <trkpt lat="38.176741" lon="-2.841862">
        <ele>811.0</ele>
        <time>1989-12-30T23:59:59Z</time>
      </trkpt>
      <trkpt lat="38.176769" lon="-2.841766">
        <ele>811.5</ele>
        <time>1989-12-30T23:59:59Z</time>
      </trkpt>
      <trkpt lat="38.176804" lon="-2.841668">
        <ele>811.5</ele>
        <time>1989-12-30T23:59:59Z</time>
      </trkpt>
      <trkpt lat="38.176840" lon="-2.841551">
        <ele>812.5</ele>
        <time>1989-12-30T23:59:59Z</time>
      </trkpt>
      <trkpt lat="38.176854" lon="-2.841431">
        <ele>812.5</ele>
        <time>1989-12-30T23:59:59Z</time>
      </trkpt>
      <trkpt lat="38.176862" lon="-2.841338">
        <ele>815.8</ele>
        <time>1989-12-30T23:59:59Z</time>
      </trkpt>
      <trkpt lat="38.176848" lon="-2.841237">
        <ele>813.4</ele>
        <time>1989-12-30T23:59:59Z</time>
      </trkpt>
      <trkpt lat="38.176818" lon="-2.841128">
        <ele>815.8</ele>
        <time>1989-12-30T23:59:59Z</time>
      </trkpt>
      <trkpt lat="38.176766" lon="-2.841033">
        <ele>817.7</ele>
        <time>1989-12-30T23:59:59Z</time>
      </trkpt>
      <trkpt lat="38.176693" lon="-2.840962">
        <ele>818.7</ele>
        <time>1989-12-30T23:59:59Z</time>
      </trkpt>
      <trkpt lat="38.176607" lon="-2.840899">
        <ele>819.7</ele>
        <time>1989-12-30T23:59:59Z</time>
      </trkpt>
      <trkpt lat="38.176514" lon="-2.840859">
        <ele>820.1</ele>
        <time>1989-12-30T23:59:59Z</time>
      </trkpt>
      <trkpt lat="38.176421" lon="-2.840838">
        <ele>820.1</ele>
        <time>1989-12-30T23:59:59Z</time>
      </trkpt>
      <trkpt lat="38.176324" lon="-2.840822">
        <ele>821.1</ele>
        <time>1989-12-30T23:59:59Z</time>
      </trkpt>
      <trkpt lat="38.176226" lon="-2.840817">
        <ele>822.1</ele>
        <time>1989-12-30T23:59:59Z</time>
      </trkpt>
      <trkpt lat="38.176133" lon="-2.840825">
        <ele>823.5</ele>
        <time>1989-12-30T23:59:59Z</time>
      </trkpt>
      <trkpt lat="38.176043" lon="-2.840822">
        <ele>824.0</ele>
        <time>1989-12-30T23:59:59Z</time>
      </trkpt>
      <trkpt lat="38.175960" lon="-2.840818">
        <ele>826.4</ele>
        <time>1989-12-30T23:59:59Z</time>
      </trkpt>
      <trkpt lat="38.175923" lon="-2.840808">
        <ele>828.3</ele>
        <time>1989-12-30T23:59:59Z</time>
      </trkpt>
      <trkpt lat="38.175835" lon="-2.840814">
        <ele>828.3</ele>
        <time>1989-12-30T23:59:59Z</time>
      </trkpt>
      <trkpt lat="38.175738" lon="-2.840829">
        <ele>829.3</ele>
        <time>1989-12-30T23:59:59Z</time>
      </trkpt>
      <trkpt lat="38.175640" lon="-2.840861">
        <ele>830.2</ele>
        <time>1989-12-30T23:59:59Z</time>
      </trkpt>
      <trkpt lat="38.175547" lon="-2.840884">
        <ele>831.2</ele>
        <time>1989-12-30T23:59:59Z</time>
      </trkpt>
      <trkpt lat="38.175461" lon="-2.840919">
        <ele>832.2</ele>
        <time>1989-12-30T23:59:59Z</time>
      </trkpt>
      <trkpt lat="38.175368" lon="-2.840937">
        <ele>833.6</ele>
        <time>1989-12-30T23:59:59Z</time>
      </trkpt>
      <trkpt lat="38.175279" lon="-2.840956">
        <ele>834.1</ele>
        <time>1989-12-30T23:59:59Z</time>
      </trkpt>
      <trkpt lat="38.175186" lon="-2.840962">
        <ele>840.3</ele>
        <time>1989-12-30T23:59:59Z</time>
      </trkpt>
      <trkpt lat="38.175077" lon="-2.840978">
        <ele>837.4</ele>
        <time>1989-12-30T23:59:59Z</time>
      </trkpt>
      <trkpt lat="38.174976" lon="-2.840990">
        <ele>836.5</ele>
        <time>1989-12-30T23:59:59Z</time>
      </trkpt>
      <trkpt lat="38.174891" lon="-2.840999">
        <ele>836.5</ele>
        <time>1989-12-30T23:59:59Z</time>
      </trkpt>
      <trkpt lat="38.174796" lon="-2.841003">
        <ele>837.0</ele>
        <time>1989-12-30T23:59:59Z</time>
      </trkpt>
      <trkpt lat="38.174708" lon="-2.841013">
        <ele>838.9</ele>
        <time>1989-12-30T23:59:59Z</time>
      </trkpt>
      <trkpt lat="38.174617" lon="-2.841047">
        <ele>841.3</ele>
        <time>1989-12-30T23:59:59Z</time>
      </trkpt>
      <trkpt lat="38.174524" lon="-2.841063">
        <ele>850.9</ele>
        <time>1989-12-30T23:59:59Z</time>
      </trkpt>
      <trkpt lat="38.174469" lon="-2.841121">
        <ele>840.8</ele>
        <time>1989-12-30T23:59:59Z</time>
      </trkpt>
      <trkpt lat="38.174389" lon="-2.841186">
        <ele>841.3</ele>
        <time>1989-12-30T23:59:59Z</time>
      </trkpt>
      <trkpt lat="38.174308" lon="-2.841252">
        <ele>842.3</ele>
        <time>1989-12-30T23:59:59Z</time>
      </trkpt>
      <trkpt lat="38.174222" lon="-2.841311">
        <ele>842.3</ele>
        <time>1989-12-30T23:59:59Z</time>
      </trkpt>
      <trkpt lat="38.174138" lon="-2.841374">
        <ele>842.3</ele>
        <time>1989-12-30T23:59:59Z</time>
      </trkpt>
      <trkpt lat="38.174052" lon="-2.841434">
        <ele>842.7</ele>
        <time>1989-12-30T23:59:59Z</time>
      </trkpt>
      <trkpt lat="38.173974" lon="-2.841515">
        <ele>843.2</ele>
        <time>1989-12-30T23:59:59Z</time>
      </trkpt>
      <trkpt lat="38.173900" lon="-2.841601">
        <ele>844.2</ele>
        <time>1989-12-30T23:59:59Z</time>
      </trkpt>
      <trkpt lat="38.173830" lon="-2.841679">
        <ele>845.1</ele>
        <time>1989-12-30T23:59:59Z</time>
      </trkpt>
      <trkpt lat="38.173761" lon="-2.841766">
        <ele>846.1</ele>
        <time>1989-12-30T23:59:59Z</time>
      </trkpt>
      <trkpt lat="38.173681" lon="-2.841842">
        <ele>847.1</ele>
        <time>1989-12-30T23:59:59Z</time>
      </trkpt>
      <trkpt lat="38.173595" lon="-2.841902">
        <ele>847.5</ele>
        <time>1989-12-30T23:59:59Z</time>
      </trkpt>
      <trkpt lat="38.173507" lon="-2.841956">
        <ele>848.5</ele>
        <time>1989-12-30T23:59:59Z</time>
      </trkpt>
      <trkpt lat="38.173426" lon="-2.842028">
        <ele>849.5</ele>
        <time>1989-12-30T23:59:59Z</time>
      </trkpt>
      <trkpt lat="38.173357" lon="-2.842120">
        <ele>849.9</ele>
        <time>1989-12-30T23:59:59Z</time>
      </trkpt>
      <trkpt lat="38.173295" lon="-2.842213">
        <ele>851.9</ele>
        <time>1989-12-30T23:59:59Z</time>
      </trkpt>
      <trkpt lat="38.173240" lon="-2.842301">
        <ele>845.6</ele>
        <time>1989-12-30T23:59:59Z</time>
      </trkpt>
      <trkpt lat="38.173180" lon="-2.842391">
        <ele>845.6</ele>
        <time>1989-12-30T23:59:59Z</time>
      </trkpt>
      <trkpt lat="38.173111" lon="-2.842483">
        <ele>845.6</ele>
        <time>1989-12-30T23:59:59Z</time>
      </trkpt>
      <trkpt lat="38.173034" lon="-2.842567">
        <ele>846.1</ele>
        <time>1989-12-30T23:59:59Z</time>
      </trkpt>
      <trkpt lat="38.172946" lon="-2.842632">
        <ele>847.1</ele>
        <time>1989-12-30T23:59:59Z</time>
      </trkpt>
      <trkpt lat="38.172864" lon="-2.842719">
        <ele>847.5</ele>
        <time>1989-12-30T23:59:59Z</time>
      </trkpt>
      <trkpt lat="38.172799" lon="-2.842798">
        <ele>848.5</ele>
        <time>1989-12-30T23:59:59Z</time>
      </trkpt>
      <trkpt lat="38.172728" lon="-2.842894">
        <ele>849.5</ele>
        <time>1989-12-30T23:59:59Z</time>
      </trkpt>
      <trkpt lat="38.172649" lon="-2.842977">
        <ele>850.9</ele>
        <time>1989-12-30T23:59:59Z</time>
      </trkpt>
      <trkpt lat="38.172572" lon="-2.843064">
        <ele>852.3</ele>
        <time>1989-12-30T23:59:59Z</time>
      </trkpt>
      <trkpt lat="38.172495" lon="-2.843153">
        <ele>852.8</ele>
        <time>1989-12-30T23:59:59Z</time>
      </trkpt>
      <trkpt lat="38.172419" lon="-2.843236">
        <ele>854.3</ele>
        <time>1989-12-30T23:59:59Z</time>
      </trkpt>
      <trkpt lat="38.172358" lon="-2.843327">
        <ele>855.2</ele>
        <time>1989-12-30T23:59:59Z</time>
      </trkpt>
      <trkpt lat="38.172307" lon="-2.843424">
        <ele>855.2</ele>
        <time>1989-12-30T23:59:59Z</time>
      </trkpt>
      <trkpt lat="38.172259" lon="-2.843517">
        <ele>856.7</ele>
        <time>1989-12-30T23:59:59Z</time>
      </trkpt>
      <trkpt lat="38.172267" lon="-2.843688">
        <ele>866.3</ele>
        <time>1989-12-30T23:59:59Z</time>
      </trkpt>
      <trkpt lat="38.172219" lon="-2.843806">
        <ele>869.2</ele>
        <time>1989-12-30T23:59:59Z</time>
      </trkpt>
      <trkpt lat="38.172143" lon="-2.843837">
        <ele>857.6</ele>
        <time>1989-12-30T23:59:59Z</time>
      </trkpt>
      <trkpt lat="38.172127" lon="-2.843892">
        <ele>861.0</ele>
        <time>1989-12-30T23:59:59Z</time>
      </trkpt>
      <trkpt lat="38.172064" lon="-2.843976">
        <ele>862.0</ele>
        <time>1989-12-30T23:59:59Z</time>
      </trkpt>
      <trkpt lat="38.171995" lon="-2.844057">
        <ele>861.5</ele>
        <time>1989-12-30T23:59:59Z</time>
      </trkpt>
      <trkpt lat="38.171924" lon="-2.844129">
        <ele>863.9</ele>
        <time>1989-12-30T23:59:59Z</time>
      </trkpt>
      <trkpt lat="38.171847" lon="-2.844193">
        <ele>865.3</ele>
        <time>1989-12-30T23:59:59Z</time>
      </trkpt>
      <trkpt lat="38.171773" lon="-2.844276">
        <ele>865.3</ele>
        <time>1989-12-30T23:59:59Z</time>
      </trkpt>
      <trkpt lat="38.171695" lon="-2.844354">
        <ele>865.3</ele>
        <time>1989-12-30T23:59:59Z</time>
      </trkpt>
      <trkpt lat="38.171615" lon="-2.844422">
        <ele>865.8</ele>
        <time>1989-12-30T23:59:59Z</time>
      </trkpt>
      <trkpt lat="38.171533" lon="-2.844480">
        <ele>866.8</ele>
        <time>1989-12-30T23:59:59Z</time>
      </trkpt>
      <trkpt lat="38.171446" lon="-2.844542">
        <ele>867.2</ele>
        <time>1989-12-30T23:59:59Z</time>
      </trkpt>
      <trkpt lat="38.171358" lon="-2.844592">
        <ele>868.7</ele>
        <time>1989-12-30T23:59:59Z</time>
      </trkpt>
      <trkpt lat="38.171266" lon="-2.844632">
        <ele>869.6</ele>
        <time>1989-12-30T23:59:59Z</time>
      </trkpt>
      <trkpt lat="38.171177" lon="-2.844681">
        <ele>871.1</ele>
        <time>1989-12-30T23:59:59Z</time>
      </trkpt>
      <trkpt lat="38.171085" lon="-2.844733">
        <ele>871.6</ele>
        <time>1989-12-30T23:59:59Z</time>
      </trkpt>
      <trkpt lat="38.170991" lon="-2.844776">
        <ele>874.0</ele>
        <time>1989-12-30T23:59:59Z</time>
      </trkpt>
      <trkpt lat="38.170897" lon="-2.844820">
        <ele>874.9</ele>
        <time>1989-12-30T23:59:59Z</time>
      </trkpt>
      <trkpt lat="38.170810" lon="-2.844879">
        <ele>876.4</ele>
        <time>1989-12-30T23:59:59Z</time>
      </trkpt>
      <trkpt lat="38.170728" lon="-2.844945">
        <ele>871.1</ele>
        <time>1989-12-30T23:59:59Z</time>
      </trkpt>
      <trkpt lat="38.170662" lon="-2.845025">
        <ele>871.6</ele>
        <time>1989-12-30T23:59:59Z</time>
      </trkpt>
      <trkpt lat="38.170592" lon="-2.845105">
        <ele>872.5</ele>
        <time>1989-12-30T23:59:59Z</time>
      </trkpt>
      <trkpt lat="38.170501" lon="-2.845154">
        <ele>871.6</ele>
        <time>1989-12-30T23:59:59Z</time>
      </trkpt>
      <trkpt lat="38.170411" lon="-2.845120">
        <ele>872.1</ele>
        <time>1989-12-30T23:59:59Z</time>
      </trkpt>
      <trkpt lat="38.170322" lon="-2.845062">
        <ele>874.5</ele>
        <time>1989-12-30T23:59:59Z</time>
      </trkpt>
      <trkpt lat="38.170239" lon="-2.845016">
        <ele>875.4</ele>
        <time>1989-12-30T23:59:59Z</time>
      </trkpt>
      <trkpt lat="38.170139" lon="-2.844997">
        <ele>875.4</ele>
        <time>1989-12-30T23:59:59Z</time>
      </trkpt>
      <trkpt lat="38.170042" lon="-2.844997">
        <ele>875.9</ele>
        <time>1989-12-30T23:59:59Z</time>
      </trkpt>
      <trkpt lat="38.169953" lon="-2.845014">
        <ele>876.4</ele>
        <time>1989-12-30T23:59:59Z</time>
      </trkpt>
      <trkpt lat="38.169863" lon="-2.845052">
        <ele>878.3</ele>
        <time>1989-12-30T23:59:59Z</time>
      </trkpt>
      <trkpt lat="38.169783" lon="-2.845117">
        <ele>879.7</ele>
        <time>1989-12-30T23:59:59Z</time>
      </trkpt>
      <trkpt lat="38.169703" lon="-2.845191">
        <ele>880.7</ele>
        <time>1989-12-30T23:59:59Z</time>
      </trkpt>
      <trkpt lat="38.169633" lon="-2.845284">
        <ele>881.7</ele>
        <time>1989-12-30T23:59:59Z</time>
      </trkpt>
      <trkpt lat="38.169572" lon="-2.845382">
        <ele>882.6</ele>
        <time>1989-12-30T23:59:59Z</time>
      </trkpt>
      <trkpt lat="38.169508" lon="-2.845472">
        <ele>884.6</ele>
        <time>1989-12-30T23:59:59Z</time>
      </trkpt>
      <trkpt lat="38.169433" lon="-2.845554">
        <ele>885.5</ele>
        <time>1989-12-30T23:59:59Z</time>
      </trkpt>
      <trkpt lat="38.169347" lon="-2.845603">
        <ele>886.5</ele>
        <time>1989-12-30T23:59:59Z</time>
      </trkpt>
      <trkpt lat="38.169252" lon="-2.845635">
        <ele>887.0</ele>
        <time>1989-12-30T23:59:59Z</time>
      </trkpt>
      <trkpt lat="38.169168" lon="-2.845687">
        <ele>887.0</ele>
        <time>1989-12-30T23:59:59Z</time>
      </trkpt>
      <trkpt lat="38.169106" lon="-2.845779">
        <ele>887.4</ele>
        <time>1989-12-30T23:59:59Z</time>
      </trkpt>
      <trkpt lat="38.169039" lon="-2.845894">
        <ele>887.0</ele>
        <time>1989-12-30T23:59:59Z</time>
      </trkpt>
      <trkpt lat="38.169021" lon="-2.846001">
        <ele>886.0</ele>
        <time>1989-12-30T23:59:59Z</time>
      </trkpt>
      <trkpt lat="38.168997" lon="-2.846130">
        <ele>885.5</ele>
        <time>1989-12-30T23:59:59Z</time>
      </trkpt>
      <trkpt lat="38.168964" lon="-2.846245">
        <ele>886.0</ele>
        <time>1989-12-30T23:59:59Z</time>
      </trkpt>
      <trkpt lat="38.168914" lon="-2.846355">
        <ele>887.0</ele>
        <time>1989-12-30T23:59:59Z</time>
      </trkpt>
      <trkpt lat="38.168895" lon="-2.846420">
        <ele>887.4</ele>
        <time>1989-12-30T23:59:59Z</time>
      </trkpt>
      <trkpt lat="38.168853" lon="-2.846449">
        <ele>882.6</ele>
        <time>1989-12-30T23:59:59Z</time>
      </trkpt>
      <trkpt lat="38.168771" lon="-2.846494">
        <ele>882.6</ele>
        <time>1989-12-30T23:59:59Z</time>
      </trkpt>
      <trkpt lat="38.168676" lon="-2.846498">
        <ele>882.6</ele>
        <time>1989-12-30T23:59:59Z</time>
      </trkpt>
      <trkpt lat="38.168591" lon="-2.846442">
        <ele>893.7</ele>
        <time>1989-12-30T23:59:59Z</time>
      </trkpt>
      <trkpt lat="38.168494" lon="-2.846405">
        <ele>892.7</ele>
        <time>1989-12-30T23:59:59Z</time>
      </trkpt>
      <trkpt lat="38.168406" lon="-2.846368">
        <ele>894.2</ele>
        <time>1989-12-30T23:59:59Z</time>
      </trkpt>
      <trkpt lat="38.168316" lon="-2.846374">
        <ele>895.1</ele>
        <time>1989-12-30T23:59:59Z</time>
      </trkpt>
      <trkpt lat="38.168231" lon="-2.846432">
        <ele>895.1</ele>
        <time>1989-12-30T23:59:59Z</time>
      </trkpt>
      <trkpt lat="38.168155" lon="-2.846506">
        <ele>895.6</ele>
        <time>1989-12-30T23:59:59Z</time>
      </trkpt>
      <trkpt lat="38.168081" lon="-2.846586">
        <ele>896.6</ele>
        <time>1989-12-30T23:59:59Z</time>
      </trkpt>
      <trkpt lat="38.168027" lon="-2.846686">
        <ele>897.5</ele>
        <time>1989-12-30T23:59:59Z</time>
      </trkpt>
      <trkpt lat="38.167955" lon="-2.846764">
        <ele>898.0</ele>
        <time>1989-12-30T23:59:59Z</time>
      </trkpt>
      <trkpt lat="38.167879" lon="-2.846848">
        <ele>898.5</ele>
        <time>1989-12-30T23:59:59Z</time>
      </trkpt>
      <trkpt lat="38.167799" lon="-2.846933">
        <ele>898.0</ele>
        <time>1989-12-30T23:59:59Z</time>
      </trkpt>
      <trkpt lat="38.167731" lon="-2.847008">
        <ele>898.0</ele>
        <time>1989-12-30T23:59:59Z</time>
      </trkpt>
      <trkpt lat="38.167662" lon="-2.847099">
        <ele>898.0</ele>
        <time>1989-12-30T23:59:59Z</time>
      </trkpt>
      <trkpt lat="38.167601" lon="-2.847199">
        <ele>898.5</ele>
        <time>1989-12-30T23:59:59Z</time>
      </trkpt>
      <trkpt lat="38.167554" lon="-2.847307">
        <ele>898.5</ele>
        <time>1989-12-30T23:59:59Z</time>
      </trkpt>
      <trkpt lat="38.167512" lon="-2.847420">
        <ele>898.5</ele>
        <time>1989-12-30T23:59:59Z</time>
      </trkpt>
      <trkpt lat="38.167467" lon="-2.847533">
        <ele>898.0</ele>
        <time>1989-12-30T23:59:59Z</time>
      </trkpt>
      <trkpt lat="38.167414" lon="-2.847636">
        <ele>898.5</ele>
        <time>1989-12-30T23:59:59Z</time>
      </trkpt>
      <trkpt lat="38.167322" lon="-2.847695">
        <ele>899.5</ele>
        <time>1989-12-30T23:59:59Z</time>
      </trkpt>
      <trkpt lat="38.167236" lon="-2.847774">
        <ele>899.5</ele>
        <time>1989-12-30T23:59:59Z</time>
      </trkpt>
      <trkpt lat="38.167136" lon="-2.847818">
        <ele>901.9</ele>
        <time>1989-12-30T23:59:59Z</time>
      </trkpt>
      <trkpt lat="38.166970" lon="-2.847621">
        <ele>904.3</ele>
        <time>1989-12-30T23:59:59Z</time>
      </trkpt>
      <trkpt lat="38.166931" lon="-2.847372">
        <ele>908.1</ele>
        <time>1989-12-30T23:59:59Z</time>
      </trkpt>
      <trkpt lat="38.166920" lon="-2.847246">
        <ele>909.1</ele>
        <time>1989-12-30T23:59:59Z</time>
      </trkpt>
      <trkpt lat="38.166897" lon="-2.847119">
        <ele>912.4</ele>
        <time>1989-12-30T23:59:59Z</time>
      </trkpt>
      <trkpt lat="38.166848" lon="-2.846984">
        <ele>904.7</ele>
        <time>1989-12-30T23:59:59Z</time>
      </trkpt>
      <trkpt lat="38.166795" lon="-2.846897">
        <ele>906.7</ele>
        <time>1989-12-30T23:59:59Z</time>
      </trkpt>
      <trkpt lat="38.166739" lon="-2.846794">
        <ele>908.6</ele>
        <time>1989-12-30T23:59:59Z</time>
      </trkpt>
      <trkpt lat="38.166662" lon="-2.846712">
        <ele>911.5</ele>
        <time>1989-12-30T23:59:59Z</time>
      </trkpt>
      <trkpt lat="38.166572" lon="-2.846639">
        <ele>914.4</ele>
        <time>1989-12-30T23:59:59Z</time>
      </trkpt>
      <trkpt lat="38.166479" lon="-2.846593">
        <ele>914.8</ele>
        <time>1989-12-30T23:59:59Z</time>
      </trkpt>
      <trkpt lat="38.166380" lon="-2.846577">
        <ele>912.9</ele>
        <time>1989-12-30T23:59:59Z</time>
      </trkpt>
      <trkpt lat="38.166282" lon="-2.846560">
        <ele>913.4</ele>
        <time>1989-12-30T23:59:59Z</time>
      </trkpt>
      <trkpt lat="38.166188" lon="-2.846527">
        <ele>912.9</ele>
        <time>1989-12-30T23:59:59Z</time>
      </trkpt>
      <trkpt lat="38.166102" lon="-2.846485">
        <ele>913.9</ele>
        <time>1989-12-30T23:59:59Z</time>
      </trkpt>
      <trkpt lat="38.166012" lon="-2.846440">
        <ele>916.8</ele>
        <time>1989-12-30T23:59:59Z</time>
      </trkpt>
      <trkpt lat="38.165897" lon="-2.846345">
        <ele>907.6</ele>
        <time>1989-12-30T23:59:59Z</time>
      </trkpt>
      <trkpt lat="38.165826" lon="-2.846257">
        <ele>922.5</ele>
        <time>1989-12-30T23:59:59Z</time>
      </trkpt>
      <trkpt lat="38.165747" lon="-2.846262">
        <ele>923.0</ele>
        <time>1989-12-30T23:59:59Z</time>
      </trkpt>
      <trkpt lat="38.165652" lon="-2.846277">
        <ele>912.9</ele>
        <time>1989-12-30T23:59:59Z</time>
      </trkpt>
      <trkpt lat="38.165562" lon="-2.846255">
        <ele>914.4</ele>
        <time>1989-12-30T23:59:59Z</time>
      </trkpt>
      <trkpt lat="38.165466" lon="-2.846230">
        <ele>917.2</ele>
        <time>1989-12-30T23:59:59Z</time>
      </trkpt>
      <trkpt lat="38.165372" lon="-2.846216">
        <ele>915.3</ele>
        <time>1989-12-30T23:59:59Z</time>
      </trkpt>
      <trkpt lat="38.165284" lon="-2.846241">
        <ele>915.3</ele>
        <time>1989-12-30T23:59:59Z</time>
      </trkpt>
      <trkpt lat="38.165202" lon="-2.846303">
        <ele>915.3</ele>
        <time>1989-12-30T23:59:59Z</time>
      </trkpt>
      <trkpt lat="38.165139" lon="-2.846391">
        <ele>915.8</ele>
        <time>1989-12-30T23:59:59Z</time>
      </trkpt>
      <trkpt lat="38.165090" lon="-2.846500">
        <ele>915.3</ele>
        <time>1989-12-30T23:59:59Z</time>
      </trkpt>
      <trkpt lat="38.165035" lon="-2.846592">
        <ele>916.8</ele>
        <time>1989-12-30T23:59:59Z</time>
      </trkpt>
      <trkpt lat="38.164971" lon="-2.846671">
        <ele>916.3</ele>
        <time>1989-12-30T23:59:59Z</time>
      </trkpt>
      <trkpt lat="38.164876" lon="-2.846725">
        <ele>915.8</ele>
        <time>1989-12-30T23:59:59Z</time>
      </trkpt>
      <trkpt lat="38.164781" lon="-2.846759">
        <ele>915.3</ele>
        <time>1989-12-30T23:59:59Z</time>
      </trkpt>
      <trkpt lat="38.164693" lon="-2.846790">
        <ele>914.4</ele>
        <time>1989-12-30T23:59:59Z</time>
      </trkpt>
      <trkpt lat="38.164596" lon="-2.846900">
        <ele>923.0</ele>
        <time>1989-12-30T23:59:59Z</time>
      </trkpt>
      <trkpt lat="38.164517" lon="-2.846971">
        <ele>923.5</ele>
        <time>1989-12-30T23:59:59Z</time>
      </trkpt>
      <trkpt lat="38.164457" lon="-2.847006">
        <ele>919.6</ele>
        <time>1989-12-30T23:59:59Z</time>
      </trkpt>
      <trkpt lat="38.164395" lon="-2.847109">
        <ele>919.2</ele>
        <time>1989-12-30T23:59:59Z</time>
      </trkpt>
      <trkpt lat="38.164336" lon="-2.847209">
        <ele>921.1</ele>
        <time>1989-12-30T23:59:59Z</time>
      </trkpt>
      <trkpt lat="38.164266" lon="-2.847300">
        <ele>922.5</ele>
        <time>1989-12-30T23:59:59Z</time>
      </trkpt>
      <trkpt lat="38.164185" lon="-2.847375">
        <ele>924.4</ele>
        <time>1989-12-30T23:59:59Z</time>
      </trkpt>
      <trkpt lat="38.164099" lon="-2.847443">
        <ele>924.4</ele>
        <time>1989-12-30T23:59:59Z</time>
      </trkpt>
      <trkpt lat="38.164006" lon="-2.847495">
        <ele>925.4</ele>
        <time>1989-12-30T23:59:59Z</time>
      </trkpt>
      <trkpt lat="38.163900" lon="-2.847551">
        <ele>925.4</ele>
        <time>1989-12-30T23:59:59Z</time>
      </trkpt>
      <trkpt lat="38.163803" lon="-2.847607">
        <ele>928.3</ele>
        <time>1989-12-30T23:59:59Z</time>
      </trkpt>
      <trkpt lat="38.163741" lon="-2.847705">
        <ele>928.3</ele>
        <time>1989-12-30T23:59:59Z</time>
      </trkpt>
      <trkpt lat="38.163653" lon="-2.847744">
        <ele>931.2</ele>
        <time>1989-12-30T23:59:59Z</time>
      </trkpt>
      <trkpt lat="38.163569" lon="-2.847764">
        <ele>931.7</ele>
        <time>1989-12-30T23:59:59Z</time>
      </trkpt>
      <trkpt lat="38.163470" lon="-2.847732">
        <ele>931.7</ele>
        <time>1989-12-30T23:59:59Z</time>
      </trkpt>
      <trkpt lat="38.163370" lon="-2.847672">
        <ele>931.7</ele>
        <time>1989-12-30T23:59:59Z</time>
      </trkpt>
      <trkpt lat="38.163276" lon="-2.847578">
        <ele>935.5</ele>
        <time>1989-12-30T23:59:59Z</time>
      </trkpt>
      <trkpt lat="38.163188" lon="-2.847516">
        <ele>936.9</ele>
        <time>1989-12-30T23:59:59Z</time>
      </trkpt>
      <trkpt lat="38.163087" lon="-2.847466">
        <ele>937.4</ele>
        <time>1989-12-30T23:59:59Z</time>
      </trkpt>
      <trkpt lat="38.163005" lon="-2.847420">
        <ele>925.4</ele>
        <time>1989-12-30T23:59:59Z</time>
      </trkpt>
      <trkpt lat="38.162916" lon="-2.847418">
        <ele>925.9</ele>
        <time>1989-12-30T23:59:59Z</time>
      </trkpt>
      <trkpt lat="38.162825" lon="-2.847422">
        <ele>925.9</ele>
        <time>1989-12-30T23:59:59Z</time>
      </trkpt>
      <trkpt lat="38.162735" lon="-2.847466">
        <ele>925.4</ele>
        <time>1989-12-30T23:59:59Z</time>
      </trkpt>
      <trkpt lat="38.162667" lon="-2.847548">
        <ele>925.4</ele>
        <time>1989-12-30T23:59:59Z</time>
      </trkpt>
      <trkpt lat="38.162622" lon="-2.847660">
        <ele>921.6</ele>
        <time>1989-12-30T23:59:59Z</time>
      </trkpt>
      <trkpt lat="38.162572" lon="-2.847759">
        <ele>921.6</ele>
        <time>1989-12-30T23:59:59Z</time>
      </trkpt>
      <trkpt lat="38.162510" lon="-2.847871">
        <ele>922.0</ele>
        <time>1989-12-30T23:59:59Z</time>
      </trkpt>
      <trkpt lat="38.162445" lon="-2.847967">
        <ele>932.6</ele>
        <time>1989-12-30T23:59:59Z</time>
      </trkpt>
      <trkpt lat="38.162399" lon="-2.848051">
        <ele>933.1</ele>
        <time>1989-12-30T23:59:59Z</time>
      </trkpt>
      <trkpt lat="38.162343" lon="-2.848146">
        <ele>933.6</ele>
        <time>1989-12-30T23:59:59Z</time>
      </trkpt>
      <trkpt lat="38.162314" lon="-2.848258">
        <ele>927.8</ele>
        <time>1989-12-30T23:59:59Z</time>
      </trkpt>
      <trkpt lat="38.162422" lon="-2.848135">
        <ele>954.7</ele>
        <time>1989-12-30T23:59:59Z</time>
      </trkpt>
      <trkpt lat="38.162325" lon="-2.848347">
        <ele>954.7</ele>
        <time>1989-12-30T23:59:59Z</time>
      </trkpt>
      <trkpt lat="38.161984" lon="-2.848479">
        <ele>954.7</ele>
        <time>1989-12-30T23:59:59Z</time>
      </trkpt>
      <trkpt lat="38.161634" lon="-2.848396">
        <ele>952.3</ele>
        <time>1989-12-30T23:59:59Z</time>
      </trkpt>
      <trkpt lat="38.161358" lon="-2.848490">
        <ele>952.5</ele>
        <time>1989-12-30T23:59:59Z</time>
      </trkpt>
      <trkpt lat="38.161242" lon="-2.848308">
        <ele>954.7</ele>
        <time>1989-12-30T23:59:59Z</time>
      </trkpt>
      <trkpt lat="38.161273" lon="-2.847992">
        <ele>945.5</ele>
        <time>1989-12-30T23:59:59Z</time>
      </trkpt>
      <trkpt lat="38.161549" lon="-2.847750">
        <ele>940.9</ele>
        <time>1989-12-30T23:59:59Z</time>
      </trkpt>
      <trkpt lat="38.161873" lon="-2.847464">
        <ele>956.9</ele>
        <time>1989-12-30T23:59:59Z</time>
      </trkpt>
      <trkpt lat="38.162037" lon="-2.847170">
        <ele>936.0</ele>
        <time>1989-12-30T23:59:59Z</time>
      </trkpt>
      <trkpt lat="38.162350" lon="-2.846939">
        <ele>957.4</ele>
        <time>1989-12-30T23:59:59Z</time>
      </trkpt>
      <trkpt lat="38.162521" lon="-2.846710">
        <ele>957.5</ele>
        <time>1989-12-30T23:59:59Z</time>
      </trkpt>
      <trkpt lat="38.162716" lon="-2.846550">
        <ele>932.8</ele>
        <time>1989-12-30T23:59:59Z</time>
      </trkpt>
      <trkpt lat="38.163034" lon="-2.846414">
        <ele>932.5</ele>
        <time>1989-12-30T23:59:59Z</time>
      </trkpt>
      <trkpt lat="38.163289" lon="-2.846158">
        <ele>934.9</ele>
        <time>1989-12-30T23:59:59Z</time>
      </trkpt>
      <trkpt lat="38.163566" lon="-2.846137">
        <ele>958.9</ele>
        <time>1989-12-30T23:59:59Z</time>
      </trkpt>
      <trkpt lat="38.163872" lon="-2.846353">
        <ele>960.4</ele>
        <time>1989-12-30T23:59:59Z</time>
      </trkpt>
      <trkpt lat="38.164134" lon="-2.846181">
        <ele>961.4</ele>
        <time>1989-12-30T23:59:59Z</time>
      </trkpt>
      <trkpt lat="38.164268" lon="-2.845427">
        <ele>962.4</ele>
        <time>1989-12-30T23:59:59Z</time>
      </trkpt>
      <trkpt lat="38.164619" lon="-2.844913">
        <ele>963.4</ele>
        <time>1989-12-30T23:59:59Z</time>
      </trkpt>
      <trkpt lat="38.164710" lon="-2.844716">
        <ele>922.6</ele>
        <time>1989-12-30T23:59:59Z</time>
      </trkpt>
      <trkpt lat="38.164457" lon="-2.844822">
        <ele>967.4</ele>
        <time>1989-12-30T23:59:59Z</time>
      </trkpt>
      <trkpt lat="38.163936" lon="-2.845296">
        <ele>933.1</ele>
        <time>1989-12-30T23:59:59Z</time>
      </trkpt>
      <trkpt lat="38.163749" lon="-2.845731">
        <ele>954.7</ele>
        <time>1989-12-30T23:59:59Z</time>
      </trkpt>
      <trkpt lat="38.163527" lon="-2.845764">
        <ele>959.5</ele>
        <time>1989-12-30T23:59:59Z</time>
      </trkpt>
      <trkpt lat="38.163502" lon="-2.845636">
        <ele>961.9</ele>
        <time>1989-12-30T23:59:59Z</time>
      </trkpt>
      <trkpt lat="38.163525" lon="-2.845519">
        <ele>964.8</ele>
        <time>1989-12-30T23:59:59Z</time>
      </trkpt>
      <trkpt lat="38.163741" lon="-2.845266">
        <ele>970.6</ele>
        <time>1989-12-30T23:59:59Z</time>
      </trkpt>
      <trkpt lat="38.163865" lon="-2.845063">
        <ele>974.4</ele>
        <time>1989-12-30T23:59:59Z</time>
      </trkpt>
      <trkpt lat="38.163986" lon="-2.844833">
        <ele>978.3</ele>
        <time>1989-12-30T23:59:59Z</time>
      </trkpt>
      <trkpt lat="38.164089" lon="-2.844612">
        <ele>978.8</ele>
        <time>1989-12-30T23:59:59Z</time>
      </trkpt>
      <trkpt lat="38.164162" lon="-2.844509">
        <ele>977.3</ele>
        <time>1989-12-30T23:59:59Z</time>
      </trkpt>
      <trkpt lat="38.164314" lon="-2.844338">
        <ele>975.9</ele>
        <time>1989-12-30T23:59:59Z</time>
      </trkpt>
      <trkpt lat="38.164700" lon="-2.843947">
        <ele>982.1</ele>
        <time>1989-12-30T23:59:59Z</time>
      </trkpt>
      <trkpt lat="38.164638" lon="-2.843740">
        <ele>994.1</ele>
        <time>1989-12-30T23:59:59Z</time>
      </trkpt>
      <trkpt lat="38.164538" lon="-2.843752">
        <ele>984.0</ele>
        <time>1989-12-30T23:59:59Z</time>
      </trkpt>
      <trkpt lat="38.164455" lon="-2.843796">
        <ele>984.0</ele>
        <time>1989-12-30T23:59:59Z</time>
      </trkpt>
      <trkpt lat="38.164224" lon="-2.844038">
        <ele>987.4</ele>
        <time>1989-12-30T23:59:59Z</time>
      </trkpt>
      <trkpt lat="38.163934" lon="-2.844165">
        <ele>991.3</ele>
        <time>1989-12-30T23:59:59Z</time>
      </trkpt>
      <trkpt lat="38.163560" lon="-2.844567">
        <ele>995.1</ele>
        <time>1989-12-30T23:59:59Z</time>
      </trkpt>
      <trkpt lat="38.163399" lon="-2.844701">
        <ele>997.5</ele>
        <time>1989-12-30T23:59:59Z</time>
      </trkpt>
      <trkpt lat="38.163209" lon="-2.844791">
        <ele>998.0</ele>
        <time>1989-12-30T23:59:59Z</time>
      </trkpt>
      <trkpt lat="38.162923" lon="-2.844860">
        <ele>998.0</ele>
        <time>1989-12-30T23:59:59Z</time>
      </trkpt>
      <trkpt lat="38.162696" lon="-2.845034">
        <ele>1001.8</ele>
        <time>1989-12-30T23:59:59Z</time>
      </trkpt>
      <trkpt lat="38.162534" lon="-2.844909">
        <ele>984.5</ele>
        <time>1989-12-30T23:59:59Z</time>
      </trkpt>
      <trkpt lat="38.162342" lon="-2.844855">
        <ele>991.4</ele>
        <time>1989-12-30T23:59:59Z</time>
      </trkpt>
      <trkpt lat="38.162077" lon="-2.844789">
        <ele>1000.7</ele>
        <time>1989-12-30T23:59:59Z</time>
      </trkpt>
      <trkpt lat="38.161843" lon="-2.844803">
        <ele>1005.9</ele>
        <time>1989-12-30T23:59:59Z</time>
      </trkpt>
      <trkpt lat="38.161884" lon="-2.844910">
        <ele>1014.3</ele>
        <time>1989-12-30T23:59:59Z</time>
      </trkpt>
      <trkpt lat="38.161625" lon="-2.845053">
        <ele>1014.3</ele>
        <time>1989-12-30T23:59:59Z</time>
      </trkpt>
      <trkpt lat="38.161454" lon="-2.845179">
        <ele>1018.2</ele>
        <time>1989-12-30T23:59:59Z</time>
      </trkpt>
      <trkpt lat="38.161252" lon="-2.845453">
        <ele>1023.9</ele>
        <time>1989-12-30T23:59:59Z</time>
      </trkpt>
      <trkpt lat="38.161077" lon="-2.845581">
        <ele>1024.4</ele>
        <time>1989-12-30T23:59:59Z</time>
      </trkpt>
      <trkpt lat="38.160886" lon="-2.845621">
        <ele>1025.4</ele>
        <time>1989-12-30T23:59:59Z</time>
      </trkpt>
      <trkpt lat="38.160811" lon="-2.845620">
        <ele>1029.2</ele>
        <time>1989-12-30T23:59:59Z</time>
      </trkpt>
      <trkpt lat="38.160633" lon="-2.845651">
        <ele>1030.7</ele>
        <time>1989-12-30T23:59:59Z</time>
      </trkpt>
      <trkpt lat="38.160540" lon="-2.845723">
        <ele>1031.2</ele>
        <time>1989-12-30T23:59:59Z</time>
      </trkpt>
      <trkpt lat="38.160463" lon="-2.845772">
        <ele>1032.6</ele>
        <time>1989-12-30T23:59:59Z</time>
      </trkpt>
      <trkpt lat="38.160009" lon="-2.845972">
        <ele>1035.5</ele>
        <time>1989-12-30T23:59:59Z</time>
      </trkpt>
      <trkpt lat="38.159417" lon="-2.846307">
        <ele>1046.5</ele>
        <time>1989-12-30T23:59:59Z</time>
      </trkpt>
      <trkpt lat="38.159081" lon="-2.846486">
        <ele>1051.3</ele>
        <time>1989-12-30T23:59:59Z</time>
      </trkpt>
      <trkpt lat="38.158699" lon="-2.846525">
        <ele>1052.3</ele>
        <time>1989-12-30T23:59:59Z</time>
      </trkpt>
      <trkpt lat="38.158515" lon="-2.846576">
        <ele>1064.3</ele>
        <time>1989-12-30T23:59:59Z</time>
      </trkpt>
      <trkpt lat="38.158353" lon="-2.846663">
        <ele>1065.3</ele>
        <time>1989-12-30T23:59:59Z</time>
      </trkpt>
      <trkpt lat="38.158161" lon="-2.846687">
        <ele>1063.8</ele>
        <time>1989-12-30T23:59:59Z</time>
      </trkpt>
      <trkpt lat="38.158090" lon="-2.846728">
        <ele>1065.8</ele>
        <time>1989-12-30T23:59:59Z</time>
      </trkpt>
      <trkpt lat="38.157919" lon="-2.846853">
        <ele>1067.2</ele>
        <time>1989-12-30T23:59:59Z</time>
      </trkpt>
      <trkpt lat="38.157841" lon="-2.846911">
        <ele>1070.1</ele>
        <time>1989-12-30T23:59:59Z</time>
      </trkpt>
      <trkpt lat="38.157567" lon="-2.847061">
        <ele>1067.2</ele>
        <time>1989-12-30T23:59:59Z</time>
      </trkpt>
      <trkpt lat="38.157413" lon="-2.847218">
        <ele>1069.6</ele>
        <time>1989-12-30T23:59:59Z</time>
      </trkpt>
      <trkpt lat="38.157185" lon="-2.847381">
        <ele>1073.9</ele>
        <time>1989-12-30T23:59:59Z</time>
      </trkpt>
      <trkpt lat="38.156859" lon="-2.847645">
        <ele>1073.0</ele>
        <time>1989-12-30T23:59:59Z</time>
      </trkpt>
      <trkpt lat="38.156634" lon="-2.847787">
        <ele>1071.5</ele>
        <time>1989-12-30T23:59:59Z</time>
      </trkpt>
      <trkpt lat="38.156571" lon="-2.847875">
        <ele>1077.3</ele>
        <time>1989-12-30T23:59:59Z</time>
      </trkpt>
      <trkpt lat="38.156431" lon="-2.848054">
        <ele>1082.6</ele>
        <time>1989-12-30T23:59:59Z</time>
      </trkpt>
      <trkpt lat="38.156210" lon="-2.848314">
        <ele>1082.1</ele>
        <time>1989-12-30T23:59:59Z</time>
      </trkpt>
      <trkpt lat="38.156150" lon="-2.848412">
        <ele>1092.2</ele>
        <time>1989-12-30T23:59:59Z</time>
      </trkpt>
      <trkpt lat="38.155967" lon="-2.848694">
        <ele>1092.2</ele>
        <time>1989-12-30T23:59:59Z</time>
      </trkpt>
      <trkpt lat="38.155810" lon="-2.848839">
        <ele>1092.2</ele>
        <time>1989-12-30T23:59:59Z</time>
      </trkpt>
      <trkpt lat="38.155664" lon="-2.849119">
        <ele>1092.2</ele>
        <time>1989-12-30T23:59:59Z</time>
      </trkpt>
      <trkpt lat="38.155544" lon="-2.849393">
        <ele>1095.0</ele>
        <time>1989-12-30T23:59:59Z</time>
      </trkpt>
      <trkpt lat="38.155459" lon="-2.849567">
        <ele>1097.5</ele>
        <time>1989-12-30T23:59:59Z</time>
      </trkpt>
      <trkpt lat="38.155459" lon="-2.849567">
        <ele>1097.5</ele>
        <time>1989-12-30T23:59:59Z</time>
      </trkpt>
      <trkpt lat="38.155396" lon="-2.849646">
        <ele>1099.4</ele>
        <time>1989-12-30T23:59:59Z</time>
      </trkpt>
      <trkpt lat="38.155323" lon="-2.849748">
        <ele>1100.8</ele>
        <time>1989-12-30T23:59:59Z</time>
      </trkpt>
      <trkpt lat="38.155260" lon="-2.849832">
        <ele>1104.2</ele>
        <time>1989-12-30T23:59:59Z</time>
      </trkpt>
      <trkpt lat="38.155163" lon="-2.849882">
        <ele>1106.6</ele>
        <time>1989-12-30T23:59:59Z</time>
      </trkpt>
      <trkpt lat="38.155062" lon="-2.849879">
        <ele>1108.5</ele>
        <time>1989-12-30T23:59:59Z</time>
      </trkpt>
      <trkpt lat="38.154954" lon="-2.849851">
        <ele>1109.0</ele>
        <time>1989-12-30T23:59:59Z</time>
      </trkpt>
      <trkpt lat="38.154850" lon="-2.849819">
        <ele>1110.5</ele>
        <time>1989-12-30T23:59:59Z</time>
      </trkpt>
      <trkpt lat="38.154740" lon="-2.849826">
        <ele>1114.8</ele>
        <time>1989-12-30T23:59:59Z</time>
      </trkpt>
      <trkpt lat="38.154644" lon="-2.849903">
        <ele>1118.2</ele>
        <time>1989-12-30T23:59:59Z</time>
      </trkpt>
      <trkpt lat="38.154523" lon="-2.850117">
        <ele>1123.4</ele>
        <time>1989-12-30T23:59:59Z</time>
      </trkpt>
      <trkpt lat="38.154445" lon="-2.850222">
        <ele>1124.9</ele>
        <time>1989-12-30T23:59:59Z</time>
      </trkpt>
      <trkpt lat="38.154311" lon="-2.850225">
        <ele>1135.9</ele>
        <time>1989-12-30T23:59:59Z</time>
      </trkpt>
      <trkpt lat="38.154184" lon="-2.850359">
        <ele>1142.8</ele>
        <time>1989-12-30T23:59:59Z</time>
      </trkpt>
      <trkpt lat="38.154035" lon="-2.850413">
        <ele>1146.5</ele>
        <time>1989-12-30T23:59:59Z</time>
      </trkpt>
      <trkpt lat="38.153930" lon="-2.850467">
        <ele>1149.1</ele>
        <time>1989-12-30T23:59:59Z</time>
      </trkpt>
      <trkpt lat="38.153959" lon="-2.850558">
        <ele>1137.9</ele>
        <time>1989-12-30T23:59:59Z</time>
      </trkpt>
      <trkpt lat="38.153850" lon="-2.850548">
        <ele>1140.3</ele>
        <time>1989-12-30T23:59:59Z</time>
      </trkpt>
      <trkpt lat="38.153757" lon="-2.850532">
        <ele>1140.7</ele>
        <time>1989-12-30T23:59:59Z</time>
      </trkpt>
      <trkpt lat="38.153662" lon="-2.850513">
        <ele>1142.2</ele>
        <time>1989-12-30T23:59:59Z</time>
      </trkpt>
      <trkpt lat="38.153568" lon="-2.850578">
        <ele>1144.6</ele>
        <time>1989-12-30T23:59:59Z</time>
      </trkpt>
      <trkpt lat="38.153507" lon="-2.850672">
        <ele>1146.0</ele>
        <time>1989-12-30T23:59:59Z</time>
      </trkpt>
      <trkpt lat="38.153438" lon="-2.850767">
        <ele>1149.9</ele>
        <time>1989-12-30T23:59:59Z</time>
      </trkpt>
      <trkpt lat="38.153353" lon="-2.850833">
        <ele>1153.2</ele>
        <time>1989-12-30T23:59:59Z</time>
      </trkpt>
      <trkpt lat="38.153293" lon="-2.850711">
        <ele>1155.0</ele>
        <time>1989-12-30T23:59:59Z</time>
      </trkpt>
      <trkpt lat="38.153133" lon="-2.850671">
        <ele>1155.6</ele>
        <time>1989-12-30T23:59:59Z</time>
      </trkpt>
      <trkpt lat="38.152983" lon="-2.850650">
        <ele>1167.7</ele>
        <time>1989-12-30T23:59:59Z</time>
      </trkpt>
      <trkpt lat="38.153036" lon="-2.850549">
        <ele>1169.1</ele>
        <time>1989-12-30T23:59:59Z</time>
      </trkpt>
      <trkpt lat="38.152847" lon="-2.850537">
        <ele>1158.3</ele>
        <time>1989-12-30T23:59:59Z</time>
      </trkpt>
      <trkpt lat="38.152719" lon="-2.850335">
        <ele>1162.3</ele>
        <time>1989-12-30T23:59:59Z</time>
      </trkpt>
      <trkpt lat="38.152591" lon="-2.850201">
        <ele>1166.3</ele>
        <time>1989-12-30T23:59:59Z</time>
      </trkpt>
      <trkpt lat="38.152485" lon="-2.850040">
        <ele>1171.4</ele>
        <time>1989-12-30T23:59:59Z</time>
      </trkpt>
      <trkpt lat="38.152421" lon="-2.849892">
        <ele>1176.1</ele>
        <time>1989-12-30T23:59:59Z</time>
      </trkpt>
      <trkpt lat="38.152262" lon="-2.849704">
        <ele>1183.6</ele>
        <time>1989-12-30T23:59:59Z</time>
      </trkpt>
      <trkpt lat="38.152145" lon="-2.849382">
        <ele>1194.4</ele>
        <time>1989-12-30T23:59:59Z</time>
      </trkpt>
      <trkpt lat="38.152049" lon="-2.849019">
        <ele>1206.2</ele>
        <time>1989-12-30T23:59:59Z</time>
      </trkpt>
      <trkpt lat="38.151921" lon="-2.848777">
        <ele>1215.0</ele>
        <time>1989-12-30T23:59:59Z</time>
      </trkpt>
      <trkpt lat="38.151751" lon="-2.848400">
        <ele>1227.5</ele>
        <time>1989-12-30T23:59:59Z</time>
      </trkpt>
      <trkpt lat="38.151581" lon="-2.848024">
        <ele>1242.5</ele>
        <time>1989-12-30T23:59:59Z</time>
      </trkpt>
      <trkpt lat="38.151391" lon="-2.847943">
        <ele>1247.1</ele>
        <time>1989-12-30T23:59:59Z</time>
      </trkpt>
      <trkpt lat="38.151242" lon="-2.847755">
        <ele>1255.4</ele>
        <time>1989-12-30T23:59:59Z</time>
      </trkpt>
      <trkpt lat="38.151252" lon="-2.847513">
        <ele>1265.9</ele>
        <time>1989-12-30T23:59:59Z</time>
      </trkpt>
      <trkpt lat="38.151199" lon="-2.847230">
        <ele>1280.4</ele>
        <time>1989-12-30T23:59:59Z</time>
      </trkpt>
      <trkpt lat="38.151188" lon="-2.846880">
        <ele>1298.9</ele>
        <time>1989-12-30T23:59:59Z</time>
      </trkpt>
      <trkpt lat="38.151209" lon="-2.846652">
        <ele>1310.6</ele>
        <time>1989-12-30T23:59:59Z</time>
      </trkpt>
      <trkpt lat="38.151206" lon="-2.846466">
        <ele>1315.8</ele>
        <time>1989-12-30T23:59:59Z</time>
      </trkpt>
      <trkpt lat="38.151111" lon="-2.846330">
        <ele>1332.0</ele>
        <time>1989-12-30T23:59:59Z</time>
      </trkpt>
      <trkpt lat="38.151172" lon="-2.846223">
        <ele>1335.9</ele>
        <time>1989-12-30T23:59:59Z</time>
      </trkpt>
      <trkpt lat="38.151248" lon="-2.846136">
        <ele>1339.3</ele>
        <time>1989-12-30T23:59:59Z</time>
      </trkpt>
      <trkpt lat="38.151296" lon="-2.846037">
        <ele>1340.7</ele>
        <time>1989-12-30T23:59:59Z</time>
      </trkpt>
      <trkpt lat="38.151195" lon="-2.846009">
        <ele>1341.7</ele>
        <time>1989-12-30T23:59:59Z</time>
      </trkpt>
      <trkpt lat="38.151146" lon="-2.846002">
        <ele>1336.4</ele>
        <time>1989-12-30T23:59:59Z</time>
      </trkpt>
      <trkpt lat="38.151047" lon="-2.846022">
        <ele>1335.4</ele>
        <time>1989-12-30T23:59:59Z</time>
      </trkpt>
      <trkpt lat="38.150948" lon="-2.846051">
        <ele>1335.9</ele>
        <time>1989-12-30T23:59:59Z</time>
      </trkpt>
      <trkpt lat="38.150852" lon="-2.846071">
        <ele>1337.3</ele>
        <time>1989-12-30T23:59:59Z</time>
      </trkpt>
      <trkpt lat="38.150736" lon="-2.846057">
        <ele>1336.9</ele>
        <time>1989-12-30T23:59:59Z</time>
      </trkpt>
      <trkpt lat="38.150642" lon="-2.846036">
        <ele>1336.9</ele>
        <time>1989-12-30T23:59:59Z</time>
      </trkpt>
      <trkpt lat="38.150546" lon="-2.845953">
        <ele>1337.3</ele>
        <time>1989-12-30T23:59:59Z</time>
      </trkpt>
      <trkpt lat="38.150471" lon="-2.845872">
        <ele>1337.3</ele>
        <time>1989-12-30T23:59:59Z</time>
      </trkpt>
      <trkpt lat="38.150378" lon="-2.845794">
        <ele>1337.3</ele>
        <time>1989-12-30T23:59:59Z</time>
      </trkpt>
      <trkpt lat="38.150290" lon="-2.845752">
        <ele>1337.8</ele>
        <time>1989-12-30T23:59:59Z</time>
      </trkpt>
      <trkpt lat="38.150176" lon="-2.845720">
        <ele>1341.2</ele>
        <time>1989-12-30T23:59:59Z</time>
      </trkpt>
      <trkpt lat="38.150076" lon="-2.845682">
        <ele>1341.2</ele>
        <time>1989-12-30T23:59:59Z</time>
      </trkpt>
      <trkpt lat="38.149974" lon="-2.845656">
        <ele>1342.1</ele>
        <time>1989-12-30T23:59:59Z</time>
      </trkpt>
      <trkpt lat="38.149881" lon="-2.845646">
        <ele>1342.1</ele>
        <time>1989-12-30T23:59:59Z</time>
      </trkpt>
      <trkpt lat="38.149764" lon="-2.845642">
        <ele>1342.1</ele>
        <time>1989-12-30T23:59:59Z</time>
      </trkpt>
      <trkpt lat="38.149670" lon="-2.845639">
        <ele>1342.6</ele>
        <time>1989-12-30T23:59:59Z</time>
      </trkpt>
      <trkpt lat="38.149572" lon="-2.845632">
        <ele>1342.6</ele>
        <time>1989-12-30T23:59:59Z</time>
      </trkpt>
      <trkpt lat="38.149463" lon="-2.845639">
        <ele>1343.1</ele>
        <time>1989-12-30T23:59:59Z</time>
      </trkpt>
      <trkpt lat="38.149357" lon="-2.845660">
        <ele>1343.6</ele>
        <time>1989-12-30T23:59:59Z</time>
      </trkpt>
      <trkpt lat="38.149242" lon="-2.845696">
        <ele>1344.5</ele>
        <time>1989-12-30T23:59:59Z</time>
      </trkpt>
      <trkpt lat="38.149129" lon="-2.845729">
        <ele>1345.5</ele>
        <time>1989-12-30T23:59:59Z</time>
      </trkpt>
      <trkpt lat="38.149018" lon="-2.845762">
        <ele>1346.0</ele>
        <time>1989-12-30T23:59:59Z</time>
      </trkpt>
      <trkpt lat="38.148905" lon="-2.845785">
        <ele>1346.5</ele>
        <time>1989-12-30T23:59:59Z</time>
      </trkpt>
      <trkpt lat="38.148784" lon="-2.845761">
        <ele>1347.4</ele>
        <time>1989-12-30T23:59:59Z</time>
      </trkpt>
      <trkpt lat="38.148695" lon="-2.845725">
        <ele>1348.4</ele>
        <time>1989-12-30T23:59:59Z</time>
      </trkpt>
      <trkpt lat="38.148592" lon="-2.845683">
        <ele>1348.4</ele>
        <time>1989-12-30T23:59:59Z</time>
      </trkpt>
      <trkpt lat="38.148499" lon="-2.845683">
        <ele>1349.3</ele>
        <time>1989-12-30T23:59:59Z</time>
      </trkpt>
      <trkpt lat="38.148441" lon="-2.845760">
        <ele>1349.8</ele>
        <time>1989-12-30T23:59:59Z</time>
      </trkpt>
      <trkpt lat="38.148462" lon="-2.845881">
        <ele>1349.3</ele>
        <time>1989-12-30T23:59:59Z</time>
      </trkpt>
      <trkpt lat="38.148541" lon="-2.845966">
        <ele>1349.3</ele>
        <time>1989-12-30T23:59:59Z</time>
      </trkpt>
      <trkpt lat="38.148630" lon="-2.846048">
        <ele>1350.3</ele>
        <time>1989-12-30T23:59:59Z</time>
      </trkpt>
      <trkpt lat="38.148722" lon="-2.846130">
        <ele>1350.8</ele>
        <time>1989-12-30T23:59:59Z</time>
      </trkpt>
      <trkpt lat="38.148912" lon="-2.846292">
        <ele>1352.2</ele>
        <time>1989-12-30T23:59:59Z</time>
      </trkpt>
      <trkpt lat="38.149013" lon="-2.846380">
        <ele>1352.7</ele>
        <time>1989-12-30T23:59:59Z</time>
      </trkpt>
      <trkpt lat="38.149092" lon="-2.846446">
        <ele>1354.2</ele>
        <time>1989-12-30T23:59:59Z</time>
      </trkpt>
      <trkpt lat="38.149174" lon="-2.846510">
        <ele>1354.6</ele>
        <time>1989-12-30T23:59:59Z</time>
      </trkpt>
      <trkpt lat="38.149265" lon="-2.846577">
        <ele>1356.1</ele>
        <time>1989-12-30T23:59:59Z</time>
      </trkpt>
      <trkpt lat="38.149353" lon="-2.846638">
        <ele>1357.0</ele>
        <time>1989-12-30T23:59:59Z</time>
      </trkpt>
      <trkpt lat="38.149421" lon="-2.846724">
        <ele>1358.5</ele>
        <time>1989-12-30T23:59:59Z</time>
      </trkpt>
      <trkpt lat="38.149450" lon="-2.846838">
        <ele>1359.9</ele>
        <time>1989-12-30T23:59:59Z</time>
      </trkpt>
      <trkpt lat="38.149388" lon="-2.846958">
        <ele>1360.4</ele>
        <time>1989-12-30T23:59:59Z</time>
      </trkpt>
      <trkpt lat="38.149302" lon="-2.847009">
        <ele>1361.4</ele>
        <time>1989-12-30T23:59:59Z</time>
      </trkpt>
      <trkpt lat="38.149205" lon="-2.847044">
        <ele>1363.3</ele>
        <time>1989-12-30T23:59:59Z</time>
      </trkpt>
      <trkpt lat="38.149104" lon="-2.847070">
        <ele>1364.7</ele>
        <time>1989-12-30T23:59:59Z</time>
      </trkpt>
      <trkpt lat="38.149008" lon="-2.847084">
        <ele>1365.2</ele>
        <time>1989-12-30T23:59:59Z</time>
      </trkpt>
      <trkpt lat="38.148900" lon="-2.847062">
        <ele>1366.7</ele>
        <time>1989-12-30T23:59:59Z</time>
      </trkpt>
      <trkpt lat="38.148797" lon="-2.846989">
        <ele>1363.8</ele>
        <time>1989-12-30T23:59:59Z</time>
      </trkpt>
      <trkpt lat="38.148707" lon="-2.846918">
        <ele>1363.3</ele>
        <time>1989-12-30T23:59:59Z</time>
      </trkpt>
      <trkpt lat="38.148424" lon="-2.846647">
        <ele>1363.8</ele>
        <time>1989-12-30T23:59:59Z</time>
      </trkpt>
      <trkpt lat="38.148269" lon="-2.846713">
        <ele>1363.8</ele>
        <time>1989-12-30T23:59:59Z</time>
      </trkpt>
      <trkpt lat="38.148329" lon="-2.847170">
        <ele>1363.8</ele>
        <time>1989-12-30T23:59:59Z</time>
      </trkpt>
      <trkpt lat="38.148245" lon="-2.847616">
        <ele>1363.8</ele>
        <time>1989-12-30T23:59:59Z</time>
      </trkpt>
      <trkpt lat="38.148431" lon="-2.848070">
        <ele>1410.4</ele>
        <time>1989-12-30T23:59:59Z</time>
      </trkpt>
      <trkpt lat="38.148426" lon="-2.848268">
        <ele>1394.5</ele>
        <time>1989-12-30T23:59:59Z</time>
      </trkpt>
      <trkpt lat="38.148391" lon="-2.848381">
        <ele>1393.6</ele>
        <time>1989-12-30T23:59:59Z</time>
      </trkpt>
      <trkpt lat="38.148328" lon="-2.848486">
        <ele>1392.1</ele>
        <time>1989-12-30T23:59:59Z</time>
      </trkpt>
      <trkpt lat="38.148252" lon="-2.848578">
        <ele>1392.1</ele>
        <time>1989-12-30T23:59:59Z</time>
      </trkpt>
      <trkpt lat="38.148172" lon="-2.848666">
        <ele>1393.6</ele>
        <time>1989-12-30T23:59:59Z</time>
      </trkpt>
      <trkpt lat="38.148087" lon="-2.848756">
        <ele>1394.0</ele>
        <time>1989-12-30T23:59:59Z</time>
      </trkpt>
      <trkpt lat="38.148004" lon="-2.848846">
        <ele>1394.0</ele>
        <time>1989-12-30T23:59:59Z</time>
      </trkpt>
      <trkpt lat="38.147928" lon="-2.848931">
        <ele>1394.5</ele>
        <time>1989-12-30T23:59:59Z</time>
      </trkpt>
      <trkpt lat="38.147847" lon="-2.849019">
        <ele>1396.0</ele>
        <time>1989-12-30T23:59:59Z</time>
      </trkpt>
      <trkpt lat="38.147772" lon="-2.849105">
        <ele>1396.9</ele>
        <time>1989-12-30T23:59:59Z</time>
      </trkpt>
      <trkpt lat="38.147686" lon="-2.849191">
        <ele>1396.9</ele>
        <time>1989-12-30T23:59:59Z</time>
      </trkpt>
      <trkpt lat="38.147586" lon="-2.849280">
        <ele>1396.5</ele>
        <time>1989-12-30T23:59:59Z</time>
      </trkpt>
      <trkpt lat="38.147502" lon="-2.849337">
        <ele>1395.5</ele>
        <time>1989-12-30T23:59:59Z</time>
      </trkpt>
      <trkpt lat="38.147416" lon="-2.849384">
        <ele>1396.0</ele>
        <time>1989-12-30T23:59:59Z</time>
      </trkpt>
      <trkpt lat="38.147335" lon="-2.849428">
        <ele>1395.5</ele>
        <time>1989-12-30T23:59:59Z</time>
      </trkpt>
      <trkpt lat="38.147241" lon="-2.849479">
        <ele>1396.9</ele>
        <time>1989-12-30T23:59:59Z</time>
      </trkpt>
      <trkpt lat="38.147153" lon="-2.849510">
        <ele>1396.9</ele>
        <time>1989-12-30T23:59:59Z</time>
      </trkpt>
      <trkpt lat="38.147037" lon="-2.849550">
        <ele>1396.9</ele>
        <time>1989-12-30T23:59:59Z</time>
      </trkpt>
      <trkpt lat="38.146922" lon="-2.849585">
        <ele>1396.9</ele>
        <time>1989-12-30T23:59:59Z</time>
      </trkpt>
      <trkpt lat="38.146815" lon="-2.849614">
        <ele>1396.9</ele>
        <time>1989-12-30T23:59:59Z</time>
      </trkpt>
      <trkpt lat="38.146715" lon="-2.849638">
        <ele>1396.9</ele>
        <time>1989-12-30T23:59:59Z</time>
      </trkpt>
      <trkpt lat="38.146615" lon="-2.849644">
        <ele>1397.4</ele>
        <time>1989-12-30T23:59:59Z</time>
      </trkpt>
      <trkpt lat="38.146508" lon="-2.849627">
        <ele>1397.4</ele>
        <time>1989-12-30T23:59:59Z</time>
      </trkpt>
      <trkpt lat="38.146403" lon="-2.849574">
        <ele>1397.4</ele>
        <time>1989-12-30T23:59:59Z</time>
      </trkpt>
      <trkpt lat="38.146312" lon="-2.849503">
        <ele>1397.4</ele>
        <time>1989-12-30T23:59:59Z</time>
      </trkpt>
      <trkpt lat="38.146229" lon="-2.849433">
        <ele>1397.9</ele>
        <time>1989-12-30T23:59:59Z</time>
      </trkpt>
      <trkpt lat="38.146140" lon="-2.849355">
        <ele>1397.9</ele>
        <time>1989-12-30T23:59:59Z</time>
      </trkpt>
      <trkpt lat="38.146050" lon="-2.849268">
        <ele>1397.9</ele>
        <time>1989-12-30T23:59:59Z</time>
      </trkpt>
      <trkpt lat="38.145954" lon="-2.849179">
        <ele>1398.9</ele>
        <time>1989-12-30T23:59:59Z</time>
      </trkpt>
      <trkpt lat="38.145845" lon="-2.849102">
        <ele>1398.4</ele>
        <time>1989-12-30T23:59:59Z</time>
      </trkpt>
      <trkpt lat="38.145729" lon="-2.849031">
        <ele>1398.4</ele>
        <time>1989-12-30T23:59:59Z</time>
      </trkpt>
      <trkpt lat="38.145644" lon="-2.848992">
        <ele>1398.4</ele>
        <time>1989-12-30T23:59:59Z</time>
      </trkpt>
      <trkpt lat="38.145548" lon="-2.848967">
        <ele>1398.4</ele>
        <time>1989-12-30T23:59:59Z</time>
      </trkpt>
      <trkpt lat="38.145453" lon="-2.848972">
        <ele>1398.4</ele>
        <time>1989-12-30T23:59:59Z</time>
      </trkpt>
      <trkpt lat="38.145340" lon="-2.848996">
        <ele>1398.4</ele>
        <time>1989-12-30T23:59:59Z</time>
      </trkpt>
      <trkpt lat="38.145245" lon="-2.849013">
        <ele>1398.9</ele>
        <time>1989-12-30T23:59:59Z</time>
      </trkpt>
      <trkpt lat="38.145139" lon="-2.848994">
        <ele>1398.4</ele>
        <time>1989-12-30T23:59:59Z</time>
      </trkpt>
      <trkpt lat="38.145032" lon="-2.848947">
        <ele>1398.9</ele>
        <time>1989-12-30T23:59:59Z</time>
      </trkpt>
      <trkpt lat="38.145088" lon="-2.848805">
        <ele>1401.3</ele>
        <time>1989-12-30T23:59:59Z</time>
      </trkpt>
      <trkpt lat="38.145184" lon="-2.848728">
        <ele>1403.7</ele>
        <time>1989-12-30T23:59:59Z</time>
      </trkpt>
      <trkpt lat="38.145212" lon="-2.848587">
        <ele>1403.2</ele>
        <time>1989-12-30T23:59:59Z</time>
      </trkpt>
      <trkpt lat="38.145131" lon="-2.848530">
        <ele>1403.2</ele>
        <time>1989-12-30T23:59:59Z</time>
      </trkpt>
      <trkpt lat="38.145039" lon="-2.848486">
        <ele>1404.6</ele>
        <time>1989-12-30T23:59:59Z</time>
      </trkpt>
      <trkpt lat="38.144946" lon="-2.848502">
        <ele>1406.1</ele>
        <time>1989-12-30T23:59:59Z</time>
      </trkpt>
      <trkpt lat="38.144847" lon="-2.848529">
        <ele>1407.0</ele>
        <time>1989-12-30T23:59:59Z</time>
      </trkpt>
      <trkpt lat="38.144738" lon="-2.848550">
        <ele>1408.0</ele>
        <time>1989-12-30T23:59:59Z</time>
      </trkpt>
      <trkpt lat="38.144630" lon="-2.848563">
        <ele>1409.4</ele>
        <time>1989-12-30T23:59:59Z</time>
      </trkpt>
      <trkpt lat="38.144523" lon="-2.848565">
        <ele>1410.4</ele>
        <time>1989-12-30T23:59:59Z</time>
      </trkpt>
      <trkpt lat="38.144415" lon="-2.848562">
        <ele>1411.4</ele>
        <time>1989-12-30T23:59:59Z</time>
      </trkpt>
      <trkpt lat="38.144305" lon="-2.848553">
        <ele>1412.8</ele>
        <time>1989-12-30T23:59:59Z</time>
      </trkpt>
      <trkpt lat="38.144192" lon="-2.848537">
        <ele>1413.8</ele>
        <time>1989-12-30T23:59:59Z</time>
      </trkpt>
      <trkpt lat="38.144077" lon="-2.848505">
        <ele>1414.7</ele>
        <time>1989-12-30T23:59:59Z</time>
      </trkpt>
      <trkpt lat="38.143973" lon="-2.848500">
        <ele>1415.7</ele>
        <time>1989-12-30T23:59:59Z</time>
      </trkpt>
      <trkpt lat="38.143875" lon="-2.848553">
        <ele>1417.1</ele>
        <time>1989-12-30T23:59:59Z</time>
      </trkpt>
      <trkpt lat="38.143794" lon="-2.848657">
        <ele>1419.0</ele>
        <time>1989-12-30T23:59:59Z</time>
      </trkpt>
      <trkpt lat="38.143719" lon="-2.848762">
        <ele>1421.0</ele>
        <time>1989-12-30T23:59:59Z</time>
      </trkpt>
      <trkpt lat="38.143648" lon="-2.848864">
        <ele>1422.4</ele>
        <time>1989-12-30T23:59:59Z</time>
      </trkpt>
      <trkpt lat="38.143577" lon="-2.848966">
        <ele>1423.4</ele>
        <time>1989-12-30T23:59:59Z</time>
      </trkpt>
      <trkpt lat="38.143501" lon="-2.849068">
        <ele>1423.8</ele>
        <time>1989-12-30T23:59:59Z</time>
      </trkpt>
      <trkpt lat="38.143449" lon="-2.849184">
        <ele>1423.8</ele>
        <time>1989-12-30T23:59:59Z</time>
      </trkpt>
      <trkpt lat="38.143457" lon="-2.849310">
        <ele>1424.3</ele>
        <time>1989-12-30T23:59:59Z</time>
      </trkpt>
      <trkpt lat="38.143500" lon="-2.849424">
        <ele>1425.3</ele>
        <time>1989-12-30T23:59:59Z</time>
      </trkpt>
      <trkpt lat="38.143536" lon="-2.849532">
        <ele>1426.3</ele>
        <time>1989-12-30T23:59:59Z</time>
      </trkpt>
      <trkpt lat="38.143525" lon="-2.849648">
        <ele>1427.7</ele>
        <time>1989-12-30T23:59:59Z</time>
      </trkpt>
      <trkpt lat="38.143437" lon="-2.849745">
        <ele>1428.7</ele>
        <time>1989-12-30T23:59:59Z</time>
      </trkpt>
      <trkpt lat="38.143337" lon="-2.849807">
        <ele>1429.6</ele>
        <time>1989-12-30T23:59:59Z</time>
      </trkpt>
      <trkpt lat="38.143252" lon="-2.849851">
        <ele>1431.1</ele>
        <time>1989-12-30T23:59:59Z</time>
      </trkpt>
      <trkpt lat="38.143162" lon="-2.849882">
        <ele>1432.0</ele>
        <time>1989-12-30T23:59:59Z</time>
      </trkpt>
      <trkpt lat="38.143071" lon="-2.849902">
        <ele>1432.5</ele>
        <time>1989-12-30T23:59:59Z</time>
      </trkpt>
      <trkpt lat="38.142982" lon="-2.849923">
        <ele>1433.0</ele>
        <time>1989-12-30T23:59:59Z</time>
      </trkpt>
      <trkpt lat="38.142890" lon="-2.850010">
        <ele>1433.5</ele>
        <time>1989-12-30T23:59:59Z</time>
      </trkpt>
      <trkpt lat="38.142854" lon="-2.850122">
        <ele>1434.9</ele>
        <time>1989-12-30T23:59:59Z</time>
      </trkpt>
      <trkpt lat="38.142814" lon="-2.850226">
        <ele>1435.9</ele>
        <time>1989-12-30T23:59:59Z</time>
      </trkpt>
      <trkpt lat="38.142723" lon="-2.850318">
        <ele>1437.3</ele>
        <time>1989-12-30T23:59:59Z</time>
      </trkpt>
      <trkpt lat="38.142611" lon="-2.850348">
        <ele>1438.3</ele>
        <time>1989-12-30T23:59:59Z</time>
      </trkpt>
      <trkpt lat="38.142491" lon="-2.850363">
        <ele>1439.2</ele>
        <time>1989-12-30T23:59:59Z</time>
      </trkpt>
      <trkpt lat="38.142398" lon="-2.850361">
        <ele>1440.2</ele>
        <time>1989-12-30T23:59:59Z</time>
      </trkpt>
      <trkpt lat="38.142309" lon="-2.850352">
        <ele>1440.7</ele>
        <time>1989-12-30T23:59:59Z</time>
      </trkpt>
      <trkpt lat="38.142197" lon="-2.850348">
        <ele>1441.6</ele>
        <time>1989-12-30T23:59:59Z</time>
      </trkpt>
      <trkpt lat="38.142097" lon="-2.850391">
        <ele>1442.1</ele>
        <time>1989-12-30T23:59:59Z</time>
      </trkpt>
      <trkpt lat="38.142032" lon="-2.850480">
        <ele>1443.6</ele>
        <time>1989-12-30T23:59:59Z</time>
      </trkpt>
      <trkpt lat="38.141957" lon="-2.850533">
        <ele>1444.5</ele>
        <time>1989-12-30T23:59:59Z</time>
      </trkpt>
      <trkpt lat="38.141851" lon="-2.850520">
        <ele>1445.5</ele>
        <time>1989-12-30T23:59:59Z</time>
      </trkpt>
      <trkpt lat="38.141748" lon="-2.850504">
        <ele>1446.9</ele>
        <time>1989-12-30T23:59:59Z</time>
      </trkpt>
      <trkpt lat="38.141643" lon="-2.850528">
        <ele>1446.9</ele>
        <time>1989-12-30T23:59:59Z</time>
      </trkpt>
      <trkpt lat="38.141566" lon="-2.850548">
        <ele>1446.9</ele>
        <time>1989-12-30T23:59:59Z</time>
      </trkpt>
      <trkpt lat="38.141461" lon="-2.850571">
        <ele>1448.4</ele>
        <time>1989-12-30T23:59:59Z</time>
      </trkpt>
      <trkpt lat="38.141344" lon="-2.850570">
        <ele>1446.0</ele>
        <time>1989-12-30T23:59:59Z</time>
      </trkpt>
      <trkpt lat="38.141251" lon="-2.850638">
        <ele>1446.4</ele>
        <time>1989-12-30T23:59:59Z</time>
      </trkpt>
      <trkpt lat="38.141205" lon="-2.850757">
        <ele>1447.4</ele>
        <time>1989-12-30T23:59:59Z</time>
      </trkpt>
      <trkpt lat="38.141150" lon="-2.850856">
        <ele>1448.8</ele>
        <time>1989-12-30T23:59:59Z</time>
      </trkpt>
      <trkpt lat="38.141075" lon="-2.850935">
        <ele>1450.8</ele>
        <time>1989-12-30T23:59:59Z</time>
      </trkpt>
      <trkpt lat="38.141020" lon="-2.851031">
        <ele>1452.2</ele>
        <time>1989-12-30T23:59:59Z</time>
      </trkpt>
      <trkpt lat="38.140999" lon="-2.851152">
        <ele>1446.4</ele>
        <time>1989-12-30T23:59:59Z</time>
      </trkpt>
      <trkpt lat="38.141051" lon="-2.851271">
        <ele>1446.0</ele>
        <time>1989-12-30T23:59:59Z</time>
      </trkpt>
      <trkpt lat="38.141228" lon="-2.851488">
        <ele>1446.0</ele>
        <time>1989-12-30T23:59:59Z</time>
      </trkpt>
      <trkpt lat="38.141314" lon="-2.851564">
        <ele>1446.0</ele>
        <time>1989-12-30T23:59:59Z</time>
      </trkpt>
      <trkpt lat="38.141406" lon="-2.851629">
        <ele>1446.4</ele>
        <time>1989-12-30T23:59:59Z</time>
      </trkpt>
      <trkpt lat="38.141493" lon="-2.851688">
        <ele>1447.9</ele>
        <time>1989-12-30T23:59:59Z</time>
      </trkpt>
      <trkpt lat="38.141564" lon="-2.851774">
        <ele>1448.4</ele>
        <time>1989-12-30T23:59:59Z</time>
      </trkpt>
      <trkpt lat="38.141620" lon="-2.851866">
        <ele>1449.8</ele>
        <time>1989-12-30T23:59:59Z</time>
      </trkpt>
      <trkpt lat="38.141681" lon="-2.851959">
        <ele>1451.2</ele>
        <time>1989-12-30T23:59:59Z</time>
      </trkpt>
      <trkpt lat="38.141737" lon="-2.852052">
        <ele>1453.7</ele>
        <time>1989-12-30T23:59:59Z</time>
      </trkpt>
      <trkpt lat="38.141799" lon="-2.852182">
        <ele>1455.6</ele>
        <time>1989-12-30T23:59:59Z</time>
      </trkpt>
      <trkpt lat="38.141833" lon="-2.852297">
        <ele>1457.0</ele>
        <time>1989-12-30T23:59:59Z</time>
      </trkpt>
      <trkpt lat="38.141846" lon="-2.852361">
        <ele>1462.8</ele>
        <time>1989-12-30T23:59:59Z</time>
      </trkpt>
      <trkpt lat="38.141742" lon="-2.852434">
        <ele>1463.7</ele>
        <time>1989-12-30T23:59:59Z</time>
      </trkpt>
      <trkpt lat="38.141635" lon="-2.852462">
        <ele>1463.3</ele>
        <time>1989-12-30T23:59:59Z</time>
      </trkpt>
      <trkpt lat="38.141530" lon="-2.852464">
        <ele>1464.7</ele>
        <time>1989-12-30T23:59:59Z</time>
      </trkpt>
      <trkpt lat="38.141413" lon="-2.852441">
        <ele>1465.7</ele>
        <time>1989-12-30T23:59:59Z</time>
      </trkpt>
      <trkpt lat="38.141173" lon="-2.852423">
        <ele>1467.1</ele>
        <time>1989-12-30T23:59:59Z</time>
      </trkpt>
      <trkpt lat="38.141119" lon="-2.852515">
        <ele>1467.1</ele>
        <time>1989-12-30T23:59:59Z</time>
      </trkpt>
      <trkpt lat="38.141091" lon="-2.852633">
        <ele>1468.1</ele>
        <time>1989-12-30T23:59:59Z</time>
      </trkpt>
      <trkpt lat="38.141046" lon="-2.852746">
        <ele>1468.1</ele>
        <time>1989-12-30T23:59:59Z</time>
      </trkpt>
      <trkpt lat="38.140991" lon="-2.852840">
        <ele>1470.5</ele>
        <time>1989-12-30T23:59:59Z</time>
      </trkpt>
      <trkpt lat="38.140731" lon="-2.853085">
        <ele>1471.4</ele>
        <time>1989-12-30T23:59:59Z</time>
      </trkpt>
      <trkpt lat="38.140631" lon="-2.853106">
        <ele>1471.9</ele>
        <time>1989-12-30T23:59:59Z</time>
      </trkpt>
      <trkpt lat="38.140531" lon="-2.853124">
        <ele>1469.5</ele>
        <time>1989-12-30T23:59:59Z</time>
      </trkpt>
      <trkpt lat="38.140447" lon="-2.853207">
        <ele>1470.0</ele>
        <time>1989-12-30T23:59:59Z</time>
      </trkpt>
      <trkpt lat="38.140361" lon="-2.853264">
        <ele>1470.0</ele>
        <time>1989-12-30T23:59:59Z</time>
      </trkpt>
      <trkpt lat="38.140111" lon="-2.853142">
        <ele>1463.7</ele>
        <time>2009-03-11T08:53:04Z</time>
      </trkpt>
      <trkpt lat="38.139983" lon="-2.853182">
        <ele>1465.2</ele>
        <time>2009-03-11T08:53:06Z</time>
      </trkpt>
      <trkpt lat="38.139939" lon="-2.853402">
        <ele>1470.0</ele>
        <time>2009-03-11T08:53:08Z</time>
      </trkpt>
      <trkpt lat="38.140016" lon="-2.853558">
        <ele>1460.4</ele>
        <time>2009-03-11T08:53:10Z</time>
      </trkpt>
      <trkpt lat="38.139719" lon="-2.853772">
        <ele>1471.9</ele>
        <time>2009-03-11T08:53:12Z</time>
      </trkpt>
      <trkpt lat="38.139826" lon="-2.854069">
        <ele>1460.8</ele>
        <time>2009-03-11T08:53:13Z</time>
      </trkpt>
      <trkpt lat="38.139668" lon="-2.854166">
        <ele>1483.0</ele>
        <time>2009-03-11T08:53:14Z</time>
      </trkpt>
      <trkpt lat="38.139454" lon="-2.854215">
        <ele>1483.9</ele>
        <time>2009-03-11T08:53:15Z</time>
      </trkpt>
      <trkpt lat="38.139369" lon="-2.854501">
        <ele>1467.8</ele>
        <time>2009-03-11T08:53:16Z</time>
      </trkpt>
      <trkpt lat="38.139274" lon="-2.854756">
        <ele>1468.2</ele>
        <time>2009-03-11T08:53:18Z</time>
      </trkpt>
      <trkpt lat="38.139099" lon="-2.854846">
        <ele>1483.9</ele>
        <time>2009-03-11T08:53:21Z</time>
      </trkpt>
      <trkpt lat="38.138791" lon="-2.855204">
        <ele>1484.9</ele>
        <time>2009-03-11T08:53:23Z</time>
      </trkpt>
      <trkpt lat="38.138553" lon="-2.855201">
        <ele>1483.8</ele>
        <time>2009-03-11T08:53:25Z</time>
      </trkpt>
      <trkpt lat="38.138410" lon="-2.855552">
        <ele>1486.3</ele>
        <time>2009-03-11T08:53:27Z</time>
      </trkpt>
      <trkpt lat="38.138364" lon="-2.855665">
        <ele>1487.8</ele>
        <time>2009-03-11T08:53:28Z</time>
      </trkpt>
      <trkpt lat="38.138512" lon="-2.855873">
        <ele>1487.9</ele>
        <time>2009-03-11T08:53:32Z</time>
      </trkpt>
      <trkpt lat="38.138448" lon="-2.856089">
        <ele>1491.0</ele>
        <time>2009-03-11T08:53:35Z</time>
      </trkpt>
      <trkpt lat="38.138350" lon="-2.856088">
        <ele>1493.5</ele>
        <time>2009-03-11T08:53:37Z</time>
      </trkpt>
      <trkpt lat="38.138352" lon="-2.856083">
        <ele>1496.5</ele>
        <time>2009-03-11T08:53:38Z</time>
      </trkpt>
      <trkpt lat="38.138262" lon="-2.856254">
        <ele>1506.7</ele>
        <time>2009-03-11T08:53:39Z</time>
      </trkpt>
      <trkpt lat="38.138262" lon="-2.856254">
        <ele>1506.7</ele>
        <time>2009-03-11T08:53:40Z</time>
      </trkpt>
      <trkpt lat="38.138084" lon="-2.856328">
        <ele>1509.4</ele>
        <time>2009-03-11T08:53:43Z</time>
      </trkpt>
      <trkpt lat="38.137909" lon="-2.856403">
        <ele>1511.9</ele>
        <time>2009-03-11T08:53:45Z</time>
      </trkpt>
      <trkpt lat="38.137705" lon="-2.856399">
        <ele>1499.5</ele>
        <time>2009-03-11T08:53:47Z</time>
      </trkpt>
      <trkpt lat="38.137493" lon="-2.856548">
        <ele>1500.4</ele>
        <time>2009-03-11T08:53:49Z</time>
      </trkpt>
      <trkpt lat="38.137531" lon="-2.856768">
        <ele>1520.8</ele>
        <time>2009-03-11T08:53:52Z</time>
      </trkpt>
      <trkpt lat="38.137478" lon="-2.856882">
        <ele>1521.6</ele>
        <time>2009-03-11T08:53:55Z</time>
      </trkpt>
      <trkpt lat="38.137482" lon="-2.856967">
        <ele>1521.2</ele>
        <time>2009-03-11T08:53:59Z</time>
      </trkpt>
      <trkpt lat="38.137487" lon="-2.857052">
        <ele>1520.8</ele>
        <time>2009-03-11T08:54:03Z</time>
      </trkpt>
      <trkpt lat="38.137348" lon="-2.857297">
        <ele>1522.9</ele>
        <time>2009-03-11T08:54:07Z</time>
      </trkpt>
      <trkpt lat="38.137209" lon="-2.857542">
        <ele>1524.0</ele>
        <time>2009-03-11T08:54:09Z</time>
      </trkpt>
      <trkpt lat="38.137056" lon="-2.857674">
        <ele>1524.8</ele>
        <time>2009-03-11T08:54:11Z</time>
      </trkpt>
      <trkpt lat="38.136903" lon="-2.857805">
        <ele>1523.4</ele>
        <time>2009-03-11T08:54:13Z</time>
      </trkpt>
      <trkpt lat="38.136791" lon="-2.857919">
        <ele>1521.7</ele>
        <time>2009-03-11T08:54:14Z</time>
      </trkpt>
      <trkpt lat="38.136678" lon="-2.858033">
        <ele>1519.7</ele>
        <time>2009-03-11T08:54:17Z</time>
      </trkpt>
      <trkpt lat="38.136412" lon="-2.858176">
        <ele>1519.8</ele>
        <time>2009-03-11T08:54:20Z</time>
      </trkpt>
      <trkpt lat="38.136067" lon="-2.858011">
        <ele>1519.1</ele>
        <time>2009-03-11T08:54:24Z</time>
      </trkpt>
      <trkpt lat="38.135937" lon="-2.857915">
        <ele>1521.8</ele>
        <time>2009-03-11T08:54:28Z</time>
      </trkpt>
      <trkpt lat="38.135806" lon="-2.857818">
        <ele>1525.4</ele>
        <time>2009-03-11T08:54:31Z</time>
      </trkpt>
      <trkpt lat="38.135725" lon="-2.857836">
        <ele>1525.7</ele>
        <time>2009-03-11T08:54:34Z</time>
      </trkpt>
      <trkpt lat="38.135644" lon="-2.857853">
        <ele>1526.1</ele>
        <time>2009-03-11T08:54:36Z</time>
      </trkpt>
      <trkpt lat="38.135442" lon="-2.857933">
        <ele>1526.3</ele>
        <time>2009-03-11T08:54:38Z</time>
      </trkpt>
      <trkpt lat="38.135240" lon="-2.858013">
        <ele>1528.2</ele>
        <time>2009-03-11T08:54:40Z</time>
      </trkpt>
      <trkpt lat="38.135065" lon="-2.858104">
        <ele>1530.1</ele>
        <time>2009-03-11T08:54:43Z</time>
      </trkpt>
      <trkpt lat="38.134890" lon="-2.858195">
        <ele>1532.0</ele>
        <time>2009-03-11T08:54:44Z</time>
      </trkpt>
      <trkpt lat="38.134652" lon="-2.858338">
        <ele>1534.8</ele>
        <time>2009-03-11T08:54:45Z</time>
      </trkpt>
      <trkpt lat="38.134414" lon="-2.858481">
        <ele>1537.6</ele>
        <time>2009-03-11T08:54:46Z</time>
      </trkpt>
      <trkpt lat="38.134228" lon="-2.858654">
        <ele>1540.7</ele>
        <time>2009-03-11T08:54:46Z</time>
      </trkpt>
      <trkpt lat="38.134104" lon="-2.858863">
        <ele>1538.8</ele>
        <time>2009-03-11T08:54:48Z</time>
      </trkpt>
      <trkpt lat="38.133983" lon="-2.859244">
        <ele>1535.9</ele>
        <time>2009-03-11T08:54:49Z</time>
      </trkpt>
      <trkpt lat="38.133934" lon="-2.859478">
        <ele>1533.5</ele>
        <time>2009-03-11T08:54:50Z</time>
      </trkpt>
      <trkpt lat="38.133885" lon="-2.859711">
        <ele>1531.2</ele>
        <time>2009-03-11T08:54:52Z</time>
      </trkpt>
      <trkpt lat="38.133754" lon="-2.859837">
        <ele>1531.2</ele>
        <time>2009-03-11T08:54:53Z</time>
      </trkpt>
      <trkpt lat="38.133625" lon="-2.859962">
        <ele>1529.8</ele>
        <time>2009-03-11T08:54:54Z</time>
      </trkpt>
      <trkpt lat="38.133364" lon="-2.859951">
        <ele>1528.5</ele>
        <time>2009-03-11T08:54:56Z</time>
      </trkpt>
      <trkpt lat="38.133103" lon="-2.859941">
        <ele>1527.2</ele>
        <time>2009-03-11T08:54:58Z</time>
      </trkpt>
      <trkpt lat="38.132752" lon="-2.859890">
        <ele>1525.6</ele>
        <time>2009-03-11T08:55:01Z</time>
      </trkpt>
      <trkpt lat="38.132401" lon="-2.859839">
        <ele>1523.8</ele>
        <time>2009-03-11T08:55:04Z</time>
      </trkpt>
      <trkpt lat="38.132132" lon="-2.859874">
        <ele>1522.1</ele>
        <time>2009-03-11T08:55:05Z</time>
      </trkpt>
      <trkpt lat="38.131862" lon="-2.859909">
        <ele>1519.5</ele>
        <time>2009-03-11T08:55:06Z</time>
      </trkpt>
      <trkpt lat="38.131682" lon="-2.859943">
        <ele>1517.4</ele>
        <time>2009-03-11T08:55:08Z</time>
      </trkpt>
      <trkpt lat="38.131503" lon="-2.859977">
        <ele>1515.3</ele>
        <time>2009-03-11T08:55:09Z</time>
      </trkpt>
      <trkpt lat="38.131296" lon="-2.859995">
        <ele>1512.9</ele>
        <time>2009-03-11T08:55:10Z</time>
      </trkpt>
      <trkpt lat="38.131089" lon="-2.860012">
        <ele>1511.3</ele>
        <time>2009-03-11T08:55:11Z</time>
      </trkpt>
      <trkpt lat="38.130995" lon="-2.860007">
        <ele>1511.0</ele>
        <time>2009-03-11T08:55:12Z</time>
      </trkpt>
      <trkpt lat="38.130900" lon="-2.860001">
        <ele>1510.6</ele>
        <time>2009-03-11T08:55:14Z</time>
      </trkpt>
      <trkpt lat="38.130838" lon="-2.860041">
        <ele>1509.8</ele>
        <time>2009-03-11T08:55:15Z</time>
      </trkpt>
      <trkpt lat="38.130775" lon="-2.860081">
        <ele>1508.9</ele>
        <time>2009-03-11T08:55:16Z</time>
      </trkpt>
      <trkpt lat="38.130671" lon="-2.860127">
        <ele>1507.6</ele>
        <time>2009-03-11T08:55:17Z</time>
      </trkpt>
      <trkpt lat="38.130568" lon="-2.860173">
        <ele>1506.0</ele>
        <time>2009-03-11T08:55:18Z</time>
      </trkpt>
      <trkpt lat="38.130447" lon="-2.860196">
        <ele>1504.5</ele>
        <time>2009-03-11T08:55:20Z</time>
      </trkpt>
      <trkpt lat="38.130325" lon="-2.860219">
        <ele>1502.8</ele>
        <time>2009-03-11T08:55:21Z</time>
      </trkpt>
      <trkpt lat="38.130217" lon="-2.860247">
        <ele>1501.0</ele>
        <time>2009-03-11T08:55:23Z</time>
      </trkpt>
      <trkpt lat="38.130110" lon="-2.860276">
        <ele>1499.1</ele>
        <time>2009-03-11T08:55:25Z</time>
      </trkpt>
      <trkpt lat="38.129944" lon="-2.860396">
        <ele>1494.2</ele>
        <time>2009-03-11T08:55:26Z</time>
      </trkpt>
      <trkpt lat="38.129777" lon="-2.860515">
        <ele>1491.8</ele>
        <time>2009-03-11T08:55:27Z</time>
      </trkpt>
      <trkpt lat="38.129525" lon="-2.860533">
        <ele>1488.9</ele>
        <time>2009-03-11T08:55:28Z</time>
      </trkpt>
      <trkpt lat="38.129274" lon="-2.860551">
        <ele>1488.0</ele>
        <time>2009-03-11T08:55:29Z</time>
      </trkpt>
      <trkpt lat="38.129175" lon="-2.860534">
        <ele>1487.8</ele>
        <time>2009-03-11T08:55:30Z</time>
      </trkpt>
      <trkpt lat="38.129076" lon="-2.860517">
        <ele>1487.6</ele>
        <time>2009-03-11T08:55:31Z</time>
      </trkpt>
      <trkpt lat="38.128946" lon="-2.860443">
        <ele>1488.0</ele>
        <time>2009-03-11T08:55:33Z</time>
      </trkpt>
      <trkpt lat="38.128815" lon="-2.860369">
        <ele>1489.5</ele>
        <time>2009-03-11T08:55:36Z</time>
      </trkpt>
      <trkpt lat="38.128761" lon="-2.860410">
        <ele>1488.2</ele>
        <time>2009-03-11T08:55:37Z</time>
      </trkpt>
      <trkpt lat="38.128707" lon="-2.860449">
        <ele>1487.5</ele>
        <time>2009-03-11T08:55:39Z</time>
      </trkpt>
      <trkpt lat="38.128627" lon="-2.860581">
        <ele>1485.5</ele>
        <time>2009-03-11T08:55:41Z</time>
      </trkpt>
      <trkpt lat="38.128546" lon="-2.860711">
        <ele>1483.3</ele>
        <time>2009-03-11T08:55:42Z</time>
      </trkpt>
      <trkpt lat="38.128488" lon="-2.860803">
        <ele>1481.7</ele>
        <time>2009-03-11T08:55:43Z</time>
      </trkpt>
      <trkpt lat="38.128429" lon="-2.860894">
        <ele>1479.9</ele>
        <time>2009-03-11T08:55:45Z</time>
      </trkpt>
      <trkpt lat="38.128326" lon="-2.860945">
        <ele>1478.6</ele>
        <time>2009-03-11T08:55:46Z</time>
      </trkpt>
      <trkpt lat="38.128223" lon="-2.860997">
        <ele>1477.1</ele>
        <time>2009-03-11T08:55:48Z</time>
      </trkpt>
      <trkpt lat="38.128074" lon="-2.860968">
        <ele>1477.0</ele>
        <time>2009-03-11T08:55:50Z</time>
      </trkpt>
      <trkpt lat="38.127926" lon="-2.860940">
        <ele>1476.9</ele>
        <time>2009-03-11T08:55:52Z</time>
      </trkpt>
      <trkpt lat="38.127768" lon="-2.860957">
        <ele>1476.7</ele>
        <time>2009-03-11T08:55:54Z</time>
      </trkpt>
      <trkpt lat="38.127612" lon="-2.860975">
        <ele>1476.7</ele>
        <time>2009-03-11T08:55:55Z</time>
      </trkpt>
      <trkpt lat="38.127531" lon="-2.861015">
        <ele>1476.0</ele>
        <time>2009-03-11T08:55:56Z</time>
      </trkpt>
      <trkpt lat="38.127450" lon="-2.861055">
        <ele>1475.2</ele>
        <time>2009-03-11T08:55:57Z</time>
      </trkpt>
      <trkpt lat="38.127369" lon="-2.861129">
        <ele>1473.6</ele>
        <time>2009-03-11T08:55:58Z</time>
      </trkpt>
      <trkpt lat="38.127288" lon="-2.861203">
        <ele>1471.9</ele>
        <time>2009-03-11T08:55:59Z</time>
      </trkpt>
      <trkpt lat="38.127221" lon="-2.861277">
        <ele>1470.3</ele>
        <time>2009-03-11T08:56:00Z</time>
      </trkpt>
      <trkpt lat="38.127153" lon="-2.861351">
        <ele>1469.1</ele>
        <time>2009-03-11T08:56:01Z</time>
      </trkpt>
      <trkpt lat="38.127051" lon="-2.861609">
        <ele>1473.7</ele>
        <time>2009-03-11T08:56:01Z</time>
      </trkpt>
      <trkpt lat="38.126803" lon="-2.861614">
        <ele>1462.1</ele>
        <time>2009-03-11T08:56:02Z</time>
      </trkpt>
      <trkpt lat="38.126645" lon="-2.861716">
        <ele>1458.8</ele>
        <time>2009-03-11T08:56:04Z</time>
      </trkpt>
      <trkpt lat="38.126488" lon="-2.861819">
        <ele>1455.3</ele>
        <time>2009-03-11T08:56:06Z</time>
      </trkpt>
      <trkpt lat="38.126385" lon="-2.861848">
        <ele>1453.8</ele>
        <time>2009-03-11T08:56:09Z</time>
      </trkpt>
      <trkpt lat="38.126282" lon="-2.861877">
        <ele>1452.2</ele>
        <time>2009-03-11T08:56:12Z</time>
      </trkpt>
      <trkpt lat="38.126156" lon="-2.861865">
        <ele>1451.8</ele>
        <time>2009-03-11T08:56:13Z</time>
      </trkpt>
      <trkpt lat="38.126030" lon="-2.861854">
        <ele>1451.7</ele>
        <time>2009-03-11T08:56:15Z</time>
      </trkpt>
      <trkpt lat="38.125899" lon="-2.861860">
        <ele>1451.3</ele>
        <time>2009-03-11T08:56:16Z</time>
      </trkpt>
      <trkpt lat="38.125769" lon="-2.861866">
        <ele>1450.8</ele>
        <time>2009-03-11T08:56:17Z</time>
      </trkpt>
      <trkpt lat="38.125563" lon="-2.861963">
        <ele>1447.4</ele>
        <time>2009-03-11T08:56:19Z</time>
      </trkpt>
      <trkpt lat="38.125356" lon="-2.862061">
        <ele>1443.6</ele>
        <time>2009-03-11T08:56:20Z</time>
      </trkpt>
      <trkpt lat="38.125248" lon="-2.862140">
        <ele>1441.6</ele>
        <time>2009-03-11T08:56:22Z</time>
      </trkpt>
      <trkpt lat="38.125141" lon="-2.862220">
        <ele>1440.0</ele>
        <time>2009-03-11T08:56:24Z</time>
      </trkpt>
      <trkpt lat="38.125046" lon="-2.862271">
        <ele>1438.7</ele>
        <time>2009-03-11T08:56:28Z</time>
      </trkpt>
      <trkpt lat="38.124952" lon="-2.862323">
        <ele>1437.4</ele>
        <time>2009-03-11T08:56:31Z</time>
      </trkpt>
      <trkpt lat="38.124916" lon="-2.862402">
        <ele>1436.0</ele>
        <time>2009-03-11T08:56:32Z</time>
      </trkpt>
      <trkpt lat="38.124880" lon="-2.862482">
        <ele>1434.6</ele>
        <time>2009-03-11T08:56:33Z</time>
      </trkpt>
      <trkpt lat="38.124884" lon="-2.862573">
        <ele>1433.3</ele>
        <time>2009-03-11T08:56:35Z</time>
      </trkpt>
      <trkpt lat="38.124889" lon="-2.862665">
        <ele>1432.0</ele>
        <time>2009-03-11T08:56:36Z</time>
      </trkpt>
      <trkpt lat="38.124939" lon="-2.862693">
        <ele>1431.9</ele>
        <time>2009-03-11T08:56:40Z</time>
      </trkpt>
      <trkpt lat="38.124988" lon="-2.862721">
        <ele>1431.9</ele>
        <time>2009-03-11T08:56:43Z</time>
      </trkpt>
      <trkpt lat="38.125141" lon="-2.862607">
        <ele>1434.8</ele>
        <time>2009-03-11T08:56:45Z</time>
      </trkpt>
      <trkpt lat="38.125293" lon="-2.862493">
        <ele>1437.4</ele>
        <time>2009-03-11T08:56:47Z</time>
      </trkpt>
      <trkpt lat="38.125549" lon="-2.862459">
        <ele>1439.6</ele>
        <time>2009-03-11T08:56:49Z</time>
      </trkpt>
      <trkpt lat="38.125805" lon="-2.862424">
        <ele>1441.7</ele>
        <time>2009-03-11T08:56:50Z</time>
      </trkpt>
      <trkpt lat="38.125950" lon="-2.862435">
        <ele>1442.6</ele>
        <time>2009-03-11T08:56:52Z</time>
      </trkpt>
      <trkpt lat="38.126094" lon="-2.862446">
        <ele>1443.5</ele>
        <time>2009-03-11T08:56:54Z</time>
      </trkpt>
      <trkpt lat="38.126192" lon="-2.862537">
        <ele>1443.5</ele>
        <time>2009-03-11T08:56:55Z</time>
      </trkpt>
      <trkpt lat="38.126292" lon="-2.862628">
        <ele>1444.0</ele>
        <time>2009-03-11T08:56:57Z</time>
      </trkpt>
      <trkpt lat="38.126305" lon="-2.862776">
        <ele>1443.1</ele>
        <time>2009-03-11T08:57:00Z</time>
      </trkpt>
      <trkpt lat="38.126319" lon="-2.862924">
        <ele>1442.4</ele>
        <time>2009-03-11T08:57:03Z</time>
      </trkpt>
      <trkpt lat="38.126216" lon="-2.863140">
        <ele>1441.2</ele>
        <time>2009-03-11T08:57:05Z</time>
      </trkpt>
      <trkpt lat="38.126113" lon="-2.863356">
        <ele>1440.3</ele>
        <time>2009-03-11T08:57:07Z</time>
      </trkpt>
      <trkpt lat="38.126131" lon="-2.863709">
        <ele>1440.8</ele>
        <time>2009-03-11T08:57:09Z</time>
      </trkpt>
      <trkpt lat="38.126149" lon="-2.864062">
        <ele>1442.3</ele>
        <time>2009-03-11T08:57:10Z</time>
      </trkpt>
      <trkpt lat="38.126221" lon="-2.864193">
        <ele>1443.6</ele>
        <time>2009-03-11T08:57:11Z</time>
      </trkpt>
      <trkpt lat="38.126293" lon="-2.864323">
        <ele>1444.6</ele>
        <time>2009-03-11T08:57:13Z</time>
      </trkpt>
      <trkpt lat="38.126226" lon="-2.864514">
        <ele>1454.0</ele>
        <time>2009-03-11T08:57:14Z</time>
      </trkpt>
      <trkpt lat="38.126215" lon="-2.864742">
        <ele>1454.7</ele>
        <time>2009-03-11T08:57:15Z</time>
      </trkpt>
      <trkpt lat="38.126114" lon="-2.864961">
        <ele>1446.5</ele>
        <time>2009-03-11T08:57:16Z</time>
      </trkpt>
      <trkpt lat="38.125908" lon="-2.865269">
        <ele>1446.0</ele>
        <time>2009-03-11T08:57:17Z</time>
      </trkpt>
      <trkpt lat="38.125769" lon="-2.865400">
        <ele>1444.9</ele>
        <time>2009-03-11T08:57:18Z</time>
      </trkpt>
      <trkpt lat="38.125629" lon="-2.865531">
        <ele>1442.6</ele>
        <time>2009-03-11T08:57:19Z</time>
      </trkpt>
      <trkpt lat="38.125540" lon="-2.865662">
        <ele>1440.8</ele>
        <time>2009-03-11T08:57:20Z</time>
      </trkpt>
      <trkpt lat="38.125450" lon="-2.865793">
        <ele>1439.3</ele>
        <time>2009-03-11T08:57:22Z</time>
      </trkpt>
      <trkpt lat="38.125432" lon="-2.865975">
        <ele>1438.4</ele>
        <time>2009-03-11T08:57:23Z</time>
      </trkpt>
      <trkpt lat="38.125414" lon="-2.866157">
        <ele>1437.5</ele>
        <time>2009-03-11T08:57:24Z</time>
      </trkpt>
      <trkpt lat="38.125491" lon="-2.866351">
        <ele>1436.7</ele>
        <time>2009-03-11T08:57:26Z</time>
      </trkpt>
      <trkpt lat="38.125568" lon="-2.866544">
        <ele>1435.1</ele>
        <time>2009-03-11T08:57:27Z</time>
      </trkpt>
      <trkpt lat="38.125577" lon="-2.866851">
        <ele>1431.7</ele>
        <time>2009-03-11T08:57:29Z</time>
      </trkpt>
      <trkpt lat="38.125586" lon="-2.867159">
        <ele>1427.6</ele>
        <time>2009-03-11T08:57:30Z</time>
      </trkpt>
      <trkpt lat="38.125528" lon="-2.867420">
        <ele>1423.6</ele>
        <time>2009-03-11T08:57:32Z</time>
      </trkpt>
      <trkpt lat="38.125470" lon="-2.867682">
        <ele>1420.7</ele>
        <time>2009-03-11T08:57:33Z</time>
      </trkpt>
      <trkpt lat="38.125389" lon="-2.867796">
        <ele>1421.4</ele>
        <time>2009-03-11T08:57:35Z</time>
      </trkpt>
      <trkpt lat="38.125309" lon="-2.867910">
        <ele>1419.9</ele>
        <time>2009-03-11T08:57:38Z</time>
      </trkpt>
      <trkpt lat="38.125205" lon="-2.867956">
        <ele>1418.2</ele>
        <time>2009-03-11T08:57:40Z</time>
      </trkpt>
      <trkpt lat="38.125102" lon="-2.868001">
        <ele>1416.4</ele>
        <time>2009-03-11T08:57:42Z</time>
      </trkpt>
      <trkpt lat="38.125039" lon="-2.867905">
        <ele>1419.3</ele>
        <time>2009-03-11T08:57:43Z</time>
      </trkpt>
      <trkpt lat="38.124976" lon="-2.867808">
        <ele>1420.6</ele>
        <time>2009-03-11T08:57:44Z</time>
      </trkpt>
      <trkpt lat="38.125016" lon="-2.867723">
        <ele>1421.8</ele>
        <time>2009-03-11T08:57:46Z</time>
      </trkpt>
      <trkpt lat="38.125057" lon="-2.867637">
        <ele>1423.1</ele>
        <time>2009-03-11T08:57:48Z</time>
      </trkpt>
      <trkpt lat="38.125034" lon="-2.867518">
        <ele>1424.7</ele>
        <time>2009-03-11T08:57:49Z</time>
      </trkpt>
      <trkpt lat="38.125011" lon="-2.867398">
        <ele>1426.4</ele>
        <time>2009-03-11T08:57:50Z</time>
      </trkpt>
      <trkpt lat="38.124899" lon="-2.867518">
        <ele>1424.7</ele>
        <time>2009-03-11T08:57:51Z</time>
      </trkpt>
      <trkpt lat="38.124787" lon="-2.867638">
        <ele>1422.9</ele>
        <time>2009-03-11T08:57:52Z</time>
      </trkpt>
      <trkpt lat="38.124702" lon="-2.867695">
        <ele>1421.9</ele>
        <time>2009-03-11T08:57:53Z</time>
      </trkpt>
      <trkpt lat="38.124616" lon="-2.867752">
        <ele>1420.9</ele>
        <time>2009-03-11T08:57:54Z</time>
      </trkpt>
      <trkpt lat="38.124486" lon="-2.867832">
        <ele>1420.0</ele>
        <time>2009-03-11T08:57:55Z</time>
      </trkpt>
      <trkpt lat="38.124355" lon="-2.867912">
        <ele>1420.0</ele>
        <time>2009-03-11T08:57:56Z</time>
      </trkpt>
      <trkpt lat="38.124261" lon="-2.867991">
        <ele>1419.0</ele>
        <time>2009-03-11T08:57:58Z</time>
      </trkpt>
      <trkpt lat="38.124167" lon="-2.868071">
        <ele>1418.3</ele>
        <time>2009-03-11T08:57:59Z</time>
      </trkpt>
      <trkpt lat="38.124077" lon="-2.868237">
        <ele>1416.1</ele>
        <time>2009-03-11T08:58:01Z</time>
      </trkpt>
      <trkpt lat="38.123988" lon="-2.868401">
        <ele>1414.4</ele>
        <time>2009-03-11T08:58:02Z</time>
      </trkpt>
      <trkpt lat="38.123880" lon="-2.868612">
        <ele>1413.1</ele>
        <time>2009-03-11T08:58:03Z</time>
      </trkpt>
      <trkpt lat="38.123772" lon="-2.868823">
        <ele>1412.6</ele>
        <time>2009-03-11T08:58:04Z</time>
      </trkpt>
      <trkpt lat="38.123606" lon="-2.868892">
        <ele>1414.2</ele>
        <time>2009-03-11T08:58:05Z</time>
      </trkpt>
      <trkpt lat="38.123440" lon="-2.868960">
        <ele>1415.3</ele>
        <time>2009-03-11T08:58:06Z</time>
      </trkpt>
      <trkpt lat="38.123336" lon="-2.868938">
        <ele>1416.5</ele>
        <time>2009-03-11T08:58:07Z</time>
      </trkpt>
      <trkpt lat="38.123233" lon="-2.868915">
        <ele>1417.7</ele>
        <time>2009-03-11T08:58:09Z</time>
      </trkpt>
      <trkpt lat="38.123112" lon="-2.869063">
        <ele>1418.6</ele>
        <time>2009-03-11T08:58:11Z</time>
      </trkpt>
      <trkpt lat="38.122991" lon="-2.869211">
        <ele>1420.0</ele>
        <time>2009-03-11T08:58:13Z</time>
      </trkpt>
      <trkpt lat="38.122883" lon="-2.869206">
        <ele>1421.5</ele>
        <time>2009-03-11T08:58:15Z</time>
      </trkpt>
      <trkpt lat="38.122775" lon="-2.869201">
        <ele>1420.6</ele>
        <time>2009-03-11T08:58:17Z</time>
      </trkpt>
      <trkpt lat="38.122681" lon="-2.869201">
        <ele>1419.9</ele>
        <time>2009-03-11T08:58:20Z</time>
      </trkpt>
      <trkpt lat="38.122586" lon="-2.869201">
        <ele>1419.2</ele>
        <time>2009-03-11T08:58:23Z</time>
      </trkpt>
      <trkpt lat="38.122501" lon="-2.869235">
        <ele>1418.5</ele>
        <time>2009-03-11T08:58:25Z</time>
      </trkpt>
      <trkpt lat="38.122415" lon="-2.869269">
        <ele>1417.9</ele>
        <time>2009-03-11T08:58:27Z</time>
      </trkpt>
      <trkpt lat="38.122370" lon="-2.869360">
        <ele>1417.5</ele>
        <time>2009-03-11T08:58:29Z</time>
      </trkpt>
      <trkpt lat="38.122326" lon="-2.869452">
        <ele>1417.2</ele>
        <time>2009-03-11T08:58:31Z</time>
      </trkpt>
      <trkpt lat="38.122182" lon="-2.869503">
        <ele>1416.0</ele>
        <time>2009-03-11T08:58:32Z</time>
      </trkpt>
      <trkpt lat="38.122038" lon="-2.869555">
        <ele>1414.8</ele>
        <time>2009-03-11T08:58:33Z</time>
      </trkpt>
      <trkpt lat="38.121930" lon="-2.869543">
        <ele>1413.5</ele>
        <time>2009-03-11T08:58:35Z</time>
      </trkpt>
      <trkpt lat="38.121823" lon="-2.869532">
        <ele>1412.2</ele>
        <time>2009-03-11T08:58:37Z</time>
      </trkpt>
      <trkpt lat="38.121724" lon="-2.869509">
        <ele>1410.9</ele>
        <time>2009-03-11T08:58:40Z</time>
      </trkpt>
      <trkpt lat="38.121625" lon="-2.869487">
        <ele>1409.7</ele>
        <time>2009-03-11T08:58:43Z</time>
      </trkpt>
      <trkpt lat="38.121530" lon="-2.869436">
        <ele>1408.4</ele>
        <time>2009-03-11T08:58:44Z</time>
      </trkpt>
      <trkpt lat="38.121436" lon="-2.869385">
        <ele>1407.0</ele>
        <time>2009-03-11T08:58:46Z</time>
      </trkpt>
      <trkpt lat="38.121328" lon="-2.869379">
        <ele>1405.6</ele>
        <time>2009-03-11T08:58:47Z</time>
      </trkpt>
      <trkpt lat="38.121220" lon="-2.869374">
        <ele>1404.2</ele>
        <time>2009-03-11T08:58:48Z</time>
      </trkpt>
      <trkpt lat="38.121162" lon="-2.869602">
        <ele>1404.2</ele>
        <time>2009-03-11T08:58:49Z</time>
      </trkpt>
      <trkpt lat="38.121103" lon="-2.869829">
        <ele>1403.9</ele>
        <time>2009-03-11T08:58:51Z</time>
      </trkpt>
      <trkpt lat="38.121153" lon="-2.870068">
        <ele>1404.8</ele>
        <time>2009-03-11T08:58:52Z</time>
      </trkpt>
      <trkpt lat="38.121203" lon="-2.870307">
        <ele>1405.7</ele>
        <time>2009-03-11T08:58:53Z</time>
      </trkpt>
      <trkpt lat="38.121096" lon="-2.870597">
        <ele>1405.8</ele>
        <time>2009-03-11T08:58:55Z</time>
      </trkpt>
      <trkpt lat="38.120987" lon="-2.870888">
        <ele>1406.4</ele>
        <time>2009-03-11T08:58:56Z</time>
      </trkpt>
      <trkpt lat="38.120862" lon="-2.871036">
        <ele>1405.9</ele>
        <time>2009-03-11T08:58:58Z</time>
      </trkpt>
      <trkpt lat="38.120736" lon="-2.871184">
        <ele>1405.4</ele>
        <time>2009-03-11T08:58:59Z</time>
      </trkpt>
      <trkpt lat="38.120547" lon="-2.871258">
        <ele>1403.8</ele>
        <time>2009-03-11T08:59:01Z</time>
      </trkpt>
      <trkpt lat="38.120359" lon="-2.871333">
        <ele>1402.1</ele>
        <time>2009-03-11T08:59:03Z</time>
      </trkpt>
      <trkpt lat="38.120255" lon="-2.871327">
        <ele>1400.8</ele>
        <time>2009-03-11T08:59:04Z</time>
      </trkpt>
      <trkpt lat="38.120152" lon="-2.871322">
        <ele>1399.4</ele>
        <time>2009-03-11T08:59:05Z</time>
      </trkpt>
      <trkpt lat="38.120017" lon="-2.871458">
        <ele>1398.8</ele>
        <time>2009-03-11T08:59:07Z</time>
      </trkpt>
      <trkpt lat="38.119882" lon="-2.871595">
        <ele>1398.4</ele>
        <time>2009-03-11T08:59:09Z</time>
      </trkpt>
      <trkpt lat="38.119829" lon="-2.871942">
        <ele>1401.0</ele>
        <time>2009-03-11T08:59:10Z</time>
      </trkpt>
      <trkpt lat="38.119775" lon="-2.872289">
        <ele>1401.3</ele>
        <time>2009-03-11T08:59:11Z</time>
      </trkpt>
      <trkpt lat="38.119758" lon="-2.872421">
        <ele>1400.8</ele>
        <time>2009-03-11T08:59:14Z</time>
      </trkpt>
      <trkpt lat="38.119740" lon="-2.872551">
        <ele>1400.3</ele>
        <time>2009-03-11T08:59:16Z</time>
      </trkpt>
      <trkpt lat="38.119735" lon="-2.872671">
        <ele>1400.0</ele>
        <time>2009-03-11T08:59:18Z</time>
      </trkpt>
      <trkpt lat="38.119731" lon="-2.872791">
        <ele>1399.6</ele>
        <time>2009-03-11T08:59:19Z</time>
      </trkpt>
      <trkpt lat="38.119803" lon="-2.872955">
        <ele>1399.7</ele>
        <time>2009-03-11T08:59:20Z</time>
      </trkpt>
      <trkpt lat="38.119875" lon="-2.873120">
        <ele>1400.0</ele>
        <time>2009-03-11T08:59:22Z</time>
      </trkpt>
      <trkpt lat="38.119965" lon="-2.873200">
        <ele>1400.8</ele>
        <time>2009-03-11T08:59:23Z</time>
      </trkpt>
      <trkpt lat="38.120055" lon="-2.873279">
        <ele>1401.6</ele>
        <time>2009-03-11T08:59:25Z</time>
      </trkpt>
      <trkpt lat="38.120055" lon="-2.873450">
        <ele>1401.6</ele>
        <time>2009-03-11T08:59:26Z</time>
      </trkpt>
      <trkpt lat="38.120056" lon="-2.873621">
        <ele>1401.6</ele>
        <time>2009-03-11T08:59:27Z</time>
      </trkpt>
      <trkpt lat="38.119930" lon="-2.873672">
        <ele>1400.0</ele>
        <time>2009-03-11T08:59:29Z</time>
      </trkpt>
      <trkpt lat="38.119804" lon="-2.873724">
        <ele>1398.3</ele>
        <time>2009-03-11T08:59:30Z</time>
      </trkpt>
      <trkpt lat="38.119687" lon="-2.873826">
        <ele>1397.1</ele>
        <time>2009-03-11T08:59:32Z</time>
      </trkpt>
      <trkpt lat="38.119571" lon="-2.873929">
        <ele>1395.9</ele>
        <time>2009-03-11T08:59:34Z</time>
      </trkpt>
      <trkpt lat="38.119485" lon="-2.874048">
        <ele>1394.6</ele>
        <time>2009-03-11T08:59:35Z</time>
      </trkpt>
      <trkpt lat="38.119400" lon="-2.874168">
        <ele>1393.1</ele>
        <time>2009-03-11T08:59:37Z</time>
      </trkpt>
      <trkpt lat="38.119315" lon="-2.874321">
        <ele>1391.2</ele>
        <time>2009-03-11T08:59:38Z</time>
      </trkpt>
      <trkpt lat="38.119229" lon="-2.874475">
        <ele>1389.1</ele>
        <time>2009-03-11T08:59:40Z</time>
      </trkpt>
      <trkpt lat="38.119180" lon="-2.874607">
        <ele>1387.6</ele>
        <time>2009-03-11T08:59:42Z</time>
      </trkpt>
      <trkpt lat="38.119131" lon="-2.874737">
        <ele>1385.8</ele>
        <time>2009-03-11T08:59:44Z</time>
      </trkpt>
      <trkpt lat="38.119009" lon="-2.874971">
        <ele>1381.7</ele>
        <time>2009-03-11T08:59:46Z</time>
      </trkpt>
      <trkpt lat="38.118889" lon="-2.875204">
        <ele>1377.5</ele>
        <time>2009-03-11T08:59:47Z</time>
      </trkpt>
      <trkpt lat="38.118848" lon="-2.875364">
        <ele>1375.8</ele>
        <time>2009-03-11T08:59:49Z</time>
      </trkpt>
      <trkpt lat="38.118808" lon="-2.875523">
        <ele>1373.8</ele>
        <time>2009-03-11T08:59:51Z</time>
      </trkpt>
      <trkpt lat="38.118786" lon="-2.875683">
        <ele>1372.3</ele>
        <time>2009-03-11T08:59:53Z</time>
      </trkpt>
      <trkpt lat="38.118763" lon="-2.875842">
        <ele>1370.8</ele>
        <time>2009-03-11T08:59:55Z</time>
      </trkpt>
      <trkpt lat="38.118799" lon="-2.875996">
        <ele>1370.7</ele>
        <time>2009-03-11T08:59:56Z</time>
      </trkpt>
      <trkpt lat="38.118836" lon="-2.876149">
        <ele>1370.3</ele>
        <time>2009-03-11T08:59:57Z</time>
      </trkpt>
      <trkpt lat="38.118899" lon="-2.876274">
        <ele>1370.4</ele>
        <time>2009-03-11T08:59:58Z</time>
      </trkpt>
      <trkpt lat="38.118962" lon="-2.876399">
        <ele>1370.4</ele>
        <time>2009-03-11T08:59:59Z</time>
      </trkpt>
      <trkpt lat="38.119047" lon="-2.876501">
        <ele>1370.8</ele>
        <time>2009-03-11T09:00:00Z</time>
      </trkpt>
      <trkpt lat="38.119133" lon="-2.876603">
        <ele>1371.0</ele>
        <time>2009-03-11T09:00:00Z</time>
      </trkpt>
      <trkpt lat="38.119272" lon="-2.876729">
        <ele>1371.4</ele>
        <time>2009-03-11T09:00:02Z</time>
      </trkpt>
      <trkpt lat="38.119412" lon="-2.876854">
        <ele>1371.4</ele>
        <time>2009-03-11T09:00:03Z</time>
      </trkpt>
      <trkpt lat="38.119551" lon="-2.876887">
        <ele>1372.3</ele>
        <time>2009-03-11T09:00:04Z</time>
      </trkpt>
      <trkpt lat="38.119691" lon="-2.876921">
        <ele>1371.9</ele>
        <time>2009-03-11T09:00:05Z</time>
      </trkpt>
      <trkpt lat="38.119816" lon="-2.876938">
        <ele>1371.7</ele>
        <time>2009-03-11T09:00:07Z</time>
      </trkpt>
      <trkpt lat="38.119942" lon="-2.876955">
        <ele>1371.5</ele>
        <time>2009-03-11T09:00:09Z</time>
      </trkpt>
      <trkpt lat="38.120140" lon="-2.876949">
        <ele>1371.6</ele>
        <time>2009-03-11T09:00:11Z</time>
      </trkpt>
      <trkpt lat="38.120338" lon="-2.876943">
        <ele>1371.7</ele>
        <time>2009-03-11T09:00:12Z</time>
      </trkpt>
      <trkpt lat="38.120473" lon="-2.876880">
        <ele>1371.9</ele>
        <time>2009-03-11T09:00:14Z</time>
      </trkpt>
      <trkpt lat="38.120607" lon="-2.876818">
        <ele>1371.6</ele>
        <time>2009-03-11T09:00:15Z</time>
      </trkpt>
      <trkpt lat="38.120796" lon="-2.876794">
        <ele>1370.5</ele>
        <time>2009-03-11T09:00:17Z</time>
      </trkpt>
      <trkpt lat="38.120985" lon="-2.876771">
        <ele>1369.4</ele>
        <time>2009-03-11T09:00:19Z</time>
      </trkpt>
      <trkpt lat="38.121133" lon="-2.876680">
        <ele>1369.1</ele>
        <time>2009-03-11T09:00:21Z</time>
      </trkpt>
      <trkpt lat="38.121281" lon="-2.876588">
        <ele>1367.6</ele>
        <time>2009-03-11T09:00:23Z</time>
      </trkpt>
      <trkpt lat="38.121295" lon="-2.876486">
        <ele>1368.2</ele>
        <time>2009-03-11T09:00:24Z</time>
      </trkpt>
      <trkpt lat="38.121308" lon="-2.876384">
        <ele>1368.7</ele>
        <time>2009-03-11T09:00:26Z</time>
      </trkpt>
      <trkpt lat="38.121276" lon="-2.876293">
        <ele>1370.3</ele>
        <time>2009-03-11T09:00:28Z</time>
      </trkpt>
      <trkpt lat="38.121245" lon="-2.876201">
        <ele>1371.8</ele>
        <time>2009-03-11T09:00:30Z</time>
      </trkpt>
      <trkpt lat="38.121209" lon="-2.876111">
        <ele>1373.2</ele>
        <time>2009-03-11T09:00:31Z</time>
      </trkpt>
      <trkpt lat="38.121173" lon="-2.876020">
        <ele>1374.4</ele>
        <time>2009-03-11T09:00:32Z</time>
      </trkpt>
      <trkpt lat="38.121119" lon="-2.875901">
        <ele>1376.3</ele>
        <time>2009-03-11T09:00:33Z</time>
      </trkpt>
      <trkpt lat="38.121065" lon="-2.875781">
        <ele>1378.6</ele>
        <time>2009-03-11T09:00:34Z</time>
      </trkpt>
      <trkpt lat="38.121069" lon="-2.875650">
        <ele>1379.9</ele>
        <time>2009-03-11T09:00:36Z</time>
      </trkpt>
      <trkpt lat="38.121073" lon="-2.875519">
        <ele>1381.2</ele>
        <time>2009-03-11T09:00:37Z</time>
      </trkpt>
      <trkpt lat="38.121235" lon="-2.875382">
        <ele>1378.0</ele>
        <time>2009-03-11T09:00:38Z</time>
      </trkpt>
      <trkpt lat="38.121397" lon="-2.875245">
        <ele>1374.0</ele>
        <time>2009-03-11T09:00:39Z</time>
      </trkpt>
      <trkpt lat="38.121510" lon="-2.875189">
        <ele>1370.4</ele>
        <time>2009-03-11T09:00:40Z</time>
      </trkpt>
      <trkpt lat="38.121622" lon="-2.875131">
        <ele>1366.6</ele>
        <time>2009-03-11T09:00:41Z</time>
      </trkpt>
      <trkpt lat="38.121675" lon="-2.874989">
        <ele>1365.8</ele>
        <time>2009-03-11T09:00:42Z</time>
      </trkpt>
      <trkpt lat="38.121729" lon="-2.874847">
        <ele>1364.9</ele>
        <time>2009-03-11T09:00:42Z</time>
      </trkpt>
      <trkpt lat="38.121792" lon="-2.874642">
        <ele>1363.9</ele>
        <time>2009-03-11T09:00:43Z</time>
      </trkpt>
      <trkpt lat="38.121855" lon="-2.874437">
        <ele>1364.7</ele>
        <time>2009-03-11T09:00:44Z</time>
      </trkpt>
      <trkpt lat="38.122026" lon="-2.874277">
        <ele>1360.4</ele>
        <time>2009-03-11T09:00:46Z</time>
      </trkpt>
      <trkpt lat="38.122196" lon="-2.874118">
        <ele>1356.6</ele>
        <time>2009-03-11T09:00:47Z</time>
      </trkpt>
      <trkpt lat="38.122281" lon="-2.874163">
        <ele>1352.0</ele>
        <time>2009-03-11T09:00:50Z</time>
      </trkpt>
      <trkpt lat="38.122367" lon="-2.874208">
        <ele>1347.3</ele>
        <time>2009-03-11T09:00:53Z</time>
      </trkpt>
      <trkpt lat="38.122565" lon="-2.874123">
        <ele>1340.8</ele>
        <time>2009-03-11T09:00:57Z</time>
      </trkpt>
      <trkpt lat="38.122762" lon="-2.874037">
        <ele>1334.5</ele>
        <time>2009-03-11T09:01:01Z</time>
      </trkpt>
      <trkpt lat="38.122812" lon="-2.873934">
        <ele>1334.8</ele>
        <time>2009-03-11T09:01:02Z</time>
      </trkpt>
      <trkpt lat="38.122861" lon="-2.873832">
        <ele>1335.2</ele>
        <time>2009-03-11T09:01:04Z</time>
      </trkpt>
      <trkpt lat="38.122924" lon="-2.873741">
        <ele>1334.7</ele>
        <time>2009-03-11T09:01:05Z</time>
      </trkpt>
      <trkpt lat="38.122986" lon="-2.873650">
        <ele>1334.9</ele>
        <time>2009-03-11T09:01:06Z</time>
      </trkpt>
      <trkpt lat="38.123108" lon="-2.873558">
        <ele>1332.3</ele>
        <time>2009-03-11T09:01:09Z</time>
      </trkpt>
      <trkpt lat="38.123229" lon="-2.873467">
        <ele>1329.6</ele>
        <time>2009-03-11T09:01:11Z</time>
      </trkpt>
      <trkpt lat="38.123296" lon="-2.873393">
        <ele>1328.8</ele>
        <time>2009-03-11T09:01:14Z</time>
      </trkpt>
      <trkpt lat="38.123364" lon="-2.873319">
        <ele>1327.9</ele>
        <time>2009-03-11T09:01:17Z</time>
      </trkpt>
      <trkpt lat="38.123427" lon="-2.873336">
        <ele>1324.4</ele>
        <time>2009-03-11T09:01:18Z</time>
      </trkpt>
      <trkpt lat="38.123489" lon="-2.873353">
        <ele>1320.9</ele>
        <time>2009-03-11T09:01:20Z</time>
      </trkpt>
      <trkpt lat="38.123481" lon="-2.873421">
        <ele>1319.2</ele>
        <time>2009-03-11T09:01:21Z</time>
      </trkpt>
      <trkpt lat="38.123472" lon="-2.873490">
        <ele>1317.5</ele>
        <time>2009-03-11T09:01:21Z</time>
      </trkpt>
      <trkpt lat="38.123387" lon="-2.873569">
        <ele>1319.0</ele>
        <time>2009-03-11T09:01:23Z</time>
      </trkpt>
      <trkpt lat="38.123301" lon="-2.873649">
        <ele>1320.4</ele>
        <time>2009-03-11T09:01:25Z</time>
      </trkpt>
      <trkpt lat="38.123211" lon="-2.873729">
        <ele>1322.0</ele>
        <time>2009-03-11T09:01:26Z</time>
      </trkpt>
      <trkpt lat="38.123121" lon="-2.873809">
        <ele>1323.9</ele>
        <time>2009-03-11T09:01:27Z</time>
      </trkpt>
      <trkpt lat="38.123072" lon="-2.874150">
        <ele>1317.8</ele>
        <time>2009-03-11T09:01:29Z</time>
      </trkpt>
      <trkpt lat="38.123023" lon="-2.874492">
        <ele>1311.8</ele>
        <time>2009-03-11T09:01:31Z</time>
      </trkpt>
      <trkpt lat="38.122731" lon="-2.874771">
        <ele>1322.1</ele>
        <time>2009-03-11T09:01:32Z</time>
      </trkpt>
      <trkpt lat="38.122440" lon="-2.875050">
        <ele>1333.4</ele>
        <time>2009-03-11T09:01:33Z</time>
      </trkpt>
      <trkpt lat="38.122404" lon="-2.875182">
        <ele>1334.4</ele>
        <time>2009-03-11T09:01:35Z</time>
      </trkpt>
      <trkpt lat="38.122368" lon="-2.875312">
        <ele>1335.3</ele>
        <time>2009-03-11T09:01:37Z</time>
      </trkpt>
      <trkpt lat="38.122342" lon="-2.875455">
        <ele>1336.0</ele>
        <time>2009-03-11T09:01:38Z</time>
      </trkpt>
      <trkpt lat="38.122315" lon="-2.875597">
        <ele>1337.4</ele>
        <time>2009-03-11T09:01:39Z</time>
      </trkpt>
      <trkpt lat="38.122468" lon="-2.875830">
        <ele>1330.5</ele>
        <time>2009-03-11T09:01:40Z</time>
      </trkpt>
      <trkpt lat="38.122620" lon="-2.876063">
        <ele>1322.6</ele>
        <time>2009-03-11T09:01:41Z</time>
      </trkpt>
      <trkpt lat="38.122769" lon="-2.876302">
        <ele>1313.6</ele>
        <time>2009-03-11T09:01:43Z</time>
      </trkpt>
      <trkpt lat="38.122918" lon="-2.876540">
        <ele>1302.6</ele>
        <time>2009-03-11T09:01:44Z</time>
      </trkpt>
      <trkpt lat="38.122868" lon="-2.876689">
        <ele>1303.3</ele>
        <time>2009-03-11T09:01:45Z</time>
      </trkpt>
      <trkpt lat="38.122819" lon="-2.876837">
        <ele>1303.9</ele>
        <time>2009-03-11T09:01:46Z</time>
      </trkpt>
      <trkpt lat="38.122747" lon="-2.876899">
        <ele>1306.9</ele>
        <time>2009-03-11T09:01:48Z</time>
      </trkpt>
      <trkpt lat="38.122676" lon="-2.876962">
        <ele>1309.9</ele>
        <time>2009-03-11T09:01:50Z</time>
      </trkpt>
      <trkpt lat="38.122599" lon="-2.877127">
        <ele>1312.0</ele>
        <time>2009-03-11T09:01:51Z</time>
      </trkpt>
      <trkpt lat="38.122523" lon="-2.877292">
        <ele>1314.7</ele>
        <time>2009-03-11T09:01:52Z</time>
      </trkpt>
      <trkpt lat="38.122492" lon="-2.877440">
        <ele>1315.2</ele>
        <time>2009-03-11T09:01:54Z</time>
      </trkpt>
      <trkpt lat="38.122461" lon="-2.877588">
        <ele>1315.7</ele>
        <time>2009-03-11T09:01:55Z</time>
      </trkpt>
      <trkpt lat="38.122492" lon="-2.877765">
        <ele>1312.7</ele>
        <time>2009-03-11T09:01:58Z</time>
      </trkpt>
      <trkpt lat="38.122524" lon="-2.877941">
        <ele>1310.2</ele>
        <time>2009-03-11T09:02:00Z</time>
      </trkpt>
      <trkpt lat="38.122515" lon="-2.878083">
        <ele>1312.2</ele>
        <time>2009-03-11T09:02:02Z</time>
      </trkpt>
      <trkpt lat="38.122506" lon="-2.878225">
        <ele>1314.1</ele>
        <time>2009-03-11T09:02:04Z</time>
      </trkpt>
      <trkpt lat="38.122488" lon="-2.878453">
        <ele>1317.5</ele>
        <time>2009-03-11T09:02:05Z</time>
      </trkpt>
      <trkpt lat="38.122470" lon="-2.878681">
        <ele>1320.8</ele>
        <time>2009-03-11T09:02:07Z</time>
      </trkpt>
      <trkpt lat="38.122448" lon="-2.878760">
        <ele>1323.0</ele>
        <time>2009-03-11T09:02:08Z</time>
      </trkpt>
      <trkpt lat="38.122426" lon="-2.878840">
        <ele>1325.7</ele>
        <time>2009-03-11T09:02:10Z</time>
      </trkpt>
      <trkpt lat="38.122516" lon="-2.878914">
        <ele>1322.5</ele>
        <time>2009-03-11T09:02:10Z</time>
      </trkpt>
      <trkpt lat="38.122606" lon="-2.878987">
        <ele>1319.6</ele>
        <time>2009-03-11T09:02:11Z</time>
      </trkpt>
      <trkpt lat="38.122691" lon="-2.879141">
        <ele>1319.0</ele>
        <time>2009-03-11T09:02:15Z</time>
      </trkpt>
      <trkpt lat="38.122777" lon="-2.879295">
        <ele>1318.9</ele>
        <time>2009-03-11T09:02:17Z</time>
      </trkpt>
      <trkpt lat="38.122768" lon="-2.879397">
        <ele>1321.9</ele>
        <time>2009-03-11T09:02:18Z</time>
      </trkpt>
      <trkpt lat="38.122759" lon="-2.879500">
        <ele>1324.9</ele>
        <time>2009-03-11T09:02:20Z</time>
      </trkpt>
      <trkpt lat="38.122876" lon="-2.879625">
        <ele>1324.0</ele>
        <time>2009-03-11T09:02:21Z</time>
      </trkpt>
      <trkpt lat="38.122993" lon="-2.879750">
        <ele>1324.9</ele>
        <time>2009-03-11T09:02:23Z</time>
      </trkpt>
      <trkpt lat="38.123074" lon="-2.879664">
        <ele>1319.2</ele>
        <time>2009-03-11T09:02:24Z</time>
      </trkpt>
      <trkpt lat="38.123155" lon="-2.879579">
        <ele>1313.6</ele>
        <time>2009-03-11T09:02:26Z</time>
      </trkpt>
      <trkpt lat="38.123307" lon="-2.879544">
        <ele>1307.8</ele>
        <time>2009-03-11T09:02:27Z</time>
      </trkpt>
      <trkpt lat="38.123460" lon="-2.879510">
        <ele>1302.0</ele>
        <time>2009-03-11T09:02:28Z</time>
      </trkpt>
      <trkpt lat="38.123609" lon="-2.879503">
        <ele>1291.1</ele>
        <time>2009-03-11T09:02:29Z</time>
      </trkpt>
      <trkpt lat="38.123759" lon="-2.879393">
        <ele>1283.4</ele>
        <time>2009-03-11T09:02:30Z</time>
      </trkpt>
      <trkpt lat="38.123870" lon="-2.879062">
        <ele>1279.8</ele>
        <time>2009-03-11T09:02:30Z</time>
      </trkpt>
      <trkpt lat="38.124125" lon="-2.879031">
        <ele>1276.3</ele>
        <time>2009-03-11T09:02:31Z</time>
      </trkpt>
      <trkpt lat="38.124255" lon="-2.879116">
        <ele>1278.2</ele>
        <time>2009-03-11T09:02:33Z</time>
      </trkpt>
      <trkpt lat="38.124386" lon="-2.879201">
        <ele>1280.1</ele>
        <time>2009-03-11T09:02:33Z</time>
      </trkpt>
      <trkpt lat="38.124458" lon="-2.879315">
        <ele>1283.2</ele>
        <time>2009-03-11T09:02:34Z</time>
      </trkpt>
      <trkpt lat="38.124530" lon="-2.879428">
        <ele>1286.3</ele>
        <time>2009-03-11T09:02:35Z</time>
      </trkpt>
      <trkpt lat="38.124543" lon="-2.879497">
        <ele>1288.4</ele>
        <time>2009-03-11T09:02:37Z</time>
      </trkpt>
      <trkpt lat="38.124557" lon="-2.879565">
        <ele>1290.3</ele>
        <time>2009-03-11T09:02:38Z</time>
      </trkpt>
      <trkpt lat="38.124665" lon="-2.879861">
        <ele>1292.6</ele>
        <time>2009-03-11T09:02:40Z</time>
      </trkpt>
      <trkpt lat="38.124742" lon="-2.879963">
        <ele>1290.9</ele>
        <time>2009-03-11T09:02:42Z</time>
      </trkpt>
      <trkpt lat="38.124818" lon="-2.880065">
        <ele>1289.2</ele>
        <time>2009-03-11T09:02:44Z</time>
      </trkpt>
      <trkpt lat="38.124962" lon="-2.880156">
        <ele>1283.0</ele>
        <time>2009-03-11T09:02:46Z</time>
      </trkpt>
      <trkpt lat="38.125106" lon="-2.880247">
        <ele>1276.6</ele>
        <time>2009-03-11T09:02:47Z</time>
      </trkpt>
      <trkpt lat="38.125169" lon="-2.880372">
        <ele>1275.5</ele>
        <time>2009-03-11T09:02:49Z</time>
      </trkpt>
      <trkpt lat="38.125232" lon="-2.880497">
        <ele>1271.6</ele>
        <time>2009-03-11T09:02:50Z</time>
      </trkpt>
      <trkpt lat="38.125214" lon="-2.880691">
        <ele>1270.4</ele>
        <time>2009-03-11T09:02:52Z</time>
      </trkpt>
      <trkpt lat="38.125196" lon="-2.880884">
        <ele>1269.2</ele>
        <time>2009-03-11T09:02:53Z</time>
      </trkpt>
      <trkpt lat="38.125219" lon="-2.880963">
        <ele>1266.9</ele>
        <time>2009-03-11T09:02:54Z</time>
      </trkpt>
      <trkpt lat="38.125242" lon="-2.881043">
        <ele>1264.7</ele>
        <time>2009-03-11T09:02:56Z</time>
      </trkpt>
      <trkpt lat="38.125300" lon="-2.881054">
        <ele>1261.2</ele>
        <time>2009-03-11T09:02:58Z</time>
      </trkpt>
      <trkpt lat="38.125358" lon="-2.881066">
        <ele>1257.7</ele>
        <time>2009-03-11T09:03:00Z</time>
      </trkpt>
      <trkpt lat="38.125372" lon="-2.881203">
        <ele>1255.5</ele>
        <time>2009-03-11T09:03:02Z</time>
      </trkpt>
      <trkpt lat="38.125386" lon="-2.881339">
        <ele>1253.0</ele>
        <time>2009-03-11T09:03:04Z</time>
      </trkpt>
      <trkpt lat="38.125390" lon="-2.881436">
        <ele>1251.5</ele>
        <time>2009-03-11T09:03:06Z</time>
      </trkpt>
      <trkpt lat="38.125395" lon="-2.881533">
        <ele>1250.0</ele>
        <time>2009-03-11T09:03:08Z</time>
      </trkpt>
      <trkpt lat="38.125355" lon="-2.881658">
        <ele>1250.4</ele>
        <time>2009-03-11T09:03:10Z</time>
      </trkpt>
      <trkpt lat="38.125314" lon="-2.881783">
        <ele>1250.8</ele>
        <time>2009-03-11T09:03:12Z</time>
      </trkpt>
      <trkpt lat="38.125189" lon="-2.881903">
        <ele>1255.5</ele>
        <time>2009-03-11T09:03:13Z</time>
      </trkpt>
      <trkpt lat="38.125063" lon="-2.882023">
        <ele>1260.0</ele>
        <time>2009-03-11T09:03:14Z</time>
      </trkpt>
      <trkpt lat="38.125021" lon="-2.882328">
        <ele>1255.3</ele>
        <time>2009-03-11T09:03:15Z</time>
      </trkpt>
      <trkpt lat="38.125126" lon="-2.882466">
        <ele>1251.0</ele>
        <time>2009-03-11T09:03:17Z</time>
      </trkpt>
      <trkpt lat="38.125068" lon="-2.882632">
        <ele>1251.1</ele>
        <time>2009-03-11T09:03:19Z</time>
      </trkpt>
      <trkpt lat="38.125010" lon="-2.882796">
        <ele>1251.0</ele>
        <time>2009-03-11T09:03:21Z</time>
      </trkpt>
      <trkpt lat="38.124911" lon="-2.882899">
        <ele>1252.9</ele>
        <time>2009-03-11T09:03:23Z</time>
      </trkpt>
      <trkpt lat="38.124812" lon="-2.883002">
        <ele>1254.2</ele>
        <time>2009-03-11T09:03:24Z</time>
      </trkpt>
      <trkpt lat="38.124803" lon="-2.883173">
        <ele>1250.8</ele>
        <time>2009-03-11T09:03:26Z</time>
      </trkpt>
      <trkpt lat="38.124795" lon="-2.883343">
        <ele>1247.3</ele>
        <time>2009-03-11T09:03:27Z</time>
      </trkpt>
      <trkpt lat="38.124849" lon="-2.883479">
        <ele>1243.0</ele>
        <time>2009-03-11T09:03:29Z</time>
      </trkpt>
      <trkpt lat="38.124903" lon="-2.883616">
        <ele>1239.0</ele>
        <time>2009-03-11T09:03:31Z</time>
      </trkpt>
      <trkpt lat="38.124983" lon="-2.883809">
        <ele>1233.1</ele>
        <time>2009-03-11T09:03:33Z</time>
      </trkpt>
      <trkpt lat="38.124983" lon="-2.884072">
        <ele>1225.9</ele>
        <time>2009-03-11T09:03:34Z</time>
      </trkpt>
      <trkpt lat="38.124953" lon="-2.884236">
        <ele>1221.4</ele>
        <time>2009-03-11T09:03:35Z</time>
      </trkpt>
      <trkpt lat="38.124841" lon="-2.884470">
        <ele>1217.1</ele>
        <time>2009-03-11T09:03:36Z</time>
      </trkpt>
      <trkpt lat="38.124670" lon="-2.884504">
        <ele>1219.8</ele>
        <time>2009-03-11T09:03:38Z</time>
      </trkpt>
      <trkpt lat="38.124499" lon="-2.884539">
        <ele>1223.3</ele>
        <time>2009-03-11T09:03:40Z</time>
      </trkpt>
      <trkpt lat="38.124310" lon="-2.884527">
        <ele>1230.4</ele>
        <time>2009-03-11T09:03:41Z</time>
      </trkpt>
      <trkpt lat="38.124121" lon="-2.884516">
        <ele>1237.5</ele>
        <time>2009-03-11T09:03:42Z</time>
      </trkpt>
      <trkpt lat="38.124058" lon="-2.884494">
        <ele>1240.2</ele>
        <time>2009-03-11T09:03:43Z</time>
      </trkpt>
      <trkpt lat="38.123996" lon="-2.884471">
        <ele>1242.8</ele>
        <time>2009-03-11T09:03:45Z</time>
      </trkpt>
      <trkpt lat="38.123804" lon="-2.884555">
        <ele>1245.0</ele>
        <time>2009-03-11T09:03:46Z</time>
      </trkpt>
      <trkpt lat="38.123771" lon="-2.884710">
        <ele>1248.9</ele>
        <time>2009-03-11T09:03:47Z</time>
      </trkpt>
      <trkpt lat="38.123762" lon="-2.884938">
        <ele>1248.8</ele>
        <time>2009-03-11T09:03:47Z</time>
      </trkpt>
      <trkpt lat="38.123754" lon="-2.885165">
        <ele>1248.6</ele>
        <time>2009-03-11T09:03:48Z</time>
      </trkpt>
      <trkpt lat="38.123839" lon="-2.885296">
        <ele>1245.5</ele>
        <time>2009-03-11T09:03:49Z</time>
      </trkpt>
      <trkpt lat="38.123925" lon="-2.885427">
        <ele>1242.5</ele>
        <time>2009-03-11T09:03:51Z</time>
      </trkpt>
      <trkpt lat="38.124037" lon="-2.885552">
        <ele>1237.5</ele>
        <time>2009-03-11T09:03:53Z</time>
      </trkpt>
      <trkpt lat="38.124149" lon="-2.885677">
        <ele>1233.2</ele>
        <time>2009-03-11T09:03:55Z</time>
      </trkpt>
      <trkpt lat="38.124271" lon="-2.885785">
        <ele>1229.6</ele>
        <time>2009-03-11T09:03:57Z</time>
      </trkpt>
      <trkpt lat="38.124393" lon="-2.885893">
        <ele>1226.6</ele>
        <time>2009-03-11T09:03:58Z</time>
      </trkpt>
      <trkpt lat="38.124505" lon="-2.886058">
        <ele>1224.5</ele>
        <time>2009-03-11T09:04:00Z</time>
      </trkpt>
      <trkpt lat="38.124618" lon="-2.886223">
        <ele>1221.7</ele>
        <time>2009-03-11T09:04:01Z</time>
      </trkpt>
      <trkpt lat="38.124645" lon="-2.886325">
        <ele>1219.1</ele>
        <time>2009-03-11T09:04:03Z</time>
      </trkpt>
      <trkpt lat="38.124672" lon="-2.886427">
        <ele>1216.0</ele>
        <time>2009-03-11T09:04:05Z</time>
      </trkpt>
      <trkpt lat="38.124672" lon="-2.886615">
        <ele>1211.9</ele>
        <time>2009-03-11T09:04:07Z</time>
      </trkpt>
      <trkpt lat="38.124672" lon="-2.886803">
        <ele>1207.8</ele>
        <time>2009-03-11T09:04:09Z</time>
      </trkpt>
      <trkpt lat="38.124645" lon="-2.886905">
        <ele>1206.2</ele>
        <time>2009-03-11T09:04:11Z</time>
      </trkpt>
      <trkpt lat="38.124618" lon="-2.887008">
        <ele>1204.5</ele>
        <time>2009-03-11T09:04:12Z</time>
      </trkpt>
      <trkpt lat="38.124569" lon="-2.887167">
        <ele>1202.3</ele>
        <time>2009-03-11T09:04:14Z</time>
      </trkpt>
      <trkpt lat="38.124520" lon="-2.887327">
        <ele>1200.3</ele>
        <time>2009-03-11T09:04:16Z</time>
      </trkpt>
      <trkpt lat="38.124425" lon="-2.887338">
        <ele>1201.2</ele>
        <time>2009-03-11T09:04:19Z</time>
      </trkpt>
      <trkpt lat="38.124331" lon="-2.887350">
        <ele>1202.1</ele>
        <time>2009-03-11T09:04:21Z</time>
      </trkpt>
      <trkpt lat="38.124259" lon="-2.887327">
        <ele>1203.3</ele>
        <time>1989-12-30T23:59:59Z</time>
      </trkpt>
      <trkpt lat="38.124187" lon="-2.887304">
        <ele>1204.5</ele>
        <time>1989-12-30T23:59:59Z</time>
      </trkpt>
      <trkpt lat="38.124084" lon="-2.887316">
        <ele>1205.5</ele>
        <time>1989-12-30T23:59:59Z</time>
      </trkpt>
      <trkpt lat="38.123980" lon="-2.887327">
        <ele>1206.5</ele>
        <time>1989-12-30T23:59:59Z</time>
      </trkpt>
      <trkpt lat="38.123886" lon="-2.887652">
        <ele>1205.2</ele>
        <time>1989-12-30T23:59:59Z</time>
      </trkpt>
      <trkpt lat="38.123720" lon="-2.887715">
        <ele>1204.0</ele>
        <time>1989-12-30T23:59:59Z</time>
      </trkpt>
      <trkpt lat="38.123576" lon="-2.887669">
        <ele>1208.6</ele>
        <time>1989-12-30T23:59:59Z</time>
      </trkpt>
      <trkpt lat="38.123432" lon="-2.887624">
        <ele>1213.3</ele>
        <time>1989-12-30T23:59:59Z</time>
      </trkpt>
      <trkpt lat="38.123311" lon="-2.887619">
        <ele>1216.8</ele>
        <time>1989-12-30T23:59:59Z</time>
      </trkpt>
      <trkpt lat="38.123189" lon="-2.887613">
        <ele>1220.3</ele>
        <time>1989-12-30T23:59:59Z</time>
      </trkpt>
      <trkpt lat="38.123143" lon="-2.887834">
        <ele>1215.4</ele>
        <time>1989-12-30T23:59:59Z</time>
      </trkpt>
      <trkpt lat="38.123298" lon="-2.888057">
        <ele>1210.5</ele>
        <time>1989-12-30T23:59:59Z</time>
      </trkpt>
      <trkpt lat="38.123379" lon="-2.888256">
        <ele>1205.8</ele>
        <time>1989-12-30T23:59:59Z</time>
      </trkpt>
      <trkpt lat="38.123460" lon="-2.888455">
        <ele>1201.8</ele>
        <time>1989-12-30T23:59:59Z</time>
      </trkpt>
      <trkpt lat="38.123500" lon="-2.888631">
        <ele>1199.2</ele>
        <time>1989-12-30T23:59:59Z</time>
      </trkpt>
      <trkpt lat="38.123541" lon="-2.888808">
        <ele>1198.4</ele>
        <time>1989-12-30T23:59:59Z</time>
      </trkpt>
      <trkpt lat="38.123443" lon="-2.888972">
        <ele>1201.2</ele>
        <time>1989-12-30T23:59:59Z</time>
      </trkpt>
      <trkpt lat="38.123344" lon="-2.889138">
        <ele>1203.1</ele>
        <time>1989-12-30T23:59:59Z</time>
      </trkpt>
      <trkpt lat="38.123133" lon="-2.889309">
        <ele>1203.3</ele>
        <time>1989-12-30T23:59:59Z</time>
      </trkpt>
      <trkpt lat="38.122923" lon="-2.889484">
        <ele>1201.6</ele>
        <time>1989-12-30T23:59:59Z</time>
      </trkpt>
      <trkpt lat="38.122923" lon="-2.889484">
        <ele>1201.6</ele>
        <time>1989-12-30T23:59:59Z</time>
      </trkpt>
      <trkpt lat="38.122283" lon="-2.889645">
        <ele>1190.2</ele>
        <time>1989-12-30T23:59:59Z</time>
      </trkpt>
      <trkpt lat="38.122283" lon="-2.889645">
        <ele>1190.2</ele>
        <time>1989-12-30T23:59:59Z</time>
      </trkpt>
      <trkpt lat="38.122097" lon="-2.889850">
        <ele>1188.8</ele>
        <time>1989-12-30T23:59:59Z</time>
      </trkpt>
      <trkpt lat="38.121487" lon="-2.890118">
        <ele>1187.4</ele>
        <time>1989-12-30T23:59:59Z</time>
      </trkpt>
      <trkpt lat="38.121332" lon="-2.890109">
        <ele>1190.7</ele>
        <time>1989-12-30T23:59:59Z</time>
      </trkpt>
      <trkpt lat="38.121250" lon="-2.890131">
        <ele>1188.8</ele>
        <time>1989-12-30T23:59:59Z</time>
      </trkpt>
      <trkpt lat="38.121086" lon="-2.890238">
        <ele>1185.9</ele>
        <time>1989-12-30T23:59:59Z</time>
      </trkpt>
      <trkpt lat="38.120518" lon="-2.890623">
        <ele>1174.4</ele>
        <time>1989-12-30T23:59:59Z</time>
      </trkpt>
      <trkpt lat="38.120072" lon="-2.890652">
        <ele>1172.5</ele>
        <time>1989-12-30T23:59:59Z</time>
      </trkpt>
      <trkpt lat="38.119767" lon="-2.890803">
        <ele>1165.7</ele>
        <time>1989-12-30T23:59:59Z</time>
      </trkpt>
      <trkpt lat="38.119472" lon="-2.890736">
        <ele>1171.0</ele>
        <time>1989-12-30T23:59:59Z</time>
      </trkpt>
      <trkpt lat="38.119436" lon="-2.890812">
        <ele>1168.6</ele>
        <time>1989-12-30T23:59:59Z</time>
      </trkpt>
      <trkpt lat="38.119344" lon="-2.890849">
        <ele>1169.6</ele>
        <time>1989-12-30T23:59:59Z</time>
      </trkpt>
      <trkpt lat="38.119165" lon="-2.890903">
        <ele>1172.0</ele>
        <time>1989-12-30T23:59:59Z</time>
      </trkpt>
      <trkpt lat="38.118975" lon="-2.890907">
        <ele>1177.3</ele>
        <time>1989-12-30T23:59:59Z</time>
      </trkpt>
      <trkpt lat="38.118895" lon="-2.890908">
        <ele>1169.6</ele>
        <time>1989-12-30T23:59:59Z</time>
      </trkpt>
      <trkpt lat="38.118804" lon="-2.890945">
        <ele>1166.2</ele>
        <time>1989-12-30T23:59:59Z</time>
      </trkpt>
      <trkpt lat="38.118517" lon="-2.891095">
        <ele>1164.3</ele>
        <time>1989-12-30T23:59:59Z</time>
      </trkpt>
      <trkpt lat="38.118429" lon="-2.891111">
        <ele>1164.3</ele>
        <time>1989-12-30T23:59:59Z</time>
      </trkpt>
      <trkpt lat="38.118294" lon="-2.891090">
        <ele>1158.0</ele>
        <time>1989-12-30T23:59:59Z</time>
      </trkpt>
      <trkpt lat="38.118188" lon="-2.891078">
        <ele>1156.6</ele>
        <time>1989-12-30T23:59:59Z</time>
      </trkpt>
      <trkpt lat="38.117852" lon="-2.891050">
        <ele>1151.3</ele>
        <time>1989-12-30T23:59:59Z</time>
      </trkpt>
      <trkpt lat="38.117698" lon="-2.891098">
        <ele>1139.8</ele>
        <time>1989-12-30T23:59:59Z</time>
      </trkpt>
      <trkpt lat="38.116899" lon="-2.891399">
        <ele>1138.8</ele>
      </trkpt>
      <trkpt lat="38.116843" lon="-2.891492">
        <ele>1138.8</ele>
      </trkpt>
      <trkpt lat="38.116727" lon="-2.891485">
        <ele>1130.6</ele>
      </trkpt>
      <trkpt lat="38.116409" lon="-2.891624">
        <ele>1129.7</ele>
      </trkpt>
      <trkpt lat="38.115941" lon="-2.891752">
        <ele>1126.8</ele>
      </trkpt>
      <trkpt lat="38.115760" lon="-2.891840">
        <ele>1125.8</ele>
      </trkpt>
      <trkpt lat="38.115602" lon="-2.891962">
        <ele>1126.8</ele>
      </trkpt>
      <trkpt lat="38.115510" lon="-2.892052">
        <ele>1128.2</ele>
      </trkpt>
      <trkpt lat="38.115346" lon="-2.892170">
        <ele>1124.9</ele>
      </trkpt>
      <trkpt lat="38.115099" lon="-2.892565">
        <ele>1122.5</ele>
      </trkpt>
      <trkpt lat="38.115017" lon="-2.892621">
        <ele>1119.6</ele>
      </trkpt>
      <trkpt lat="38.114570" lon="-2.892715">
        <ele>1121.0</ele>
      </trkpt>
      <trkpt lat="38.114204" lon="-2.892772">
        <ele>1119.6</ele>
      </trkpt>
      <trkpt lat="38.114108" lon="-2.892753">
        <ele>1115.7</ele>
      </trkpt>
      <trkpt lat="38.113580" lon="-2.892777">
        <ele>1110.5</ele>
      </trkpt>
      <trkpt lat="38.113446" lon="-2.892814">
        <ele>1102.3</ele>
      </trkpt>
      <trkpt lat="38.112991" lon="-2.892813">
        <ele>1097.0</ele>
      </trkpt>
      <trkpt lat="38.112471" lon="-2.892778">
        <ele>1089.8</ele>
      </trkpt>
      <trkpt lat="38.112167" lon="-2.892807">
        <ele>1088.8</ele>
      </trkpt>
      <trkpt lat="38.111762" lon="-2.892974">
        <ele>1088.3</ele>
      </trkpt>
      <trkpt lat="38.111557" lon="-2.892941">
        <ele>1062.6</ele>
        <time>1989-12-30T23:59:59Z</time>
      </trkpt>
      <trkpt lat="38.111277" lon="-2.893027">
        <ele>1058.4</ele>
        <time>1989-12-30T23:59:59Z</time>
      </trkpt>
      <trkpt lat="38.111173" lon="-2.893016">
        <ele>1056.9</ele>
        <time>1989-12-30T23:59:59Z</time>
      </trkpt>
      <trkpt lat="38.110792" lon="-2.893003">
        <ele>1055.6</ele>
        <time>1989-12-30T23:59:59Z</time>
      </trkpt>
      <trkpt lat="38.110597" lon="-2.893047">
        <ele>1055.4</ele>
        <time>1989-12-30T23:59:59Z</time>
      </trkpt>
      <trkpt lat="38.110341" lon="-2.892866">
        <ele>1054.7</ele>
        <time>1989-12-30T23:59:59Z</time>
      </trkpt>
      <trkpt lat="38.110077" lon="-2.892951">
        <ele>1053.6</ele>
        <time>1989-12-30T23:59:59Z</time>
      </trkpt>
      <trkpt lat="38.109807" lon="-2.893088">
        <ele>1054.6</ele>
        <time>1989-12-30T23:59:59Z</time>
      </trkpt>
      <trkpt lat="38.109301" lon="-2.892948">
        <ele>1052.6</ele>
        <time>1989-12-30T23:59:59Z</time>
      </trkpt>
      <trkpt lat="38.108982" lon="-2.893006">
        <ele>1052.2</ele>
        <time>1989-12-30T23:59:59Z</time>
      </trkpt>
      <trkpt lat="38.108893" lon="-2.893039">
        <ele>1052.4</ele>
        <time>1989-12-30T23:59:59Z</time>
      </trkpt>
      <trkpt lat="38.108813" lon="-2.893051">
        <ele>1052.5</ele>
        <time>1989-12-30T23:59:59Z</time>
      </trkpt>
      <trkpt lat="38.108593" lon="-2.893231">
        <ele>1054.0</ele>
        <time>1989-12-30T23:59:59Z</time>
      </trkpt>
      <trkpt lat="38.108551" lon="-2.893253">
        <ele>1053.8</ele>
        <time>1989-12-30T23:59:59Z</time>
      </trkpt>
      <trkpt lat="38.108494" lon="-2.893277">
        <ele>1053.6</ele>
        <time>1989-12-30T23:59:59Z</time>
      </trkpt>
      <trkpt lat="38.108157" lon="-2.893423">
        <ele>1051.0</ele>
        <time>1989-12-30T23:59:59Z</time>
      </trkpt>
      <trkpt lat="38.108103" lon="-2.893412">
        <ele>1050.3</ele>
        <time>1989-12-30T23:59:59Z</time>
      </trkpt>
      <trkpt lat="38.107639" lon="-2.893583">
        <ele>1049.6</ele>
        <time>1989-12-30T23:59:59Z</time>
      </trkpt>
      <trkpt lat="38.107459" lon="-2.893679">
        <ele>1051.8</ele>
        <time>1989-12-30T23:59:59Z</time>
      </trkpt>
      <trkpt lat="38.107164" lon="-2.893651">
        <ele>1055.0</ele>
        <time>1989-12-30T23:59:59Z</time>
      </trkpt>
      <trkpt lat="38.106952" lon="-2.893624">
        <ele>1056.4</ele>
        <time>1989-12-30T23:59:59Z</time>
      </trkpt>
      <trkpt lat="38.106809" lon="-2.893471">
        <ele>1054.5</ele>
        <time>1989-12-30T23:59:59Z</time>
      </trkpt>
      <trkpt lat="38.106806" lon="-2.893165">
        <ele>1050.8</ele>
        <time>1989-12-30T23:59:59Z</time>
      </trkpt>
      <trkpt lat="38.106637" lon="-2.893084">
        <ele>1047.9</ele>
        <time>1989-12-30T23:59:59Z</time>
      </trkpt>
      <trkpt lat="38.106527" lon="-2.892790">
        <ele>1049.2</ele>
        <time>1989-12-30T23:59:59Z</time>
      </trkpt>
      <trkpt lat="38.106441" lon="-2.892573">
        <ele>1051.3</ele>
        <time>1989-12-30T23:59:59Z</time>
      </trkpt>
      <trkpt lat="38.106292" lon="-2.892325">
        <ele>1052.1</ele>
        <time>1989-12-30T23:59:59Z</time>
      </trkpt>
      <trkpt lat="38.106175" lon="-2.892302">
        <ele>1050.0</ele>
        <time>1989-12-30T23:59:59Z</time>
      </trkpt>
      <trkpt lat="38.105613" lon="-2.892218">
        <ele>1035.1</ele>
        <time>1989-12-30T23:59:59Z</time>
      </trkpt>
      <trkpt lat="38.105485" lon="-2.892125">
        <ele>1033.0</ele>
        <time>1989-12-30T23:59:59Z</time>
      </trkpt>
      <trkpt lat="38.105301" lon="-2.891862">
        <ele>1034.0</ele>
        <time>1989-12-30T23:59:59Z</time>
      </trkpt>
      <trkpt lat="38.105301" lon="-2.891862">
        <ele>1034.0</ele>
        <time>1989-12-30T23:59:59Z</time>
      </trkpt>
      <trkpt lat="38.105215" lon="-2.891707">
        <ele>1035.8</ele>
        <time>1989-12-30T23:59:59Z</time>
      </trkpt>
      <trkpt lat="38.105055" lon="-2.891568">
        <ele>1035.9</ele>
        <time>1989-12-30T23:59:59Z</time>
      </trkpt>
      <trkpt lat="38.104859" lon="-2.891459">
        <ele>1035.0</ele>
        <time>1989-12-30T23:59:59Z</time>
      </trkpt>
      <trkpt lat="38.104578" lon="-2.891413">
        <ele>1031.0</ele>
        <time>1989-12-30T23:59:59Z</time>
      </trkpt>
      <trkpt lat="38.104272" lon="-2.891352">
        <ele>1028.9</ele>
        <time>1989-12-30T23:59:59Z</time>
      </trkpt>
      <trkpt lat="38.103978" lon="-2.891275">
        <ele>1027.0</ele>
        <time>1989-12-30T23:59:59Z</time>
      </trkpt>
      <trkpt lat="38.103867" lon="-2.891011">
        <ele>1030.6</ele>
        <time>1989-12-30T23:59:59Z</time>
      </trkpt>
      <trkpt lat="38.104245" lon="-2.889569">
        <ele>1040.3</ele>
        <time>1989-12-30T23:59:59Z</time>
      </trkpt>
      <trkpt lat="38.104319" lon="-2.888331">
        <ele>1034.3</ele>
        <time>1989-12-30T23:59:59Z</time>
      </trkpt>
      <trkpt lat="38.104324" lon="-2.888211">
        <ele>1034.3</ele>
        <time>1989-12-30T23:59:59Z</time>
      </trkpt>
      <trkpt lat="38.104382" lon="-2.888064">
        <ele>1035.6</ele>
        <time>1989-12-30T23:59:59Z</time>
      </trkpt>
      <trkpt lat="38.104301" lon="-2.887756">
        <ele>1035.8</ele>
        <time>1989-12-30T23:59:59Z</time>
      </trkpt>
      <trkpt lat="38.104111" lon="-2.887551">
        <ele>1033.5</ele>
        <time>1989-12-30T23:59:59Z</time>
      </trkpt>
      <trkpt lat="38.103908" lon="-2.887335">
        <ele>1031.5</ele>
        <time>1989-12-30T23:59:59Z</time>
      </trkpt>
      <trkpt lat="38.103911" lon="-2.887202">
        <ele>1033.0</ele>
        <time>1989-12-30T23:59:59Z</time>
      </trkpt>
      <trkpt lat="38.103923" lon="-2.886913">
        <ele>1030.0</ele>
        <time>1989-12-30T23:59:59Z</time>
      </trkpt>
      <trkpt lat="38.104089" lon="-2.886497">
        <ele>1028.3</ele>
        <time>1989-12-30T23:59:59Z</time>
      </trkpt>
      <trkpt lat="38.104221" lon="-2.886485">
        <ele>1031.0</ele>
        <time>1989-12-30T23:59:59Z</time>
      </trkpt>
      <trkpt lat="38.104573" lon="-2.886389">
        <ele>1037.3</ele>
        <time>1989-12-30T23:59:59Z</time>
      </trkpt>
      <trkpt lat="38.104659" lon="-2.886066">
        <ele>1036.0</ele>
        <time>1989-12-30T23:59:59Z</time>
      </trkpt>
      <trkpt lat="38.104573" lon="-2.885895">
        <ele>1033.0</ele>
        <time>1989-12-30T23:59:59Z</time>
      </trkpt>
      <trkpt lat="38.104462" lon="-2.885756">
        <ele>1029.5</ele>
        <time>1989-12-30T23:59:59Z</time>
      </trkpt>
      <trkpt lat="38.104131" lon="-2.885570">
        <ele>1019.6</ele>
        <time>1989-12-30T23:59:59Z</time>
      </trkpt>
      <trkpt lat="38.103960" lon="-2.885540">
        <ele>1015.0</ele>
        <time>1989-12-30T23:59:59Z</time>
      </trkpt>
      <trkpt lat="38.103580" lon="-2.885525">
        <ele>1004.7</ele>
        <time>1989-12-30T23:59:59Z</time>
      </trkpt>
      <trkpt lat="38.103384" lon="-2.885386">
        <ele>1000.8</ele>
        <time>1989-12-30T23:59:59Z</time>
      </trkpt>
      <trkpt lat="38.103298" lon="-2.884936">
        <ele>1004.3</ele>
        <time>1989-12-30T23:59:59Z</time>
      </trkpt>
      <trkpt lat="38.103004" lon="-2.884859">
        <ele>994.1</ele>
        <time>1989-12-30T23:59:59Z</time>
      </trkpt>
      <trkpt lat="38.102844" lon="-2.884767">
        <ele>988.7</ele>
        <time>1989-12-30T23:59:59Z</time>
      </trkpt>
      <trkpt lat="38.102832" lon="-2.884482">
        <ele>988.8</ele>
        <time>1989-12-30T23:59:59Z</time>
      </trkpt>
      <trkpt lat="38.102966" lon="-2.884348">
        <ele>994.6</ele>
        <time>1989-12-30T23:59:59Z</time>
      </trkpt>
      <trkpt lat="38.103101" lon="-2.884146">
        <ele>1000.6</ele>
        <time>1989-12-30T23:59:59Z</time>
      </trkpt>
      <trkpt lat="38.103130" lon="-2.883833">
        <ele>1002.2</ele>
        <time>1989-12-30T23:59:59Z</time>
      </trkpt>
      <trkpt lat="38.103309" lon="-2.883464">
        <ele>1007.2</ele>
        <time>1989-12-30T23:59:59Z</time>
      </trkpt>
      <trkpt lat="38.103210" lon="-2.883092">
        <ele>999.6</ele>
        <time>1989-12-30T23:59:59Z</time>
      </trkpt>
      <trkpt lat="38.102941" lon="-2.882860">
        <ele>988.0</ele>
        <time>1989-12-30T23:59:59Z</time>
      </trkpt>
      <trkpt lat="38.102780" lon="-2.881992">
        <ele>988.6</ele>
        <time>1989-12-30T23:59:59Z</time>
      </trkpt>
      <trkpt lat="38.102878" lon="-2.881713">
        <ele>995.0</ele>
        <time>1989-12-30T23:59:59Z</time>
      </trkpt>
      <trkpt lat="38.103221" lon="-2.881403">
        <ele>1012.5</ele>
        <time>1989-12-30T23:59:59Z</time>
      </trkpt>
      <trkpt lat="38.103123" lon="-2.881170">
        <ele>1009.1</ele>
        <time>1989-12-30T23:59:59Z</time>
      </trkpt>
      <trkpt lat="38.102951" lon="-2.880938">
        <ele>1003.0</ele>
        <time>1989-12-30T23:59:59Z</time>
      </trkpt>
      <trkpt lat="38.102951" lon="-2.880938">
        <ele>1003.0</ele>
        <time>1989-12-30T23:59:59Z</time>
      </trkpt>
      <trkpt lat="38.102828" lon="-2.880799">
        <ele>999.1</ele>
        <time>1989-12-30T23:59:59Z</time>
      </trkpt>
      <trkpt lat="38.102742" lon="-2.880628">
        <ele>997.5</ele>
        <time>1989-12-30T23:59:59Z</time>
      </trkpt>
      <trkpt lat="38.102632" lon="-2.880396">
        <ele>996.6</ele>
        <time>1989-12-30T23:59:59Z</time>
      </trkpt>
      <trkpt lat="38.102484" lon="-2.880040">
        <ele>996.3</ele>
        <time>1989-12-30T23:59:59Z</time>
      </trkpt>
      <trkpt lat="38.102215" lon="-2.879854">
        <ele>990.3</ele>
        <time>1989-12-30T23:59:59Z</time>
      </trkpt>
      <trkpt lat="38.102325" lon="-2.879544">
        <ele>995.1</ele>
        <time>1989-12-30T23:59:59Z</time>
      </trkpt>
      <trkpt lat="38.102532" lon="-2.879017">
        <ele>1003.5</ele>
        <time>1989-12-30T23:59:59Z</time>
      </trkpt>
      <trkpt lat="38.102410" lon="-2.878769">
        <ele>999.1</ele>
        <time>1989-12-30T23:59:59Z</time>
      </trkpt>
      <trkpt lat="38.102374" lon="-2.878538">
        <ele>997.5</ele>
        <time>1989-12-30T23:59:59Z</time>
      </trkpt>
      <trkpt lat="38.102388" lon="-2.878212">
        <ele>997.7</ele>
        <time>1989-12-30T23:59:59Z</time>
      </trkpt>
      <trkpt lat="38.102424" lon="-2.877871">
        <ele>998.6</ele>
        <time>1989-12-30T23:59:59Z</time>
      </trkpt>
      <trkpt lat="38.102506" lon="-2.877420">
        <ele>1000.3</ele>
        <time>1989-12-30T23:59:59Z</time>
      </trkpt>
      <trkpt lat="38.102420" lon="-2.877033">
        <ele>998.3</ele>
        <time>1989-12-30T23:59:59Z</time>
      </trkpt>
      <trkpt lat="38.102371" lon="-2.876847">
        <ele>998.5</ele>
        <time>1989-12-30T23:59:59Z</time>
      </trkpt>
      <trkpt lat="38.102371" lon="-2.876847">
        <ele>998.5</ele>
        <time>1989-12-30T23:59:59Z</time>
      </trkpt>
      <trkpt lat="38.102322" lon="-2.876630">
        <ele>999.4</ele>
        <time>1989-12-30T23:59:59Z</time>
      </trkpt>
      <trkpt lat="38.102358" lon="-2.876398">
        <ele>1001.6</ele>
        <time>1989-12-30T23:59:59Z</time>
      </trkpt>
      <trkpt lat="38.102321" lon="-2.876119">
        <ele>1003.6</ele>
        <time>1989-12-30T23:59:59Z</time>
      </trkpt>
      <trkpt lat="38.102321" lon="-2.876119">
        <ele>1003.6</ele>
        <time>1989-12-30T23:59:59Z</time>
      </trkpt>
      <trkpt lat="38.102235" lon="-2.875855">
        <ele>1005.6</ele>
        <time>1989-12-30T23:59:59Z</time>
      </trkpt>
      <trkpt lat="38.102330" lon="-2.875636">
        <ele>1007.4</ele>
        <time>1989-12-30T23:59:59Z</time>
      </trkpt>
      <trkpt lat="38.102366" lon="-2.875342">
        <ele>1009.5</ele>
        <time>1989-12-30T23:59:59Z</time>
      </trkpt>
      <trkpt lat="38.102457" lon="-2.874928">
        <ele>1012.6</ele>
        <time>1989-12-30T23:59:59Z</time>
      </trkpt>
      <trkpt lat="38.102467" lon="-2.874553">
        <ele>1020.3</ele>
        <time>1989-12-30T23:59:59Z</time>
      </trkpt>
      <trkpt lat="38.102479" lon="-2.874212">
        <ele>1035.1</ele>
        <time>1989-12-30T23:59:59Z</time>
      </trkpt>
      <trkpt lat="38.102466" lon="-2.874010">
        <ele>1044.2</ele>
        <time>1989-12-30T23:59:59Z</time>
      </trkpt>
      <trkpt lat="38.102527" lon="-2.873623">
        <ele>1051.0</ele>
        <time>1989-12-30T23:59:59Z</time>
      </trkpt>
      <trkpt lat="38.102614" lon="-2.873346">
        <ele>1048.3</ele>
        <time>1989-12-30T23:59:59Z</time>
      </trkpt>
      <trkpt lat="38.102630" lon="-2.873018">
        <ele>1048.8</ele>
        <time>1989-12-30T23:59:59Z</time>
      </trkpt>
      <trkpt lat="38.102675" lon="-2.872541">
        <ele>1054.4</ele>
        <time>1989-12-30T23:59:59Z</time>
      </trkpt>
      <trkpt lat="38.102685" lon="-2.872204">
        <ele>1059.7</ele>
        <time>1989-12-30T23:59:59Z</time>
      </trkpt>
      <trkpt lat="38.102831" lon="-2.871778">
        <ele>1056.4</ele>
        <time>1989-12-30T23:59:59Z</time>
      </trkpt>
      <trkpt lat="38.102920" lon="-2.871208">
        <ele>1070.0</ele>
        <time>1989-12-30T23:59:59Z</time>
      </trkpt>
      <trkpt lat="38.102954" lon="-2.871049">
        <ele>1074.0</ele>
        <time>1989-12-30T23:59:59Z</time>
      </trkpt>
      <trkpt lat="38.102854" lon="-2.870662">
        <ele>1079.2</ele>
        <time>1989-12-30T23:59:59Z</time>
      </trkpt>
      <trkpt lat="38.102719" lon="-2.870337">
        <ele>1080.5</ele>
        <time>1989-12-30T23:59:59Z</time>
      </trkpt>
      <trkpt lat="38.102670" lon="-2.869841">
        <ele>1072.3</ele>
        <time>1989-12-30T23:59:59Z</time>
      </trkpt>
      <trkpt lat="38.102706" lon="-2.869221">
        <ele>1057.9</ele>
        <time>1989-12-30T23:59:59Z</time>
      </trkpt>
      <trkpt lat="38.103023" lon="-2.868523">
        <ele>1050.8</ele>
        <time>1989-12-30T23:59:59Z</time>
      </trkpt>
      <trkpt lat="38.102997" lon="-2.868545">
        <ele>1050.4</ele>
        <time>1989-12-30T23:59:59Z</time>
      </trkpt>
      <trkpt lat="38.103060" lon="-2.868186">
        <ele>1049.8</ele>
        <time>1989-12-30T23:59:59Z</time>
      </trkpt>
      <trkpt lat="38.103060" lon="-2.867916">
        <ele>1049.4</ele>
        <time>1989-12-30T23:59:59Z</time>
      </trkpt>
      <trkpt lat="38.102946" lon="-2.867397">
        <ele>1050.0</ele>
        <time>1989-12-30T23:59:59Z</time>
      </trkpt>
      <trkpt lat="38.102875" lon="-2.866842">
        <ele>1053.9</ele>
        <time>1989-12-30T23:59:59Z</time>
      </trkpt>
      <trkpt lat="38.102577" lon="-2.866359">
        <ele>1063.0</ele>
        <time>1989-12-30T23:59:59Z</time>
      </trkpt>
      <trkpt lat="38.102209" lon="-2.865930">
        <ele>1066.5</ele>
        <time>1989-12-30T23:59:59Z</time>
      </trkpt>
      <trkpt lat="38.101968" lon="-2.866091">
        <ele>1072.0</ele>
        <time>1989-12-30T23:59:59Z</time>
      </trkpt>
      <trkpt lat="38.101954" lon="-2.866109">
        <ele>1073.6</ele>
        <time>2010-08-10T09:54:16Z</time>
      </trkpt>
      <trkpt lat="38.101940" lon="-2.866306">
        <ele>1076.8</ele>
        <time>2010-08-10T09:54:16Z</time>
      </trkpt>
      <trkpt lat="38.101983" lon="-2.866664">
        <ele>1072.7</ele>
        <time>2010-08-10T09:54:16Z</time>
      </trkpt>
      <trkpt lat="38.102025" lon="-2.866897">
        <ele>1069.0</ele>
        <time>2010-08-10T09:54:16Z</time>
      </trkpt>
      <trkpt lat="38.102096" lon="-2.867112">
        <ele>1067.4</ele>
        <time>2010-08-10T09:54:16Z</time>
      </trkpt>
      <trkpt lat="38.102096" lon="-2.867112">
        <ele>1067.4</ele>
        <time>2010-08-10T09:54:16Z</time>
      </trkpt>
      <trkpt lat="38.102139" lon="-2.867291">
        <ele>1065.1</ele>
        <time>2010-08-10T09:54:16Z</time>
      </trkpt>
      <trkpt lat="38.102154" lon="-2.867649">
        <ele>1061.0</ele>
        <time>2010-08-10T09:54:16Z</time>
      </trkpt>
      <trkpt lat="38.102126" lon="-2.867936">
        <ele>1058.5</ele>
        <time>2010-08-10T09:54:16Z</time>
      </trkpt>
      <trkpt lat="38.102169" lon="-2.868259">
        <ele>1055.1</ele>
        <time>2010-08-10T09:54:16Z</time>
      </trkpt>
      <trkpt lat="38.102013" lon="-2.868527">
        <ele>1054.4</ele>
        <time>2010-08-10T09:54:16Z</time>
      </trkpt>
      <trkpt lat="38.101447" lon="-2.868636">
        <ele>1065.5</ele>
        <time>2010-08-10T09:54:16Z</time>
      </trkpt>
      <trkpt lat="38.101447" lon="-2.868636">
        <ele>1065.5</ele>
        <time>2010-08-10T09:54:16Z</time>
      </trkpt>
      <trkpt lat="38.101235" lon="-2.868744">
        <ele>1067.2</ele>
        <time>2010-08-10T09:54:16Z</time>
      </trkpt>
      <trkpt lat="38.101065" lon="-2.868869">
        <ele>1071.2</ele>
        <time>2010-08-10T09:54:16Z</time>
      </trkpt>
      <trkpt lat="38.100924" lon="-2.869138">
        <ele>1079.8</ele>
        <time>2010-08-10T09:54:16Z</time>
      </trkpt>
      <trkpt lat="38.100797" lon="-2.869389">
        <ele>1086.6</ele>
        <time>2010-08-10T09:54:16Z</time>
      </trkpt>
      <trkpt lat="38.100811" lon="-2.869640">
        <ele>1087.6</ele>
        <time>2010-08-10T09:54:16Z</time>
      </trkpt>
      <trkpt lat="38.100811" lon="-2.869837">
        <ele>1091.0</ele>
        <time>2010-08-10T09:54:16Z</time>
      </trkpt>
      <trkpt lat="38.100897" lon="-2.870106">
        <ele>1094.4</ele>
        <time>2010-08-10T09:54:16Z</time>
      </trkpt>
      <trkpt lat="38.101010" lon="-2.870285">
        <ele>1095.8</ele>
        <time>2010-08-10T09:54:16Z</time>
      </trkpt>
      <trkpt lat="38.101237" lon="-2.870338">
        <ele>1092.7</ele>
        <time>2010-08-10T09:54:16Z</time>
      </trkpt>
      <trkpt lat="38.101492" lon="-2.870391">
        <ele>1092.0</ele>
        <time>2010-08-10T09:54:16Z</time>
      </trkpt>
      <trkpt lat="38.101689" lon="-2.870355">
        <ele>1089.3</ele>
        <time>2010-08-10T09:54:16Z</time>
      </trkpt>
      <trkpt lat="38.102058" lon="-2.870408">
        <ele>1087.7</ele>
        <time>2010-08-10T09:54:16Z</time>
      </trkpt>
      <trkpt lat="38.102086" lon="-2.870623">
        <ele>1093.1</ele>
        <time>2010-08-10T09:54:16Z</time>
      </trkpt>
      <trkpt lat="38.101775" lon="-2.870660">
        <ele>1097.5</ele>
        <time>2010-08-10T09:54:16Z</time>
      </trkpt>
      <trkpt lat="38.101577" lon="-2.870713">
        <ele>1101.8</ele>
        <time>2010-08-10T09:54:16Z</time>
      </trkpt>
      <trkpt lat="38.101421" lon="-2.870804">
        <ele>1104.3</ele>
        <time>2010-08-10T09:54:16Z</time>
      </trkpt>
      <trkpt lat="38.101209" lon="-2.870894">
        <ele>1110.0</ele>
        <time>2010-08-10T09:54:16Z</time>
      </trkpt>
      <trkpt lat="38.101209" lon="-2.870894">
        <ele>1110.0</ele>
        <time>2010-08-10T09:54:16Z</time>
      </trkpt>
      <trkpt lat="38.101209" lon="-2.870894">
        <ele>1110.0</ele>
        <time>2010-08-10T09:54:16Z</time>
      </trkpt>
      <trkpt lat="38.101209" lon="-2.870894">
        <ele>1110.0</ele>
        <time>2010-08-10T09:54:16Z</time>
      </trkpt>
      <trkpt lat="38.101039" lon="-2.871019">
        <ele>1116.3</ele>
        <time>2010-08-10T09:54:16Z</time>
      </trkpt>
      <trkpt lat="38.100884" lon="-2.871055">
        <ele>1119.4</ele>
        <time>2010-08-10T09:54:16Z</time>
      </trkpt>
      <trkpt lat="38.100884" lon="-2.871055">
        <ele>1120.9</ele>
        <time>2010-08-10T09:54:16Z</time>
      </trkpt>
      <trkpt lat="38.100685" lon="-2.871073">
        <ele>1123.2</ele>
        <time>2010-08-10T09:54:16Z</time>
      </trkpt>
      <trkpt lat="38.100362" lon="-2.871017">
        <ele>1125.3</ele>
        <time>2010-08-10T09:54:16Z</time>
      </trkpt>
      <trkpt lat="38.100289" lon="-2.870824">
        <ele>1124.9</ele>
        <time>2010-08-10T09:54:16Z</time>
      </trkpt>
      <trkpt lat="38.100189" lon="-2.870483">
        <ele>1124.5</ele>
        <time>2010-08-10T09:54:16Z</time>
      </trkpt>
      <trkpt lat="38.100104" lon="-2.870340">
        <ele>1129.2</ele>
        <time>2010-08-10T09:54:16Z</time>
      </trkpt>
      <trkpt lat="38.100104" lon="-2.870340">
        <ele>1129.2</ele>
        <time>2010-08-10T09:54:16Z</time>
      </trkpt>
      <trkpt lat="38.100104" lon="-2.870340">
        <ele>1129.2</ele>
        <time>2010-08-10T09:54:16Z</time>
      </trkpt>
      <trkpt lat="38.099906" lon="-2.870520">
        <ele>1142.8</ele>
        <time>2010-08-10T09:54:16Z</time>
      </trkpt>
      <trkpt lat="38.099906" lon="-2.870520">
        <ele>1142.8</ele>
        <time>2010-08-10T09:54:16Z</time>
      </trkpt>
      <trkpt lat="38.099892" lon="-2.870788">
        <ele>1146.6</ele>
        <time>2010-08-10T09:54:16Z</time>
      </trkpt>
      <trkpt lat="38.099949" lon="-2.871003">
        <ele>1146.0</ele>
        <time>2010-08-10T09:54:16Z</time>
      </trkpt>
      <trkpt lat="38.099949" lon="-2.871003">
        <ele>1146.0</ele>
        <time>2010-08-10T09:54:16Z</time>
      </trkpt>
      <trkpt lat="38.100077" lon="-2.871290">
        <ele>1143.9</ele>
        <time>2010-08-10T09:54:16Z</time>
      </trkpt>
      <trkpt lat="38.100289" lon="-2.871432">
        <ele>1136.9</ele>
        <time>2010-08-10T09:54:16Z</time>
      </trkpt>
      <trkpt lat="38.100516" lon="-2.871396">
        <ele>1132.1</ele>
        <time>2010-08-10T09:54:16Z</time>
      </trkpt>
      <trkpt lat="38.100714" lon="-2.871414">
        <ele>1130.5</ele>
        <time>2010-08-10T09:54:16Z</time>
      </trkpt>
      <trkpt lat="38.100926" lon="-2.871449">
        <ele>1129.2</ele>
        <time>2010-08-10T09:54:16Z</time>
      </trkpt>
      <trkpt lat="38.101139" lon="-2.871449">
        <ele>1127.2</ele>
        <time>2010-08-10T09:54:16Z</time>
      </trkpt>
      <trkpt lat="38.101139" lon="-2.871682">
        <ele>1131.4</ele>
        <time>2010-08-10T09:54:16Z</time>
      </trkpt>
      <trkpt lat="38.100792" lon="-2.871816">
        <ele>1136.1</ele>
        <time>2010-08-10T09:54:16Z</time>
      </trkpt>
      <trkpt lat="38.100606" lon="-2.871935">
        <ele>1139.2</ele>
        <time>2010-08-10T09:54:16Z</time>
      </trkpt>
      <trkpt lat="38.100517" lon="-2.871960">
        <ele>1140.1</ele>
        <time>2010-08-10T09:54:16Z</time>
      </trkpt>
      <trkpt lat="38.100415" lon="-2.871990">
        <ele>1141.1</ele>
        <time>2010-08-10T09:54:16Z</time>
      </trkpt>
      <trkpt lat="38.100373" lon="-2.872017">
        <ele>1141.7</ele>
        <time>2010-08-10T09:54:16Z</time>
      </trkpt>
      <trkpt lat="38.100141" lon="-2.872081">
        <ele>1150.0</ele>
        <time>2010-08-10T09:54:16Z</time>
      </trkpt>
      <trkpt lat="38.100220" lon="-2.872239">
        <ele>1149.1</ele>
        <time>2010-08-10T09:54:16Z</time>
      </trkpt>
      <trkpt lat="38.100403" lon="-2.872274">
        <ele>1144.9</ele>
        <time>2010-08-10T09:54:16Z</time>
      </trkpt>
      <trkpt lat="38.100588" lon="-2.872292">
        <ele>1144.4</ele>
        <time>2010-08-10T09:54:16Z</time>
      </trkpt>
      <trkpt lat="38.100743" lon="-2.872310">
        <ele>1144.1</ele>
        <time>2010-08-10T09:54:16Z</time>
      </trkpt>
      <trkpt lat="38.100743" lon="-2.872310">
        <ele>1144.1</ele>
        <time>2010-08-10T09:54:16Z</time>
      </trkpt>
      <trkpt lat="38.100800" lon="-2.872524">
        <ele>1147.5</ele>
        <time>2010-08-10T09:54:16Z</time>
      </trkpt>
      <trkpt lat="38.100716" lon="-2.872758">
        <ele>1151.2</ele>
        <time>2010-08-10T09:54:16Z</time>
      </trkpt>
      <trkpt lat="38.100507" lon="-2.872800">
        <ele>1151.6</ele>
        <time>2010-08-10T09:54:16Z</time>
      </trkpt>
      <trkpt lat="38.100507" lon="-2.872800">
        <ele>1151.6</ele>
        <time>2010-08-10T09:54:16Z</time>
      </trkpt>
      <trkpt lat="38.100178" lon="-2.872776">
        <ele>1155.3</ele>
        <time>2010-08-10T09:54:16Z</time>
      </trkpt>
      <trkpt lat="38.100149" lon="-2.872955">
        <ele>1157.5</ele>
        <time>2010-08-10T09:54:16Z</time>
      </trkpt>
      <trkpt lat="38.100149" lon="-2.872955">
        <ele>1157.5</ele>
        <time>2010-08-10T09:54:16Z</time>
      </trkpt>
      <trkpt lat="38.100164" lon="-2.873152">
        <ele>1159.5</ele>
        <time>2010-08-10T09:54:16Z</time>
      </trkpt>
      <trkpt lat="38.100164" lon="-2.873152">
        <ele>1159.5</ele>
        <time>2010-08-10T09:54:16Z</time>
      </trkpt>
      <trkpt lat="38.100178" lon="-2.873457">
        <ele>1163.1</ele>
        <time>2010-08-10T09:54:16Z</time>
      </trkpt>
      <trkpt lat="38.099989" lon="-2.873778">
        <ele>1169.6</ele>
        <time>2010-08-10T09:54:16Z</time>
      </trkpt>
      <trkpt lat="38.099909" lon="-2.873618">
        <ele>1169.0</ele>
        <time>2010-08-10T09:54:16Z</time>
      </trkpt>
      <trkpt lat="38.099853" lon="-2.873440">
        <ele>1168.0</ele>
        <time>2010-08-10T09:54:16Z</time>
      </trkpt>
      <trkpt lat="38.099753" lon="-2.873279">
        <ele>1168.0</ele>
        <time>2010-08-10T09:54:16Z</time>
      </trkpt>
      <trkpt lat="38.099541" lon="-2.873171">
        <ele>1170.8</ele>
        <time>2010-08-10T09:54:16Z</time>
      </trkpt>
      <trkpt lat="38.099400" lon="-2.873462">
        <ele>1178.7</ele>
        <time>2010-08-10T09:54:16Z</time>
      </trkpt>
      <trkpt lat="38.099394" lon="-2.873591">
        <ele>1179.8</ele>
        <time>2010-08-10T09:54:16Z</time>
      </trkpt>
      <trkpt lat="38.099418" lon="-2.873755">
        <ele>1179.8</ele>
        <time>2010-08-10T09:54:16Z</time>
      </trkpt>
      <trkpt lat="38.099451" lon="-2.873955">
        <ele>1180.2</ele>
        <time>2010-08-10T09:54:16Z</time>
      </trkpt>
      <trkpt lat="38.099486" lon="-2.874166">
        <ele>1181.2</ele>
        <time>2010-08-10T09:54:16Z</time>
      </trkpt>
      <trkpt lat="38.099508" lon="-2.874386">
        <ele>1183.0</ele>
        <time>2010-08-10T09:54:16Z</time>
      </trkpt>
      <trkpt lat="38.099525" lon="-2.874604">
        <ele>1185.0</ele>
        <time>2010-08-10T09:54:16Z</time>
      </trkpt>
      <trkpt lat="38.099534" lon="-2.874816">
        <ele>1185.3</ele>
        <time>2010-08-10T09:54:16Z</time>
      </trkpt>
      <trkpt lat="38.099537" lon="-2.875023">
        <ele>1184.4</ele>
        <time>2010-08-10T09:54:16Z</time>
      </trkpt>
      <trkpt lat="38.099541" lon="-2.875227">
        <ele>1183.4</ele>
        <time>2010-08-10T09:54:16Z</time>
      </trkpt>
      <trkpt lat="38.099374" lon="-2.875662">
        <ele>1178.8</ele>
        <time>2010-08-10T09:54:16Z</time>
      </trkpt>
      <trkpt lat="38.099232" lon="-2.875805">
        <ele>1175.7</ele>
        <time>2010-08-10T09:54:16Z</time>
      </trkpt>
      <trkpt lat="38.098895" lon="-2.875977">
        <ele>1172.8</ele>
        <time>2010-08-10T09:54:16Z</time>
      </trkpt>
      <trkpt lat="38.098655" lon="-2.876052">
        <ele>1172.8</ele>
        <time>2010-08-10T09:54:16Z</time>
      </trkpt>
      <trkpt lat="38.098300" lon="-2.876022">
        <ele>1182.5</ele>
        <time>2010-08-10T09:54:16Z</time>
      </trkpt>
      <trkpt lat="38.098028" lon="-2.876000">
        <ele>1189.9</ele>
        <time>2010-08-10T09:54:16Z</time>
      </trkpt>
      <trkpt lat="38.097742" lon="-2.876026">
        <ele>1198.5</ele>
        <time>2010-08-10T09:54:16Z</time>
      </trkpt>
      <trkpt lat="38.097644" lon="-2.876155">
        <ele>1199.6</ele>
        <time>2010-08-10T09:54:16Z</time>
      </trkpt>
      <trkpt lat="38.097590" lon="-2.876349">
        <ele>1197.1</ele>
        <time>2010-08-10T09:54:16Z</time>
      </trkpt>
      <trkpt lat="38.097295" lon="-2.876903">
        <ele>1201.8</ele>
        <time>2010-08-10T09:54:16Z</time>
      </trkpt>
      <trkpt lat="38.097197" lon="-2.877068">
        <ele>1202.7</ele>
        <time>2010-08-10T09:54:16Z</time>
      </trkpt>
      <trkpt lat="38.097081" lon="-2.877219">
        <ele>1204.3</ele>
        <time>2010-08-10T09:54:16Z</time>
      </trkpt>
      <trkpt lat="38.096813" lon="-2.877457">
        <ele>1213.6</ele>
        <time>2010-08-10T09:54:16Z</time>
      </trkpt>
      <trkpt lat="38.096729" lon="-2.877690">
        <ele>1215.5</ele>
        <time>2010-08-10T09:54:16Z</time>
      </trkpt>
      <trkpt lat="38.096701" lon="-2.878192">
        <ele>1214.6</ele>
        <time>2010-08-10T09:54:16Z</time>
      </trkpt>
      <trkpt lat="38.096446" lon="-2.878658">
        <ele>1223.3</ele>
        <time>2010-08-10T09:54:16Z</time>
      </trkpt>
      <trkpt lat="38.096463" lon="-2.879254">
        <ele>1223.9</ele>
        <time>2010-08-10T09:54:16Z</time>
      </trkpt>
      <trkpt lat="38.096478" lon="-2.879666">
        <ele>1224.8</ele>
        <time>2010-08-10T09:54:16Z</time>
      </trkpt>
      <trkpt lat="38.096391" lon="-2.879791">
        <ele>1226.7</ele>
        <time>2010-08-10T09:54:16Z</time>
      </trkpt>
      <trkpt lat="38.096179" lon="-2.880111">
        <ele>1230.9</ele>
        <time>2010-08-10T09:54:16Z</time>
      </trkpt>
      <trkpt lat="38.096128" lon="-2.880230">
        <ele>1232.5</ele>
        <time>2010-08-10T09:54:16Z</time>
      </trkpt>
      <trkpt lat="38.096071" lon="-2.880476">
        <ele>1234.6</ele>
        <time>2010-08-10T09:54:16Z</time>
      </trkpt>
      <trkpt lat="38.096061" lon="-2.880504">
        <ele>1235.0</ele>
        <time>2010-08-10T09:54:16Z</time>
      </trkpt>
      <trkpt lat="38.096004" lon="-2.880818">
        <ele>1237.3</ele>
        <time>2010-08-10T09:54:16Z</time>
      </trkpt>
      <trkpt lat="38.095953" lon="-2.881151">
        <ele>1239.4</ele>
        <time>2010-08-10T09:54:16Z</time>
      </trkpt>
      <trkpt lat="38.095895" lon="-2.881477">
        <ele>1241.3</ele>
        <time>2010-08-10T09:54:16Z</time>
      </trkpt>
      <trkpt lat="38.095805" lon="-2.881934">
        <ele>1242.8</ele>
        <time>2010-08-10T09:54:16Z</time>
      </trkpt>
      <trkpt lat="38.095742" lon="-2.882084">
        <ele>1243.1</ele>
        <time>2010-08-10T09:54:16Z</time>
      </trkpt>
      <trkpt lat="38.095602" lon="-2.882386">
        <ele>1244.6</ele>
        <time>2010-08-10T09:54:16Z</time>
      </trkpt>
      <trkpt lat="38.095541" lon="-2.882554">
        <ele>1245.5</ele>
        <time>2010-08-10T09:54:16Z</time>
      </trkpt>
      <trkpt lat="38.095517" lon="-2.882754">
        <ele>1246.6</ele>
        <time>2010-08-10T09:54:16Z</time>
      </trkpt>
      <trkpt lat="38.095519" lon="-2.882961">
        <ele>1247.9</ele>
        <time>2010-08-10T09:54:16Z</time>
      </trkpt>
      <trkpt lat="38.095497" lon="-2.883158">
        <ele>1249.5</ele>
        <time>2010-08-10T09:54:16Z</time>
      </trkpt>
      <trkpt lat="38.095428" lon="-2.883344">
        <ele>1250.3</ele>
        <time>2010-08-10T09:54:16Z</time>
      </trkpt>
      <trkpt lat="38.095336" lon="-2.883521">
        <ele>1250.9</ele>
        <time>2010-08-10T09:54:16Z</time>
      </trkpt>
      <trkpt lat="38.095255" lon="-2.883703">
        <ele>1252.7</ele>
        <time>2010-08-10T09:54:16Z</time>
      </trkpt>
      <trkpt lat="38.095203" lon="-2.883901">
        <ele>1254.5</ele>
        <time>2010-08-10T09:54:16Z</time>
      </trkpt>
      <trkpt lat="38.095162" lon="-2.884107">
        <ele>1257.1</ele>
        <time>2010-08-10T09:54:16Z</time>
      </trkpt>
      <trkpt lat="38.095020" lon="-2.884489">
        <ele>1261.2</ele>
        <time>2010-08-10T09:54:16Z</time>
      </trkpt>
      <trkpt lat="38.094915" lon="-2.884660">
        <ele>1262.5</ele>
        <time>2010-08-10T09:54:16Z</time>
      </trkpt>
      <trkpt lat="38.094805" lon="-2.884827">
        <ele>1263.9</ele>
        <time>2010-08-10T09:54:16Z</time>
      </trkpt>
      <trkpt lat="38.094698" lon="-2.884991">
        <ele>1264.9</ele>
        <time>2010-08-10T09:54:16Z</time>
      </trkpt>
      <trkpt lat="38.094607" lon="-2.885167">
        <ele>1265.8</ele>
        <time>2010-08-10T09:54:16Z</time>
      </trkpt>
      <trkpt lat="38.094531" lon="-2.885358">
        <ele>1266.6</ele>
        <time>2010-08-10T09:54:16Z</time>
      </trkpt>
      <trkpt lat="38.094418" lon="-2.885666">
        <ele>1270.6</ele>
        <time>2010-08-10T09:54:16Z</time>
      </trkpt>
      <trkpt lat="38.094331" lon="-2.885880">
        <ele>1273.2</ele>
        <time>2010-08-10T09:54:16Z</time>
      </trkpt>
      <trkpt lat="38.094189" lon="-2.886149">
        <ele>1275.5</ele>
        <time>2010-08-10T09:54:16Z</time>
      </trkpt>
      <trkpt lat="38.093977" lon="-2.886597">
        <ele>1278.7</ele>
        <time>2010-08-10T09:54:16Z</time>
      </trkpt>
      <trkpt lat="38.093864" lon="-2.886866">
        <ele>1280.7</ele>
        <time>2010-08-10T09:54:16Z</time>
      </trkpt>
      <trkpt lat="38.093652" lon="-2.887081">
        <ele>1281.5</ele>
        <time>2010-08-10T09:54:16Z</time>
      </trkpt>
      <trkpt lat="38.093468" lon="-2.887171">
        <ele>1284.1</ele>
        <time>2010-08-10T09:54:16Z</time>
      </trkpt>
      <trkpt lat="38.093256" lon="-2.887386">
        <ele>1287.9</ele>
        <time>2010-08-10T09:54:16Z</time>
      </trkpt>
      <trkpt lat="38.093256" lon="-2.887386">
        <ele>1287.9</ele>
        <time>2010-08-10T09:54:16Z</time>
      </trkpt>
      <trkpt lat="38.093030" lon="-2.887530">
        <ele>1289.9</ele>
        <time>2010-08-10T09:54:16Z</time>
      </trkpt>
      <trkpt lat="38.092648" lon="-2.887799">
        <ele>1293.3</ele>
        <time>2010-08-10T09:54:16Z</time>
      </trkpt>
      <trkpt lat="38.092648" lon="-2.887799">
        <ele>1293.3</ele>
        <time>2010-08-10T09:54:16Z</time>
      </trkpt>
      <trkpt lat="38.092436" lon="-2.888050">
        <ele>1295.3</ele>
        <time>2010-08-10T09:54:16Z</time>
      </trkpt>
      <trkpt lat="38.092351" lon="-2.888266">
        <ele>1297.3</ele>
        <time>2010-08-10T09:54:16Z</time>
      </trkpt>
      <trkpt lat="38.092252" lon="-2.888552">
        <ele>1299.3</ele>
        <time>2010-08-10T09:54:16Z</time>
      </trkpt>
      <trkpt lat="38.092083" lon="-2.888911">
        <ele>1301.1</ele>
        <time>2010-08-10T09:54:16Z</time>
      </trkpt>
      <trkpt lat="38.091970" lon="-2.889197">
        <ele>1302.5</ele>
        <time>2010-08-10T09:54:16Z</time>
      </trkpt>
      <trkpt lat="38.091829" lon="-2.889395">
        <ele>1304.5</ele>
        <time>2010-08-10T09:54:16Z</time>
      </trkpt>
      <trkpt lat="38.091715" lon="-2.889628">
        <ele>1305.9</ele>
        <time>2010-08-10T09:54:16Z</time>
      </trkpt>
      <trkpt lat="38.091588" lon="-2.889735">
        <ele>1307.3</ele>
        <time>2010-08-10T09:54:16Z</time>
      </trkpt>
      <trkpt lat="38.091588" lon="-2.889735">
        <ele>1307.3</ele>
        <time>2010-08-10T09:54:16Z</time>
      </trkpt>
      <trkpt lat="38.091447" lon="-2.889986">
        <ele>1308.6</ele>
        <time>2010-08-10T09:54:16Z</time>
      </trkpt>
      <trkpt lat="38.091334" lon="-2.890148">
        <ele>1309.2</ele>
        <time>2010-08-10T09:54:16Z</time>
      </trkpt>
      <trkpt lat="38.091334" lon="-2.890148">
        <ele>1309.2</ele>
        <time>2010-08-10T09:54:16Z</time>
      </trkpt>
      <trkpt lat="38.091192" lon="-2.890398">
        <ele>1309.3</ele>
        <time>2010-08-10T09:54:16Z</time>
      </trkpt>
      <trkpt lat="38.091037" lon="-2.890667">
        <ele>1309.9</ele>
        <time>2010-08-10T09:54:16Z</time>
      </trkpt>
      <trkpt lat="38.090824" lon="-2.890847">
        <ele>1310.5</ele>
        <time>2010-08-10T09:54:16Z</time>
      </trkpt>
      <trkpt lat="38.090627" lon="-2.891062">
        <ele>1310.4</ele>
        <time>2010-08-10T09:54:16Z</time>
      </trkpt>
      <trkpt lat="38.090315" lon="-2.891313">
        <ele>1309.4</ele>
        <time>2010-08-10T09:54:16Z</time>
      </trkpt>
      <trkpt lat="38.090103" lon="-2.891439">
        <ele>1309.4</ele>
        <time>2010-08-10T09:54:16Z</time>
      </trkpt>
      <trkpt lat="38.090103" lon="-2.891439">
        <ele>1309.4</ele>
        <time>2010-08-10T09:54:16Z</time>
      </trkpt>
      <trkpt lat="38.089848" lon="-2.891583">
        <ele>1308.8</ele>
        <time>2010-08-10T09:54:16Z</time>
      </trkpt>
      <trkpt lat="38.089664" lon="-2.891708">
        <ele>1307.9</ele>
        <time>2010-08-10T09:54:16Z</time>
      </trkpt>
      <trkpt lat="38.089552" lon="-2.891816">
        <ele>1306.8</ele>
        <time>2010-08-10T09:54:16Z</time>
      </trkpt>
      <trkpt lat="38.089339" lon="-2.891941">
        <ele>1307.5</ele>
        <time>2010-08-10T09:54:16Z</time>
      </trkpt>
      <trkpt lat="38.089339" lon="-2.891941">
        <ele>1307.5</ele>
        <time>2010-08-10T09:54:16Z</time>
      </trkpt>
      <trkpt lat="38.089156" lon="-2.892085">
        <ele>1307.8</ele>
        <time>2010-08-10T09:54:16Z</time>
      </trkpt>
      <trkpt lat="38.089014" lon="-2.892157">
        <ele>1308.5</ele>
        <time>2010-08-10T09:54:16Z</time>
      </trkpt>
      <trkpt lat="38.088873" lon="-2.892301">
        <ele>1308.9</ele>
        <time>2010-08-10T09:54:16Z</time>
      </trkpt>
      <trkpt lat="38.088646" lon="-2.892498">
        <ele>1309.9</ele>
        <time>2010-08-10T09:54:16Z</time>
      </trkpt>
      <trkpt lat="38.088327" lon="-2.892943">
        <ele>1310.8</ele>
        <time>2010-08-10T09:54:16Z</time>
      </trkpt>
      <trkpt lat="38.087987" lon="-2.893257">
        <ele>1313.8</ele>
        <time>2010-08-10T09:54:16Z</time>
      </trkpt>
      <trkpt lat="38.087662" lon="-2.893572">
        <ele>1315.4</ele>
        <time>2010-08-10T09:54:16Z</time>
      </trkpt>
      <trkpt lat="38.087309" lon="-2.893961">
        <ele>1315.7</ele>
        <time>2010-08-10T09:54:16Z</time>
      </trkpt>
      <trkpt lat="38.087131" lon="-2.894113">
        <ele>1315.7</ele>
        <time>2010-08-10T09:54:16Z</time>
      </trkpt>
      <trkpt lat="38.086931" lon="-2.894256">
        <ele>1315.3</ele>
        <time>2010-08-10T09:54:16Z</time>
      </trkpt>
      <trkpt lat="38.086621" lon="-2.894487">
        <ele>1313.4</ele>
        <time>2010-08-10T09:54:16Z</time>
      </trkpt>
      <trkpt lat="38.086482" lon="-2.894582">
        <ele>1312.3</ele>
        <time>2010-08-10T09:54:16Z</time>
      </trkpt>
      <trkpt lat="38.086349" lon="-2.894683">
        <ele>1311.0</ele>
        <time>2010-08-10T09:54:16Z</time>
      </trkpt>
      <trkpt lat="38.086214" lon="-2.894778">
        <ele>1310.1</ele>
        <time>2010-08-10T09:54:16Z</time>
      </trkpt>
      <trkpt lat="38.086080" lon="-2.894868">
        <ele>1309.8</ele>
        <time>2010-08-10T09:54:16Z</time>
      </trkpt>
      <trkpt lat="38.085828" lon="-2.895064">
        <ele>1308.2</ele>
        <time>2010-08-10T09:54:16Z</time>
      </trkpt>
      <trkpt lat="38.085577" lon="-2.895207">
        <ele>1306.3</ele>
        <time>2010-08-10T09:54:16Z</time>
      </trkpt>
      <trkpt lat="38.085308" lon="-2.895476">
        <ele>1300.7</ele>
        <time>2010-08-10T09:54:16Z</time>
      </trkpt>
      <trkpt lat="38.085124" lon="-2.895584">
        <ele>1298.9</ele>
        <time>2010-08-10T09:54:16Z</time>
      </trkpt>
      <trkpt lat="38.084801" lon="-2.895573">
        <ele>1298.1</ele>
        <time>2010-08-10T09:54:16Z</time>
      </trkpt>
      <trkpt lat="38.084660" lon="-2.895518">
        <ele>1298.3</ele>
        <time>2010-08-10T09:54:16Z</time>
      </trkpt>
      <trkpt lat="38.084519" lon="-2.895484">
        <ele>1298.9</ele>
        <time>2010-08-10T09:54:16Z</time>
      </trkpt>
      <trkpt lat="38.084252" lon="-2.895530">
        <ele>1299.1</ele>
        <time>2010-08-10T09:54:16Z</time>
      </trkpt>
      <trkpt lat="38.084127" lon="-2.895569">
        <ele>1299.1</ele>
        <time>2010-08-10T09:54:16Z</time>
      </trkpt>
      <trkpt lat="38.084007" lon="-2.895612">
        <ele>1299.0</ele>
        <time>2010-08-10T09:54:16Z</time>
      </trkpt>
      <trkpt lat="38.083906" lon="-2.895695">
        <ele>1298.0</ele>
        <time>2010-08-10T09:54:16Z</time>
      </trkpt>
      <trkpt lat="38.083842" lon="-2.895821">
        <ele>1296.1</ele>
        <time>2010-08-10T09:54:16Z</time>
      </trkpt>
      <trkpt lat="38.083837" lon="-2.895970">
        <ele>1293.5</ele>
        <time>2010-08-10T09:54:16Z</time>
      </trkpt>
      <trkpt lat="38.083886" lon="-2.896111">
        <ele>1291.0</ele>
        <time>2010-08-10T09:54:16Z</time>
      </trkpt>
      <trkpt lat="38.083865" lon="-2.896391">
        <ele>1286.5</ele>
        <time>2010-08-10T09:54:16Z</time>
      </trkpt>
      <trkpt lat="38.083815" lon="-2.896599">
        <ele>1283.8</ele>
        <time>2010-08-10T09:54:16Z</time>
      </trkpt>
      <trkpt lat="38.083687" lon="-2.896655">
        <ele>1282.6</ele>
        <time>2010-08-10T09:54:16Z</time>
      </trkpt>
      <trkpt lat="38.083555" lon="-2.896669">
        <ele>1282.0</ele>
        <time>2010-08-10T09:54:16Z</time>
      </trkpt>
      <trkpt lat="38.083432" lon="-2.896623">
        <ele>1282.4</ele>
        <time>2010-08-10T09:54:16Z</time>
      </trkpt>
      <trkpt lat="38.083209" lon="-2.896521">
        <ele>1283.3</ele>
        <time>2010-08-10T09:54:16Z</time>
      </trkpt>
      <trkpt lat="38.082888" lon="-2.896464">
        <ele>1283.5</ele>
        <time>2010-08-10T09:54:16Z</time>
      </trkpt>
      <trkpt lat="38.082662" lon="-2.896608">
        <ele>1283.3</ele>
        <time>2010-08-10T09:54:16Z</time>
      </trkpt>
      <trkpt lat="38.082833" lon="-2.896787">
        <ele>1278.3</ele>
        <time>2010-08-10T09:54:16Z</time>
      </trkpt>
      <trkpt lat="38.082922" lon="-2.896899">
        <ele>1276.7</ele>
        <time>2010-08-10T09:54:16Z</time>
      </trkpt>
      <trkpt lat="38.083199" lon="-2.897198">
        <ele>1273.3</ele>
        <time>2010-08-10T09:54:16Z</time>
      </trkpt>
      <trkpt lat="38.083396" lon="-2.897304">
        <ele>1275.1</ele>
        <time>2010-08-10T09:54:16Z</time>
      </trkpt>
      <trkpt lat="38.083569" lon="-2.897556">
        <ele>1278.9</ele>
        <time>2010-08-10T09:54:16Z</time>
      </trkpt>
      <trkpt lat="38.083563" lon="-2.897765">
        <ele>1281.3</ele>
        <time>2010-08-10T09:54:16Z</time>
      </trkpt>
      <trkpt lat="38.083477" lon="-2.897787">
        <ele>1280.7</ele>
        <time>2010-08-10T09:54:16Z</time>
      </trkpt>
      <trkpt lat="38.083385" lon="-2.897782">
        <ele>1279.7</ele>
        <time>2010-08-10T09:54:16Z</time>
      </trkpt>
      <trkpt lat="38.083287" lon="-2.897770">
        <ele>1278.5</ele>
        <time>2010-08-10T09:54:16Z</time>
      </trkpt>
      <trkpt lat="38.083162" lon="-2.897748">
        <ele>1277.1</ele>
        <time>2010-08-10T09:54:16Z</time>
      </trkpt>
      <trkpt lat="38.082883" lon="-2.897684">
        <ele>1274.0</ele>
        <time>2010-08-10T09:54:16Z</time>
      </trkpt>
      <trkpt lat="38.082608" lon="-2.897613">
        <ele>1271.5</ele>
        <time>2010-08-10T09:54:16Z</time>
      </trkpt>
      <trkpt lat="38.082484" lon="-2.897584">
        <ele>1270.6</ele>
        <time>2010-08-10T09:54:16Z</time>
      </trkpt>
      <trkpt lat="38.082234" lon="-2.897576">
        <ele>1268.8</ele>
        <time>2010-08-10T09:54:16Z</time>
      </trkpt>
      <trkpt lat="38.082104" lon="-2.897659">
        <ele>1267.1</ele>
        <time>2010-08-10T09:54:16Z</time>
      </trkpt>
      <trkpt lat="38.081843" lon="-2.897846">
        <ele>1265.1</ele>
        <time>2010-08-10T09:54:16Z</time>
      </trkpt>
      <trkpt lat="38.081618" lon="-2.898017">
        <ele>1263.0</ele>
        <time>2010-08-10T09:54:16Z</time>
      </trkpt>
      <trkpt lat="38.081296" lon="-2.898262">
        <ele>1262.6</ele>
        <time>2010-08-10T09:54:16Z</time>
      </trkpt>
      <trkpt lat="38.080959" lon="-2.898494">
        <ele>1260.6</ele>
        <time>2010-08-10T09:54:16Z</time>
      </trkpt>
      <trkpt lat="38.080710" lon="-2.898509">
        <ele>1259.9</ele>
        <time>2010-08-10T09:54:16Z</time>
      </trkpt>
      <trkpt lat="38.080470" lon="-2.898581">
        <ele>1258.6</ele>
        <time>2010-08-10T09:54:16Z</time>
      </trkpt>
      <trkpt lat="38.080470" lon="-2.898581">
        <ele>1258.6</ele>
        <time>2010-08-10T09:54:16Z</time>
      </trkpt>
      <trkpt lat="38.080201" lon="-2.898492">
        <ele>1258.7</ele>
        <time>2010-08-10T09:54:16Z</time>
      </trkpt>
      <trkpt lat="38.080017" lon="-2.898421">
        <ele>1258.8</ele>
        <time>2010-08-10T09:54:16Z</time>
      </trkpt>
      <trkpt lat="38.079650" lon="-2.898249">
        <ele>1258.2</ele>
        <time>2010-08-10T09:54:16Z</time>
      </trkpt>
      <trkpt lat="38.079579" lon="-2.898208">
        <ele>1258.0</ele>
        <time>2010-08-10T09:54:16Z</time>
      </trkpt>
      <trkpt lat="38.079300" lon="-2.897957">
        <ele>1260.4</ele>
        <time>2010-08-10T09:54:16Z</time>
      </trkpt>
      <trkpt lat="38.079055" lon="-2.897824">
        <ele>1262.9</ele>
        <time>2010-08-10T09:54:16Z</time>
      </trkpt>
      <trkpt lat="38.078778" lon="-2.897665">
        <ele>1264.0</ele>
        <time>2010-08-10T09:54:16Z</time>
      </trkpt>
      <trkpt lat="38.078582" lon="-2.897554">
        <ele>1267.5</ele>
        <time>2010-08-10T09:54:16Z</time>
      </trkpt>
      <trkpt lat="38.078397" lon="-2.897448">
        <ele>1272.8</ele>
        <time>2010-08-10T09:54:16Z</time>
      </trkpt>
      <trkpt lat="38.078019" lon="-2.897367">
        <ele>1277.9</ele>
        <time>2010-08-10T09:54:16Z</time>
      </trkpt>
      <trkpt lat="38.077906" lon="-2.897533">
        <ele>1288.0</ele>
        <time>2010-08-10T09:54:16Z</time>
      </trkpt>
      <trkpt lat="38.077822" lon="-2.897438">
        <ele>1289.8</ele>
        <time>2010-08-10T09:54:16Z</time>
      </trkpt>
      <trkpt lat="38.077631" lon="-2.897232">
        <ele>1296.2</ele>
        <time>2010-08-10T09:54:16Z</time>
      </trkpt>
      <trkpt lat="38.077547" lon="-2.897082">
        <ele>1297.8</ele>
        <time>2010-08-10T09:54:16Z</time>
      </trkpt>
      <trkpt lat="38.077391" lon="-2.896802">
        <ele>1299.7</ele>
        <time>2010-08-10T09:54:16Z</time>
      </trkpt>
      <trkpt lat="38.077285" lon="-2.896693">
        <ele>1301.7</ele>
        <time>2010-08-10T09:54:16Z</time>
      </trkpt>
      <trkpt lat="38.077189" lon="-2.896573">
        <ele>1302.7</ele>
        <time>2010-08-10T09:54:16Z</time>
      </trkpt>
      <trkpt lat="38.077028" lon="-2.896346">
        <ele>1302.8</ele>
        <time>2010-08-10T09:54:16Z</time>
      </trkpt>
      <trkpt lat="38.076999" lon="-2.896176">
        <ele>1301.0</ele>
        <time>2010-08-10T09:54:16Z</time>
      </trkpt>
      <trkpt lat="38.076869" lon="-2.895954">
        <ele>1304.0</ele>
        <time>2010-08-10T09:54:16Z</time>
      </trkpt>
      <trkpt lat="38.076752" lon="-2.895734">
        <ele>1305.6</ele>
        <time>2010-08-10T09:54:16Z</time>
      </trkpt>
      <trkpt lat="38.076674" lon="-2.895647">
        <ele>1307.8</ele>
        <time>2010-08-10T09:54:16Z</time>
      </trkpt>
      <trkpt lat="38.076515" lon="-2.895473">
        <ele>1312.5</ele>
        <time>2010-08-10T09:54:16Z</time>
      </trkpt>
      <trkpt lat="38.076444" lon="-2.895379">
        <ele>1314.8</ele>
        <time>2010-08-10T09:54:16Z</time>
      </trkpt>
      <trkpt lat="38.076360" lon="-2.895262">
        <ele>1316.5</ele>
        <time>2010-08-10T09:54:16Z</time>
      </trkpt>
      <trkpt lat="38.076163" lon="-2.894970">
        <ele>1317.2</ele>
        <time>2010-08-10T09:54:16Z</time>
      </trkpt>
      <trkpt lat="38.076070" lon="-2.894809">
        <ele>1317.6</ele>
        <time>2010-08-10T09:54:16Z</time>
      </trkpt>
      <trkpt lat="38.075951" lon="-2.894612">
        <ele>1318.2</ele>
        <time>2010-08-10T09:54:16Z</time>
      </trkpt>
      <trkpt lat="38.075780" lon="-2.894558">
        <ele>1324.4</ele>
        <time>2010-08-10T09:54:16Z</time>
      </trkpt>
      <trkpt lat="38.075780" lon="-2.894558">
        <ele>1324.4</ele>
        <time>2010-08-10T09:54:16Z</time>
      </trkpt>
      <trkpt lat="38.075441" lon="-2.894666">
        <ele>1342.5</ele>
        <time>2010-08-10T09:54:16Z</time>
      </trkpt>
      <trkpt lat="38.075214" lon="-2.894559">
        <ele>1343.8</ele>
        <time>2010-08-10T09:54:16Z</time>
      </trkpt>
      <trkpt lat="38.075087" lon="-2.894505">
        <ele>1343.5</ele>
        <time>2010-08-10T09:54:16Z</time>
      </trkpt>
      <trkpt lat="38.074843" lon="-2.894335">
        <ele>1340.7</ele>
        <time>2010-08-10T09:54:16Z</time>
      </trkpt>
      <trkpt lat="38.074762" lon="-2.894226">
        <ele>1338.0</ele>
        <time>2010-08-10T09:54:16Z</time>
      </trkpt>
      <trkpt lat="38.074505" lon="-2.893754">
        <ele>1335.7</ele>
        <time>2010-08-10T09:54:16Z</time>
      </trkpt>
      <trkpt lat="38.074220" lon="-2.893461">
        <ele>1338.9</ele>
        <time>2010-08-10T09:54:16Z</time>
      </trkpt>
      <trkpt lat="38.074087" lon="-2.893314">
        <ele>1342.6</ele>
        <time>2010-08-10T09:54:16Z</time>
      </trkpt>
      <trkpt lat="38.073684" lon="-2.892878">
        <ele>1352.4</ele>
        <time>2010-08-10T09:54:16Z</time>
      </trkpt>
      <trkpt lat="38.073445" lon="-2.892427">
        <ele>1355.4</ele>
        <time>2010-08-10T09:54:16Z</time>
      </trkpt>
      <trkpt lat="38.073384" lon="-2.892273">
        <ele>1355.3</ele>
        <time>2010-08-10T09:54:16Z</time>
      </trkpt>
      <trkpt lat="38.073258" lon="-2.892016">
        <ele>1359.3</ele>
        <time>2010-08-10T09:54:16Z</time>
      </trkpt>
      <trkpt lat="38.073198" lon="-2.891895">
        <ele>1361.1</ele>
        <time>2010-08-10T09:54:16Z</time>
      </trkpt>
      <trkpt lat="38.073098" lon="-2.891627">
        <ele>1361.2</ele>
        <time>2010-08-10T09:54:16Z</time>
      </trkpt>
      <trkpt lat="38.073019" lon="-2.891389">
        <ele>1359.2</ele>
        <time>2010-08-10T09:54:16Z</time>
      </trkpt>
      <trkpt lat="38.072981" lon="-2.891262">
        <ele>1358.4</ele>
        <time>2010-08-10T09:54:16Z</time>
      </trkpt>
      <trkpt lat="38.072879" lon="-2.891008">
        <ele>1356.3</ele>
        <time>2010-08-10T09:54:16Z</time>
      </trkpt>
      <trkpt lat="38.072785" lon="-2.890754">
        <ele>1350.6</ele>
        <time>2010-08-10T09:54:16Z</time>
      </trkpt>
      <trkpt lat="38.072698" lon="-2.890511">
        <ele>1345.0</ele>
        <time>2010-08-10T09:54:16Z</time>
      </trkpt>
      <trkpt lat="38.072592" lon="-2.890277">
        <ele>1343.3</ele>
        <time>2010-08-10T09:54:16Z</time>
      </trkpt>
      <trkpt lat="38.072453" lon="-2.890064">
        <ele>1341.9</ele>
        <time>2010-08-10T09:54:16Z</time>
      </trkpt>
      <trkpt lat="38.072288" lon="-2.889900">
        <ele>1340.9</ele>
        <time>2010-08-10T09:54:16Z</time>
      </trkpt>
      <trkpt lat="38.071912" lon="-2.889729">
        <ele>1342.0</ele>
        <time>2010-08-10T09:54:16Z</time>
      </trkpt>
      <trkpt lat="38.071586" lon="-2.889694">
        <ele>1347.4</ele>
        <time>2010-08-10T09:54:16Z</time>
      </trkpt>
      <trkpt lat="38.071430" lon="-2.889729">
        <ele>1350.1</ele>
        <time>2010-08-10T09:54:16Z</time>
      </trkpt>
      <trkpt lat="38.071402" lon="-2.889909">
        <ele>1351.1</ele>
        <time>2010-08-10T09:54:16Z</time>
      </trkpt>
      <trkpt lat="38.071416" lon="-2.890160">
        <ele>1351.6</ele>
        <time>2010-08-10T09:54:16Z</time>
      </trkpt>
      <trkpt lat="38.071502" lon="-2.890428">
        <ele>1350.8</ele>
        <time>2010-08-10T09:54:16Z</time>
      </trkpt>
      <trkpt lat="38.071573" lon="-2.890696">
        <ele>1351.1</ele>
        <time>2010-08-10T09:54:16Z</time>
      </trkpt>
      <trkpt lat="38.071644" lon="-2.890911">
        <ele>1351.9</ele>
        <time>2010-08-10T09:54:16Z</time>
      </trkpt>
      <trkpt lat="38.071644" lon="-2.890911">
        <ele>1351.9</ele>
        <time>2010-08-10T09:54:16Z</time>
      </trkpt>
      <trkpt lat="38.071531" lon="-2.891090">
        <ele>1354.4</ele>
        <time>2010-08-10T09:54:16Z</time>
      </trkpt>
      <trkpt lat="38.071418" lon="-2.891216">
        <ele>1355.8</ele>
        <time>2010-08-10T09:54:16Z</time>
      </trkpt>
      <trkpt lat="38.071316" lon="-2.891388">
        <ele>1356.9</ele>
        <time>2010-08-10T09:54:16Z</time>
      </trkpt>
      <trkpt lat="38.071316" lon="-2.891388">
        <ele>1356.9</ele>
        <time>2010-08-10T09:54:16Z</time>
      </trkpt>
      <trkpt lat="38.071021" lon="-2.891414">
        <ele>1361.6</ele>
        <time>2010-08-10T09:54:16Z</time>
      </trkpt>
      <trkpt lat="38.070844" lon="-2.891179">
        <ele>1366.6</ele>
        <time>2010-08-10T09:54:16Z</time>
      </trkpt>
      <trkpt lat="38.070922" lon="-2.890876">
        <ele>1364.5</ele>
        <time>2010-08-10T09:54:16Z</time>
      </trkpt>
      <trkpt lat="38.070709" lon="-2.890859">
        <ele>1370.3</ele>
        <time>2010-08-10T09:54:16Z</time>
      </trkpt>
      <trkpt lat="38.070469" lon="-2.890751">
        <ele>1377.0</ele>
        <time>2010-08-10T09:54:16Z</time>
      </trkpt>
      <trkpt lat="38.070384" lon="-2.890555">
        <ele>1379.3</ele>
        <time>2010-08-10T09:54:16Z</time>
      </trkpt>
      <trkpt lat="38.070341" lon="-2.890286">
        <ele>1381.0</ele>
        <time>2010-08-10T09:54:16Z</time>
      </trkpt>
      <trkpt lat="38.070228" lon="-2.890161">
        <ele>1387.5</ele>
        <time>2010-08-10T09:54:16Z</time>
      </trkpt>
      <trkpt lat="38.070044" lon="-2.890305">
        <ele>1398.0</ele>
        <time>2010-08-10T09:54:16Z</time>
      </trkpt>
      <trkpt lat="38.070001" lon="-2.890609">
        <ele>1399.6</ele>
        <time>2010-08-10T09:54:16Z</time>
      </trkpt>
      <trkpt lat="38.070002" lon="-2.890895">
        <ele>1397.8</ele>
        <time>2010-08-10T09:54:16Z</time>
      </trkpt>
      <trkpt lat="38.070002" lon="-2.891164">
        <ele>1396.1</ele>
        <time>2010-08-10T09:54:16Z</time>
      </trkpt>
      <trkpt lat="38.070030" lon="-2.891343">
        <ele>1393.8</ele>
        <time>2010-08-10T09:54:16Z</time>
      </trkpt>
      <trkpt lat="38.070044" lon="-2.891522">
        <ele>1390.1</ele>
        <time>2010-08-10T09:54:16Z</time>
      </trkpt>
      <trkpt lat="38.069875" lon="-2.891702">
        <ele>1394.0</ele>
        <time>2010-08-10T09:54:16Z</time>
      </trkpt>
      <trkpt lat="38.069734" lon="-2.891791">
        <ele>1398.3</ele>
        <time>2010-08-10T09:54:16Z</time>
      </trkpt>
      <trkpt lat="38.069592" lon="-2.891845">
        <ele>1403.3</ele>
        <time>2010-08-10T09:54:16Z</time>
      </trkpt>
      <trkpt lat="38.069394" lon="-2.891953">
        <ele>1410.9</ele>
        <time>2010-08-10T09:54:16Z</time>
      </trkpt>
      <trkpt lat="38.069224" lon="-2.892079">
        <ele>1416.8</ele>
        <time>2010-08-10T09:54:16Z</time>
      </trkpt>
      <trkpt lat="38.069083" lon="-2.892240">
        <ele>1420.9</ele>
        <time>2010-08-10T09:54:16Z</time>
      </trkpt>
      <trkpt lat="38.068956" lon="-2.892419">
        <ele>1425.4</ele>
        <time>2010-08-10T09:54:16Z</time>
      </trkpt>
      <trkpt lat="38.068927" lon="-2.892688">
        <ele>1424.4</ele>
        <time>2010-08-10T09:54:16Z</time>
      </trkpt>
      <trkpt lat="38.068899" lon="-2.892903">
        <ele>1423.8</ele>
        <time>2010-08-10T09:54:16Z</time>
      </trkpt>
      <trkpt lat="38.068871" lon="-2.893135">
        <ele>1421.9</ele>
        <time>2010-08-10T09:54:16Z</time>
      </trkpt>
      <trkpt lat="38.068843" lon="-2.893386">
        <ele>1418.6</ele>
        <time>2010-08-10T09:54:16Z</time>
      </trkpt>
      <trkpt lat="38.068787" lon="-2.893583">
        <ele>1416.8</ele>
        <time>2010-08-10T09:54:16Z</time>
      </trkpt>
      <trkpt lat="38.068716" lon="-2.893852">
        <ele>1413.4</ele>
        <time>2010-08-10T09:54:16Z</time>
      </trkpt>
      <trkpt lat="38.068589" lon="-2.894085">
        <ele>1416.0</ele>
        <time>2010-08-10T09:54:16Z</time>
      </trkpt>
      <trkpt lat="38.068419" lon="-2.894193">
        <ele>1419.7</ele>
        <time>2010-08-10T09:54:16Z</time>
      </trkpt>
      <trkpt lat="38.068221" lon="-2.894408">
        <ele>1422.0</ele>
        <time>2010-08-10T09:54:16Z</time>
      </trkpt>
      <trkpt lat="38.067966" lon="-2.894480">
        <ele>1426.0</ele>
        <time>2010-08-10T09:54:16Z</time>
      </trkpt>
      <trkpt lat="38.067726" lon="-2.894695">
        <ele>1428.6</ele>
        <time>2010-08-10T09:54:16Z</time>
      </trkpt>
      <trkpt lat="38.067514" lon="-2.894946">
        <ele>1436.5</ele>
        <time>2010-08-10T09:54:16Z</time>
      </trkpt>
      <trkpt lat="38.067118" lon="-2.895341">
        <ele>1442.9</ele>
        <time>2010-08-10T09:54:16Z</time>
      </trkpt>
      <trkpt lat="38.067019" lon="-2.895663">
        <ele>1445.0</ele>
        <time>2010-08-10T09:54:16Z</time>
      </trkpt>
      <trkpt lat="38.067274" lon="-2.895663">
        <ele>1443.7</ele>
        <time>2010-08-10T09:54:16Z</time>
      </trkpt>
      <trkpt lat="38.067656" lon="-2.895698">
        <ele>1443.2</ele>
        <time>2010-08-10T09:54:16Z</time>
      </trkpt>
      <trkpt lat="38.068052" lon="-2.895679">
        <ele>1442.5</ele>
        <time>2010-08-10T09:54:16Z</time>
      </trkpt>
      <trkpt lat="38.068519" lon="-2.895643">
        <ele>1443.0</ele>
        <time>2010-08-10T09:54:16Z</time>
      </trkpt>
      <trkpt lat="38.068760" lon="-2.895607">
        <ele>1441.8</ele>
        <time>2010-08-10T09:54:16Z</time>
      </trkpt>
      <trkpt lat="38.069001" lon="-2.895624">
        <ele>1439.4</ele>
        <time>2010-08-10T09:54:16Z</time>
      </trkpt>
      <trkpt lat="38.069439" lon="-2.895766">
        <ele>1438.4</ele>
        <time>2010-08-10T09:54:16Z</time>
      </trkpt>
      <trkpt lat="38.069336" lon="-2.895757">
        <ele>1439.4</ele>
        <time>2010-08-10T09:54:16Z</time>
      </trkpt>
      <trkpt lat="38.069439" lon="-2.895766">
        <ele>1438.4</ele>
        <time>2010-08-10T09:54:16Z</time>
      </trkpt>
      <trkpt lat="38.069680" lon="-2.895964">
        <ele>1441.2</ele>
        <time>2010-08-10T09:54:16Z</time>
      </trkpt>
      <trkpt lat="38.069879" lon="-2.896196">
        <ele>1444.8</ele>
        <time>2010-08-10T09:54:16Z</time>
      </trkpt>
      <trkpt lat="38.070176" lon="-2.896249">
        <ele>1441.5</ele>
        <time>2010-08-10T09:54:16Z</time>
      </trkpt>
      <trkpt lat="38.070360" lon="-2.896464">
        <ele>1442.6</ele>
        <time>2010-08-10T09:54:16Z</time>
      </trkpt>
      <trkpt lat="38.070431" lon="-2.896876">
        <ele>1447.7</ele>
        <time>2010-08-10T09:54:16Z</time>
      </trkpt>
      <trkpt lat="38.070545" lon="-2.897055">
        <ele>1448.7</ele>
        <time>2010-08-10T09:54:16Z</time>
      </trkpt>
      <trkpt lat="38.070757" lon="-2.897126">
        <ele>1446.6</ele>
        <time>2010-08-10T09:54:16Z</time>
      </trkpt>
      <trkpt lat="38.070970" lon="-2.897089">
        <ele>1443.4</ele>
        <time>2010-08-10T09:54:16Z</time>
      </trkpt>
      <trkpt lat="38.071097" lon="-2.896928">
        <ele>1440.6</ele>
        <time>2010-08-10T09:54:16Z</time>
      </trkpt>
      <trkpt lat="38.071115" lon="-2.896704">
        <ele>1438.9</ele>
        <time>2010-08-10T09:54:16Z</time>
      </trkpt>
      <trkpt lat="38.071082" lon="-2.896463">
        <ele>1437.5</ele>
        <time>2010-08-10T09:54:16Z</time>
      </trkpt>
      <trkpt lat="38.071082" lon="-2.896463">
        <ele>1437.5</ele>
        <time>2010-08-10T09:54:16Z</time>
      </trkpt>
      <trkpt lat="38.071167" lon="-2.896284">
        <ele>1435.7</ele>
        <time>2010-08-10T09:54:16Z</time>
      </trkpt>
      <trkpt lat="38.071351" lon="-2.896176">
        <ele>1436.2</ele>
        <time>2010-08-10T09:54:16Z</time>
      </trkpt>
      <trkpt lat="38.071507" lon="-2.896247">
        <ele>1437.9</ele>
        <time>2010-08-10T09:54:16Z</time>
      </trkpt>
      <trkpt lat="38.071634" lon="-2.896355">
        <ele>1439.8</ele>
        <time>2010-08-10T09:54:16Z</time>
      </trkpt>
      <trkpt lat="38.071818" lon="-2.896408">
        <ele>1441.9</ele>
        <time>2010-08-10T09:54:16Z</time>
      </trkpt>
      <trkpt lat="38.071959" lon="-2.896531">
        <ele>1436.3</ele>
        <time>2010-07-13T10:38:51Z</time>
      </trkpt>
      <trkpt lat="38.071960" lon="-2.896561">
        <ele>1440.7</ele>
        <time>2010-07-13T10:38:51Z</time>
      </trkpt>
      <trkpt lat="38.072023" lon="-2.896537">
        <ele>1447.9</ele>
        <time>2010-07-13T10:38:51Z</time>
      </trkpt>
      <trkpt lat="38.072135" lon="-2.896460">
        <ele>1448.4</ele>
        <time>2010-07-13T10:38:51Z</time>
      </trkpt>
      <trkpt lat="38.072404" lon="-2.896177">
        <ele>1450.3</ele>
        <time>2010-07-13T10:38:51Z</time>
      </trkpt>
      <trkpt lat="38.072515" lon="-2.896226">
        <ele>1451.7</ele>
        <time>2010-07-13T10:38:51Z</time>
      </trkpt>
      <trkpt lat="38.072580" lon="-2.896355">
        <ele>1453.2</ele>
        <time>2010-07-13T10:38:51Z</time>
      </trkpt>
      <trkpt lat="38.072543" lon="-2.896503">
        <ele>1454.1</ele>
        <time>2010-07-13T10:38:51Z</time>
      </trkpt>
      <trkpt lat="38.072321" lon="-2.897055">
        <ele>1455.1</ele>
        <time>2010-07-13T10:38:51Z</time>
      </trkpt>
      <trkpt lat="38.072306" lon="-2.897210">
        <ele>1456.1</ele>
        <time>2010-07-13T10:38:51Z</time>
      </trkpt>
      <trkpt lat="38.072354" lon="-2.897370">
        <ele>1456.5</ele>
        <time>2010-07-13T10:38:51Z</time>
      </trkpt>
      <trkpt lat="38.072363" lon="-2.897521">
        <ele>1457.0</ele>
        <time>2010-07-13T10:38:51Z</time>
      </trkpt>
      <trkpt lat="38.072256" lon="-2.897586">
        <ele>1458.0</ele>
        <time>2010-07-13T10:38:51Z</time>
      </trkpt>
      <trkpt lat="38.072063" lon="-2.897594">
        <ele>1460.4</ele>
        <time>2010-07-13T10:38:51Z</time>
      </trkpt>
      <trkpt lat="38.071964" lon="-2.897611">
        <ele>1461.8</ele>
        <time>2010-07-13T10:38:51Z</time>
      </trkpt>
      <trkpt lat="38.071869" lon="-2.897652">
        <ele>1462.8</ele>
        <time>2010-07-13T10:38:51Z</time>
      </trkpt>
      <trkpt lat="38.071795" lon="-2.897721">
        <ele>1463.3</ele>
        <time>2010-07-13T10:38:51Z</time>
      </trkpt>
      <trkpt lat="38.071606" lon="-2.898244">
        <ele>1465.7</ele>
        <time>2010-07-13T10:38:51Z</time>
      </trkpt>
      <trkpt lat="38.071463" lon="-2.898438">
        <ele>1467.6</ele>
        <time>2010-07-13T10:38:51Z</time>
      </trkpt>
      <trkpt lat="38.071426" lon="-2.898984">
        <ele>1471.0</ele>
        <time>2010-07-13T10:38:51Z</time>
      </trkpt>
      <trkpt lat="38.071301" lon="-2.899398">
        <ele>1472.4</ele>
        <time>2010-07-13T10:38:51Z</time>
      </trkpt>
      <trkpt lat="38.071190" lon="-2.899669">
        <ele>1474.3</ele>
        <time>2010-07-13T10:38:51Z</time>
      </trkpt>
      <trkpt lat="38.070902" lon="-2.900141">
        <ele>1482.5</ele>
        <time>2010-07-13T10:38:51Z</time>
      </trkpt>
      <trkpt lat="38.070669" lon="-2.900433">
        <ele>1483.0</ele>
        <time>2010-07-13T10:38:51Z</time>
      </trkpt>
      <trkpt lat="38.070490" lon="-2.900762">
        <ele>1486.3</ele>
        <time>2010-07-13T10:38:51Z</time>
      </trkpt>
      <trkpt lat="38.070297" lon="-2.900858">
        <ele>1486.8</ele>
        <time>2010-07-13T10:38:51Z</time>
      </trkpt>
      <trkpt lat="38.070159" lon="-2.900650">
        <ele>1488.3</ele>
        <time>2010-07-13T10:38:51Z</time>
      </trkpt>
      <trkpt lat="38.070008" lon="-2.900302">
        <ele>1493.1</ele>
        <time>2010-07-13T10:38:51Z</time>
      </trkpt>
      <trkpt lat="38.069900" lon="-2.900233">
        <ele>1495.5</ele>
        <time>2010-07-13T10:38:51Z</time>
      </trkpt>
      <trkpt lat="38.069698" lon="-2.900322">
        <ele>1497.9</ele>
        <time>2010-07-13T10:38:51Z</time>
      </trkpt>
      <trkpt lat="38.069506" lon="-2.900347">
        <ele>1502.2</ele>
        <time>2010-07-13T10:38:51Z</time>
      </trkpt>
      <trkpt lat="38.069267" lon="-2.900285">
        <ele>1506.5</ele>
        <time>2010-07-13T10:38:51Z</time>
      </trkpt>
      <trkpt lat="38.069127" lon="-2.900225">
        <ele>1508.0</ele>
        <time>2010-07-13T10:38:51Z</time>
      </trkpt>
      <trkpt lat="38.068869" lon="-2.900010">
        <ele>1512.8</ele>
        <time>2010-07-13T10:38:51Z</time>
      </trkpt>
      <trkpt lat="38.068740" lon="-2.900039">
        <ele>1516.1</ele>
        <time>2010-07-13T10:38:51Z</time>
      </trkpt>
      <trkpt lat="38.068432" lon="-2.900256">
        <ele>1523.8</ele>
        <time>2010-07-13T10:38:51Z</time>
      </trkpt>
      <trkpt lat="38.068380" lon="-2.900347">
        <ele>1525.3</ele>
        <time>2010-07-13T10:38:51Z</time>
      </trkpt>
      <trkpt lat="38.068339" lon="-2.900741">
        <ele>1530.6</ele>
        <time>2010-07-13T10:38:51Z</time>
      </trkpt>
      <trkpt lat="38.068302" lon="-2.900847">
        <ele>1531.5</ele>
        <time>2010-07-13T10:38:51Z</time>
      </trkpt>
      <trkpt lat="38.068217" lon="-2.900942">
        <ele>1532.5</ele>
        <time>2010-07-13T10:38:51Z</time>
      </trkpt>
      <trkpt lat="38.067902" lon="-2.901061">
        <ele>1534.9</ele>
        <time>2010-07-13T10:38:51Z</time>
      </trkpt>
      <trkpt lat="38.067401" lon="-2.901119">
        <ele>1538.2</ele>
        <time>2010-07-13T10:38:51Z</time>
      </trkpt>
      <trkpt lat="38.066975" lon="-2.901241">
        <ele>1538.7</ele>
        <time>2010-07-13T10:38:51Z</time>
      </trkpt>
      <trkpt lat="38.066828" lon="-2.901390">
        <ele>1539.2</ele>
        <time>2010-07-13T10:38:51Z</time>
      </trkpt>
      <trkpt lat="38.066658" lon="-2.901689">
        <ele>1541.1</ele>
        <time>2010-07-13T10:38:51Z</time>
      </trkpt>
      <trkpt lat="38.066625" lon="-2.901830">
        <ele>1543.5</ele>
        <time>2010-07-13T10:38:51Z</time>
      </trkpt>
      <trkpt lat="38.066599" lon="-2.902117">
        <ele>1547.4</ele>
        <time>2010-07-13T10:38:51Z</time>
      </trkpt>
      <trkpt lat="38.066625" lon="-2.902238">
        <ele>1548.8</ele>
        <time>2010-07-13T10:38:51Z</time>
      </trkpt>
      <trkpt lat="38.066674" lon="-2.902346">
        <ele>1550.3</ele>
        <time>2010-07-13T10:38:51Z</time>
      </trkpt>
      <trkpt lat="38.066776" lon="-2.902462">
        <ele>1551.7</ele>
        <time>2010-07-13T10:38:51Z</time>
      </trkpt>
      <trkpt lat="38.066865" lon="-2.902530">
        <ele>1553.1</ele>
        <time>2010-07-13T10:38:51Z</time>
      </trkpt>
      <trkpt lat="38.067303" lon="-2.902769">
        <ele>1558.0</ele>
        <time>2010-07-13T10:38:51Z</time>
      </trkpt>
      <trkpt lat="38.067551" lon="-2.902872">
        <ele>1560.4</ele>
        <time>2010-07-13T10:38:51Z</time>
      </trkpt>
      <trkpt lat="38.067880" lon="-2.903088">
        <ele>1563.2</ele>
        <time>2010-07-13T10:38:51Z</time>
      </trkpt>
      <trkpt lat="38.068360" lon="-2.903245">
        <ele>1569.0</ele>
        <time>2010-07-13T10:38:51Z</time>
      </trkpt>
      <trkpt lat="38.068778" lon="-2.903431">
        <ele>1573.8</ele>
        <time>2010-07-13T10:38:51Z</time>
      </trkpt>
      <trkpt lat="38.068945" lon="-2.903622">
        <ele>1576.7</ele>
        <time>2010-07-13T10:38:51Z</time>
      </trkpt>
      <trkpt lat="38.069047" lon="-2.903699">
        <ele>1578.1</ele>
        <time>2010-07-13T10:38:51Z</time>
      </trkpt>
      <trkpt lat="38.069260" lon="-2.903781">
        <ele>1581.0</ele>
        <time>2010-07-13T10:38:51Z</time>
      </trkpt>
      <trkpt lat="38.069345" lon="-2.903853">
        <ele>1582.0</ele>
        <time>2010-07-13T10:38:51Z</time>
      </trkpt>
      <trkpt lat="38.069404" lon="-2.903939">
        <ele>1582.9</ele>
        <time>2010-07-13T10:38:51Z</time>
      </trkpt>
      <trkpt lat="38.069425" lon="-2.904069">
        <ele>1582.9</ele>
        <time>2010-07-13T10:38:51Z</time>
      </trkpt>
      <trkpt lat="38.069286" lon="-2.904293">
        <ele>1582.5</ele>
        <time>2010-07-13T10:38:51Z</time>
      </trkpt>
      <trkpt lat="38.069100" lon="-2.904499">
        <ele>1580.5</ele>
        <time>2010-07-13T10:38:51Z</time>
      </trkpt>
      <trkpt lat="38.069015" lon="-2.904543">
        <ele>1584.4</ele>
        <time>2010-07-13T10:38:51Z</time>
      </trkpt>
      <trkpt lat="38.067768" lon="-2.905946">
        <ele>1582.0</ele>
        <time>2010-07-13T10:38:51Z</time>
      </trkpt>
      <trkpt lat="38.066557" lon="-2.907187">
        <ele>1580.5</ele>
        <time>2010-07-13T10:38:51Z</time>
      </trkpt>
      <trkpt lat="38.066234" lon="-2.907284">
        <ele>1579.1</ele>
        <time>2010-07-13T10:38:51Z</time>
      </trkpt>
      <trkpt lat="38.065776" lon="-2.907371">
        <ele>1574.3</ele>
        <time>2010-07-13T10:38:51Z</time>
      </trkpt>
      <trkpt lat="38.065569" lon="-2.907391">
        <ele>1570.9</ele>
        <time>2010-07-13T10:38:51Z</time>
      </trkpt>
      <trkpt lat="38.065265" lon="-2.907368">
        <ele>1566.1</ele>
        <time>2010-07-13T10:38:51Z</time>
      </trkpt>
      <trkpt lat="38.064872" lon="-2.907378">
        <ele>1562.8</ele>
        <time>2010-07-13T10:38:51Z</time>
      </trkpt>
      <trkpt lat="38.064672" lon="-2.907429">
        <ele>1561.3</ele>
        <time>2010-07-13T10:38:51Z</time>
      </trkpt>
      <trkpt lat="38.064422" lon="-2.907617">
        <ele>1558.4</ele>
        <time>2010-07-13T10:38:51Z</time>
      </trkpt>
      <trkpt lat="38.064280" lon="-2.907817">
        <ele>1556.0</ele>
        <time>2010-07-13T10:38:51Z</time>
      </trkpt>
      <trkpt lat="38.064233" lon="-2.907942">
        <ele>1554.6</ele>
        <time>2010-07-13T10:38:51Z</time>
      </trkpt>
      <trkpt lat="38.064182" lon="-2.908176">
        <ele>1552.7</ele>
        <time>2010-07-13T10:38:51Z</time>
      </trkpt>
      <trkpt lat="38.064214" lon="-2.908283">
        <ele>1551.2</ele>
        <time>2010-07-13T10:38:51Z</time>
      </trkpt>
      <trkpt lat="38.064308" lon="-2.908335">
        <ele>1549.8</ele>
        <time>2010-07-13T10:38:51Z</time>
      </trkpt>
      <trkpt lat="38.064446" lon="-2.908333">
        <ele>1547.9</ele>
        <time>2010-07-13T10:38:51Z</time>
      </trkpt>
      <trkpt lat="38.064566" lon="-2.908352">
        <ele>1546.9</ele>
        <time>2010-07-13T10:38:51Z</time>
      </trkpt>
      <trkpt lat="38.064617" lon="-2.908465">
        <ele>1545.5</ele>
        <time>2010-07-13T10:38:51Z</time>
      </trkpt>
      <trkpt lat="38.064555" lon="-2.908611">
        <ele>1544.5</ele>
        <time>2010-07-13T10:38:51Z</time>
      </trkpt>
      <trkpt lat="38.064382" lon="-2.908719">
        <ele>1542.6</ele>
        <time>2010-07-13T10:38:51Z</time>
      </trkpt>
      <trkpt lat="38.063997" lon="-2.908801">
        <ele>1539.7</ele>
        <time>2010-07-13T10:38:51Z</time>
      </trkpt>
      <trkpt lat="38.063753" lon="-2.909143">
        <ele>1536.3</ele>
        <time>2010-07-13T10:38:51Z</time>
      </trkpt>
      <trkpt lat="38.063566" lon="-2.909307">
        <ele>1533.9</ele>
        <time>2010-07-13T10:38:51Z</time>
      </trkpt>
      <trkpt lat="38.063314" lon="-2.909579">
        <ele>1532.0</ele>
        <time>2010-07-13T10:38:51Z</time>
      </trkpt>
      <trkpt lat="38.063225" lon="-2.909649">
        <ele>1531.5</ele>
        <time>2010-07-13T10:38:51Z</time>
      </trkpt>
      <trkpt lat="38.063068" lon="-2.909809">
        <ele>1530.6</ele>
        <time>2010-07-13T10:38:51Z</time>
      </trkpt>
      <trkpt lat="38.062933" lon="-2.909980">
        <ele>1527.7</ele>
        <time>2010-07-13T10:38:51Z</time>
      </trkpt>
      <trkpt lat="38.062848" lon="-2.910047">
        <ele>1526.2</ele>
        <time>2010-07-13T10:38:51Z</time>
      </trkpt>
      <trkpt lat="38.062732" lon="-2.910074">
        <ele>1526.7</ele>
        <time>2010-07-13T10:38:51Z</time>
      </trkpt>
      <trkpt lat="38.062627" lon="-2.910142">
        <ele>1520.9</ele>
        <time>2010-07-13T10:38:51Z</time>
      </trkpt>
      <trkpt lat="38.062525" lon="-2.910192">
        <ele>1520.0</ele>
        <time>2010-07-13T10:38:51Z</time>
      </trkpt>
      <trkpt lat="38.062156" lon="-2.910310">
        <ele>1519.0</ele>
        <time>2010-07-13T10:38:51Z</time>
      </trkpt>
      <trkpt lat="38.061940" lon="-2.910466">
        <ele>1516.6</ele>
        <time>2010-07-13T10:38:51Z</time>
      </trkpt>
      <trkpt lat="38.061775" lon="-2.910651">
        <ele>1516.6</ele>
        <time>2010-07-13T10:38:51Z</time>
      </trkpt>
      <trkpt lat="38.061423" lon="-2.911323">
        <ele>1514.2</ele>
        <time>2010-07-13T10:38:51Z</time>
      </trkpt>
      <trkpt lat="38.061247" lon="-2.911404">
        <ele>1511.8</ele>
        <time>2010-07-13T10:38:51Z</time>
      </trkpt>
      <trkpt lat="38.061048" lon="-2.911437">
        <ele>1509.9</ele>
        <time>2010-07-13T10:38:51Z</time>
      </trkpt>
      <trkpt lat="38.060852" lon="-2.911392">
        <ele>1508.9</ele>
        <time>2010-07-13T10:38:51Z</time>
      </trkpt>
      <trkpt lat="38.060863" lon="-2.911489">
        <ele>1508.4</ele>
        <time>2010-07-13T10:38:51Z</time>
      </trkpt>
      <trkpt lat="38.060970" lon="-2.911579">
        <ele>1508.4</ele>
        <time>2010-07-13T10:38:51Z</time>
      </trkpt>
      <trkpt lat="38.061227" lon="-2.911688">
        <ele>1506.5</ele>
        <time>2010-07-13T10:38:51Z</time>
      </trkpt>
      <trkpt lat="38.061355" lon="-2.911702">
        <ele>1506.0</ele>
        <time>2010-07-13T10:38:51Z</time>
      </trkpt>
      <trkpt lat="38.061588" lon="-2.911579">
        <ele>1503.6</ele>
        <time>2010-07-13T10:38:51Z</time>
      </trkpt>
      <trkpt lat="38.061880" lon="-2.911306">
        <ele>1500.3</ele>
        <time>2010-07-13T10:38:51Z</time>
      </trkpt>
      <trkpt lat="38.061989" lon="-2.911286">
        <ele>1498.8</ele>
        <time>2010-07-13T10:38:51Z</time>
      </trkpt>
      <trkpt lat="38.062057" lon="-2.911396">
        <ele>1497.9</ele>
        <time>2010-07-13T10:38:51Z</time>
      </trkpt>
      <trkpt lat="38.062046" lon="-2.911515">
        <ele>1497.4</ele>
        <time>2010-07-13T10:38:51Z</time>
      </trkpt>
      <trkpt lat="38.061914" lon="-2.911731">
        <ele>1494.5</ele>
        <time>2010-07-13T10:38:51Z</time>
      </trkpt>
      <trkpt lat="38.061801" lon="-2.911837">
        <ele>1482.5</ele>
        <time>2010-07-13T10:38:51Z</time>
      </trkpt>
      <trkpt lat="38.061634" lon="-2.912069">
        <ele>1483.5</ele>
        <time>2010-07-13T10:38:51Z</time>
      </trkpt>
      <trkpt lat="38.061536" lon="-2.912164">
        <ele>1483.9</ele>
        <time>2010-07-13T10:38:51Z</time>
      </trkpt>
      <trkpt lat="38.061348" lon="-2.912273">
        <ele>1483.5</ele>
        <time>2010-07-13T10:38:51Z</time>
      </trkpt>
      <trkpt lat="38.061138" lon="-2.912338">
        <ele>1482.5</ele>
        <time>2010-07-13T10:38:51Z</time>
      </trkpt>
      <trkpt lat="38.060890" lon="-2.912382">
        <ele>1481.5</ele>
        <time>2010-07-13T10:38:51Z</time>
      </trkpt>
      <trkpt lat="38.060589" lon="-2.912360">
        <ele>1478.2</ele>
        <time>2010-07-13T10:38:51Z</time>
      </trkpt>
      <trkpt lat="38.060371" lon="-2.912331">
        <ele>1477.7</ele>
        <time>2010-07-13T10:38:51Z</time>
      </trkpt>
      <trkpt lat="38.060247" lon="-2.912292">
        <ele>1477.7</ele>
        <time>2010-07-13T10:38:51Z</time>
      </trkpt>
      <trkpt lat="38.059745" lon="-2.911800">
        <ele>1475.3</ele>
        <time>2010-07-13T10:38:51Z</time>
      </trkpt>
      <trkpt lat="38.059498" lon="-2.911430">
        <ele>1472.4</ele>
        <time>2010-07-13T10:38:51Z</time>
      </trkpt>
      <trkpt lat="38.059286" lon="-2.911201">
        <ele>1471.9</ele>
        <time>2010-07-13T10:38:51Z</time>
      </trkpt>
      <trkpt lat="38.059228" lon="-2.911110">
        <ele>1471.4</ele>
        <time>2010-07-13T10:38:51Z</time>
      </trkpt>
      <trkpt lat="38.059171" lon="-2.910956">
        <ele>1471.0</ele>
        <time>2010-07-13T10:38:51Z</time>
      </trkpt>
      <trkpt lat="38.059114" lon="-2.910530">
        <ele>1470.0</ele>
        <time>2010-07-13T10:38:51Z</time>
      </trkpt>
      <trkpt lat="38.059032" lon="-2.910447">
        <ele>1468.6</ele>
        <time>2010-07-13T10:38:51Z</time>
      </trkpt>
      <trkpt lat="38.058756" lon="-2.910228">
        <ele>1467.1</ele>
        <time>2010-07-13T10:38:51Z</time>
      </trkpt>
      <trkpt lat="38.058571" lon="-2.910038">
        <ele>1466.1</ele>
        <time>2010-07-13T10:38:51Z</time>
      </trkpt>
      <trkpt lat="38.058584" lon="-2.909754">
        <ele>1466.1</ele>
        <time>2010-07-13T10:38:51Z</time>
      </trkpt>
      <trkpt lat="38.058540" lon="-2.909608">
        <ele>1465.7</ele>
        <time>2010-07-13T10:38:51Z</time>
      </trkpt>
      <trkpt lat="38.058355" lon="-2.909434">
        <ele>1466.1</ele>
        <time>2010-07-13T10:38:51Z</time>
      </trkpt>
      <trkpt lat="38.058195" lon="-2.909188">
        <ele>1465.2</ele>
        <time>2010-07-13T10:38:51Z</time>
      </trkpt>
      <trkpt lat="38.058210" lon="-2.909027">
        <ele>1464.7</ele>
        <time>2010-07-13T10:38:51Z</time>
      </trkpt>
      <trkpt lat="38.058263" lon="-2.908888">
        <ele>1464.7</ele>
        <time>2010-07-13T10:38:51Z</time>
      </trkpt>
      <trkpt lat="38.058351" lon="-2.908778">
        <ele>1463.7</ele>
        <time>2010-07-13T10:38:51Z</time>
      </trkpt>
      <trkpt lat="38.058634" lon="-2.908588">
        <ele>1459.9</ele>
        <time>2010-07-13T10:38:51Z</time>
      </trkpt>
      <trkpt lat="38.058610" lon="-2.908468">
        <ele>1459.4</ele>
        <time>2010-07-13T10:38:51Z</time>
      </trkpt>
      <trkpt lat="38.058411" lon="-2.908457">
        <ele>1457.5</ele>
        <time>2010-07-13T10:38:51Z</time>
      </trkpt>
      <trkpt lat="38.058330" lon="-2.908396">
        <ele>1457.0</ele>
        <time>2010-07-13T10:38:51Z</time>
      </trkpt>
      <trkpt lat="38.058250" lon="-2.908263">
        <ele>1456.1</ele>
        <time>2010-07-13T10:38:51Z</time>
      </trkpt>
      <trkpt lat="38.058152" lon="-2.908212">
        <ele>1456.1</ele>
        <time>2010-07-13T10:38:51Z</time>
      </trkpt>
      <trkpt lat="38.058048" lon="-2.908200">
        <ele>1455.6</ele>
        <time>2010-07-13T10:38:51Z</time>
      </trkpt>
      <trkpt lat="38.057751" lon="-2.908325">
        <ele>1454.1</ele>
        <time>2010-07-13T10:38:51Z</time>
      </trkpt>
      <trkpt lat="38.057636" lon="-2.908314">
        <ele>1454.1</ele>
        <time>2010-07-13T10:38:51Z</time>
      </trkpt>
      <trkpt lat="38.057538" lon="-2.908215">
        <ele>1453.7</ele>
        <time>2010-07-13T10:38:51Z</time>
      </trkpt>
      <trkpt lat="38.057274" lon="-2.907657">
        <ele>1447.9</ele>
        <time>2010-07-13T10:38:51Z</time>
      </trkpt>
      <trkpt lat="38.057146" lon="-2.907455">
        <ele>1446.4</ele>
        <time>2010-07-13T10:38:51Z</time>
      </trkpt>
      <trkpt lat="38.057062" lon="-2.907398">
        <ele>1446.0</ele>
        <time>2010-07-13T10:38:51Z</time>
      </trkpt>
      <trkpt lat="38.056876" lon="-2.907341">
        <ele>1445.0</ele>
        <time>2010-07-13T10:38:51Z</time>
      </trkpt>
      <trkpt lat="38.056797" lon="-2.907291">
        <ele>1445.0</ele>
        <time>2010-07-13T10:38:51Z</time>
      </trkpt>
      <trkpt lat="38.056722" lon="-2.907156">
        <ele>1444.0</ele>
        <time>2010-07-13T10:38:51Z</time>
      </trkpt>
      <trkpt lat="38.056517" lon="-2.906702">
        <ele>1444.0</ele>
        <time>2010-07-13T10:38:51Z</time>
      </trkpt>
      <trkpt lat="38.056393" lon="-2.906621">
        <ele>1444.0</ele>
        <time>2010-07-13T10:38:51Z</time>
      </trkpt>
      <trkpt lat="38.056200" lon="-2.906591">
        <ele>1444.5</ele>
        <time>2010-07-13T10:38:51Z</time>
      </trkpt>
      <trkpt lat="38.055675" lon="-2.906760">
        <ele>1447.4</ele>
        <time>2010-07-13T10:38:51Z</time>
      </trkpt>
      <trkpt lat="38.055559" lon="-2.906855">
        <ele>1458.5</ele>
        <time>2010-07-13T10:38:51Z</time>
      </trkpt>
      <trkpt lat="38.055165" lon="-2.907017">
        <ele>1457.0</ele>
        <time>2010-07-13T10:38:51Z</time>
      </trkpt>
      <trkpt lat="38.055063" lon="-2.907039">
        <ele>1457.0</ele>
        <time>2010-07-13T10:38:51Z</time>
      </trkpt>
      <trkpt lat="38.054855" lon="-2.906974">
        <ele>1455.1</ele>
        <time>2010-07-13T10:38:51Z</time>
      </trkpt>
      <trkpt lat="38.054764" lon="-2.906987">
        <ele>1455.1</ele>
        <time>2010-07-13T10:38:51Z</time>
      </trkpt>
      <trkpt lat="38.054436" lon="-2.907260">
        <ele>1457.0</ele>
        <time>2010-07-13T10:38:51Z</time>
      </trkpt>
      <trkpt lat="38.054309" lon="-2.907485">
        <ele>1458.5</ele>
        <time>2010-07-13T10:38:51Z</time>
      </trkpt>
      <trkpt lat="38.054180" lon="-2.908054">
        <ele>1460.4</ele>
        <time>2010-07-13T10:38:51Z</time>
      </trkpt>
      <trkpt lat="38.054187" lon="-2.908308">
        <ele>1458.5</ele>
        <time>2010-07-13T10:38:51Z</time>
      </trkpt>
      <trkpt lat="38.054216" lon="-2.908438">
        <ele>1459.9</ele>
        <time>2010-07-13T10:38:51Z</time>
      </trkpt>
      <trkpt lat="38.054158" lon="-2.908566">
        <ele>1460.4</ele>
        <time>2010-07-13T10:38:51Z</time>
      </trkpt>
      <trkpt lat="38.053856" lon="-2.908826">
        <ele>1461.3</ele>
        <time>2010-07-13T10:38:51Z</time>
      </trkpt>
      <trkpt lat="38.053626" lon="-2.909339">
        <ele>1461.8</ele>
        <time>2010-07-13T10:38:51Z</time>
      </trkpt>
      <trkpt lat="38.053339" lon="-2.909457">
        <ele>1463.3</ele>
        <time>2010-07-13T10:38:51Z</time>
      </trkpt>
      <trkpt lat="38.053257" lon="-2.909530">
        <ele>1463.7</ele>
        <time>2010-07-13T10:38:51Z</time>
      </trkpt>
      <trkpt lat="38.052923" lon="-2.910095">
        <ele>1465.2</ele>
        <time>2010-07-13T10:38:51Z</time>
      </trkpt>
      <trkpt lat="38.052659" lon="-2.910713">
        <ele>1464.2</ele>
        <time>2010-07-13T10:38:51Z</time>
      </trkpt>
      <trkpt lat="38.052470" lon="-2.911037">
        <ele>1462.3</ele>
        <time>2010-07-13T10:38:51Z</time>
      </trkpt>
      <trkpt lat="38.052157" lon="-2.911352">
        <ele>1461.8</ele>
        <time>2010-07-13T10:38:51Z</time>
      </trkpt>
      <trkpt lat="38.052057" lon="-2.911421">
        <ele>1461.8</ele>
        <time>2010-07-13T10:38:51Z</time>
      </trkpt>
      <trkpt lat="38.051624" lon="-2.911593">
        <ele>1460.4</ele>
        <time>2010-07-13T10:38:51Z</time>
      </trkpt>
      <trkpt lat="38.051253" lon="-2.911674">
        <ele>1459.4</ele>
        <time>2010-07-13T10:38:51Z</time>
      </trkpt>
      <trkpt lat="38.050888" lon="-2.911731">
        <ele>1455.6</ele>
        <time>2010-07-13T10:38:51Z</time>
      </trkpt>
      <trkpt lat="38.050362" lon="-2.911850">
        <ele>1455.6</ele>
        <time>2010-07-13T10:38:51Z</time>
      </trkpt>
      <trkpt lat="38.050257" lon="-2.911873">
        <ele>1450.8</ele>
        <time>2010-07-13T10:38:51Z</time>
      </trkpt>
      <trkpt lat="38.049947" lon="-2.912000">
        <ele>1451.2</ele>
        <time>2010-07-13T10:38:51Z</time>
      </trkpt>
      <trkpt lat="38.049402" lon="-2.912149">
        <ele>1450.8</ele>
        <time>2010-07-13T10:38:51Z</time>
      </trkpt>
      <trkpt lat="38.048953" lon="-2.912355">
        <ele>1450.3</ele>
        <time>2010-07-13T10:38:51Z</time>
      </trkpt>
      <trkpt lat="38.048341" lon="-2.912847">
        <ele>1448.4</ele>
        <time>2010-07-13T10:38:51Z</time>
      </trkpt>
      <trkpt lat="38.048237" lon="-2.912905">
        <ele>1447.9</ele>
        <time>2010-07-13T10:38:51Z</time>
      </trkpt>
      <trkpt lat="38.048133" lon="-2.912938">
        <ele>1447.9</ele>
        <time>2010-07-13T10:38:51Z</time>
      </trkpt>
      <trkpt lat="38.048050" lon="-2.912901">
        <ele>1447.9</ele>
        <time>2010-07-13T10:38:51Z</time>
      </trkpt>
      <trkpt lat="38.047883" lon="-2.912607">
        <ele>1445.0</ele>
        <time>2010-07-13T10:38:51Z</time>
      </trkpt>
      <trkpt lat="38.047810" lon="-2.912547">
        <ele>1444.5</ele>
        <time>2010-07-13T10:38:51Z</time>
      </trkpt>
      <trkpt lat="38.047588" lon="-2.912532">
        <ele>1442.6</ele>
        <time>2010-07-13T10:38:51Z</time>
      </trkpt>
      <trkpt lat="38.047315" lon="-2.912445">
        <ele>1442.1</ele>
        <time>2010-07-13T10:38:51Z</time>
      </trkpt>
      <trkpt lat="38.047225" lon="-2.912358">
        <ele>1441.2</ele>
        <time>2010-07-13T10:38:51Z</time>
      </trkpt>
      <trkpt lat="38.047171" lon="-2.912234">
        <ele>1439.7</ele>
        <time>2010-07-13T10:38:51Z</time>
      </trkpt>
      <trkpt lat="38.047099" lon="-2.912153">
        <ele>1438.8</ele>
        <time>2010-07-13T10:38:51Z</time>
      </trkpt>
      <trkpt lat="38.047000" lon="-2.912131">
        <ele>1437.3</ele>
        <time>2010-07-13T10:38:51Z</time>
      </trkpt>
      <trkpt lat="38.046769" lon="-2.912179">
        <ele>1437.8</ele>
        <time>2010-07-13T10:38:51Z</time>
      </trkpt>
      <trkpt lat="38.046572" lon="-2.912183">
        <ele>1434.9</ele>
        <time>2010-07-13T10:38:51Z</time>
      </trkpt>
      <trkpt lat="38.046482" lon="-2.912092">
        <ele>1434.4</ele>
        <time>2010-07-13T10:38:51Z</time>
      </trkpt>
      <trkpt lat="38.046367" lon="-2.911847">
        <ele>1432.5</ele>
        <time>2010-07-13T10:38:51Z</time>
      </trkpt>
      <trkpt lat="38.046359" lon="-2.911700">
        <ele>1431.5</ele>
        <time>2010-07-13T10:38:51Z</time>
      </trkpt>
      <trkpt lat="38.046404" lon="-2.911567">
        <ele>1429.6</ele>
        <time>2010-07-13T10:38:51Z</time>
      </trkpt>
      <trkpt lat="38.046407" lon="-2.911447">
        <ele>1428.7</ele>
        <time>2010-07-13T10:38:51Z</time>
      </trkpt>
      <trkpt lat="38.046319" lon="-2.911378">
        <ele>1427.7</ele>
        <time>2010-07-13T10:38:51Z</time>
      </trkpt>
      <trkpt lat="38.046204" lon="-2.911331">
        <ele>1427.2</ele>
        <time>2010-07-13T10:38:51Z</time>
      </trkpt>
      <trkpt lat="38.046125" lon="-2.911208">
        <ele>1426.7</ele>
        <time>2010-07-13T10:38:51Z</time>
      </trkpt>
      <trkpt lat="38.046128" lon="-2.911077">
        <ele>1426.3</ele>
        <time>2010-07-13T10:38:51Z</time>
      </trkpt>
      <trkpt lat="38.046159" lon="-2.910964">
        <ele>1425.3</ele>
        <time>2010-07-13T10:38:51Z</time>
      </trkpt>
      <trkpt lat="38.046134" lon="-2.910859">
        <ele>1424.8</ele>
        <time>2010-07-13T10:38:51Z</time>
      </trkpt>
      <trkpt lat="38.045987" lon="-2.910623">
        <ele>1422.4</ele>
        <time>2010-07-13T10:38:51Z</time>
      </trkpt>
      <trkpt lat="38.045736" lon="-2.910300">
        <ele>1419.5</ele>
        <time>2010-07-13T10:38:51Z</time>
      </trkpt>
      <trkpt lat="38.045609" lon="-2.910102">
        <ele>1418.1</ele>
        <time>2010-07-13T10:38:51Z</time>
      </trkpt>
      <trkpt lat="38.045475" lon="-2.909826">
        <ele>1418.6</ele>
        <time>2010-07-13T10:38:51Z</time>
      </trkpt>
      <trkpt lat="38.045403" lon="-2.909484">
        <ele>1417.1</ele>
        <time>2010-07-13T10:38:51Z</time>
      </trkpt>
      <trkpt lat="38.045380" lon="-2.909240">
        <ele>1417.1</ele>
        <time>2010-07-13T10:38:51Z</time>
      </trkpt>
      <trkpt lat="38.045383" lon="-2.908853">
        <ele>1419.5</ele>
        <time>2010-07-13T10:38:51Z</time>
      </trkpt>
      <trkpt lat="38.045657" lon="-2.908554">
        <ele>1421.4</ele>
        <time>2010-07-13T10:38:51Z</time>
      </trkpt>
      <trkpt lat="38.045649" lon="-2.908414">
        <ele>1421.4</ele>
        <time>2010-07-13T10:38:51Z</time>
      </trkpt>
      <trkpt lat="38.045572" lon="-2.908346">
        <ele>1421.4</ele>
        <time>2010-07-13T10:38:51Z</time>
      </trkpt>
      <trkpt lat="38.045485" lon="-2.908314">
        <ele>1423.8</ele>
        <time>2010-07-13T10:38:51Z</time>
      </trkpt>
      <trkpt lat="38.044652" lon="-2.908864">
        <ele>1427.2</ele>
        <time>2010-07-13T10:38:51Z</time>
      </trkpt>
      <trkpt lat="38.044535" lon="-2.908904">
        <ele>1427.7</ele>
        <time>2010-07-13T10:38:51Z</time>
      </trkpt>
      <trkpt lat="38.044451" lon="-2.908837">
        <ele>1427.2</ele>
        <time>2010-07-13T10:38:51Z</time>
      </trkpt>
      <trkpt lat="38.044453" lon="-2.908677">
        <ele>1425.8</ele>
        <time>2010-07-13T10:38:51Z</time>
      </trkpt>
      <trkpt lat="38.044504" lon="-2.908580">
        <ele>1425.3</ele>
        <time>2010-07-13T10:38:51Z</time>
      </trkpt>
      <trkpt lat="38.044745" lon="-2.908363">
        <ele>1423.8</ele>
        <time>2010-07-13T10:38:51Z</time>
      </trkpt>
      <trkpt lat="38.044795" lon="-2.908268">
        <ele>1423.8</ele>
        <time>2010-07-13T10:38:51Z</time>
      </trkpt>
      <trkpt lat="38.044788" lon="-2.908127">
        <ele>1424.3</ele>
        <time>2010-07-13T10:38:51Z</time>
      </trkpt>
      <trkpt lat="38.044687" lon="-2.908022">
        <ele>1424.3</ele>
        <time>2010-07-13T10:38:51Z</time>
      </trkpt>
      <trkpt lat="38.044401" lon="-2.907905">
        <ele>1426.3</ele>
        <time>2010-07-13T10:38:51Z</time>
      </trkpt>
      <trkpt lat="38.044322" lon="-2.907771">
        <ele>1426.3</ele>
        <time>2010-07-13T10:38:51Z</time>
      </trkpt>
      <trkpt lat="38.044301" lon="-2.907364">
        <ele>1425.8</ele>
        <time>2010-07-13T10:38:51Z</time>
      </trkpt>
      <trkpt lat="38.044205" lon="-2.906609">
        <ele>1423.8</ele>
        <time>2010-07-13T10:38:51Z</time>
      </trkpt>
      <trkpt lat="38.044241" lon="-2.906478">
        <ele>1423.4</ele>
        <time>2010-07-13T10:38:51Z</time>
      </trkpt>
      <trkpt lat="38.044598" lon="-2.905673">
        <ele>1425.3</ele>
        <time>2010-07-13T10:38:51Z</time>
      </trkpt>
      <trkpt lat="38.044974" lon="-2.905089">
        <ele>1428.2</ele>
        <time>2010-07-13T10:38:51Z</time>
      </trkpt>
      <trkpt lat="38.044987" lon="-2.904978">
        <ele>1428.2</ele>
        <time>2010-07-13T10:38:51Z</time>
      </trkpt>
      <trkpt lat="38.044936" lon="-2.904880">
        <ele>1429.1</ele>
        <time>2010-07-13T10:38:51Z</time>
      </trkpt>
      <trkpt lat="38.044833" lon="-2.904835">
        <ele>1430.1</ele>
        <time>2010-07-13T10:38:51Z</time>
      </trkpt>
      <trkpt lat="38.044725" lon="-2.904883">
        <ele>1431.1</ele>
        <time>2010-07-13T10:38:51Z</time>
      </trkpt>
      <trkpt lat="38.044595" lon="-2.904910">
        <ele>1432.0</ele>
        <time>2010-07-13T10:38:51Z</time>
      </trkpt>
      <trkpt lat="38.044509" lon="-2.904944">
        <ele>1432.5</ele>
        <time>2010-07-13T10:38:51Z</time>
      </trkpt>
      <trkpt lat="38.044334" lon="-2.905118">
        <ele>1434.9</ele>
        <time>2010-07-13T10:38:51Z</time>
      </trkpt>
      <trkpt lat="38.044120" lon="-2.905214">
        <ele>1437.3</ele>
        <time>2010-07-13T10:38:51Z</time>
      </trkpt>
      <trkpt lat="38.043798" lon="-2.905263">
        <ele>1438.8</ele>
        <time>2010-07-13T10:38:51Z</time>
      </trkpt>
      <trkpt lat="38.043669" lon="-2.905323">
        <ele>1440.2</ele>
        <time>2010-07-13T10:38:51Z</time>
      </trkpt>
      <trkpt lat="38.043283" lon="-2.905351">
        <ele>1441.6</ele>
        <time>2010-07-13T10:38:51Z</time>
      </trkpt>
      <trkpt lat="38.043071" lon="-2.905279">
        <ele>1439.2</ele>
        <time>2010-07-13T10:38:51Z</time>
      </trkpt>
      <trkpt lat="38.043001" lon="-2.905174">
        <ele>1439.2</ele>
        <time>2010-07-13T10:38:51Z</time>
      </trkpt>
      <trkpt lat="38.042943" lon="-2.904898">
        <ele>1437.8</ele>
        <time>2010-07-13T10:38:51Z</time>
      </trkpt>
      <trkpt lat="38.042862" lon="-2.904803">
        <ele>1437.3</ele>
        <time>2010-07-13T10:38:51Z</time>
      </trkpt>
      <trkpt lat="38.042615" lon="-2.904709">
        <ele>1435.9</ele>
        <time>2010-07-13T10:38:51Z</time>
      </trkpt>
      <trkpt lat="38.042402" lon="-2.904591">
        <ele>1433.5</ele>
        <time>2010-07-13T10:38:51Z</time>
      </trkpt>
      <trkpt lat="38.042317" lon="-2.904528">
        <ele>1433.5</ele>
        <time>2010-07-13T10:38:51Z</time>
      </trkpt>
      <trkpt lat="38.042183" lon="-2.904365">
        <ele>1434.4</ele>
        <time>2010-07-13T10:38:51Z</time>
      </trkpt>
      <trkpt lat="38.042099" lon="-2.904128">
        <ele>1434.9</ele>
        <time>2010-07-13T10:38:51Z</time>
      </trkpt>
      <trkpt lat="38.042073" lon="-2.904005">
        <ele>1435.4</ele>
        <time>2010-07-13T10:38:51Z</time>
      </trkpt>
      <trkpt lat="38.042053" lon="-2.903844">
        <ele>1439.7</ele>
        <time>2010-07-13T10:38:51Z</time>
      </trkpt>
      <trkpt lat="38.042005" lon="-2.903561">
        <ele>1440.2</ele>
        <time>2010-07-13T10:38:51Z</time>
      </trkpt>
      <trkpt lat="38.041862" lon="-2.903002">
        <ele>1442.6</ele>
        <time>2010-07-13T10:38:51Z</time>
      </trkpt>
      <trkpt lat="38.041747" lon="-2.902733">
        <ele>1443.1</ele>
        <time>2010-07-13T10:38:51Z</time>
      </trkpt>
      <trkpt lat="38.041432" lon="-2.902110">
        <ele>1443.1</ele>
        <time>2010-07-13T10:38:51Z</time>
      </trkpt>
      <trkpt lat="38.041297" lon="-2.901755">
        <ele>1444.5</ele>
        <time>2010-07-13T10:38:51Z</time>
      </trkpt>
      <trkpt lat="38.041198" lon="-2.901722">
        <ele>1445.0</ele>
        <time>2010-07-13T10:38:51Z</time>
      </trkpt>
      <trkpt lat="38.040890" lon="-2.901742">
        <ele>1446.9</ele>
        <time>2010-07-13T10:38:51Z</time>
      </trkpt>
      <trkpt lat="38.040800" lon="-2.901711">
        <ele>1447.4</ele>
        <time>2010-07-13T10:38:51Z</time>
      </trkpt>
      <trkpt lat="38.040590" lon="-2.901305">
        <ele>1449.3</ele>
        <time>2010-07-13T10:38:51Z</time>
      </trkpt>
      <trkpt lat="38.040513" lon="-2.901204">
        <ele>1450.3</ele>
        <time>2010-07-13T10:38:51Z</time>
      </trkpt>
      <trkpt lat="38.040412" lon="-2.901150">
        <ele>1451.2</ele>
        <time>2010-07-13T10:38:51Z</time>
      </trkpt>
      <trkpt lat="38.040301" lon="-2.901143">
        <ele>1451.7</ele>
        <time>2010-07-13T10:38:51Z</time>
      </trkpt>
      <trkpt lat="38.039969" lon="-2.901194">
        <ele>1451.7</ele>
        <time>2010-07-13T10:38:51Z</time>
      </trkpt>
      <trkpt lat="38.039866" lon="-2.901166">
        <ele>1452.2</ele>
        <time>2010-07-13T10:38:51Z</time>
      </trkpt>
      <trkpt lat="38.039765" lon="-2.901160">
        <ele>1453.7</ele>
        <time>2010-07-13T10:38:51Z</time>
      </trkpt>
      <trkpt lat="38.039465" lon="-2.901214">
        <ele>1455.6</ele>
        <time>2010-07-13T10:38:51Z</time>
      </trkpt>
      <trkpt lat="38.039367" lon="-2.901195">
        <ele>1455.6</ele>
        <time>2010-07-13T10:38:51Z</time>
      </trkpt>
      <trkpt lat="38.039263" lon="-2.901206">
        <ele>1456.1</ele>
        <time>2010-07-13T10:38:51Z</time>
      </trkpt>
      <trkpt lat="38.039084" lon="-2.901303">
        <ele>1457.5</ele>
        <time>2010-07-13T10:38:51Z</time>
      </trkpt>
      <trkpt lat="38.038969" lon="-2.901308">
        <ele>1458.0</ele>
        <time>2010-07-13T10:38:51Z</time>
      </trkpt>
      <trkpt lat="38.038861" lon="-2.901290">
        <ele>1458.0</ele>
        <time>2010-07-13T10:38:51Z</time>
      </trkpt>
      <trkpt lat="38.038776" lon="-2.901259">
        <ele>1459.9</ele>
        <time>2010-07-13T10:38:51Z</time>
      </trkpt>
      <trkpt lat="38.038713" lon="-2.901143">
        <ele>1459.4</ele>
        <time>2010-07-13T10:38:51Z</time>
      </trkpt>
      <trkpt lat="38.038658" lon="-2.900911">
        <ele>1459.4</ele>
        <time>2010-07-13T10:38:51Z</time>
      </trkpt>
      <trkpt lat="38.038592" lon="-2.900824">
        <ele>1459.9</ele>
        <time>2010-07-13T10:38:51Z</time>
      </trkpt>
      <trkpt lat="38.038507" lon="-2.900782">
        <ele>1460.4</ele>
        <time>2010-07-13T10:38:51Z</time>
      </trkpt>
      <trkpt lat="38.038400" lon="-2.900778">
        <ele>1460.9</ele>
        <time>2010-07-13T10:38:51Z</time>
      </trkpt>
      <trkpt lat="38.038106" lon="-2.900855">
        <ele>1463.7</ele>
        <time>2010-07-13T10:38:51Z</time>
      </trkpt>
      <trkpt lat="38.037912" lon="-2.900938">
        <ele>1461.8</ele>
        <time>2010-07-13T10:38:51Z</time>
      </trkpt>
      <trkpt lat="38.037593" lon="-2.900981">
        <ele>1461.3</ele>
        <time>2010-07-13T10:38:51Z</time>
      </trkpt>
      <trkpt lat="38.037497" lon="-2.901019">
        <ele>1462.3</ele>
        <time>2010-07-13T10:38:51Z</time>
      </trkpt>
      <trkpt lat="38.037196" lon="-2.901256">
        <ele>1461.3</ele>
        <time>2010-07-13T10:38:51Z</time>
      </trkpt>
      <trkpt lat="38.036970" lon="-2.901397">
        <ele>1459.9</ele>
        <time>2010-07-13T10:38:51Z</time>
      </trkpt>
      <trkpt lat="38.036610" lon="-2.901802">
        <ele>1456.1</ele>
        <time>2010-07-13T10:38:51Z</time>
      </trkpt>
      <trkpt lat="38.036425" lon="-2.901909">
        <ele>1455.1</ele>
        <time>2010-07-13T10:38:51Z</time>
      </trkpt>
      <trkpt lat="38.036314" lon="-2.901910">
        <ele>1454.6</ele>
        <time>2010-07-13T10:38:51Z</time>
      </trkpt>
      <trkpt lat="38.036105" lon="-2.901862">
        <ele>1454.6</ele>
        <time>2010-07-13T10:38:51Z</time>
      </trkpt>
      <trkpt lat="38.036002" lon="-2.901884">
        <ele>1454.1</ele>
        <time>2010-07-13T10:38:51Z</time>
      </trkpt>
      <trkpt lat="38.035667" lon="-2.901928">
        <ele>1457.0</ele>
        <time>2010-07-13T10:38:51Z</time>
      </trkpt>
      <trkpt lat="38.035455" lon="-2.901984">
        <ele>1458.9</ele>
        <time>2010-07-13T10:38:51Z</time>
      </trkpt>
      <trkpt lat="38.035215" lon="-2.902117">
        <ele>1459.9</ele>
        <time>2010-07-13T10:38:51Z</time>
      </trkpt>
      <trkpt lat="38.035105" lon="-2.902152">
        <ele>1460.4</ele>
        <time>2010-07-13T10:38:51Z</time>
      </trkpt>
      <trkpt lat="38.034797" lon="-2.902159">
        <ele>1459.9</ele>
        <time>2010-07-13T10:38:51Z</time>
      </trkpt>
      <trkpt lat="38.034501" lon="-2.902279">
        <ele>1457.5</ele>
        <time>2010-07-13T10:38:51Z</time>
      </trkpt>
      <trkpt lat="38.034303" lon="-2.902235">
        <ele>1458.0</ele>
        <time>2010-07-13T10:38:51Z</time>
      </trkpt>
      <trkpt lat="38.034097" lon="-2.902274">
        <ele>1456.1</ele>
        <time>2010-07-13T10:38:51Z</time>
      </trkpt>
      <trkpt lat="38.034011" lon="-2.902244">
        <ele>1456.5</ele>
        <time>2010-07-13T10:38:51Z</time>
      </trkpt>
      <trkpt lat="38.033878" lon="-2.902073">
        <ele>1456.1</ele>
        <time>2010-07-13T10:38:51Z</time>
      </trkpt>
      <trkpt lat="38.033767" lon="-2.902077">
        <ele>1456.1</ele>
        <time>2010-07-13T10:38:51Z</time>
      </trkpt>
      <trkpt lat="38.033592" lon="-2.902217">
        <ele>1456.5</ele>
        <time>2010-07-13T10:38:51Z</time>
      </trkpt>
      <trkpt lat="38.033501" lon="-2.902249">
        <ele>1459.9</ele>
        <time>2010-07-13T10:38:51Z</time>
      </trkpt>
      <trkpt lat="38.033293" lon="-2.902346">
        <ele>1458.2</ele>
        <time>2010-07-13T10:38:51Z</time>
      </trkpt>
      <trkpt lat="38.033087" lon="-2.902450">
        <ele>1454.1</ele>
        <time>1989-12-30T23:59:59Z</time>
      </trkpt>
      <trkpt lat="38.032996" lon="-2.902434">
        <ele>1454.1</ele>
        <time>1989-12-30T23:59:59Z</time>
      </trkpt>
      <trkpt lat="38.032908" lon="-2.902417">
        <ele>1454.1</ele>
        <time>1989-12-30T23:59:59Z</time>
      </trkpt>
      <trkpt lat="38.032808" lon="-2.902408">
        <ele>1454.6</ele>
        <time>1989-12-30T23:59:59Z</time>
      </trkpt>
      <trkpt lat="38.032709" lon="-2.902378">
        <ele>1454.6</ele>
        <time>1989-12-30T23:59:59Z</time>
      </trkpt>
      <trkpt lat="38.032629" lon="-2.902335">
        <ele>1453.7</ele>
        <time>1989-12-30T23:59:59Z</time>
      </trkpt>
      <trkpt lat="38.032557" lon="-2.902262">
        <ele>1454.1</ele>
        <time>1989-12-30T23:59:59Z</time>
      </trkpt>
      <trkpt lat="38.032480" lon="-2.902194">
        <ele>1454.6</ele>
        <time>1989-12-30T23:59:59Z</time>
      </trkpt>
      <trkpt lat="38.032382" lon="-2.902205">
        <ele>1456.1</ele>
        <time>1989-12-30T23:59:59Z</time>
      </trkpt>
      <trkpt lat="38.032284" lon="-2.902195">
        <ele>1456.1</ele>
        <time>1989-12-30T23:59:59Z</time>
      </trkpt>
      <trkpt lat="38.032180" lon="-2.902190">
        <ele>1456.5</ele>
        <time>1989-12-30T23:59:59Z</time>
      </trkpt>
      <trkpt lat="38.032090" lon="-2.902165">
        <ele>1457.5</ele>
        <time>1989-12-30T23:59:59Z</time>
      </trkpt>
      <trkpt lat="38.031999" lon="-2.902138">
        <ele>1458.5</ele>
        <time>1989-12-30T23:59:59Z</time>
      </trkpt>
      <trkpt lat="38.031907" lon="-2.902131">
        <ele>1458.5</ele>
        <time>1989-12-30T23:59:59Z</time>
      </trkpt>
      <trkpt lat="38.031806" lon="-2.902130">
        <ele>1459.4</ele>
        <time>1989-12-30T23:59:59Z</time>
      </trkpt>
      <trkpt lat="38.031739" lon="-2.902089">
        <ele>1457.5</ele>
        <time>1989-12-30T23:59:59Z</time>
      </trkpt>
      <trkpt lat="38.031640" lon="-2.902126">
        <ele>1459.9</ele>
        <time>1989-12-30T23:59:59Z</time>
      </trkpt>
      <trkpt lat="38.031557" lon="-2.902181">
        <ele>1461.3</ele>
        <time>1989-12-30T23:59:59Z</time>
      </trkpt>
      <trkpt lat="38.031503" lon="-2.902272">
        <ele>1463.3</ele>
        <time>1989-12-30T23:59:59Z</time>
      </trkpt>
      <trkpt lat="38.031417" lon="-2.902341">
        <ele>1462.3</ele>
        <time>1989-12-30T23:59:59Z</time>
      </trkpt>
      <trkpt lat="38.031329" lon="-2.902390">
        <ele>1463.7</ele>
        <time>1989-12-30T23:59:59Z</time>
      </trkpt>
      <trkpt lat="38.031234" lon="-2.902442">
        <ele>1465.2</ele>
        <time>1989-12-30T23:59:59Z</time>
      </trkpt>
      <trkpt lat="38.031148" lon="-2.902487">
        <ele>1464.7</ele>
        <time>1989-12-30T23:59:59Z</time>
      </trkpt>
      <trkpt lat="38.031055" lon="-2.902505">
        <ele>1464.7</ele>
        <time>1989-12-30T23:59:59Z</time>
      </trkpt>
      <trkpt lat="38.030957" lon="-2.902538">
        <ele>1465.2</ele>
        <time>1989-12-30T23:59:59Z</time>
      </trkpt>
      <trkpt lat="38.030868" lon="-2.902571">
        <ele>1465.2</ele>
        <time>1989-12-30T23:59:59Z</time>
      </trkpt>
      <trkpt lat="38.030777" lon="-2.902594">
        <ele>1464.2</ele>
        <time>1989-12-30T23:59:59Z</time>
      </trkpt>
      <trkpt lat="38.030682" lon="-2.902634">
        <ele>1464.2</ele>
        <time>1989-12-30T23:59:59Z</time>
      </trkpt>
      <trkpt lat="38.030576" lon="-2.902678">
        <ele>1468.1</ele>
        <time>1989-12-30T23:59:59Z</time>
      </trkpt>
      <trkpt lat="38.030490" lon="-2.902690">
        <ele>1469.5</ele>
        <time>1989-12-30T23:59:59Z</time>
      </trkpt>
      <trkpt lat="38.030429" lon="-2.902730">
        <ele>1465.2</ele>
        <time>1989-12-30T23:59:59Z</time>
      </trkpt>
      <trkpt lat="38.030334" lon="-2.902788">
        <ele>1466.6</ele>
        <time>1989-12-30T23:59:59Z</time>
      </trkpt>
      <trkpt lat="38.030250" lon="-2.902833">
        <ele>1467.1</ele>
        <time>1989-12-30T23:59:59Z</time>
      </trkpt>
      <trkpt lat="38.030084" lon="-2.902916">
        <ele>1467.1</ele>
        <time>1989-12-30T23:59:59Z</time>
      </trkpt>
      <trkpt lat="38.029996" lon="-2.902942">
        <ele>1466.6</ele>
        <time>1989-12-30T23:59:59Z</time>
      </trkpt>
      <trkpt lat="38.029896" lon="-2.902956">
        <ele>1466.6</ele>
        <time>1989-12-30T23:59:59Z</time>
      </trkpt>
      <trkpt lat="38.029803" lon="-2.902967">
        <ele>1466.6</ele>
        <time>1989-12-30T23:59:59Z</time>
      </trkpt>
      <trkpt lat="38.029710" lon="-2.902993">
        <ele>1467.1</ele>
        <time>1989-12-30T23:59:59Z</time>
      </trkpt>
      <trkpt lat="38.029629" lon="-2.903033">
        <ele>1468.1</ele>
        <time>1989-12-30T23:59:59Z</time>
      </trkpt>
      <trkpt lat="38.029526" lon="-2.903065">
        <ele>1469.5</ele>
        <time>1989-12-30T23:59:59Z</time>
      </trkpt>
      <trkpt lat="38.029447" lon="-2.903106">
        <ele>1469.5</ele>
        <time>1989-12-30T23:59:59Z</time>
      </trkpt>
      <trkpt lat="38.029356" lon="-2.903151">
        <ele>1469.5</ele>
        <time>1989-12-30T23:59:59Z</time>
      </trkpt>
      <trkpt lat="38.029259" lon="-2.903161">
        <ele>1467.6</ele>
        <time>1989-12-30T23:59:59Z</time>
      </trkpt>
      <trkpt lat="38.029152" lon="-2.903190">
        <ele>1469.0</ele>
        <time>1989-12-30T23:59:59Z</time>
      </trkpt>
      <trkpt lat="38.029050" lon="-2.903229">
        <ele>1471.9</ele>
        <time>1989-12-30T23:59:59Z</time>
      </trkpt>
      <trkpt lat="38.028946" lon="-2.903261">
        <ele>1472.4</ele>
        <time>1989-12-30T23:59:59Z</time>
      </trkpt>
      <trkpt lat="38.028837" lon="-2.903294">
        <ele>1474.8</ele>
        <time>1989-12-30T23:59:59Z</time>
      </trkpt>
      <trkpt lat="38.028744" lon="-2.903361">
        <ele>1474.8</ele>
        <time>1989-12-30T23:59:59Z</time>
      </trkpt>
      <trkpt lat="38.028662" lon="-2.903397">
        <ele>1474.3</ele>
        <time>1989-12-30T23:59:59Z</time>
      </trkpt>
      <trkpt lat="38.028569" lon="-2.903431">
        <ele>1472.9</ele>
        <time>1989-12-30T23:59:59Z</time>
      </trkpt>
      <trkpt lat="38.028475" lon="-2.903454">
        <ele>1473.4</ele>
        <time>1989-12-30T23:59:59Z</time>
      </trkpt>
      <trkpt lat="38.028386" lon="-2.903485">
        <ele>1473.8</ele>
        <time>1989-12-30T23:59:59Z</time>
      </trkpt>
      <trkpt lat="38.028308" lon="-2.903541">
        <ele>1474.3</ele>
        <time>1989-12-30T23:59:59Z</time>
      </trkpt>
      <trkpt lat="38.028218" lon="-2.903593">
        <ele>1474.8</ele>
        <time>1989-12-30T23:59:59Z</time>
      </trkpt>
      <trkpt lat="38.028031" lon="-2.903652">
        <ele>1477.2</ele>
        <time>1989-12-30T23:59:59Z</time>
      </trkpt>
      <trkpt lat="38.027934" lon="-2.903664">
        <ele>1478.6</ele>
        <time>1989-12-30T23:59:59Z</time>
      </trkpt>
      <trkpt lat="38.027824" lon="-2.903719">
        <ele>1480.6</ele>
        <time>1989-12-30T23:59:59Z</time>
      </trkpt>
      <trkpt lat="38.027740" lon="-2.903817">
        <ele>1484.4</ele>
        <time>1989-12-30T23:59:59Z</time>
      </trkpt>
      <trkpt lat="38.027661" lon="-2.903917">
        <ele>1483.5</ele>
        <time>1989-12-30T23:59:59Z</time>
      </trkpt>
      <trkpt lat="38.027560" lon="-2.903981">
        <ele>1483.9</ele>
        <time>1989-12-30T23:59:59Z</time>
      </trkpt>
      <trkpt lat="38.027455" lon="-2.904044">
        <ele>1486.8</ele>
        <time>1989-12-30T23:59:59Z</time>
      </trkpt>
      <trkpt lat="38.027362" lon="-2.904092">
        <ele>1489.2</ele>
        <time>1989-12-30T23:59:59Z</time>
      </trkpt>
      <trkpt lat="38.027265" lon="-2.904116">
        <ele>1490.2</ele>
        <time>1989-12-30T23:59:59Z</time>
      </trkpt>
      <trkpt lat="38.027184" lon="-2.904110">
        <ele>1490.2</ele>
        <time>1989-12-30T23:59:59Z</time>
      </trkpt>
      <trkpt lat="38.027070" lon="-2.904132">
        <ele>1490.7</ele>
        <time>1989-12-30T23:59:59Z</time>
      </trkpt>
      <trkpt lat="38.026975" lon="-2.904153">
        <ele>1490.7</ele>
        <time>1989-12-30T23:59:59Z</time>
      </trkpt>
      <trkpt lat="38.026862" lon="-2.904209">
        <ele>1489.7</ele>
        <time>1989-12-30T23:59:59Z</time>
      </trkpt>
      <trkpt lat="38.026795" lon="-2.904310">
        <ele>1491.6</ele>
        <time>1989-12-30T23:59:59Z</time>
      </trkpt>
      <trkpt lat="38.026736" lon="-2.904427">
        <ele>1493.1</ele>
        <time>1989-12-30T23:59:59Z</time>
      </trkpt>
      <trkpt lat="38.026689" lon="-2.904514">
        <ele>1493.1</ele>
        <time>1989-12-30T23:59:59Z</time>
      </trkpt>
      <trkpt lat="38.026647" lon="-2.904610">
        <ele>1493.5</ele>
        <time>1989-12-30T23:59:59Z</time>
      </trkpt>
      <trkpt lat="38.026599" lon="-2.904713">
        <ele>1495.0</ele>
        <time>1989-12-30T23:59:59Z</time>
      </trkpt>
      <trkpt lat="38.026506" lon="-2.904940">
        <ele>1495.5</ele>
        <time>1989-12-30T23:59:59Z</time>
      </trkpt>
      <trkpt lat="38.026419" lon="-2.905032">
        <ele>1495.5</ele>
        <time>1989-12-30T23:59:59Z</time>
      </trkpt>
      <trkpt lat="38.026334" lon="-2.905112">
        <ele>1495.0</ele>
        <time>1989-12-30T23:59:59Z</time>
      </trkpt>
      <trkpt lat="38.026256" lon="-2.905195">
        <ele>1495.0</ele>
        <time>1989-12-30T23:59:59Z</time>
      </trkpt>
      <trkpt lat="38.026168" lon="-2.905256">
        <ele>1495.5</ele>
        <time>1989-12-30T23:59:59Z</time>
      </trkpt>
      <trkpt lat="38.026081" lon="-2.905333">
        <ele>1497.4</ele>
        <time>1989-12-30T23:59:59Z</time>
      </trkpt>
      <trkpt lat="38.025997" lon="-2.905410">
        <ele>1497.4</ele>
        <time>1989-12-30T23:59:59Z</time>
      </trkpt>
      <trkpt lat="38.025913" lon="-2.905486">
        <ele>1496.9</ele>
        <time>1989-12-30T23:59:59Z</time>
      </trkpt>
      <trkpt lat="38.025844" lon="-2.905572">
        <ele>1496.9</ele>
        <time>1989-12-30T23:59:59Z</time>
      </trkpt>
      <trkpt lat="38.025762" lon="-2.905654">
        <ele>1498.8</ele>
        <time>1989-12-30T23:59:59Z</time>
      </trkpt>
      <trkpt lat="38.025676" lon="-2.905735">
        <ele>1499.3</ele>
        <time>1989-12-30T23:59:59Z</time>
      </trkpt>
      <trkpt lat="38.025590" lon="-2.905813">
        <ele>1501.2</ele>
        <time>1989-12-30T23:59:59Z</time>
      </trkpt>
      <trkpt lat="38.025545" lon="-2.905886">
        <ele>1502.7</ele>
        <time>1989-12-30T23:59:59Z</time>
      </trkpt>
      <trkpt lat="38.025471" lon="-2.905954">
        <ele>1500.8</ele>
        <time>1989-12-30T23:59:59Z</time>
      </trkpt>
      <trkpt lat="38.025379" lon="-2.906025">
        <ele>1502.2</ele>
        <time>1989-12-30T23:59:59Z</time>
      </trkpt>
      <trkpt lat="38.025303" lon="-2.906099">
        <ele>1504.1</ele>
        <time>1989-12-30T23:59:59Z</time>
      </trkpt>
      <trkpt lat="38.025227" lon="-2.906172">
        <ele>1503.2</ele>
        <time>1989-12-30T23:59:59Z</time>
      </trkpt>
      <trkpt lat="38.024882" lon="-2.906508">
        <ele>1499.3</ele>
        <time>1989-12-30T23:59:59Z</time>
      </trkpt>
      <trkpt lat="38.024834" lon="-2.906645">
        <ele>1500.3</ele>
        <time>1989-12-30T23:59:59Z</time>
      </trkpt>
      <trkpt lat="38.024811" lon="-2.906788">
        <ele>1502.2</ele>
        <time>1989-12-30T23:59:59Z</time>
      </trkpt>
      <trkpt lat="38.024757" lon="-2.906931">
        <ele>1506.5</ele>
        <time>1989-12-30T23:59:59Z</time>
      </trkpt>
      <trkpt lat="38.024680" lon="-2.907038">
        <ele>1508.9</ele>
        <time>1989-12-30T23:59:59Z</time>
      </trkpt>
      <trkpt lat="38.024623" lon="-2.907135">
        <ele>1508.9</ele>
        <time>1989-12-30T23:59:59Z</time>
      </trkpt>
      <trkpt lat="38.024551" lon="-2.907212">
        <ele>1507.0</ele>
        <time>1989-12-30T23:59:59Z</time>
      </trkpt>
      <trkpt lat="38.024479" lon="-2.907288">
        <ele>1504.6</ele>
        <time>1989-12-30T23:59:59Z</time>
      </trkpt>
      <trkpt lat="38.024395" lon="-2.907335">
        <ele>1502.2</ele>
        <time>1989-12-30T23:59:59Z</time>
      </trkpt>
      <trkpt lat="38.024310" lon="-2.907385">
        <ele>1502.2</ele>
        <time>1989-12-30T23:59:59Z</time>
      </trkpt>
      <trkpt lat="38.024217" lon="-2.907422">
        <ele>1506.0</ele>
        <time>1989-12-30T23:59:59Z</time>
      </trkpt>
      <trkpt lat="38.024123" lon="-2.907479">
        <ele>1504.6</ele>
        <time>1989-12-30T23:59:59Z</time>
      </trkpt>
      <trkpt lat="38.024071" lon="-2.907553">
        <ele>1501.7</ele>
        <time>1989-12-30T23:59:59Z</time>
      </trkpt>
      <trkpt lat="38.024002" lon="-2.907593">
        <ele>1498.4</ele>
        <time>1989-12-30T23:59:59Z</time>
      </trkpt>
      <trkpt lat="38.023955" lon="-2.907584">
        <ele>1501.7</ele>
        <time>1989-12-30T23:59:59Z</time>
      </trkpt>
      <trkpt lat="38.023872" lon="-2.907625">
        <ele>1493.1</ele>
        <time>1989-12-30T23:59:59Z</time>
      </trkpt>
      <trkpt lat="38.023776" lon="-2.907685">
        <ele>1493.5</ele>
        <time>1989-12-30T23:59:59Z</time>
      </trkpt>
      <trkpt lat="38.023683" lon="-2.907772">
        <ele>1494.0</ele>
        <time>1989-12-30T23:59:59Z</time>
      </trkpt>
      <trkpt lat="38.023639" lon="-2.907819">
        <ele>1493.1</ele>
        <time>1989-12-30T23:59:59Z</time>
      </trkpt>
      <trkpt lat="38.023572" lon="-2.907928">
        <ele>1493.1</ele>
        <time>1989-12-30T23:59:59Z</time>
      </trkpt>
      <trkpt lat="38.023499" lon="-2.908016">
        <ele>1493.5</ele>
        <time>1989-12-30T23:59:59Z</time>
      </trkpt>
      <trkpt lat="38.023430" lon="-2.908091">
        <ele>1493.1</ele>
        <time>1989-12-30T23:59:59Z</time>
      </trkpt>
      <trkpt lat="38.023351" lon="-2.908171">
        <ele>1492.6</ele>
        <time>1989-12-30T23:59:59Z</time>
      </trkpt>
      <trkpt lat="38.023270" lon="-2.908241">
        <ele>1493.1</ele>
        <time>1989-12-30T23:59:59Z</time>
      </trkpt>
      <trkpt lat="38.023195" lon="-2.908353">
        <ele>1492.1</ele>
        <time>1989-12-30T23:59:59Z</time>
      </trkpt>
      <trkpt lat="38.023192" lon="-2.908368">
        <ele>1490.2</ele>
        <time>1989-12-30T23:59:59Z</time>
      </trkpt>
      <trkpt lat="38.023202" lon="-2.908480">
        <ele>1487.8</ele>
        <time>1989-12-30T23:59:59Z</time>
      </trkpt>
      <trkpt lat="38.023262" lon="-2.908593">
        <ele>1485.9</ele>
        <time>1989-12-30T23:59:59Z</time>
      </trkpt>
      <trkpt lat="38.023116" lon="-2.908671">
        <ele>1483.0</ele>
        <time>1989-12-30T23:59:59Z</time>
      </trkpt>
      <trkpt lat="38.022967" lon="-2.908760">
        <ele>1480.1</ele>
        <time>1989-12-30T23:59:59Z</time>
      </trkpt>
      <trkpt lat="38.022895" lon="-2.908857">
        <ele>1488.7</ele>
        <time>1989-12-30T23:59:59Z</time>
      </trkpt>
      <trkpt lat="38.022760" lon="-2.908913">
        <ele>1479.6</ele>
        <time>1989-12-30T23:59:59Z</time>
      </trkpt>
      <trkpt lat="38.022676" lon="-2.909137">
        <ele>1474.3</ele>
        <time>1989-12-30T23:59:59Z</time>
      </trkpt>
      <trkpt lat="38.022777" lon="-2.909253">
        <ele>1472.4</ele>
        <time>1989-12-30T23:59:59Z</time>
      </trkpt>
      <trkpt lat="38.022817" lon="-2.909365">
        <ele>1468.1</ele>
        <time>1989-12-30T23:59:59Z</time>
      </trkpt>
      <trkpt lat="38.022858" lon="-2.909474">
        <ele>1466.1</ele>
        <time>1989-12-30T23:59:59Z</time>
      </trkpt>
      <trkpt lat="38.022857" lon="-2.909586">
        <ele>1464.2</ele>
        <time>1989-12-30T23:59:59Z</time>
      </trkpt>
      <trkpt lat="38.022765" lon="-2.909650">
        <ele>1465.7</ele>
        <time>1989-12-30T23:59:59Z</time>
      </trkpt>
      <trkpt lat="38.022676" lon="-2.909702">
        <ele>1464.7</ele>
        <time>1989-12-30T23:59:59Z</time>
      </trkpt>
      <trkpt lat="38.022588" lon="-2.909755">
        <ele>1463.3</ele>
        <time>1989-12-30T23:59:59Z</time>
      </trkpt>
      <trkpt lat="38.022493" lon="-2.909804">
        <ele>1461.8</ele>
        <time>1989-12-30T23:59:59Z</time>
      </trkpt>
      <trkpt lat="38.022316" lon="-2.909904">
        <ele>1461.8</ele>
        <time>1989-12-30T23:59:59Z</time>
      </trkpt>
      <trkpt lat="38.022222" lon="-2.909951">
        <ele>1460.9</ele>
        <time>1989-12-30T23:59:59Z</time>
      </trkpt>
      <trkpt lat="38.022138" lon="-2.909974">
        <ele>1461.3</ele>
        <time>1989-12-30T23:59:59Z</time>
      </trkpt>
      <trkpt lat="38.022075" lon="-2.910070">
        <ele>1460.4</ele>
        <time>1989-12-30T23:59:59Z</time>
      </trkpt>
      <trkpt lat="38.021983" lon="-2.910112">
        <ele>1459.4</ele>
        <time>1989-12-30T23:59:59Z</time>
      </trkpt>
      <trkpt lat="38.021771" lon="-2.910140">
        <ele>1458.0</ele>
        <time>1989-12-30T23:59:59Z</time>
      </trkpt>
      <trkpt lat="38.021540" lon="-2.910098">
        <ele>1457.0</ele>
        <time>1989-12-30T23:59:59Z</time>
      </trkpt>
      <trkpt lat="38.021460" lon="-2.910119">
        <ele>1452.2</ele>
        <time>1989-12-30T23:59:59Z</time>
      </trkpt>
      <trkpt lat="38.021349" lon="-2.910163">
        <ele>1452.7</ele>
        <time>1989-12-30T23:59:59Z</time>
      </trkpt>
      <trkpt lat="38.021255" lon="-2.910207">
        <ele>1452.7</ele>
        <time>1989-12-30T23:59:59Z</time>
      </trkpt>
      <trkpt lat="38.021172" lon="-2.910185">
        <ele>1455.1</ele>
        <time>1989-12-30T23:59:59Z</time>
      </trkpt>
      <trkpt lat="38.020722" lon="-2.910481">
        <ele>1455.6</ele>
        <time>1989-12-30T23:59:59Z</time>
      </trkpt>
      <trkpt lat="38.020695" lon="-2.910505">
        <ele>1450.3</ele>
        <time>1989-12-30T23:59:59Z</time>
      </trkpt>
      <trkpt lat="38.020623" lon="-2.910591">
        <ele>1450.3</ele>
        <time>1989-12-30T23:59:59Z</time>
      </trkpt>
      <trkpt lat="38.020549" lon="-2.910670">
        <ele>1449.3</ele>
        <time>1989-12-30T23:59:59Z</time>
      </trkpt>
      <trkpt lat="38.020479" lon="-2.910757">
        <ele>1447.9</ele>
        <time>1989-12-30T23:59:59Z</time>
      </trkpt>
      <trkpt lat="38.020407" lon="-2.910848">
        <ele>1448.4</ele>
        <time>1989-12-30T23:59:59Z</time>
      </trkpt>
      <trkpt lat="38.020339" lon="-2.910927">
        <ele>1448.8</ele>
        <time>1989-12-30T23:59:59Z</time>
      </trkpt>
      <trkpt lat="38.020278" lon="-2.911011">
        <ele>1448.8</ele>
        <time>1989-12-30T23:59:59Z</time>
      </trkpt>
      <trkpt lat="38.020233" lon="-2.911119">
        <ele>1448.4</ele>
        <time>1989-12-30T23:59:59Z</time>
      </trkpt>
      <trkpt lat="38.020187" lon="-2.911213">
        <ele>1446.4</ele>
        <time>1989-12-30T23:59:59Z</time>
      </trkpt>
      <trkpt lat="38.020114" lon="-2.911333">
        <ele>1446.0</ele>
        <time>1989-12-30T23:59:59Z</time>
      </trkpt>
      <trkpt lat="38.020000" lon="-2.911425">
        <ele>1447.4</ele>
        <time>1989-12-30T23:59:59Z</time>
      </trkpt>
      <trkpt lat="38.019926" lon="-2.911497">
        <ele>1446.4</ele>
        <time>1989-12-30T23:59:59Z</time>
      </trkpt>
      <trkpt lat="38.019838" lon="-2.911567">
        <ele>1445.0</ele>
        <time>1989-12-30T23:59:59Z</time>
      </trkpt>
      <trkpt lat="38.019767" lon="-2.911621">
        <ele>1444.5</ele>
        <time>1989-12-30T23:59:59Z</time>
      </trkpt>
      <trkpt lat="38.019686" lon="-2.911712">
        <ele>1443.6</ele>
        <time>1989-12-30T23:59:59Z</time>
      </trkpt>
      <trkpt lat="38.019606" lon="-2.911800">
        <ele>1444.5</ele>
        <time>1989-12-30T23:59:59Z</time>
      </trkpt>
      <trkpt lat="38.019524" lon="-2.911885">
        <ele>1444.0</ele>
        <time>1989-12-30T23:59:59Z</time>
      </trkpt>
      <trkpt lat="38.019438" lon="-2.911914">
        <ele>1444.0</ele>
        <time>1989-12-30T23:59:59Z</time>
      </trkpt>
      <trkpt lat="38.019330" lon="-2.911941">
        <ele>1443.1</ele>
        <time>1989-12-30T23:59:59Z</time>
      </trkpt>
      <trkpt lat="38.019229" lon="-2.911971">
        <ele>1437.8</ele>
        <time>1989-12-30T23:59:59Z</time>
      </trkpt>
      <trkpt lat="38.019148" lon="-2.911980">
        <ele>1437.8</ele>
        <time>1989-12-30T23:59:59Z</time>
      </trkpt>
      <trkpt lat="38.018997" lon="-2.912378">
        <ele>1438.8</ele>
        <time>1989-12-30T23:59:59Z</time>
      </trkpt>
      <trkpt lat="38.018897" lon="-2.912517">
        <ele>1436.8</ele>
        <time>1989-12-30T23:59:59Z</time>
      </trkpt>
      <trkpt lat="38.018861" lon="-2.912531">
        <ele>1433.9</ele>
        <time>1989-12-30T23:59:59Z</time>
      </trkpt>
      <trkpt lat="38.018657" lon="-2.912644">
        <ele>1431.1</ele>
        <time>1989-12-30T23:59:59Z</time>
      </trkpt>
      <trkpt lat="38.018570" lon="-2.912725">
        <ele>1432.0</ele>
        <time>1989-12-30T23:59:59Z</time>
      </trkpt>
      <trkpt lat="38.018371" lon="-2.912877">
        <ele>1428.2</ele>
        <time>1989-12-30T23:59:59Z</time>
      </trkpt>
      <trkpt lat="38.018293" lon="-2.912876">
        <ele>1428.7</ele>
        <time>1989-12-30T23:59:59Z</time>
      </trkpt>
      <trkpt lat="38.018209" lon="-2.912770">
        <ele>1427.2</ele>
        <time>1989-12-30T23:59:59Z</time>
      </trkpt>
      <trkpt lat="38.018074" lon="-2.912759">
        <ele>1428.2</ele>
        <time>1989-12-30T23:59:59Z</time>
      </trkpt>
      <trkpt lat="38.017996" lon="-2.912816">
        <ele>1428.2</ele>
        <time>1989-12-30T23:59:59Z</time>
      </trkpt>
      <trkpt lat="38.017963" lon="-2.912943">
        <ele>1431.1</ele>
        <time>1989-12-30T23:59:59Z</time>
      </trkpt>
      <trkpt lat="38.017939" lon="-2.913182">
        <ele>1431.5</ele>
        <time>1989-12-30T23:59:59Z</time>
      </trkpt>
      <trkpt lat="38.017949" lon="-2.913300">
        <ele>1431.1</ele>
        <time>1989-12-30T23:59:59Z</time>
      </trkpt>
      <trkpt lat="38.017973" lon="-2.913410">
        <ele>1431.5</ele>
        <time>1989-12-30T23:59:59Z</time>
      </trkpt>
      <trkpt lat="38.017883" lon="-2.914191">
        <ele>1418.6</ele>
        <time>1989-12-30T23:59:59Z</time>
      </trkpt>
      <trkpt lat="38.017883" lon="-2.914191">
        <ele>1430.1</ele>
        <time>1989-12-30T23:59:59Z</time>
      </trkpt>
      <trkpt lat="38.017673" lon="-2.914183">
        <ele>1429.1</ele>
        <time>1989-12-30T23:59:59Z</time>
      </trkpt>
      <trkpt lat="38.017442" lon="-2.914072">
        <ele>1429.1</ele>
        <time>1989-12-30T23:59:59Z</time>
      </trkpt>
      <trkpt lat="38.017343" lon="-2.914336">
        <ele>1429.1</ele>
        <time>1989-12-30T23:59:59Z</time>
      </trkpt>
      <trkpt lat="38.017278" lon="-2.914471">
        <ele>1430.6</ele>
        <time>1989-12-30T23:59:59Z</time>
      </trkpt>
      <trkpt lat="38.017193" lon="-2.914553">
        <ele>1432.5</ele>
        <time>1989-12-30T23:59:59Z</time>
      </trkpt>
      <trkpt lat="38.017144" lon="-2.914697">
        <ele>1431.1</ele>
        <time>1989-12-30T23:59:59Z</time>
      </trkpt>
      <trkpt lat="38.017129" lon="-2.914844">
        <ele>1430.1</ele>
        <time>1989-12-30T23:59:59Z</time>
      </trkpt>
      <trkpt lat="38.017110" lon="-2.914986">
        <ele>1431.1</ele>
        <time>1989-12-30T23:59:59Z</time>
      </trkpt>
      <trkpt lat="38.017066" lon="-2.915110">
        <ele>1430.6</ele>
        <time>1989-12-30T23:59:59Z</time>
      </trkpt>
      <trkpt lat="38.016983" lon="-2.915208">
        <ele>1428.7</ele>
        <time>1989-12-30T23:59:59Z</time>
      </trkpt>
      <trkpt lat="38.016903" lon="-2.915280">
        <ele>1427.7</ele>
        <time>1989-12-30T23:59:59Z</time>
      </trkpt>
      <trkpt lat="38.016809" lon="-2.915382">
        <ele>1427.7</ele>
        <time>1989-12-30T23:59:59Z</time>
      </trkpt>
      <trkpt lat="38.016550" lon="-2.915629">
        <ele>1426.7</ele>
        <time>1989-12-30T23:59:59Z</time>
      </trkpt>
      <trkpt lat="38.016466" lon="-2.915724">
        <ele>1424.3</ele>
        <time>1989-12-30T23:59:59Z</time>
      </trkpt>
      <trkpt lat="38.016088" lon="-2.916183">
        <ele>1420.5</ele>
        <time>1989-12-30T23:59:59Z</time>
      </trkpt>
      <trkpt lat="38.016054" lon="-2.916323">
        <ele>1420.0</ele>
        <time>1989-12-30T23:59:59Z</time>
      </trkpt>
      <trkpt lat="38.015999" lon="-2.916445">
        <ele>1420.0</ele>
        <time>1989-12-30T23:59:59Z</time>
      </trkpt>
      <trkpt lat="38.015890" lon="-2.916736">
        <ele>1421.0</ele>
        <time>1989-12-30T23:59:59Z</time>
      </trkpt>
      <trkpt lat="38.015841" lon="-2.916884">
        <ele>1421.9</ele>
        <time>1989-12-30T23:59:59Z</time>
      </trkpt>
      <trkpt lat="38.015763" lon="-2.916974">
        <ele>1421.9</ele>
        <time>1989-12-30T23:59:59Z</time>
      </trkpt>
      <trkpt lat="38.015512" lon="-2.917159">
        <ele>1414.7</ele>
        <time>1989-12-30T23:59:59Z</time>
      </trkpt>
      <trkpt lat="38.015074" lon="-2.916758">
        <ele>1415.7</ele>
        <time>1989-12-30T23:59:59Z</time>
      </trkpt>
      <trkpt lat="38.014967" lon="-2.916787">
        <ele>1415.7</ele>
        <time>1989-12-30T23:59:59Z</time>
      </trkpt>
      <trkpt lat="38.014735" lon="-2.917089">
        <ele>1415.7</ele>
        <time>1989-12-30T23:59:59Z</time>
      </trkpt>
      <trkpt lat="38.014663" lon="-2.917163">
        <ele>1415.2</ele>
        <time>1989-12-30T23:59:59Z</time>
      </trkpt>
      <trkpt lat="38.014492" lon="-2.917300">
        <ele>1416.2</ele>
        <time>1989-12-30T23:59:59Z</time>
      </trkpt>
      <trkpt lat="38.014395" lon="-2.917295">
        <ele>1417.1</ele>
        <time>1989-12-30T23:59:59Z</time>
      </trkpt>
      <trkpt lat="38.014210" lon="-2.917402">
        <ele>1421.9</ele>
        <time>1989-12-30T23:59:59Z</time>
      </trkpt>
      <trkpt lat="38.014090" lon="-2.917375">
        <ele>1431.1</ele>
        <time>1989-12-30T23:59:59Z</time>
      </trkpt>
      <trkpt lat="38.014107" lon="-2.917368">
        <ele>1427.2</ele>
        <time>1989-12-30T23:59:59Z</time>
      </trkpt>
      <trkpt lat="38.014041" lon="-2.917384">
        <ele>1431.1</ele>
        <time>1989-12-30T23:59:59Z</time>
      </trkpt>
      <trkpt lat="38.014004" lon="-2.917510">
        <ele>1432.0</ele>
        <time>1989-12-30T23:59:59Z</time>
      </trkpt>
      <trkpt lat="38.014080" lon="-2.917585">
        <ele>1432.5</ele>
        <time>1989-12-30T23:59:59Z</time>
      </trkpt>
      <trkpt lat="38.014081" lon="-2.917694">
        <ele>1434.9</ele>
        <time>1989-12-30T23:59:59Z</time>
      </trkpt>
      <trkpt lat="38.014017" lon="-2.917826">
        <ele>1432.0</ele>
        <time>1989-12-30T23:59:59Z</time>
      </trkpt>
      <trkpt lat="38.013925" lon="-2.917922">
        <ele>1435.9</ele>
        <time>1989-12-30T23:59:59Z</time>
      </trkpt>
      <trkpt lat="38.013844" lon="-2.917993">
        <ele>1438.3</ele>
        <time>1989-12-30T23:59:59Z</time>
      </trkpt>
      <trkpt lat="38.013763" lon="-2.918018">
        <ele>1433.9</ele>
        <time>1989-12-30T23:59:59Z</time>
      </trkpt>
      <trkpt lat="38.013678" lon="-2.917974">
        <ele>1433.5</ele>
        <time>1989-12-30T23:59:59Z</time>
      </trkpt>
      <trkpt lat="38.013611" lon="-2.917938">
        <ele>1432.0</ele>
        <time>1989-12-30T23:59:59Z</time>
      </trkpt>
      <trkpt lat="38.013580" lon="-2.917821">
        <ele>1433.5</ele>
        <time>1989-12-30T23:59:59Z</time>
      </trkpt>
      <trkpt lat="38.013586" lon="-2.917712">
        <ele>1437.8</ele>
        <time>1989-12-30T23:59:59Z</time>
      </trkpt>
      <trkpt lat="38.013570" lon="-2.917581">
        <ele>1438.3</ele>
        <time>1989-12-30T23:59:59Z</time>
      </trkpt>
      <trkpt lat="38.013563" lon="-2.917458">
        <ele>1437.8</ele>
        <time>1989-12-30T23:59:59Z</time>
      </trkpt>
      <trkpt lat="38.013554" lon="-2.917332">
        <ele>1438.3</ele>
        <time>1989-12-30T23:59:59Z</time>
      </trkpt>
      <trkpt lat="38.013541" lon="-2.917211">
        <ele>1437.8</ele>
        <time>1989-12-30T23:59:59Z</time>
      </trkpt>
      <trkpt lat="38.013472" lon="-2.917119">
        <ele>1437.8</ele>
        <time>1989-12-30T23:59:59Z</time>
      </trkpt>
      <trkpt lat="38.013386" lon="-2.917061">
        <ele>1437.3</ele>
        <time>1989-12-30T23:59:59Z</time>
      </trkpt>
      <trkpt lat="38.013287" lon="-2.916995">
        <ele>1436.3</ele>
        <time>1989-12-30T23:59:59Z</time>
      </trkpt>
      <trkpt lat="38.013199" lon="-2.916936">
        <ele>1435.4</ele>
        <time>1989-12-30T23:59:59Z</time>
      </trkpt>
      <trkpt lat="38.013128" lon="-2.916858">
        <ele>1434.4</ele>
        <time>1989-12-30T23:59:59Z</time>
      </trkpt>
      <trkpt lat="38.013034" lon="-2.916802">
        <ele>1433.0</ele>
        <time>1989-12-30T23:59:59Z</time>
      </trkpt>
      <trkpt lat="38.012939" lon="-2.916776">
        <ele>1432.0</ele>
        <time>1989-12-30T23:59:59Z</time>
      </trkpt>
      <trkpt lat="38.012848" lon="-2.916755">
        <ele>1430.6</ele>
        <time>1989-12-30T23:59:59Z</time>
      </trkpt>
      <trkpt lat="38.012759" lon="-2.916711">
        <ele>1429.1</ele>
        <time>1989-12-30T23:59:59Z</time>
      </trkpt>
      <trkpt lat="38.012670" lon="-2.916669">
        <ele>1428.2</ele>
        <time>1989-12-30T23:59:59Z</time>
      </trkpt>
      <trkpt lat="38.012585" lon="-2.916628">
        <ele>1426.7</ele>
        <time>1989-12-30T23:59:59Z</time>
      </trkpt>
      <trkpt lat="38.012496" lon="-2.916588">
        <ele>1424.3</ele>
        <time>1989-12-30T23:59:59Z</time>
      </trkpt>
      <trkpt lat="38.012412" lon="-2.916539">
        <ele>1425.3</ele>
        <time>1989-12-30T23:59:59Z</time>
      </trkpt>
      <trkpt lat="38.012325" lon="-2.916491">
        <ele>1423.4</ele>
        <time>1989-12-30T23:59:59Z</time>
      </trkpt>
      <trkpt lat="38.012244" lon="-2.916437">
        <ele>1422.9</ele>
        <time>1989-12-30T23:59:59Z</time>
      </trkpt>
      <trkpt lat="38.012167" lon="-2.916372">
        <ele>1422.9</ele>
        <time>1989-12-30T23:59:59Z</time>
      </trkpt>
      <trkpt lat="38.012095" lon="-2.916292">
        <ele>1424.3</ele>
        <time>1989-12-30T23:59:59Z</time>
      </trkpt>
      <trkpt lat="38.012020" lon="-2.916217">
        <ele>1424.8</ele>
        <time>1989-12-30T23:59:59Z</time>
      </trkpt>
      <trkpt lat="38.011936" lon="-2.916158">
        <ele>1424.8</ele>
        <time>1989-12-30T23:59:59Z</time>
      </trkpt>
      <trkpt lat="38.011840" lon="-2.916120">
        <ele>1426.3</ele>
        <time>1989-12-30T23:59:59Z</time>
      </trkpt>
      <trkpt lat="38.011749" lon="-2.916090">
        <ele>1424.8</ele>
        <time>1989-12-30T23:59:59Z</time>
      </trkpt>
      <trkpt lat="38.011684" lon="-2.916009">
        <ele>1424.8</ele>
        <time>1989-12-30T23:59:59Z</time>
      </trkpt>
      <trkpt lat="38.011647" lon="-2.915877">
        <ele>1424.3</ele>
        <time>1989-12-30T23:59:59Z</time>
      </trkpt>
      <trkpt lat="38.011677" lon="-2.915748">
        <ele>1423.4</ele>
        <time>1989-12-30T23:59:59Z</time>
      </trkpt>
      <trkpt lat="38.011664" lon="-2.915616">
        <ele>1422.4</ele>
        <time>1989-12-30T23:59:59Z</time>
      </trkpt>
      <trkpt lat="38.011586" lon="-2.915480">
        <ele>1424.3</ele>
        <time>1989-12-30T23:59:59Z</time>
      </trkpt>
      <trkpt lat="38.011383" lon="-2.915339">
        <ele>1423.4</ele>
        <time>1989-12-30T23:59:59Z</time>
      </trkpt>
      <trkpt lat="38.011369" lon="-2.914994">
        <ele>1424.3</ele>
        <time>1989-12-30T23:59:59Z</time>
      </trkpt>
      <trkpt lat="38.011291" lon="-2.914930">
        <ele>1428.2</ele>
        <time>1989-12-30T23:59:59Z</time>
      </trkpt>
      <trkpt lat="38.010954" lon="-2.914919">
        <ele>1425.8</ele>
        <time>1989-12-30T23:59:59Z</time>
      </trkpt>
      <trkpt lat="38.010833" lon="-2.914859">
        <ele>1424.8</ele>
        <time>1989-12-30T23:59:59Z</time>
      </trkpt>
      <trkpt lat="38.010728" lon="-2.914760">
        <ele>1420.0</ele>
        <time>1989-12-30T23:59:59Z</time>
      </trkpt>
      <trkpt lat="38.010640" lon="-2.914741">
        <ele>1420.0</ele>
        <time>1989-12-30T23:59:59Z</time>
      </trkpt>
      <trkpt lat="38.010556" lon="-2.914767">
        <ele>1420.5</ele>
        <time>1989-12-30T23:59:59Z</time>
      </trkpt>
      <trkpt lat="38.010434" lon="-2.914857">
        <ele>1420.5</ele>
        <time>1989-12-30T23:59:59Z</time>
      </trkpt>
      <trkpt lat="38.010340" lon="-2.914954">
        <ele>1419.5</ele>
        <time>1989-12-30T23:59:59Z</time>
      </trkpt>
      <trkpt lat="38.010144" lon="-2.915000">
        <ele>1418.1</ele>
        <time>1989-12-30T23:59:59Z</time>
      </trkpt>
      <trkpt lat="38.010038" lon="-2.914950">
        <ele>1419.0</ele>
        <time>1989-12-30T23:59:59Z</time>
      </trkpt>
      <trkpt lat="38.009960" lon="-2.914839">
        <ele>1418.6</ele>
        <time>1989-12-30T23:59:59Z</time>
      </trkpt>
      <trkpt lat="38.009848" lon="-2.914713">
        <ele>1416.2</ele>
        <time>1989-12-30T23:59:59Z</time>
      </trkpt>
      <trkpt lat="38.009802" lon="-2.914623">
        <ele>1413.3</ele>
        <time>1989-12-30T23:59:59Z</time>
      </trkpt>
      <trkpt lat="38.009753" lon="-2.914518">
        <ele>1413.3</ele>
        <time>1989-12-30T23:59:59Z</time>
      </trkpt>
      <trkpt lat="38.009691" lon="-2.914419">
        <ele>1414.2</ele>
        <time>1989-12-30T23:59:59Z</time>
      </trkpt>
      <trkpt lat="38.009599" lon="-2.914420">
        <ele>1413.8</ele>
        <time>1989-12-30T23:59:59Z</time>
      </trkpt>
      <trkpt lat="38.009519" lon="-2.914496">
        <ele>1413.3</ele>
        <time>1989-12-30T23:59:59Z</time>
      </trkpt>
      <trkpt lat="38.009455" lon="-2.914582">
        <ele>1410.4</ele>
        <time>1989-12-30T23:59:59Z</time>
      </trkpt>
      <trkpt lat="38.009389" lon="-2.914665">
        <ele>1408.9</ele>
        <time>1989-12-30T23:59:59Z</time>
      </trkpt>
      <trkpt lat="38.009314" lon="-2.914744">
        <ele>1408.5</ele>
        <time>1989-12-30T23:59:59Z</time>
      </trkpt>
      <trkpt lat="38.009234" lon="-2.914802">
        <ele>1408.5</ele>
        <time>1989-12-30T23:59:59Z</time>
      </trkpt>
      <trkpt lat="38.009153" lon="-2.914862">
        <ele>1406.5</ele>
        <time>1989-12-30T23:59:59Z</time>
      </trkpt>
      <trkpt lat="38.009059" lon="-2.914899">
        <ele>1406.5</ele>
        <time>1989-12-30T23:59:59Z</time>
      </trkpt>
      <trkpt lat="38.008999" lon="-2.914970">
        <ele>1406.5</ele>
        <time>1989-12-30T23:59:59Z</time>
      </trkpt>
      <trkpt lat="38.008976" lon="-2.915085">
        <ele>1404.1</ele>
        <time>1989-12-30T23:59:59Z</time>
      </trkpt>
      <trkpt lat="38.008914" lon="-2.915293">
        <ele>1403.2</ele>
        <time>1989-12-30T23:59:59Z</time>
      </trkpt>
      <trkpt lat="38.008786" lon="-2.915472">
        <ele>1401.7</ele>
        <time>1989-12-30T23:59:59Z</time>
      </trkpt>
      <trkpt lat="38.008706" lon="-2.915545">
        <ele>1402.2</ele>
        <time>1989-12-30T23:59:59Z</time>
      </trkpt>
      <trkpt lat="38.008640" lon="-2.915579">
        <ele>1401.3</ele>
        <time>1989-12-30T23:59:59Z</time>
      </trkpt>
      <trkpt lat="38.008550" lon="-2.915614">
        <ele>1401.3</ele>
        <time>1989-12-30T23:59:59Z</time>
      </trkpt>
      <trkpt lat="38.008327" lon="-2.915649">
        <ele>1402.7</ele>
        <time>1989-12-30T23:59:59Z</time>
      </trkpt>
      <trkpt lat="38.008207" lon="-2.915702">
        <ele>1404.1</ele>
        <time>1989-12-30T23:59:59Z</time>
      </trkpt>
      <trkpt lat="38.008142" lon="-2.915909">
        <ele>1403.7</ele>
        <time>1989-12-30T23:59:59Z</time>
      </trkpt>
      <trkpt lat="38.008255" lon="-2.916143">
        <ele>1403.7</ele>
        <time>1989-12-30T23:59:59Z</time>
      </trkpt>
      <trkpt lat="38.008263" lon="-2.916263">
        <ele>1400.3</ele>
        <time>1989-12-30T23:59:59Z</time>
      </trkpt>
      <trkpt lat="38.008242" lon="-2.916484">
        <ele>1398.9</ele>
        <time>1989-12-30T23:59:59Z</time>
      </trkpt>
      <trkpt lat="38.008248" lon="-2.916604">
        <ele>1397.4</ele>
        <time>1989-12-30T23:59:59Z</time>
      </trkpt>
      <trkpt lat="38.008253" lon="-2.916715">
        <ele>1395.0</ele>
        <time>1989-12-30T23:59:59Z</time>
      </trkpt>
      <trkpt lat="38.008256" lon="-2.916818">
        <ele>1393.1</ele>
        <time>1989-12-30T23:59:59Z</time>
      </trkpt>
      <trkpt lat="38.008189" lon="-2.916903">
        <ele>1393.1</ele>
        <time>1989-12-30T23:59:59Z</time>
      </trkpt>
      <trkpt lat="38.008129" lon="-2.916973">
        <ele>1392.6</ele>
        <time>1989-12-30T23:59:59Z</time>
      </trkpt>
      <trkpt lat="38.008058" lon="-2.917039">
        <ele>1392.1</ele>
        <time>1989-12-30T23:59:59Z</time>
      </trkpt>
      <trkpt lat="38.007991" lon="-2.917110">
        <ele>1391.6</ele>
        <time>1989-12-30T23:59:59Z</time>
      </trkpt>
      <trkpt lat="38.007914" lon="-2.917166">
        <ele>1388.8</ele>
        <time>1989-12-30T23:59:59Z</time>
      </trkpt>
      <trkpt lat="38.007838" lon="-2.917209">
        <ele>1388.8</ele>
        <time>1989-12-30T23:59:59Z</time>
      </trkpt>
      <trkpt lat="38.007749" lon="-2.917231">
        <ele>1388.3</ele>
        <time>1989-12-30T23:59:59Z</time>
      </trkpt>
      <trkpt lat="38.007668" lon="-2.917300">
        <ele>1386.8</ele>
        <time>1989-12-30T23:59:59Z</time>
      </trkpt>
      <trkpt lat="38.007591" lon="-2.917359">
        <ele>1385.9</ele>
        <time>1989-12-30T23:59:59Z</time>
      </trkpt>
      <trkpt lat="38.007509" lon="-2.917426">
        <ele>1385.4</ele>
        <time>1989-12-30T23:59:59Z</time>
      </trkpt>
      <trkpt lat="38.007085" lon="-2.917685">
        <ele>1384.0</ele>
        <time>1989-12-30T23:59:59Z</time>
      </trkpt>
      <trkpt lat="38.006982" lon="-2.917728">
        <ele>1384.0</ele>
        <time>1989-12-30T23:59:59Z</time>
      </trkpt>
      <trkpt lat="38.006854" lon="-2.917895">
        <ele>1376.7</ele>
        <time>1989-12-30T23:59:59Z</time>
      </trkpt>
      <trkpt lat="38.006625" lon="-2.918022">
        <ele>1379.1</ele>
        <time>1989-12-30T23:59:59Z</time>
      </trkpt>
      <trkpt lat="38.006546" lon="-2.918089">
        <ele>1379.6</ele>
        <time>1989-12-30T23:59:59Z</time>
      </trkpt>
      <trkpt lat="38.006465" lon="-2.918136">
        <ele>1379.1</ele>
        <time>1989-12-30T23:59:59Z</time>
      </trkpt>
      <trkpt lat="38.006382" lon="-2.918194">
        <ele>1377.7</ele>
        <time>1989-12-30T23:59:59Z</time>
      </trkpt>
      <trkpt lat="38.006309" lon="-2.918276">
        <ele>1376.3</ele>
        <time>1989-12-30T23:59:59Z</time>
      </trkpt>
      <trkpt lat="38.006242" lon="-2.918353">
        <ele>1375.3</ele>
        <time>1989-12-30T23:59:59Z</time>
      </trkpt>
      <trkpt lat="38.006157" lon="-2.918412">
        <ele>1375.3</ele>
        <time>1989-12-30T23:59:59Z</time>
      </trkpt>
      <trkpt lat="38.006066" lon="-2.918465">
        <ele>1375.3</ele>
        <time>1989-12-30T23:59:59Z</time>
      </trkpt>
      <trkpt lat="38.005981" lon="-2.918519">
        <ele>1375.3</ele>
        <time>1989-12-30T23:59:59Z</time>
      </trkpt>
      <trkpt lat="38.005881" lon="-2.918577">
        <ele>1375.8</ele>
        <time>1989-12-30T23:59:59Z</time>
      </trkpt>
      <trkpt lat="38.005797" lon="-2.918638">
        <ele>1375.8</ele>
        <time>1989-12-30T23:59:59Z</time>
      </trkpt>
      <trkpt lat="38.005703" lon="-2.918689">
        <ele>1375.8</ele>
        <time>1989-12-30T23:59:59Z</time>
      </trkpt>
      <trkpt lat="38.005599" lon="-2.918722">
        <ele>1375.8</ele>
        <time>1989-12-30T23:59:59Z</time>
      </trkpt>
      <trkpt lat="38.005500" lon="-2.918748">
        <ele>1375.3</ele>
        <time>1989-12-30T23:59:59Z</time>
      </trkpt>
      <trkpt lat="38.005389" lon="-2.918790">
        <ele>1375.3</ele>
        <time>1989-12-30T23:59:59Z</time>
      </trkpt>
      <trkpt lat="38.005299" lon="-2.918803">
        <ele>1373.9</ele>
        <time>1989-12-30T23:59:59Z</time>
      </trkpt>
      <trkpt lat="38.005207" lon="-2.918792">
        <ele>1369.5</ele>
        <time>1989-12-30T23:59:59Z</time>
      </trkpt>
      <trkpt lat="38.005105" lon="-2.918777">
        <ele>1369.1</ele>
        <time>1989-12-30T23:59:59Z</time>
      </trkpt>
      <trkpt lat="38.004998" lon="-2.918764">
        <ele>1369.1</ele>
        <time>1989-12-30T23:59:59Z</time>
      </trkpt>
      <trkpt lat="38.004900" lon="-2.918778">
        <ele>1368.6</ele>
        <time>1989-12-30T23:59:59Z</time>
      </trkpt>
      <trkpt lat="38.004793" lon="-2.918764">
        <ele>1368.6</ele>
        <time>1989-12-30T23:59:59Z</time>
      </trkpt>
      <trkpt lat="38.004711" lon="-2.918732">
        <ele>1366.7</ele>
        <time>1989-12-30T23:59:59Z</time>
      </trkpt>
      <trkpt lat="38.004609" lon="-2.918718">
        <ele>1366.2</ele>
        <time>1989-12-30T23:59:59Z</time>
      </trkpt>
      <trkpt lat="38.004513" lon="-2.918698">
        <ele>1362.3</ele>
        <time>1989-12-30T23:59:59Z</time>
      </trkpt>
      <trkpt lat="38.004428" lon="-2.918648">
        <ele>1356.1</ele>
        <time>1989-12-30T23:59:59Z</time>
      </trkpt>
      <trkpt lat="38.004338" lon="-2.918622">
        <ele>1353.2</ele>
        <time>1989-12-30T23:59:59Z</time>
      </trkpt>
      <trkpt lat="38.004247" lon="-2.918650">
        <ele>1352.7</ele>
        <time>1989-12-30T23:59:59Z</time>
      </trkpt>
      <trkpt lat="38.004162" lon="-2.918659">
        <ele>1349.3</ele>
        <time>1989-12-30T23:59:59Z</time>
      </trkpt>
      <trkpt lat="38.004071" lon="-2.918655">
        <ele>1347.4</ele>
        <time>1989-12-30T23:59:59Z</time>
      </trkpt>
      <trkpt lat="38.003970" lon="-2.918652">
        <ele>1346.9</ele>
        <time>1989-12-30T23:59:59Z</time>
      </trkpt>
      <trkpt lat="38.003615" lon="-2.918671">
        <ele>1344.5</ele>
        <time>1989-12-30T23:59:59Z</time>
      </trkpt>
      <trkpt lat="38.003565" lon="-2.918730">
        <ele>1340.2</ele>
        <time>1989-12-30T23:59:59Z</time>
      </trkpt>
      <trkpt lat="38.003462" lon="-2.918738">
        <ele>1339.7</ele>
        <time>1989-12-30T23:59:59Z</time>
      </trkpt>
      <trkpt lat="38.003264" lon="-2.918723">
        <ele>1340.2</ele>
        <time>1989-12-30T23:59:59Z</time>
      </trkpt>
      <trkpt lat="38.003188" lon="-2.918712">
        <ele>1340.2</ele>
        <time>1989-12-30T23:59:59Z</time>
      </trkpt>
      <trkpt lat="38.003108" lon="-2.918680">
        <ele>1334.9</ele>
        <time>1989-12-30T23:59:59Z</time>
      </trkpt>
      <trkpt lat="38.002912" lon="-2.918554">
        <ele>1334.0</ele>
        <time>1989-12-30T23:59:59Z</time>
      </trkpt>
      <trkpt lat="38.002780" lon="-2.918447">
        <ele>1333.0</ele>
        <time>1989-12-30T23:59:59Z</time>
      </trkpt>
      <trkpt lat="38.002663" lon="-2.918382">
        <ele>1331.1</ele>
        <time>1989-12-30T23:59:59Z</time>
      </trkpt>
      <trkpt lat="38.002543" lon="-2.918315">
        <ele>1328.7</ele>
        <time>1989-12-30T23:59:59Z</time>
      </trkpt>
      <trkpt lat="38.002446" lon="-2.918190">
        <ele>1326.3</ele>
        <time>1989-12-30T23:59:59Z</time>
      </trkpt>
      <trkpt lat="38.002374" lon="-2.918062">
        <ele>1323.4</ele>
        <time>1989-12-30T23:59:59Z</time>
      </trkpt>
      <trkpt lat="38.002354" lon="-2.917909">
        <ele>1323.9</ele>
        <time>1989-12-30T23:59:59Z</time>
      </trkpt>
      <trkpt lat="38.002356" lon="-2.917721">
        <ele>1329.6</ele>
        <time>1989-12-30T23:59:59Z</time>
      </trkpt>
      <trkpt lat="38.002418" lon="-2.917647">
        <ele>1329.2</ele>
        <time>1989-12-30T23:59:59Z</time>
      </trkpt>
      <trkpt lat="38.002488" lon="-2.917559">
        <ele>1327.7</ele>
        <time>1989-12-30T23:59:59Z</time>
      </trkpt>
      <trkpt lat="38.002611" lon="-2.917471">
        <ele>1328.2</ele>
        <time>1989-12-30T23:59:59Z</time>
      </trkpt>
      <trkpt lat="38.002672" lon="-2.917372">
        <ele>1322.9</ele>
        <time>1989-12-30T23:59:59Z</time>
      </trkpt>
      <trkpt lat="38.002728" lon="-2.917297">
        <ele>1319.5</ele>
        <time>1989-12-30T23:59:59Z</time>
      </trkpt>
      <trkpt lat="38.002832" lon="-2.916828">
        <ele>1320.0</ele>
        <time>1989-12-30T23:59:59Z</time>
      </trkpt>
      <trkpt lat="38.002809" lon="-2.916635">
        <ele>1312.3</ele>
        <time>1989-12-30T23:59:59Z</time>
      </trkpt>
      <trkpt lat="38.002607" lon="-2.916344">
        <ele>1313.3</ele>
        <time>1989-12-30T23:59:59Z</time>
      </trkpt>
      <trkpt lat="38.002503" lon="-2.916295">
        <ele>1313.3</ele>
        <time>1989-12-30T23:59:59Z</time>
      </trkpt>
      <trkpt lat="38.002425" lon="-2.916234">
        <ele>1312.3</ele>
        <time>1989-12-30T23:59:59Z</time>
      </trkpt>
      <trkpt lat="38.002332" lon="-2.916197">
        <ele>1311.4</ele>
        <time>1989-12-30T23:59:59Z</time>
      </trkpt>
      <trkpt lat="38.002244" lon="-2.916173">
        <ele>1311.4</ele>
        <time>1989-12-30T23:59:59Z</time>
      </trkpt>
      <trkpt lat="38.002159" lon="-2.916155">
        <ele>1309.9</ele>
        <time>1989-12-30T23:59:59Z</time>
      </trkpt>
      <trkpt lat="38.002063" lon="-2.916145">
        <ele>1309.9</ele>
        <time>1989-12-30T23:59:59Z</time>
      </trkpt>
      <trkpt lat="38.001957" lon="-2.916158">
        <ele>1309.0</ele>
        <time>1989-12-30T23:59:59Z</time>
      </trkpt>
      <trkpt lat="38.001898" lon="-2.916155">
        <ele>1308.5</ele>
        <time>1989-12-30T23:59:59Z</time>
      </trkpt>
      <trkpt lat="38.001825" lon="-2.916143">
        <ele>1317.0</ele>
        <time>2010-07-15T10:52:13Z</time>
      </trkpt>
      <trkpt lat="38.001669" lon="-2.916151">
        <ele>1317.5</ele>
        <time>2010-07-15T10:52:13Z</time>
      </trkpt>
      <trkpt lat="38.001484" lon="-2.916172">
        <ele>1318.5</ele>
        <time>2010-07-15T10:52:13Z</time>
      </trkpt>
      <trkpt lat="38.001386" lon="-2.916192">
        <ele>1319.4</ele>
        <time>2010-07-15T10:52:13Z</time>
      </trkpt>
      <trkpt lat="38.001202" lon="-2.916248">
        <ele>1321.7</ele>
        <time>2010-07-15T10:52:13Z</time>
      </trkpt>
      <trkpt lat="38.000993" lon="-2.916217">
        <ele>1320.2</ele>
        <time>2010-07-15T10:52:13Z</time>
      </trkpt>
      <trkpt lat="38.000838" lon="-2.916096">
        <ele>1315.8</ele>
        <time>2010-07-15T10:52:13Z</time>
      </trkpt>
      <trkpt lat="38.000654" lon="-2.916054">
        <ele>1313.9</ele>
        <time>2010-07-15T10:52:13Z</time>
      </trkpt>
      <trkpt lat="38.000467" lon="-2.916209">
        <ele>1318.6</ele>
        <time>2010-07-15T10:52:13Z</time>
      </trkpt>
      <trkpt lat="38.000104" lon="-2.916486">
        <ele>1326.9</ele>
        <time>2010-07-15T10:52:13Z</time>
      </trkpt>
      <trkpt lat="38.000004" lon="-2.916504">
        <ele>1327.4</ele>
        <time>2010-07-15T10:52:13Z</time>
      </trkpt>
      <trkpt lat="37.999802" lon="-2.916484">
        <ele>1326.9</ele>
        <time>2010-07-15T10:52:13Z</time>
      </trkpt>
      <trkpt lat="37.999585" lon="-2.916502">
        <ele>1327.4</ele>
        <time>2010-07-15T10:52:13Z</time>
      </trkpt>
      <trkpt lat="37.999405" lon="-2.916655">
        <ele>1313.0</ele>
        <time>2010-07-15T10:52:13Z</time>
      </trkpt>
      <trkpt lat="37.999233" lon="-2.916967">
        <ele>1315.2</ele>
        <time>2010-07-15T10:52:13Z</time>
      </trkpt>
      <trkpt lat="37.998963" lon="-2.917158">
        <ele>1312.5</ele>
        <time>2010-07-15T10:52:13Z</time>
      </trkpt>
      <trkpt lat="37.998643" lon="-2.917663">
        <ele>1317.8</ele>
        <time>2010-07-15T10:52:13Z</time>
      </trkpt>
      <trkpt lat="37.998499" lon="-2.917837">
        <ele>1319.8</ele>
        <time>2010-07-15T10:52:13Z</time>
      </trkpt>
      <trkpt lat="37.998434" lon="-2.918060">
        <ele>1323.8</ele>
        <time>2010-07-15T10:52:13Z</time>
      </trkpt>
      <trkpt lat="37.998340" lon="-2.918219">
        <ele>1325.9</ele>
        <time>2010-07-15T10:52:13Z</time>
      </trkpt>
      <trkpt lat="37.998139" lon="-2.918258">
        <ele>1323.2</ele>
        <time>2010-07-15T10:52:13Z</time>
      </trkpt>
      <trkpt lat="37.998161" lon="-2.918216">
        <ele>1322.6</ele>
        <time>2010-07-15T10:52:13Z</time>
      </trkpt>
      <trkpt lat="37.998066" lon="-2.918298">
        <ele>1322.9</ele>
        <time>2010-07-15T10:52:13Z</time>
      </trkpt>
      <trkpt lat="37.997974" lon="-2.918309">
        <ele>1321.5</ele>
        <time>2010-07-15T10:52:13Z</time>
      </trkpt>
      <trkpt lat="37.997822" lon="-2.918422">
        <ele>1321.6</ele>
        <time>2010-07-15T10:52:13Z</time>
      </trkpt>
      <trkpt lat="37.997765" lon="-2.918507">
        <ele>1322.7</ele>
        <time>2010-07-15T10:52:13Z</time>
      </trkpt>
      <trkpt lat="37.997251" lon="-2.919339">
        <ele>1322.6</ele>
        <time>2010-07-15T10:52:13Z</time>
      </trkpt>
      <trkpt lat="37.997214" lon="-2.919443">
        <ele>1322.5</ele>
        <time>2010-07-15T10:52:13Z</time>
      </trkpt>
      <trkpt lat="37.997145" lon="-2.919538">
        <ele>1321.8</ele>
        <time>2010-07-15T10:52:13Z</time>
      </trkpt>
      <trkpt lat="37.997090" lon="-2.919654">
        <ele>1321.6</ele>
        <time>2010-07-15T10:52:13Z</time>
      </trkpt>
      <trkpt lat="37.996963" lon="-2.919825">
        <ele>1320.0</ele>
        <time>2010-07-15T10:52:13Z</time>
      </trkpt>
      <trkpt lat="37.996556" lon="-2.920510">
        <ele>1313.4</ele>
        <time>2010-07-15T10:52:13Z</time>
      </trkpt>
      <trkpt lat="37.996438" lon="-2.920718">
        <ele>1307.7</ele>
        <time>2010-07-15T10:52:13Z</time>
      </trkpt>
      <trkpt lat="37.996404" lon="-2.920828">
        <ele>1305.1</ele>
        <time>2010-07-15T10:52:13Z</time>
      </trkpt>
      <trkpt lat="37.996338" lon="-2.921178">
        <ele>1297.6</ele>
        <time>2010-07-15T10:52:13Z</time>
      </trkpt>
      <trkpt lat="37.996321" lon="-2.921417">
        <ele>1293.0</ele>
        <time>2010-07-15T10:52:13Z</time>
      </trkpt>
      <trkpt lat="37.996263" lon="-2.921778">
        <ele>1284.8</ele>
        <time>2010-07-15T10:52:13Z</time>
      </trkpt>
      <trkpt lat="37.996272" lon="-2.921883">
        <ele>1283.3</ele>
        <time>2010-07-15T10:52:13Z</time>
      </trkpt>
      <trkpt lat="37.996329" lon="-2.922124">
        <ele>1281.5</ele>
        <time>2010-07-15T10:52:13Z</time>
      </trkpt>
      <trkpt lat="37.996377" lon="-2.922226">
        <ele>1282.0</ele>
        <time>2010-07-15T10:52:13Z</time>
      </trkpt>
      <trkpt lat="37.996450" lon="-2.922337">
        <ele>1284.2</ele>
        <time>2010-07-15T10:52:13Z</time>
      </trkpt>
      <trkpt lat="37.996494" lon="-2.922453">
        <ele>1285.0</ele>
        <time>2010-07-15T10:52:13Z</time>
      </trkpt>
      <trkpt lat="37.996574" lon="-2.922790">
        <ele>1285.1</ele>
        <time>2010-07-15T10:52:13Z</time>
      </trkpt>
      <trkpt lat="37.996622" lon="-2.922888">
        <ele>1285.9</ele>
        <time>2010-07-15T10:52:13Z</time>
      </trkpt>
      <trkpt lat="37.996794" lon="-2.923421">
        <ele>1297.3</ele>
        <time>2010-07-15T10:52:13Z</time>
      </trkpt>
      <trkpt lat="37.996784" lon="-2.923542">
        <ele>1299.2</ele>
        <time>2010-07-15T10:52:13Z</time>
      </trkpt>
      <trkpt lat="37.996745" lon="-2.923643">
        <ele>1299.9</ele>
        <time>2010-07-15T10:52:13Z</time>
      </trkpt>
      <trkpt lat="37.996693" lon="-2.923729">
        <ele>1300.1</ele>
        <time>2010-07-15T10:52:13Z</time>
      </trkpt>
      <trkpt lat="37.996624" lon="-2.923779">
        <ele>1299.3</ele>
        <time>2010-07-15T10:52:13Z</time>
      </trkpt>
      <trkpt lat="37.995498" lon="-2.924435">
        <ele>1285.9</ele>
        <time>2010-07-15T10:52:13Z</time>
      </trkpt>
      <trkpt lat="37.995377" lon="-2.924625">
        <ele>1285.0</ele>
        <time>2010-07-15T10:52:13Z</time>
      </trkpt>
      <trkpt lat="37.995044" lon="-2.924895">
        <ele>1277.3</ele>
        <time>2010-07-15T10:52:13Z</time>
      </trkpt>
      <trkpt lat="37.994784" lon="-2.925249">
        <ele>1274.3</ele>
        <time>2010-07-15T10:52:13Z</time>
      </trkpt>
      <trkpt lat="37.994604" lon="-2.925538">
        <ele>1272.9</ele>
        <time>2010-07-15T10:52:13Z</time>
      </trkpt>
      <trkpt lat="37.994380" lon="-2.925761">
        <ele>1273.2</ele>
        <time>2010-07-15T10:52:13Z</time>
      </trkpt>
      <trkpt lat="37.994307" lon="-2.926118">
        <ele>1283.1</ele>
        <time>2010-07-15T10:52:13Z</time>
      </trkpt>
      <trkpt lat="37.994247" lon="-2.926236">
        <ele>1285.8</ele>
        <time>2010-07-15T10:52:13Z</time>
      </trkpt>
      <trkpt lat="37.994167" lon="-2.926308">
        <ele>1286.8</ele>
        <time>2010-07-15T10:52:13Z</time>
      </trkpt>
      <trkpt lat="37.994071" lon="-2.926362">
        <ele>1287.0</ele>
        <time>2010-07-15T10:52:13Z</time>
      </trkpt>
      <trkpt lat="37.993862" lon="-2.926402">
        <ele>1285.0</ele>
        <time>2010-07-15T10:52:13Z</time>
      </trkpt>
      <trkpt lat="37.993510" lon="-2.926306">
        <ele>1275.1</ele>
        <time>2010-07-15T10:52:13Z</time>
      </trkpt>
      <trkpt lat="37.993411" lon="-2.926319">
        <ele>1273.7</ele>
        <time>2010-07-15T10:52:13Z</time>
      </trkpt>
      <trkpt lat="37.993257" lon="-2.926452">
        <ele>1275.7</ele>
        <time>2010-07-15T10:52:13Z</time>
      </trkpt>
      <trkpt lat="37.993056" lon="-2.926526">
        <ele>1274.6</ele>
        <time>2010-07-15T10:52:13Z</time>
      </trkpt>
      <trkpt lat="37.992852" lon="-2.926452">
        <ele>1268.3</ele>
        <time>2010-07-15T10:52:13Z</time>
      </trkpt>
      <trkpt lat="37.992743" lon="-2.926460">
        <ele>1269.2</ele>
        <time>2010-07-15T10:52:13Z</time>
      </trkpt>
      <trkpt lat="37.992501" lon="-2.926598">
        <ele>1274.8</ele>
        <time>2010-07-15T10:52:13Z</time>
      </trkpt>
      <trkpt lat="37.992392" lon="-2.926756">
        <ele>1279.7</ele>
        <time>2010-07-15T10:52:13Z</time>
      </trkpt>
      <trkpt lat="37.992349" lon="-2.926867">
        <ele>1282.9</ele>
        <time>2010-07-15T10:52:13Z</time>
      </trkpt>
      <trkpt lat="37.992282" lon="-2.926925">
        <ele>1284.3</ele>
        <time>2010-07-15T10:52:13Z</time>
      </trkpt>
      <trkpt lat="37.992222" lon="-2.927166">
        <ele>1290.4</ele>
        <time>2010-07-15T10:52:13Z</time>
      </trkpt>
      <trkpt lat="37.992138" lon="-2.927305">
        <ele>1294.8</ele>
        <time>2010-07-15T10:52:13Z</time>
      </trkpt>
      <trkpt lat="37.991818" lon="-2.927451">
        <ele>1301.5</ele>
        <time>2010-07-15T10:52:13Z</time>
      </trkpt>
      <trkpt lat="37.991616" lon="-2.927495">
        <ele>1304.7</ele>
        <time>2010-07-15T10:52:13Z</time>
      </trkpt>
      <trkpt lat="37.991499" lon="-2.927453">
        <ele>1304.6</ele>
        <time>2010-07-15T10:52:13Z</time>
      </trkpt>
      <trkpt lat="37.991425" lon="-2.927365">
        <ele>1303.1</ele>
        <time>2010-07-15T10:52:13Z</time>
      </trkpt>
      <trkpt lat="37.991376" lon="-2.927251">
        <ele>1300.8</ele>
        <time>2010-07-15T10:52:13Z</time>
      </trkpt>
      <trkpt lat="37.991328" lon="-2.926995">
        <ele>1295.6</ele>
        <time>2010-07-15T10:52:13Z</time>
      </trkpt>
      <trkpt lat="37.991277" lon="-2.926740">
        <ele>1290.5</ele>
        <time>2010-07-15T10:52:13Z</time>
      </trkpt>
      <trkpt lat="37.991213" lon="-2.926471">
        <ele>1285.3</ele>
        <time>2010-07-15T10:52:13Z</time>
      </trkpt>
      <trkpt lat="37.991113" lon="-2.926415">
        <ele>1283.5</ele>
        <time>2010-07-15T10:52:13Z</time>
      </trkpt>
      <trkpt lat="37.991012" lon="-2.926432">
        <ele>1283.1</ele>
        <time>2010-07-15T10:52:13Z</time>
      </trkpt>
      <trkpt lat="37.990819" lon="-2.926521">
        <ele>1283.7</ele>
        <time>2010-07-15T10:52:13Z</time>
      </trkpt>
      <trkpt lat="37.990738" lon="-2.926572">
        <ele>1284.2</ele>
        <time>2010-07-15T10:52:13Z</time>
      </trkpt>
      <trkpt lat="37.990628" lon="-2.926988">
        <ele>1292.5</ele>
        <time>2010-07-15T10:52:13Z</time>
      </trkpt>
      <trkpt lat="37.990492" lon="-2.927449">
        <ele>1302.7</ele>
        <time>2010-07-15T10:52:13Z</time>
      </trkpt>
      <trkpt lat="37.990222" lon="-2.927768">
        <ele>1310.7</ele>
        <time>2010-07-15T10:52:13Z</time>
      </trkpt>
      <trkpt lat="37.990151" lon="-2.927783">
        <ele>1311.1</ele>
        <time>2010-07-15T10:52:13Z</time>
      </trkpt>
      <trkpt lat="37.990105" lon="-2.927883">
        <ele>1313.3</ele>
        <time>2010-07-15T10:52:13Z</time>
      </trkpt>
      <trkpt lat="37.989931" lon="-2.928043">
        <ele>1316.0</ele>
        <time>2010-07-15T10:52:13Z</time>
      </trkpt>
      <trkpt lat="37.989875" lon="-2.928146">
        <ele>1317.4</ele>
        <time>2010-07-15T10:52:13Z</time>
      </trkpt>
      <trkpt lat="37.989631" lon="-2.928457">
        <ele>1320.7</ele>
        <time>2010-07-15T10:52:13Z</time>
      </trkpt>
      <trkpt lat="37.989338" lon="-2.928633">
        <ele>1322.6</ele>
        <time>2010-07-15T10:52:13Z</time>
      </trkpt>
      <trkpt lat="37.989238" lon="-2.928658">
        <ele>1322.7</ele>
        <time>2010-07-15T10:52:13Z</time>
      </trkpt>
      <trkpt lat="37.988964" lon="-2.928710">
        <ele>1322.7</ele>
        <time>2010-07-15T10:52:13Z</time>
      </trkpt>
      <trkpt lat="37.988741" lon="-2.928707">
        <ele>1322.3</ele>
        <time>2010-07-15T10:52:13Z</time>
      </trkpt>
      <trkpt lat="37.988617" lon="-2.928730">
        <ele>1322.0</ele>
        <time>2010-07-15T10:52:13Z</time>
      </trkpt>
      <trkpt lat="37.988410" lon="-2.928777">
        <ele>1321.3</ele>
        <time>2010-07-15T10:52:13Z</time>
      </trkpt>
      <trkpt lat="37.988372" lon="-2.928788">
        <ele>1321.2</ele>
        <time>2010-07-15T10:52:13Z</time>
      </trkpt>
      <trkpt lat="37.988173" lon="-2.928796">
        <ele>1320.6</ele>
        <time>2010-07-15T10:52:13Z</time>
      </trkpt>
      <trkpt lat="37.988079" lon="-2.928802">
        <ele>1320.3</ele>
        <time>2010-07-15T10:52:13Z</time>
      </trkpt>
      <trkpt lat="37.987980" lon="-2.928814">
        <ele>1319.9</ele>
        <time>2010-07-15T10:52:13Z</time>
      </trkpt>
      <trkpt lat="37.987696" lon="-2.928899">
        <ele>1321.5</ele>
        <time>2010-07-15T10:52:13Z</time>
      </trkpt>
      <trkpt lat="37.987439" lon="-2.929025">
        <ele>1324.6</ele>
        <time>2010-07-15T10:52:13Z</time>
      </trkpt>
      <trkpt lat="37.987262" lon="-2.929052">
        <ele>1327.4</ele>
        <time>2010-07-15T10:52:13Z</time>
      </trkpt>
      <trkpt lat="37.987177" lon="-2.929075">
        <ele>1328.8</ele>
        <time>2010-07-15T10:52:13Z</time>
      </trkpt>
      <trkpt lat="37.986944" lon="-2.929252">
        <ele>1330.8</ele>
        <time>2010-07-15T10:52:13Z</time>
      </trkpt>
      <trkpt lat="37.986849" lon="-2.929285">
        <ele>1331.5</ele>
        <time>2010-07-15T10:52:13Z</time>
      </trkpt>
      <trkpt lat="37.986555" lon="-2.929629">
        <ele>1332.8</ele>
        <time>2010-07-15T10:52:13Z</time>
      </trkpt>
      <trkpt lat="37.986422" lon="-2.929836">
        <ele>1332.4</ele>
        <time>2010-07-15T10:52:13Z</time>
      </trkpt>
      <trkpt lat="37.986274" lon="-2.930198">
        <ele>1330.0</ele>
        <time>2010-07-15T10:52:13Z</time>
      </trkpt>
      <trkpt lat="37.986109" lon="-2.930360">
        <ele>1330.0</ele>
        <time>2010-07-15T10:52:13Z</time>
      </trkpt>
      <trkpt lat="37.986013" lon="-2.930448">
        <ele>1330.1</ele>
        <time>2010-07-15T10:52:13Z</time>
      </trkpt>
      <trkpt lat="37.985641" lon="-2.930704">
        <ele>1333.0</ele>
        <time>2010-07-15T10:52:13Z</time>
      </trkpt>
      <trkpt lat="37.985344" lon="-2.930851">
        <ele>1336.5</ele>
        <time>2010-07-15T10:52:13Z</time>
      </trkpt>
      <trkpt lat="37.985137" lon="-2.930951">
        <ele>1335.8</ele>
        <time>2010-07-15T10:52:13Z</time>
      </trkpt>
      <trkpt lat="37.984972" lon="-2.931061">
        <ele>1335.7</ele>
        <time>2010-07-15T10:52:13Z</time>
      </trkpt>
      <trkpt lat="37.984685" lon="-2.931206">
        <ele>1336.4</ele>
        <time>2010-07-15T10:52:13Z</time>
      </trkpt>
      <trkpt lat="37.984593" lon="-2.931257">
        <ele>1336.9</ele>
        <time>2010-07-15T10:52:13Z</time>
      </trkpt>
      <trkpt lat="37.984503" lon="-2.931315">
        <ele>1337.1</ele>
        <time>2010-07-15T10:52:13Z</time>
      </trkpt>
      <trkpt lat="37.984520" lon="-2.931262">
        <ele>1336.8</ele>
        <time>2010-07-15T10:52:13Z</time>
      </trkpt>
      <trkpt lat="37.984372" lon="-2.931409">
        <ele>1336.4</ele>
        <time>2010-07-15T10:52:13Z</time>
      </trkpt>
      <trkpt lat="37.984248" lon="-2.931489">
        <ele>1335.7</ele>
        <time>2010-07-15T10:52:13Z</time>
      </trkpt>
      <trkpt lat="37.984191" lon="-2.931831">
        <ele>1338.7</ele>
        <time>2010-07-15T10:52:13Z</time>
      </trkpt>
      <trkpt lat="37.983814" lon="-2.932249">
        <ele>1342.4</ele>
        <time>2010-07-15T10:52:13Z</time>
      </trkpt>
      <trkpt lat="37.983765" lon="-2.932501">
        <ele>1343.8</ele>
        <time>2010-07-15T10:52:13Z</time>
      </trkpt>
      <trkpt lat="37.983768" lon="-2.932893">
        <ele>1346.1</ele>
        <time>2010-07-15T10:52:13Z</time>
      </trkpt>
      <trkpt lat="37.983674" lon="-2.933109">
        <ele>1347.8</ele>
        <time>2010-07-15T10:52:13Z</time>
      </trkpt>
      <trkpt lat="37.983596" lon="-2.933181">
        <ele>1348.5</ele>
        <time>2010-07-15T10:52:13Z</time>
      </trkpt>
      <trkpt lat="37.983559" lon="-2.933289">
        <ele>1349.3</ele>
        <time>2010-07-15T10:52:13Z</time>
      </trkpt>
      <trkpt lat="37.983580" lon="-2.933387">
        <ele>1350.0</ele>
        <time>2010-07-15T10:52:13Z</time>
      </trkpt>
      <trkpt lat="37.983438" lon="-2.933600">
        <ele>1350.6</ele>
        <time>2010-07-15T10:52:13Z</time>
      </trkpt>
      <trkpt lat="37.983343" lon="-2.933643">
        <ele>1350.0</ele>
        <time>2010-07-15T10:52:13Z</time>
      </trkpt>
      <trkpt lat="37.983238" lon="-2.933661">
        <ele>1349.2</ele>
        <time>2010-07-15T10:52:13Z</time>
      </trkpt>
      <trkpt lat="37.983114" lon="-2.933659">
        <ele>1348.2</ele>
        <time>2010-07-15T10:52:13Z</time>
      </trkpt>
      <trkpt lat="37.982908" lon="-2.933636">
        <ele>1346.7</ele>
        <time>2010-07-15T10:52:13Z</time>
      </trkpt>
      <trkpt lat="37.982703" lon="-2.933587">
        <ele>1347.1</ele>
        <time>2010-07-15T10:52:13Z</time>
      </trkpt>
      <trkpt lat="37.982513" lon="-2.933578">
        <ele>1347.8</ele>
        <time>2010-07-15T10:52:13Z</time>
      </trkpt>
      <trkpt lat="37.981932" lon="-2.933871">
        <ele>1343.7</ele>
        <time>2010-07-15T10:52:13Z</time>
      </trkpt>
      <trkpt lat="37.981847" lon="-2.933920">
        <ele>1342.0</ele>
        <time>2010-07-15T10:52:13Z</time>
      </trkpt>
      <trkpt lat="37.981487" lon="-2.934175">
        <ele>1331.1</ele>
        <time>2010-07-15T10:52:13Z</time>
      </trkpt>
      <trkpt lat="37.981257" lon="-2.934234">
        <ele>1326.7</ele>
        <time>2010-07-15T10:52:13Z</time>
      </trkpt>
      <trkpt lat="37.981158" lon="-2.934224">
        <ele>1325.5</ele>
        <time>2010-07-15T10:52:13Z</time>
      </trkpt>
      <trkpt lat="37.980887" lon="-2.934256">
        <ele>1317.3</ele>
        <time>2010-07-15T10:52:13Z</time>
      </trkpt>
      <trkpt lat="37.980618" lon="-2.934201">
        <ele>1313.0</ele>
        <time>2010-07-15T10:52:13Z</time>
      </trkpt>
      <trkpt lat="37.980527" lon="-2.934191">
        <ele>1311.1</ele>
        <time>2010-07-15T10:52:13Z</time>
      </trkpt>
      <trkpt lat="37.980399" lon="-2.934169">
        <ele>1308.7</ele>
        <time>2010-07-15T10:52:13Z</time>
      </trkpt>
      <trkpt lat="37.980239" lon="-2.934116">
        <ele>1305.1</ele>
        <time>2010-07-15T10:52:13Z</time>
      </trkpt>
      <trkpt lat="37.980150" lon="-2.934067">
        <ele>1303.4</ele>
        <time>2010-07-15T10:52:13Z</time>
      </trkpt>
      <trkpt lat="37.979843" lon="-2.933812">
        <ele>1300.0</ele>
        <time>2010-07-15T10:52:13Z</time>
      </trkpt>
      <trkpt lat="37.979570" lon="-2.933641">
        <ele>1296.3</ele>
        <time>2010-07-15T10:52:13Z</time>
      </trkpt>
      <trkpt lat="37.979497" lon="-2.933568">
        <ele>1296.7</ele>
        <time>2010-07-15T10:52:13Z</time>
      </trkpt>
      <trkpt lat="37.979330" lon="-2.933431">
        <ele>1296.3</ele>
        <time>2010-07-15T10:52:13Z</time>
      </trkpt>
      <trkpt lat="37.979242" lon="-2.933459">
        <ele>1291.7</ele>
        <time>2010-07-15T10:52:13Z</time>
      </trkpt>
      <trkpt lat="37.978936" lon="-2.933171">
        <ele>1292.7</ele>
        <time>2010-07-15T10:52:13Z</time>
      </trkpt>
      <trkpt lat="37.978755" lon="-2.933085">
        <ele>1289.6</ele>
        <time>2010-07-15T10:52:13Z</time>
      </trkpt>
      <trkpt lat="37.978603" lon="-2.932948">
        <ele>1289.4</ele>
        <time>2010-07-15T10:52:13Z</time>
      </trkpt>
      <trkpt lat="37.978536" lon="-2.932860">
        <ele>1290.2</ele>
        <time>2010-07-15T10:52:13Z</time>
      </trkpt>
      <trkpt lat="37.978423" lon="-2.932665">
        <ele>1293.3</ele>
        <time>2010-07-15T10:52:13Z</time>
      </trkpt>
      <trkpt lat="37.978365" lon="-2.932589">
        <ele>1294.1</ele>
        <time>2010-07-15T10:52:13Z</time>
      </trkpt>
      <trkpt lat="37.978280" lon="-2.932489">
        <ele>1294.7</ele>
        <time>2010-07-15T10:52:13Z</time>
      </trkpt>
      <trkpt lat="37.978089" lon="-2.932203">
        <ele>1298.7</ele>
        <time>2010-07-15T10:52:13Z</time>
      </trkpt>
      <trkpt lat="37.978003" lon="-2.932138">
        <ele>1298.0</ele>
        <time>2010-07-15T10:52:13Z</time>
      </trkpt>
      <trkpt lat="37.977707" lon="-2.932010">
        <ele>1296.6</ele>
        <time>2010-07-15T10:52:13Z</time>
      </trkpt>
      <trkpt lat="37.977421" lon="-2.931993">
        <ele>1294.3</ele>
        <time>2010-07-15T10:52:13Z</time>
      </trkpt>
      <trkpt lat="37.977238" lon="-2.932012">
        <ele>1292.0</ele>
        <time>2010-07-15T10:52:13Z</time>
      </trkpt>
      <trkpt lat="37.977141" lon="-2.932042">
        <ele>1290.3</ele>
        <time>2010-07-15T10:52:13Z</time>
      </trkpt>
      <trkpt lat="37.976397" lon="-2.932490">
        <ele>1282.0</ele>
        <time>2010-07-15T10:52:13Z</time>
      </trkpt>
      <trkpt lat="37.976315" lon="-2.932531">
        <ele>1281.6</ele>
        <time>2010-07-15T10:52:13Z</time>
      </trkpt>
      <trkpt lat="37.976097" lon="-2.932607">
        <ele>1282.4</ele>
        <time>2010-07-15T10:52:13Z</time>
      </trkpt>
      <trkpt lat="37.975910" lon="-2.932626">
        <ele>1285.6</ele>
        <time>2010-07-15T10:52:13Z</time>
      </trkpt>
      <trkpt lat="37.975587" lon="-2.932624">
        <ele>1292.1</ele>
        <time>2010-07-15T10:52:13Z</time>
      </trkpt>
      <trkpt lat="37.975418" lon="-2.932719">
        <ele>1294.6</ele>
        <time>2010-07-15T10:52:13Z</time>
      </trkpt>
      <trkpt lat="37.975236" lon="-2.932845">
        <ele>1296.7</ele>
        <time>2010-07-15T10:52:13Z</time>
      </trkpt>
      <trkpt lat="37.975167" lon="-2.932943">
        <ele>1297.2</ele>
        <time>2010-07-15T10:52:13Z</time>
      </trkpt>
      <trkpt lat="37.974915" lon="-2.933230">
        <ele>1296.1</ele>
        <time>2010-07-15T10:52:13Z</time>
      </trkpt>
      <trkpt lat="37.974764" lon="-2.933430">
        <ele>1293.6</ele>
        <time>2010-07-15T10:52:13Z</time>
      </trkpt>
      <trkpt lat="37.974649" lon="-2.933652">
        <ele>1289.8</ele>
        <time>2010-07-15T10:52:13Z</time>
      </trkpt>
      <trkpt lat="37.974466" lon="-2.933929">
        <ele>1283.9</ele>
        <time>2010-07-15T10:52:13Z</time>
      </trkpt>
      <trkpt lat="37.974319" lon="-2.934076">
        <ele>1279.0</ele>
        <time>2010-07-15T10:52:13Z</time>
      </trkpt>
      <trkpt lat="37.974211" lon="-2.934113">
        <ele>1278.1</ele>
        <time>2010-07-15T10:52:13Z</time>
      </trkpt>
      <trkpt lat="37.974001" lon="-2.934114">
        <ele>1278.7</ele>
        <time>2010-07-15T10:52:13Z</time>
      </trkpt>
      <trkpt lat="37.973797" lon="-2.934152">
        <ele>1278.1</ele>
        <time>2010-07-15T10:52:13Z</time>
      </trkpt>
      <trkpt lat="37.973592" lon="-2.934225">
        <ele>1276.3</ele>
        <time>2010-07-15T10:52:13Z</time>
      </trkpt>
      <trkpt lat="37.973331" lon="-2.934375">
        <ele>1274.0</ele>
        <time>2010-07-15T10:52:13Z</time>
      </trkpt>
      <trkpt lat="37.973252" lon="-2.934434">
        <ele>1273.6</ele>
        <time>2010-07-15T10:52:13Z</time>
      </trkpt>
      <trkpt lat="37.972945" lon="-2.934699">
        <ele>1274.8</ele>
        <time>2010-07-15T10:52:13Z</time>
      </trkpt>
      <trkpt lat="37.972702" lon="-2.934907">
        <ele>1268.7</ele>
        <time>2010-07-15T10:52:13Z</time>
      </trkpt>
      <trkpt lat="37.972562" lon="-2.935063">
        <ele>1265.4</ele>
        <time>2010-07-15T10:52:13Z</time>
      </trkpt>
      <trkpt lat="37.972399" lon="-2.935202">
        <ele>1264.4</ele>
        <time>2010-07-15T10:52:13Z</time>
      </trkpt>
      <trkpt lat="37.972321" lon="-2.935271">
        <ele>1264.6</ele>
        <time>2010-07-15T10:52:13Z</time>
      </trkpt>
      <trkpt lat="37.972089" lon="-2.935445">
        <ele>1268.1</ele>
        <time>2010-07-15T10:52:13Z</time>
      </trkpt>
      <trkpt lat="37.971856" lon="-2.935624">
        <ele>1269.5</ele>
        <time>2010-07-15T10:52:13Z</time>
      </trkpt>
      <trkpt lat="37.971776" lon="-2.935694">
        <ele>1269.0</ele>
        <time>2010-07-15T10:52:13Z</time>
      </trkpt>
      <trkpt lat="37.971649" lon="-2.935872">
        <ele>1267.8</ele>
        <time>2010-07-15T10:52:13Z</time>
      </trkpt>
      <trkpt lat="37.971568" lon="-2.935933">
        <ele>1267.7</ele>
        <time>2010-07-15T10:52:13Z</time>
      </trkpt>
      <trkpt lat="37.971480" lon="-2.935958">
        <ele>1267.9</ele>
        <time>2010-07-15T10:52:13Z</time>
      </trkpt>
      <trkpt lat="37.971294" lon="-2.935983">
        <ele>1268.8</ele>
        <time>2010-07-15T10:52:13Z</time>
      </trkpt>
      <trkpt lat="37.970978" lon="-2.935990">
        <ele>1266.1</ele>
        <time>2010-07-15T10:52:13Z</time>
      </trkpt>
      <trkpt lat="37.970585" lon="-2.935881">
        <ele>1262.3</ele>
        <time>2010-07-15T10:52:13Z</time>
      </trkpt>
      <trkpt lat="37.970359" lon="-2.935826">
        <ele>1260.5</ele>
        <time>2010-07-15T10:52:13Z</time>
      </trkpt>
      <trkpt lat="37.970174" lon="-2.935885">
        <ele>1255.7</ele>
        <time>2010-07-15T10:52:13Z</time>
      </trkpt>
      <trkpt lat="37.969858" lon="-2.935879">
        <ele>1249.5</ele>
        <time>2010-07-15T10:52:13Z</time>
      </trkpt>
      <trkpt lat="37.969419" lon="-2.935868">
        <ele>1242.0</ele>
        <time>2010-07-15T10:52:13Z</time>
      </trkpt>
      <trkpt lat="37.968744" lon="-2.935821">
        <ele>1236.3</ele>
        <time>2010-07-15T10:52:13Z</time>
      </trkpt>
      <trkpt lat="37.968544" lon="-2.935823">
        <ele>1234.5</ele>
        <time>2010-07-15T10:52:13Z</time>
      </trkpt>
      <trkpt lat="37.968143" lon="-2.935777">
        <ele>1233.1</ele>
        <time>2010-07-15T10:52:13Z</time>
      </trkpt>
      <trkpt lat="37.967757" lon="-2.935782">
        <ele>1230.4</ele>
        <time>2010-07-15T10:52:13Z</time>
      </trkpt>
      <trkpt lat="37.967362" lon="-2.935767">
        <ele>1229.8</ele>
        <time>2010-07-15T10:52:13Z</time>
      </trkpt>
      <trkpt lat="37.967249" lon="-2.935734">
        <ele>1230.4</ele>
        <time>2010-07-15T10:52:13Z</time>
      </trkpt>
      <trkpt lat="37.967154" lon="-2.935724">
        <ele>1230.3</ele>
        <time>2010-07-15T10:52:13Z</time>
      </trkpt>
      <trkpt lat="37.966974" lon="-2.935738">
        <ele>1229.5</ele>
        <time>2010-07-15T10:52:13Z</time>
      </trkpt>
      <trkpt lat="37.966822" lon="-2.935774">
        <ele>1228.9</ele>
        <time>2010-07-15T10:52:13Z</time>
      </trkpt>
      <trkpt lat="37.966628" lon="-2.935849">
        <ele>1228.2</ele>
        <time>2010-07-15T10:52:13Z</time>
      </trkpt>
      <trkpt lat="37.966558" lon="-2.935913">
        <ele>1227.9</ele>
        <time>2010-07-15T10:52:13Z</time>
      </trkpt>
      <trkpt lat="37.966484" lon="-2.935900">
        <ele>1228.3</ele>
        <time>2010-07-15T10:52:13Z</time>
      </trkpt>
      <trkpt lat="37.966387" lon="-2.935949">
        <ele>1228.5</ele>
        <time>2010-07-15T10:52:13Z</time>
      </trkpt>
      <trkpt lat="37.966297" lon="-2.936014">
        <ele>1228.9</ele>
        <time>2010-07-15T10:52:13Z</time>
      </trkpt>
      <trkpt lat="37.966110" lon="-2.936115">
        <ele>1229.0</ele>
        <time>2010-07-15T10:52:13Z</time>
      </trkpt>
      <trkpt lat="37.966015" lon="-2.936144">
        <ele>1228.3</ele>
        <time>2010-07-15T10:52:13Z</time>
      </trkpt>
      <trkpt lat="37.965930" lon="-2.936210">
        <ele>1228.0</ele>
        <time>2010-07-15T10:52:13Z</time>
      </trkpt>
      <trkpt lat="37.965743" lon="-2.936335">
        <ele>1227.6</ele>
        <time>2010-07-15T10:52:13Z</time>
      </trkpt>
      <trkpt lat="37.965562" lon="-2.936469">
        <ele>1225.0</ele>
        <time>2010-07-15T10:52:13Z</time>
      </trkpt>
      <trkpt lat="37.965293" lon="-2.936618">
        <ele>1221.8</ele>
        <time>2010-07-15T10:52:13Z</time>
      </trkpt>
      <trkpt lat="37.965095" lon="-2.936664">
        <ele>1221.2</ele>
        <time>2010-07-15T10:52:13Z</time>
      </trkpt>
      <trkpt lat="37.965012" lon="-2.936652">
        <ele>1221.5</ele>
        <time>2010-07-15T10:52:13Z</time>
      </trkpt>
      <trkpt lat="37.964725" lon="-2.936658">
        <ele>1221.6</ele>
        <time>2010-07-15T10:52:13Z</time>
      </trkpt>
      <trkpt lat="37.964539" lon="-2.936629">
        <ele>1222.2</ele>
        <time>2010-07-15T10:52:13Z</time>
      </trkpt>
      <trkpt lat="37.964380" lon="-2.936508">
        <ele>1227.5</ele>
        <time>2010-07-15T10:52:13Z</time>
      </trkpt>
      <trkpt lat="37.964214" lon="-2.936420">
        <ele>1232.1</ele>
        <time>2010-07-15T10:52:13Z</time>
      </trkpt>
      <trkpt lat="37.964127" lon="-2.936371">
        <ele>1234.3</ele>
        <time>2010-07-15T10:52:13Z</time>
      </trkpt>
      <trkpt lat="37.963985" lon="-2.936218">
        <ele>1235.5</ele>
        <time>2010-07-15T10:52:13Z</time>
      </trkpt>
      <trkpt lat="37.963900" lon="-2.936164">
        <ele>1236.4</ele>
        <time>2010-07-15T10:52:13Z</time>
      </trkpt>
      <trkpt lat="37.963624" lon="-2.936087">
        <ele>1239.8</ele>
        <time>2010-07-15T10:52:13Z</time>
      </trkpt>
      <trkpt lat="37.963543" lon="-2.936089">
        <ele>1240.7</ele>
        <time>2010-07-15T10:52:13Z</time>
      </trkpt>
      <trkpt lat="37.963467" lon="-2.936022">
        <ele>1240.6</ele>
        <time>2010-07-15T10:52:13Z</time>
      </trkpt>
      <trkpt lat="37.963352" lon="-2.935973">
        <ele>1241.1</ele>
        <time>2010-07-15T10:52:13Z</time>
      </trkpt>
      <trkpt lat="37.963201" lon="-2.935910">
        <ele>1241.9</ele>
        <time>2010-07-15T10:52:13Z</time>
      </trkpt>
      <trkpt lat="37.963079" lon="-2.935878">
        <ele>1242.9</ele>
        <time>2010-07-15T10:52:13Z</time>
      </trkpt>
      <trkpt lat="37.962696" lon="-2.935788">
        <ele>1243.4</ele>
        <time>2010-07-15T10:52:13Z</time>
      </trkpt>
      <trkpt lat="37.962599" lon="-2.935778">
        <ele>1243.0</ele>
        <time>2010-07-15T10:52:13Z</time>
      </trkpt>
      <trkpt lat="37.962492" lon="-2.935760">
        <ele>1242.4</ele>
        <time>2010-07-15T10:52:13Z</time>
      </trkpt>
      <trkpt lat="37.962306" lon="-2.935714">
        <ele>1241.5</ele>
        <time>2010-07-15T10:52:13Z</time>
      </trkpt>
      <trkpt lat="37.962210" lon="-2.935733">
        <ele>1241.3</ele>
        <time>2010-07-15T10:52:13Z</time>
      </trkpt>
      <trkpt lat="37.961948" lon="-2.935904">
        <ele>1240.2</ele>
        <time>2010-07-15T10:52:13Z</time>
      </trkpt>
      <trkpt lat="37.961773" lon="-2.936007">
        <ele>1238.4</ele>
        <time>2010-07-15T10:52:13Z</time>
      </trkpt>
      <trkpt lat="37.961593" lon="-2.936084">
        <ele>1236.5</ele>
        <time>2010-07-15T10:52:13Z</time>
      </trkpt>
      <trkpt lat="37.961510" lon="-2.936131">
        <ele>1235.6</ele>
        <time>2010-07-15T10:52:13Z</time>
      </trkpt>
      <trkpt lat="37.961415" lon="-2.936168">
        <ele>1234.7</ele>
        <time>2010-07-15T10:52:13Z</time>
      </trkpt>
      <trkpt lat="37.960850" lon="-2.936309">
        <ele>1230.9</ele>
        <time>2010-07-15T10:52:13Z</time>
      </trkpt>
      <trkpt lat="37.960483" lon="-2.936314">
        <ele>1228.9</ele>
        <time>2010-07-15T10:52:13Z</time>
      </trkpt>
      <trkpt lat="37.960388" lon="-2.936302">
        <ele>1228.5</ele>
        <time>2010-07-15T10:52:13Z</time>
      </trkpt>
      <trkpt lat="37.960302" lon="-2.936252">
        <ele>1229.1</ele>
        <time>2010-07-15T10:52:13Z</time>
      </trkpt>
      <trkpt lat="37.960201" lon="-2.936229">
        <ele>1229.8</ele>
        <time>2010-07-15T10:52:13Z</time>
      </trkpt>
      <trkpt lat="37.960042" lon="-2.936118">
        <ele>1231.2</ele>
        <time>2010-07-15T10:52:13Z</time>
      </trkpt>
      <trkpt lat="37.959896" lon="-2.936052">
        <ele>1232.0</ele>
        <time>2010-07-15T10:52:13Z</time>
      </trkpt>
      <trkpt lat="37.959601" lon="-2.936095">
        <ele>1233.4</ele>
        <time>2010-07-15T10:52:13Z</time>
      </trkpt>
      <trkpt lat="37.959406" lon="-2.936146">
        <ele>1234.8</ele>
        <time>2010-07-15T10:52:13Z</time>
      </trkpt>
      <trkpt lat="37.959023" lon="-2.936219">
        <ele>1238.4</ele>
        <time>2010-07-15T10:52:13Z</time>
      </trkpt>
      <trkpt lat="37.958745" lon="-2.936183">
        <ele>1240.5</ele>
        <time>2010-07-15T10:52:13Z</time>
      </trkpt>
      <trkpt lat="37.958647" lon="-2.936192">
        <ele>1240.6</ele>
        <time>2010-07-15T10:52:13Z</time>
      </trkpt>
      <trkpt lat="37.958563" lon="-2.936242">
        <ele>1240.7</ele>
        <time>2010-07-15T10:52:13Z</time>
      </trkpt>
      <trkpt lat="37.958495" lon="-2.936329">
        <ele>1241.5</ele>
        <time>2010-07-15T10:52:13Z</time>
      </trkpt>
      <trkpt lat="37.958324" lon="-2.936415">
        <ele>1241.7</ele>
        <time>2010-07-15T10:52:13Z</time>
      </trkpt>
      <trkpt lat="37.957982" lon="-2.936669">
        <ele>1245.1</ele>
        <time>2010-07-15T10:52:13Z</time>
      </trkpt>
      <trkpt lat="37.957877" lon="-2.936810">
        <ele>1248.0</ele>
        <time>2010-07-15T10:52:13Z</time>
      </trkpt>
      <trkpt lat="37.957794" lon="-2.936872">
        <ele>1248.8</ele>
        <time>2010-07-15T10:52:13Z</time>
      </trkpt>
      <trkpt lat="37.957620" lon="-2.936973">
        <ele>1250.2</ele>
        <time>2010-07-15T10:52:13Z</time>
      </trkpt>
      <trkpt lat="37.957441" lon="-2.937100">
        <ele>1253.1</ele>
        <time>2010-07-15T10:52:13Z</time>
      </trkpt>
      <trkpt lat="37.957174" lon="-2.937240">
        <ele>1257.1</ele>
        <time>2010-07-15T10:52:13Z</time>
      </trkpt>
      <trkpt lat="37.957086" lon="-2.937298">
        <ele>1258.8</ele>
        <time>2010-07-15T10:52:13Z</time>
      </trkpt>
      <trkpt lat="37.956986" lon="-2.937335">
        <ele>1259.6</ele>
        <time>2010-07-15T10:52:13Z</time>
      </trkpt>
      <trkpt lat="37.956796" lon="-2.937418">
        <ele>1260.6</ele>
        <time>2010-07-15T10:52:13Z</time>
      </trkpt>
      <trkpt lat="37.956693" lon="-2.937445">
        <ele>1260.6</ele>
        <time>2010-07-15T10:52:13Z</time>
      </trkpt>
      <trkpt lat="37.956493" lon="-2.937456">
        <ele>1259.4</ele>
        <time>2010-07-15T10:52:13Z</time>
      </trkpt>
      <trkpt lat="37.956389" lon="-2.937438">
        <ele>1258.0</ele>
        <time>2010-07-15T10:52:13Z</time>
      </trkpt>
      <trkpt lat="37.956155" lon="-2.937395">
        <ele>1254.4</ele>
        <time>2010-07-15T10:52:13Z</time>
      </trkpt>
      <trkpt lat="37.955943" lon="-2.937381">
        <ele>1252.6</ele>
        <time>2010-07-15T10:52:13Z</time>
      </trkpt>
      <trkpt lat="37.955737" lon="-2.937374">
        <ele>1251.0</ele>
        <time>2010-07-15T10:52:13Z</time>
      </trkpt>
      <trkpt lat="37.955636" lon="-2.937377">
        <ele>1250.5</ele>
        <time>2010-07-15T10:52:13Z</time>
      </trkpt>
      <trkpt lat="37.955433" lon="-2.937350">
        <ele>1248.3</ele>
        <time>2010-07-15T10:52:13Z</time>
      </trkpt>
      <trkpt lat="37.955348" lon="-2.937348">
        <ele>1247.5</ele>
        <time>2010-07-15T10:52:13Z</time>
      </trkpt>
      <trkpt lat="37.955246" lon="-2.937312">
        <ele>1244.8</ele>
        <time>2010-07-15T10:52:13Z</time>
      </trkpt>
      <trkpt lat="37.955157" lon="-2.937288">
        <ele>1242.7</ele>
        <time>2010-07-15T10:52:13Z</time>
      </trkpt>
      <trkpt lat="37.954809" lon="-2.937137">
        <ele>1232.1</ele>
        <time>2010-07-15T10:52:13Z</time>
      </trkpt>
      <trkpt lat="37.954627" lon="-2.937127">
        <ele>1229.0</ele>
        <time>2010-07-15T10:52:13Z</time>
      </trkpt>
      <trkpt lat="37.954268" lon="-2.937263">
        <ele>1228.2</ele>
        <time>2010-07-15T10:52:13Z</time>
      </trkpt>
      <trkpt lat="37.953994" lon="-2.937373">
        <ele>1227.9</ele>
        <time>2010-07-15T10:52:13Z</time>
      </trkpt>
      <trkpt lat="37.953634" lon="-2.937427">
        <ele>1223.9</ele>
        <time>2010-07-15T10:52:13Z</time>
      </trkpt>
      <trkpt lat="37.953456" lon="-2.937441">
        <ele>1220.8</ele>
        <time>2010-07-15T10:52:13Z</time>
      </trkpt>
      <trkpt lat="37.953269" lon="-2.937441">
        <ele>1217.2</ele>
        <time>2010-07-15T10:52:13Z</time>
      </trkpt>
      <trkpt lat="37.953167" lon="-2.937424">
        <ele>1214.6</ele>
        <time>2010-07-15T10:52:13Z</time>
      </trkpt>
      <trkpt lat="37.953074" lon="-2.937413">
        <ele>1212.4</ele>
        <time>2010-07-15T10:52:13Z</time>
      </trkpt>
      <trkpt lat="37.952976" lon="-2.937410">
        <ele>1210.4</ele>
        <time>2010-07-15T10:52:13Z</time>
      </trkpt>
      <trkpt lat="37.952597" lon="-2.937526">
        <ele>1200.8</ele>
        <time>2010-07-15T10:52:13Z</time>
      </trkpt>
      <trkpt lat="37.952259" lon="-2.937737">
        <ele>1193.7</ele>
        <time>2010-07-15T10:52:13Z</time>
      </trkpt>
      <trkpt lat="37.952076" lon="-2.937785">
        <ele>1187.8</ele>
        <time>2010-07-15T10:52:13Z</time>
      </trkpt>
      <trkpt lat="37.951991" lon="-2.937835">
        <ele>1186.0</ele>
        <time>2010-07-15T10:52:13Z</time>
      </trkpt>
      <trkpt lat="37.951923" lon="-2.938053">
        <ele>1189.7</ele>
        <time>2010-07-15T10:52:13Z</time>
      </trkpt>
      <trkpt lat="37.951853" lon="-2.938410">
        <ele>1191.6</ele>
        <time>2010-07-15T10:52:13Z</time>
      </trkpt>
      <trkpt lat="37.951787" lon="-2.938512">
        <ele>1190.6</ele>
        <time>2010-07-15T10:52:13Z</time>
      </trkpt>
      <trkpt lat="37.951508" lon="-2.938840">
        <ele>1186.7</ele>
        <time>2010-07-15T10:52:13Z</time>
      </trkpt>
      <trkpt lat="37.951367" lon="-2.939144">
        <ele>1182.7</ele>
        <time>2010-07-15T10:52:13Z</time>
      </trkpt>
      <trkpt lat="37.951257" lon="-2.939349">
        <ele>1180.3</ele>
        <time>2010-07-15T10:52:13Z</time>
      </trkpt>
      <trkpt lat="37.951189" lon="-2.939444">
        <ele>1179.7</ele>
        <time>2010-07-15T10:52:13Z</time>
      </trkpt>
      <trkpt lat="37.951028" lon="-2.939606">
        <ele>1184.4</ele>
        <time>2010-07-15T10:52:13Z</time>
      </trkpt>
      <trkpt lat="37.950875" lon="-2.939743">
        <ele>1188.1</ele>
        <time>2010-07-15T10:52:13Z</time>
      </trkpt>
      <trkpt lat="37.950846" lon="-2.939854">
        <ele>1186.5</ele>
        <time>2010-07-15T10:52:13Z</time>
      </trkpt>
      <trkpt lat="37.950945" lon="-2.939902">
        <ele>1182.9</ele>
        <time>2010-07-15T10:52:13Z</time>
      </trkpt>
      <trkpt lat="37.951056" lon="-2.939926">
        <ele>1179.5</ele>
        <time>2010-07-15T10:52:13Z</time>
      </trkpt>
      <trkpt lat="37.951344" lon="-2.940074">
        <ele>1174.6</ele>
        <time>2010-07-15T10:52:13Z</time>
      </trkpt>
      <trkpt lat="37.951352" lon="-2.940231">
        <ele>1171.6</ele>
        <time>2010-07-15T10:52:13Z</time>
      </trkpt>
      <trkpt lat="37.951188" lon="-2.940158">
        <ele>1171.6</ele>
        <time>2010-07-15T10:52:13Z</time>
      </trkpt>
      <trkpt lat="37.951086" lon="-2.940155">
        <ele>1174.2</ele>
        <time>2010-07-15T10:52:13Z</time>
      </trkpt>
      <trkpt lat="37.950936" lon="-2.940203">
        <ele>1176.9</ele>
        <time>2010-07-15T10:52:13Z</time>
      </trkpt>
      <trkpt lat="37.950900" lon="-2.940325">
        <ele>1175.3</ele>
        <time>2010-07-15T10:52:13Z</time>
      </trkpt>
      <trkpt lat="37.950810" lon="-2.940351">
        <ele>1176.8</ele>
        <time>2010-07-15T10:52:13Z</time>
      </trkpt>
      <trkpt lat="37.950677" lon="-2.940501">
        <ele>1176.7</ele>
        <time>2010-07-15T10:52:13Z</time>
      </trkpt>
      <trkpt lat="37.950418" lon="-2.940893">
        <ele>1172.4</ele>
        <time>2010-07-15T10:52:13Z</time>
      </trkpt>
      <trkpt lat="37.950286" lon="-2.941068">
        <ele>1171.1</ele>
        <time>2010-07-15T10:52:13Z</time>
      </trkpt>
      <trkpt lat="37.950232" lon="-2.941211">
        <ele>1169.0</ele>
        <time>2010-07-15T10:52:13Z</time>
      </trkpt>
      <trkpt lat="37.950181" lon="-2.941328">
        <ele>1167.6</ele>
        <time>2010-07-15T10:52:13Z</time>
      </trkpt>
      <trkpt lat="37.950081" lon="-2.941428">
        <ele>1167.8</ele>
        <time>2010-07-15T10:52:13Z</time>
      </trkpt>
      <trkpt lat="37.949932" lon="-2.941740">
        <ele>1162.6</ele>
        <time>2010-07-15T10:52:13Z</time>
      </trkpt>
      <trkpt lat="37.949821" lon="-2.941924">
        <ele>1159.6</ele>
        <time>2010-07-15T10:52:13Z</time>
      </trkpt>
      <trkpt lat="37.949724" lon="-2.941988">
        <ele>1159.9</ele>
        <time>2010-07-15T10:52:13Z</time>
      </trkpt>
      <trkpt lat="37.949550" lon="-2.942227">
        <ele>1156.0</ele>
        <time>2010-07-15T10:52:13Z</time>
      </trkpt>
      <trkpt lat="37.949454" lon="-2.942354">
        <ele>1155.0</ele>
        <time>2010-07-15T10:52:13Z</time>
      </trkpt>
      <trkpt lat="37.949403" lon="-2.942441">
        <ele>1154.0</ele>
        <time>2010-07-15T10:52:13Z</time>
      </trkpt>
      <trkpt lat="37.949342" lon="-2.942490">
        <ele>1154.1</ele>
        <time>2010-07-15T10:52:13Z</time>
      </trkpt>
      <trkpt lat="37.949226" lon="-2.942667">
        <ele>1152.0</ele>
        <time>2010-07-15T10:52:13Z</time>
      </trkpt>
      <trkpt lat="37.949073" lon="-2.942846">
        <ele>1150.6</ele>
        <time>2010-07-15T10:52:13Z</time>
      </trkpt>
      <trkpt lat="37.949008" lon="-2.942949">
        <ele>1149.3</ele>
        <time>2010-07-15T10:52:13Z</time>
      </trkpt>
      <trkpt lat="37.948925" lon="-2.942999">
        <ele>1149.6</ele>
        <time>2010-07-15T10:52:13Z</time>
      </trkpt>
      <trkpt lat="37.948830" lon="-2.943009">
        <ele>1151.2</ele>
        <time>2010-07-15T10:52:13Z</time>
      </trkpt>
      <trkpt lat="37.948731" lon="-2.943020">
        <ele>1152.8</ele>
        <time>2010-07-15T10:52:13Z</time>
      </trkpt>
      <trkpt lat="37.948576" lon="-2.943189">
        <ele>1148.3</ele>
        <time>2010-07-15T10:52:13Z</time>
      </trkpt>
      <trkpt lat="37.948430" lon="-2.943534">
        <ele>1138.9</ele>
        <time>2010-07-15T10:52:13Z</time>
      </trkpt>
      <trkpt lat="37.948355" lon="-2.943626">
        <ele>1136.5</ele>
        <time>2010-07-15T10:52:13Z</time>
      </trkpt>
      <trkpt lat="37.948276" lon="-2.943714">
        <ele>1134.4</ele>
        <time>2010-07-15T10:52:13Z</time>
      </trkpt>
      <trkpt lat="37.948170" lon="-2.943896">
        <ele>1130.1</ele>
        <time>2010-07-15T10:52:13Z</time>
      </trkpt>
      <trkpt lat="37.948114" lon="-2.944104">
        <ele>1125.1</ele>
        <time>2010-07-15T10:52:13Z</time>
      </trkpt>
      <trkpt lat="37.947907" lon="-2.944100">
        <ele>1126.2</ele>
        <time>2010-07-15T10:52:13Z</time>
      </trkpt>
      <trkpt lat="37.947574" lon="-2.943778">
        <ele>1139.0</ele>
        <time>2010-07-15T10:52:13Z</time>
      </trkpt>
      <trkpt lat="37.947488" lon="-2.943763">
        <ele>1140.9</ele>
        <time>2010-07-15T10:52:13Z</time>
      </trkpt>
      <trkpt lat="37.947261" lon="-2.943980">
        <ele>1138.7</ele>
        <time>2010-07-15T10:52:13Z</time>
      </trkpt>
      <trkpt lat="37.946775" lon="-2.944313">
        <ele>1147.0</ele>
        <time>2010-07-15T10:52:13Z</time>
      </trkpt>
      <trkpt lat="37.946635" lon="-2.944471">
        <ele>1150.6</ele>
        <time>2010-07-15T10:52:13Z</time>
      </trkpt>
      <trkpt lat="37.946520" lon="-2.944654">
        <ele>1152.6</ele>
        <time>2010-07-15T10:52:13Z</time>
      </trkpt>
      <trkpt lat="37.946381" lon="-2.944786">
        <ele>1158.2</ele>
        <time>2010-07-15T10:52:13Z</time>
      </trkpt>
      <trkpt lat="37.946278" lon="-2.944962">
        <ele>1162.1</ele>
        <time>2010-07-15T10:52:13Z</time>
      </trkpt>
      <trkpt lat="37.946248" lon="-2.945161">
        <ele>1162.0</ele>
        <time>2010-07-15T10:52:13Z</time>
      </trkpt>
      <trkpt lat="37.946280" lon="-2.945448">
        <ele>1158.2</ele>
        <time>2010-07-15T10:52:13Z</time>
      </trkpt>
      <trkpt lat="37.946170" lon="-2.945761">
        <ele>1162.1</ele>
        <time>2010-07-15T10:52:13Z</time>
      </trkpt>
      <trkpt lat="37.946014" lon="-2.946674">
        <ele>1160.0</ele>
        <time>2010-07-15T10:52:13Z</time>
      </trkpt>
      <trkpt lat="37.945864" lon="-2.946731">
        <ele>1163.0</ele>
        <time>2010-07-15T10:52:13Z</time>
      </trkpt>
      <trkpt lat="37.945770" lon="-2.946726">
        <ele>1165.6</ele>
        <time>2010-07-15T10:52:13Z</time>
      </trkpt>
      <trkpt lat="37.945681" lon="-2.946653">
        <ele>1169.1</ele>
        <time>2010-07-15T10:52:13Z</time>
      </trkpt>
      <trkpt lat="37.945596" lon="-2.946613">
        <ele>1171.9</ele>
        <time>2010-07-15T10:52:13Z</time>
      </trkpt>
      <trkpt lat="37.945437" lon="-2.946489">
        <ele>1177.7</ele>
        <time>2010-07-15T10:52:13Z</time>
      </trkpt>
      <trkpt lat="37.945363" lon="-2.946415">
        <ele>1180.5</ele>
        <time>2010-07-15T10:52:13Z</time>
      </trkpt>
      <trkpt lat="37.945331" lon="-2.946098">
        <ele>1185.5</ele>
        <time>2010-07-15T10:52:13Z</time>
      </trkpt>
      <trkpt lat="37.945236" lon="-2.946078">
        <ele>1188.9</ele>
        <time>2010-07-15T10:52:13Z</time>
      </trkpt>
      <trkpt lat="37.945072" lon="-2.946214">
        <ele>1192.3</ele>
        <time>2010-07-15T10:52:13Z</time>
      </trkpt>
      <trkpt lat="37.945024" lon="-2.946311">
        <ele>1192.2</ele>
        <time>2010-07-15T10:52:13Z</time>
      </trkpt>
      <trkpt lat="37.944899" lon="-2.946665">
        <ele>1189.5</ele>
        <time>2010-07-15T10:52:13Z</time>
      </trkpt>
      <trkpt lat="37.944817" lon="-2.946787">
        <ele>1189.3</ele>
        <time>2010-07-15T10:52:13Z</time>
      </trkpt>
      <trkpt lat="37.944737" lon="-2.946868">
        <ele>1189.7</ele>
        <time>2010-07-15T10:52:13Z</time>
      </trkpt>
      <trkpt lat="37.944483" lon="-2.947069">
        <ele>1191.5</ele>
        <time>2010-07-15T10:52:13Z</time>
      </trkpt>
      <trkpt lat="37.944238" lon="-2.947236">
        <ele>1194.7</ele>
        <time>2010-07-15T10:52:13Z</time>
      </trkpt>
      <trkpt lat="37.944154" lon="-2.947286">
        <ele>1195.5</ele>
        <time>2010-07-15T10:52:13Z</time>
      </trkpt>
      <trkpt lat="37.944070" lon="-2.947333">
        <ele>1196.5</ele>
        <time>2010-07-15T10:52:13Z</time>
      </trkpt>
      <trkpt lat="37.943979" lon="-2.947418">
        <ele>1196.6</ele>
        <time>2010-07-15T10:52:13Z</time>
      </trkpt>
      <trkpt lat="37.943891" lon="-2.947489">
        <ele>1197.2</ele>
        <time>2010-07-15T10:52:13Z</time>
      </trkpt>
      <trkpt lat="37.943801" lon="-2.947537">
        <ele>1198.6</ele>
        <time>2010-07-15T10:52:13Z</time>
      </trkpt>
      <trkpt lat="37.943722" lon="-2.947551">
        <ele>1200.8</ele>
        <time>2010-07-15T10:52:13Z</time>
      </trkpt>
      <trkpt lat="37.943644" lon="-2.947604">
        <ele>1200.8</ele>
        <time>2010-07-15T10:52:13Z</time>
      </trkpt>
      <trkpt lat="37.943498" lon="-2.947759">
        <ele>1199.0</ele>
        <time>2010-07-15T10:52:13Z</time>
      </trkpt>
      <trkpt lat="37.943285" lon="-2.948029">
        <ele>1196.1</ele>
        <time>2010-07-15T10:52:13Z</time>
      </trkpt>
      <trkpt lat="37.943194" lon="-2.948085">
        <ele>1196.2</ele>
        <time>2010-07-15T10:52:13Z</time>
      </trkpt>
      <trkpt lat="37.942971" lon="-2.948107">
        <ele>1200.8</ele>
        <time>2010-07-15T10:52:13Z</time>
      </trkpt>
      <trkpt lat="37.942824" lon="-2.948106">
        <ele>1203.6</ele>
        <time>2010-07-15T10:52:13Z</time>
      </trkpt>
      <trkpt lat="37.942694" lon="-2.948019">
        <ele>1206.8</ele>
        <time>2010-07-15T10:52:13Z</time>
      </trkpt>
      <trkpt lat="37.942763" lon="-2.947877">
        <ele>1209.1</ele>
        <time>2010-07-15T10:52:13Z</time>
      </trkpt>
      <trkpt lat="37.942850" lon="-2.947789">
        <ele>1210.1</ele>
        <time>2010-07-15T10:52:13Z</time>
      </trkpt>
      <trkpt lat="37.943058" lon="-2.947549">
        <ele>1211.8</ele>
        <time>2010-07-15T10:52:13Z</time>
      </trkpt>
      <trkpt lat="37.943249" lon="-2.947233">
        <ele>1216.6</ele>
        <time>2010-07-15T10:52:13Z</time>
      </trkpt>
      <trkpt lat="37.943232" lon="-2.947014">
        <ele>1221.9</ele>
        <time>2010-07-15T10:52:13Z</time>
      </trkpt>
      <trkpt lat="37.943172" lon="-2.946708">
        <ele>1230.0</ele>
        <time>2010-07-15T10:52:13Z</time>
      </trkpt>
      <trkpt lat="37.942999" lon="-2.946456">
        <ele>1239.2</ele>
        <time>2010-07-15T10:52:13Z</time>
      </trkpt>
      <trkpt lat="37.942878" lon="-2.946379">
        <ele>1243.5</ele>
        <time>2010-07-15T10:52:13Z</time>
      </trkpt>
      <trkpt lat="37.942679" lon="-2.946444">
        <ele>1244.8</ele>
        <time>2010-07-15T10:52:13Z</time>
      </trkpt>
      <trkpt lat="37.942454" lon="-2.946488">
        <ele>1247.0</ele>
        <time>2010-07-15T10:52:13Z</time>
      </trkpt>
      <trkpt lat="37.942324" lon="-2.946444">
        <ele>1250.2</ele>
        <time>2010-07-15T10:52:13Z</time>
      </trkpt>
      <trkpt lat="37.942049" lon="-2.946354">
        <ele>1257.1</ele>
        <time>2010-07-15T10:52:13Z</time>
      </trkpt>
      <trkpt lat="37.941862" lon="-2.946430">
        <ele>1256.3</ele>
        <time>2010-07-15T10:52:13Z</time>
      </trkpt>
      <trkpt lat="37.941735" lon="-2.946448">
        <ele>1256.7</ele>
        <time>2010-07-15T10:52:13Z</time>
      </trkpt>
      <trkpt lat="37.941586" lon="-2.946506">
        <ele>1255.9</ele>
        <time>2010-07-15T10:52:13Z</time>
      </trkpt>
      <trkpt lat="37.941482" lon="-2.946601">
        <ele>1253.7</ele>
        <time>2010-07-15T10:52:13Z</time>
      </trkpt>
      <trkpt lat="37.941375" lon="-2.946648">
        <ele>1253.0</ele>
        <time>2010-07-15T10:52:13Z</time>
      </trkpt>
      <trkpt lat="37.941296" lon="-2.946653">
        <ele>1253.4</ele>
        <time>2010-07-15T10:52:13Z</time>
      </trkpt>
      <trkpt lat="37.941160" lon="-2.946677">
        <ele>1253.4</ele>
        <time>2010-07-15T10:52:13Z</time>
      </trkpt>
      <trkpt lat="37.941034" lon="-2.946706">
        <ele>1252.9</ele>
        <time>2010-07-15T10:52:13Z</time>
      </trkpt>
      <trkpt lat="37.940885" lon="-2.946676">
        <ele>1254.4</ele>
        <time>2010-07-15T10:52:13Z</time>
      </trkpt>
      <trkpt lat="37.940777" lon="-2.946741">
        <ele>1252.3</ele>
        <time>2010-07-15T10:52:13Z</time>
      </trkpt>
      <trkpt lat="37.940668" lon="-2.946740">
        <ele>1252.6</ele>
        <time>2010-07-15T10:52:13Z</time>
      </trkpt>
      <trkpt lat="37.940570" lon="-2.946722">
        <ele>1253.6</ele>
        <time>2010-07-15T10:52:13Z</time>
      </trkpt>
      <trkpt lat="37.940365" lon="-2.946816">
        <ele>1249.9</ele>
        <time>2010-07-15T10:52:13Z</time>
      </trkpt>
      <trkpt lat="37.940210" lon="-2.946822">
        <ele>1248.3</ele>
        <time>2010-07-15T10:52:13Z</time>
      </trkpt>
      <trkpt lat="37.940097" lon="-2.946822">
        <ele>1247.3</ele>
        <time>2010-07-15T10:52:13Z</time>
      </trkpt>
      <trkpt lat="37.939971" lon="-2.946827">
        <ele>1245.9</ele>
        <time>2010-07-15T10:52:13Z</time>
      </trkpt>
      <trkpt lat="37.939831" lon="-2.946809">
        <ele>1245.4</ele>
        <time>2010-07-15T10:52:13Z</time>
      </trkpt>
      <trkpt lat="37.939486" lon="-2.946797">
        <ele>1243.8</ele>
        <time>2010-07-15T10:52:13Z</time>
      </trkpt>
      <trkpt lat="37.939340" lon="-2.946773">
        <ele>1246.0</ele>
        <time>2010-07-15T10:52:13Z</time>
      </trkpt>
      <trkpt lat="37.939265" lon="-2.946714">
        <ele>1249.2</ele>
        <time>2010-07-15T10:52:13Z</time>
      </trkpt>
      <trkpt lat="37.939125" lon="-2.946672">
        <ele>1252.2</ele>
        <time>2010-07-15T10:52:13Z</time>
      </trkpt>
      <trkpt lat="37.939042" lon="-2.946618">
        <ele>1255.2</ele>
        <time>2010-07-15T10:52:13Z</time>
      </trkpt>
      <trkpt lat="37.938905" lon="-2.946571">
        <ele>1258.4</ele>
        <time>2010-07-15T10:52:13Z</time>
      </trkpt>
      <trkpt lat="37.938741" lon="-2.946511">
        <ele>1262.3</ele>
        <time>2010-07-15T10:52:13Z</time>
      </trkpt>
      <trkpt lat="37.938587" lon="-2.946399">
        <ele>1269.2</ele>
        <time>2010-07-15T10:52:13Z</time>
      </trkpt>
      <trkpt lat="37.938523" lon="-2.946399">
        <ele>1270.2</ele>
        <time>2010-07-15T10:52:13Z</time>
      </trkpt>
      <trkpt lat="37.938312" lon="-2.946333">
        <ele>1275.7</ele>
        <time>2010-07-15T10:52:13Z</time>
      </trkpt>
      <trkpt lat="37.938107" lon="-2.946262">
        <ele>1280.8</ele>
        <time>2010-07-15T10:52:13Z</time>
      </trkpt>
      <trkpt lat="37.937985" lon="-2.946220">
        <ele>1283.7</ele>
        <time>2010-07-15T10:52:13Z</time>
      </trkpt>
      <trkpt lat="37.937787" lon="-2.946314">
        <ele>1283.0</ele>
        <time>2010-07-15T10:52:13Z</time>
      </trkpt>
      <trkpt lat="37.937670" lon="-2.946326">
        <ele>1283.4</ele>
        <time>2010-07-15T10:52:13Z</time>
      </trkpt>
      <trkpt lat="37.937521" lon="-2.946390">
        <ele>1282.5</ele>
        <time>2010-07-15T10:52:13Z</time>
      </trkpt>
      <trkpt lat="37.937403" lon="-2.946467">
        <ele>1280.3</ele>
        <time>2010-07-15T10:52:13Z</time>
      </trkpt>
      <trkpt lat="37.937301" lon="-2.946514">
        <ele>1279.3</ele>
        <time>2010-07-15T10:52:13Z</time>
      </trkpt>
      <trkpt lat="37.937127" lon="-2.946531">
        <ele>1280.1</ele>
        <time>2010-07-15T10:52:13Z</time>
      </trkpt>
      <trkpt lat="37.936936" lon="-2.946543">
        <ele>1280.3</ele>
        <time>2010-07-15T10:52:13Z</time>
      </trkpt>
      <trkpt lat="37.936655" lon="-2.946512">
        <ele>1280.9</ele>
        <time>2010-07-15T10:52:13Z</time>
      </trkpt>
      <trkpt lat="37.936444" lon="-2.946506">
        <ele>1280.7</ele>
        <time>2010-07-15T10:52:13Z</time>
      </trkpt>
      <trkpt lat="37.936271" lon="-2.946476">
        <ele>1281.2</ele>
        <time>2010-07-15T10:52:13Z</time>
      </trkpt>
      <trkpt lat="37.936117" lon="-2.946464">
        <ele>1280.6</ele>
        <time>2010-07-15T10:52:13Z</time>
      </trkpt>
      <trkpt lat="37.935953" lon="-2.946623">
        <ele>1275.8</ele>
        <time>2010-07-15T10:52:13Z</time>
      </trkpt>
      <trkpt lat="37.935855" lon="-2.946764">
        <ele>1272.7</ele>
        <time>2010-07-15T10:52:13Z</time>
      </trkpt>
      <trkpt lat="37.935635" lon="-2.946888">
        <ele>1270.6</ele>
        <time>2010-07-15T10:52:13Z</time>
      </trkpt>
      <trkpt lat="37.935513" lon="-2.946959">
        <ele>1270.1</ele>
        <time>2010-07-15T10:52:13Z</time>
      </trkpt>
      <trkpt lat="37.935358" lon="-2.946988">
        <ele>1270.3</ele>
        <time>2010-07-15T10:52:13Z</time>
      </trkpt>
      <trkpt lat="37.935195" lon="-2.946999">
        <ele>1270.1</ele>
        <time>2010-07-15T10:52:13Z</time>
      </trkpt>
      <trkpt lat="37.935073" lon="-2.947022">
        <ele>1270.1</ele>
        <time>2010-07-15T10:52:13Z</time>
      </trkpt>
      <trkpt lat="37.935007" lon="-2.947099">
        <ele>1270.6</ele>
        <time>2010-07-15T10:52:13Z</time>
      </trkpt>
      <trkpt lat="37.934862" lon="-2.947217">
        <ele>1272.0</ele>
        <time>2010-07-15T10:52:13Z</time>
      </trkpt>
      <trkpt lat="37.934717" lon="-2.947299">
        <ele>1272.7</ele>
        <time>2010-07-15T10:52:13Z</time>
      </trkpt>
      <trkpt lat="37.934614" lon="-2.947447">
        <ele>1273.5</ele>
        <time>2010-07-15T10:52:13Z</time>
      </trkpt>
      <trkpt lat="37.934492" lon="-2.947671">
        <ele>1273.8</ele>
        <time>2010-07-15T10:52:13Z</time>
      </trkpt>
      <trkpt lat="37.934417" lon="-2.947883">
        <ele>1273.2</ele>
        <time>2010-07-15T10:52:13Z</time>
      </trkpt>
      <trkpt lat="37.934313" lon="-2.948196">
        <ele>1267.3</ele>
        <time>2010-07-15T10:52:13Z</time>
      </trkpt>
      <trkpt lat="37.934192" lon="-2.948343">
        <ele>1262.2</ele>
        <time>2010-07-15T10:52:13Z</time>
      </trkpt>
      <trkpt lat="37.934065" lon="-2.948414">
        <ele>1260.2</ele>
        <time>2010-07-15T10:52:13Z</time>
      </trkpt>
      <trkpt lat="37.933995" lon="-2.948420">
        <ele>1260.0</ele>
        <time>2010-07-15T10:52:13Z</time>
      </trkpt>
      <trkpt lat="37.933995" lon="-2.948420">
        <ele>1260.0</ele>
        <time>2010-07-15T10:52:13Z</time>
      </trkpt>
      <trkpt lat="37.933934" lon="-2.948579">
        <ele>1256.5</ele>
        <time>2010-07-15T10:52:13Z</time>
      </trkpt>
      <trkpt lat="37.933901" lon="-2.948721">
        <ele>1253.7</ele>
        <time>2010-07-15T10:52:13Z</time>
      </trkpt>
      <trkpt lat="37.933849" lon="-2.948868">
        <ele>1251.1</ele>
        <time>2010-07-15T10:52:13Z</time>
      </trkpt>
      <trkpt lat="37.933802" lon="-2.948927">
        <ele>1248.9</ele>
        <time>2010-07-15T10:52:13Z</time>
      </trkpt>
      <trkpt lat="37.933714" lon="-2.948956">
        <ele>1248.7</ele>
        <time>2010-07-15T10:52:13Z</time>
      </trkpt>
      <trkpt lat="37.933676" lon="-2.949010">
        <ele>1246.4</ele>
        <time>2010-07-15T10:52:13Z</time>
      </trkpt>
      <trkpt lat="37.933634" lon="-2.948939">
        <ele>1249.5</ele>
        <time>2010-07-15T10:52:13Z</time>
      </trkpt>
      <trkpt lat="37.933587" lon="-2.949015">
        <ele>1246.2</ele>
        <time>2010-07-15T10:52:13Z</time>
      </trkpt>
      <trkpt lat="37.933512" lon="-2.949021">
        <ele>1246.0</ele>
        <time>2010-07-15T10:52:13Z</time>
      </trkpt>
      <trkpt lat="37.933512" lon="-2.949021">
        <ele>1246.0</ele>
        <time>2010-07-15T10:52:13Z</time>
      </trkpt>
      <trkpt lat="37.933437" lon="-2.949121">
        <ele>1242.1</ele>
        <time>2010-07-15T10:52:13Z</time>
      </trkpt>
      <trkpt lat="37.933330" lon="-2.949121">
        <ele>1242.5</ele>
        <time>2010-07-15T10:52:13Z</time>
      </trkpt>
      <trkpt lat="37.933222" lon="-2.949168">
        <ele>1241.2</ele>
        <time>2010-07-15T10:52:13Z</time>
      </trkpt>
      <trkpt lat="37.933077" lon="-2.949209">
        <ele>1240.6</ele>
        <time>2010-07-15T10:52:13Z</time>
      </trkpt>
      <trkpt lat="37.932909" lon="-2.949250">
        <ele>1240.5</ele>
        <time>2010-07-15T10:52:13Z</time>
      </trkpt>
      <trkpt lat="37.932829" lon="-2.949161">
        <ele>1242.6</ele>
        <time>2010-07-15T10:52:13Z</time>
      </trkpt>
      <trkpt lat="37.932703" lon="-2.949255">
        <ele>1239.9</ele>
        <time>2010-07-15T10:52:13Z</time>
      </trkpt>
      <trkpt lat="37.932632" lon="-2.949267">
        <ele>1239.4</ele>
        <time>2010-07-15T10:52:13Z</time>
      </trkpt>
      <trkpt lat="37.932417" lon="-2.949190">
        <ele>1239.5</ele>
        <time>2010-07-15T10:52:13Z</time>
      </trkpt>
      <trkpt lat="37.932338" lon="-2.949184">
        <ele>1239.1</ele>
        <time>2010-07-15T10:52:13Z</time>
      </trkpt>
      <trkpt lat="37.932254" lon="-2.949213">
        <ele>1238.3</ele>
        <time>2010-07-15T10:52:13Z</time>
      </trkpt>
      <trkpt lat="37.932146" lon="-2.949230">
        <ele>1237.7</ele>
        <time>2010-07-15T10:52:13Z</time>
      </trkpt>
      <trkpt lat="37.932062" lon="-2.949342">
        <ele>1236.9</ele>
        <time>2010-07-15T10:52:13Z</time>
      </trkpt>
      <trkpt lat="37.932011" lon="-2.949478">
        <ele>1236.2</ele>
        <time>2010-07-15T10:52:13Z</time>
      </trkpt>
      <trkpt lat="37.931922" lon="-2.949614">
        <ele>1235.3</ele>
        <time>2010-07-15T10:52:13Z</time>
      </trkpt>
      <trkpt lat="37.931818" lon="-2.949667">
        <ele>1234.8</ele>
        <time>2010-07-15T10:52:13Z</time>
      </trkpt>
      <trkpt lat="37.931663" lon="-2.949725">
        <ele>1234.0</ele>
        <time>2010-07-15T10:52:13Z</time>
      </trkpt>
      <trkpt lat="37.931551" lon="-2.949790">
        <ele>1233.2</ele>
        <time>2010-07-15T10:52:13Z</time>
      </trkpt>
      <trkpt lat="37.931458" lon="-2.949802">
        <ele>1233.1</ele>
        <time>2010-07-15T10:52:13Z</time>
      </trkpt>
      <trkpt lat="37.931427" lon="-2.949901">
        <ele>1233.0</ele>
        <time>2010-07-15T10:52:13Z</time>
      </trkpt>
      <trkpt lat="37.931388" lon="-2.949905">
        <ele>1233.1</ele>
        <time>2010-07-15T10:52:13Z</time>
      </trkpt>
      <trkpt lat="37.931309" lon="-2.949973">
        <ele>1233.5</ele>
        <time>2010-07-15T10:52:13Z</time>
      </trkpt>
      <trkpt lat="37.931228" lon="-2.950050">
        <ele>1234.4</ele>
        <time>2010-07-15T10:52:13Z</time>
      </trkpt>
      <trkpt lat="37.931151" lon="-2.950119">
        <ele>1234.2</ele>
        <time>2010-07-15T10:52:13Z</time>
      </trkpt>
      <trkpt lat="37.931095" lon="-2.950205">
        <ele>1234.2</ele>
        <time>2010-07-15T10:52:13Z</time>
      </trkpt>
      <trkpt lat="37.931044" lon="-2.950299">
        <ele>1234.6</ele>
        <time>2010-07-15T10:52:13Z</time>
      </trkpt>
      <trkpt lat="37.931008" lon="-2.950410">
        <ele>1235.7</ele>
        <time>2010-07-15T10:52:13Z</time>
      </trkpt>
      <trkpt lat="37.930990" lon="-2.950511">
        <ele>1236.9</ele>
        <time>2010-07-15T10:52:13Z</time>
      </trkpt>
      <trkpt lat="37.930964" lon="-2.950630">
        <ele>1236.6</ele>
        <time>2010-07-15T10:52:13Z</time>
      </trkpt>
      <trkpt lat="37.930921" lon="-2.950728">
        <ele>1236.1</ele>
        <time>2010-07-15T10:52:13Z</time>
      </trkpt>
      <trkpt lat="37.930839" lon="-2.950793">
        <ele>1236.2</ele>
        <time>2010-07-15T10:52:13Z</time>
      </trkpt>
      <trkpt lat="37.930759" lon="-2.950851">
        <ele>1236.4</ele>
        <time>2010-07-15T10:52:13Z</time>
      </trkpt>
      <trkpt lat="37.930675" lon="-2.950907">
        <ele>1237.0</ele>
        <time>2010-07-15T10:52:13Z</time>
      </trkpt>
      <trkpt lat="37.930605" lon="-2.950981">
        <ele>1237.8</ele>
        <time>2010-07-15T10:52:13Z</time>
      </trkpt>
      <trkpt lat="37.930538" lon="-2.951077">
        <ele>1239.0</ele>
        <time>2010-07-15T10:52:13Z</time>
      </trkpt>
      <trkpt lat="37.930469" lon="-2.951165">
        <ele>1240.5</ele>
        <time>2010-07-15T10:52:13Z</time>
      </trkpt>
      <trkpt lat="37.930406" lon="-2.951257">
        <ele>1242.2</ele>
        <time>2010-07-15T10:52:13Z</time>
      </trkpt>
      <trkpt lat="37.930329" lon="-2.951328">
        <ele>1244.8</ele>
        <time>2010-07-15T10:52:13Z</time>
      </trkpt>
      <trkpt lat="37.930243" lon="-2.951390">
        <ele>1248.2</ele>
        <time>2010-07-15T10:52:13Z</time>
      </trkpt>
      <trkpt lat="37.930150" lon="-2.951428">
        <ele>1251.5</ele>
        <time>2010-07-15T10:52:13Z</time>
      </trkpt>
      <trkpt lat="37.930135" lon="-2.951628">
        <ele>1254.1</ele>
        <time>2010-07-15T10:52:13Z</time>
      </trkpt>
      <trkpt lat="37.930075" lon="-2.951754">
        <ele>1257.2</ele>
        <time>2010-07-15T10:52:13Z</time>
      </trkpt>
      <trkpt lat="37.930067" lon="-2.951951">
        <ele>1259.5</ele>
        <time>2010-07-15T10:52:13Z</time>
      </trkpt>
      <trkpt lat="37.930026" lon="-2.952118">
        <ele>1262.5</ele>
        <time>2010-07-15T10:52:13Z</time>
      </trkpt>
      <trkpt lat="37.930043" lon="-2.952263">
        <ele>1264.2</ele>
        <time>2010-07-15T10:52:13Z</time>
      </trkpt>
      <trkpt lat="37.930051" lon="-2.952378">
        <ele>1266.5</ele>
        <time>2010-07-15T10:52:13Z</time>
      </trkpt>
      <trkpt lat="37.930220" lon="-2.952487">
        <ele>1265.3</ele>
        <time>2010-07-15T10:52:13Z</time>
      </trkpt>
      <trkpt lat="37.930297" lon="-2.952572">
        <ele>1266.0</ele>
        <time>2010-07-15T10:52:13Z</time>
      </trkpt>
      <trkpt lat="37.930427" lon="-2.952585">
        <ele>1264.6</ele>
        <time>2010-07-15T10:52:13Z</time>
      </trkpt>
      <trkpt lat="37.930525" lon="-2.952591">
        <ele>1264.2</ele>
        <time>2010-07-15T10:52:13Z</time>
      </trkpt>
      <trkpt lat="37.930685" lon="-2.952584">
        <ele>1262.8</ele>
        <time>2010-07-15T10:52:13Z</time>
      </trkpt>
      <trkpt lat="37.930852" lon="-2.952550">
        <ele>1260.2</ele>
        <time>2010-07-15T10:52:13Z</time>
      </trkpt>
      <trkpt lat="37.931169" lon="-2.952568">
        <ele>1258.6</ele>
        <time>2010-07-15T10:52:13Z</time>
      </trkpt>
      <trkpt lat="37.931272" lon="-2.952580">
        <ele>1258.1</ele>
        <time>2010-07-15T10:52:13Z</time>
      </trkpt>
      <trkpt lat="37.931419" lon="-2.952584">
        <ele>1256.6</ele>
        <time>2010-07-15T10:52:13Z</time>
      </trkpt>
      <trkpt lat="37.931539" lon="-2.952617">
        <ele>1256.8</ele>
        <time>2010-07-15T10:52:13Z</time>
      </trkpt>
      <trkpt lat="37.931732" lon="-2.952673">
        <ele>1257.0</ele>
        <time>2010-07-15T10:52:13Z</time>
      </trkpt>
      <trkpt lat="37.931791" lon="-2.952684">
        <ele>1256.8</ele>
        <time>2010-07-15T10:52:13Z</time>
      </trkpt>
      <trkpt lat="37.931925" lon="-2.952710">
        <ele>1256.2</ele>
        <time>2010-07-15T10:52:13Z</time>
      </trkpt>
      <trkpt lat="37.932143" lon="-2.952838">
        <ele>1257.3</ele>
        <time>2010-07-15T10:52:13Z</time>
      </trkpt>
      <trkpt lat="37.932380" lon="-2.953131">
        <ele>1260.0</ele>
        <time>2010-07-15T10:52:13Z</time>
      </trkpt>
      <trkpt lat="37.932554" lon="-2.953331">
        <ele>1258.8</ele>
        <time>2010-07-15T10:52:13Z</time>
      </trkpt>
      <trkpt lat="37.932554" lon="-2.953476">
        <ele>1261.8</ele>
        <time>2010-07-15T10:52:13Z</time>
      </trkpt>
      <trkpt lat="37.932517" lon="-2.953648">
        <ele>1266.8</ele>
        <time>2010-07-15T10:52:13Z</time>
      </trkpt>
      <trkpt lat="37.932416" lon="-2.953800">
        <ele>1274.0</ele>
        <time>2010-07-15T10:52:13Z</time>
      </trkpt>
      <trkpt lat="37.932488" lon="-2.954006">
        <ele>1270.5</ele>
        <time>2010-07-15T10:52:13Z</time>
      </trkpt>
      <trkpt lat="37.932590" lon="-2.954186">
        <ele>1263.5</ele>
        <time>2010-07-15T10:52:13Z</time>
      </trkpt>
      <trkpt lat="37.932727" lon="-2.954262">
        <ele>1256.5</ele>
        <time>2010-07-15T10:52:13Z</time>
      </trkpt>
      <trkpt lat="37.932842" lon="-2.954359">
        <ele>1250.0</ele>
        <time>2010-07-15T10:52:13Z</time>
      </trkpt>
      <trkpt lat="37.932945" lon="-2.954483">
        <ele>1243.7</ele>
        <time>2010-07-15T10:52:13Z</time>
      </trkpt>
      <trkpt lat="37.933070" lon="-2.954642">
        <ele>1236.9</ele>
        <time>2010-07-15T10:52:13Z</time>
      </trkpt>
      <trkpt lat="37.933138" lon="-2.954708">
        <ele>1233.6</ele>
        <time>2010-07-15T10:52:13Z</time>
      </trkpt>
      <trkpt lat="37.933192" lon="-2.954801">
        <ele>1227.9</ele>
        <time>2010-07-15T10:52:13Z</time>
      </trkpt>
      <trkpt lat="37.933250" lon="-2.954934">
        <ele>1220.5</ele>
        <time>2010-07-15T10:52:13Z</time>
      </trkpt>
      <trkpt lat="37.933260" lon="-2.955038">
        <ele>1216.0</ele>
        <time>2010-07-15T10:52:13Z</time>
      </trkpt>
      <trkpt lat="37.933189" lon="-2.955247">
        <ele>1209.6</ele>
        <time>2010-07-15T10:52:13Z</time>
      </trkpt>
      <trkpt lat="37.933109" lon="-2.955302">
        <ele>1209.7</ele>
        <time>2010-07-15T10:52:13Z</time>
      </trkpt>
      <trkpt lat="37.932925" lon="-2.955329">
        <ele>1214.1</ele>
        <time>2010-07-15T10:52:13Z</time>
      </trkpt>
      <trkpt lat="37.932742" lon="-2.955440">
        <ele>1218.3</ele>
        <time>2010-07-15T10:52:13Z</time>
      </trkpt>
      <trkpt lat="37.932659" lon="-2.955488">
        <ele>1221.1</ele>
        <time>2010-07-15T10:52:13Z</time>
      </trkpt>
      <trkpt lat="37.932539" lon="-2.955543">
        <ele>1226.3</ele>
        <time>2010-07-15T10:52:13Z</time>
      </trkpt>
      <trkpt lat="37.932387" lon="-2.955611">
        <ele>1234.4</ele>
        <time>2010-07-15T10:52:13Z</time>
      </trkpt>
      <trkpt lat="37.932244" lon="-2.955700">
        <ele>1242.1</ele>
        <time>2010-07-15T10:52:13Z</time>
      </trkpt>
      <trkpt lat="37.932057" lon="-2.955841">
        <ele>1252.5</ele>
        <time>2010-07-15T10:52:13Z</time>
      </trkpt>
      <trkpt lat="37.931981" lon="-2.956003">
        <ele>1256.0</ele>
        <time>2010-07-15T10:52:13Z</time>
      </trkpt>
      <trkpt lat="37.931929" lon="-2.956216">
        <ele>1257.5</ele>
        <time>2010-07-15T10:52:13Z</time>
      </trkpt>
      <trkpt lat="37.931985" lon="-2.956573">
        <ele>1255.3</ele>
        <time>2010-07-15T10:52:13Z</time>
      </trkpt>
      <trkpt lat="37.931981" lon="-2.956754">
        <ele>1257.4</ele>
        <time>2010-07-15T10:52:13Z</time>
      </trkpt>
      <trkpt lat="37.932057" lon="-2.956995">
        <ele>1256.8</ele>
        <time>2010-07-15T10:52:13Z</time>
      </trkpt>
      <trkpt lat="37.932204" lon="-2.957326">
        <ele>1246.3</ele>
        <time>2010-07-15T10:52:13Z</time>
      </trkpt>
      <trkpt lat="37.932339" lon="-2.957650">
        <ele>1230.3</ele>
        <time>2010-07-15T10:52:13Z</time>
      </trkpt>
      <trkpt lat="37.932476" lon="-2.957813">
        <ele>1217.4</ele>
        <time>2010-07-15T10:52:13Z</time>
      </trkpt>
      <trkpt lat="37.932476" lon="-2.957956">
        <ele>1214.7</ele>
        <time>2010-07-15T10:52:13Z</time>
      </trkpt>
      <trkpt lat="37.932441" lon="-2.958139">
        <ele>1213.6</ele>
        <time>2010-07-15T10:52:13Z</time>
      </trkpt>
      <trkpt lat="37.932297" lon="-2.958152">
        <ele>1223.8</ele>
        <time>2010-07-15T10:52:13Z</time>
      </trkpt>
      <trkpt lat="37.932121" lon="-2.958172">
        <ele>1236.1</ele>
        <time>2010-07-15T10:52:13Z</time>
      </trkpt>
      <trkpt lat="37.932006" lon="-2.958250">
        <ele>1240.7</ele>
        <time>2010-07-15T10:52:13Z</time>
      </trkpt>
      <trkpt lat="37.931859" lon="-2.958324">
        <ele>1239.8</ele>
        <time>2010-07-15T10:52:13Z</time>
      </trkpt>
      <trkpt lat="37.931776" lon="-2.958579">
        <ele>1234.0</ele>
        <time>2010-07-15T10:52:13Z</time>
      </trkpt>
      <trkpt lat="37.931781" lon="-2.958861">
        <ele>1227.2</ele>
        <time>2010-07-15T10:52:13Z</time>
      </trkpt>
      <trkpt lat="37.931794" lon="-2.959125">
        <ele>1222.3</ele>
        <time>2010-07-15T10:52:13Z</time>
      </trkpt>
      <trkpt lat="37.931794" lon="-2.959334">
        <ele>1218.3</ele>
        <time>2010-07-15T10:52:13Z</time>
      </trkpt>
      <trkpt lat="37.931779" lon="-2.959510">
        <ele>1214.9</ele>
        <time>2010-07-15T10:52:13Z</time>
      </trkpt>
      <trkpt lat="37.931801" lon="-2.959635">
        <ele>1212.8</ele>
        <time>2010-07-15T10:52:13Z</time>
      </trkpt>
      <trkpt lat="37.931784" lon="-2.959778">
        <ele>1210.5</ele>
        <time>2010-07-15T10:52:13Z</time>
      </trkpt>
      <trkpt lat="37.931796" lon="-2.959981">
        <ele>1208.5</ele>
        <time>2010-07-15T10:52:13Z</time>
      </trkpt>
      <trkpt lat="37.931852" lon="-2.960548">
        <ele>1203.9</ele>
        <time>2010-07-15T10:52:13Z</time>
      </trkpt>
      <trkpt lat="37.931898" lon="-2.960797">
        <ele>1201.1</ele>
        <time>2010-07-15T10:52:13Z</time>
      </trkpt>
      <trkpt lat="37.932001" lon="-2.961025">
        <ele>1201.0</ele>
        <time>2010-07-15T10:52:13Z</time>
      </trkpt>
      <trkpt lat="37.932055" lon="-2.961122">
        <ele>1200.0</ele>
        <time>2010-07-15T10:52:13Z</time>
      </trkpt>
      <trkpt lat="37.932084" lon="-2.961252">
        <ele>1196.9</ele>
        <time>2010-07-15T10:52:13Z</time>
      </trkpt>
      <trkpt lat="37.932153" lon="-2.961480">
        <ele>1187.9</ele>
        <time>2010-07-15T10:52:13Z</time>
      </trkpt>
      <trkpt lat="37.932278" lon="-2.961652">
        <ele>1177.6</ele>
        <time>2010-07-15T10:52:13Z</time>
      </trkpt>
      <trkpt lat="37.932290" lon="-2.961819">
        <ele>1171.3</ele>
        <time>2010-07-15T10:52:13Z</time>
      </trkpt>
      <trkpt lat="37.932365" lon="-2.962087">
        <ele>1161.1</ele>
        <time>2010-07-15T10:52:13Z</time>
      </trkpt>
      <trkpt lat="37.932441" lon="-2.962280">
        <ele>1154.1</ele>
        <time>2010-07-15T10:52:13Z</time>
      </trkpt>
      <trkpt lat="37.932458" lon="-2.962452">
        <ele>1147.0</ele>
        <time>2010-07-15T10:52:13Z</time>
      </trkpt>
      <trkpt lat="37.932432" lon="-2.962616">
        <ele>1140.1</ele>
        <time>2010-07-15T10:52:13Z</time>
      </trkpt>
      <trkpt lat="37.932364" lon="-2.962803">
        <ele>1131.5</ele>
        <time>2010-07-15T10:52:13Z</time>
      </trkpt>
      <trkpt lat="37.932228" lon="-2.962790">
        <ele>1130.7</ele>
        <time>2010-07-15T10:52:13Z</time>
      </trkpt>
      <trkpt lat="37.932129" lon="-2.962824">
        <ele>1128.0</ele>
        <time>2010-07-15T10:52:13Z</time>
      </trkpt>
      <trkpt lat="37.931916" lon="-2.962774">
        <ele>1126.6</ele>
        <time>2010-07-15T10:52:13Z</time>
      </trkpt>
      <trkpt lat="37.931676" lon="-2.962691">
        <ele>1125.1</ele>
        <time>2010-07-15T10:52:13Z</time>
      </trkpt>
      <trkpt lat="37.931429" lon="-2.962592">
        <ele>1123.9</ele>
        <time>2010-07-15T10:52:13Z</time>
      </trkpt>
      <trkpt lat="37.931314" lon="-2.962533">
        <ele>1123.8</ele>
        <time>2010-07-15T10:52:13Z</time>
      </trkpt>
      <trkpt lat="37.931228" lon="-2.962514">
        <ele>1122.6</ele>
        <time>2010-07-15T10:52:13Z</time>
      </trkpt>
      <trkpt lat="37.931170" lon="-2.962494">
        <ele>1121.8</ele>
        <time>2010-07-15T10:52:13Z</time>
      </trkpt>
      <trkpt lat="37.931052" lon="-2.962357">
        <ele>1123.6</ele>
        <time>2010-07-15T10:52:13Z</time>
      </trkpt>
      <trkpt lat="37.930958" lon="-2.962175">
        <ele>1127.4</ele>
        <time>2010-07-15T10:52:13Z</time>
      </trkpt>
      <trkpt lat="37.930823" lon="-2.961868">
        <ele>1133.0</ele>
        <time>2010-07-15T10:52:13Z</time>
      </trkpt>
      <trkpt lat="37.930453" lon="-2.961384">
        <ele>1138.0</ele>
        <time>2010-07-15T10:52:13Z</time>
      </trkpt>
      <trkpt lat="37.930393" lon="-2.961293">
        <ele>1139.8</ele>
        <time>2010-07-15T10:52:13Z</time>
      </trkpt>
      <trkpt lat="37.930312" lon="-2.961235">
        <ele>1140.7</ele>
        <time>2010-07-15T10:52:13Z</time>
      </trkpt>
      <trkpt lat="37.930211" lon="-2.961224">
        <ele>1139.6</ele>
        <time>2010-07-15T10:52:13Z</time>
      </trkpt>
      <trkpt lat="37.930017" lon="-2.961349">
        <ele>1131.6</ele>
        <time>2010-07-15T10:52:13Z</time>
      </trkpt>
      <trkpt lat="37.929764" lon="-2.961553">
        <ele>1118.1</ele>
        <time>2010-07-15T10:52:13Z</time>
      </trkpt>
      <trkpt lat="37.929677" lon="-2.961570">
        <ele>1115.7</ele>
        <time>2010-07-15T10:52:13Z</time>
      </trkpt>
      <trkpt lat="37.929582" lon="-2.961522">
        <ele>1116.5</ele>
        <time>2010-07-15T10:52:13Z</time>
      </trkpt>
      <trkpt lat="37.929381" lon="-2.961500">
        <ele>1117.4</ele>
        <time>2010-07-15T10:52:13Z</time>
      </trkpt>
      <trkpt lat="37.929169" lon="-2.961376">
        <ele>1123.9</ele>
        <time>2010-07-15T10:52:13Z</time>
      </trkpt>
      <trkpt lat="37.929016" lon="-2.961279">
        <ele>1127.4</ele>
        <time>2010-07-15T10:52:13Z</time>
      </trkpt>
      <trkpt lat="37.928929" lon="-2.961196">
        <ele>1130.1</ele>
        <time>2010-07-15T10:52:13Z</time>
      </trkpt>
      <trkpt lat="37.928853" lon="-2.961051">
        <ele>1134.6</ele>
        <time>2010-07-15T10:52:13Z</time>
      </trkpt>
      <trkpt lat="37.928798" lon="-2.960982">
        <ele>1136.6</ele>
        <time>2010-07-15T10:52:13Z</time>
      </trkpt>
      <trkpt lat="37.928739" lon="-2.960935">
        <ele>1138.0</ele>
        <time>2010-07-15T10:52:13Z</time>
      </trkpt>
      <trkpt lat="37.928667" lon="-2.961096">
        <ele>1132.7</ele>
        <time>2010-07-15T10:52:13Z</time>
      </trkpt>
      <trkpt lat="37.928599" lon="-2.961233">
        <ele>1127.7</ele>
        <time>2010-07-15T10:52:13Z</time>
      </trkpt>
      <trkpt lat="37.928390" lon="-2.961369">
        <ele>1120.3</ele>
        <time>2010-07-15T10:52:13Z</time>
      </trkpt>
      <trkpt lat="37.928315" lon="-2.961614">
        <ele>1109.9</ele>
        <time>2010-07-15T10:52:13Z</time>
      </trkpt>
      <trkpt lat="37.928294" lon="-2.961810">
        <ele>1102.0</ele>
        <time>2010-07-15T10:52:13Z</time>
      </trkpt>
      <trkpt lat="37.928139" lon="-2.961915">
        <ele>1095.5</ele>
        <time>2010-07-15T10:52:13Z</time>
      </trkpt>
      <trkpt lat="37.928051" lon="-2.961954">
        <ele>1092.6</ele>
        <time>2010-07-15T10:52:13Z</time>
      </trkpt>
      <trkpt lat="37.927953" lon="-2.961904">
        <ele>1093.0</ele>
        <time>2010-07-15T10:52:13Z</time>
      </trkpt>
      <trkpt lat="37.927802" lon="-2.961744">
        <ele>1096.8</ele>
        <time>2010-07-15T10:52:13Z</time>
      </trkpt>
      <trkpt lat="37.927577" lon="-2.961519">
        <ele>1102.1</ele>
        <time>2010-07-15T10:52:13Z</time>
      </trkpt>
      <trkpt lat="37.927290" lon="-2.961443">
        <ele>1100.6</ele>
        <time>2010-07-15T10:52:13Z</time>
      </trkpt>
      <trkpt lat="37.927187" lon="-2.961431">
        <ele>1099.5</ele>
        <time>2010-07-15T10:52:13Z</time>
      </trkpt>
      <trkpt lat="37.927151" lon="-2.961422">
        <ele>1099.3</ele>
        <time>2010-07-15T10:52:13Z</time>
      </trkpt>
      <trkpt lat="37.926944" lon="-2.961407">
        <ele>1095.3</ele>
        <time>2010-07-15T10:52:13Z</time>
      </trkpt>
      <trkpt lat="37.926851" lon="-2.961427">
        <ele>1091.5</ele>
        <time>2010-07-15T10:52:13Z</time>
      </trkpt>
      <trkpt lat="37.926763" lon="-2.961470">
        <ele>1086.9</ele>
        <time>2010-07-15T10:52:13Z</time>
      </trkpt>
      <trkpt lat="37.926675" lon="-2.961714">
        <ele>1073.8</ele>
        <time>2010-07-15T10:52:13Z</time>
      </trkpt>
      <trkpt lat="37.926577" lon="-2.961817">
        <ele>1066.5</ele>
        <time>2010-07-15T10:52:13Z</time>
      </trkpt>
      <trkpt lat="37.926467" lon="-2.961651">
        <ele>1070.3</ele>
        <time>2010-07-15T10:52:13Z</time>
      </trkpt>
      <trkpt lat="37.926256" lon="-2.961127">
        <ele>1084.9</ele>
        <time>2010-07-15T10:52:13Z</time>
      </trkpt>
      <trkpt lat="37.926159" lon="-2.960906">
        <ele>1091.8</ele>
        <time>2010-07-15T10:52:13Z</time>
      </trkpt>
      <trkpt lat="37.926110" lon="-2.960726">
        <ele>1098.6</ele>
        <time>2010-07-15T10:52:13Z</time>
      </trkpt>
      <trkpt lat="37.925968" lon="-2.960598">
        <ele>1102.8</ele>
        <time>2010-07-15T10:52:13Z</time>
      </trkpt>
      <trkpt lat="37.925817" lon="-2.960584">
        <ele>1102.4</ele>
        <time>2010-07-15T10:52:13Z</time>
      </trkpt>
      <trkpt lat="37.925565" lon="-2.960739">
        <ele>1094.0</ele>
        <time>2010-07-15T10:52:13Z</time>
      </trkpt>
      <trkpt lat="37.925494" lon="-2.960831">
        <ele>1089.4</ele>
        <time>2010-07-15T10:52:13Z</time>
      </trkpt>
      <trkpt lat="37.925415" lon="-2.960939">
        <ele>1083.8</ele>
        <time>2010-07-15T10:52:13Z</time>
      </trkpt>
      <trkpt lat="37.925337" lon="-2.961014">
        <ele>1080.7</ele>
        <time>2010-07-15T10:52:13Z</time>
      </trkpt>
      <trkpt lat="37.925230" lon="-2.961038">
        <ele>1081.9</ele>
        <time>2010-07-15T10:52:13Z</time>
      </trkpt>
      <trkpt lat="37.925105" lon="-2.961048">
        <ele>1084.3</ele>
        <time>2010-07-15T10:52:13Z</time>
      </trkpt>
      <trkpt lat="37.925021" lon="-2.961009">
        <ele>1087.5</ele>
        <time>2010-07-15T10:52:13Z</time>
      </trkpt>
      <trkpt lat="37.924875" lon="-2.960993">
        <ele>1091.1</ele>
        <time>2010-07-15T10:52:13Z</time>
      </trkpt>
      <trkpt lat="37.924695" lon="-2.960882">
        <ele>1097.7</ele>
        <time>2010-07-15T10:52:13Z</time>
      </trkpt>
      <trkpt lat="37.924554" lon="-2.960813">
        <ele>1101.7</ele>
        <time>2010-07-15T10:52:13Z</time>
      </trkpt>
      <trkpt lat="37.924390" lon="-2.960723">
        <ele>1111.6</ele>
        <time>2010-07-15T10:52:13Z</time>
      </trkpt>
      <trkpt lat="37.924194" lon="-2.960636">
        <ele>1123.4</ele>
        <time>2010-07-15T10:52:13Z</time>
      </trkpt>
      <trkpt lat="37.924033" lon="-2.960649">
        <ele>1131.6</ele>
        <time>2010-07-15T10:52:13Z</time>
      </trkpt>
      <trkpt lat="37.923863" lon="-2.960716">
        <ele>1139.6</ele>
        <time>2010-07-15T10:52:13Z</time>
      </trkpt>
      <trkpt lat="37.923764" lon="-2.960853">
        <ele>1143.2</ele>
        <time>2010-07-15T10:52:13Z</time>
      </trkpt>
      <trkpt lat="37.923764" lon="-2.960977">
        <ele>1141.7</ele>
        <time>2010-07-15T10:52:13Z</time>
      </trkpt>
      <trkpt lat="37.923754" lon="-2.961121">
        <ele>1140.6</ele>
        <time>2010-07-15T10:52:13Z</time>
      </trkpt>
      <trkpt lat="37.923873" lon="-2.961395">
        <ele>1130.1</ele>
        <time>2010-07-15T10:52:13Z</time>
      </trkpt>
      <trkpt lat="37.923951" lon="-2.961852">
        <ele>1117.9</ele>
        <time>2010-07-15T10:52:13Z</time>
      </trkpt>
      <trkpt lat="37.923952" lon="-2.962051">
        <ele>1114.6</ele>
        <time>2010-07-15T10:52:13Z</time>
      </trkpt>
      <trkpt lat="37.923910" lon="-2.962172">
        <ele>1115.0</ele>
        <time>2010-07-15T10:52:13Z</time>
      </trkpt>
      <trkpt lat="37.923846" lon="-2.962365">
        <ele>1116.4</ele>
        <time>2010-07-15T10:52:13Z</time>
      </trkpt>
      <trkpt lat="37.923672" lon="-2.962387">
        <ele>1126.2</ele>
        <time>2010-07-15T10:52:13Z</time>
      </trkpt>
      <trkpt lat="37.923310" lon="-2.962518">
        <ele>1149.2</ele>
        <time>2010-07-15T10:52:13Z</time>
      </trkpt>
      <trkpt lat="37.923155" lon="-2.962838">
        <ele>1158.2</ele>
        <time>2010-07-15T10:52:13Z</time>
      </trkpt>
      <trkpt lat="37.923145" lon="-2.963177">
        <ele>1157.1</ele>
        <time>2010-07-15T10:52:13Z</time>
      </trkpt>
      <trkpt lat="37.923155" lon="-2.963393">
        <ele>1154.8</ele>
        <time>2010-07-15T10:52:13Z</time>
      </trkpt>
      <trkpt lat="37.923222" lon="-2.963602">
        <ele>1149.3</ele>
        <time>2010-07-15T10:52:13Z</time>
      </trkpt>
      <trkpt lat="37.923305" lon="-2.963765">
        <ele>1143.9</ele>
        <time>2010-07-15T10:52:13Z</time>
      </trkpt>
      <trkpt lat="37.923290" lon="-2.964117">
        <ele>1136.8</ele>
        <time>2010-07-15T10:52:13Z</time>
      </trkpt>
      <trkpt lat="37.923294" lon="-2.964478">
        <ele>1125.8</ele>
        <time>2010-07-15T10:52:13Z</time>
      </trkpt>
      <trkpt lat="37.923270" lon="-2.964589">
        <ele>1123.2</ele>
        <time>2010-07-15T10:52:13Z</time>
      </trkpt>
      <trkpt lat="37.923182" lon="-2.964711">
        <ele>1121.4</ele>
        <time>2010-07-15T10:52:13Z</time>
      </trkpt>
      <trkpt lat="37.922852" lon="-2.965027">
        <ele>1112.2</ele>
        <time>2010-07-15T10:52:13Z</time>
      </trkpt>
      <trkpt lat="37.922515" lon="-2.965022">
        <ele>1118.7</ele>
        <time>2010-07-15T10:52:13Z</time>
      </trkpt>
      <trkpt lat="37.922414" lon="-2.965038">
        <ele>1119.8</ele>
        <time>2010-07-15T10:52:13Z</time>
      </trkpt>
      <trkpt lat="37.922328" lon="-2.965122">
        <ele>1117.7</ele>
        <time>2010-07-15T10:52:13Z</time>
      </trkpt>
      <trkpt lat="37.922238" lon="-2.965220">
        <ele>1115.4</ele>
        <time>2010-07-15T10:52:13Z</time>
      </trkpt>
      <trkpt lat="37.922117" lon="-2.965238">
        <ele>1117.4</ele>
        <time>2010-07-15T10:52:13Z</time>
      </trkpt>
      <trkpt lat="37.921928" lon="-2.965173">
        <ele>1123.3</ele>
        <time>2010-07-15T10:52:13Z</time>
      </trkpt>
      <trkpt lat="37.921837" lon="-2.965168">
        <ele>1124.8</ele>
        <time>2010-07-15T10:52:13Z</time>
      </trkpt>
      <trkpt lat="37.921819" lon="-2.965203">
        <ele>1123.8</ele>
        <time>2010-07-15T10:52:13Z</time>
      </trkpt>
      <trkpt lat="37.921805" lon="-2.965179">
        <ele>1124.8</ele>
        <time>2010-07-15T10:52:13Z</time>
      </trkpt>
      <trkpt lat="37.921699" lon="-2.965191">
        <ele>1125.9</ele>
        <time>2010-07-15T10:52:13Z</time>
      </trkpt>
      <trkpt lat="37.921515" lon="-2.965152">
        <ele>1129.9</ele>
        <time>2010-07-15T10:52:13Z</time>
      </trkpt>
      <trkpt lat="37.921267" lon="-2.965090">
        <ele>1135.5</ele>
        <time>2010-07-15T10:52:13Z</time>
      </trkpt>
      <trkpt lat="37.921062" lon="-2.965122">
        <ele>1136.0</ele>
        <time>2010-07-15T10:52:13Z</time>
      </trkpt>
      <trkpt lat="37.920715" lon="-2.965339">
        <ele>1131.3</ele>
        <time>2010-07-15T10:52:13Z</time>
      </trkpt>
      <trkpt lat="37.920224" lon="-2.965359">
        <ele>1136.5</ele>
        <time>2010-07-15T10:52:13Z</time>
      </trkpt>
      <trkpt lat="37.919815" lon="-2.965176">
        <ele>1148.0</ele>
        <time>2010-07-15T10:52:13Z</time>
      </trkpt>
      <trkpt lat="37.919583" lon="-2.965255">
        <ele>1152.0</ele>
        <time>2010-07-15T10:52:13Z</time>
      </trkpt>
      <trkpt lat="37.919495" lon="-2.965520">
        <ele>1154.9</ele>
        <time>2010-07-15T10:52:13Z</time>
      </trkpt>
      <trkpt lat="37.919495" lon="-2.965666">
        <ele>1155.3</ele>
        <time>2010-07-15T10:52:13Z</time>
      </trkpt>
      <trkpt lat="37.919490" lon="-2.965827">
        <ele>1155.9</ele>
        <time>2010-07-15T10:52:13Z</time>
      </trkpt>
      <trkpt lat="37.919544" lon="-2.966171">
        <ele>1154.3</ele>
        <time>2010-07-15T10:52:13Z</time>
      </trkpt>
      <trkpt lat="37.919593" lon="-2.966584">
        <ele>1155.2</ele>
        <time>2010-07-15T10:52:13Z</time>
      </trkpt>
      <trkpt lat="37.919607" lon="-2.966755">
        <ele>1156.5</ele>
        <time>2010-07-15T10:52:13Z</time>
      </trkpt>
      <trkpt lat="37.919673" lon="-2.966884">
        <ele>1155.7</ele>
        <time>2010-07-15T10:52:13Z</time>
      </trkpt>
      <trkpt lat="37.919835" lon="-2.967164">
        <ele>1153.7</ele>
        <time>2010-07-15T10:52:13Z</time>
      </trkpt>
      <trkpt lat="37.919934" lon="-2.967426">
        <ele>1152.9</ele>
        <time>2010-07-15T10:52:13Z</time>
      </trkpt>
      <trkpt lat="37.919964" lon="-2.967555">
        <ele>1153.2</ele>
        <time>2010-07-15T10:52:13Z</time>
      </trkpt>
      <trkpt lat="37.919961" lon="-2.967583">
        <ele>1153.5</ele>
        <time>2010-07-15T10:52:13Z</time>
      </trkpt>
      <trkpt lat="37.920101" lon="-2.967927">
        <ele>1153.7</ele>
        <time>2010-07-15T10:52:13Z</time>
      </trkpt>
      <trkpt lat="37.920189" lon="-2.967979">
        <ele>1152.6</ele>
        <time>2010-07-15T10:52:13Z</time>
      </trkpt>
      <trkpt lat="37.920284" lon="-2.967966">
        <ele>1150.7</ele>
        <time>2010-07-15T10:52:13Z</time>
      </trkpt>
      <trkpt lat="37.920646" lon="-2.967799">
        <ele>1143.9</ele>
        <time>2010-07-15T10:52:13Z</time>
      </trkpt>
      <trkpt lat="37.920832" lon="-2.967747">
        <ele>1141.1</ele>
        <time>2010-07-15T10:52:13Z</time>
      </trkpt>
      <trkpt lat="37.921035" lon="-2.967752">
        <ele>1139.0</ele>
        <time>2010-07-15T10:52:13Z</time>
      </trkpt>
      <trkpt lat="37.921126" lon="-2.967792">
        <ele>1138.9</ele>
        <time>2010-07-15T10:52:13Z</time>
      </trkpt>
      <trkpt lat="37.921253" lon="-2.967979">
        <ele>1140.1</ele>
        <time>2010-07-15T10:52:13Z</time>
      </trkpt>
      <trkpt lat="37.921333" lon="-2.968322">
        <ele>1144.8</ele>
        <time>2010-07-15T10:52:13Z</time>
      </trkpt>
      <trkpt lat="37.921376" lon="-2.968422">
        <ele>1145.3</ele>
        <time>2010-07-15T10:52:13Z</time>
      </trkpt>
      <trkpt lat="37.921649" lon="-2.968894">
        <ele>1144.0</ele>
        <time>2010-07-15T10:52:13Z</time>
      </trkpt>
      <trkpt lat="37.921784" lon="-2.969143">
        <ele>1144.2</ele>
        <time>2010-07-15T10:52:13Z</time>
      </trkpt>
      <trkpt lat="37.921840" lon="-2.969522">
        <ele>1150.7</ele>
        <time>2010-07-15T10:52:13Z</time>
      </trkpt>
      <trkpt lat="37.921899" lon="-2.969628">
        <ele>1150.1</ele>
        <time>2010-07-15T10:52:13Z</time>
      </trkpt>
      <trkpt lat="37.921947" lon="-2.969732">
        <ele>1150.1</ele>
        <time>2010-07-15T10:52:13Z</time>
      </trkpt>
      <trkpt lat="37.922001" lon="-2.969830">
        <ele>1150.5</ele>
        <time>2010-07-15T10:52:13Z</time>
      </trkpt>
      <trkpt lat="37.922075" lon="-2.969882">
        <ele>1149.6</ele>
        <time>2010-07-15T10:52:13Z</time>
      </trkpt>
      <trkpt lat="37.922124" lon="-2.969790">
        <ele>1145.8</ele>
        <time>2010-07-15T10:52:13Z</time>
      </trkpt>
      <trkpt lat="37.922153" lon="-2.969680">
        <ele>1141.9</ele>
        <time>2010-07-15T10:52:13Z</time>
      </trkpt>
      <trkpt lat="37.922209" lon="-2.969588">
        <ele>1138.8</ele>
        <time>2010-07-15T10:52:13Z</time>
      </trkpt>
      <trkpt lat="37.922287" lon="-2.969526">
        <ele>1135.9</ele>
        <time>2010-07-15T10:52:13Z</time>
      </trkpt>
      <trkpt lat="37.922476" lon="-2.969454">
        <ele>1130.5</ele>
        <time>2010-07-15T10:52:13Z</time>
      </trkpt>
      <trkpt lat="37.922575" lon="-2.969439">
        <ele>1128.2</ele>
        <time>2010-07-15T10:52:13Z</time>
      </trkpt>
      <trkpt lat="37.922661" lon="-2.969431">
        <ele>1126.4</ele>
        <time>2010-07-15T10:52:13Z</time>
      </trkpt>
      <trkpt lat="37.922932" lon="-2.969397">
        <ele>1121.3</ele>
        <time>2010-07-15T10:52:13Z</time>
      </trkpt>
      <trkpt lat="37.923214" lon="-2.969400">
        <ele>1121.8</ele>
        <time>2010-07-15T10:52:13Z</time>
      </trkpt>
      <trkpt lat="37.923309" lon="-2.969405">
        <ele>1122.2</ele>
        <time>2010-07-15T10:52:13Z</time>
      </trkpt>
      <trkpt lat="37.923441" lon="-2.969438">
        <ele>1123.5</ele>
        <time>2010-07-15T10:52:13Z</time>
      </trkpt>
      <trkpt lat="37.923539" lon="-2.969535">
        <ele>1127.1</ele>
        <time>2010-07-15T10:52:13Z</time>
      </trkpt>
      <trkpt lat="37.923545" lon="-2.969666">
        <ele>1131.7</ele>
        <time>2010-07-15T10:52:13Z</time>
      </trkpt>
      <trkpt lat="37.923508" lon="-2.969810">
        <ele>1135.1</ele>
        <time>2010-07-15T10:52:13Z</time>
      </trkpt>
      <trkpt lat="37.923508" lon="-2.969966">
        <ele>1138.4</ele>
        <time>2010-07-15T10:52:13Z</time>
      </trkpt>
      <trkpt lat="37.923550" lon="-2.970128">
        <ele>1141.7</ele>
        <time>2010-07-15T10:52:13Z</time>
      </trkpt>
      <trkpt lat="37.923757" lon="-2.970514">
        <ele>1145.1</ele>
        <time>2010-07-15T10:52:13Z</time>
      </trkpt>
      <trkpt lat="37.923980" lon="-2.970882">
        <ele>1126.1</ele>
        <time>2010-07-15T10:52:13Z</time>
      </trkpt>
      <trkpt lat="37.924288" lon="-2.971097">
        <ele>1104.9</ele>
        <time>2010-07-15T10:52:13Z</time>
      </trkpt>
      <trkpt lat="37.924330" lon="-2.971243">
        <ele>1100.9</ele>
        <time>2010-07-15T10:52:13Z</time>
      </trkpt>
      <trkpt lat="37.924177" lon="-2.971558">
        <ele>1102.2</ele>
        <time>2010-07-15T10:52:13Z</time>
      </trkpt>
      <trkpt lat="37.923876" lon="-2.971868">
        <ele>1109.4</ele>
        <time>2010-07-15T10:52:13Z</time>
      </trkpt>
      <trkpt lat="37.923779" lon="-2.971911">
        <ele>1113.6</ele>
        <time>2010-07-15T10:52:13Z</time>
      </trkpt>
      <trkpt lat="37.923669" lon="-2.972107">
        <ele>1113.7</ele>
        <time>2010-07-15T10:52:13Z</time>
      </trkpt>
      <trkpt lat="37.923571" lon="-2.972270">
        <ele>1116.1</ele>
        <time>2010-07-15T10:52:13Z</time>
      </trkpt>
      <trkpt lat="37.923471" lon="-2.972508">
        <ele>1120.2</ele>
        <time>2010-07-15T10:52:13Z</time>
      </trkpt>
      <trkpt lat="37.923477" lon="-2.972840">
        <ele>1117.5</ele>
        <time>2010-07-15T10:52:13Z</time>
      </trkpt>
      <trkpt lat="37.923461" lon="-2.973104">
        <ele>1117.2</ele>
        <time>2010-07-15T10:52:13Z</time>
      </trkpt>
      <trkpt lat="37.923520" lon="-2.973325">
        <ele>1114.2</ele>
        <time>2010-07-15T10:52:13Z</time>
      </trkpt>
      <trkpt lat="37.923539" lon="-2.973462">
        <ele>1113.3</ele>
        <time>2010-07-15T10:52:13Z</time>
      </trkpt>
      <trkpt lat="37.923549" lon="-2.973593">
        <ele>1112.9</ele>
        <time>2010-07-15T10:52:13Z</time>
      </trkpt>
      <trkpt lat="37.923560" lon="-2.973841">
        <ele>1112.7</ele>
        <time>2010-07-15T10:52:13Z</time>
      </trkpt>
      <trkpt lat="37.923711" lon="-2.974075">
        <ele>1102.7</ele>
        <time>2010-07-15T10:52:13Z</time>
      </trkpt>
      <trkpt lat="37.923816" lon="-2.974172">
        <ele>1095.3</ele>
        <time>2010-07-15T10:52:13Z</time>
      </trkpt>
      <trkpt lat="37.923858" lon="-2.974266">
        <ele>1091.9</ele>
        <time>2010-07-15T10:52:13Z</time>
      </trkpt>
      <trkpt lat="37.923877" lon="-2.974357">
        <ele>1090.0</ele>
        <time>2010-07-15T10:52:13Z</time>
      </trkpt>
      <trkpt lat="37.923889" lon="-2.974427">
        <ele>1088.7</ele>
        <time>2010-07-15T10:52:13Z</time>
      </trkpt>
      <trkpt lat="37.923872" lon="-2.974496">
        <ele>1089.1</ele>
        <time>2010-07-15T10:52:13Z</time>
      </trkpt>
      <trkpt lat="37.923888" lon="-2.974621">
        <ele>1087.1</ele>
        <time>2010-07-15T10:52:13Z</time>
      </trkpt>
      <trkpt lat="37.923987" lon="-2.974910">
        <ele>1072.1</ele>
        <time>2010-07-15T10:52:13Z</time>
      </trkpt>
      <trkpt lat="37.923982" lon="-2.975156">
        <ele>1062.9</ele>
        <time>2010-07-15T10:52:13Z</time>
      </trkpt>
      <trkpt lat="37.923854" lon="-2.975269">
        <ele>1065.6</ele>
        <time>2010-07-15T10:52:13Z</time>
      </trkpt>
      <trkpt lat="37.923860" lon="-2.975546">
        <ele>1054.3</ele>
        <time>2010-07-15T10:52:13Z</time>
      </trkpt>
      <trkpt lat="37.923779" lon="-2.975614">
        <ele>1056.4</ele>
        <time>2010-07-15T10:52:13Z</time>
      </trkpt>
      <trkpt lat="37.923495" lon="-2.975717">
        <ele>1070.6</ele>
        <time>2010-07-15T10:52:13Z</time>
      </trkpt>
      <trkpt lat="37.923389" lon="-2.975802">
        <ele>1075.0</ele>
        <time>2010-07-15T10:52:13Z</time>
      </trkpt>
      <trkpt lat="37.923214" lon="-2.975912">
        <ele>1083.5</ele>
        <time>2010-07-15T10:52:13Z</time>
      </trkpt>
      <trkpt lat="37.922965" lon="-2.976118">
        <ele>1095.1</ele>
        <time>2010-07-15T10:52:13Z</time>
      </trkpt>
      <trkpt lat="37.922925" lon="-2.976339">
        <ele>1092.8</ele>
        <time>2010-07-15T10:52:13Z</time>
      </trkpt>
      <trkpt lat="37.922902" lon="-2.976373">
        <ele>1093.6</ele>
        <time>2010-07-15T10:52:13Z</time>
      </trkpt>
      <trkpt lat="37.922842" lon="-2.976519">
        <ele>1097.3</ele>
        <time>2010-07-15T10:52:13Z</time>
      </trkpt>
      <trkpt lat="37.922796" lon="-2.976725">
        <ele>1099.6</ele>
        <time>2010-07-15T10:52:13Z</time>
      </trkpt>
      <trkpt lat="37.922776" lon="-2.976867">
        <ele>1099.9</ele>
        <time>2010-07-15T10:52:13Z</time>
      </trkpt>
      <trkpt lat="37.922783" lon="-2.976998">
        <ele>1098.2</ele>
        <time>2010-07-15T10:52:13Z</time>
      </trkpt>
      <trkpt lat="37.922825" lon="-2.977137">
        <ele>1093.9</ele>
        <time>2010-07-15T10:52:13Z</time>
      </trkpt>
      <trkpt lat="37.922904" lon="-2.977232">
        <ele>1087.0</ele>
        <time>2010-07-15T10:52:13Z</time>
      </trkpt>
      <trkpt lat="37.923026" lon="-2.977438">
        <ele>1075.1</ele>
        <time>2010-07-15T10:52:13Z</time>
      </trkpt>
      <trkpt lat="37.923017" lon="-2.977672">
        <ele>1071.1</ele>
        <time>2010-07-15T10:52:13Z</time>
      </trkpt>
      <trkpt lat="37.922956" lon="-2.977817">
        <ele>1072.0</ele>
        <time>2010-07-15T10:52:13Z</time>
      </trkpt>
      <trkpt lat="37.922984" lon="-2.978265">
        <ele>1058.4</ele>
        <time>2010-07-15T10:52:13Z</time>
      </trkpt>
      <trkpt lat="37.922925" lon="-2.978464">
        <ele>1055.3</ele>
        <time>2010-07-15T10:52:13Z</time>
      </trkpt>
      <trkpt lat="37.922828" lon="-2.978656">
        <ele>1054.4</ele>
        <time>2010-07-15T10:52:13Z</time>
      </trkpt>
      <trkpt lat="37.922757" lon="-2.978861">
        <ele>1051.1</ele>
        <time>2010-07-15T10:52:13Z</time>
      </trkpt>
      <trkpt lat="37.922637" lon="-2.979056">
        <ele>1052.0</ele>
        <time>2010-07-15T10:52:13Z</time>
      </trkpt>
      <trkpt lat="37.922564" lon="-2.979128">
        <ele>1053.6</ele>
        <time>2010-07-15T10:52:13Z</time>
      </trkpt>
      <trkpt lat="37.922405" lon="-2.979250">
        <ele>1057.8</ele>
        <time>2010-07-15T10:52:13Z</time>
      </trkpt>
      <trkpt lat="37.922289" lon="-2.979419">
        <ele>1058.0</ele>
        <time>2010-07-15T10:52:13Z</time>
      </trkpt>
      <trkpt lat="37.922239" lon="-2.979531">
        <ele>1056.7</ele>
        <time>2010-07-15T10:52:13Z</time>
      </trkpt>
      <trkpt lat="37.922221" lon="-2.979771">
        <ele>1048.7</ele>
        <time>2010-07-15T10:52:13Z</time>
      </trkpt>
      <trkpt lat="37.922277" lon="-2.980113">
        <ele>1030.5</ele>
        <time>2010-07-15T10:52:13Z</time>
      </trkpt>
      <trkpt lat="37.922334" lon="-2.980360">
        <ele>1017.2</ele>
        <time>2010-07-15T10:52:13Z</time>
      </trkpt>
      <trkpt lat="37.922319" lon="-2.980484">
        <ele>1012.0</ele>
        <time>2010-07-15T10:52:13Z</time>
      </trkpt>
      <trkpt lat="37.922285" lon="-2.980588">
        <ele>1008.2</ele>
        <time>2010-07-15T10:52:13Z</time>
      </trkpt>
      <trkpt lat="37.922201" lon="-2.980698">
        <ele>1005.3</ele>
        <time>2010-07-15T10:52:13Z</time>
      </trkpt>
      <trkpt lat="37.922095" lon="-2.980756">
        <ele>1005.5</ele>
        <time>2010-07-15T10:52:13Z</time>
      </trkpt>
      <trkpt lat="37.921903" lon="-2.980758">
        <ele>1008.3</ele>
        <time>2010-07-15T10:52:13Z</time>
      </trkpt>
      <trkpt lat="37.921784" lon="-2.980766">
        <ele>1008.9</ele>
        <time>2010-07-15T10:52:13Z</time>
      </trkpt>
      <trkpt lat="37.921605" lon="-2.980776">
        <ele>1010.1</ele>
        <time>2010-07-15T10:52:13Z</time>
      </trkpt>
      <trkpt lat="37.921422" lon="-2.980768">
        <ele>1012.0</ele>
        <time>2010-07-15T10:52:13Z</time>
      </trkpt>
      <trkpt lat="37.921334" lon="-2.980763">
        <ele>1012.9</ele>
        <time>2010-07-15T10:52:13Z</time>
      </trkpt>
      <trkpt lat="37.921230" lon="-2.980778">
        <ele>1013.4</ele>
        <time>2010-07-15T10:52:13Z</time>
      </trkpt>
      <trkpt lat="37.921040" lon="-2.980832">
        <ele>1019.7</ele>
        <time>2010-07-15T10:52:13Z</time>
      </trkpt>
      <trkpt lat="37.920874" lon="-2.980947">
        <ele>1024.6</ele>
        <time>2010-07-15T10:52:13Z</time>
      </trkpt>
      <trkpt lat="37.920793" lon="-2.981003">
        <ele>1027.2</ele>
        <time>2010-07-15T10:52:13Z</time>
      </trkpt>
      <trkpt lat="37.920700" lon="-2.981176">
        <ele>1028.0</ele>
        <time>2010-07-15T10:52:13Z</time>
      </trkpt>
      <trkpt lat="37.920615" lon="-2.981206">
        <ele>1031.8</ele>
        <time>2010-07-15T10:52:13Z</time>
      </trkpt>
      <trkpt lat="37.920571" lon="-2.981263">
        <ele>1032.9</ele>
        <time>2010-07-15T10:52:13Z</time>
      </trkpt>
      <trkpt lat="37.920527" lon="-2.981339">
        <ele>1033.9</ele>
        <time>2010-07-15T10:52:13Z</time>
      </trkpt>
      <trkpt lat="37.920507" lon="-2.981448">
        <ele>1034.3</ele>
        <time>2010-07-15T10:52:13Z</time>
      </trkpt>
      <trkpt lat="37.920529" lon="-2.981684">
        <ele>1033.0</ele>
        <time>2010-07-15T10:52:13Z</time>
      </trkpt>
      <trkpt lat="37.920461" lon="-2.982023">
        <ele>1036.1</ele>
        <time>2010-07-15T10:52:13Z</time>
      </trkpt>
      <trkpt lat="37.920527" lon="-2.982643">
        <ele>1049.6</ele>
        <time>2010-07-15T10:52:13Z</time>
      </trkpt>
      <trkpt lat="37.920595" lon="-2.982859">
        <ele>1054.2</ele>
        <time>2010-07-15T10:52:13Z</time>
      </trkpt>
      <trkpt lat="37.920653" lon="-2.982962">
        <ele>1054.8</ele>
        <time>2010-07-15T10:52:13Z</time>
      </trkpt>
      <trkpt lat="37.920739" lon="-2.983177">
        <ele>1055.5</ele>
        <time>2010-07-15T10:52:13Z</time>
      </trkpt>
      <trkpt lat="37.920806" lon="-2.983277">
        <ele>1053.1</ele>
        <time>2010-07-15T10:52:13Z</time>
      </trkpt>
      <trkpt lat="37.920696" lon="-2.983236">
        <ele>1059.3</ele>
        <time>2010-07-15T10:52:13Z</time>
      </trkpt>
      <trkpt lat="37.920609" lon="-2.983175">
        <ele>1063.3</ele>
        <time>2010-07-15T10:52:13Z</time>
      </trkpt>
      <trkpt lat="37.920514" lon="-2.983140">
        <ele>1068.0</ele>
        <time>2010-07-15T10:52:13Z</time>
      </trkpt>
      <trkpt lat="37.920416" lon="-2.983155">
        <ele>1074.4</ele>
        <time>2010-07-15T10:52:13Z</time>
      </trkpt>
      <trkpt lat="37.920327" lon="-2.983106">
        <ele>1076.7</ele>
        <time>2010-07-15T10:52:13Z</time>
      </trkpt>
      <trkpt lat="37.920223" lon="-2.983089">
        <ele>1078.9</ele>
        <time>2010-07-15T10:52:13Z</time>
      </trkpt>
      <trkpt lat="37.920120" lon="-2.983084">
        <ele>1081.6</ele>
        <time>2010-07-15T10:52:13Z</time>
      </trkpt>
      <trkpt lat="37.919962" lon="-2.983065">
        <ele>1085.4</ele>
        <time>2010-07-15T10:52:13Z</time>
      </trkpt>
      <trkpt lat="37.920111" lon="-2.983311">
        <ele>1089.4</ele>
        <time>2010-07-15T10:52:13Z</time>
      </trkpt>
      <trkpt lat="37.920062" lon="-2.983305">
        <ele>1090.5</ele>
        <time>2010-07-15T10:52:13Z</time>
      </trkpt>
      <trkpt lat="37.919964" lon="-2.983287">
        <ele>1092.6</ele>
        <time>2010-07-15T10:52:13Z</time>
      </trkpt>
      <trkpt lat="37.919790" lon="-2.983258">
        <ele>1096.4</ele>
        <time>2010-07-15T10:52:13Z</time>
      </trkpt>
      <trkpt lat="37.919530" lon="-2.983125">
        <ele>1099.2</ele>
        <time>2010-07-15T10:52:13Z</time>
      </trkpt>
      <trkpt lat="37.919452" lon="-2.983075">
        <ele>1100.5</ele>
        <time>2010-07-15T10:52:13Z</time>
      </trkpt>
      <trkpt lat="37.919350" lon="-2.983017">
        <ele>1103.1</ele>
        <time>2010-07-15T10:52:13Z</time>
      </trkpt>
      <trkpt lat="37.919274" lon="-2.982929">
        <ele>1105.6</ele>
        <time>2010-07-15T10:52:13Z</time>
      </trkpt>
      <trkpt lat="37.919038" lon="-2.982789">
        <ele>1115.2</ele>
        <time>2010-07-15T10:52:13Z</time>
      </trkpt>
      <trkpt lat="37.919020" lon="-2.982923">
        <ele>1115.9</ele>
        <time>2010-07-15T10:52:13Z</time>
      </trkpt>
      <trkpt lat="37.919051" lon="-2.983133">
        <ele>1115.6</ele>
        <time>2010-07-15T10:52:13Z</time>
      </trkpt>
      <trkpt lat="37.919063" lon="-2.983351">
        <ele>1117.3</ele>
        <time>2010-07-15T10:52:13Z</time>
      </trkpt>
      <trkpt lat="37.919113" lon="-2.983654">
        <ele>1119.9</ele>
        <time>2010-07-15T10:52:13Z</time>
      </trkpt>
      <trkpt lat="37.919285" lon="-2.983849">
        <ele>1122.3</ele>
        <time>2010-07-15T10:52:13Z</time>
      </trkpt>
      <trkpt lat="37.919403" lon="-2.984055">
        <ele>1121.9</ele>
        <time>2010-07-15T10:52:13Z</time>
      </trkpt>
      <trkpt lat="37.919527" lon="-2.984186">
        <ele>1123.6</ele>
        <time>2010-07-15T10:52:13Z</time>
      </trkpt>
      <trkpt lat="37.919167" lon="-2.984157">
        <ele>1117.4</ele>
        <time>2010-07-15T10:52:13Z</time>
      </trkpt>
      <trkpt lat="37.918773" lon="-2.984135">
        <ele>1111.5</ele>
        <time>2010-07-15T10:52:13Z</time>
      </trkpt>
      <trkpt lat="37.918605" lon="-2.984094">
        <ele>1114.2</ele>
        <time>2010-07-15T10:52:13Z</time>
      </trkpt>
      <trkpt lat="37.918551" lon="-2.983999">
        <ele>1119.3</ele>
        <time>2010-07-15T10:52:13Z</time>
      </trkpt>
      <trkpt lat="37.918304" lon="-2.983814">
        <ele>1129.9</ele>
        <time>2010-07-15T10:52:13Z</time>
      </trkpt>
      <trkpt lat="37.918158" lon="-2.983710">
        <ele>1134.2</ele>
        <time>2010-07-15T10:52:13Z</time>
      </trkpt>
      <trkpt lat="37.918083" lon="-2.983624">
        <ele>1137.1</ele>
        <time>2010-07-15T10:52:13Z</time>
      </trkpt>
      <trkpt lat="37.917992" lon="-2.983527">
        <ele>1140.7</ele>
        <time>2010-07-15T10:52:13Z</time>
      </trkpt>
      <trkpt lat="37.917895" lon="-2.983499">
        <ele>1143.4</ele>
        <time>2010-07-15T10:52:13Z</time>
      </trkpt>
      <trkpt lat="37.917719" lon="-2.983350">
        <ele>1151.6</ele>
        <time>2010-07-15T10:52:13Z</time>
      </trkpt>
      <trkpt lat="37.917526" lon="-2.982940">
        <ele>1163.0</ele>
        <time>2010-07-15T10:52:13Z</time>
      </trkpt>
      <trkpt lat="37.917336" lon="-2.982534">
        <ele>1171.5</ele>
        <time>2010-07-15T10:52:13Z</time>
      </trkpt>
      <trkpt lat="37.916295" lon="-2.981553">
        <ele>1201.2</ele>
        <time>2010-07-15T10:52:13Z</time>
      </trkpt>
      <trkpt lat="37.916086" lon="-2.981377">
        <ele>1205.7</ele>
        <time>2010-07-15T10:52:13Z</time>
      </trkpt>
      <trkpt lat="37.915670" lon="-2.981113">
        <ele>1216.8</ele>
        <time>2010-07-15T10:52:13Z</time>
      </trkpt>
      <trkpt lat="37.915584" lon="-2.981273">
        <ele>1217.6</ele>
        <time>2010-07-15T10:52:13Z</time>
      </trkpt>
      <trkpt lat="37.915523" lon="-2.981360">
        <ele>1218.5</ele>
        <time>2010-07-15T10:52:13Z</time>
      </trkpt>
      <trkpt lat="37.915227" lon="-2.981624">
        <ele>1226.4</ele>
        <time>2010-07-15T10:52:13Z</time>
      </trkpt>
      <trkpt lat="37.915127" lon="-2.981768">
        <ele>1229.3</ele>
        <time>2010-07-15T10:52:13Z</time>
      </trkpt>
      <trkpt lat="37.915095" lon="-2.981802">
        <ele>1230.1</ele>
        <time>2010-07-15T10:52:13Z</time>
      </trkpt>
      <trkpt lat="37.915068" lon="-2.981920">
        <ele>1231.4</ele>
        <time>2010-07-15T10:52:13Z</time>
      </trkpt>
      <trkpt lat="37.915127" lon="-2.982578">
        <ele>1236.1</ele>
        <time>2010-07-15T10:52:13Z</time>
      </trkpt>
      <trkpt lat="37.915196" lon="-2.982952">
        <ele>1238.5</ele>
        <time>2010-07-15T10:52:13Z</time>
      </trkpt>
      <trkpt lat="37.915311" lon="-2.983172">
        <ele>1237.4</ele>
        <time>2010-07-15T10:52:13Z</time>
      </trkpt>
      <trkpt lat="37.915364" lon="-2.983324">
        <ele>1236.8</ele>
        <time>2010-07-15T10:52:13Z</time>
      </trkpt>
      <trkpt lat="37.915398" lon="-2.983658">
        <ele>1236.6</ele>
        <time>2010-07-15T10:52:13Z</time>
      </trkpt>
      <trkpt lat="37.915386" lon="-2.984101">
        <ele>1234.3</ele>
        <time>2010-07-15T10:52:13Z</time>
      </trkpt>
      <trkpt lat="37.915396" lon="-2.984382">
        <ele>1230.3</ele>
        <time>2010-07-15T10:52:13Z</time>
      </trkpt>
      <trkpt lat="37.915158" lon="-2.984998">
        <ele>1222.4</ele>
        <time>2010-07-15T10:52:13Z</time>
      </trkpt>
      <trkpt lat="37.915097" lon="-2.985089">
        <ele>1221.1</ele>
        <time>2010-07-15T10:52:13Z</time>
      </trkpt>
      <trkpt lat="37.915075" lon="-2.985170">
        <ele>1219.8</ele>
        <time>2010-07-15T10:52:13Z</time>
      </trkpt>
      <trkpt lat="37.915036" lon="-2.985261">
        <ele>1218.5</ele>
        <time>2010-07-15T10:52:13Z</time>
      </trkpt>
      <trkpt lat="37.915012" lon="-2.985324">
        <ele>1217.6</ele>
        <time>2010-07-15T10:52:13Z</time>
      </trkpt>
      <trkpt lat="37.915002" lon="-2.985373">
        <ele>1216.8</ele>
        <time>2010-07-15T10:52:13Z</time>
      </trkpt>
      <trkpt lat="37.914919" lon="-2.985448">
        <ele>1215.9</ele>
        <time>2010-07-15T10:52:13Z</time>
      </trkpt>
      <trkpt lat="37.914833" lon="-2.985502">
        <ele>1215.4</ele>
        <time>2010-07-15T10:52:13Z</time>
      </trkpt>
      <trkpt lat="37.914755" lon="-2.985522">
        <ele>1215.4</ele>
        <time>2010-07-15T10:52:13Z</time>
      </trkpt>
      <trkpt lat="37.914673" lon="-2.985559">
        <ele>1215.1</ele>
        <time>2010-07-15T10:52:13Z</time>
      </trkpt>
      <trkpt lat="37.914611" lon="-2.985612">
        <ele>1214.7</ele>
        <time>2010-07-15T10:52:13Z</time>
      </trkpt>
      <trkpt lat="37.914470" lon="-2.985547">
        <ele>1217.3</ele>
        <time>2010-07-15T10:52:13Z</time>
      </trkpt>
      <trkpt lat="37.914394" lon="-2.985583">
        <ele>1218.6</ele>
        <time>2010-07-15T10:52:13Z</time>
      </trkpt>
      <trkpt lat="37.914291" lon="-2.985527">
        <ele>1221.3</ele>
        <time>2010-07-15T10:52:13Z</time>
      </trkpt>
      <trkpt lat="37.914193" lon="-2.985495">
        <ele>1223.7</ele>
        <time>2010-07-15T10:52:13Z</time>
      </trkpt>
      <trkpt lat="37.914107" lon="-2.985527">
        <ele>1225.3</ele>
        <time>2010-07-15T10:52:13Z</time>
      </trkpt>
      <trkpt lat="37.913958" lon="-2.985346">
        <ele>1229.0</ele>
        <time>2010-07-15T10:52:13Z</time>
      </trkpt>
      <trkpt lat="37.913853" lon="-2.985290">
        <ele>1230.9</ele>
        <time>2010-07-15T10:52:13Z</time>
      </trkpt>
      <trkpt lat="37.913860" lon="-2.985424">
        <ele>1230.7</ele>
        <time>2010-07-15T10:52:13Z</time>
      </trkpt>
      <trkpt lat="37.913835" lon="-2.985518">
        <ele>1231.1</ele>
        <time>2010-07-15T10:52:13Z</time>
      </trkpt>
      <trkpt lat="37.913900" lon="-2.985637">
        <ele>1229.8</ele>
        <time>2010-07-15T10:52:13Z</time>
      </trkpt>
      <trkpt lat="37.913865" lon="-2.985906">
        <ele>1231.0</ele>
        <time>2010-07-15T10:52:13Z</time>
      </trkpt>
      <trkpt lat="37.913848" lon="-2.986048">
        <ele>1231.8</ele>
        <time>2010-07-15T10:52:13Z</time>
      </trkpt>
      <trkpt lat="37.913784" lon="-2.985967">
        <ele>1233.6</ele>
        <time>2010-07-15T10:52:13Z</time>
      </trkpt>
      <trkpt lat="37.913779" lon="-2.986058">
        <ele>1234.1</ele>
        <time>2010-07-15T10:52:13Z</time>
      </trkpt>
      <trkpt lat="37.913794" lon="-2.986185">
        <ele>1234.0</ele>
        <time>2010-07-15T10:52:13Z</time>
      </trkpt>
      <trkpt lat="37.913836" lon="-2.986243">
        <ele>1232.6</ele>
        <time>2010-07-15T10:52:13Z</time>
      </trkpt>
      <trkpt lat="37.913889" lon="-2.986366">
        <ele>1230.9</ele>
        <time>2010-07-15T10:52:13Z</time>
      </trkpt>
      <trkpt lat="37.913921" lon="-2.986458">
        <ele>1231.5</ele>
        <time>2010-07-15T10:52:13Z</time>
      </trkpt>
      <trkpt lat="37.913953" lon="-2.986569">
        <ele>1232.4</ele>
        <time>2010-07-15T10:52:13Z</time>
      </trkpt>
      <trkpt lat="37.914034" lon="-2.986724">
        <ele>1231.9</ele>
        <time>2010-07-15T10:52:13Z</time>
      </trkpt>
      <trkpt lat="37.914128" lon="-2.986767">
        <ele>1228.6</ele>
        <time>2010-07-15T10:52:13Z</time>
      </trkpt>
      <trkpt lat="37.914217" lon="-2.986805">
        <ele>1225.3</ele>
        <time>2010-07-15T10:52:13Z</time>
      </trkpt>
      <trkpt lat="37.914241" lon="-2.986926">
        <ele>1226.2</ele>
        <time>2010-07-15T10:52:13Z</time>
      </trkpt>
      <trkpt lat="37.914279" lon="-2.986965">
        <ele>1225.0</ele>
        <time>2010-07-15T10:52:13Z</time>
      </trkpt>
      <trkpt lat="37.914276" lon="-2.987090">
        <ele>1227.1</ele>
        <time>2010-07-15T10:52:13Z</time>
      </trkpt>
      <trkpt lat="37.914384" lon="-2.987229">
        <ele>1224.1</ele>
        <time>2010-07-15T10:52:13Z</time>
      </trkpt>
      <trkpt lat="37.914427" lon="-2.987368">
        <ele>1224.8</ele>
        <time>2010-07-15T10:52:13Z</time>
      </trkpt>
      <trkpt lat="37.914501" lon="-2.987451">
        <ele>1222.9</ele>
        <time>2010-07-15T10:52:13Z</time>
      </trkpt>
      <trkpt lat="37.914643" lon="-2.987476">
        <ele>1217.9</ele>
        <time>2010-07-15T10:52:13Z</time>
      </trkpt>
      <trkpt lat="37.914679" lon="-2.987562">
        <ele>1218.3</ele>
        <time>2010-07-15T10:52:13Z</time>
      </trkpt>
      <trkpt lat="37.914759" lon="-2.987618">
        <ele>1216.5</ele>
        <time>2010-07-15T10:52:13Z</time>
      </trkpt>
      <trkpt lat="37.914858" lon="-2.987601">
        <ele>1212.7</ele>
        <time>2010-07-15T10:52:13Z</time>
      </trkpt>
      <trkpt lat="37.914955" lon="-2.987553">
        <ele>1208.3</ele>
        <time>2010-07-15T10:52:13Z</time>
      </trkpt>
      <trkpt lat="37.915039" lon="-2.987427">
        <ele>1203.1</ele>
        <time>2010-07-15T10:52:13Z</time>
      </trkpt>
      <trkpt lat="37.915131" lon="-2.987344">
        <ele>1198.5</ele>
        <time>2010-07-15T10:52:13Z</time>
      </trkpt>
      <trkpt lat="37.915210" lon="-2.987241">
        <ele>1194.1</ele>
        <time>2010-07-15T10:52:13Z</time>
      </trkpt>
      <trkpt lat="37.915354" lon="-2.987269">
        <ele>1189.6</ele>
        <time>2010-07-15T10:52:13Z</time>
      </trkpt>
      <trkpt lat="37.915455" lon="-2.987178">
        <ele>1185.5</ele>
        <time>2010-07-15T10:52:13Z</time>
      </trkpt>
      <trkpt lat="37.915550" lon="-2.987138">
        <ele>1182.8</ele>
        <time>2010-07-15T10:52:13Z</time>
      </trkpt>
      <trkpt lat="37.915672" lon="-2.987185">
        <ele>1179.0</ele>
        <time>2010-07-15T10:52:13Z</time>
      </trkpt>
      <trkpt lat="37.915647" lon="-2.987393">
        <ele>1180.7</ele>
        <time>2010-07-15T10:52:13Z</time>
      </trkpt>
      <trkpt lat="37.915692" lon="-2.987761">
        <ele>1180.3</ele>
        <time>2010-07-15T10:52:13Z</time>
      </trkpt>
      <trkpt lat="37.915613" lon="-2.987867">
        <ele>1185.0</ele>
        <time>2010-07-15T10:52:13Z</time>
      </trkpt>
      <trkpt lat="37.915527" lon="-2.988072">
        <ele>1191.2</ele>
        <time>2010-07-15T10:52:13Z</time>
      </trkpt>
      <trkpt lat="37.915462" lon="-2.988160">
        <ele>1194.8</ele>
        <time>2010-07-15T10:52:13Z</time>
      </trkpt>
      <trkpt lat="37.915408" lon="-2.988212">
        <ele>1197.9</ele>
        <time>2010-07-15T10:52:13Z</time>
      </trkpt>
      <trkpt lat="37.915408" lon="-2.988344">
        <ele>1197.4</ele>
        <time>2010-07-15T10:52:13Z</time>
      </trkpt>
      <trkpt lat="37.915451" lon="-2.988405">
        <ele>1194.3</ele>
        <time>2010-07-15T10:52:13Z</time>
      </trkpt>
      <trkpt lat="37.915494" lon="-2.988303">
        <ele>1192.0</ele>
        <time>2010-07-15T10:52:13Z</time>
      </trkpt>
      <trkpt lat="37.915540" lon="-2.988367">
        <ele>1188.8</ele>
        <time>2010-07-15T10:52:13Z</time>
      </trkpt>
      <trkpt lat="37.915579" lon="-2.988509">
        <ele>1185.5</ele>
        <time>2010-07-15T10:52:13Z</time>
      </trkpt>
      <trkpt lat="37.915587" lon="-2.988606">
        <ele>1184.3</ele>
        <time>2010-07-15T10:52:13Z</time>
      </trkpt>
      <trkpt lat="37.915547" lon="-2.988736">
        <ele>1186.4</ele>
        <time>2010-07-15T10:52:13Z</time>
      </trkpt>
      <trkpt lat="37.915548" lon="-2.988827">
        <ele>1185.7</ele>
        <time>2010-07-15T10:52:13Z</time>
      </trkpt>
      <trkpt lat="37.915539" lon="-2.988927">
        <ele>1186.7</ele>
        <time>2010-07-15T10:52:13Z</time>
      </trkpt>
      <trkpt lat="37.915514" lon="-2.989018">
        <ele>1189.1</ele>
        <time>2010-07-15T10:52:13Z</time>
      </trkpt>
      <trkpt lat="37.915506" lon="-2.989104">
        <ele>1190.3</ele>
        <time>2010-07-15T10:52:13Z</time>
      </trkpt>
      <trkpt lat="37.915555" lon="-2.989223">
        <ele>1187.9</ele>
        <time>2010-07-15T10:52:13Z</time>
      </trkpt>
      <trkpt lat="37.915604" lon="-2.989345">
        <ele>1185.5</ele>
        <time>2010-07-15T10:52:13Z</time>
      </trkpt>
      <trkpt lat="37.915601" lon="-2.989492">
        <ele>1187.0</ele>
        <time>2010-07-15T10:52:13Z</time>
      </trkpt>
      <trkpt lat="37.915601" lon="-2.989562">
        <ele>1187.6</ele>
        <time>2010-07-15T10:52:13Z</time>
      </trkpt>
      <trkpt lat="37.915677" lon="-2.989537">
        <ele>1182.3</ele>
        <time>2010-07-15T10:52:13Z</time>
      </trkpt>
      <trkpt lat="37.915709" lon="-2.989596">
        <ele>1180.7</ele>
        <time>2010-07-15T10:52:13Z</time>
      </trkpt>
      <trkpt lat="37.915684" lon="-2.989721">
        <ele>1183.6</ele>
        <time>2010-07-15T10:52:13Z</time>
      </trkpt>
      <trkpt lat="37.915726" lon="-2.989837">
        <ele>1182.8</ele>
        <time>2010-07-15T10:52:13Z</time>
      </trkpt>
      <trkpt lat="37.915762" lon="-2.989951">
        <ele>1182.5</ele>
        <time>2010-07-15T10:52:13Z</time>
      </trkpt>
      <trkpt lat="37.915799" lon="-2.990066">
        <ele>1182.4</ele>
        <time>2010-07-15T10:52:13Z</time>
      </trkpt>
      <trkpt lat="37.915846" lon="-2.990153">
        <ele>1181.1</ele>
        <time>2010-07-15T10:52:13Z</time>
      </trkpt>
      <trkpt lat="37.915956" lon="-2.990217">
        <ele>1176.1</ele>
        <time>2010-07-15T10:52:13Z</time>
      </trkpt>
      <trkpt lat="37.916052" lon="-2.990269">
        <ele>1171.8</ele>
        <time>2010-07-15T10:52:13Z</time>
      </trkpt>
      <trkpt lat="37.916088" lon="-2.990335">
        <ele>1171.3</ele>
        <time>2010-07-15T10:52:13Z</time>
      </trkpt>
      <trkpt lat="37.916144" lon="-2.990429">
        <ele>1170.5</ele>
        <time>2010-07-15T10:52:13Z</time>
      </trkpt>
      <trkpt lat="37.916208" lon="-2.990508">
        <ele>1169.1</ele>
        <time>2010-07-15T10:52:13Z</time>
      </trkpt>
      <trkpt lat="37.916288" lon="-2.990548">
        <ele>1165.4</ele>
        <time>2010-07-15T10:52:13Z</time>
      </trkpt>
      <trkpt lat="37.916384" lon="-2.990552">
        <ele>1159.9</ele>
        <time>2010-07-15T10:52:13Z</time>
      </trkpt>
      <trkpt lat="37.916474" lon="-2.990582">
        <ele>1155.2</ele>
        <time>2010-07-15T10:52:13Z</time>
      </trkpt>
      <trkpt lat="37.916547" lon="-2.990655">
        <ele>1152.1</ele>
        <time>2010-07-15T10:52:13Z</time>
      </trkpt>
      <trkpt lat="37.916630" lon="-2.990689">
        <ele>1147.7</ele>
        <time>2010-07-15T10:52:13Z</time>
      </trkpt>
      <trkpt lat="37.916708" lon="-2.990807">
        <ele>1144.9</ele>
        <time>2010-07-15T10:52:13Z</time>
      </trkpt>
      <trkpt lat="37.916712" lon="-2.990918">
        <ele>1146.2</ele>
        <time>2010-07-15T10:52:13Z</time>
      </trkpt>
      <trkpt lat="37.916764" lon="-2.991007">
        <ele>1144.5</ele>
        <time>2010-07-15T10:52:13Z</time>
      </trkpt>
      <trkpt lat="37.916818" lon="-2.991099">
        <ele>1142.6</ele>
        <time>2010-07-15T10:52:13Z</time>
      </trkpt>
      <trkpt lat="37.916885" lon="-2.991182">
        <ele>1139.7</ele>
        <time>2010-07-15T10:52:13Z</time>
      </trkpt>
      <trkpt lat="37.916991" lon="-2.991369">
        <ele>1135.7</ele>
        <time>2010-07-15T10:52:13Z</time>
      </trkpt>
      <trkpt lat="37.917032" lon="-2.991669">
        <ele>1130.6</ele>
        <time>2010-07-15T10:52:13Z</time>
      </trkpt>
      <trkpt lat="37.917083" lon="-2.991778">
        <ele>1127.0</ele>
        <time>2010-07-15T10:52:13Z</time>
      </trkpt>
      <trkpt lat="37.917112" lon="-2.991915">
        <ele>1124.2</ele>
        <time>2010-07-15T10:52:13Z</time>
      </trkpt>
      <trkpt lat="37.917082" lon="-2.992040">
        <ele>1124.7</ele>
        <time>2010-07-15T10:52:13Z</time>
      </trkpt>
      <trkpt lat="37.917022" lon="-2.992325">
        <ele>1124.9</ele>
        <time>2010-07-15T10:52:13Z</time>
      </trkpt>
      <trkpt lat="37.916953" lon="-2.992423">
        <ele>1125.2</ele>
        <time>2010-07-15T10:52:13Z</time>
      </trkpt>
      <trkpt lat="37.916885" lon="-2.992542">
        <ele>1124.5</ele>
        <time>2010-07-15T10:52:13Z</time>
      </trkpt>
      <trkpt lat="37.916841" lon="-2.992669">
        <ele>1122.8</ele>
        <time>2010-07-15T10:52:13Z</time>
      </trkpt>
      <trkpt lat="37.916825" lon="-2.992816">
        <ele>1119.9</ele>
        <time>2010-07-15T10:52:13Z</time>
      </trkpt>
      <trkpt lat="37.916733" lon="-2.993138">
        <ele>1112.7</ele>
        <time>2010-07-15T10:52:13Z</time>
      </trkpt>
      <trkpt lat="37.916706" lon="-2.993265">
        <ele>1109.5</ele>
        <time>2010-07-15T10:52:13Z</time>
      </trkpt>
      <trkpt lat="37.916761" lon="-2.993469">
        <ele>1104.9</ele>
        <time>2010-07-15T10:52:13Z</time>
      </trkpt>
      <trkpt lat="37.916763" lon="-2.993678">
        <ele>1099.9</ele>
        <time>2010-07-15T10:52:13Z</time>
      </trkpt>
      <trkpt lat="37.916709" lon="-2.993823">
        <ele>1095.7</ele>
        <time>2010-07-15T10:52:13Z</time>
      </trkpt>
      <trkpt lat="37.916728" lon="-2.993923">
        <ele>1093.6</ele>
        <time>2010-07-15T10:52:13Z</time>
      </trkpt>
      <trkpt lat="37.916724" lon="-2.994020">
        <ele>1091.2</ele>
        <time>2010-07-15T10:52:13Z</time>
      </trkpt>
      <trkpt lat="37.916647" lon="-2.994079">
        <ele>1088.8</ele>
        <time>2010-07-15T10:52:13Z</time>
      </trkpt>
      <trkpt lat="37.916575" lon="-2.994132">
        <ele>1086.5</ele>
        <time>2010-07-15T10:52:13Z</time>
      </trkpt>
      <trkpt lat="37.916517" lon="-2.994184">
        <ele>1084.4</ele>
        <time>2010-07-15T10:52:13Z</time>
      </trkpt>
      <trkpt lat="37.916502" lon="-2.994266">
        <ele>1082.2</ele>
        <time>2010-07-15T10:52:13Z</time>
      </trkpt>
      <trkpt lat="37.916597" lon="-2.994284">
        <ele>1083.1</ele>
        <time>2010-07-15T10:52:13Z</time>
      </trkpt>
      <trkpt lat="37.916701" lon="-2.994253">
        <ele>1085.4</ele>
        <time>2010-07-15T10:52:13Z</time>
      </trkpt>
      <trkpt lat="37.916690" lon="-2.994309">
        <ele>1083.9</ele>
        <time>2010-07-15T10:52:13Z</time>
      </trkpt>
      <trkpt lat="37.916620" lon="-2.994376">
        <ele>1081.3</ele>
        <time>2010-07-15T10:52:13Z</time>
      </trkpt>
      <trkpt lat="37.916585" lon="-2.994495">
        <ele>1077.9</ele>
        <time>2010-07-15T10:52:13Z</time>
      </trkpt>
      <trkpt lat="37.916562" lon="-2.994577">
        <ele>1075.6</ele>
        <time>2010-07-15T10:52:13Z</time>
      </trkpt>
      <trkpt lat="37.916492" lon="-2.994505">
        <ele>1076.2</ele>
        <time>2010-07-15T10:52:13Z</time>
      </trkpt>
      <trkpt lat="37.916413" lon="-2.994450">
        <ele>1076.4</ele>
        <time>2010-07-15T10:52:13Z</time>
      </trkpt>
      <trkpt lat="37.916310" lon="-2.994446">
        <ele>1075.0</ele>
        <time>2010-07-15T10:52:13Z</time>
      </trkpt>
      <trkpt lat="37.916256" lon="-2.994437">
        <ele>1074.4</ele>
        <time>2010-07-15T10:52:13Z</time>
      </trkpt>
      <trkpt lat="37.916204" lon="-2.994446">
        <ele>1073.4</ele>
        <time>2010-07-15T10:52:13Z</time>
      </trkpt>
      <trkpt lat="37.916239" lon="-2.994570">
        <ele>1070.8</ele>
        <time>2010-07-15T10:52:13Z</time>
      </trkpt>
      <trkpt lat="37.916246" lon="-2.995262">
        <ele>1053.9</ele>
        <time>2010-07-15T10:52:13Z</time>
      </trkpt>
      <trkpt lat="37.916296" lon="-2.995395">
        <ele>1051.1</ele>
        <time>2010-07-15T10:52:13Z</time>
      </trkpt>
      <trkpt lat="37.916080" lon="-2.995622">
        <ele>1040.1</ele>
        <time>2010-07-15T10:52:13Z</time>
      </trkpt>
      <trkpt lat="37.916056" lon="-2.995707">
        <ele>1035.7</ele>
        <time>2010-07-15T10:52:13Z</time>
      </trkpt>
      <trkpt lat="37.916170" lon="-2.995679">
        <ele>1039.7</ele>
        <time>2010-07-15T10:52:13Z</time>
      </trkpt>
      <trkpt lat="37.916270" lon="-2.995685">
        <ele>1040.5</ele>
        <time>2010-07-15T10:52:13Z</time>
      </trkpt>
      <trkpt lat="37.916383" lon="-2.995694">
        <ele>1040.6</ele>
        <time>2010-07-15T10:52:13Z</time>
      </trkpt>
      <trkpt lat="37.916588" lon="-2.995715">
        <ele>1040.5</ele>
        <time>2010-07-15T10:52:13Z</time>
      </trkpt>
      <trkpt lat="37.916678" lon="-2.995734">
        <ele>1039.8</ele>
        <time>2010-07-15T10:52:13Z</time>
      </trkpt>
      <trkpt lat="37.916770" lon="-2.995719">
        <ele>1041.0</ele>
        <time>2010-07-15T10:52:13Z</time>
      </trkpt>
      <trkpt lat="37.916873" lon="-2.995686">
        <ele>1043.3</ele>
        <time>2010-07-15T10:52:13Z</time>
      </trkpt>
      <trkpt lat="37.916979" lon="-2.995652">
        <ele>1045.7</ele>
        <time>2010-07-15T10:52:13Z</time>
      </trkpt>
      <trkpt lat="37.917085" lon="-2.995621">
        <ele>1046.0</ele>
        <time>2010-07-15T10:52:13Z</time>
      </trkpt>
      <trkpt lat="37.917174" lon="-2.995572">
        <ele>1045.4</ele>
        <time>2010-07-15T10:52:13Z</time>
      </trkpt>
      <trkpt lat="37.917253" lon="-2.995483">
        <ele>1046.3</ele>
        <time>2010-07-15T10:52:13Z</time>
      </trkpt>
      <trkpt lat="37.917324" lon="-2.995387">
        <ele>1046.5</ele>
        <time>2010-07-15T10:52:13Z</time>
      </trkpt>
      <trkpt lat="37.917397" lon="-2.995294">
        <ele>1046.5</ele>
        <time>2010-07-15T10:52:13Z</time>
      </trkpt>
      <trkpt lat="37.917467" lon="-2.995194">
        <ele>1046.8</ele>
        <time>2010-07-15T10:52:13Z</time>
      </trkpt>
      <trkpt lat="37.917519" lon="-2.995078">
        <ele>1048.3</ele>
        <time>2010-07-15T10:52:13Z</time>
      </trkpt>
      <trkpt lat="37.917572" lon="-2.994960">
        <ele>1049.7</ele>
        <time>2010-07-15T10:52:13Z</time>
      </trkpt>
      <trkpt lat="37.917636" lon="-2.994849">
        <ele>1050.3</ele>
        <time>2010-07-15T10:52:13Z</time>
      </trkpt>
      <trkpt lat="37.917701" lon="-2.994744">
        <ele>1050.8</ele>
        <time>2010-07-15T10:52:13Z</time>
      </trkpt>
      <trkpt lat="37.917771" lon="-2.994639">
        <ele>1050.2</ele>
        <time>2010-07-15T10:52:13Z</time>
      </trkpt>
      <trkpt lat="37.917844" lon="-2.994541">
        <ele>1048.8</ele>
        <time>2010-07-15T10:52:13Z</time>
      </trkpt>
      <trkpt lat="37.917920" lon="-2.994458">
        <ele>1046.8</ele>
        <time>2010-07-15T10:52:13Z</time>
      </trkpt>
      <trkpt lat="37.918001" lon="-2.994356">
        <ele>1045.2</ele>
        <time>2010-07-15T10:52:13Z</time>
      </trkpt>
      <trkpt lat="37.918086" lon="-2.994267">
        <ele>1043.7</ele>
        <time>2010-07-15T10:52:13Z</time>
      </trkpt>
      <trkpt lat="37.918178" lon="-2.994183">
        <ele>1042.2</ele>
        <time>2010-07-15T10:52:13Z</time>
      </trkpt>
      <trkpt lat="37.918253" lon="-2.994087">
        <ele>1042.0</ele>
        <time>2010-07-15T10:52:13Z</time>
      </trkpt>
      <trkpt lat="37.918298" lon="-2.993981">
        <ele>1043.4</ele>
        <time>2010-07-15T10:52:13Z</time>
      </trkpt>
      <trkpt lat="37.918296" lon="-2.993878">
        <ele>1046.4</ele>
        <time>2010-07-15T10:52:13Z</time>
      </trkpt>
      <trkpt lat="37.918275" lon="-2.993767">
        <ele>1047.7</ele>
        <time>2010-07-15T10:52:13Z</time>
      </trkpt>
      <trkpt lat="37.918252" lon="-2.993631">
        <ele>1048.9</ele>
        <time>2010-07-15T10:52:13Z</time>
      </trkpt>
      <trkpt lat="37.918227" lon="-2.993499">
        <ele>1050.2</ele>
        <time>2010-07-15T10:52:13Z</time>
      </trkpt>
      <trkpt lat="37.918204" lon="-2.993368">
        <ele>1051.5</ele>
        <time>2010-07-15T10:52:13Z</time>
      </trkpt>
      <trkpt lat="37.918179" lon="-2.993237">
        <ele>1053.0</ele>
        <time>2010-07-15T10:52:13Z</time>
      </trkpt>
      <trkpt lat="37.918179" lon="-2.993121">
        <ele>1053.5</ele>
        <time>2010-07-15T10:52:13Z</time>
      </trkpt>
      <trkpt lat="37.918248" lon="-2.993056">
        <ele>1051.3</ele>
        <time>2010-07-15T10:52:13Z</time>
      </trkpt>
      <trkpt lat="37.918339" lon="-2.993095">
        <ele>1047.9</ele>
        <time>2010-07-15T10:52:13Z</time>
      </trkpt>
      <trkpt lat="37.918443" lon="-2.993125">
        <ele>1044.1</ele>
        <time>2010-07-15T10:52:13Z</time>
      </trkpt>
      <trkpt lat="37.918547" lon="-2.993162">
        <ele>1040.4</ele>
        <time>2010-07-15T10:52:13Z</time>
      </trkpt>
      <trkpt lat="37.918662" lon="-2.993198">
        <ele>1036.4</ele>
        <time>2010-07-15T10:52:13Z</time>
      </trkpt>
      <trkpt lat="37.918772" lon="-2.993239">
        <ele>1032.4</ele>
        <time>2010-07-15T10:52:13Z</time>
      </trkpt>
      <trkpt lat="37.918864" lon="-2.993250">
        <ele>1028.8</ele>
        <time>2010-07-15T10:52:13Z</time>
      </trkpt>
      <trkpt lat="37.918886" lon="-2.993155">
        <ele>1028.5</ele>
        <time>2010-07-15T10:52:13Z</time>
      </trkpt>
      <trkpt lat="37.918821" lon="-2.993062">
        <ele>1031.2</ele>
        <time>2010-07-15T10:52:13Z</time>
      </trkpt>
      <trkpt lat="37.918754" lon="-2.992972">
        <ele>1033.0</ele>
        <time>2010-07-15T10:52:13Z</time>
      </trkpt>
      <trkpt lat="37.918689" lon="-2.992879">
        <ele>1034.5</ele>
        <time>2010-07-15T10:52:13Z</time>
      </trkpt>
      <trkpt lat="37.918624" lon="-2.992727">
        <ele>1036.3</ele>
        <time>2010-07-15T10:52:13Z</time>
      </trkpt>
      <trkpt lat="37.918587" lon="-2.992591">
        <ele>1037.3</ele>
        <time>2010-07-15T10:52:13Z</time>
      </trkpt>
      <trkpt lat="37.918567" lon="-2.992447">
        <ele>1037.7</ele>
        <time>2010-07-15T10:52:13Z</time>
      </trkpt>
      <trkpt lat="37.918558" lon="-2.992292">
        <ele>1037.7</ele>
        <time>2010-07-15T10:52:13Z</time>
      </trkpt>
      <trkpt lat="37.918558" lon="-2.992147">
        <ele>1038.2</ele>
        <time>2010-07-15T10:52:13Z</time>
      </trkpt>
      <trkpt lat="37.918567" lon="-2.991992">
        <ele>1040.3</ele>
        <time>2010-07-15T10:52:13Z</time>
      </trkpt>
      <trkpt lat="37.918578" lon="-2.991846">
        <ele>1042.1</ele>
        <time>2010-07-15T10:52:13Z</time>
      </trkpt>
      <trkpt lat="37.918597" lon="-2.991706">
        <ele>1043.4</ele>
        <time>2010-07-15T10:52:13Z</time>
      </trkpt>
      <trkpt lat="37.918635" lon="-2.991635">
        <ele>1042.4</ele>
        <time>2010-07-15T10:52:13Z</time>
      </trkpt>
      <trkpt lat="37.918679" lon="-2.991773">
        <ele>1037.5</ele>
        <time>2010-07-15T10:52:13Z</time>
      </trkpt>
      <trkpt lat="37.918700" lon="-2.991933">
        <ele>1033.6</ele>
        <time>2010-07-15T10:52:13Z</time>
      </trkpt>
      <trkpt lat="37.918727" lon="-2.992084">
        <ele>1030.2</ele>
        <time>2010-07-15T10:52:13Z</time>
      </trkpt>
      <trkpt lat="37.918771" lon="-2.992209">
        <ele>1027.1</ele>
        <time>2010-07-15T10:52:13Z</time>
      </trkpt>
      <trkpt lat="37.918871" lon="-2.992243">
        <ele>1024.5</ele>
        <time>2010-07-15T10:52:13Z</time>
      </trkpt>
      <trkpt lat="37.918875" lon="-2.992202">
        <ele>1024.1</ele>
        <time>2010-07-15T10:52:13Z</time>
      </trkpt>
      <trkpt lat="37.918828" lon="-2.992095">
        <ele>1026.8</ele>
        <time>2010-07-15T10:52:13Z</time>
      </trkpt>
      <trkpt lat="37.918937" lon="-2.992037">
        <ele>1023.8</ele>
        <time>2010-07-15T10:52:13Z</time>
      </trkpt>
      <trkpt lat="37.918935" lon="-2.991899">
        <ele>1025.3</ele>
        <time>2010-07-15T10:52:13Z</time>
      </trkpt>
      <trkpt lat="37.918937" lon="-2.991746">
        <ele>1026.7</ele>
        <time>2010-07-15T10:52:13Z</time>
      </trkpt>
      <trkpt lat="37.918951" lon="-2.991600">
        <ele>1027.5</ele>
        <time>2010-07-15T10:52:13Z</time>
      </trkpt>
      <trkpt lat="37.919029" lon="-2.991640">
        <ele>1023.5</ele>
        <time>2010-07-15T10:52:13Z</time>
      </trkpt>
      <trkpt lat="37.919113" lon="-2.991753">
        <ele>1019.2</ele>
        <time>2010-07-15T10:52:13Z</time>
      </trkpt>
      <trkpt lat="37.919218" lon="-2.991851">
        <ele>1014.6</ele>
        <time>2010-07-15T10:52:13Z</time>
      </trkpt>
      <trkpt lat="37.919330" lon="-2.991890">
        <ele>1010.3</ele>
        <time>2010-07-15T10:52:13Z</time>
      </trkpt>
      <trkpt lat="37.919446" lon="-2.991907">
        <ele>1001.9</ele>
        <time>2010-07-15T10:52:13Z</time>
      </trkpt>
      <trkpt lat="37.919395" lon="-2.991711">
        <ele>1001.2</ele>
        <time>2010-07-15T10:52:13Z</time>
      </trkpt>
      <trkpt lat="37.919378" lon="-2.991500">
        <ele>1004.5</ele>
        <time>2010-07-15T10:52:13Z</time>
      </trkpt>
      <trkpt lat="37.919412" lon="-2.991385">
        <ele>1002.1</ele>
        <time>2010-07-15T10:52:13Z</time>
      </trkpt>
      <trkpt lat="37.919544" lon="-2.991357">
        <ele>997.8</ele>
        <time>2010-07-15T10:52:13Z</time>
      </trkpt>
      <trkpt lat="37.919642" lon="-2.991472">
        <ele>992.4</ele>
        <time>2010-07-15T10:52:13Z</time>
      </trkpt>
      <trkpt lat="37.919705" lon="-2.991603">
        <ele>991.0</ele>
        <time>2010-07-15T10:52:13Z</time>
      </trkpt>
      <trkpt lat="37.919768" lon="-2.991705">
        <ele>990.6</ele>
        <time>2010-07-15T10:52:13Z</time>
      </trkpt>
      <trkpt lat="37.919808" lon="-2.991813">
        <ele>990.0</ele>
        <time>2010-07-15T10:52:13Z</time>
      </trkpt>
      <trkpt lat="37.919871" lon="-2.991893">
        <ele>989.5</ele>
        <time>2010-07-15T10:52:13Z</time>
      </trkpt>
      <trkpt lat="37.907426" lon="-3.003105">
        <ele>792.7</ele>
        <time>1989-12-30T23:59:59Z</time>
      </trkpt>
      <trkpt lat="37.907395" lon="-3.003307">
        <ele>810.0</ele>
        <time>1989-12-30T23:59:59Z</time>
      </trkpt>
      <trkpt lat="37.907396" lon="-3.003445">
        <ele>811.0</ele>
        <time>1989-12-30T23:59:59Z</time>
      </trkpt>
      <trkpt lat="37.907386" lon="-3.003572">
        <ele>812.0</ele>
        <time>1989-12-30T23:59:59Z</time>
      </trkpt>
      <trkpt lat="37.907430" lon="-3.003706">
        <ele>814.4</ele>
        <time>1989-12-30T23:59:59Z</time>
      </trkpt>
      <trkpt lat="37.907577" lon="-3.004036">
        <ele>818.2</ele>
        <time>1989-12-30T23:59:59Z</time>
      </trkpt>
      <trkpt lat="37.907585" lon="-3.004060">
        <ele>816.8</ele>
        <time>1989-12-30T23:59:59Z</time>
      </trkpt>
      <trkpt lat="37.907576" lon="-3.004326">
        <ele>819.2</ele>
        <time>1989-12-30T23:59:59Z</time>
      </trkpt>
      <trkpt lat="37.907548" lon="-3.004467">
        <ele>819.2</ele>
        <time>1989-12-30T23:59:59Z</time>
      </trkpt>
      <trkpt lat="37.907501" lon="-3.004569">
        <ele>819.7</ele>
        <time>1989-12-30T23:59:59Z</time>
      </trkpt>
      <trkpt lat="37.907451" lon="-3.004676">
        <ele>819.7</ele>
        <time>1989-12-30T23:59:59Z</time>
      </trkpt>
      <trkpt lat="37.907420" lon="-3.004794">
        <ele>821.1</ele>
        <time>1989-12-30T23:59:59Z</time>
      </trkpt>
      <trkpt lat="37.907421" lon="-3.004808">
        <ele>835.5</ele>
        <time>1989-12-30T23:59:59Z</time>
      </trkpt>
      <trkpt lat="37.907421" lon="-3.004583">
        <ele>836.5</ele>
        <time>1989-12-30T23:59:59Z</time>
      </trkpt>
      <trkpt lat="37.907307" lon="-3.004733">
        <ele>840.3</ele>
        <time>1989-12-30T23:59:59Z</time>
      </trkpt>
      <trkpt lat="37.907291" lon="-3.004821">
        <ele>842.3</ele>
        <time>1989-12-30T23:59:59Z</time>
      </trkpt>
      <trkpt lat="37.907259" lon="-3.004954">
        <ele>843.7</ele>
        <time>1989-12-30T23:59:59Z</time>
      </trkpt>
      <trkpt lat="37.907216" lon="-3.005103">
        <ele>845.1</ele>
        <time>1989-12-30T23:59:59Z</time>
      </trkpt>
      <trkpt lat="37.907167" lon="-3.005252">
        <ele>847.5</ele>
        <time>1989-12-30T23:59:59Z</time>
      </trkpt>
      <trkpt lat="37.907126" lon="-3.005399">
        <ele>849.5</ele>
        <time>1989-12-30T23:59:59Z</time>
      </trkpt>
      <trkpt lat="37.907067" lon="-3.005469">
        <ele>851.4</ele>
        <time>1989-12-30T23:59:59Z</time>
      </trkpt>
      <trkpt lat="37.907037" lon="-3.005368">
        <ele>853.3</ele>
        <time>1989-12-30T23:59:59Z</time>
      </trkpt>
      <trkpt lat="37.907057" lon="-3.005258">
        <ele>854.3</ele>
        <time>1989-12-30T23:59:59Z</time>
      </trkpt>
      <trkpt lat="37.906972" lon="-3.005270">
        <ele>857.2</ele>
        <time>1989-12-30T23:59:59Z</time>
      </trkpt>
      <trkpt lat="37.906930" lon="-3.005382">
        <ele>859.1</ele>
        <time>1989-12-30T23:59:59Z</time>
      </trkpt>
      <trkpt lat="37.906884" lon="-3.005502">
        <ele>861.5</ele>
        <time>1989-12-30T23:59:59Z</time>
      </trkpt>
      <trkpt lat="37.906842" lon="-3.005607">
        <ele>863.4</ele>
        <time>1989-12-30T23:59:59Z</time>
      </trkpt>
      <trkpt lat="37.906783" lon="-3.005734">
        <ele>865.3</ele>
        <time>1989-12-30T23:59:59Z</time>
      </trkpt>
      <trkpt lat="37.906712" lon="-3.005853">
        <ele>865.8</ele>
        <time>1989-12-30T23:59:59Z</time>
      </trkpt>
      <trkpt lat="37.906642" lon="-3.005978">
        <ele>866.3</ele>
        <time>1989-12-30T23:59:59Z</time>
      </trkpt>
      <trkpt lat="37.906575" lon="-3.006115">
        <ele>866.8</ele>
        <time>1989-12-30T23:59:59Z</time>
      </trkpt>
      <trkpt lat="37.906510" lon="-3.006199">
        <ele>869.2</ele>
        <time>1989-12-30T23:59:59Z</time>
      </trkpt>
      <trkpt lat="37.906406" lon="-3.006304">
        <ele>872.1</ele>
        <time>1989-12-30T23:59:59Z</time>
      </trkpt>
      <trkpt lat="37.906316" lon="-3.006402">
        <ele>874.0</ele>
        <time>1989-12-30T23:59:59Z</time>
      </trkpt>
      <trkpt lat="37.906263" lon="-3.006504">
        <ele>876.9</ele>
        <time>1989-12-30T23:59:59Z</time>
      </trkpt>
      <trkpt lat="37.906229" lon="-3.006654">
        <ele>878.8</ele>
        <time>1989-12-30T23:59:59Z</time>
      </trkpt>
      <trkpt lat="37.906188" lon="-3.006813">
        <ele>881.7</ele>
        <time>1989-12-30T23:59:59Z</time>
      </trkpt>
      <trkpt lat="37.906157" lon="-3.006918">
        <ele>883.6</ele>
        <time>1989-12-30T23:59:59Z</time>
      </trkpt>
      <trkpt lat="37.906118" lon="-3.007040">
        <ele>886.0</ele>
        <time>1989-12-30T23:59:59Z</time>
      </trkpt>
      <trkpt lat="37.906067" lon="-3.007126">
        <ele>886.5</ele>
        <time>1989-12-30T23:59:59Z</time>
      </trkpt>
      <trkpt lat="37.905999" lon="-3.007204">
        <ele>887.4</ele>
        <time>1989-12-30T23:59:59Z</time>
      </trkpt>
      <trkpt lat="37.905892" lon="-3.007278">
        <ele>887.9</ele>
        <time>1989-12-30T23:59:59Z</time>
      </trkpt>
      <trkpt lat="37.905799" lon="-3.007347">
        <ele>888.9</ele>
        <time>1989-12-30T23:59:59Z</time>
      </trkpt>
      <trkpt lat="37.905701" lon="-3.007435">
        <ele>888.9</ele>
        <time>1989-12-30T23:59:59Z</time>
      </trkpt>
      <trkpt lat="37.905657" lon="-3.007553">
        <ele>889.8</ele>
        <time>1989-12-30T23:59:59Z</time>
      </trkpt>
      <trkpt lat="37.905624" lon="-3.007668">
        <ele>890.3</ele>
        <time>1989-12-30T23:59:59Z</time>
      </trkpt>
      <trkpt lat="37.905589" lon="-3.007827">
        <ele>891.3</ele>
        <time>1989-12-30T23:59:59Z</time>
      </trkpt>
      <trkpt lat="37.905569" lon="-3.007977">
        <ele>891.3</ele>
        <time>1989-12-30T23:59:59Z</time>
      </trkpt>
      <trkpt lat="37.905565" lon="-3.008057">
        <ele>891.8</ele>
        <time>1989-12-30T23:59:59Z</time>
      </trkpt>
      <trkpt lat="37.905457" lon="-3.008357">
        <ele>905.2</ele>
        <time>1989-12-30T23:59:59Z</time>
      </trkpt>
      <trkpt lat="37.905409" lon="-3.008468">
        <ele>905.2</ele>
        <time>1989-12-30T23:59:59Z</time>
      </trkpt>
      <trkpt lat="37.905361" lon="-3.008583">
        <ele>904.3</ele>
        <time>1989-12-30T23:59:59Z</time>
      </trkpt>
      <trkpt lat="37.905279" lon="-3.008809">
        <ele>904.7</ele>
        <time>1989-12-30T23:59:59Z</time>
      </trkpt>
      <trkpt lat="37.905217" lon="-3.008916">
        <ele>907.1</ele>
        <time>1989-12-30T23:59:59Z</time>
      </trkpt>
      <trkpt lat="37.905050" lon="-3.009153">
        <ele>909.1</ele>
        <time>1989-12-30T23:59:59Z</time>
      </trkpt>
      <trkpt lat="37.904925" lon="-3.009163">
        <ele>902.3</ele>
        <time>1989-12-30T23:59:59Z</time>
      </trkpt>
      <trkpt lat="37.904861" lon="-3.009286">
        <ele>904.3</ele>
        <time>1989-12-30T23:59:59Z</time>
      </trkpt>
      <trkpt lat="37.904835" lon="-3.009431">
        <ele>907.6</ele>
        <time>1989-12-30T23:59:59Z</time>
      </trkpt>
      <trkpt lat="37.904740" lon="-3.009483">
        <ele>911.0</ele>
        <time>1989-12-30T23:59:59Z</time>
      </trkpt>
      <trkpt lat="37.904681" lon="-3.009412">
        <ele>912.4</ele>
        <time>1989-12-30T23:59:59Z</time>
      </trkpt>
      <trkpt lat="37.904668" lon="-3.009293">
        <ele>915.3</ele>
        <time>1989-12-30T23:59:59Z</time>
      </trkpt>
      <trkpt lat="37.904614" lon="-3.009231">
        <ele>917.7</ele>
        <time>1989-12-30T23:59:59Z</time>
      </trkpt>
      <trkpt lat="37.904624" lon="-3.009244">
        <ele>918.7</ele>
        <time>1989-12-30T23:59:59Z</time>
      </trkpt>
      <trkpt lat="37.904550" lon="-3.009377">
        <ele>925.9</ele>
        <time>1989-12-30T23:59:59Z</time>
      </trkpt>
      <trkpt lat="37.904514" lon="-3.009515">
        <ele>925.9</ele>
        <time>1989-12-30T23:59:59Z</time>
      </trkpt>
      <trkpt lat="37.904456" lon="-3.009624">
        <ele>926.8</ele>
        <time>1989-12-30T23:59:59Z</time>
      </trkpt>
      <trkpt lat="37.904369" lon="-3.009702">
        <ele>929.3</ele>
        <time>1989-12-30T23:59:59Z</time>
      </trkpt>
      <trkpt lat="37.904280" lon="-3.009773">
        <ele>932.1</ele>
        <time>1989-12-30T23:59:59Z</time>
      </trkpt>
      <trkpt lat="37.904200" lon="-3.009860">
        <ele>934.5</ele>
        <time>1989-12-30T23:59:59Z</time>
      </trkpt>
      <trkpt lat="37.904127" lon="-3.009942">
        <ele>936.5</ele>
        <time>1989-12-30T23:59:59Z</time>
      </trkpt>
      <trkpt lat="37.904055" lon="-3.010022">
        <ele>938.9</ele>
        <time>1989-12-30T23:59:59Z</time>
      </trkpt>
      <trkpt lat="37.904003" lon="-3.010122">
        <ele>940.8</ele>
        <time>1989-12-30T23:59:59Z</time>
      </trkpt>
      <trkpt lat="37.903957" lon="-3.010221">
        <ele>942.2</ele>
        <time>1989-12-30T23:59:59Z</time>
      </trkpt>
      <trkpt lat="37.903866" lon="-3.010223">
        <ele>938.9</ele>
        <time>1989-12-30T23:59:59Z</time>
      </trkpt>
      <trkpt lat="37.903771" lon="-3.010265">
        <ele>942.7</ele>
        <time>1989-12-30T23:59:59Z</time>
      </trkpt>
      <trkpt lat="37.903674" lon="-3.010291">
        <ele>946.1</ele>
        <time>1989-12-30T23:59:59Z</time>
      </trkpt>
      <trkpt lat="37.903568" lon="-3.010306">
        <ele>949.0</ele>
        <time>1989-12-30T23:59:59Z</time>
      </trkpt>
      <trkpt lat="37.903468" lon="-3.010321">
        <ele>951.8</ele>
        <time>1989-12-30T23:59:59Z</time>
      </trkpt>
      <trkpt lat="37.903371" lon="-3.010338">
        <ele>953.8</ele>
        <time>1989-12-30T23:59:59Z</time>
      </trkpt>
      <trkpt lat="37.903265" lon="-3.010353">
        <ele>954.7</ele>
        <time>1989-12-30T23:59:59Z</time>
      </trkpt>
      <trkpt lat="37.903173" lon="-3.010372">
        <ele>956.2</ele>
        <time>1989-12-30T23:59:59Z</time>
      </trkpt>
      <trkpt lat="37.903073" lon="-3.010400">
        <ele>958.1</ele>
        <time>1989-12-30T23:59:59Z</time>
      </trkpt>
      <trkpt lat="37.902985" lon="-3.010440">
        <ele>959.1</ele>
        <time>1989-12-30T23:59:59Z</time>
      </trkpt>
      <trkpt lat="37.902882" lon="-3.010500">
        <ele>960.5</ele>
        <time>1989-12-30T23:59:59Z</time>
      </trkpt>
      <trkpt lat="37.902780" lon="-3.010557">
        <ele>962.9</ele>
        <time>1989-12-30T23:59:59Z</time>
      </trkpt>
      <trkpt lat="37.902685" lon="-3.010622">
        <ele>965.8</ele>
        <time>1989-12-30T23:59:59Z</time>
      </trkpt>
      <trkpt lat="37.902599" lon="-3.010680">
        <ele>967.2</ele>
        <time>1989-12-30T23:59:59Z</time>
      </trkpt>
      <trkpt lat="37.902518" lon="-3.010717">
        <ele>968.7</ele>
        <time>1989-12-30T23:59:59Z</time>
      </trkpt>
      <trkpt lat="37.902406" lon="-3.010687">
        <ele>972.0</ele>
        <time>1989-12-30T23:59:59Z</time>
      </trkpt>
      <trkpt lat="37.902328" lon="-3.010635">
        <ele>974.4</ele>
        <time>1989-12-30T23:59:59Z</time>
      </trkpt>
      <trkpt lat="37.902383" lon="-3.010543">
        <ele>977.8</ele>
        <time>1989-12-30T23:59:59Z</time>
      </trkpt>
      <trkpt lat="37.902450" lon="-3.010529">
        <ele>973.5</ele>
        <time>1989-12-30T23:59:59Z</time>
      </trkpt>
      <trkpt lat="37.902535" lon="-3.010485">
        <ele>974.9</ele>
        <time>1989-12-30T23:59:59Z</time>
      </trkpt>
      <trkpt lat="37.902543" lon="-3.010395">
        <ele>976.8</ele>
        <time>1989-12-30T23:59:59Z</time>
      </trkpt>
      <trkpt lat="37.902454" lon="-3.010429">
        <ele>980.2</ele>
        <time>1989-12-30T23:59:59Z</time>
      </trkpt>
      <trkpt lat="37.902361" lon="-3.010459">
        <ele>982.1</ele>
        <time>1989-12-30T23:59:59Z</time>
      </trkpt>
      <trkpt lat="37.902265" lon="-3.010457">
        <ele>983.6</ele>
        <time>1989-12-30T23:59:59Z</time>
      </trkpt>
      <trkpt lat="37.902173" lon="-3.010420">
        <ele>984.5</ele>
        <time>1989-12-30T23:59:59Z</time>
      </trkpt>
      <trkpt lat="37.902095" lon="-3.010359">
        <ele>985.5</ele>
        <time>1989-12-30T23:59:59Z</time>
      </trkpt>
      <trkpt lat="37.902018" lon="-3.010290">
        <ele>986.9</ele>
        <time>1989-12-30T23:59:59Z</time>
      </trkpt>
      <trkpt lat="37.901936" lon="-3.010190">
        <ele>989.3</ele>
        <time>1989-12-30T23:59:59Z</time>
      </trkpt>
      <trkpt lat="37.901872" lon="-3.010094">
        <ele>991.7</ele>
        <time>1989-12-30T23:59:59Z</time>
      </trkpt>
      <trkpt lat="37.901810" lon="-3.010004">
        <ele>993.7</ele>
        <time>1989-12-30T23:59:59Z</time>
      </trkpt>
      <trkpt lat="37.901750" lon="-3.009915">
        <ele>995.1</ele>
        <time>1989-12-30T23:59:59Z</time>
      </trkpt>
      <trkpt lat="37.901689" lon="-3.009819">
        <ele>996.5</ele>
        <time>1989-12-30T23:59:59Z</time>
      </trkpt>
      <trkpt lat="37.901610" lon="-3.009756">
        <ele>998.0</ele>
        <time>1989-12-30T23:59:59Z</time>
      </trkpt>
      <trkpt lat="37.901518" lon="-3.009722">
        <ele>999.9</ele>
        <time>1989-12-30T23:59:59Z</time>
      </trkpt>
      <trkpt lat="37.901427" lon="-3.009730">
        <ele>1001.8</ele>
        <time>1989-12-30T23:59:59Z</time>
      </trkpt>
      <trkpt lat="37.901341" lon="-3.009782">
        <ele>1003.3</ele>
        <time>1989-12-30T23:59:59Z</time>
      </trkpt>
      <trkpt lat="37.901248" lon="-3.009809">
        <ele>1004.7</ele>
        <time>1989-12-30T23:59:59Z</time>
      </trkpt>
      <trkpt lat="37.901155" lon="-3.009799">
        <ele>1006.2</ele>
        <time>1989-12-30T23:59:59Z</time>
      </trkpt>
      <trkpt lat="37.901048" lon="-3.009773">
        <ele>1008.6</ele>
        <time>1989-12-30T23:59:59Z</time>
      </trkpt>
      <trkpt lat="37.900952" lon="-3.009742">
        <ele>1010.5</ele>
        <time>1989-12-30T23:59:59Z</time>
      </trkpt>
      <trkpt lat="37.900856" lon="-3.009718">
        <ele>1011.9</ele>
        <time>1989-12-30T23:59:59Z</time>
      </trkpt>
      <trkpt lat="37.900750" lon="-3.009720">
        <ele>1014.3</ele>
        <time>1989-12-30T23:59:59Z</time>
      </trkpt>
      <trkpt lat="37.900684" lon="-3.009813">
        <ele>1014.8</ele>
        <time>1989-12-30T23:59:59Z</time>
      </trkpt>
      <trkpt lat="37.900658" lon="-3.009947">
        <ele>1015.8</ele>
        <time>1989-12-30T23:59:59Z</time>
      </trkpt>
      <trkpt lat="37.900637" lon="-3.010081">
        <ele>1017.2</ele>
        <time>1989-12-30T23:59:59Z</time>
      </trkpt>
      <trkpt lat="37.900618" lon="-3.010208">
        <ele>1018.7</ele>
        <time>1989-12-30T23:59:59Z</time>
      </trkpt>
      <trkpt lat="37.900541" lon="-3.010298">
        <ele>1020.6</ele>
        <time>1989-12-30T23:59:59Z</time>
      </trkpt>
      <trkpt lat="37.900445" lon="-3.010323">
        <ele>1021.5</ele>
        <time>1989-12-30T23:59:59Z</time>
      </trkpt>
      <trkpt lat="37.900347" lon="-3.010300">
        <ele>1021.5</ele>
        <time>1989-12-30T23:59:59Z</time>
      </trkpt>
      <trkpt lat="37.900251" lon="-3.010302">
        <ele>1021.5</ele>
        <time>1989-12-30T23:59:59Z</time>
      </trkpt>
      <trkpt lat="37.900157" lon="-3.010341">
        <ele>1022.0</ele>
        <time>1989-12-30T23:59:59Z</time>
      </trkpt>
      <trkpt lat="37.900076" lon="-3.010401">
        <ele>1021.1</ele>
        <time>1989-12-30T23:59:59Z</time>
      </trkpt>
      <trkpt lat="37.900001" lon="-3.010442">
        <ele>1019.1</ele>
        <time>1989-12-30T23:59:59Z</time>
      </trkpt>
      <trkpt lat="37.899907" lon="-3.010470">
        <ele>1020.6</ele>
        <time>1989-12-30T23:59:59Z</time>
      </trkpt>
      <trkpt lat="37.899819" lon="-3.010468">
        <ele>1018.7</ele>
        <time>1989-12-30T23:59:59Z</time>
      </trkpt>
      <trkpt lat="37.899709" lon="-3.010471">
        <ele>1019.1</ele>
        <time>1989-12-30T23:59:59Z</time>
      </trkpt>
      <trkpt lat="37.899626" lon="-3.010513">
        <ele>1018.7</ele>
        <time>1989-12-30T23:59:59Z</time>
      </trkpt>
      <trkpt lat="37.899537" lon="-3.010570">
        <ele>1017.7</ele>
        <time>1989-12-30T23:59:59Z</time>
      </trkpt>
      <trkpt lat="37.899448" lon="-3.010549">
        <ele>1013.4</ele>
        <time>1989-12-30T23:59:59Z</time>
      </trkpt>
      <trkpt lat="37.899349" lon="-3.010600">
        <ele>1015.3</ele>
        <time>1989-12-30T23:59:59Z</time>
      </trkpt>
      <trkpt lat="37.899256" lon="-3.010622">
        <ele>1014.3</ele>
        <time>1989-12-30T23:59:59Z</time>
      </trkpt>
      <trkpt lat="37.899151" lon="-3.010627">
        <ele>1015.3</ele>
        <time>1989-12-30T23:59:59Z</time>
      </trkpt>
      <trkpt lat="37.899070" lon="-3.010576">
        <ele>1015.8</ele>
        <time>1989-12-30T23:59:59Z</time>
      </trkpt>
      <trkpt lat="37.899004" lon="-3.010516">
        <ele>1015.8</ele>
        <time>1989-12-30T23:59:59Z</time>
      </trkpt>
      <trkpt lat="37.898928" lon="-3.010434">
        <ele>1016.3</ele>
        <time>1989-12-30T23:59:59Z</time>
      </trkpt>
      <trkpt lat="37.898850" lon="-3.010356">
        <ele>1016.7</ele>
        <time>1989-12-30T23:59:59Z</time>
      </trkpt>
      <trkpt lat="37.898760" lon="-3.010287">
        <ele>1016.7</ele>
        <time>1989-12-30T23:59:59Z</time>
      </trkpt>
      <trkpt lat="37.898670" lon="-3.010304">
        <ele>1017.7</ele>
        <time>1989-12-30T23:59:59Z</time>
      </trkpt>
      <trkpt lat="37.898567" lon="-3.010366">
        <ele>1019.1</ele>
        <time>1989-12-30T23:59:59Z</time>
      </trkpt>
      <trkpt lat="37.898484" lon="-3.010424">
        <ele>1020.1</ele>
        <time>1989-12-30T23:59:59Z</time>
      </trkpt>
      <trkpt lat="37.898389" lon="-3.010470">
        <ele>1020.6</ele>
        <time>1989-12-30T23:59:59Z</time>
      </trkpt>
      <trkpt lat="37.898287" lon="-3.010465">
        <ele>1021.1</ele>
        <time>1989-12-30T23:59:59Z</time>
      </trkpt>
      <trkpt lat="37.898183" lon="-3.010434">
        <ele>1021.5</ele>
        <time>1989-12-30T23:59:59Z</time>
      </trkpt>
      <trkpt lat="37.898092" lon="-3.010372">
        <ele>1022.5</ele>
        <time>1989-12-30T23:59:59Z</time>
      </trkpt>
      <trkpt lat="37.897993" lon="-3.010304">
        <ele>1023.5</ele>
        <time>1989-12-30T23:59:59Z</time>
      </trkpt>
      <trkpt lat="37.897881" lon="-3.010274">
        <ele>1023.9</ele>
        <time>1989-12-30T23:59:59Z</time>
      </trkpt>
      <trkpt lat="37.897786" lon="-3.010276">
        <ele>1023.5</ele>
        <time>1989-12-30T23:59:59Z</time>
      </trkpt>
      <trkpt lat="37.897694" lon="-3.010245">
        <ele>1023.5</ele>
        <time>1989-12-30T23:59:59Z</time>
      </trkpt>
      <trkpt lat="37.897616" lon="-3.010179">
        <ele>1023.5</ele>
        <time>1989-12-30T23:59:59Z</time>
      </trkpt>
      <trkpt lat="37.897521" lon="-3.010116">
        <ele>1023.9</ele>
        <time>1989-12-30T23:59:59Z</time>
      </trkpt>
      <trkpt lat="37.897445" lon="-3.010109">
        <ele>1024.9</ele>
        <time>1989-12-30T23:59:59Z</time>
      </trkpt>
      <trkpt lat="37.897403" lon="-3.010204">
        <ele>1024.9</ele>
        <time>1989-12-30T23:59:59Z</time>
      </trkpt>
      <trkpt lat="37.897374" lon="-3.010338">
        <ele>1025.4</ele>
        <time>1989-12-30T23:59:59Z</time>
      </trkpt>
      <trkpt lat="37.897326" lon="-3.010482">
        <ele>1026.3</ele>
        <time>1989-12-30T23:59:59Z</time>
      </trkpt>
      <trkpt lat="37.897284" lon="-3.010605">
        <ele>1026.8</ele>
        <time>1989-12-30T23:59:59Z</time>
      </trkpt>
      <trkpt lat="37.897313" lon="-3.010713">
        <ele>1026.3</ele>
        <time>1989-12-30T23:59:59Z</time>
      </trkpt>
      <trkpt lat="37.897406" lon="-3.010795">
        <ele>1027.8</ele>
        <time>1989-12-30T23:59:59Z</time>
      </trkpt>
      <trkpt lat="37.897475" lon="-3.010884">
        <ele>1029.2</ele>
        <time>1989-12-30T23:59:59Z</time>
      </trkpt>
      <trkpt lat="37.897513" lon="-3.010996">
        <ele>1029.7</ele>
        <time>1989-12-30T23:59:59Z</time>
      </trkpt>
      <trkpt lat="37.897560" lon="-3.011159">
        <ele>1035.0</ele>
        <time>1989-12-30T23:59:59Z</time>
      </trkpt>
      <trkpt lat="37.897566" lon="-3.011295">
        <ele>1035.0</ele>
        <time>1989-12-30T23:59:59Z</time>
      </trkpt>
      <trkpt lat="37.897571" lon="-3.011453">
        <ele>1035.5</ele>
        <time>1989-12-30T23:59:59Z</time>
      </trkpt>
      <trkpt lat="37.897574" lon="-3.011587">
        <ele>1037.9</ele>
        <time>1989-12-30T23:59:59Z</time>
      </trkpt>
      <trkpt lat="37.897548" lon="-3.011731">
        <ele>1038.8</ele>
        <time>1989-12-30T23:59:59Z</time>
      </trkpt>
      <trkpt lat="37.897513" lon="-3.011607">
        <ele>1039.8</ele>
        <time>1989-12-30T23:59:59Z</time>
      </trkpt>
      <trkpt lat="37.897471" lon="-3.011493">
        <ele>1041.2</ele>
        <time>1989-12-30T23:59:59Z</time>
      </trkpt>
      <trkpt lat="37.897370" lon="-3.011345">
        <ele>1050.4</ele>
        <time>1989-12-30T23:59:59Z</time>
      </trkpt>
      <trkpt lat="37.897304" lon="-3.011263">
        <ele>1050.4</ele>
        <time>1989-12-30T23:59:59Z</time>
      </trkpt>
      <trkpt lat="37.897238" lon="-3.011167">
        <ele>1052.3</ele>
        <time>1989-12-30T23:59:59Z</time>
      </trkpt>
      <trkpt lat="37.897159" lon="-3.011190">
        <ele>1053.7</ele>
        <time>1989-12-30T23:59:59Z</time>
      </trkpt>
      <trkpt lat="37.897200" lon="-3.011319">
        <ele>1054.7</ele>
        <time>1989-12-30T23:59:59Z</time>
      </trkpt>
      <trkpt lat="37.897240" lon="-3.011438">
        <ele>1055.7</ele>
        <time>1989-12-30T23:59:59Z</time>
      </trkpt>
      <trkpt lat="37.897263" lon="-3.011553">
        <ele>1056.6</ele>
        <time>1989-12-30T23:59:59Z</time>
      </trkpt>
      <trkpt lat="37.897252" lon="-3.011703">
        <ele>1060.0</ele>
        <time>1989-12-30T23:59:59Z</time>
      </trkpt>
      <trkpt lat="37.897247" lon="-3.011835">
        <ele>1061.9</ele>
        <time>1989-12-30T23:59:59Z</time>
      </trkpt>
      <trkpt lat="37.897229" lon="-3.011960">
        <ele>1063.4</ele>
        <time>1989-12-30T23:59:59Z</time>
      </trkpt>
      <trkpt lat="37.897189" lon="-3.012075">
        <ele>1064.8</ele>
        <time>1989-12-30T23:59:59Z</time>
      </trkpt>
      <trkpt lat="37.897148" lon="-3.012182">
        <ele>1066.2</ele>
        <time>1989-12-30T23:59:59Z</time>
      </trkpt>
      <trkpt lat="37.897073" lon="-3.012180">
        <ele>1066.7</ele>
        <time>1989-12-30T23:59:59Z</time>
      </trkpt>
      <trkpt lat="37.897110" lon="-3.012050">
        <ele>1067.7</ele>
        <time>1989-12-30T23:59:59Z</time>
      </trkpt>
      <trkpt lat="37.897116" lon="-3.011933">
        <ele>1068.6</ele>
        <time>1989-12-30T23:59:59Z</time>
      </trkpt>
      <trkpt lat="37.897089" lon="-3.011812">
        <ele>1069.1</ele>
        <time>1989-12-30T23:59:59Z</time>
      </trkpt>
      <trkpt lat="37.897048" lon="-3.011686">
        <ele>1070.1</ele>
        <time>1989-12-30T23:59:59Z</time>
      </trkpt>
      <trkpt lat="37.896996" lon="-3.011583">
        <ele>1071.0</ele>
        <time>1989-12-30T23:59:59Z</time>
      </trkpt>
      <trkpt lat="37.896917" lon="-3.011507">
        <ele>1073.4</ele>
        <time>1989-12-30T23:59:59Z</time>
      </trkpt>
      <trkpt lat="37.896893" lon="-3.011617">
        <ele>1075.9</ele>
        <time>1989-12-30T23:59:59Z</time>
      </trkpt>
      <trkpt lat="37.896936" lon="-3.011751">
        <ele>1077.8</ele>
        <time>1989-12-30T23:59:59Z</time>
      </trkpt>
      <trkpt lat="37.896930" lon="-3.011865">
        <ele>1078.7</ele>
        <time>1989-12-30T23:59:59Z</time>
      </trkpt>
      <trkpt lat="37.896908" lon="-3.011983">
        <ele>1080.2</ele>
        <time>1989-12-30T23:59:59Z</time>
      </trkpt>
      <trkpt lat="37.896871" lon="-3.012105">
        <ele>1081.1</ele>
        <time>1989-12-30T23:59:59Z</time>
      </trkpt>
      <trkpt lat="37.896827" lon="-3.012226">
        <ele>1082.6</ele>
        <time>1989-12-30T23:59:59Z</time>
      </trkpt>
      <trkpt lat="37.896785" lon="-3.012354">
        <ele>1083.1</ele>
        <time>1989-12-30T23:59:59Z</time>
      </trkpt>
      <trkpt lat="37.896736" lon="-3.012480">
        <ele>1084.0</ele>
        <time>1989-12-30T23:59:59Z</time>
      </trkpt>
      <trkpt lat="37.896682" lon="-3.012606">
        <ele>1085.5</ele>
        <time>1989-12-30T23:59:59Z</time>
      </trkpt>
      <trkpt lat="37.896629" lon="-3.012727">
        <ele>1086.4</ele>
        <time>1989-12-30T23:59:59Z</time>
      </trkpt>
      <trkpt lat="37.896595" lon="-3.012836">
        <ele>1087.9</ele>
        <time>1989-12-30T23:59:59Z</time>
      </trkpt>
      <trkpt lat="37.896592" lon="-3.012966">
        <ele>1088.8</ele>
        <time>1989-12-30T23:59:59Z</time>
      </trkpt>
      <trkpt lat="37.896599" lon="-3.013099">
        <ele>1090.3</ele>
        <time>1989-12-30T23:59:59Z</time>
      </trkpt>
      <trkpt lat="37.896593" lon="-3.013237">
        <ele>1092.7</ele>
        <time>1989-12-30T23:59:59Z</time>
      </trkpt>
      <trkpt lat="37.896581" lon="-3.013365">
        <ele>1095.1</ele>
        <time>1989-12-30T23:59:59Z</time>
      </trkpt>
      <trkpt lat="37.896561" lon="-3.013484">
        <ele>1097.0</ele>
        <time>1989-12-30T23:59:59Z</time>
      </trkpt>
      <trkpt lat="37.896549" lon="-3.013594">
        <ele>1098.0</ele>
        <time>1989-12-30T23:59:59Z</time>
      </trkpt>
      <trkpt lat="37.896510" lon="-3.013711">
        <ele>1099.9</ele>
        <time>1989-12-30T23:59:59Z</time>
      </trkpt>
      <trkpt lat="37.896473" lon="-3.013827">
        <ele>1100.4</ele>
        <time>1989-12-30T23:59:59Z</time>
      </trkpt>
      <trkpt lat="37.896393" lon="-3.013853">
        <ele>1101.8</ele>
        <time>1989-12-30T23:59:59Z</time>
      </trkpt>
      <trkpt lat="37.896292" lon="-3.013806">
        <ele>1104.2</ele>
        <time>1989-12-30T23:59:59Z</time>
      </trkpt>
      <trkpt lat="37.896208" lon="-3.013740">
        <ele>1104.7</ele>
        <time>1989-12-30T23:59:59Z</time>
      </trkpt>
      <trkpt lat="37.896158" lon="-3.013622">
        <ele>1105.7</ele>
        <time>1989-12-30T23:59:59Z</time>
      </trkpt>
      <trkpt lat="37.896137" lon="-3.013496">
        <ele>1107.6</ele>
        <time>1989-12-30T23:59:59Z</time>
      </trkpt>
      <trkpt lat="37.896117" lon="-3.013375">
        <ele>1109.5</ele>
        <time>1989-12-30T23:59:59Z</time>
      </trkpt>
      <trkpt lat="37.896088" lon="-3.013261">
        <ele>1110.9</ele>
        <time>1989-12-30T23:59:59Z</time>
      </trkpt>
      <trkpt lat="37.896052" lon="-3.013145">
        <ele>1111.9</ele>
        <time>1989-12-30T23:59:59Z</time>
      </trkpt>
      <trkpt lat="37.896000" lon="-3.013062">
        <ele>1112.4</ele>
        <time>1989-12-30T23:59:59Z</time>
      </trkpt>
      <trkpt lat="37.895919" lon="-3.012992">
        <ele>1115.3</ele>
        <time>1989-12-30T23:59:59Z</time>
      </trkpt>
      <trkpt lat="37.895838" lon="-3.012935">
        <ele>1116.2</ele>
        <time>1989-12-30T23:59:59Z</time>
      </trkpt>
      <trkpt lat="37.895747" lon="-3.012867">
        <ele>1117.2</ele>
        <time>1989-12-30T23:59:59Z</time>
      </trkpt>
      <trkpt lat="37.895660" lon="-3.012789">
        <ele>1118.2</ele>
        <time>1989-12-30T23:59:59Z</time>
      </trkpt>
      <trkpt lat="37.895576" lon="-3.012738">
        <ele>1119.1</ele>
        <time>1989-12-30T23:59:59Z</time>
      </trkpt>
      <trkpt lat="37.895491" lon="-3.012693">
        <ele>1119.1</ele>
        <time>1989-12-30T23:59:59Z</time>
      </trkpt>
      <trkpt lat="37.895316" lon="-3.012634">
        <ele>1120.6</ele>
        <time>1989-12-30T23:59:59Z</time>
      </trkpt>
      <trkpt lat="37.895213" lon="-3.012640">
        <ele>1122.0</ele>
        <time>1989-12-30T23:59:59Z</time>
      </trkpt>
      <trkpt lat="37.895111" lon="-3.012639">
        <ele>1122.5</ele>
        <time>1989-12-30T23:59:59Z</time>
      </trkpt>
      <trkpt lat="37.895012" lon="-3.012616">
        <ele>1123.0</ele>
        <time>1989-12-30T23:59:59Z</time>
      </trkpt>
      <trkpt lat="37.894905" lon="-3.012637">
        <ele>1124.4</ele>
        <time>1989-12-30T23:59:59Z</time>
      </trkpt>
      <trkpt lat="37.894819" lon="-3.012665">
        <ele>1126.3</ele>
        <time>1989-12-30T23:59:59Z</time>
      </trkpt>
      <trkpt lat="37.894722" lon="-3.012669">
        <ele>1127.8</ele>
        <time>1989-12-30T23:59:59Z</time>
      </trkpt>
      <trkpt lat="37.894607" lon="-3.012686">
        <ele>1128.7</ele>
        <time>1989-12-30T23:59:59Z</time>
      </trkpt>
      <trkpt lat="37.894508" lon="-3.012703">
        <ele>1130.2</ele>
        <time>1989-12-30T23:59:59Z</time>
      </trkpt>
      <trkpt lat="37.894400" lon="-3.012753">
        <ele>1132.1</ele>
        <time>1989-12-30T23:59:59Z</time>
      </trkpt>
      <trkpt lat="37.894316" lon="-3.012814">
        <ele>1133.5</ele>
        <time>1989-12-30T23:59:59Z</time>
      </trkpt>
      <trkpt lat="37.894225" lon="-3.012857">
        <ele>1135.5</ele>
        <time>1989-12-30T23:59:59Z</time>
      </trkpt>
      <trkpt lat="37.894136" lon="-3.012889">
        <ele>1136.9</ele>
        <time>1989-12-30T23:59:59Z</time>
      </trkpt>
      <trkpt lat="37.894032" lon="-3.012938">
        <ele>1140.3</ele>
        <time>1989-12-30T23:59:59Z</time>
      </trkpt>
      <trkpt lat="37.893934" lon="-3.012975">
        <ele>1142.2</ele>
        <time>1989-12-30T23:59:59Z</time>
      </trkpt>
      <trkpt lat="37.893814" lon="-3.013022">
        <ele>1143.6</ele>
        <time>1989-12-30T23:59:59Z</time>
      </trkpt>
      <trkpt lat="37.893724" lon="-3.013067">
        <ele>1145.1</ele>
        <time>1989-12-30T23:59:59Z</time>
      </trkpt>
      <trkpt lat="37.893617" lon="-3.013124">
        <ele>1146.5</ele>
        <time>1989-12-30T23:59:59Z</time>
      </trkpt>
      <trkpt lat="37.893537" lon="-3.013188">
        <ele>1148.4</ele>
        <time>1989-12-30T23:59:59Z</time>
      </trkpt>
      <trkpt lat="37.893467" lon="-3.013260">
        <ele>1149.4</ele>
        <time>1989-12-30T23:59:59Z</time>
      </trkpt>
      <trkpt lat="37.893392" lon="-3.013342">
        <ele>1151.3</ele>
        <time>1989-12-30T23:59:59Z</time>
      </trkpt>
      <trkpt lat="37.893300" lon="-3.013413">
        <ele>1148.4</ele>
        <time>1989-12-30T23:59:59Z</time>
      </trkpt>
      <trkpt lat="37.893205" lon="-3.013442">
        <ele>1150.8</ele>
        <time>1989-12-30T23:59:59Z</time>
      </trkpt>
      <trkpt lat="37.893095" lon="-3.013450">
        <ele>1151.8</ele>
        <time>1989-12-30T23:59:59Z</time>
      </trkpt>
      <trkpt lat="37.892983" lon="-3.013451">
        <ele>1152.3</ele>
        <time>1989-12-30T23:59:59Z</time>
      </trkpt>
      <trkpt lat="37.892897" lon="-3.013434">
        <ele>1154.7</ele>
        <time>1989-12-30T23:59:59Z</time>
      </trkpt>
      <trkpt lat="37.892814" lon="-3.013458">
        <ele>1159.0</ele>
        <time>1989-12-30T23:59:59Z</time>
      </trkpt>
      <trkpt lat="37.892717" lon="-3.013472">
        <ele>1160.0</ele>
        <time>1989-12-30T23:59:59Z</time>
      </trkpt>
      <trkpt lat="37.892573" lon="-3.013494">
        <ele>1161.9</ele>
        <time>1989-12-30T23:59:59Z</time>
      </trkpt>
      <trkpt lat="37.892510" lon="-3.013508">
        <ele>1162.9</ele>
        <time>1989-12-30T23:59:59Z</time>
      </trkpt>
      <trkpt lat="37.892332" lon="-3.013483">
        <ele>1163.3</ele>
        <time>1989-12-30T23:59:59Z</time>
      </trkpt>
      <trkpt lat="37.892079" lon="-3.013369">
        <ele>1165.3</ele>
        <time>1989-12-30T23:59:59Z</time>
      </trkpt>
      <trkpt lat="37.891999" lon="-3.013210">
        <ele>1164.8</ele>
        <time>1989-12-30T23:59:59Z</time>
      </trkpt>
      <trkpt lat="37.891939" lon="-3.013075">
        <ele>1164.8</ele>
        <time>1989-12-30T23:59:59Z</time>
      </trkpt>
      <trkpt lat="37.891882" lon="-3.012945">
        <ele>1164.8</ele>
        <time>1989-12-30T23:59:59Z</time>
      </trkpt>
      <trkpt lat="37.891822" lon="-3.012827">
        <ele>1165.7</ele>
        <time>1989-12-30T23:59:59Z</time>
      </trkpt>
      <trkpt lat="37.891762" lon="-3.012709">
        <ele>1163.3</ele>
        <time>1989-12-30T23:59:59Z</time>
      </trkpt>
      <trkpt lat="37.891693" lon="-3.012606">
        <ele>1159.0</ele>
        <time>1989-12-30T23:59:59Z</time>
      </trkpt>
      <trkpt lat="37.891598" lon="-3.012603">
        <ele>1159.5</ele>
        <time>1989-12-30T23:59:59Z</time>
      </trkpt>
      <trkpt lat="37.891503" lon="-3.012578">
        <ele>1159.0</ele>
        <time>1989-12-30T23:59:59Z</time>
      </trkpt>
      <trkpt lat="37.891420" lon="-3.012531">
        <ele>1158.5</ele>
        <time>1989-12-30T23:59:59Z</time>
      </trkpt>
      <trkpt lat="37.891334" lon="-3.012480">
        <ele>1157.6</ele>
        <time>1989-12-30T23:59:59Z</time>
      </trkpt>
      <trkpt lat="37.891243" lon="-3.012460">
        <ele>1156.6</ele>
        <time>1989-12-30T23:59:59Z</time>
      </trkpt>
      <trkpt lat="37.891153" lon="-3.012477">
        <ele>1155.6</ele>
        <time>1989-12-30T23:59:59Z</time>
      </trkpt>
      <trkpt lat="37.891060" lon="-3.012502">
        <ele>1155.6</ele>
        <time>1989-12-30T23:59:59Z</time>
      </trkpt>
      <trkpt lat="37.890972" lon="-3.012534">
        <ele>1155.6</ele>
        <time>1989-12-30T23:59:59Z</time>
      </trkpt>
      <trkpt lat="37.890876" lon="-3.012558">
        <ele>1155.2</ele>
        <time>1989-12-30T23:59:59Z</time>
      </trkpt>
      <trkpt lat="37.890772" lon="-3.012544">
        <ele>1158.0</ele>
        <time>1989-12-30T23:59:59Z</time>
      </trkpt>
      <trkpt lat="37.890701" lon="-3.012503">
        <ele>1159.5</ele>
        <time>1989-12-30T23:59:59Z</time>
      </trkpt>
      <trkpt lat="37.890622" lon="-3.012438">
        <ele>1159.0</ele>
        <time>1989-12-30T23:59:59Z</time>
      </trkpt>
      <trkpt lat="37.890472" lon="-3.012452">
        <ele>1153.7</ele>
        <time>1989-12-30T23:59:59Z</time>
      </trkpt>
      <trkpt lat="37.890346" lon="-3.012457">
        <ele>1159.0</ele>
        <time>1989-12-30T23:59:59Z</time>
      </trkpt>
      <trkpt lat="37.890168" lon="-3.012409">
        <ele>1167.2</ele>
        <time>1989-12-30T23:59:59Z</time>
      </trkpt>
      <trkpt lat="37.890129" lon="-3.012505">
        <ele>1167.2</ele>
        <time>1989-12-30T23:59:59Z</time>
      </trkpt>
      <trkpt lat="37.890094" lon="-3.012624">
        <ele>1167.7</ele>
        <time>1989-12-30T23:59:59Z</time>
      </trkpt>
      <trkpt lat="37.890095" lon="-3.012745">
        <ele>1169.1</ele>
        <time>1989-12-30T23:59:59Z</time>
      </trkpt>
      <trkpt lat="37.890132" lon="-3.012814">
        <ele>1170.1</ele>
        <time>1989-12-30T23:59:59Z</time>
      </trkpt>
      <trkpt lat="37.890149" lon="-3.012947">
        <ele>1170.5</ele>
        <time>1989-12-30T23:59:59Z</time>
      </trkpt>
      <trkpt lat="37.890170" lon="-3.013067">
        <ele>1172.0</ele>
        <time>1989-12-30T23:59:59Z</time>
      </trkpt>
      <trkpt lat="37.890201" lon="-3.013182">
        <ele>1172.5</ele>
        <time>1989-12-30T23:59:59Z</time>
      </trkpt>
      <trkpt lat="37.890234" lon="-3.013306">
        <ele>1174.4</ele>
        <time>1989-12-30T23:59:59Z</time>
      </trkpt>
      <trkpt lat="37.890268" lon="-3.013437">
        <ele>1173.4</ele>
        <time>1989-12-30T23:59:59Z</time>
      </trkpt>
      <trkpt lat="37.890298" lon="-3.013563">
        <ele>1175.3</ele>
        <time>1989-12-30T23:59:59Z</time>
      </trkpt>
      <trkpt lat="37.890320" lon="-3.013694">
        <ele>1176.3</ele>
        <time>1989-12-30T23:59:59Z</time>
      </trkpt>
      <trkpt lat="37.890335" lon="-3.013825">
        <ele>1177.8</ele>
        <time>1989-12-30T23:59:59Z</time>
      </trkpt>
      <trkpt lat="37.890329" lon="-3.013949">
        <ele>1179.7</ele>
        <time>1989-12-30T23:59:59Z</time>
      </trkpt>
      <trkpt lat="37.890320" lon="-3.014065">
        <ele>1180.2</ele>
        <time>1989-12-30T23:59:59Z</time>
      </trkpt>
      <trkpt lat="37.890304" lon="-3.014173">
        <ele>1181.1</ele>
        <time>1989-12-30T23:59:59Z</time>
      </trkpt>
      <trkpt lat="37.890290" lon="-3.014285">
        <ele>1182.1</ele>
        <time>1989-12-30T23:59:59Z</time>
      </trkpt>
      <trkpt lat="37.890279" lon="-3.014400">
        <ele>1183.5</ele>
        <time>1989-12-30T23:59:59Z</time>
      </trkpt>
      <trkpt lat="37.890261" lon="-3.014515">
        <ele>1184.5</ele>
        <time>1989-12-30T23:59:59Z</time>
      </trkpt>
      <trkpt lat="37.890217" lon="-3.014616">
        <ele>1186.4</ele>
        <time>1989-12-30T23:59:59Z</time>
      </trkpt>
      <trkpt lat="37.890165" lon="-3.014715">
        <ele>1188.8</ele>
        <time>1989-12-30T23:59:59Z</time>
      </trkpt>
      <trkpt lat="37.890113" lon="-3.014809">
        <ele>1190.2</ele>
        <time>1989-12-30T23:59:59Z</time>
      </trkpt>
      <trkpt lat="37.890049" lon="-3.014892">
        <ele>1191.2</ele>
        <time>1989-12-30T23:59:59Z</time>
      </trkpt>
      <trkpt lat="37.889955" lon="-3.014933">
        <ele>1192.7</ele>
        <time>1989-12-30T23:59:59Z</time>
      </trkpt>
      <trkpt lat="37.889940" lon="-3.014934">
        <ele>1194.1</ele>
        <time>1989-12-30T23:59:59Z</time>
      </trkpt>
      <trkpt lat="37.889805" lon="-3.014970">
        <ele>1193.6</ele>
        <time>1989-12-30T23:59:59Z</time>
      </trkpt>
      <trkpt lat="37.889679" lon="-3.015006">
        <ele>1195.1</ele>
        <time>1989-12-30T23:59:59Z</time>
      </trkpt>
      <trkpt lat="37.889565" lon="-3.015008">
        <ele>1195.1</ele>
        <time>1989-12-30T23:59:59Z</time>
      </trkpt>
      <trkpt lat="37.889391" lon="-3.015074">
        <ele>1197.9</ele>
        <time>1989-12-30T23:59:59Z</time>
      </trkpt>
      <trkpt lat="37.889175" lon="-3.015155">
        <ele>1206.6</ele>
        <time>1989-12-30T23:59:59Z</time>
      </trkpt>
      <trkpt lat="37.889084" lon="-3.015175">
        <ele>1206.6</ele>
        <time>1989-12-30T23:59:59Z</time>
      </trkpt>
      <trkpt lat="37.888991" lon="-3.015182">
        <ele>1206.6</ele>
        <time>1989-12-30T23:59:59Z</time>
      </trkpt>
      <trkpt lat="37.888901" lon="-3.015204">
        <ele>1206.6</ele>
        <time>1989-12-30T23:59:59Z</time>
      </trkpt>
      <trkpt lat="37.888807" lon="-3.015241">
        <ele>1206.6</ele>
        <time>1989-12-30T23:59:59Z</time>
      </trkpt>
      <trkpt lat="37.888722" lon="-3.015265">
        <ele>1209.5</ele>
        <time>1989-12-30T23:59:59Z</time>
      </trkpt>
      <trkpt lat="37.888627" lon="-3.015311">
        <ele>1210.9</ele>
        <time>1989-12-30T23:59:59Z</time>
      </trkpt>
      <trkpt lat="37.888536" lon="-3.015346">
        <ele>1212.4</ele>
        <time>1989-12-30T23:59:59Z</time>
      </trkpt>
      <trkpt lat="37.888452" lon="-3.015380">
        <ele>1212.4</ele>
        <time>1989-12-30T23:59:59Z</time>
      </trkpt>
      <trkpt lat="37.888353" lon="-3.015402">
        <ele>1215.7</ele>
        <time>1989-12-30T23:59:59Z</time>
      </trkpt>
      <trkpt lat="37.888254" lon="-3.015443">
        <ele>1217.6</ele>
        <time>1989-12-30T23:59:59Z</time>
      </trkpt>
      <trkpt lat="37.888165" lon="-3.015469">
        <ele>1218.1</ele>
        <time>1989-12-30T23:59:59Z</time>
      </trkpt>
      <trkpt lat="37.888079" lon="-3.015484">
        <ele>1216.7</ele>
        <time>1989-12-30T23:59:59Z</time>
      </trkpt>
      <trkpt lat="37.887987" lon="-3.015522">
        <ele>1216.7</ele>
        <time>1989-12-30T23:59:59Z</time>
      </trkpt>
      <trkpt lat="37.887901" lon="-3.015548">
        <ele>1218.6</ele>
        <time>1989-12-30T23:59:59Z</time>
      </trkpt>
      <trkpt lat="37.887808" lon="-3.015564">
        <ele>1218.1</ele>
        <time>1989-12-30T23:59:59Z</time>
      </trkpt>
      <trkpt lat="37.887738" lon="-3.015539">
        <ele>1220.1</ele>
        <time>1989-12-30T23:59:59Z</time>
      </trkpt>
      <trkpt lat="37.887740" lon="-3.015532">
        <ele>1222.0</ele>
        <time>1989-12-30T23:59:59Z</time>
      </trkpt>
      <trkpt lat="37.887738" lon="-3.015535">
        <ele>1222.0</ele>
        <time>1989-12-30T23:59:59Z</time>
      </trkpt>
      <trkpt lat="37.887747" lon="-3.015454">
        <ele>1225.3</ele>
        <time>1989-12-30T23:59:59Z</time>
      </trkpt>
      <trkpt lat="37.887793" lon="-3.015351">
        <ele>1225.8</ele>
        <time>1989-12-30T23:59:59Z</time>
      </trkpt>
      <trkpt lat="37.887869" lon="-3.015062">
        <ele>1222.5</ele>
        <time>1989-12-30T23:59:59Z</time>
      </trkpt>
      <trkpt lat="37.887894" lon="-3.014816">
        <ele>1223.9</ele>
        <time>1989-12-30T23:59:59Z</time>
      </trkpt>
      <trkpt lat="37.887797" lon="-3.014789">
        <ele>1230.1</ele>
        <time>1989-12-30T23:59:59Z</time>
      </trkpt>
      <trkpt lat="37.887578" lon="-3.014904">
        <ele>1231.1</ele>
        <time>1989-12-30T23:59:59Z</time>
      </trkpt>
      <trkpt lat="37.887506" lon="-3.014990">
        <ele>1235.9</ele>
        <time>1989-12-30T23:59:59Z</time>
      </trkpt>
      <trkpt lat="37.887427" lon="-3.015033">
        <ele>1237.4</ele>
        <time>1989-12-30T23:59:59Z</time>
      </trkpt>
      <trkpt lat="37.887341" lon="-3.015052">
        <ele>1238.8</ele>
        <time>1989-12-30T23:59:59Z</time>
      </trkpt>
      <trkpt lat="37.887241" lon="-3.015062">
        <ele>1242.6</ele>
        <time>1989-12-30T23:59:59Z</time>
      </trkpt>
      <trkpt lat="37.887142" lon="-3.015053">
        <ele>1245.5</ele>
        <time>1989-12-30T23:59:59Z</time>
      </trkpt>
      <trkpt lat="37.887042" lon="-3.015026">
        <ele>1246.0</ele>
        <time>1989-12-30T23:59:59Z</time>
      </trkpt>
      <trkpt lat="37.886942" lon="-3.014991">
        <ele>1246.5</ele>
        <time>1989-12-30T23:59:59Z</time>
      </trkpt>
      <trkpt lat="37.886851" lon="-3.014943">
        <ele>1247.9</ele>
        <time>1989-12-30T23:59:59Z</time>
      </trkpt>
      <trkpt lat="37.886680" lon="-3.014814">
        <ele>1249.4</ele>
        <time>1989-12-30T23:59:59Z</time>
      </trkpt>
      <trkpt lat="37.886617" lon="-3.014733">
        <ele>1248.4</ele>
        <time>1989-12-30T23:59:59Z</time>
      </trkpt>
      <trkpt lat="37.886541" lon="-3.014660">
        <ele>1249.4</ele>
        <time>1989-12-30T23:59:59Z</time>
      </trkpt>
      <trkpt lat="37.886450" lon="-3.014587">
        <ele>1249.9</ele>
        <time>1989-12-30T23:59:59Z</time>
      </trkpt>
      <trkpt lat="37.886376" lon="-3.014522">
        <ele>1249.4</ele>
        <time>1989-12-30T23:59:59Z</time>
      </trkpt>
      <trkpt lat="37.886308" lon="-3.014439">
        <ele>1250.8</ele>
        <time>1989-12-30T23:59:59Z</time>
      </trkpt>
      <trkpt lat="37.886238" lon="-3.014362">
        <ele>1252.7</ele>
        <time>1989-12-30T23:59:59Z</time>
      </trkpt>
      <trkpt lat="37.886155" lon="-3.014292">
        <ele>1254.7</ele>
        <time>1989-12-30T23:59:59Z</time>
      </trkpt>
      <trkpt lat="37.886074" lon="-3.014215">
        <ele>1257.1</ele>
        <time>1989-12-30T23:59:59Z</time>
      </trkpt>
      <trkpt lat="37.886007" lon="-3.014155">
        <ele>1255.1</ele>
        <time>1989-12-30T23:59:59Z</time>
      </trkpt>
      <trkpt lat="37.885932" lon="-3.014088">
        <ele>1258.0</ele>
        <time>1989-12-30T23:59:59Z</time>
      </trkpt>
      <trkpt lat="37.885833" lon="-3.014016">
        <ele>1261.4</ele>
        <time>1989-12-30T23:59:59Z</time>
      </trkpt>
      <trkpt lat="37.885743" lon="-3.013931">
        <ele>1263.3</ele>
        <time>1989-12-30T23:59:59Z</time>
      </trkpt>
      <trkpt lat="37.885660" lon="-3.013850">
        <ele>1264.3</ele>
        <time>1989-12-30T23:59:59Z</time>
      </trkpt>
      <trkpt lat="37.885583" lon="-3.013766">
        <ele>1265.7</ele>
        <time>1989-12-30T23:59:59Z</time>
      </trkpt>
      <trkpt lat="37.885581" lon="-3.013701">
        <ele>1267.6</ele>
        <time>1989-12-30T23:59:59Z</time>
      </trkpt>
      <trkpt lat="37.885653" lon="-3.013671">
        <ele>1271.0</ele>
        <time>1989-12-30T23:59:59Z</time>
      </trkpt>
      <trkpt lat="37.885582" lon="-3.013617">
        <ele>1272.0</ele>
        <time>1989-12-30T23:59:59Z</time>
      </trkpt>
      <trkpt lat="37.885487" lon="-3.013590">
        <ele>1272.4</ele>
        <time>1989-12-30T23:59:59Z</time>
      </trkpt>
      <trkpt lat="37.885391" lon="-3.013542">
        <ele>1272.0</ele>
        <time>1989-12-30T23:59:59Z</time>
      </trkpt>
      <trkpt lat="37.885299" lon="-3.013505">
        <ele>1272.9</ele>
        <time>1989-12-30T23:59:59Z</time>
      </trkpt>
      <trkpt lat="37.885209" lon="-3.013456">
        <ele>1274.8</ele>
        <time>1989-12-30T23:59:59Z</time>
      </trkpt>
      <trkpt lat="37.885124" lon="-3.013394">
        <ele>1276.8</ele>
        <time>1989-12-30T23:59:59Z</time>
      </trkpt>
      <trkpt lat="37.885066" lon="-3.013321">
        <ele>1277.2</ele>
        <time>1989-12-30T23:59:59Z</time>
      </trkpt>
      <trkpt lat="37.885032" lon="-3.013208">
        <ele>1279.7</ele>
        <time>1989-12-30T23:59:59Z</time>
      </trkpt>
      <trkpt lat="37.884991" lon="-3.013099">
        <ele>1281.1</ele>
        <time>1989-12-30T23:59:59Z</time>
      </trkpt>
      <trkpt lat="37.884952" lon="-3.013006">
        <ele>1282.5</ele>
        <time>1989-12-30T23:59:59Z</time>
      </trkpt>
      <trkpt lat="37.884951" lon="-3.012885">
        <ele>1282.5</ele>
        <time>1989-12-30T23:59:59Z</time>
      </trkpt>
      <trkpt lat="37.884974" lon="-3.012749">
        <ele>1282.5</ele>
        <time>1989-12-30T23:59:59Z</time>
      </trkpt>
      <trkpt lat="37.885035" lon="-3.012635">
        <ele>1282.5</ele>
        <time>1989-12-30T23:59:59Z</time>
      </trkpt>
      <trkpt lat="37.885110" lon="-3.012551">
        <ele>1282.5</ele>
        <time>1989-12-30T23:59:59Z</time>
      </trkpt>
      <trkpt lat="37.885185" lon="-3.012478">
        <ele>1282.5</ele>
        <time>1989-12-30T23:59:59Z</time>
      </trkpt>
      <trkpt lat="37.885272" lon="-3.012402">
        <ele>1282.1</ele>
        <time>1989-12-30T23:59:59Z</time>
      </trkpt>
      <trkpt lat="37.885346" lon="-3.012308">
        <ele>1281.6</ele>
        <time>1989-12-30T23:59:59Z</time>
      </trkpt>
      <trkpt lat="37.885387" lon="-3.012193">
        <ele>1285.9</ele>
        <time>1989-12-30T23:59:59Z</time>
      </trkpt>
      <trkpt lat="37.885434" lon="-3.012070">
        <ele>1286.9</ele>
        <time>1989-12-30T23:59:59Z</time>
      </trkpt>
      <trkpt lat="37.885492" lon="-3.011956">
        <ele>1287.3</ele>
        <time>1989-12-30T23:59:59Z</time>
      </trkpt>
      <trkpt lat="37.885600" lon="-3.011605">
        <ele>1294.1</ele>
        <time>1989-12-30T23:59:59Z</time>
      </trkpt>
      <trkpt lat="37.885592" lon="-3.011473">
        <ele>1295.0</ele>
        <time>1989-12-30T23:59:59Z</time>
      </trkpt>
      <trkpt lat="37.885572" lon="-3.011354">
        <ele>1295.0</ele>
        <time>1989-12-30T23:59:59Z</time>
      </trkpt>
      <trkpt lat="37.885546" lon="-3.011243">
        <ele>1296.0</ele>
        <time>1989-12-30T23:59:59Z</time>
      </trkpt>
      <trkpt lat="37.885511" lon="-3.011129">
        <ele>1297.4</ele>
        <time>1989-12-30T23:59:59Z</time>
      </trkpt>
      <trkpt lat="37.885472" lon="-3.011020">
        <ele>1297.9</ele>
        <time>1989-12-30T23:59:59Z</time>
      </trkpt>
      <trkpt lat="37.885423" lon="-3.010915">
        <ele>1298.9</ele>
        <time>1989-12-30T23:59:59Z</time>
      </trkpt>
      <trkpt lat="37.885373" lon="-3.010820">
        <ele>1299.8</ele>
        <time>1989-12-30T23:59:59Z</time>
      </trkpt>
      <trkpt lat="37.885326" lon="-3.010734">
        <ele>1300.8</ele>
        <time>1989-12-30T23:59:59Z</time>
      </trkpt>
      <trkpt lat="37.885276" lon="-3.010647">
        <ele>1300.8</ele>
        <time>1989-12-30T23:59:59Z</time>
      </trkpt>
      <trkpt lat="37.885238" lon="-3.010539">
        <ele>1301.3</ele>
        <time>1989-12-30T23:59:59Z</time>
      </trkpt>
      <trkpt lat="37.885259" lon="-3.010429">
        <ele>1301.3</ele>
        <time>1989-12-30T23:59:59Z</time>
      </trkpt>
      <trkpt lat="37.885450" lon="-3.009973">
        <ele>1303.7</ele>
        <time>1989-12-30T23:59:59Z</time>
      </trkpt>
      <trkpt lat="37.885662" lon="-3.009405">
        <ele>1303.7</ele>
        <time>1989-12-30T23:59:59Z</time>
      </trkpt>
      <trkpt lat="37.885647" lon="-3.008378">
        <ele>1327.2</ele>
        <time>1989-12-30T23:59:59Z</time>
      </trkpt>
      <trkpt lat="37.885823" lon="-3.007731">
        <ele>1327.2</ele>
        <time>1989-12-30T23:59:59Z</time>
      </trkpt>
      <trkpt lat="37.885766" lon="-3.007450">
        <ele>1305.6</ele>
        <time>1989-12-30T23:59:59Z</time>
      </trkpt>
      <trkpt lat="37.885631" lon="-3.007227">
        <ele>1311.9</ele>
        <time>1989-12-30T23:59:59Z</time>
      </trkpt>
      <trkpt lat="37.885533" lon="-3.006750">
        <ele>1310.9</ele>
        <time>1989-12-30T23:59:59Z</time>
      </trkpt>
      <trkpt lat="37.885310" lon="-3.006547">
        <ele>1316.2</ele>
        <time>1989-12-30T23:59:59Z</time>
      </trkpt>
      <trkpt lat="37.885096" lon="-3.006424">
        <ele>1317.1</ele>
        <time>1989-12-30T23:59:59Z</time>
      </trkpt>
      <trkpt lat="37.884993" lon="-3.006387">
        <ele>1320.0</ele>
        <time>1989-12-30T23:59:59Z</time>
      </trkpt>
      <trkpt lat="37.884882" lon="-3.006366">
        <ele>1325.3</ele>
        <time>1989-12-30T23:59:59Z</time>
      </trkpt>
      <trkpt lat="37.884671" lon="-3.006302">
        <ele>1329.2</ele>
        <time>1989-12-30T23:59:59Z</time>
      </trkpt>
      <trkpt lat="37.884584" lon="-3.006294">
        <ele>1331.6</ele>
        <time>1989-12-30T23:59:59Z</time>
      </trkpt>
      <trkpt lat="37.884489" lon="-3.006308">
        <ele>1335.4</ele>
        <time>1989-12-30T23:59:59Z</time>
      </trkpt>
      <trkpt lat="37.884384" lon="-3.006328">
        <ele>1341.2</ele>
        <time>1989-12-30T23:59:59Z</time>
      </trkpt>
      <trkpt lat="37.884293" lon="-3.006390">
        <ele>1343.6</ele>
        <time>1989-12-30T23:59:59Z</time>
      </trkpt>
      <trkpt lat="37.884207" lon="-3.006438">
        <ele>1343.6</ele>
        <time>1989-12-30T23:59:59Z</time>
      </trkpt>
      <trkpt lat="37.884107" lon="-3.006488">
        <ele>1346.5</ele>
        <time>1989-12-30T23:59:59Z</time>
      </trkpt>
      <trkpt lat="37.884015" lon="-3.006521">
        <ele>1346.9</ele>
        <time>1989-12-30T23:59:59Z</time>
      </trkpt>
      <trkpt lat="37.883930" lon="-3.006564">
        <ele>1350.3</ele>
        <time>1989-12-30T23:59:59Z</time>
      </trkpt>
      <trkpt lat="37.883813" lon="-3.006599">
        <ele>1350.3</ele>
        <time>1989-12-30T23:59:59Z</time>
      </trkpt>
      <trkpt lat="37.883752" lon="-3.006717">
        <ele>1355.1</ele>
        <time>1989-12-30T23:59:59Z</time>
      </trkpt>
      <trkpt lat="37.883722" lon="-3.006849">
        <ele>1359.9</ele>
        <time>1989-12-30T23:59:59Z</time>
      </trkpt>
      <trkpt lat="37.883682" lon="-3.006983">
        <ele>1363.3</ele>
        <time>1989-12-30T23:59:59Z</time>
      </trkpt>
      <trkpt lat="37.883645" lon="-3.007096">
        <ele>1364.7</ele>
        <time>1989-12-30T23:59:59Z</time>
      </trkpt>
      <trkpt lat="37.883629" lon="-3.007225">
        <ele>1365.7</ele>
        <time>1989-12-30T23:59:59Z</time>
      </trkpt>
      <trkpt lat="37.883729" lon="-3.007592">
        <ele>1371.0</ele>
        <time>1989-12-30T23:59:59Z</time>
      </trkpt>
      <trkpt lat="37.883722" lon="-3.007785">
        <ele>1374.8</ele>
        <time>1989-12-30T23:59:59Z</time>
      </trkpt>
      <trkpt lat="37.883739" lon="-3.007904">
        <ele>1375.8</ele>
        <time>1989-12-30T23:59:59Z</time>
      </trkpt>
      <trkpt lat="37.883747" lon="-3.008016">
        <ele>1375.3</ele>
        <time>1989-12-30T23:59:59Z</time>
      </trkpt>
      <trkpt lat="37.883683" lon="-3.008103">
        <ele>1375.3</ele>
        <time>1989-12-30T23:59:59Z</time>
      </trkpt>
      <trkpt lat="37.883584" lon="-3.008227">
        <ele>1376.3</ele>
        <time>1989-12-30T23:59:59Z</time>
      </trkpt>
      <trkpt lat="37.883429" lon="-3.008358">
        <ele>1373.4</ele>
        <time>1989-12-30T23:59:59Z</time>
      </trkpt>
      <trkpt lat="37.883279" lon="-3.008456">
        <ele>1371.5</ele>
        <time>1989-12-30T23:59:59Z</time>
      </trkpt>
      <trkpt lat="37.883139" lon="-3.008535">
        <ele>1372.4</ele>
        <time>1989-12-30T23:59:59Z</time>
      </trkpt>
      <trkpt lat="37.882963" lon="-3.008593">
        <ele>1372.4</ele>
        <time>1989-12-30T23:59:59Z</time>
      </trkpt>
      <trkpt lat="37.882750" lon="-3.008561">
        <ele>1372.4</ele>
        <time>1989-12-30T23:59:59Z</time>
      </trkpt>
      <trkpt lat="37.882636" lon="-3.008541">
        <ele>1371.9</ele>
        <time>1989-12-30T23:59:59Z</time>
      </trkpt>
      <trkpt lat="37.882538" lon="-3.008522">
        <ele>1371.9</ele>
        <time>1989-12-30T23:59:59Z</time>
      </trkpt>
      <trkpt lat="37.882465" lon="-3.008489">
        <ele>1371.0</ele>
        <time>1989-12-30T23:59:59Z</time>
      </trkpt>
      <trkpt lat="37.882398" lon="-3.008476">
        <ele>1370.0</ele>
        <time>1989-12-30T23:59:59Z</time>
      </trkpt>
      <trkpt lat="37.882305" lon="-3.008319">
        <ele>1368.1</ele>
        <time>1989-12-30T23:59:59Z</time>
      </trkpt>
      <trkpt lat="37.882196" lon="-3.007946">
        <ele>1368.1</ele>
        <time>1989-12-30T23:59:59Z</time>
      </trkpt>
      <trkpt lat="37.881973" lon="-3.007593">
        <ele>1367.6</ele>
        <time>1989-12-30T23:59:59Z</time>
      </trkpt>
      <trkpt lat="37.881895" lon="-3.007319">
        <ele>1367.6</ele>
        <time>1989-12-30T23:59:59Z</time>
      </trkpt>
      <trkpt lat="37.881584" lon="-3.007364">
        <ele>1366.7</ele>
        <time>1989-12-30T23:59:59Z</time>
      </trkpt>
      <trkpt lat="37.881217" lon="-3.007685">
        <ele>1366.7</ele>
        <time>1989-12-30T23:59:59Z</time>
      </trkpt>
      <trkpt lat="37.880926" lon="-3.007900">
        <ele>1366.2</ele>
        <time>1989-12-30T23:59:59Z</time>
      </trkpt>
      <trkpt lat="37.880740" lon="-3.008031">
        <ele>1366.2</ele>
        <time>1989-12-30T23:59:59Z</time>
      </trkpt>
      <trkpt lat="37.880512" lon="-3.008011">
        <ele>1366.7</ele>
        <time>1989-12-30T23:59:59Z</time>
      </trkpt>
      <trkpt lat="37.880357" lon="-3.008018">
        <ele>1366.2</ele>
        <time>1989-12-30T23:59:59Z</time>
      </trkpt>
      <trkpt lat="37.880253" lon="-3.008018">
        <ele>1365.7</ele>
        <time>1989-12-30T23:59:59Z</time>
      </trkpt>
      <trkpt lat="37.880154" lon="-3.007979">
        <ele>1366.2</ele>
        <time>1989-12-30T23:59:59Z</time>
      </trkpt>
      <trkpt lat="37.880056" lon="-3.007946">
        <ele>1365.7</ele>
        <time>1989-12-30T23:59:59Z</time>
      </trkpt>
      <trkpt lat="37.879963" lon="-3.007907">
        <ele>1366.2</ele>
        <time>1989-12-30T23:59:59Z</time>
      </trkpt>
      <trkpt lat="37.879787" lon="-3.007848">
        <ele>1366.2</ele>
        <time>1989-12-30T23:59:59Z</time>
      </trkpt>
      <trkpt lat="37.879559" lon="-3.007710">
        <ele>1365.7</ele>
        <time>1989-12-30T23:59:59Z</time>
      </trkpt>
      <trkpt lat="37.879450" lon="-3.007567">
        <ele>1365.7</ele>
        <time>1989-12-30T23:59:59Z</time>
      </trkpt>
      <trkpt lat="37.879356" lon="-3.007423">
        <ele>1364.7</ele>
        <time>1989-12-30T23:59:59Z</time>
      </trkpt>
      <trkpt lat="37.879300" lon="-3.007377">
        <ele>1364.7</ele>
        <time>1989-12-30T23:59:59Z</time>
      </trkpt>
      <trkpt lat="37.879232" lon="-3.007187">
        <ele>1364.7</ele>
        <time>1989-12-30T23:59:59Z</time>
      </trkpt>
      <trkpt lat="37.879191" lon="-3.006998">
        <ele>1364.2</ele>
        <time>1989-12-30T23:59:59Z</time>
      </trkpt>
      <trkpt lat="37.879186" lon="-3.006841">
        <ele>1363.3</ele>
        <time>1989-12-30T23:59:59Z</time>
      </trkpt>
      <trkpt lat="37.879180" lon="-3.006671">
        <ele>1362.3</ele>
        <time>1989-12-30T23:59:59Z</time>
      </trkpt>
      <trkpt lat="37.879180" lon="-3.006534">
        <ele>1361.4</ele>
        <time>1989-12-30T23:59:59Z</time>
      </trkpt>
      <trkpt lat="37.879180" lon="-3.006429">
        <ele>1360.9</ele>
        <time>1989-12-30T23:59:59Z</time>
      </trkpt>
      <trkpt lat="37.879225" lon="-3.006252">
        <ele>1361.4</ele>
        <time>1989-12-30T23:59:59Z</time>
      </trkpt>
      <trkpt lat="37.879254" lon="-3.006084">
        <ele>1359.0</ele>
        <time>1989-12-30T23:59:59Z</time>
      </trkpt>
      <trkpt lat="37.879274" lon="-3.005947">
        <ele>1358.0</ele>
        <time>1989-12-30T23:59:59Z</time>
      </trkpt>
      <trkpt lat="37.879295" lon="-3.005817">
        <ele>1357.0</ele>
        <time>1989-12-30T23:59:59Z</time>
      </trkpt>
      <trkpt lat="37.879311" lon="-3.005697">
        <ele>1356.6</ele>
        <time>1989-12-30T23:59:59Z</time>
      </trkpt>
      <trkpt lat="37.879335" lon="-3.005574">
        <ele>1355.6</ele>
        <time>1989-12-30T23:59:59Z</time>
      </trkpt>
      <trkpt lat="37.879360" lon="-3.005437">
        <ele>1354.6</ele>
        <time>1989-12-30T23:59:59Z</time>
      </trkpt>
      <trkpt lat="37.879371" lon="-3.005296">
        <ele>1354.2</ele>
        <time>1989-12-30T23:59:59Z</time>
      </trkpt>
      <trkpt lat="37.879300" lon="-3.005102">
        <ele>1354.2</ele>
        <time>1989-12-30T23:59:59Z</time>
      </trkpt>
      <trkpt lat="37.879175" lon="-3.005024">
        <ele>1354.2</ele>
        <time>1989-12-30T23:59:59Z</time>
      </trkpt>
      <trkpt lat="37.879041" lon="-3.004932">
        <ele>1354.2</ele>
        <time>1989-12-30T23:59:59Z</time>
      </trkpt>
      <trkpt lat="37.878870" lon="-3.005063">
        <ele>1354.2</ele>
        <time>1989-12-30T23:59:59Z</time>
      </trkpt>
      <trkpt lat="37.878655" lon="-3.005203">
        <ele>1354.6</ele>
        <time>1989-12-30T23:59:59Z</time>
      </trkpt>
      <trkpt lat="37.878553" lon="-3.005211">
        <ele>1354.6</ele>
        <time>1989-12-30T23:59:59Z</time>
      </trkpt>
      <trkpt lat="37.878457" lon="-3.005217">
        <ele>1355.1</ele>
        <time>1989-12-30T23:59:59Z</time>
      </trkpt>
      <trkpt lat="37.878320" lon="-3.005220">
        <ele>1355.6</ele>
        <time>1989-12-30T23:59:59Z</time>
      </trkpt>
      <trkpt lat="37.878224" lon="-3.005205">
        <ele>1355.6</ele>
        <time>1989-12-30T23:59:59Z</time>
      </trkpt>
      <trkpt lat="37.878127" lon="-3.005183">
        <ele>1355.6</ele>
        <time>1989-12-30T23:59:59Z</time>
      </trkpt>
      <trkpt lat="37.878033" lon="-3.005151">
        <ele>1355.1</ele>
        <time>1989-12-30T23:59:59Z</time>
      </trkpt>
      <trkpt lat="37.877964" lon="-3.005075">
        <ele>1355.1</ele>
        <time>1989-12-30T23:59:59Z</time>
      </trkpt>
      <trkpt lat="37.877877" lon="-3.004948">
        <ele>1355.1</ele>
        <time>1989-12-30T23:59:59Z</time>
      </trkpt>
      <trkpt lat="37.877706" lon="-3.004711">
        <ele>1354.2</ele>
        <time>1989-12-30T23:59:59Z</time>
      </trkpt>
      <trkpt lat="37.877577" lon="-3.004753">
        <ele>1354.6</ele>
        <time>1989-12-30T23:59:59Z</time>
      </trkpt>
      <trkpt lat="37.877469" lon="-3.004866">
        <ele>1355.1</ele>
        <time>1989-12-30T23:59:59Z</time>
      </trkpt>
      <trkpt lat="37.877402" lon="-3.004954">
        <ele>1355.1</ele>
        <time>1989-12-30T23:59:59Z</time>
      </trkpt>
      <trkpt lat="37.877299" lon="-3.005077">
        <ele>1355.6</ele>
        <time>1989-12-30T23:59:59Z</time>
      </trkpt>
      <trkpt lat="37.877209" lon="-3.005185">
        <ele>1355.6</ele>
        <time>1989-12-30T23:59:59Z</time>
      </trkpt>
      <trkpt lat="37.877117" lon="-3.005296">
        <ele>1355.6</ele>
        <time>1989-12-30T23:59:59Z</time>
      </trkpt>
      <trkpt lat="37.877021" lon="-3.005414">
        <ele>1355.6</ele>
        <time>1989-12-30T23:59:59Z</time>
      </trkpt>
      <trkpt lat="37.876838" lon="-3.005633">
        <ele>1355.6</ele>
        <time>1989-12-30T23:59:59Z</time>
      </trkpt>
      <trkpt lat="37.876809" lon="-3.005689">
        <ele>1356.1</ele>
        <time>1989-12-30T23:59:59Z</time>
      </trkpt>
      <trkpt lat="37.876771" lon="-3.005751">
        <ele>1355.6</ele>
        <time>1989-12-30T23:59:59Z</time>
      </trkpt>
      <trkpt lat="37.876695" lon="-3.005867">
        <ele>1355.6</ele>
        <time>1989-12-30T23:59:59Z</time>
      </trkpt>
      <trkpt lat="37.876606" lon="-3.005946">
        <ele>1355.6</ele>
        <time>1989-12-30T23:59:59Z</time>
      </trkpt>
      <trkpt lat="37.876526" lon="-3.006021">
        <ele>1355.6</ele>
        <time>1989-12-30T23:59:59Z</time>
      </trkpt>
      <trkpt lat="37.876450" lon="-3.006092">
        <ele>1354.2</ele>
        <time>1989-12-30T23:59:59Z</time>
      </trkpt>
      <trkpt lat="37.876375" lon="-3.006163">
        <ele>1352.2</ele>
        <time>1989-12-30T23:59:59Z</time>
      </trkpt>
      <trkpt lat="37.876294" lon="-3.006250">
        <ele>1351.3</ele>
        <time>1989-12-30T23:59:59Z</time>
      </trkpt>
      <trkpt lat="37.876222" lon="-3.006323">
        <ele>1351.3</ele>
        <time>1989-12-30T23:59:59Z</time>
      </trkpt>
      <trkpt lat="37.876151" lon="-3.006401">
        <ele>1350.8</ele>
        <time>1989-12-30T23:59:59Z</time>
      </trkpt>
      <trkpt lat="37.876068" lon="-3.006466">
        <ele>1349.3</ele>
        <time>1989-12-30T23:59:59Z</time>
      </trkpt>
      <trkpt lat="37.875992" lon="-3.006560">
        <ele>1348.9</ele>
        <time>1989-12-30T23:59:59Z</time>
      </trkpt>
      <trkpt lat="37.875911" lon="-3.006640">
        <ele>1348.4</ele>
        <time>1989-12-30T23:59:59Z</time>
      </trkpt>
      <trkpt lat="37.875828" lon="-3.006702">
        <ele>1348.9</ele>
        <time>1989-12-30T23:59:59Z</time>
      </trkpt>
      <trkpt lat="37.875755" lon="-3.006756">
        <ele>1348.4</ele>
        <time>1989-12-30T23:59:59Z</time>
      </trkpt>
      <trkpt lat="37.875657" lon="-3.006799">
        <ele>1348.4</ele>
        <time>1989-12-30T23:59:59Z</time>
      </trkpt>
      <trkpt lat="37.875556" lon="-3.006817">
        <ele>1348.9</ele>
        <time>1989-12-30T23:59:59Z</time>
      </trkpt>
      <trkpt lat="37.875461" lon="-3.006816">
        <ele>1348.9</ele>
        <time>1989-12-30T23:59:59Z</time>
      </trkpt>
      <trkpt lat="37.875388" lon="-3.006817">
        <ele>1344.5</ele>
        <time>1989-12-30T23:59:59Z</time>
      </trkpt>
      <trkpt lat="37.875275" lon="-3.006780">
        <ele>1344.1</ele>
        <time>1989-12-30T23:59:59Z</time>
      </trkpt>
      <trkpt lat="37.875163" lon="-3.006746">
        <ele>1344.5</ele>
        <time>1989-12-30T23:59:59Z</time>
      </trkpt>
      <trkpt lat="37.875057" lon="-3.006711">
        <ele>1344.5</ele>
        <time>1989-12-30T23:59:59Z</time>
      </trkpt>
      <trkpt lat="37.874941" lon="-3.006677">
        <ele>1345.0</ele>
        <time>1989-12-30T23:59:59Z</time>
      </trkpt>
      <trkpt lat="37.874774" lon="-3.006550">
        <ele>1344.5</ele>
        <time>1989-12-30T23:59:59Z</time>
      </trkpt>
      <trkpt lat="37.874671" lon="-3.006503">
        <ele>1344.1</ele>
        <time>1989-12-30T23:59:59Z</time>
      </trkpt>
      <trkpt lat="37.874571" lon="-3.006446">
        <ele>1343.1</ele>
        <time>1989-12-30T23:59:59Z</time>
      </trkpt>
      <trkpt lat="37.874475" lon="-3.006375">
        <ele>1342.1</ele>
        <time>1989-12-30T23:59:59Z</time>
      </trkpt>
      <trkpt lat="37.874396" lon="-3.006306">
        <ele>1342.6</ele>
        <time>1989-12-30T23:59:59Z</time>
      </trkpt>
      <trkpt lat="37.874319" lon="-3.006239">
        <ele>1342.6</ele>
        <time>1989-12-30T23:59:59Z</time>
      </trkpt>
      <trkpt lat="37.874040" lon="-3.005949">
        <ele>1344.1</ele>
        <time>1989-12-30T23:59:59Z</time>
      </trkpt>
      <trkpt lat="37.873960" lon="-3.005848">
        <ele>1344.5</ele>
        <time>1989-12-30T23:59:59Z</time>
      </trkpt>
      <trkpt lat="37.873891" lon="-3.005759">
        <ele>1345.5</ele>
        <time>1989-12-30T23:59:59Z</time>
      </trkpt>
      <trkpt lat="37.873501" lon="-3.005239">
        <ele>1345.5</ele>
        <time>1989-12-30T23:59:59Z</time>
      </trkpt>
      <trkpt lat="37.873138" lon="-3.004912">
        <ele>1345.5</ele>
        <time>1989-12-30T23:59:59Z</time>
      </trkpt>
      <trkpt lat="37.872957" lon="-3.004690">
        <ele>1345.5</ele>
        <time>1989-12-30T23:59:59Z</time>
      </trkpt>
      <trkpt lat="37.872584" lon="-3.004350">
        <ele>1345.5</ele>
        <time>1989-12-30T23:59:59Z</time>
      </trkpt>
      <trkpt lat="37.872102" lon="-3.004513">
        <ele>1344.5</ele>
        <time>1989-12-30T23:59:59Z</time>
      </trkpt>
      <trkpt lat="37.872019" lon="-3.005049">
        <ele>1305.1</ele>
        <time>1989-12-30T23:59:59Z</time>
      </trkpt>
      <trkpt lat="37.871844" lon="-3.005337">
        <ele>1339.7</ele>
        <time>1989-12-30T23:59:59Z</time>
      </trkpt>
      <trkpt lat="37.871568" lon="-3.005454">
        <ele>1309.5</ele>
        <time>1989-12-30T23:59:59Z</time>
      </trkpt>
      <trkpt lat="37.871702" lon="-3.005623">
        <ele>1310.4</ele>
        <time>1989-12-30T23:59:59Z</time>
      </trkpt>
      <trkpt lat="37.871790" lon="-3.005688">
        <ele>1313.8</ele>
        <time>1989-12-30T23:59:59Z</time>
      </trkpt>
      <trkpt lat="37.871837" lon="-3.005769">
        <ele>1315.2</ele>
        <time>1989-12-30T23:59:59Z</time>
      </trkpt>
      <trkpt lat="37.871882" lon="-3.005875">
        <ele>1316.2</ele>
        <time>1989-12-30T23:59:59Z</time>
      </trkpt>
      <trkpt lat="37.871897" lon="-3.006110">
        <ele>1319.5</ele>
        <time>1989-12-30T23:59:59Z</time>
      </trkpt>
      <trkpt lat="37.871917" lon="-3.006258">
        <ele>1321.5</ele>
        <time>1989-12-30T23:59:59Z</time>
      </trkpt>
      <trkpt lat="37.871958" lon="-3.006375">
        <ele>1321.5</ele>
        <time>1989-12-30T23:59:59Z</time>
      </trkpt>
      <trkpt lat="37.871961" lon="-3.006528">
        <ele>1322.9</ele>
        <time>1989-12-30T23:59:59Z</time>
      </trkpt>
      <trkpt lat="37.871974" lon="-3.006660">
        <ele>1322.9</ele>
        <time>1989-12-30T23:59:59Z</time>
      </trkpt>
      <trkpt lat="37.871977" lon="-3.006784">
        <ele>1322.9</ele>
        <time>1989-12-30T23:59:59Z</time>
      </trkpt>
      <trkpt lat="37.871967" lon="-3.006898">
        <ele>1321.0</ele>
        <time>1989-12-30T23:59:59Z</time>
      </trkpt>
      <trkpt lat="37.871924" lon="-3.006998">
        <ele>1320.0</ele>
        <time>1989-12-30T23:59:59Z</time>
      </trkpt>
      <trkpt lat="37.871832" lon="-3.007078">
        <ele>1320.0</ele>
        <time>1989-12-30T23:59:59Z</time>
      </trkpt>
      <trkpt lat="37.871790" lon="-3.007223">
        <ele>1322.4</ele>
        <time>1989-12-30T23:59:59Z</time>
      </trkpt>
      <trkpt lat="37.871708" lon="-3.007447">
        <ele>1321.0</ele>
        <time>1989-12-30T23:59:59Z</time>
      </trkpt>
      <trkpt lat="37.871600" lon="-3.007994">
        <ele>1322.4</ele>
        <time>1989-12-30T23:59:59Z</time>
      </trkpt>
      <trkpt lat="37.871550" lon="-3.008131">
        <ele>1321.5</ele>
        <time>1989-12-30T23:59:59Z</time>
      </trkpt>
      <trkpt lat="37.871370" lon="-3.008498">
        <ele>1319.1</ele>
        <time>1989-12-30T23:59:59Z</time>
      </trkpt>
      <trkpt lat="37.871167" lon="-3.008716">
        <ele>1316.2</ele>
        <time>1989-12-30T23:59:59Z</time>
      </trkpt>
      <trkpt lat="37.871119" lon="-3.008849">
        <ele>1315.7</ele>
        <time>1989-12-30T23:59:59Z</time>
      </trkpt>
      <trkpt lat="37.871106" lon="-3.009132">
        <ele>1317.1</ele>
        <time>1989-12-30T23:59:59Z</time>
      </trkpt>
      <trkpt lat="37.871234" lon="-3.009416">
        <ele>1315.2</ele>
        <time>1989-12-30T23:59:59Z</time>
      </trkpt>
      <trkpt lat="37.871316" lon="-3.009528">
        <ele>1316.2</ele>
        <time>1989-12-30T23:59:59Z</time>
      </trkpt>
      <trkpt lat="37.871401" lon="-3.009645">
        <ele>1316.7</ele>
        <time>1989-12-30T23:59:59Z</time>
      </trkpt>
      <trkpt lat="37.871471" lon="-3.009749">
        <ele>1309.5</ele>
        <time>1989-12-30T23:59:59Z</time>
      </trkpt>
      <trkpt lat="37.871524" lon="-3.009851">
        <ele>1310.4</ele>
        <time>1989-12-30T23:59:59Z</time>
      </trkpt>
      <trkpt lat="37.871521" lon="-3.009956">
        <ele>1311.4</ele>
        <time>1989-12-30T23:59:59Z</time>
      </trkpt>
      <trkpt lat="37.871459" lon="-3.010053">
        <ele>1313.8</ele>
        <time>1989-12-30T23:59:59Z</time>
      </trkpt>
      <trkpt lat="37.871387" lon="-3.010144">
        <ele>1314.7</ele>
        <time>1989-12-30T23:59:59Z</time>
      </trkpt>
      <trkpt lat="37.871309" lon="-3.010199">
        <ele>1315.2</ele>
        <time>1989-12-30T23:59:59Z</time>
      </trkpt>
      <trkpt lat="37.871308" lon="-3.010199">
        <ele>1315.2</ele>
        <time>2009-03-20T18:13:52Z</time>
      </trkpt>
      <trkpt lat="37.871002" lon="-3.010306">
        <ele>1315.0</ele>
        <time>2009-03-20T18:13:56Z</time>
      </trkpt>
      <trkpt lat="37.870459" lon="-3.010578">
        <ele>1324.6</ele>
        <time>2009-03-20T18:14:02Z</time>
      </trkpt>
      <trkpt lat="37.869529" lon="-3.010966">
        <ele>1331.2</ele>
        <time>2009-03-20T18:14:13Z</time>
      </trkpt>
      <trkpt lat="37.868769" lon="-3.011178">
        <ele>1335.3</ele>
        <time>2009-03-20T18:14:22Z</time>
      </trkpt>
      <trkpt lat="37.868180" lon="-3.011313">
        <ele>1338.0</ele>
        <time>2009-03-20T18:14:29Z</time>
      </trkpt>
      <trkpt lat="37.867640" lon="-3.011563">
        <ele>1334.5</ele>
        <time>2009-03-20T18:14:35Z</time>
      </trkpt>
      <trkpt lat="37.866569" lon="-3.011562">
        <ele>1340.9</ele>
        <time>2009-03-20T18:14:47Z</time>
      </trkpt>
      <trkpt lat="37.865717" lon="-3.011422">
        <ele>1343.3</ele>
        <time>2009-03-20T18:14:57Z</time>
      </trkpt>
      <trkpt lat="37.865128" lon="-3.011361">
        <ele>1341.4</ele>
        <time>2009-03-20T18:15:03Z</time>
      </trkpt>
      <trkpt lat="37.863890" lon="-3.011025">
        <ele>1336.8</ele>
        <time>2009-03-20T18:15:17Z</time>
      </trkpt>
      <trkpt lat="37.863210" lon="-3.010261">
        <ele>1337.1</ele>
        <time>2009-03-20T18:15:27Z</time>
      </trkpt>
      <trkpt lat="37.863195" lon="-3.009460">
        <ele>1344.7</ele>
        <time>2009-03-20T18:15:34Z</time>
      </trkpt>
      <trkpt lat="37.863135" lon="-3.008795">
        <ele>1346.1</ele>
        <time>2009-03-20T18:15:40Z</time>
      </trkpt>
      <trkpt lat="37.862813" lon="-3.007897">
        <ele>1345.6</ele>
        <time>2009-03-20T18:15:49Z</time>
      </trkpt>
      <trkpt lat="37.862196" lon="-3.007179">
        <ele>1347.3</ele>
        <time>2009-03-20T18:15:58Z</time>
      </trkpt>
      <trkpt lat="37.861718" lon="-3.006556">
        <ele>1358.6</ele>
        <time>2009-03-20T18:16:06Z</time>
      </trkpt>
      <trkpt lat="37.861466" lon="-3.006047">
        <ele>1372.7</ele>
        <time>2009-03-20T18:16:11Z</time>
      </trkpt>
      <trkpt lat="37.861252" lon="-3.005966">
        <ele>1374.1</ele>
        <time>2009-03-20T18:16:14Z</time>
      </trkpt>
      <trkpt lat="37.860936" lon="-3.006236">
        <ele>1371.1</ele>
        <time>2009-03-20T18:16:18Z</time>
      </trkpt>
      <trkpt lat="37.860266" lon="-3.006711">
        <ele>1362.3</ele>
        <time>2009-03-20T18:16:26Z</time>
      </trkpt>
      <trkpt lat="37.859723" lon="-3.006964">
        <ele>1368.6</ele>
        <time>2009-03-20T18:16:33Z</time>
      </trkpt>
      <trkpt lat="37.859344" lon="-3.007249">
        <ele>1367.6</ele>
        <time>2009-03-20T18:16:38Z</time>
      </trkpt>
      <trkpt lat="37.858939" lon="-3.007789">
        <ele>1353.5</ele>
        <time>2009-03-20T18:16:44Z</time>
      </trkpt>
      <trkpt lat="37.858396" lon="-3.008026">
        <ele>1345.3</ele>
        <time>2009-03-20T18:16:51Z</time>
      </trkpt>
      <trkpt lat="37.857766" lon="-3.007833">
        <ele>1349.0</ele>
        <time>2009-03-20T18:16:58Z</time>
      </trkpt>
      <trkpt lat="37.856921" lon="-3.007560">
        <ele>1355.0</ele>
        <time>2009-03-20T18:17:08Z</time>
      </trkpt>
      <trkpt lat="37.856277" lon="-3.007526">
        <ele>1360.0</ele>
        <time>2009-03-20T18:17:15Z</time>
      </trkpt>
      <trkpt lat="37.855937" lon="-3.007572">
        <ele>1361.3</ele>
        <time>2009-03-20T18:17:18Z</time>
      </trkpt>
      <trkpt lat="37.855658" lon="-3.007827">
        <ele>1355.4</ele>
        <time>2009-03-20T18:17:22Z</time>
      </trkpt>
      <trkpt lat="37.855052" lon="-3.007904">
        <ele>1361.3</ele>
        <time>2009-03-20T18:17:29Z</time>
      </trkpt>
      <trkpt lat="37.854598" lon="-3.007982">
        <ele>1366.0</ele>
        <time>2009-03-20T18:17:34Z</time>
      </trkpt>
      <trkpt lat="37.853474" lon="-3.008440">
        <ele>1374.6</ele>
        <time>2009-03-20T18:17:47Z</time>
      </trkpt>
      <trkpt lat="37.853322" lon="-3.008758">
        <ele>1369.6</ele>
        <time>2009-03-20T18:17:51Z</time>
      </trkpt>
      <trkpt lat="37.853321" lon="-3.009299">
        <ele>1359.3</ele>
        <time>2009-03-20T18:17:55Z</time>
      </trkpt>
      <trkpt lat="37.852752" lon="-3.009981">
        <ele>1352.3</ele>
        <time>2009-03-20T18:18:04Z</time>
      </trkpt>
      <trkpt lat="37.852222" lon="-3.010012">
        <ele>1342.9</ele>
        <time>2009-03-20T18:18:10Z</time>
      </trkpt>
      <trkpt lat="37.851680" lon="-3.009564">
        <ele>1334.7</ele>
        <time>2009-03-20T18:18:17Z</time>
      </trkpt>
      <trkpt lat="37.850924" lon="-3.009037">
        <ele>1323.2</ele>
        <time>2009-03-20T18:18:27Z</time>
      </trkpt>
      <trkpt lat="37.850622" lon="-3.008479">
        <ele>1323.9</ele>
        <time>2009-03-20T18:18:33Z</time>
      </trkpt>
      <trkpt lat="37.849787" lon="-3.007673">
        <ele>1303.7</ele>
        <time>2009-03-20T18:18:44Z</time>
      </trkpt>
      <trkpt lat="37.849615" lon="-3.007128">
        <ele>1308.6</ele>
        <time>2009-03-20T18:18:49Z</time>
      </trkpt>
      <trkpt lat="37.849790" lon="-3.006311">
        <ele>1319.5</ele>
        <time>2009-03-20T18:18:57Z</time>
      </trkpt>
      <trkpt lat="37.849489" lon="-3.005220">
        <ele>1302.8</ele>
        <time>2009-03-20T18:19:07Z</time>
      </trkpt>
      <trkpt lat="37.849665" lon="-3.003640">
        <ele>1307.1</ele>
        <time>2009-03-20T18:19:21Z</time>
      </trkpt>
      <trkpt lat="37.849406" lon="-3.003312">
        <ele>1307.9</ele>
        <time>2009-03-20T18:19:25Z</time>
      </trkpt>
      <trkpt lat="37.848542" lon="-3.003255">
        <ele>1293.3</ele>
        <time>2009-03-20T18:19:35Z</time>
      </trkpt>
      <trkpt lat="37.847852" lon="-3.002217">
        <ele>1325.2</ele>
        <time>2009-03-20T18:19:47Z</time>
      </trkpt>
      <trkpt lat="37.846772" lon="-3.002650">
        <ele>1328.8</ele>
        <time>2009-03-20T18:19:59Z</time>
      </trkpt>
      <trkpt lat="37.845907" lon="-3.002647">
        <ele>1351.4</ele>
        <time>2009-03-20T18:20:09Z</time>
      </trkpt>
      <trkpt lat="37.844954" lon="-3.003570">
        <ele>1333.5</ele>
        <time>2009-03-20T18:20:22Z</time>
      </trkpt>
      <trkpt lat="37.843875" lon="-3.003185">
        <ele>1347.3</ele>
        <time>2009-03-20T18:20:35Z</time>
      </trkpt>
      <trkpt lat="37.842968" lon="-3.002856">
        <ele>1374.0</ele>
        <time>2009-03-20T18:20:45Z</time>
      </trkpt>
      <trkpt lat="37.842865" lon="-3.002340">
        <ele>1378.5</ele>
        <time>2009-03-20T18:20:50Z</time>
      </trkpt>
      <trkpt lat="37.844783" lon="-3.002807">
        <ele>1361.3</ele>
        <time>2009-03-20T18:21:08Z</time>
      </trkpt>
      <trkpt lat="37.844972" lon="-3.002451">
        <ele>1388.7</ele>
        <time>2009-03-20T18:21:15Z</time>
      </trkpt>
      <trkpt lat="37.843187" lon="-3.001712">
        <ele>1397.3</ele>
        <time>2009-03-20T18:21:31Z</time>
      </trkpt>
      <trkpt lat="37.842193" lon="-3.001545">
        <ele>1416.7</ele>
        <time>2009-03-20T18:21:42Z</time>
      </trkpt>
      <trkpt lat="37.841371" lon="-3.001761">
        <ele>1428.1</ele>
        <time>2009-03-20T18:21:52Z</time>
      </trkpt>
      <trkpt lat="37.841196" lon="-3.002632">
        <ele>1445.9</ele>
        <time>2009-03-20T18:22:00Z</time>
      </trkpt>
      <trkpt lat="37.840812" lon="-3.002518">
        <ele>1448.2</ele>
        <time>2009-03-20T18:22:04Z</time>
      </trkpt>
      <trkpt lat="37.840369" lon="-3.001312">
        <ele>1425.2</ele>
        <time>2009-03-20T18:22:20Z</time>
      </trkpt>
      <trkpt lat="37.839696" lon="-3.000509">
        <ele>1420.0</ele>
        <time>2009-03-20T18:22:32Z</time>
      </trkpt>
      <trkpt lat="37.838348" lon="-2.999522">
        <ele>1422.3</ele>
        <time>2009-03-20T18:22:47Z</time>
      </trkpt>
      <trkpt lat="37.838348" lon="-2.999522">
        <ele>1422.3</ele>
        <time>2010-07-31T10:40:59Z</time>
      </trkpt>
      <trkpt lat="37.838032" lon="-2.999443">
        <ele>1419.6</ele>
        <time>2010-07-31T10:40:59Z</time>
      </trkpt>
      <trkpt lat="37.837464" lon="-2.999033">
        <ele>1416.2</ele>
        <time>2010-07-31T10:40:59Z</time>
      </trkpt>
      <trkpt lat="37.836843" lon="-2.998783">
        <ele>1415.4</ele>
        <time>2010-07-31T10:40:59Z</time>
      </trkpt>
      <trkpt lat="37.836265" lon="-2.998760">
        <ele>1413.8</ele>
        <time>2010-07-31T10:40:59Z</time>
      </trkpt>
      <trkpt lat="37.835692" lon="-2.998566">
        <ele>1410.2</ele>
        <time>2010-07-31T10:40:59Z</time>
      </trkpt>
      <trkpt lat="37.835120" lon="-2.998372">
        <ele>1403.0</ele>
        <time>2010-07-31T10:40:59Z</time>
      </trkpt>
      <trkpt lat="37.834480" lon="-2.998189">
        <ele>1389.7</ele>
        <time>2010-07-31T10:40:59Z</time>
      </trkpt>
      <trkpt lat="37.834239" lon="-2.998151">
        <ele>1382.8</ele>
        <time>2010-07-31T10:40:59Z</time>
      </trkpt>
      <trkpt lat="37.834239" lon="-2.997493">
        <ele>1378.8</ele>
        <time>2010-07-31T10:40:59Z</time>
      </trkpt>
      <trkpt lat="37.834385" lon="-2.997186">
        <ele>1386.4</ele>
        <time>2010-07-31T10:40:59Z</time>
      </trkpt>
      <trkpt lat="37.834664" lon="-2.996745">
        <ele>1400.2</ele>
        <time>2010-07-31T10:40:59Z</time>
      </trkpt>
      <trkpt lat="37.834646" lon="-2.996396">
        <ele>1394.6</ele>
        <time>2010-07-31T10:40:59Z</time>
      </trkpt>
      <trkpt lat="37.834475" lon="-2.995938">
        <ele>1388.8</ele>
        <time>2010-07-31T10:40:59Z</time>
      </trkpt>
      <trkpt lat="37.834170" lon="-2.995853">
        <ele>1380.4</ele>
        <time>2010-07-31T10:40:59Z</time>
      </trkpt>
      <trkpt lat="37.834046" lon="-2.995792">
        <ele>1377.2</ele>
        <time>2010-07-31T10:40:59Z</time>
      </trkpt>
      <trkpt lat="37.834046" lon="-2.995599">
        <ele>1378.6</ele>
        <time>2010-07-31T10:40:59Z</time>
      </trkpt>
      <trkpt lat="37.834104" lon="-2.995262">
        <ele>1384.3</ele>
        <time>2010-07-31T10:40:59Z</time>
      </trkpt>
      <trkpt lat="37.834124" lon="-2.994841">
        <ele>1390.2</ele>
        <time>2010-07-31T10:40:59Z</time>
      </trkpt>
      <trkpt lat="37.834182" lon="-2.994492">
        <ele>1396.0</ele>
        <time>2010-07-31T10:40:59Z</time>
      </trkpt>
      <trkpt lat="37.834401" lon="-2.994148">
        <ele>1403.2</ele>
        <time>2010-07-31T10:40:59Z</time>
      </trkpt>
      <trkpt lat="37.833963" lon="-2.994142">
        <ele>1405.4</ele>
        <time>2010-07-31T10:40:59Z</time>
      </trkpt>
      <trkpt lat="37.833638" lon="-2.994346">
        <ele>1403.4</ele>
        <time>2010-07-31T10:40:59Z</time>
      </trkpt>
      <trkpt lat="37.833322" lon="-2.994622">
        <ele>1400.0</ele>
        <time>2010-07-31T10:40:59Z</time>
      </trkpt>
      <trkpt lat="37.833055" lon="-2.994862">
        <ele>1399.0</ele>
        <time>2010-07-31T10:40:59Z</time>
      </trkpt>
      <trkpt lat="37.832500" lon="-2.995065">
        <ele>1410.3</ele>
        <time>2010-07-31T10:40:59Z</time>
      </trkpt>
      <trkpt lat="37.832194" lon="-2.995341">
        <ele>1411.1</ele>
        <time>2010-07-31T10:40:59Z</time>
      </trkpt>
      <trkpt lat="37.832073" lon="-2.996057">
        <ele>1411.4</ele>
        <time>2010-07-31T10:40:59Z</time>
      </trkpt>
      <trkpt lat="37.831308" lon="-2.995811">
        <ele>1415.8</ele>
        <time>2010-07-31T10:40:59Z</time>
      </trkpt>
      <trkpt lat="37.830588" lon="-2.996395">
        <ele>1411.4</ele>
        <time>2010-07-31T10:40:59Z</time>
      </trkpt>
      <trkpt lat="37.829875" lon="-2.997145">
        <ele>1393.4</ele>
        <time>2010-07-31T10:40:59Z</time>
      </trkpt>
      <trkpt lat="37.829594" lon="-2.996898">
        <ele>1389.7</ele>
        <time>2010-07-31T10:40:59Z</time>
      </trkpt>
      <trkpt lat="37.829079" lon="-2.996824">
        <ele>1388.7</ele>
        <time>2010-07-31T10:40:59Z</time>
      </trkpt>
      <trkpt lat="37.828545" lon="-2.996534">
        <ele>1398.6</ele>
        <time>2010-07-31T10:40:59Z</time>
      </trkpt>
      <trkpt lat="37.827981" lon="-2.996592">
        <ele>1398.3</ele>
        <time>2010-07-31T10:40:59Z</time>
      </trkpt>
      <trkpt lat="37.827466" lon="-2.996755">
        <ele>1407.3</ele>
        <time>2010-07-31T10:40:59Z</time>
      </trkpt>
      <trkpt lat="37.826896" lon="-2.996734">
        <ele>1415.9</ele>
        <time>2010-07-31T10:40:59Z</time>
      </trkpt>
      <trkpt lat="37.826929" lon="-2.997247">
        <ele>1422.5</ele>
        <time>2010-07-31T10:40:59Z</time>
      </trkpt>
      <trkpt lat="37.827238" lon="-2.998253">
        <ele>1417.4</ele>
        <time>2010-07-31T10:40:59Z</time>
      </trkpt>
      <trkpt lat="37.827629" lon="-2.998664">
        <ele>1419.1</ele>
        <time>2010-07-31T10:40:59Z</time>
      </trkpt>
      <trkpt lat="37.827645" lon="-2.999280">
        <ele>1431.9</ele>
        <time>2010-07-31T10:40:59Z</time>
      </trkpt>
      <trkpt lat="37.828215" lon="-2.999895">
        <ele>1412.9</ele>
        <time>2010-07-31T10:40:59Z</time>
      </trkpt>
      <trkpt lat="37.828414" lon="-3.000156">
        <ele>1403.1</ele>
        <time>2010-07-31T10:40:59Z</time>
      </trkpt>
      <trkpt lat="37.828355" lon="-3.000566">
        <ele>1399.9</ele>
        <time>2010-07-31T10:40:59Z</time>
      </trkpt>
      <trkpt lat="37.827983" lon="-3.000673">
        <ele>1414.3</ele>
        <time>2010-07-31T10:40:59Z</time>
      </trkpt>
      <trkpt lat="37.827775" lon="-3.000921">
        <ele>1429.4</ele>
        <time>2010-07-31T10:40:59Z</time>
      </trkpt>
      <trkpt lat="37.827612" lon="-3.001065">
        <ele>1434.8</ele>
        <time>2010-07-31T10:40:59Z</time>
      </trkpt>
      <trkpt lat="37.827494" lon="-3.001418">
        <ele>1420.7</ele>
        <time>2010-07-31T10:40:59Z</time>
      </trkpt>
      <trkpt lat="37.827522" lon="-3.002104">
        <ele>1402.2</ele>
        <time>2010-07-31T10:40:59Z</time>
      </trkpt>
      <trkpt lat="37.827416" lon="-3.002332">
        <ele>1398.9</ele>
        <time>2010-07-31T10:40:59Z</time>
      </trkpt>
      <trkpt lat="37.827340" lon="-3.002501">
        <ele>1395.7</ele>
        <time>2010-07-31T10:40:59Z</time>
      </trkpt>
      <trkpt lat="37.827329" lon="-3.002910">
        <ele>1381.5</ele>
        <time>2010-07-31T10:40:59Z</time>
      </trkpt>
      <trkpt lat="37.827272" lon="-3.003139">
        <ele>1376.1</ele>
        <time>2010-07-31T10:40:59Z</time>
      </trkpt>
      <trkpt lat="37.826937" lon="-3.003426">
        <ele>1375.2</ele>
        <time>2010-07-31T10:40:59Z</time>
      </trkpt>
      <trkpt lat="37.826488" lon="-3.003521">
        <ele>1374.4</ele>
        <time>2010-07-31T10:40:59Z</time>
      </trkpt>
      <trkpt lat="37.826086" lon="-3.003544">
        <ele>1373.9</ele>
        <time>2010-07-31T10:40:59Z</time>
      </trkpt>
      <trkpt lat="37.825370" lon="-3.003734">
        <ele>1361.2</ele>
        <time>2010-07-31T10:40:59Z</time>
      </trkpt>
      <trkpt lat="37.825103" lon="-3.003866">
        <ele>1354.8</ele>
        <time>2010-07-31T10:40:59Z</time>
      </trkpt>
      <trkpt lat="37.824807" lon="-3.003793">
        <ele>1355.6</ele>
        <time>2010-07-31T10:40:59Z</time>
      </trkpt>
      <trkpt lat="37.824597" lon="-3.003780">
        <ele>1354.8</ele>
        <time>2010-07-31T10:40:59Z</time>
      </trkpt>
      <trkpt lat="37.824052" lon="-3.004091">
        <ele>1341.0</ele>
        <time>2010-07-31T10:40:59Z</time>
      </trkpt>
      <trkpt lat="37.823641" lon="-3.004198">
        <ele>1335.7</ele>
        <time>2010-07-31T10:40:59Z</time>
      </trkpt>
      <trkpt lat="37.823365" lon="-3.004113">
        <ele>1332.4</ele>
        <time>2010-07-31T10:40:59Z</time>
      </trkpt>
      <trkpt lat="37.823002" lon="-3.003835">
        <ele>1328.1</ele>
        <time>2010-07-31T10:40:59Z</time>
      </trkpt>
      <trkpt lat="37.822907" lon="-3.003666">
        <ele>1329.8</ele>
        <time>2010-07-31T10:40:59Z</time>
      </trkpt>
      <trkpt lat="37.822792" lon="-3.003762">
        <ele>1324.8</ele>
        <time>2010-07-31T10:40:59Z</time>
      </trkpt>
      <trkpt lat="37.822973" lon="-3.004136">
        <ele>1325.3</ele>
        <time>2010-07-31T10:40:59Z</time>
      </trkpt>
      <trkpt lat="37.823163" lon="-3.004763">
        <ele>1321.4</ele>
        <time>2010-07-31T10:40:59Z</time>
      </trkpt>
      <trkpt lat="37.823114" lon="-3.005112">
        <ele>1314.2</ele>
        <time>2010-07-31T10:40:59Z</time>
      </trkpt>
      <trkpt lat="37.822808" lon="-3.005435">
        <ele>1304.8</ele>
        <time>2010-07-31T10:40:59Z</time>
      </trkpt>
      <trkpt lat="37.822589" lon="-3.005423">
        <ele>1296.7</ele>
        <time>2010-07-31T10:40:59Z</time>
      </trkpt>
      <trkpt lat="37.822350" lon="-3.005230">
        <ele>1291.7</ele>
        <time>2010-07-31T10:40:59Z</time>
      </trkpt>
      <trkpt lat="37.822027" lon="-3.004711">
        <ele>1291.5</ele>
        <time>2010-07-31T10:40:59Z</time>
      </trkpt>
      <trkpt lat="37.822017" lon="-3.004422">
        <ele>1295.6</ele>
        <time>2010-07-31T10:40:59Z</time>
      </trkpt>
      <trkpt lat="37.821818" lon="-3.003964">
        <ele>1295.6</ele>
        <time>2010-07-31T10:40:59Z</time>
      </trkpt>
      <trkpt lat="37.821599" lon="-3.003530">
        <ele>1295.5</ele>
        <time>2010-07-31T10:40:59Z</time>
      </trkpt>
      <trkpt lat="37.821117" lon="-3.003138">
        <ele>1292.8</ele>
        <time>2010-07-31T10:40:59Z</time>
      </trkpt>
      <trkpt lat="37.820866" lon="-3.002288">
        <ele>1288.4</ele>
        <time>2010-07-31T10:40:59Z</time>
      </trkpt>
      <trkpt lat="37.820589" lon="-3.002263">
        <ele>1278.9</ele>
        <time>2010-07-31T10:40:59Z</time>
      </trkpt>
      <trkpt lat="37.820418" lon="-3.002082">
        <ele>1274.5</ele>
        <time>2010-07-31T10:40:59Z</time>
      </trkpt>
      <trkpt lat="37.820257" lon="-3.001732">
        <ele>1272.2</ele>
        <time>2010-07-31T10:40:59Z</time>
      </trkpt>
      <trkpt lat="37.820047" lon="-3.001419">
        <ele>1267.5</ele>
        <time>2010-07-31T10:40:59Z</time>
      </trkpt>
      <trkpt lat="37.819866" lon="-3.000972">
        <ele>1268.9</ele>
        <time>2010-07-31T10:40:59Z</time>
      </trkpt>
      <trkpt lat="37.819657" lon="-3.000587">
        <ele>1266.9</ele>
        <time>2010-07-31T10:40:59Z</time>
      </trkpt>
      <trkpt lat="37.819381" lon="-3.000128">
        <ele>1271.8</ele>
        <time>2010-07-31T10:40:59Z</time>
      </trkpt>
      <trkpt lat="37.819134" lon="-2.999670">
        <ele>1280.5</ele>
        <time>2010-07-31T10:40:59Z</time>
      </trkpt>
      <trkpt lat="37.818915" lon="-2.999152">
        <ele>1281.8</ele>
        <time>2010-07-31T10:40:59Z</time>
      </trkpt>
      <trkpt lat="37.818687" lon="-2.998790">
        <ele>1307.2</ele>
        <time>2010-07-31T10:40:59Z</time>
      </trkpt>
      <trkpt lat="37.818534" lon="-2.998874">
        <ele>1292.4</ele>
        <time>2010-07-31T10:40:59Z</time>
      </trkpt>
      <trkpt lat="37.818437" lon="-2.999295">
        <ele>1297.5</ele>
        <time>2010-07-31T10:40:59Z</time>
      </trkpt>
      <trkpt lat="37.818341" lon="-2.999584">
        <ele>1302.5</ele>
        <time>2010-07-31T10:40:59Z</time>
      </trkpt>
      <trkpt lat="37.817926" lon="-3.000141">
        <ele>1303.9</ele>
        <time>2010-07-31T10:40:59Z</time>
      </trkpt>
      <trkpt lat="37.817958" lon="-3.000765">
        <ele>1300.7</ele>
        <time>2010-07-31T10:40:59Z</time>
      </trkpt>
      <trkpt lat="37.818214" lon="-3.001260">
        <ele>1303.0</ele>
        <time>2010-07-31T10:40:59Z</time>
      </trkpt>
      <trkpt lat="37.818232" lon="-3.001663">
        <ele>1301.7</ele>
        <time>2010-07-31T10:40:59Z</time>
      </trkpt>
      <trkpt lat="37.817582" lon="-3.002217">
        <ele>1302.8</ele>
        <time>2010-07-31T10:40:59Z</time>
      </trkpt>
      <trkpt lat="37.817562" lon="-3.002458">
        <ele>1298.0</ele>
        <time>2010-07-31T10:40:59Z</time>
      </trkpt>
      <trkpt lat="37.817342" lon="-3.003131">
        <ele>1294.4</ele>
        <time>2010-07-31T10:40:59Z</time>
      </trkpt>
      <trkpt lat="37.817350" lon="-3.003408">
        <ele>1289.2</ele>
        <time>2010-07-31T10:40:59Z</time>
      </trkpt>
      <trkpt lat="37.817178" lon="-3.003865">
        <ele>1291.2</ele>
        <time>2010-07-31T10:40:59Z</time>
      </trkpt>
      <trkpt lat="37.817160" lon="-3.004267">
        <ele>1301.6</ele>
        <time>2010-07-31T10:40:59Z</time>
      </trkpt>
      <trkpt lat="37.816965" lon="-3.004739">
        <ele>1303.3</ele>
        <time>2010-07-31T10:40:59Z</time>
      </trkpt>
      <trkpt lat="37.816727" lon="-3.005058">
        <ele>1299.1</ele>
        <time>2010-07-31T10:40:59Z</time>
      </trkpt>
      <trkpt lat="37.816476" lon="-3.006134">
        <ele>1287.1</ele>
        <time>2010-07-31T10:40:59Z</time>
      </trkpt>
      <trkpt lat="37.816606" lon="-3.006750">
        <ele>1280.1</ele>
        <time>2010-07-31T10:40:59Z</time>
      </trkpt>
      <trkpt lat="37.816883" lon="-3.007571">
        <ele>1272.5</ele>
        <time>2010-07-31T10:40:59Z</time>
      </trkpt>
      <trkpt lat="37.816525" lon="-3.007612">
        <ele>1263.7</ele>
        <time>2010-07-31T10:40:59Z</time>
      </trkpt>
      <trkpt lat="37.816266" lon="-3.007293">
        <ele>1258.9</ele>
        <time>2010-07-31T10:40:59Z</time>
      </trkpt>
      <trkpt lat="37.815893" lon="-3.007236">
        <ele>1255.6</ele>
        <time>2010-07-31T10:40:59Z</time>
      </trkpt>
      <trkpt lat="37.815532" lon="-3.007043">
        <ele>1257.6</ele>
        <time>2010-07-31T10:40:59Z</time>
      </trkpt>
      <trkpt lat="37.815158" lon="-3.007058">
        <ele>1272.4</ele>
        <time>2010-07-31T10:40:59Z</time>
      </trkpt>
      <trkpt lat="37.814555" lon="-3.007160">
        <ele>1273.9</ele>
        <time>2010-07-31T10:40:59Z</time>
      </trkpt>
      <trkpt lat="37.814148" lon="-3.007180">
        <ele>1289.3</ele>
        <time>2010-07-31T10:40:59Z</time>
      </trkpt>
      <trkpt lat="37.813855" lon="-3.007160">
        <ele>1286.2</ele>
        <time>2010-07-31T10:40:59Z</time>
      </trkpt>
      <trkpt lat="37.813568" lon="-3.007229">
        <ele>1283.1</ele>
        <time>2010-07-31T10:40:59Z</time>
      </trkpt>
      <trkpt lat="37.813529" lon="-3.007691">
        <ele>1283.8</ele>
        <time>2010-07-31T10:40:59Z</time>
      </trkpt>
      <trkpt lat="37.813699" lon="-3.008491">
        <ele>1274.4</ele>
        <time>2010-07-31T10:40:59Z</time>
      </trkpt>
      <trkpt lat="37.813850" lon="-3.008826">
        <ele>1268.6</ele>
        <time>2010-07-31T10:40:59Z</time>
      </trkpt>
      <trkpt lat="37.813944" lon="-3.009330">
        <ele>1264.8</ele>
        <time>2010-07-31T10:40:59Z</time>
      </trkpt>
      <trkpt lat="37.814058" lon="-3.009642">
        <ele>1260.7</ele>
        <time>2010-07-31T10:40:59Z</time>
      </trkpt>
      <trkpt lat="37.814164" lon="-3.010113">
        <ele>1250.4</ele>
        <time>2010-07-31T10:40:59Z</time>
      </trkpt>
      <trkpt lat="37.814189" lon="-3.010384">
        <ele>1245.9</ele>
        <time>2010-07-31T10:40:59Z</time>
      </trkpt>
      <trkpt lat="37.814087" lon="-3.010655">
        <ele>1242.9</ele>
        <time>2010-07-31T10:40:59Z</time>
      </trkpt>
      <trkpt lat="37.813808" lon="-3.010798">
        <ele>1245.2</ele>
        <time>2010-07-31T10:40:59Z</time>
      </trkpt>
      <trkpt lat="37.813448" lon="-3.011182">
        <ele>1252.7</ele>
        <time>2010-07-31T10:40:59Z</time>
      </trkpt>
      <trkpt lat="37.812568" lon="-3.011203">
        <ele>1253.2</ele>
        <time>2010-07-31T10:40:59Z</time>
      </trkpt>
      <trkpt lat="37.812568" lon="-3.011449">
        <ele>1250.8</ele>
        <time>2010-07-31T10:40:59Z</time>
      </trkpt>
      <trkpt lat="37.812959" lon="-3.012003">
        <ele>1252.2</ele>
        <time>2010-07-31T10:40:59Z</time>
      </trkpt>
      <trkpt lat="37.813187" lon="-3.012639">
        <ele>1253.6</ele>
        <time>2010-07-31T10:40:59Z</time>
      </trkpt>
      <trkpt lat="37.813431" lon="-3.013337">
        <ele>1246.6</ele>
        <time>2010-07-31T10:40:59Z</time>
      </trkpt>
      <trkpt lat="37.813441" lon="-3.013911">
        <ele>1243.7</ele>
        <time>2010-07-31T10:40:59Z</time>
      </trkpt>
      <trkpt lat="37.813009" lon="-3.014644">
        <ele>1244.2</ele>
        <time>2010-07-31T10:40:59Z</time>
      </trkpt>
      <trkpt lat="37.812506" lon="-3.015409">
        <ele>1246.8</ele>
        <time>2010-07-31T10:40:59Z</time>
      </trkpt>
      <trkpt lat="37.812239" lon="-3.015871">
        <ele>1247.5</ele>
        <time>2010-07-31T10:40:59Z</time>
      </trkpt>
      <trkpt lat="37.812004" lon="-3.016502">
        <ele>1241.7</ele>
        <time>2010-07-31T10:40:59Z</time>
      </trkpt>
      <trkpt lat="37.811812" lon="-3.017148">
        <ele>1225.7</ele>
        <time>2010-07-31T10:40:59Z</time>
      </trkpt>
      <trkpt lat="37.811596" lon="-3.017594">
        <ele>1218.5</ele>
        <time>2010-07-31T10:40:59Z</time>
      </trkpt>
      <trkpt lat="37.811312" lon="-3.018035">
        <ele>1215.3</ele>
        <time>2010-07-31T10:40:59Z</time>
      </trkpt>
      <trkpt lat="37.811203" lon="-3.018315">
        <ele>1214.7</ele>
        <time>2010-07-31T10:40:59Z</time>
      </trkpt>
      <trkpt lat="37.811053" lon="-3.018906">
        <ele>1207.5</ele>
        <time>2010-07-31T10:40:59Z</time>
      </trkpt>
      <trkpt lat="37.810967" lon="-3.019338">
        <ele>1203.3</ele>
        <time>2010-07-31T10:40:59Z</time>
      </trkpt>
      <trkpt lat="37.810830" lon="-3.019308">
        <ele>1199.2</ele>
        <time>2010-07-31T10:40:59Z</time>
      </trkpt>
      <trkpt lat="37.810619" lon="-3.018933">
        <ele>1193.0</ele>
        <time>2010-07-31T10:40:59Z</time>
      </trkpt>
      <trkpt lat="37.810482" lon="-3.018601">
        <ele>1190.2</ele>
        <time>2010-07-31T10:40:59Z</time>
      </trkpt>
      <trkpt lat="37.810517" lon="-3.018205">
        <ele>1193.9</ele>
        <time>2010-07-31T10:40:59Z</time>
      </trkpt>
      <trkpt lat="37.810651" lon="-3.017539">
        <ele>1197.5</ele>
        <time>2010-07-31T10:40:59Z</time>
      </trkpt>
      <trkpt lat="37.810297" lon="-3.017066">
        <ele>1192.4</ele>
        <time>2010-07-31T10:40:59Z</time>
      </trkpt>
      <trkpt lat="37.809947" lon="-3.016805">
        <ele>1191.0</ele>
        <time>2010-07-31T10:40:59Z</time>
      </trkpt>
      <trkpt lat="37.809703" lon="-3.016825">
        <ele>1180.9</ele>
        <time>2010-07-31T10:40:59Z</time>
      </trkpt>
      <trkpt lat="37.809361" lon="-3.016230">
        <ele>1174.9</ele>
        <time>2010-07-31T10:40:59Z</time>
      </trkpt>
      <trkpt lat="37.809214" lon="-3.016579">
        <ele>1172.0</ele>
        <time>2010-07-31T10:40:59Z</time>
      </trkpt>
      <trkpt lat="37.809703" lon="-3.017338">
        <ele>1166.2</ele>
        <time>2010-07-31T10:40:59Z</time>
      </trkpt>
      <trkpt lat="37.809849" lon="-3.017893">
        <ele>1166.9</ele>
        <time>2010-07-31T10:40:59Z</time>
      </trkpt>
      <trkpt lat="37.809540" lon="-3.018007">
        <ele>1155.9</ele>
        <time>2010-07-31T10:40:59Z</time>
      </trkpt>
      <trkpt lat="37.809478" lon="-3.017820">
        <ele>1155.6</ele>
        <time>2010-07-31T10:40:59Z</time>
      </trkpt>
      <trkpt lat="37.809307" lon="-3.017257">
        <ele>1154.8</ele>
        <time>2010-07-31T10:40:59Z</time>
      </trkpt>
      <trkpt lat="37.808942" lon="-3.016953">
        <ele>1145.3</ele>
        <time>2010-07-31T10:40:59Z</time>
      </trkpt>
      <trkpt lat="37.808622" lon="-3.016786">
        <ele>1137.1</ele>
        <time>2010-07-31T10:40:59Z</time>
      </trkpt>
      <trkpt lat="37.808320" lon="-3.016345">
        <ele>1138.2</ele>
        <time>2010-07-31T10:40:59Z</time>
      </trkpt>
      <trkpt lat="37.808155" lon="-3.016107">
        <ele>1138.7</ele>
        <time>2010-07-31T10:40:59Z</time>
      </trkpt>
      <trkpt lat="37.807881" lon="-3.015962">
        <ele>1134.5</ele>
        <time>2010-07-31T10:40:59Z</time>
      </trkpt>
      <trkpt lat="37.807778" lon="-3.016005">
        <ele>1129.8</ele>
        <time>2010-07-31T10:40:59Z</time>
      </trkpt>
      <trkpt lat="37.807778" lon="-3.016106">
        <ele>1127.9</ele>
        <time>2010-07-31T10:40:59Z</time>
      </trkpt>
      <trkpt lat="37.807874" lon="-3.016323">
        <ele>1127.3</ele>
        <time>2010-07-31T10:40:59Z</time>
      </trkpt>
      <trkpt lat="37.808023" lon="-3.016467">
        <ele>1127.9</ele>
        <time>2010-07-31T10:40:59Z</time>
      </trkpt>
      <trkpt lat="37.808068" lon="-3.016561">
        <ele>1126.9</ele>
        <time>2010-07-31T10:40:59Z</time>
      </trkpt>
      <trkpt lat="37.807897" lon="-3.016604">
        <ele>1121.3</ele>
        <time>2010-07-31T10:40:59Z</time>
      </trkpt>
      <trkpt lat="37.807845" lon="-3.016510">
        <ele>1121.9</ele>
        <time>2010-07-31T10:40:59Z</time>
      </trkpt>
      <trkpt lat="37.807680" lon="-3.016487">
        <ele>1116.3</ele>
        <time>2010-07-31T10:40:59Z</time>
      </trkpt>
      <trkpt lat="37.807292" lon="-3.016227">
        <ele>1107.4</ele>
        <time>2010-07-31T10:40:59Z</time>
      </trkpt>
      <trkpt lat="37.807155" lon="-3.016082">
        <ele>1104.9</ele>
        <time>2010-07-31T10:40:59Z</time>
      </trkpt>
      <trkpt lat="37.807012" lon="-3.015916">
        <ele>1102.8</ele>
        <time>2010-07-31T10:40:59Z</time>
      </trkpt>
      <trkpt lat="37.806926" lon="-3.015952">
        <ele>1099.6</ele>
        <time>2010-07-31T10:40:59Z</time>
      </trkpt>
      <trkpt lat="37.807045" lon="-3.016233">
        <ele>1098.1</ele>
        <time>2010-07-31T10:40:59Z</time>
      </trkpt>
      <trkpt lat="37.807211" lon="-3.016508">
        <ele>1098.3</ele>
        <time>2010-07-31T10:40:59Z</time>
      </trkpt>
      <trkpt lat="37.807405" lon="-3.016731">
        <ele>1100.2</ele>
        <time>2010-07-31T10:40:59Z</time>
      </trkpt>
      <trkpt lat="37.807564" lon="-3.017056">
        <ele>1098.3</ele>
        <time>2010-07-31T10:40:59Z</time>
      </trkpt>
      <trkpt lat="37.807707" lon="-3.017330">
        <ele>1097.1</ele>
        <time>2010-07-31T10:40:59Z</time>
      </trkpt>
      <trkpt lat="37.807895" lon="-3.017605">
        <ele>1094.8</ele>
        <time>2010-07-31T10:40:59Z</time>
      </trkpt>
      <trkpt lat="37.807951" lon="-3.017843">
        <ele>1094.9</ele>
        <time>2010-07-31T10:40:59Z</time>
      </trkpt>
      <trkpt lat="37.807923" lon="-3.017973">
        <ele>1090.9</ele>
        <time>2010-07-31T10:40:59Z</time>
      </trkpt>
      <trkpt lat="37.807765" lon="-3.017789">
        <ele>1083.2</ele>
        <time>2010-07-31T10:40:59Z</time>
      </trkpt>
      <trkpt lat="37.807586" lon="-3.017768">
        <ele>1073.1</ele>
        <time>2010-07-31T10:40:59Z</time>
      </trkpt>
      <trkpt lat="37.807309" lon="-3.017481">
        <ele>1064.7</ele>
        <time>2010-07-31T10:40:59Z</time>
      </trkpt>
      <trkpt lat="37.806940" lon="-3.017350">
        <ele>1069.2</ele>
        <time>2010-07-31T10:40:59Z</time>
      </trkpt>
      <trkpt lat="37.806696" lon="-3.016773">
        <ele>1076.8</ele>
        <time>2010-07-31T10:40:59Z</time>
      </trkpt>
      <trkpt lat="37.806394" lon="-3.016253">
        <ele>1078.8</ele>
        <time>2010-07-31T10:40:59Z</time>
      </trkpt>
      <trkpt lat="37.806177" lon="-3.015841">
        <ele>1081.4</ele>
        <time>2010-07-31T10:40:59Z</time>
      </trkpt>
      <trkpt lat="37.805828" lon="-3.016024">
        <ele>1096.2</ele>
        <time>2010-07-31T10:40:59Z</time>
      </trkpt>
      <trkpt lat="37.805730" lon="-3.015613">
        <ele>1105.2</ele>
        <time>2010-07-31T10:40:59Z</time>
      </trkpt>
      <trkpt lat="37.805487" lon="-3.015248">
        <ele>1107.3</ele>
        <time>2010-07-31T10:40:59Z</time>
      </trkpt>
      <trkpt lat="37.805372" lon="-3.015457">
        <ele>1109.8</ele>
        <time>2010-07-31T10:40:59Z</time>
      </trkpt>
      <trkpt lat="37.805514" lon="-3.016005">
        <ele>1112.7</ele>
        <time>2010-07-31T10:40:59Z</time>
      </trkpt>
      <trkpt lat="37.805553" lon="-3.016336">
        <ele>1115.3</ele>
        <time>2010-07-31T10:40:59Z</time>
      </trkpt>
      <trkpt lat="37.805547" lon="-3.016610">
        <ele>1100.8</ele>
        <time>2010-07-31T10:40:59Z</time>
      </trkpt>
      <trkpt lat="37.805511" lon="-3.017266">
        <ele>1066.8</ele>
        <time>2010-07-31T10:40:59Z</time>
      </trkpt>
      <trkpt lat="37.805401" lon="-3.017914">
        <ele>1053.9</ele>
        <time>2010-07-31T10:40:59Z</time>
      </trkpt>
      <trkpt lat="37.805246" lon="-3.018252">
        <ele>1062.8</ele>
        <time>2010-07-31T10:40:59Z</time>
      </trkpt>
      <trkpt lat="37.804937" lon="-3.018446">
        <ele>1090.2</ele>
        <time>2010-07-31T10:40:59Z</time>
      </trkpt>
      <trkpt lat="37.804794" lon="-3.018783">
        <ele>1090.0</ele>
        <time>2010-07-31T10:40:59Z</time>
      </trkpt>
      <trkpt lat="37.804684" lon="-3.019273">
        <ele>1079.3</ele>
        <time>2010-07-31T10:40:59Z</time>
      </trkpt>
      <trkpt lat="37.804655" lon="-3.019475">
        <ele>1073.1</ele>
        <time>2010-07-31T10:40:59Z</time>
      </trkpt>
      <trkpt lat="37.804333" lon="-3.019993">
        <ele>1064.0</ele>
        <time>2010-07-31T10:40:59Z</time>
      </trkpt>
      <trkpt lat="37.803687" lon="-3.020271">
        <ele>1070.4</ele>
        <time>2010-07-31T10:40:59Z</time>
      </trkpt>
      <trkpt lat="37.803258" lon="-3.020407">
        <ele>1092.6</ele>
        <time>2010-07-31T10:40:59Z</time>
      </trkpt>
      <trkpt lat="37.803046" lon="-3.020651">
        <ele>1094.4</ele>
        <time>2010-07-31T10:40:59Z</time>
      </trkpt>
      <trkpt lat="37.802787" lon="-3.021155">
        <ele>1095.5</ele>
        <time>2010-07-31T10:40:59Z</time>
      </trkpt>
      <trkpt lat="37.802656" lon="-3.021493">
        <ele>1089.4</ele>
        <time>2010-07-31T10:40:59Z</time>
      </trkpt>
      <trkpt lat="37.802460" lon="-3.021852">
        <ele>1083.1</ele>
        <time>2010-07-31T10:40:59Z</time>
      </trkpt>
      <trkpt lat="37.802306" lon="-3.021989">
        <ele>1083.6</ele>
        <time>2010-07-31T10:40:59Z</time>
      </trkpt>
      <trkpt lat="37.802151" lon="-3.022132">
        <ele>1083.2</ele>
        <time>2010-07-31T10:40:59Z</time>
      </trkpt>
      <trkpt lat="37.801990" lon="-3.022456">
        <ele>1078.8</ele>
        <time>2010-07-31T10:40:59Z</time>
      </trkpt>
      <trkpt lat="37.801606" lon="-3.022736">
        <ele>1085.8</ele>
        <time>2010-07-31T10:40:59Z</time>
      </trkpt>
      <trkpt lat="37.800518" lon="-3.023712">
        <ele>1115.3</ele>
        <time>2010-07-31T10:40:59Z</time>
      </trkpt>
      <trkpt lat="37.800341" lon="-3.023913">
        <ele>1115.1</ele>
        <time>2010-07-31T10:40:59Z</time>
      </trkpt>
      <trkpt lat="37.800317" lon="-3.024252">
        <ele>1108.5</ele>
        <time>2010-07-31T10:40:59Z</time>
      </trkpt>
      <trkpt lat="37.800385" lon="-3.024627">
        <ele>1099.9</ele>
        <time>2010-07-31T10:40:59Z</time>
      </trkpt>
      <trkpt lat="37.800379" lon="-3.024835">
        <ele>1094.7</ele>
        <time>2010-07-31T10:40:59Z</time>
      </trkpt>
      <trkpt lat="37.800487" lon="-3.025066">
        <ele>1087.4</ele>
        <time>2010-07-31T10:40:59Z</time>
      </trkpt>
      <trkpt lat="37.800338" lon="-3.025253">
        <ele>1082.9</ele>
        <time>2010-07-31T10:40:59Z</time>
      </trkpt>
      <trkpt lat="37.800086" lon="-3.025324">
        <ele>1079.0</ele>
        <time>2010-07-31T10:40:59Z</time>
      </trkpt>
      <trkpt lat="37.799858" lon="-3.025006">
        <ele>1087.7</ele>
        <time>2010-07-31T10:40:59Z</time>
      </trkpt>
      <trkpt lat="37.799710" lon="-3.024934">
        <ele>1089.5</ele>
        <time>2010-07-31T10:40:59Z</time>
      </trkpt>
      <trkpt lat="37.799304" lon="-3.025004">
        <ele>1085.6</ele>
        <time>2010-07-31T10:40:59Z</time>
      </trkpt>
      <trkpt lat="37.798760" lon="-3.025067">
        <ele>1082.0</ele>
        <time>2010-07-31T10:40:59Z</time>
      </trkpt>
      <trkpt lat="37.798481" lon="-3.024908">
        <ele>1082.2</ele>
        <time>2010-07-31T10:40:59Z</time>
      </trkpt>
      <trkpt lat="37.798138" lon="-3.024806">
        <ele>1078.3</ele>
        <time>2010-07-31T10:40:59Z</time>
      </trkpt>
      <trkpt lat="37.797894" lon="-3.024716">
        <ele>1075.5</ele>
        <time>2010-07-31T10:40:59Z</time>
      </trkpt>
      <trkpt lat="37.797781" lon="-3.024430">
        <ele>1079.7</ele>
        <time>2010-07-31T10:40:59Z</time>
      </trkpt>
      <trkpt lat="37.797622" lon="-3.024043">
        <ele>1084.1</ele>
        <time>2010-07-31T10:40:59Z</time>
      </trkpt>
      <trkpt lat="37.797515" lon="-3.023765">
        <ele>1088.3</ele>
        <time>2010-07-31T10:40:59Z</time>
      </trkpt>
      <trkpt lat="37.797149" lon="-3.023646">
        <ele>1080.1</ele>
        <time>2010-07-31T10:40:59Z</time>
      </trkpt>
      <trkpt lat="37.797070" lon="-3.023428">
        <ele>1086.5</ele>
        <time>2010-07-31T10:40:59Z</time>
      </trkpt>
      <trkpt lat="37.796990" lon="-3.023192">
        <ele>1099.7</ele>
        <time>2010-07-31T10:40:59Z</time>
      </trkpt>
      <trkpt lat="37.796917" lon="-3.023049">
        <ele>1112.4</ele>
        <time>2010-07-31T10:40:59Z</time>
      </trkpt>
      <trkpt lat="37.796810" lon="-3.023065">
        <ele>1120.6</ele>
        <time>2010-07-31T10:40:59Z</time>
      </trkpt>
      <trkpt lat="37.796490" lon="-3.023325">
        <ele>1126.7</ele>
        <time>2010-07-31T10:40:59Z</time>
      </trkpt>
      <trkpt lat="37.796276" lon="-3.023534">
        <ele>1120.9</ele>
        <time>2010-07-31T10:40:59Z</time>
      </trkpt>
      <trkpt lat="37.796115" lon="-3.023853">
        <ele>1099.7</ele>
        <time>2010-07-31T10:40:59Z</time>
      </trkpt>
      <trkpt lat="37.795613" lon="-3.024523">
        <ele>1094.5</ele>
        <time>2010-07-31T10:40:59Z</time>
      </trkpt>
      <trkpt lat="37.795333" lon="-3.024598">
        <ele>1105.1</ele>
        <time>2010-07-31T10:40:59Z</time>
      </trkpt>
      <trkpt lat="37.795039" lon="-3.024815">
        <ele>1113.0</ele>
        <time>2010-07-31T10:40:59Z</time>
      </trkpt>
      <trkpt lat="37.794886" lon="-3.025084">
        <ele>1115.1</ele>
        <time>2010-07-31T10:40:59Z</time>
      </trkpt>
      <trkpt lat="37.794572" lon="-3.025267">
        <ele>1134.6</ele>
        <time>2010-07-31T10:40:59Z</time>
      </trkpt>
      <trkpt lat="37.794458" lon="-3.025427">
        <ele>1138.5</ele>
        <time>2010-07-31T10:40:59Z</time>
      </trkpt>
      <trkpt lat="37.794451" lon="-3.025587">
        <ele>1137.4</ele>
        <time>2010-07-31T10:40:59Z</time>
      </trkpt>
      <trkpt lat="37.794550" lon="-3.025881">
        <ele>1132.3</ele>
        <time>2010-07-31T10:40:59Z</time>
      </trkpt>
      <trkpt lat="37.794670" lon="-3.026108">
        <ele>1119.9</ele>
        <time>2010-07-31T10:40:59Z</time>
      </trkpt>
      <trkpt lat="37.794630" lon="-3.026293">
        <ele>1124.2</ele>
        <time>2010-07-31T10:40:59Z</time>
      </trkpt>
      <trkpt lat="37.794489" lon="-3.026478">
        <ele>1133.6</ele>
        <time>2010-07-31T10:40:59Z</time>
      </trkpt>
      <trkpt lat="37.794422" lon="-3.026578">
        <ele>1134.6</ele>
        <time>2010-07-31T10:40:59Z</time>
      </trkpt>
      <trkpt lat="37.794375" lon="-3.026872">
        <ele>1129.9</ele>
        <time>2010-07-31T10:40:59Z</time>
      </trkpt>
      <trkpt lat="37.794314" lon="-3.027334">
        <ele>1123.5</ele>
        <time>2010-07-31T10:40:59Z</time>
      </trkpt>
      <trkpt lat="37.794226" lon="-3.027804">
        <ele>1121.4</ele>
        <time>2010-07-31T10:40:59Z</time>
      </trkpt>
      <trkpt lat="37.794045" lon="-3.028165">
        <ele>1128.9</ele>
        <time>2010-07-31T10:40:59Z</time>
      </trkpt>
      <trkpt lat="37.794078" lon="-3.028560">
        <ele>1127.0</ele>
        <time>2010-07-31T10:40:59Z</time>
      </trkpt>
      <trkpt lat="37.794164" lon="-3.028972">
        <ele>1122.0</ele>
        <time>2010-07-31T10:40:59Z</time>
      </trkpt>
      <trkpt lat="37.794236" lon="-3.029258">
        <ele>1116.2</ele>
        <time>2010-07-31T10:40:59Z</time>
      </trkpt>
      <trkpt lat="37.794295" lon="-3.029720">
        <ele>1108.6</ele>
        <time>2010-07-31T10:40:59Z</time>
      </trkpt>
      <trkpt lat="37.794182" lon="-3.029972">
        <ele>1109.2</ele>
        <time>2010-07-31T10:40:59Z</time>
      </trkpt>
      <trkpt lat="37.793994" lon="-3.030106">
        <ele>1119.5</ele>
        <time>2010-07-31T10:40:59Z</time>
      </trkpt>
      <trkpt lat="37.793774" lon="-3.030172">
        <ele>1134.6</ele>
        <time>2010-07-31T10:40:59Z</time>
      </trkpt>
      <trkpt lat="37.793700" lon="-3.030483">
        <ele>1136.5</ele>
        <time>2010-07-31T10:40:59Z</time>
      </trkpt>
      <trkpt lat="37.793566" lon="-3.030667">
        <ele>1138.1</ele>
        <time>2010-07-31T10:40:59Z</time>
      </trkpt>
      <trkpt lat="37.793579" lon="-3.030970">
        <ele>1135.5</ele>
        <time>2010-07-31T10:40:59Z</time>
      </trkpt>
      <trkpt lat="37.793412" lon="-3.031229">
        <ele>1140.3</ele>
        <time>2010-07-31T10:40:59Z</time>
      </trkpt>
      <trkpt lat="37.793351" lon="-3.031709">
        <ele>1142.7</ele>
        <time>2010-07-31T10:40:59Z</time>
      </trkpt>
      <trkpt lat="37.793303" lon="-3.032137">
        <ele>1145.5</ele>
        <time>2010-07-31T10:40:59Z</time>
      </trkpt>
      <trkpt lat="37.793467" lon="-3.033152">
        <ele>1147.4</ele>
        <time>2010-07-31T10:40:59Z</time>
      </trkpt>
      <trkpt lat="37.793256" lon="-3.032681">
        <ele>1158.1</ele>
        <time>2010-07-31T10:40:59Z</time>
      </trkpt>
      <trkpt lat="37.793207" lon="-3.033070">
        <ele>1166.8</ele>
        <time>2010-07-31T10:40:59Z</time>
      </trkpt>
      <trkpt lat="37.793093" lon="-3.033399">
        <ele>1169.7</ele>
        <time>2010-07-31T10:40:59Z</time>
      </trkpt>
      <trkpt lat="37.793044" lon="-3.032804">
        <ele>1168.9</ele>
        <time>2010-07-31T10:40:59Z</time>
      </trkpt>
      <trkpt lat="37.792931" lon="-3.032475">
        <ele>1169.7</ele>
        <time>2010-07-31T10:40:59Z</time>
      </trkpt>
      <trkpt lat="37.792877" lon="-3.031992">
        <ele>1174.2</ele>
        <time>2010-07-31T10:40:59Z</time>
      </trkpt>
      <trkpt lat="37.792790" lon="-3.031992">
        <ele>1170.4</ele>
        <time>2010-07-31T10:40:59Z</time>
      </trkpt>
      <trkpt lat="37.792877" lon="-3.031992">
        <ele>1168.5</ele>
        <time>2010-07-31T10:40:59Z</time>
      </trkpt>
      <trkpt lat="37.792871" lon="-3.031681">
        <ele>1165.9</ele>
        <time>2010-07-31T10:40:59Z</time>
      </trkpt>
      <trkpt lat="37.792611" lon="-3.031622">
        <ele>1168.9</ele>
        <time>2010-07-31T10:40:59Z</time>
      </trkpt>
      <trkpt lat="37.792491" lon="-3.031520">
        <ele>1168.8</ele>
        <time>2010-07-31T10:40:59Z</time>
      </trkpt>
      <trkpt lat="37.792411" lon="-3.031654">
        <ele>1172.3</ele>
        <time>2010-07-31T10:40:59Z</time>
      </trkpt>
      <trkpt lat="37.792257" lon="-3.031822">
        <ele>1178.3</ele>
        <time>2010-07-31T10:40:59Z</time>
      </trkpt>
      <trkpt lat="37.792057" lon="-3.031788">
        <ele>1180.9</ele>
        <time>2010-07-31T10:40:59Z</time>
      </trkpt>
      <trkpt lat="37.791878" lon="-3.031544">
        <ele>1176.4</ele>
        <time>2010-07-31T10:40:59Z</time>
      </trkpt>
      <trkpt lat="37.791818" lon="-3.031417">
        <ele>1173.5</ele>
        <time>2010-07-31T10:40:59Z</time>
      </trkpt>
      <trkpt lat="37.791645" lon="-3.031341">
        <ele>1173.2</ele>
        <time>2010-07-31T10:40:59Z</time>
      </trkpt>
      <trkpt lat="37.791391" lon="-3.031407">
        <ele>1177.9</ele>
        <time>2010-07-31T10:40:59Z</time>
      </trkpt>
      <trkpt lat="37.791285" lon="-3.031264">
        <ele>1174.8</ele>
        <time>2010-07-31T10:40:59Z</time>
      </trkpt>
      <trkpt lat="37.790972" lon="-3.031045">
        <ele>1166.8</ele>
        <time>2010-07-31T10:40:59Z</time>
      </trkpt>
      <trkpt lat="37.790559" lon="-3.030825">
        <ele>1157.9</ele>
        <time>2010-07-31T10:40:59Z</time>
      </trkpt>
      <trkpt lat="37.790319" lon="-3.030798">
        <ele>1155.5</ele>
        <time>2010-07-31T10:40:59Z</time>
      </trkpt>
      <trkpt lat="37.790092" lon="-3.031050">
        <ele>1157.7</ele>
        <time>2010-07-31T10:40:59Z</time>
      </trkpt>
      <trkpt lat="37.789958" lon="-3.031234">
        <ele>1159.3</ele>
        <time>2010-07-31T10:40:59Z</time>
      </trkpt>
      <trkpt lat="37.789831" lon="-3.031233">
        <ele>1157.5</ele>
        <time>2010-07-31T10:40:59Z</time>
      </trkpt>
      <trkpt lat="37.789671" lon="-3.031149">
        <ele>1153.7</ele>
        <time>2010-07-31T10:40:59Z</time>
      </trkpt>
      <trkpt lat="37.789478" lon="-3.031115">
        <ele>1149.9</ele>
        <time>2010-07-31T10:40:59Z</time>
      </trkpt>
      <trkpt lat="37.789305" lon="-3.031030">
        <ele>1144.7</ele>
        <time>2010-07-31T10:40:59Z</time>
      </trkpt>
      <trkpt lat="37.789132" lon="-3.031047">
        <ele>1141.0</ele>
        <time>2010-07-31T10:40:59Z</time>
      </trkpt>
      <trkpt lat="37.788951" lon="-3.031163">
        <ele>1139.0</ele>
        <time>2010-07-31T10:40:59Z</time>
      </trkpt>
      <trkpt lat="37.788778" lon="-3.031213">
        <ele>1136.0</ele>
        <time>2010-07-31T10:40:59Z</time>
      </trkpt>
      <trkpt lat="37.788597" lon="-3.031439">
        <ele>1137.1</ele>
        <time>2010-07-31T10:40:59Z</time>
      </trkpt>
      <trkpt lat="37.788257" lon="-3.031623">
        <ele>1133.8</ele>
        <time>2010-07-31T10:40:59Z</time>
      </trkpt>
      <trkpt lat="37.788183" lon="-3.031833">
        <ele>1135.7</ele>
        <time>2010-07-31T10:40:59Z</time>
      </trkpt>
      <trkpt lat="37.788016" lon="-3.031975">
        <ele>1133.4</ele>
        <time>2010-07-31T10:40:59Z</time>
      </trkpt>
      <trkpt lat="37.787796" lon="-3.031915">
        <ele>1126.6</ele>
        <time>2010-07-31T10:40:59Z</time>
      </trkpt>
      <trkpt lat="37.787796" lon="-3.031915">
        <ele>1126.6</ele>
        <time>2010-07-31T10:40:59Z</time>
      </trkpt>
      <trkpt lat="37.787622" lon="-3.032075">
        <ele>1123.9</ele>
        <time>2010-07-31T10:40:59Z</time>
      </trkpt>
      <trkpt lat="37.787541" lon="-3.032360">
        <ele>1126.1</ele>
        <time>2010-07-31T10:40:59Z</time>
      </trkpt>
      <trkpt lat="37.787534" lon="-3.032713">
        <ele>1131.8</ele>
        <time>2010-07-31T10:40:59Z</time>
      </trkpt>
      <trkpt lat="37.787567" lon="-3.032982">
        <ele>1137.0</ele>
        <time>2010-07-31T10:40:59Z</time>
      </trkpt>
      <trkpt lat="37.787560" lon="-3.033175">
        <ele>1140.0</ele>
        <time>2010-07-31T10:40:59Z</time>
      </trkpt>
      <trkpt lat="37.787427" lon="-3.033225">
        <ele>1137.2</ele>
        <time>2010-07-31T10:40:59Z</time>
      </trkpt>
      <trkpt lat="37.787334" lon="-3.033116">
        <ele>1133.3</ele>
        <time>2010-07-31T10:40:59Z</time>
      </trkpt>
      <trkpt lat="37.787120" lon="-3.033199">
        <ele>1128.8</ele>
        <time>2010-07-31T10:40:59Z</time>
      </trkpt>
      <trkpt lat="37.787033" lon="-3.033324">
        <ele>1127.8</ele>
        <time>2010-07-31T10:40:59Z</time>
      </trkpt>
      <trkpt lat="37.786939" lon="-3.033568">
        <ele>1128.5</ele>
        <time>2010-07-31T10:40:59Z</time>
      </trkpt>
      <trkpt lat="37.786858" lon="-3.033903">
        <ele>1130.3</ele>
        <time>2010-07-31T10:40:59Z</time>
      </trkpt>
      <trkpt lat="37.786764" lon="-3.034323">
        <ele>1132.7</ele>
        <time>2010-07-31T10:40:59Z</time>
      </trkpt>
      <trkpt lat="37.786837" lon="-3.034659">
        <ele>1136.6</ele>
        <time>2010-07-31T10:40:59Z</time>
      </trkpt>
      <trkpt lat="37.787002" lon="-3.035114">
        <ele>1146.8</ele>
        <time>2010-07-31T10:40:59Z</time>
      </trkpt>
      <trkpt lat="37.786949" lon="-3.035265">
        <ele>1148.9</ele>
        <time>2010-07-31T10:40:59Z</time>
      </trkpt>
      <trkpt lat="37.786748" lon="-3.035415">
        <ele>1148.7</ele>
        <time>2010-07-31T10:40:59Z</time>
      </trkpt>
      <trkpt lat="37.786668" lon="-3.035760">
        <ele>1151.9</ele>
        <time>2010-07-31T10:40:59Z</time>
      </trkpt>
      <trkpt lat="37.786520" lon="-3.036120">
        <ele>1153.6</ele>
        <time>2010-07-31T10:40:59Z</time>
      </trkpt>
      <trkpt lat="37.786306" lon="-3.036632">
        <ele>1154.7</ele>
        <time>2010-07-31T10:40:59Z</time>
      </trkpt>
      <trkpt lat="37.786331" lon="-3.037078">
        <ele>1158.4</ele>
        <time>2010-07-31T10:40:59Z</time>
      </trkpt>
      <trkpt lat="37.786330" lon="-3.037574">
        <ele>1161.6</ele>
        <time>2010-07-31T10:40:59Z</time>
      </trkpt>
      <trkpt lat="37.786392" lon="-3.038464">
        <ele>1166.8</ele>
        <time>2010-07-31T10:40:59Z</time>
      </trkpt>
      <trkpt lat="37.786392" lon="-3.038464">
        <ele>1166.8</ele>
        <time>2010-07-31T10:40:59Z</time>
      </trkpt>
      <trkpt lat="37.786207" lon="-3.038391">
        <ele>1164.4</ele>
        <time>2010-07-31T10:40:59Z</time>
      </trkpt>
      <trkpt lat="37.786207" lon="-3.038391">
        <ele>1162.4</ele>
        <time>2010-07-31T10:40:59Z</time>
      </trkpt>
      <trkpt lat="37.786119" lon="-3.038212">
        <ele>1162.4</ele>
        <time>2010-07-31T10:40:59Z</time>
      </trkpt>
      <trkpt lat="37.786079" lon="-3.038112">
        <ele>1161.9</ele>
        <time>2010-07-31T10:40:59Z</time>
      </trkpt>
      <trkpt lat="37.785913" lon="-3.038012">
        <ele>1161.4</ele>
        <time>2010-07-31T10:40:59Z</time>
      </trkpt>
      <trkpt lat="37.785833" lon="-3.037901">
        <ele>1160.9</ele>
        <time>2010-07-31T10:40:59Z</time>
      </trkpt>
      <trkpt lat="37.785833" lon="-3.037901">
        <ele>1160.0</ele>
        <time>2010-07-31T10:40:59Z</time>
      </trkpt>
      <trkpt lat="37.785722" lon="-3.037711">
        <ele>1159.5</ele>
        <time>2010-07-31T10:40:59Z</time>
      </trkpt>
      <trkpt lat="37.785675" lon="-3.037621">
        <ele>1158.5</ele>
        <time>2010-07-31T10:40:59Z</time>
      </trkpt>
      <trkpt lat="37.785627" lon="-3.037501">
        <ele>1156.6</ele>
        <time>2010-07-31T10:40:59Z</time>
      </trkpt>
      <trkpt lat="37.785571" lon="-3.037391">
        <ele>1156.1</ele>
        <time>2010-07-31T10:40:59Z</time>
      </trkpt>
      <trkpt lat="37.785508" lon="-3.037231">
        <ele>1155.2</ele>
        <time>2010-07-31T10:40:59Z</time>
      </trkpt>
      <trkpt lat="37.785380" lon="-3.037150">
        <ele>1153.2</ele>
        <time>2010-07-31T10:40:59Z</time>
      </trkpt>
      <trkpt lat="37.785316" lon="-3.037039">
        <ele>1150.8</ele>
        <time>2010-07-31T10:40:59Z</time>
      </trkpt>
      <trkpt lat="37.785232" lon="-3.036948">
        <ele>1148.9</ele>
        <time>2010-07-31T10:40:59Z</time>
      </trkpt>
      <trkpt lat="37.785150" lon="-3.036860">
        <ele>1148.0</ele>
        <time>2010-07-31T10:40:59Z</time>
      </trkpt>
      <trkpt lat="37.785076" lon="-3.036794">
        <ele>1146.0</ele>
        <time>2010-07-31T10:40:59Z</time>
      </trkpt>
      <trkpt lat="37.784988" lon="-3.036697">
        <ele>1143.1</ele>
        <time>2010-07-31T10:40:59Z</time>
      </trkpt>
      <trkpt lat="37.784921" lon="-3.036605">
        <ele>1141.2</ele>
        <time>2010-07-31T10:40:59Z</time>
      </trkpt>
      <trkpt lat="37.784849" lon="-3.036505">
        <ele>1140.3</ele>
        <time>2010-07-31T10:40:59Z</time>
      </trkpt>
      <trkpt lat="37.784778" lon="-3.036435">
        <ele>1137.4</ele>
        <time>2010-07-31T10:40:59Z</time>
      </trkpt>
      <trkpt lat="37.784703" lon="-3.036364">
        <ele>1135.9</ele>
        <time>2010-07-31T10:40:59Z</time>
      </trkpt>
      <trkpt lat="37.784620" lon="-3.036302">
        <ele>1135.5</ele>
        <time>2010-07-31T10:40:59Z</time>
      </trkpt>
      <trkpt lat="37.784526" lon="-3.036251">
        <ele>1134.0</ele>
        <time>2010-07-31T10:40:59Z</time>
      </trkpt>
      <trkpt lat="37.784430" lon="-3.036207">
        <ele>1133.1</ele>
        <time>2010-07-31T10:40:59Z</time>
      </trkpt>
      <trkpt lat="37.784356" lon="-3.036190">
        <ele>1132.1</ele>
        <time>2010-07-31T10:40:59Z</time>
      </trkpt>
      <trkpt lat="37.784275" lon="-3.036115">
        <ele>1134.0</ele>
        <time>2010-07-31T10:40:59Z</time>
      </trkpt>
      <trkpt lat="37.784187" lon="-3.036073">
        <ele>1131.6</ele>
        <time>2010-07-31T10:40:59Z</time>
      </trkpt>
      <trkpt lat="37.784113" lon="-3.036004">
        <ele>1128.2</ele>
        <time>2010-07-31T10:40:59Z</time>
      </trkpt>
      <trkpt lat="37.784043" lon="-3.035967">
        <ele>1130.6</ele>
        <time>2010-07-31T10:40:59Z</time>
      </trkpt>
      <trkpt lat="37.783943" lon="-3.035891">
        <ele>1135.0</ele>
        <time>2010-07-31T10:40:59Z</time>
      </trkpt>
      <trkpt lat="37.783867" lon="-3.035848">
        <ele>1126.8</ele>
        <time>2010-07-31T10:40:59Z</time>
      </trkpt>
      <trkpt lat="37.783784" lon="-3.035843">
        <ele>1121.5</ele>
        <time>2010-07-31T10:40:59Z</time>
      </trkpt>
      <trkpt lat="37.783698" lon="-3.035830">
        <ele>1118.2</ele>
        <time>2010-07-31T10:40:59Z</time>
      </trkpt>
      <trkpt lat="37.783599" lon="-3.035830">
        <ele>1115.3</ele>
        <time>2010-07-31T10:40:59Z</time>
      </trkpt>
      <trkpt lat="37.783522" lon="-3.035726">
        <ele>1106.6</ele>
        <time>2010-07-31T10:40:59Z</time>
      </trkpt>
      <trkpt lat="37.783465" lon="-3.035670">
        <ele>1104.7</ele>
        <time>2010-07-31T10:40:59Z</time>
      </trkpt>
      <trkpt lat="37.783437" lon="-3.035571">
        <ele>1103.7</ele>
        <time>2010-07-31T10:40:59Z</time>
      </trkpt>
      <trkpt lat="37.783397" lon="-3.035483">
        <ele>1099.4</ele>
        <time>2010-07-31T10:40:59Z</time>
      </trkpt>
      <trkpt lat="37.783363" lon="-3.035390">
        <ele>1096.5</ele>
        <time>2010-07-31T10:40:59Z</time>
      </trkpt>
      <trkpt lat="37.783297" lon="-3.035292">
        <ele>1098.4</ele>
        <time>2010-07-31T10:40:59Z</time>
      </trkpt>
      <trkpt lat="37.783234" lon="-3.035216">
        <ele>1094.1</ele>
        <time>2010-07-31T10:40:59Z</time>
      </trkpt>
      <trkpt lat="37.783194" lon="-3.035135">
        <ele>1090.3</ele>
        <time>2010-07-31T10:40:59Z</time>
      </trkpt>
      <trkpt lat="37.783145" lon="-3.035026">
        <ele>1090.3</ele>
        <time>2010-07-31T10:40:59Z</time>
      </trkpt>
      <trkpt lat="37.783075" lon="-3.034941">
        <ele>1090.8</ele>
        <time>2010-07-31T10:40:59Z</time>
      </trkpt>
      <trkpt lat="37.782952" lon="-3.034818">
        <ele>1088.8</ele>
        <time>2010-07-31T10:40:59Z</time>
      </trkpt>
      <trkpt lat="37.782952" lon="-3.034818">
        <ele>1090.3</ele>
        <time>2010-07-31T10:40:59Z</time>
      </trkpt>
      <trkpt lat="37.782952" lon="-3.034818">
        <ele>1084.0</ele>
        <time>2010-07-31T10:40:59Z</time>
      </trkpt>
      <trkpt lat="37.782873" lon="-3.034738">
        <ele>1081.6</ele>
        <time>2010-07-31T10:40:59Z</time>
      </trkpt>
      <trkpt lat="37.782786" lon="-3.034678">
        <ele>1081.6</ele>
        <time>2010-07-31T10:40:59Z</time>
      </trkpt>
      <trkpt lat="37.782698" lon="-3.034638">
        <ele>1083.5</ele>
        <time>2010-07-31T10:40:59Z</time>
      </trkpt>
      <trkpt lat="37.782639" lon="-3.034558">
        <ele>1082.6</ele>
        <time>2010-07-31T10:40:59Z</time>
      </trkpt>
      <trkpt lat="37.782436" lon="-3.034518">
        <ele>1086.9</ele>
        <time>2010-07-31T10:40:59Z</time>
      </trkpt>
      <trkpt lat="37.782333" lon="-3.034478">
        <ele>1084.0</ele>
        <time>2010-07-31T10:40:59Z</time>
      </trkpt>
      <trkpt lat="37.782245" lon="-3.034418">
        <ele>1087.9</ele>
        <time>2010-07-31T10:40:59Z</time>
      </trkpt>
      <trkpt lat="37.782138" lon="-3.034366">
        <ele>1089.8</ele>
        <time>2010-07-31T10:40:59Z</time>
      </trkpt>
      <trkpt lat="37.782073" lon="-3.034270">
        <ele>1089.8</ele>
        <time>2010-07-31T10:40:59Z</time>
      </trkpt>
      <trkpt lat="37.781995" lon="-3.034192">
        <ele>1087.9</ele>
        <time>2010-07-31T10:40:59Z</time>
      </trkpt>
      <trkpt lat="37.781924" lon="-3.034106">
        <ele>1086.9</ele>
        <time>2010-07-31T10:40:59Z</time>
      </trkpt>
      <trkpt lat="37.781866" lon="-3.034000">
        <ele>1086.4</ele>
        <time>2010-07-31T10:40:59Z</time>
      </trkpt>
      <trkpt lat="37.781810" lon="-3.033915">
        <ele>1085.5</ele>
        <time>2010-07-31T10:40:59Z</time>
      </trkpt>
      <trkpt lat="37.781741" lon="-3.033822">
        <ele>1084.0</ele>
        <time>2010-07-31T10:40:59Z</time>
      </trkpt>
      <trkpt lat="37.781679" lon="-3.033734">
        <ele>1082.1</ele>
        <time>2010-07-31T10:40:59Z</time>
      </trkpt>
      <trkpt lat="37.781616" lon="-3.033645">
        <ele>1081.6</ele>
        <time>2010-07-31T10:40:59Z</time>
      </trkpt>
      <trkpt lat="37.781559" lon="-3.033549">
        <ele>1081.6</ele>
        <time>2010-07-31T10:40:59Z</time>
      </trkpt>
      <trkpt lat="37.781503" lon="-3.033441">
        <ele>1082.6</ele>
        <time>2010-07-31T10:40:59Z</time>
      </trkpt>
      <trkpt lat="37.781447" lon="-3.033333">
        <ele>1083.5</ele>
        <time>2010-07-31T10:40:59Z</time>
      </trkpt>
      <trkpt lat="37.781375" lon="-3.033233">
        <ele>1083.5</ele>
        <time>2010-07-31T10:40:59Z</time>
      </trkpt>
      <trkpt lat="37.781322" lon="-3.033132">
        <ele>1083.5</ele>
        <time>2010-07-31T10:40:59Z</time>
      </trkpt>
      <trkpt lat="37.781267" lon="-3.033032">
        <ele>1082.6</ele>
        <time>2010-07-31T10:40:59Z</time>
      </trkpt>
      <trkpt lat="37.781208" lon="-3.032934">
        <ele>1082.1</ele>
        <time>2010-07-31T10:40:59Z</time>
      </trkpt>
      <trkpt lat="37.781149" lon="-3.032851">
        <ele>1079.2</ele>
        <time>2010-07-31T10:40:59Z</time>
      </trkpt>
      <trkpt lat="37.781073" lon="-3.032759">
        <ele>1080.7</ele>
        <time>2010-07-31T10:40:59Z</time>
      </trkpt>
      <trkpt lat="37.781005" lon="-3.032676">
        <ele>1082.1</ele>
        <time>2010-07-31T10:40:59Z</time>
      </trkpt>
      <trkpt lat="37.780927" lon="-3.032611">
        <ele>1081.6</ele>
        <time>2010-07-31T10:40:59Z</time>
      </trkpt>
      <trkpt lat="37.780836" lon="-3.032520">
        <ele>1085.0</ele>
        <time>2010-07-31T10:40:59Z</time>
      </trkpt>
      <trkpt lat="37.780758" lon="-3.032464">
        <ele>1085.5</ele>
        <time>2010-07-31T10:40:59Z</time>
      </trkpt>
      <trkpt lat="37.780675" lon="-3.032384">
        <ele>1085.9</ele>
        <time>2010-07-31T10:40:59Z</time>
      </trkpt>
      <trkpt lat="37.780598" lon="-3.032318">
        <ele>1085.9</ele>
        <time>2010-07-31T10:40:59Z</time>
      </trkpt>
      <trkpt lat="37.780518" lon="-3.032254">
        <ele>1085.0</ele>
        <time>2010-07-31T10:40:59Z</time>
      </trkpt>
      <trkpt lat="37.780434" lon="-3.032197">
        <ele>1083.5</ele>
        <time>2010-07-31T10:40:59Z</time>
      </trkpt>
      <trkpt lat="37.780357" lon="-3.032160">
        <ele>1083.1</ele>
        <time>2010-07-31T10:40:59Z</time>
      </trkpt>
      <trkpt lat="37.780265" lon="-3.032110">
        <ele>1082.1</ele>
        <time>2010-07-31T10:40:59Z</time>
      </trkpt>
      <trkpt lat="37.780165" lon="-3.032082">
        <ele>1081.1</ele>
        <time>2010-07-31T10:40:59Z</time>
      </trkpt>
      <trkpt lat="37.780072" lon="-3.032047">
        <ele>1080.2</ele>
        <time>2010-07-31T10:40:59Z</time>
      </trkpt>
      <trkpt lat="37.779975" lon="-3.031998">
        <ele>1079.7</ele>
        <time>2010-07-31T10:40:59Z</time>
      </trkpt>
      <trkpt lat="37.779882" lon="-3.031937">
        <ele>1077.8</ele>
        <time>2010-07-31T10:40:59Z</time>
      </trkpt>
      <trkpt lat="37.779802" lon="-3.031860">
        <ele>1075.9</ele>
        <time>2010-07-31T10:40:59Z</time>
      </trkpt>
      <trkpt lat="37.779725" lon="-3.031774">
        <ele>1074.9</ele>
        <time>2010-07-31T10:40:59Z</time>
      </trkpt>
      <trkpt lat="37.779636" lon="-3.031714">
        <ele>1074.9</ele>
        <time>2010-07-31T10:40:59Z</time>
      </trkpt>
      <trkpt lat="37.779545" lon="-3.031674">
        <ele>1073.4</ele>
        <time>2010-07-31T10:40:59Z</time>
      </trkpt>
      <trkpt lat="37.779458" lon="-3.031626">
        <ele>1072.0</ele>
        <time>2010-07-31T10:40:59Z</time>
      </trkpt>
      <trkpt lat="37.779404" lon="-3.031533">
        <ele>1070.6</ele>
        <time>2010-07-31T10:40:59Z</time>
      </trkpt>
      <trkpt lat="37.779367" lon="-3.031301">
        <ele>1068.2</ele>
        <time>2010-07-31T10:40:59Z</time>
      </trkpt>
      <trkpt lat="37.779373" lon="-3.031161">
        <ele>1072.5</ele>
        <time>2010-07-31T10:40:59Z</time>
      </trkpt>
      <trkpt lat="37.779428" lon="-3.031096">
        <ele>1069.1</ele>
        <time>2010-07-31T10:40:59Z</time>
      </trkpt>
      <trkpt lat="37.779359" lon="-3.031119">
        <ele>1070.1</ele>
        <time>2010-07-31T10:40:59Z</time>
      </trkpt>
      <trkpt lat="37.779241" lon="-3.031096">
        <ele>1072.0</ele>
        <time>2010-07-31T10:40:59Z</time>
      </trkpt>
      <trkpt lat="37.779140" lon="-3.031055">
        <ele>1073.9</ele>
        <time>2010-07-31T10:40:59Z</time>
      </trkpt>
      <trkpt lat="37.779048" lon="-3.031000">
        <ele>1075.4</ele>
        <time>2010-07-31T10:40:59Z</time>
      </trkpt>
      <trkpt lat="37.778976" lon="-3.030912">
        <ele>1075.9</ele>
        <time>2010-07-31T10:40:59Z</time>
      </trkpt>
      <trkpt lat="37.778922" lon="-3.030810">
        <ele>1075.9</ele>
        <time>2010-07-31T10:40:59Z</time>
      </trkpt>
      <trkpt lat="37.778871" lon="-3.030700">
        <ele>1075.9</ele>
        <time>2010-07-31T10:40:59Z</time>
      </trkpt>
      <trkpt lat="37.778815" lon="-3.030598">
        <ele>1076.3</ele>
        <time>2010-07-31T10:40:59Z</time>
      </trkpt>
      <trkpt lat="37.778757" lon="-3.030480">
        <ele>1078.7</ele>
        <time>2010-07-31T10:40:59Z</time>
      </trkpt>
      <trkpt lat="37.778702" lon="-3.030370">
        <ele>1078.3</ele>
        <time>2010-07-31T10:40:59Z</time>
      </trkpt>
      <trkpt lat="37.778643" lon="-3.030290">
        <ele>1078.3</ele>
        <time>2010-07-31T10:40:59Z</time>
      </trkpt>
      <trkpt lat="37.778583" lon="-3.030192">
        <ele>1078.7</ele>
        <time>2010-07-31T10:40:59Z</time>
      </trkpt>
      <trkpt lat="37.778519" lon="-3.030099">
        <ele>1079.2</ele>
        <time>2010-07-31T10:40:59Z</time>
      </trkpt>
      <trkpt lat="37.778451" lon="-3.030005">
        <ele>1081.1</ele>
        <time>2010-07-31T10:40:59Z</time>
      </trkpt>
      <trkpt lat="37.778382" lon="-3.029943">
        <ele>1080.7</ele>
        <time>2010-07-31T10:40:59Z</time>
      </trkpt>
      <trkpt lat="37.778298" lon="-3.029886">
        <ele>1080.7</ele>
        <time>2010-07-31T10:40:59Z</time>
      </trkpt>
      <trkpt lat="37.778203" lon="-3.029848">
        <ele>1080.7</ele>
        <time>2010-07-31T10:40:59Z</time>
      </trkpt>
      <trkpt lat="37.778112" lon="-3.029816">
        <ele>1078.7</ele>
        <time>2010-07-31T10:40:59Z</time>
      </trkpt>
      <trkpt lat="37.778025" lon="-3.029779">
        <ele>1078.7</ele>
        <time>2010-07-31T10:40:59Z</time>
      </trkpt>
      <trkpt lat="37.777941" lon="-3.029736">
        <ele>1077.8</ele>
        <time>2010-07-31T10:40:59Z</time>
      </trkpt>
      <trkpt lat="37.777858" lon="-3.029695">
        <ele>1076.8</ele>
        <time>2010-07-31T10:40:59Z</time>
      </trkpt>
      <trkpt lat="37.777764" lon="-3.029653">
        <ele>1075.9</ele>
        <time>2010-07-31T10:40:59Z</time>
      </trkpt>
      <trkpt lat="37.777677" lon="-3.029632">
        <ele>1074.9</ele>
        <time>2010-07-31T10:40:59Z</time>
      </trkpt>
      <trkpt lat="37.777565" lon="-3.029618">
        <ele>1075.9</ele>
        <time>2010-07-31T10:40:59Z</time>
      </trkpt>
      <trkpt lat="37.777459" lon="-3.029630">
        <ele>1075.4</ele>
        <time>2010-07-31T10:40:59Z</time>
      </trkpt>
      <trkpt lat="37.777364" lon="-3.029613">
        <ele>1072.5</ele>
        <time>2010-07-31T10:40:59Z</time>
      </trkpt>
      <trkpt lat="37.777279" lon="-3.029555">
        <ele>1070.1</ele>
        <time>2010-07-31T10:40:59Z</time>
      </trkpt>
      <trkpt lat="37.777153" lon="-3.029504">
        <ele>1073.0</ele>
        <time>2010-07-31T10:40:59Z</time>
      </trkpt>
      <trkpt lat="37.777081" lon="-3.029427">
        <ele>1069.1</ele>
        <time>2010-07-31T10:40:59Z</time>
      </trkpt>
      <trkpt lat="37.777028" lon="-3.029326">
        <ele>1065.8</ele>
        <time>2010-07-31T10:40:59Z</time>
      </trkpt>
      <trkpt lat="37.776992" lon="-3.029213">
        <ele>1063.4</ele>
        <time>2010-07-31T10:40:59Z</time>
      </trkpt>
      <trkpt lat="37.776985" lon="-3.029080">
        <ele>1061.9</ele>
        <time>2010-07-31T10:40:59Z</time>
      </trkpt>
      <trkpt lat="37.776980" lon="-3.028969">
        <ele>1059.0</ele>
        <time>2010-07-31T10:40:59Z</time>
      </trkpt>
      <trkpt lat="37.776924" lon="-3.028876">
        <ele>1055.2</ele>
        <time>2010-07-31T10:40:59Z</time>
      </trkpt>
      <trkpt lat="37.776852" lon="-3.028804">
        <ele>1052.8</ele>
        <time>2010-07-31T10:40:59Z</time>
      </trkpt>
      <trkpt lat="37.776768" lon="-3.028753">
        <ele>1050.4</ele>
        <time>2010-07-31T10:40:59Z</time>
      </trkpt>
      <trkpt lat="37.776677" lon="-3.028701">
        <ele>1048.0</ele>
        <time>2010-07-31T10:40:59Z</time>
      </trkpt>
      <trkpt lat="37.776596" lon="-3.028643">
        <ele>1045.6</ele>
        <time>2010-07-31T10:40:59Z</time>
      </trkpt>
      <trkpt lat="37.776517" lon="-3.028576">
        <ele>1044.1</ele>
        <time>2010-07-31T10:40:59Z</time>
      </trkpt>
      <trkpt lat="37.776443" lon="-3.028519">
        <ele>1040.8</ele>
        <time>2010-07-31T10:40:59Z</time>
      </trkpt>
      <trkpt lat="37.776352" lon="-3.028468">
        <ele>1038.8</ele>
        <time>2010-07-31T10:40:59Z</time>
      </trkpt>
      <trkpt lat="37.776257" lon="-3.028425">
        <ele>1036.0</ele>
        <time>2010-07-31T10:40:59Z</time>
      </trkpt>
      <trkpt lat="37.776172" lon="-3.028395">
        <ele>1034.0</ele>
        <time>2010-07-31T10:40:59Z</time>
      </trkpt>
      <trkpt lat="37.776117" lon="-3.028301">
        <ele>1031.6</ele>
        <time>2010-07-31T10:40:59Z</time>
      </trkpt>
      <trkpt lat="37.776109" lon="-3.028178">
        <ele>1029.7</ele>
        <time>2010-07-31T10:40:59Z</time>
      </trkpt>
      <trkpt lat="37.776069" lon="-3.028060">
        <ele>1029.2</ele>
        <time>2010-07-31T10:40:59Z</time>
      </trkpt>
      <trkpt lat="37.775989" lon="-3.027984">
        <ele>1027.3</ele>
        <time>2010-07-31T10:40:59Z</time>
      </trkpt>
      <trkpt lat="37.775930" lon="-3.027891">
        <ele>1024.4</ele>
        <time>2010-07-31T10:40:59Z</time>
      </trkpt>
      <trkpt lat="37.775877" lon="-3.027796">
        <ele>1022.0</ele>
        <time>2010-07-31T10:40:59Z</time>
      </trkpt>
      <trkpt lat="37.775816" lon="-3.027703">
        <ele>1019.6</ele>
        <time>2010-07-31T10:40:59Z</time>
      </trkpt>
      <trkpt lat="37.775768" lon="-3.027612">
        <ele>1017.2</ele>
        <time>2010-07-31T10:40:59Z</time>
      </trkpt>
      <trkpt lat="37.775714" lon="-3.027501">
        <ele>1015.3</ele>
        <time>2010-07-31T10:40:59Z</time>
      </trkpt>
      <trkpt lat="37.775656" lon="-3.027413">
        <ele>1012.4</ele>
        <time>2010-07-31T10:40:59Z</time>
      </trkpt>
      <trkpt lat="37.775601" lon="-3.027320">
        <ele>1009.5</ele>
        <time>2010-07-31T10:40:59Z</time>
      </trkpt>
      <trkpt lat="37.775549" lon="-3.027224">
        <ele>1007.6</ele>
        <time>2010-07-31T10:40:59Z</time>
      </trkpt>
      <trkpt lat="37.775493" lon="-3.027144">
        <ele>1005.7</ele>
        <time>2010-07-31T10:40:59Z</time>
      </trkpt>
      <trkpt lat="37.775422" lon="-3.027067">
        <ele>1003.3</ele>
        <time>2010-07-31T10:40:59Z</time>
      </trkpt>
      <trkpt lat="37.774981" lon="-3.026465">
        <ele>979.7</ele>
        <time>2010-07-31T10:40:59Z</time>
      </trkpt>
      <trkpt lat="37.774855" lon="-3.026402">
        <ele>978.8</ele>
        <time>2010-07-31T10:40:59Z</time>
      </trkpt>
      <trkpt lat="37.774784" lon="-3.026312">
        <ele>975.9</ele>
        <time>2010-07-31T10:40:59Z</time>
      </trkpt>
      <trkpt lat="37.774689" lon="-3.026212">
        <ele>973.0</ele>
        <time>2010-07-31T10:40:59Z</time>
      </trkpt>
      <trkpt lat="37.774618" lon="-3.026122">
        <ele>969.6</ele>
        <time>2010-07-31T10:40:59Z</time>
      </trkpt>
      <trkpt lat="37.774522" lon="-3.026031">
        <ele>966.7</ele>
        <time>2010-07-31T10:40:59Z</time>
      </trkpt>
      <trkpt lat="37.774443" lon="-3.025961">
        <ele>964.3</ele>
        <time>2010-07-31T10:40:59Z</time>
      </trkpt>
      <trkpt lat="37.774387" lon="-3.025871">
        <ele>961.9</ele>
        <time>2010-07-31T10:40:59Z</time>
      </trkpt>
      <trkpt lat="37.774361" lon="-3.025748">
        <ele>960.0</ele>
        <time>2010-07-31T10:40:59Z</time>
      </trkpt>
      <trkpt lat="37.774290" lon="-3.025660">
        <ele>957.6</ele>
        <time>2010-07-31T10:40:59Z</time>
      </trkpt>
      <trkpt lat="37.774229" lon="-3.025560">
        <ele>954.7</ele>
        <time>2010-07-31T10:40:59Z</time>
      </trkpt>
      <trkpt lat="37.774195" lon="-3.025452">
        <ele>952.3</ele>
        <time>2010-07-31T10:40:59Z</time>
      </trkpt>
      <trkpt lat="37.774167" lon="-3.025334">
        <ele>949.9</ele>
        <time>2010-07-31T10:40:59Z</time>
      </trkpt>
      <trkpt lat="37.773862" lon="-3.025146">
        <ele>947.5</ele>
        <time>2010-07-31T10:40:59Z</time>
      </trkpt>
      <trkpt lat="37.773820" lon="-3.025086">
        <ele>943.2</ele>
        <time>2010-07-31T10:40:59Z</time>
      </trkpt>
      <trkpt lat="37.773841" lon="-3.024975">
        <ele>938.9</ele>
        <time>2010-07-31T10:40:59Z</time>
      </trkpt>
      <trkpt lat="37.773793" lon="-3.024868">
        <ele>936.0</ele>
        <time>2010-07-31T10:40:59Z</time>
      </trkpt>
      <trkpt lat="37.773808" lon="-3.024751">
        <ele>933.6</ele>
        <time>2010-07-31T10:40:59Z</time>
      </trkpt>
      <trkpt lat="37.773795" lon="-3.024678">
        <ele>931.2</ele>
        <time>2010-07-31T10:40:59Z</time>
      </trkpt>
      <trkpt lat="37.773773" lon="-3.024599">
        <ele>926.8</ele>
        <time>2010-07-31T10:40:59Z</time>
      </trkpt>
      <trkpt lat="37.773716" lon="-3.024517">
        <ele>925.9</ele>
        <time>2010-07-31T10:40:59Z</time>
      </trkpt>
      <trkpt lat="37.773644" lon="-3.024546">
        <ele>926.8</ele>
        <time>2010-07-31T10:40:59Z</time>
      </trkpt>
      <trkpt lat="37.773626" lon="-3.024522">
        <ele>924.4</ele>
        <time>2010-07-31T10:40:59Z</time>
      </trkpt>
      <trkpt lat="37.773654" lon="-3.024397">
        <ele>923.0</ele>
        <time>2010-07-31T10:40:59Z</time>
      </trkpt>
      <trkpt lat="37.773693" lon="-3.024291">
        <ele>922.5</ele>
        <time>2010-07-31T10:40:59Z</time>
      </trkpt>
      <trkpt lat="37.773728" lon="-3.024186">
        <ele>921.6</ele>
        <time>2010-07-31T10:40:59Z</time>
      </trkpt>
      <trkpt lat="37.773760" lon="-3.024072">
        <ele>917.7</ele>
        <time>2010-07-31T10:40:59Z</time>
      </trkpt>
      <trkpt lat="37.773713" lon="-3.023999">
        <ele>915.3</ele>
        <time>2010-07-31T10:40:59Z</time>
      </trkpt>
      <trkpt lat="37.773588" lon="-3.023915">
        <ele>911.9</ele>
        <time>2010-07-31T10:40:59Z</time>
      </trkpt>
      <trkpt lat="37.773065" lon="-3.023827">
        <ele>910.0</ele>
        <time>2010-07-31T10:40:59Z</time>
      </trkpt>
      <trkpt lat="37.772964" lon="-3.023874">
        <ele>911.5</ele>
        <time>2010-07-31T10:40:59Z</time>
      </trkpt>
      <trkpt lat="37.772874" lon="-3.023927">
        <ele>911.5</ele>
        <time>2010-07-31T10:40:59Z</time>
      </trkpt>
      <trkpt lat="37.772791" lon="-3.023967">
        <ele>911.5</ele>
        <time>2010-07-31T10:40:59Z</time>
      </trkpt>
      <trkpt lat="37.772689" lon="-3.024040">
        <ele>912.4</ele>
        <time>2010-07-31T10:40:59Z</time>
      </trkpt>
      <trkpt lat="37.772488" lon="-3.024097">
        <ele>913.4</ele>
        <time>2010-07-31T10:40:59Z</time>
      </trkpt>
      <trkpt lat="37.772397" lon="-3.024175">
        <ele>913.4</ele>
        <time>2010-07-31T10:40:59Z</time>
      </trkpt>
      <trkpt lat="37.772277" lon="-3.024246">
        <ele>914.8</ele>
        <time>2010-07-31T10:40:59Z</time>
      </trkpt>
      <trkpt lat="37.772184" lon="-3.024258">
        <ele>914.8</ele>
        <time>2010-07-31T10:40:59Z</time>
      </trkpt>
      <trkpt lat="37.772089" lon="-3.024236">
        <ele>913.4</ele>
        <time>2010-07-31T10:40:59Z</time>
      </trkpt>
      <trkpt lat="37.771991" lon="-3.024227">
        <ele>912.9</ele>
        <time>2010-07-31T10:40:59Z</time>
      </trkpt>
      <trkpt lat="37.771903" lon="-3.024205">
        <ele>911.0</ele>
        <time>2010-07-31T10:40:59Z</time>
      </trkpt>
      <trkpt lat="37.771717" lon="-3.024173">
        <ele>911.9</ele>
        <time>2010-07-31T10:40:59Z</time>
      </trkpt>
      <trkpt lat="37.771622" lon="-3.024151">
        <ele>911.9</ele>
        <time>2010-07-31T10:40:59Z</time>
      </trkpt>
      <trkpt lat="37.771532" lon="-3.024119">
        <ele>911.5</ele>
        <time>2010-07-31T10:40:59Z</time>
      </trkpt>
      <trkpt lat="37.770886" lon="-3.023827">
        <ele>908.1</ele>
        <time>2010-07-31T10:40:59Z</time>
      </trkpt>
      <trkpt lat="37.770816" lon="-3.023745">
        <ele>892.2</ele>
        <time>2010-07-31T10:40:59Z</time>
      </trkpt>
      <trkpt lat="37.770276" lon="-3.023788">
        <ele>883.6</ele>
        <time>2010-07-31T10:40:59Z</time>
      </trkpt>
      <trkpt lat="37.770123" lon="-3.023847">
        <ele>892.2</ele>
        <time>2010-07-31T10:40:59Z</time>
      </trkpt>
      <trkpt lat="37.770014" lon="-3.023888">
        <ele>895.6</ele>
        <time>2010-07-31T10:40:59Z</time>
      </trkpt>
      <trkpt lat="37.769914" lon="-3.023908">
        <ele>896.1</ele>
        <time>2010-07-31T10:40:59Z</time>
      </trkpt>
      <trkpt lat="37.769544" lon="-3.023810">
        <ele>894.6</ele>
        <time>2010-07-31T10:40:59Z</time>
      </trkpt>
      <trkpt lat="37.769460" lon="-3.023743">
        <ele>894.6</ele>
        <time>2010-07-31T10:40:59Z</time>
      </trkpt>
      <trkpt lat="37.769287" lon="-3.023606">
        <ele>909.1</ele>
        <time>2010-07-31T10:40:59Z</time>
      </trkpt>
      <trkpt lat="37.769232" lon="-3.023512">
        <ele>907.6</ele>
        <time>2010-07-31T10:40:59Z</time>
      </trkpt>
      <trkpt lat="37.769159" lon="-3.023404">
        <ele>909.1</ele>
        <time>2010-07-31T10:40:59Z</time>
      </trkpt>
      <trkpt lat="37.769144" lon="-3.023283">
        <ele>908.1</ele>
        <time>2010-07-31T10:40:59Z</time>
      </trkpt>
      <trkpt lat="37.769126" lon="-3.023172">
        <ele>913.9</ele>
        <time>2010-07-31T10:40:59Z</time>
      </trkpt>
      <trkpt lat="37.769126" lon="-3.023172">
        <ele>913.9</ele>
        <time>2010-07-31T10:40:59Z</time>
      </trkpt>
      <trkpt lat="37.769063" lon="-3.023035">
        <ele>909.6</ele>
        <time>2010-07-31T10:40:59Z</time>
      </trkpt>
      <trkpt lat="37.768991" lon="-3.022967">
        <ele>902.6</ele>
        <time>2010-07-31T10:40:59Z</time>
      </trkpt>
      <trkpt lat="37.768865" lon="-3.022831">
        <ele>892.6</ele>
        <time>2010-07-31T10:40:59Z</time>
      </trkpt>
      <trkpt lat="37.768802" lon="-3.022729">
        <ele>887.6</ele>
        <time>2010-07-31T10:40:59Z</time>
      </trkpt>
      <trkpt lat="37.768739" lon="-3.022627">
        <ele>885.6</ele>
        <time>2010-07-31T10:40:59Z</time>
      </trkpt>
      <trkpt lat="37.768667" lon="-3.022524">
        <ele>881.6</ele>
        <time>2010-07-31T10:40:59Z</time>
      </trkpt>
      <trkpt lat="37.768622" lon="-3.022433">
        <ele>879.6</ele>
        <time>2010-07-31T10:40:59Z</time>
      </trkpt>
      <trkpt lat="37.768585" lon="-3.022331">
        <ele>878.1</ele>
        <time>2010-07-31T10:40:59Z</time>
      </trkpt>
      <trkpt lat="37.768523" lon="-3.022240">
        <ele>875.5</ele>
        <time>2010-07-31T10:40:59Z</time>
      </trkpt>
      <trkpt lat="37.768465" lon="-3.022406">
        <ele>874.9</ele>
        <time>2010-07-31T10:40:59Z</time>
      </trkpt>
      <trkpt lat="37.768535" lon="-3.022531">
        <ele>875.9</ele>
        <time>2010-07-31T10:40:59Z</time>
      </trkpt>
      <trkpt lat="37.768588" lon="-3.022640">
        <ele>875.4</ele>
        <time>2010-07-31T10:40:59Z</time>
      </trkpt>
      <trkpt lat="37.768615" lon="-3.022775">
        <ele>875.4</ele>
        <time>2010-07-31T10:40:59Z</time>
      </trkpt>
      <trkpt lat="37.768653" lon="-3.022914">
        <ele>877.3</ele>
        <time>2010-07-31T10:40:59Z</time>
      </trkpt>
      <trkpt lat="37.768723" lon="-3.023161">
        <ele>878.3</ele>
        <time>2010-07-31T10:40:59Z</time>
      </trkpt>
      <trkpt lat="37.768753" lon="-3.023277">
        <ele>877.3</ele>
        <time>2010-07-31T10:40:59Z</time>
      </trkpt>
      <trkpt lat="37.768788" lon="-3.023400">
        <ele>876.9</ele>
        <time>2010-07-31T10:40:59Z</time>
      </trkpt>
      <trkpt lat="37.768789" lon="-3.023533">
        <ele>876.4</ele>
        <time>2010-07-31T10:40:59Z</time>
      </trkpt>
      <trkpt lat="37.768799" lon="-3.023663">
        <ele>877.3</ele>
        <time>2010-07-31T10:40:59Z</time>
      </trkpt>
      <trkpt lat="37.768762" lon="-3.023749">
        <ele>871.6</ele>
        <time>2010-07-31T10:40:59Z</time>
      </trkpt>
      <trkpt lat="37.768676" lon="-3.023705">
        <ele>884.1</ele>
        <time>2010-07-31T10:40:59Z</time>
      </trkpt>
      <trkpt lat="37.768634" lon="-3.023583">
        <ele>884.1</ele>
        <time>2010-07-31T10:40:59Z</time>
      </trkpt>
      <trkpt lat="37.768647" lon="-3.023419">
        <ele>884.6</ele>
        <time>2010-07-31T10:40:59Z</time>
      </trkpt>
      <trkpt lat="37.768647" lon="-3.023419">
        <ele>886.0</ele>
        <time>2010-07-31T10:40:59Z</time>
      </trkpt>
      <trkpt lat="37.768568" lon="-3.023259">
        <ele>888.4</ele>
        <time>2010-07-31T10:40:59Z</time>
      </trkpt>
      <trkpt lat="37.768528" lon="-3.023148">
        <ele>887.0</ele>
        <time>2010-07-31T10:40:59Z</time>
      </trkpt>
      <trkpt lat="37.768465" lon="-3.023039">
        <ele>887.4</ele>
        <time>2010-07-31T10:40:59Z</time>
      </trkpt>
      <trkpt lat="37.768401" lon="-3.022949">
        <ele>885.5</ele>
        <time>2010-07-31T10:40:59Z</time>
      </trkpt>
      <trkpt lat="37.768330" lon="-3.022869">
        <ele>886.5</ele>
        <time>2010-07-31T10:40:59Z</time>
      </trkpt>
      <trkpt lat="37.768258" lon="-3.022778">
        <ele>886.0</ele>
        <time>2010-07-31T10:40:59Z</time>
      </trkpt>
      <trkpt lat="37.768163" lon="-3.022628">
        <ele>887.0</ele>
        <time>2010-07-31T10:40:59Z</time>
      </trkpt>
      <trkpt lat="37.768100" lon="-3.022528">
        <ele>885.0</ele>
        <time>2010-07-31T10:40:59Z</time>
      </trkpt>
      <trkpt lat="37.768100" lon="-3.022528">
        <ele>884.6</ele>
        <time>2010-07-31T10:40:59Z</time>
      </trkpt>
      <trkpt lat="37.768068" lon="-3.022388">
        <ele>858.6</ele>
        <time>2010-07-31T10:40:59Z</time>
      </trkpt>
      <trkpt lat="37.768018" lon="-3.022240">
        <ele>859.0</ele>
        <time>2010-07-31T10:40:59Z</time>
      </trkpt>
      <trkpt lat="37.768000" lon="-3.022104">
        <ele>859.0</ele>
        <time>2010-07-31T10:40:59Z</time>
      </trkpt>
      <trkpt lat="37.768000" lon="-3.021956">
        <ele>860.0</ele>
        <time>2010-07-31T10:40:59Z</time>
      </trkpt>
      <trkpt lat="37.767955" lon="-3.021843">
        <ele>861.0</ele>
        <time>2010-07-31T10:40:59Z</time>
      </trkpt>
      <trkpt lat="37.767955" lon="-3.021843">
        <ele>861.0</ele>
        <time>2010-07-31T10:40:59Z</time>
      </trkpt>
      <trkpt lat="37.767850" lon="-3.021635">
        <ele>859.6</ele>
        <time>2010-07-31T10:40:59Z</time>
      </trkpt>
      <trkpt lat="37.767803" lon="-3.021553">
        <ele>860.5</ele>
        <time>2010-07-31T10:40:59Z</time>
      </trkpt>
      <trkpt lat="37.767769" lon="-3.021623">
        <ele>859.6</ele>
        <time>2010-07-31T10:40:59Z</time>
      </trkpt>
      <trkpt lat="37.767792" lon="-3.021770">
        <ele>864.4</ele>
        <time>2010-07-31T10:40:59Z</time>
      </trkpt>
      <trkpt lat="37.767812" lon="-3.021899">
        <ele>864.8</ele>
        <time>2010-07-31T10:40:59Z</time>
      </trkpt>
      <trkpt lat="37.767830" lon="-3.022012">
        <ele>863.9</ele>
        <time>2010-07-31T10:40:59Z</time>
      </trkpt>
      <trkpt lat="37.767842" lon="-3.022139">
        <ele>864.4</ele>
        <time>2010-07-31T10:40:59Z</time>
      </trkpt>
      <trkpt lat="37.767832" lon="-3.022251">
        <ele>862.9</ele>
        <time>2010-07-31T10:40:59Z</time>
      </trkpt>
      <trkpt lat="37.767807" lon="-3.022366">
        <ele>862.4</ele>
        <time>2010-07-31T10:40:59Z</time>
      </trkpt>
      <trkpt lat="37.767771" lon="-3.022475">
        <ele>862.0</ele>
        <time>2010-07-31T10:40:59Z</time>
      </trkpt>
      <trkpt lat="37.767659" lon="-3.022601">
        <ele>862.0</ele>
        <time>2010-07-31T10:40:59Z</time>
      </trkpt>
      <trkpt lat="37.767587" lon="-3.022626">
        <ele>868.7</ele>
        <time>2010-07-31T10:40:59Z</time>
      </trkpt>
      <trkpt lat="37.767501" lon="-3.022650">
        <ele>864.4</ele>
        <time>2010-07-31T10:40:59Z</time>
      </trkpt>
      <trkpt lat="37.767404" lon="-3.022633">
        <ele>861.0</ele>
        <time>2010-07-31T10:40:59Z</time>
      </trkpt>
      <trkpt lat="37.767312" lon="-3.022619">
        <ele>859.6</ele>
        <time>2010-07-31T10:40:59Z</time>
      </trkpt>
      <trkpt lat="37.767231" lon="-3.022567">
        <ele>857.6</ele>
        <time>2010-07-31T10:40:59Z</time>
      </trkpt>
      <trkpt lat="37.767163" lon="-3.022507">
        <ele>855.2</ele>
        <time>2010-07-31T10:40:59Z</time>
      </trkpt>
      <trkpt lat="37.767071" lon="-3.022508">
        <ele>852.8</ele>
        <time>2010-07-31T10:40:59Z</time>
      </trkpt>
      <trkpt lat="37.767018" lon="-3.022429">
        <ele>853.8</ele>
        <time>2010-07-31T10:40:59Z</time>
      </trkpt>
      <trkpt lat="37.767063" lon="-3.022276">
        <ele>849.9</ele>
        <time>2010-07-31T10:40:59Z</time>
      </trkpt>
      <trkpt lat="37.767122" lon="-3.022176">
        <ele>848.5</ele>
        <time>2010-07-31T10:40:59Z</time>
      </trkpt>
      <trkpt lat="37.767186" lon="-3.022066">
        <ele>847.1</ele>
        <time>2010-07-31T10:40:59Z</time>
      </trkpt>
      <trkpt lat="37.767291" lon="-3.021883">
        <ele>847.5</ele>
        <time>2010-07-31T10:40:59Z</time>
      </trkpt>
      <trkpt lat="37.767314" lon="-3.021761">
        <ele>846.1</ele>
        <time>2010-07-31T10:40:59Z</time>
      </trkpt>
      <trkpt lat="37.767311" lon="-3.021643">
        <ele>846.1</ele>
        <time>2010-07-31T10:40:59Z</time>
      </trkpt>
      <trkpt lat="37.767285" lon="-3.021521">
        <ele>844.7</ele>
        <time>2010-07-31T10:40:59Z</time>
      </trkpt>
      <trkpt lat="37.767254" lon="-3.021408">
        <ele>844.7</ele>
        <time>2010-07-31T10:40:59Z</time>
      </trkpt>
      <trkpt lat="37.767224" lon="-3.021296">
        <ele>842.7</ele>
        <time>2010-07-31T10:40:59Z</time>
      </trkpt>
      <trkpt lat="37.767190" lon="-3.021177">
        <ele>842.7</ele>
        <time>2010-07-31T10:40:59Z</time>
      </trkpt>
      <trkpt lat="37.767129" lon="-3.021082">
        <ele>841.3</ele>
        <time>2010-07-31T10:40:59Z</time>
      </trkpt>
      <trkpt lat="37.767054" lon="-3.021007">
        <ele>840.3</ele>
        <time>2010-07-31T10:40:59Z</time>
      </trkpt>
      <trkpt lat="37.766969" lon="-3.020962">
        <ele>838.4</ele>
        <time>2010-07-31T10:40:59Z</time>
      </trkpt>
      <trkpt lat="37.766894" lon="-3.020895">
        <ele>837.4</ele>
        <time>2010-07-31T10:40:59Z</time>
      </trkpt>
      <trkpt lat="37.766847" lon="-3.020777">
        <ele>829.8</ele>
        <time>2010-07-31T10:40:59Z</time>
      </trkpt>
      <trkpt lat="37.766810" lon="-3.020675">
        <ele>826.9</ele>
        <time>2010-07-31T10:40:59Z</time>
      </trkpt>
      <trkpt lat="37.766769" lon="-3.020606">
        <ele>826.9</ele>
        <time>2010-07-31T10:40:59Z</time>
      </trkpt>
      <trkpt lat="37.766663" lon="-3.020543">
        <ele>832.2</ele>
        <time>2010-07-31T10:40:59Z</time>
      </trkpt>
      <trkpt lat="37.766626" lon="-3.020421">
        <ele>830.2</ele>
        <time>2010-07-31T10:40:59Z</time>
      </trkpt>
      <trkpt lat="37.766579" lon="-3.020320">
        <ele>826.4</ele>
        <time>2010-07-31T10:40:59Z</time>
      </trkpt>
      <trkpt lat="37.766532" lon="-3.020212">
        <ele>824.0</ele>
        <time>2010-07-31T10:40:59Z</time>
      </trkpt>
      <trkpt lat="37.766472" lon="-3.020118">
        <ele>823.0</ele>
        <time>2010-07-31T10:40:59Z</time>
      </trkpt>
      <trkpt lat="37.766402" lon="-3.019989">
        <ele>819.2</ele>
        <time>2010-07-31T10:40:59Z</time>
      </trkpt>
      <trkpt lat="37.766352" lon="-3.019898">
        <ele>815.8</ele>
        <time>2010-07-31T10:40:59Z</time>
      </trkpt>
      <trkpt lat="37.766317" lon="-3.019801">
        <ele>812.9</ele>
        <time>2010-07-31T10:40:59Z</time>
      </trkpt>
      <trkpt lat="37.766272" lon="-3.019743">
        <ele>812.9</ele>
        <time>2010-07-31T10:40:59Z</time>
      </trkpt>
      <trkpt lat="37.766184" lon="-3.019683">
        <ele>810.5</ele>
        <time>2010-07-31T10:40:59Z</time>
      </trkpt>
      <trkpt lat="37.766093" lon="-3.019658">
        <ele>812.0</ele>
        <time>2010-07-31T10:40:59Z</time>
      </trkpt>
      <trkpt lat="37.765964" lon="-3.019624">
        <ele>807.2</ele>
        <time>2010-07-31T10:40:59Z</time>
      </trkpt>
      <trkpt lat="37.765863" lon="-3.019556">
        <ele>802.8</ele>
        <time>2010-07-31T10:40:59Z</time>
      </trkpt>
      <trkpt lat="37.765784" lon="-3.019495">
        <ele>802.8</ele>
        <time>2010-07-31T10:40:59Z</time>
      </trkpt>
      <trkpt lat="37.765698" lon="-3.019447">
        <ele>800.9</ele>
        <time>2010-07-31T10:40:59Z</time>
      </trkpt>
      <trkpt lat="37.765603" lon="-3.019476">
        <ele>801.9</ele>
        <time>2010-07-31T10:40:59Z</time>
      </trkpt>
      <trkpt lat="37.765529" lon="-3.019540">
        <ele>800.0</ele>
        <time>2010-07-31T10:40:59Z</time>
      </trkpt>
      <trkpt lat="37.765448" lon="-3.019586">
        <ele>798.5</ele>
        <time>2010-07-31T10:40:59Z</time>
      </trkpt>
      <trkpt lat="37.765372" lon="-3.019633">
        <ele>792.7</ele>
        <time>2010-07-31T10:40:59Z</time>
      </trkpt>
      <trkpt lat="37.765285" lon="-3.019698">
        <ele>791.3</ele>
        <time>2010-07-31T10:40:59Z</time>
      </trkpt>
      <trkpt lat="37.765269" lon="-3.019805">
        <ele>790.3</ele>
        <time>2010-07-31T10:40:59Z</time>
      </trkpt>
      <trkpt lat="37.765288" lon="-3.019924">
        <ele>789.4</ele>
        <time>2010-07-31T10:40:59Z</time>
      </trkpt>
      <trkpt lat="37.765321" lon="-3.020029">
        <ele>787.5</ele>
        <time>2010-07-31T10:40:59Z</time>
      </trkpt>
      <trkpt lat="37.765348" lon="-3.020137">
        <ele>787.5</ele>
        <time>2010-07-31T10:40:59Z</time>
      </trkpt>
      <trkpt lat="37.765381" lon="-3.020246">
        <ele>787.5</ele>
        <time>2010-07-31T10:40:59Z</time>
      </trkpt>
      <trkpt lat="37.765406" lon="-3.020358">
        <ele>787.0</ele>
        <time>2010-07-31T10:40:59Z</time>
      </trkpt>
      <trkpt lat="37.765367" lon="-3.020456">
        <ele>783.6</ele>
        <time>2010-07-31T10:40:59Z</time>
      </trkpt>
      <trkpt lat="37.765274" lon="-3.020511">
        <ele>783.6</ele>
        <time>2010-07-31T10:40:59Z</time>
      </trkpt>
      <trkpt lat="37.765193" lon="-3.020565">
        <ele>782.2</ele>
        <time>2010-07-31T10:40:59Z</time>
      </trkpt>
      <trkpt lat="37.765105" lon="-3.020620">
        <ele>781.7</ele>
        <time>2010-07-31T10:40:59Z</time>
      </trkpt>
      <trkpt lat="37.765019" lon="-3.020680">
        <ele>780.2</ele>
        <time>2010-07-31T10:40:59Z</time>
      </trkpt>
      <trkpt lat="37.764960" lon="-3.020791">
        <ele>781.2</ele>
        <time>2010-07-31T10:40:59Z</time>
      </trkpt>
      <trkpt lat="37.764927" lon="-3.020908">
        <ele>780.7</ele>
        <time>2010-07-31T10:40:59Z</time>
      </trkpt>
      <trkpt lat="37.764890" lon="-3.020998">
        <ele>777.4</ele>
        <time>2010-07-31T10:40:59Z</time>
      </trkpt>
      <trkpt lat="37.764839" lon="-3.021091">
        <ele>775.9</ele>
        <time>2010-07-31T10:40:59Z</time>
      </trkpt>
      <trkpt lat="37.764775" lon="-3.021190">
        <ele>775.0</ele>
        <time>2010-07-31T10:40:59Z</time>
      </trkpt>
      <trkpt lat="37.764717" lon="-3.021283">
        <ele>773.0</ele>
        <time>2010-07-31T10:40:59Z</time>
      </trkpt>
      <trkpt lat="37.764665" lon="-3.021389">
        <ele>772.6</ele>
        <time>2010-07-31T10:40:59Z</time>
      </trkpt>
      <trkpt lat="37.764616" lon="-3.021487">
        <ele>771.6</ele>
        <time>2010-07-31T10:40:59Z</time>
      </trkpt>
      <trkpt lat="37.764541" lon="-3.021537">
        <ele>768.2</ele>
        <time>2010-07-31T10:40:59Z</time>
      </trkpt>
      <trkpt lat="37.764453" lon="-3.021531">
        <ele>763.4</ele>
        <time>2010-07-31T10:40:59Z</time>
      </trkpt>
      <trkpt lat="37.764287" lon="-3.021556">
        <ele>760.1</ele>
        <time>2010-07-31T10:40:59Z</time>
      </trkpt>
      <trkpt lat="37.764190" lon="-3.021599">
        <ele>758.6</ele>
        <time>2010-07-31T10:40:59Z</time>
      </trkpt>
      <trkpt lat="37.764106" lon="-3.021608">
        <ele>756.7</ele>
        <time>2010-07-31T10:40:59Z</time>
      </trkpt>
      <trkpt lat="37.764059" lon="-3.021655">
        <ele>755.3</ele>
        <time>2010-07-31T10:40:59Z</time>
      </trkpt>
      <trkpt lat="37.764002" lon="-3.021721">
        <ele>750.0</ele>
        <time>2010-07-31T10:40:59Z</time>
      </trkpt>
      <trkpt lat="37.763932" lon="-3.021736">
        <ele>746.1</ele>
        <time>2010-07-31T10:40:59Z</time>
      </trkpt>
      <trkpt lat="37.763873" lon="-3.021791">
        <ele>745.2</ele>
        <time>2010-07-31T10:40:59Z</time>
      </trkpt>
      <trkpt lat="37.763826" lon="-3.021895">
        <ele>743.2</ele>
        <time>2010-07-31T10:40:59Z</time>
      </trkpt>
      <trkpt lat="37.763771" lon="-3.021989">
        <ele>743.7</ele>
        <time>2010-07-31T10:40:59Z</time>
      </trkpt>
      <trkpt lat="37.763690" lon="-3.022051">
        <ele>741.8</ele>
        <time>2010-07-31T10:40:59Z</time>
      </trkpt>
      <trkpt lat="37.763616" lon="-3.022102">
        <ele>737.9</ele>
        <time>2010-07-31T10:40:59Z</time>
      </trkpt>
      <trkpt lat="37.763556" lon="-3.022142">
        <ele>732.2</ele>
        <time>2010-07-31T10:40:59Z</time>
      </trkpt>
      <trkpt lat="37.763428" lon="-3.022186">
        <ele>732.2</ele>
        <time>2010-07-31T10:40:59Z</time>
      </trkpt>
      <trkpt lat="37.763328" lon="-3.022200">
        <ele>728.8</ele>
        <time>2010-07-31T10:40:59Z</time>
      </trkpt>
      <trkpt lat="37.763229" lon="-3.022257">
        <ele>724.5</ele>
        <time>2010-07-31T10:40:59Z</time>
      </trkpt>
      <trkpt lat="37.763149" lon="-3.022299">
        <ele>722.1</ele>
        <time>2010-07-31T10:40:59Z</time>
      </trkpt>
      <trkpt lat="37.763115" lon="-3.022405">
        <ele>720.2</ele>
        <time>2010-07-31T10:40:59Z</time>
      </trkpt>
      <trkpt lat="37.763079" lon="-3.022514">
        <ele>719.2</ele>
        <time>2010-07-31T10:40:59Z</time>
      </trkpt>
      <trkpt lat="37.763031" lon="-3.022613">
        <ele>717.8</ele>
        <time>2010-07-31T10:40:59Z</time>
      </trkpt>
      <trkpt lat="37.762970" lon="-3.022706">
        <ele>717.3</ele>
        <time>2010-07-31T10:40:59Z</time>
      </trkpt>
      <trkpt lat="37.762914" lon="-3.022804">
        <ele>715.4</ele>
        <time>2010-07-31T10:40:59Z</time>
      </trkpt>
      <trkpt lat="37.762865" lon="-3.022902">
        <ele>714.9</ele>
        <time>2010-07-31T10:40:59Z</time>
      </trkpt>
      <trkpt lat="37.762820" lon="-3.023010">
        <ele>713.9</ele>
        <time>2010-07-31T10:40:59Z</time>
      </trkpt>
      <trkpt lat="37.762796" lon="-3.023116">
        <ele>706.7</ele>
        <time>2010-07-31T10:40:59Z</time>
      </trkpt>
      <trkpt lat="37.762759" lon="-3.023232">
        <ele>705.3</ele>
        <time>2010-07-31T10:40:59Z</time>
      </trkpt>
      <trkpt lat="37.762747" lon="-3.023359">
        <ele>704.8</ele>
        <time>2010-07-31T10:40:59Z</time>
      </trkpt>
      <trkpt lat="37.762721" lon="-3.023474">
        <ele>704.3</ele>
        <time>2010-07-31T10:40:59Z</time>
      </trkpt>
      <trkpt lat="37.762668" lon="-3.023574">
        <ele>702.9</ele>
        <time>2010-07-31T10:40:59Z</time>
      </trkpt>
      <trkpt lat="37.762637" lon="-3.023693">
        <ele>700.9</ele>
        <time>2010-07-31T10:40:59Z</time>
      </trkpt>
      <trkpt lat="37.762619" lon="-3.023813">
        <ele>699.5</ele>
        <time>2010-07-31T10:40:59Z</time>
      </trkpt>
      <trkpt lat="37.762579" lon="-3.023921">
        <ele>699.5</ele>
        <time>2010-07-31T10:40:59Z</time>
      </trkpt>
      <trkpt lat="37.762537" lon="-3.024029">
        <ele>703.3</ele>
        <time>2010-07-31T10:40:59Z</time>
      </trkpt>
      <trkpt lat="37.762507" lon="-3.024130">
        <ele>700.0</ele>
        <time>2010-07-31T10:40:59Z</time>
      </trkpt>
      <trkpt lat="37.762433" lon="-3.024217">
        <ele>699.5</ele>
        <time>2010-07-31T10:40:59Z</time>
      </trkpt>
      <trkpt lat="37.762381" lon="-3.024312">
        <ele>699.0</ele>
        <time>2010-07-31T10:40:59Z</time>
      </trkpt>
      <trkpt lat="37.762328" lon="-3.024405">
        <ele>696.6</ele>
        <time>2010-07-31T10:40:59Z</time>
      </trkpt>
      <trkpt lat="37.762279" lon="-3.024530">
        <ele>700.5</ele>
        <time>2010-07-31T10:40:59Z</time>
      </trkpt>
      <trkpt lat="37.762235" lon="-3.024613">
        <ele>700.9</ele>
        <time>2010-07-31T10:40:59Z</time>
      </trkpt>
      <trkpt lat="37.762165" lon="-3.024709">
        <ele>699.5</ele>
        <time>2010-07-31T10:40:59Z</time>
      </trkpt>
      <trkpt lat="37.762095" lon="-3.024770">
        <ele>695.7</ele>
        <time>2010-07-31T10:40:59Z</time>
      </trkpt>
      <trkpt lat="37.762101" lon="-3.024865">
        <ele>688.0</ele>
        <time>2010-07-31T10:40:59Z</time>
      </trkpt>
      <trkpt lat="37.762077" lon="-3.024985">
        <ele>688.0</ele>
        <time>2010-07-31T10:40:59Z</time>
      </trkpt>
      <trkpt lat="37.762083" lon="-3.025107">
        <ele>687.0</ele>
        <time>2010-07-31T10:40:59Z</time>
      </trkpt>
      <trkpt lat="37.762031" lon="-3.025209">
        <ele>686.0</ele>
        <time>2010-07-31T10:40:59Z</time>
      </trkpt>
      <trkpt lat="37.761925" lon="-3.025258">
        <ele>686.5</ele>
        <time>2010-07-31T10:40:59Z</time>
      </trkpt>
      <trkpt lat="37.761846" lon="-3.025354">
        <ele>688.0</ele>
        <time>2010-07-31T10:40:59Z</time>
      </trkpt>
      <trkpt lat="37.761763" lon="-3.025423">
        <ele>689.4</ele>
        <time>2010-07-31T10:40:59Z</time>
      </trkpt>
      <trkpt lat="37.761681" lon="-3.025472">
        <ele>688.4</ele>
        <time>2010-07-31T10:40:59Z</time>
      </trkpt>
      <trkpt lat="37.761603" lon="-3.025558">
        <ele>690.4</ele>
        <time>2010-07-31T10:40:59Z</time>
      </trkpt>
      <trkpt lat="37.761521" lon="-3.025621">
        <ele>687.5</ele>
        <time>2010-07-31T10:40:59Z</time>
      </trkpt>
      <trkpt lat="37.761560" lon="-3.025583">
        <ele>687.0</ele>
        <time>2010-07-31T10:40:59Z</time>
      </trkpt>
      <trkpt lat="37.761623" lon="-3.025558">
        <ele>685.6</ele>
        <time>2010-07-31T10:40:59Z</time>
      </trkpt>
      <trkpt lat="37.761508" lon="-3.025621">
        <ele>687.0</ele>
        <time>2010-07-31T10:40:59Z</time>
      </trkpt>
      <trkpt lat="37.761454" lon="-3.025788">
        <ele>682.7</ele>
        <time>2010-07-31T10:40:59Z</time>
      </trkpt>
      <trkpt lat="37.761444" lon="-3.025905">
        <ele>681.7</ele>
        <time>2010-07-31T10:40:59Z</time>
      </trkpt>
      <trkpt lat="37.761440" lon="-3.026018">
        <ele>681.7</ele>
        <time>2010-07-31T10:40:59Z</time>
      </trkpt>
      <trkpt lat="37.761403" lon="-3.026138">
        <ele>681.2</ele>
        <time>2010-07-31T10:40:59Z</time>
      </trkpt>
      <trkpt lat="37.761357" lon="-3.026247">
        <ele>678.8</ele>
        <time>2010-07-31T10:40:59Z</time>
      </trkpt>
      <trkpt lat="37.761291" lon="-3.026338">
        <ele>677.9</ele>
        <time>2010-07-31T10:40:59Z</time>
      </trkpt>
      <trkpt lat="37.761222" lon="-3.026422">
        <ele>676.4</ele>
        <time>2010-07-31T10:40:59Z</time>
      </trkpt>
      <trkpt lat="37.761142" lon="-3.026499">
        <ele>675.5</ele>
        <time>2010-07-31T10:40:59Z</time>
      </trkpt>
      <trkpt lat="37.761075" lon="-3.026596">
        <ele>675.5</ele>
        <time>2010-07-31T10:40:59Z</time>
      </trkpt>
      <trkpt lat="37.761013" lon="-3.026691">
        <ele>674.0</ele>
        <time>2010-07-31T10:40:59Z</time>
      </trkpt>
      <trkpt lat="37.760950" lon="-3.026786">
        <ele>672.6</ele>
        <time>2010-07-31T10:40:59Z</time>
      </trkpt>
      <trkpt lat="37.760878" lon="-3.026876">
        <ele>672.6</ele>
        <time>2010-07-31T10:40:59Z</time>
      </trkpt>
      <trkpt lat="37.760814" lon="-3.026973">
        <ele>672.1</ele>
        <time>2010-07-31T10:40:59Z</time>
      </trkpt>
      <trkpt lat="37.760757" lon="-3.027077">
        <ele>671.6</ele>
        <time>2010-07-31T10:40:59Z</time>
      </trkpt>
      <trkpt lat="37.760717" lon="-3.027193">
        <ele>672.1</ele>
        <time>2010-07-31T10:40:59Z</time>
      </trkpt>
      <trkpt lat="37.760697" lon="-3.027307">
        <ele>671.1</ele>
        <time>2010-07-31T10:40:59Z</time>
      </trkpt>
      <trkpt lat="37.760685" lon="-3.027433">
        <ele>670.7</ele>
        <time>2010-07-31T10:40:59Z</time>
      </trkpt>
      <trkpt lat="37.760664" lon="-3.027554">
        <ele>669.2</ele>
        <time>2010-07-31T10:40:59Z</time>
      </trkpt>
      <trkpt lat="37.760640" lon="-3.027673">
        <ele>668.3</ele>
        <time>2010-07-31T10:40:59Z</time>
      </trkpt>
      <trkpt lat="37.760601" lon="-3.027785">
        <ele>667.3</ele>
        <time>2010-07-31T10:40:59Z</time>
      </trkpt>
      <trkpt lat="37.760547" lon="-3.027877">
        <ele>665.9</ele>
        <time>2010-07-31T10:40:59Z</time>
      </trkpt>
      <trkpt lat="37.760493" lon="-3.027972">
        <ele>664.4</ele>
        <time>2010-07-31T10:40:59Z</time>
      </trkpt>
      <trkpt lat="37.760442" lon="-3.028068">
        <ele>662.0</ele>
        <time>2010-07-31T10:40:59Z</time>
      </trkpt>
      <trkpt lat="37.760393" lon="-3.028172">
        <ele>662.0</ele>
        <time>2010-07-31T10:40:59Z</time>
      </trkpt>
      <trkpt lat="37.760340" lon="-3.028269">
        <ele>662.5</ele>
        <time>2010-07-31T10:40:59Z</time>
      </trkpt>
      <trkpt lat="37.760327" lon="-3.028399">
        <ele>653.4</ele>
        <time>2010-07-31T10:40:59Z</time>
      </trkpt>
      <trkpt lat="37.760290" lon="-3.028507">
        <ele>651.9</ele>
        <time>2010-07-31T10:40:59Z</time>
      </trkpt>
      <trkpt lat="37.759908" lon="-3.029158">
        <ele>650.0</ele>
        <time>1989-12-30T23:59:59Z</time>
      </trkpt>
      <trkpt lat="37.759836" lon="-3.029218">
        <ele>654.8</ele>
        <time>1989-12-30T23:59:59Z</time>
      </trkpt>
      <trkpt lat="37.759697" lon="-3.029020">
        <ele>658.6</ele>
        <time>1989-12-30T23:59:59Z</time>
      </trkpt>
      <trkpt lat="37.759613" lon="-3.028940">
        <ele>660.1</ele>
        <time>1989-12-30T23:59:59Z</time>
      </trkpt>
      <trkpt lat="37.759525" lon="-3.028863">
        <ele>662.0</ele>
        <time>1989-12-30T23:59:59Z</time>
      </trkpt>
      <trkpt lat="37.759448" lon="-3.028795">
        <ele>663.0</ele>
        <time>1989-12-30T23:59:59Z</time>
      </trkpt>
      <trkpt lat="37.759369" lon="-3.028729">
        <ele>665.4</ele>
        <time>1989-12-30T23:59:59Z</time>
      </trkpt>
      <trkpt lat="37.759298" lon="-3.028647">
        <ele>669.2</ele>
        <time>1989-12-30T23:59:59Z</time>
      </trkpt>
      <trkpt lat="37.759225" lon="-3.028571">
        <ele>671.6</ele>
        <time>1989-12-30T23:59:59Z</time>
      </trkpt>
      <trkpt lat="37.759135" lon="-3.028526">
        <ele>674.0</ele>
        <time>1989-12-30T23:59:59Z</time>
      </trkpt>
      <trkpt lat="37.759046" lon="-3.028472">
        <ele>675.9</ele>
        <time>1989-12-30T23:59:59Z</time>
      </trkpt>
      <trkpt lat="37.758951" lon="-3.028455">
        <ele>678.3</ele>
        <time>1989-12-30T23:59:59Z</time>
      </trkpt>
      <trkpt lat="37.758869" lon="-3.028474">
        <ele>678.8</ele>
        <time>1989-12-30T23:59:59Z</time>
      </trkpt>
      <trkpt lat="37.758780" lon="-3.028497">
        <ele>679.8</ele>
        <time>1989-12-30T23:59:59Z</time>
      </trkpt>
      <trkpt lat="37.758695" lon="-3.028463">
        <ele>681.2</ele>
        <time>1989-12-30T23:59:59Z</time>
      </trkpt>
      <trkpt lat="37.758606" lon="-3.028428">
        <ele>682.7</ele>
        <time>1989-12-30T23:59:59Z</time>
      </trkpt>
      <trkpt lat="37.758520" lon="-3.028387">
        <ele>683.6</ele>
        <time>1989-12-30T23:59:59Z</time>
      </trkpt>
      <trkpt lat="37.758449" lon="-3.028321">
        <ele>685.1</ele>
        <time>1989-12-30T23:59:59Z</time>
      </trkpt>
      <trkpt lat="37.758368" lon="-3.028265">
        <ele>687.5</ele>
        <time>1989-12-30T23:59:59Z</time>
      </trkpt>
      <trkpt lat="37.758286" lon="-3.028203">
        <ele>689.4</ele>
        <time>1989-12-30T23:59:59Z</time>
      </trkpt>
      <trkpt lat="37.758200" lon="-3.028152">
        <ele>692.3</ele>
        <time>1989-12-30T23:59:59Z</time>
      </trkpt>
      <trkpt lat="37.758111" lon="-3.028101">
        <ele>694.7</ele>
        <time>1989-12-30T23:59:59Z</time>
      </trkpt>
      <trkpt lat="37.758046" lon="-3.028030">
        <ele>695.7</ele>
        <time>1989-12-30T23:59:59Z</time>
      </trkpt>
      <trkpt lat="37.758080" lon="-3.028080">
        <ele>694.2</ele>
        <time>1989-12-30T23:59:59Z</time>
      </trkpt>
      <trkpt lat="37.758020" lon="-3.027994">
        <ele>695.2</ele>
        <time>1989-12-30T23:59:59Z</time>
      </trkpt>
      <trkpt lat="37.757980" lon="-3.027893">
        <ele>696.6</ele>
        <time>1989-12-30T23:59:59Z</time>
      </trkpt>
      <trkpt lat="37.757925" lon="-3.027774">
        <ele>698.5</ele>
        <time>1989-12-30T23:59:59Z</time>
      </trkpt>
      <trkpt lat="37.757881" lon="-3.027667">
        <ele>698.5</ele>
        <time>1989-12-30T23:59:59Z</time>
      </trkpt>
      <trkpt lat="37.757848" lon="-3.027567">
        <ele>698.1</ele>
        <time>1989-12-30T23:59:59Z</time>
      </trkpt>
      <trkpt lat="37.757870" lon="-3.027452">
        <ele>700.9</ele>
        <time>1989-12-30T23:59:59Z</time>
      </trkpt>
      <trkpt lat="37.757909" lon="-3.027340">
        <ele>702.4</ele>
        <time>1989-12-30T23:59:59Z</time>
      </trkpt>
      <trkpt lat="37.757961" lon="-3.027224">
        <ele>703.3</ele>
        <time>1989-12-30T23:59:59Z</time>
      </trkpt>
      <trkpt lat="37.757946" lon="-3.027147">
        <ele>705.7</ele>
        <time>1989-12-30T23:59:59Z</time>
      </trkpt>
      <trkpt lat="37.757858" lon="-3.027185">
        <ele>706.7</ele>
        <time>1989-12-30T23:59:59Z</time>
      </trkpt>
      <trkpt lat="37.757785" lon="-3.027257">
        <ele>706.2</ele>
        <time>1989-12-30T23:59:59Z</time>
      </trkpt>
      <trkpt lat="37.757727" lon="-3.027330">
        <ele>707.7</ele>
        <time>1989-12-30T23:59:59Z</time>
      </trkpt>
      <trkpt lat="37.757665" lon="-3.027394">
        <ele>707.7</ele>
        <time>1989-12-30T23:59:59Z</time>
      </trkpt>
      <trkpt lat="37.757643" lon="-3.027301">
        <ele>708.1</ele>
        <time>1989-12-30T23:59:59Z</time>
      </trkpt>
      <trkpt lat="37.757674" lon="-3.027192">
        <ele>710.1</ele>
        <time>1989-12-30T23:59:59Z</time>
      </trkpt>
      <trkpt lat="37.757706" lon="-3.027083">
        <ele>712.0</ele>
        <time>1989-12-30T23:59:59Z</time>
      </trkpt>
      <trkpt lat="37.757735" lon="-3.026981">
        <ele>710.6</ele>
        <time>1989-12-30T23:59:59Z</time>
      </trkpt>
      <trkpt lat="37.757738" lon="-3.026862">
        <ele>712.0</ele>
        <time>1989-12-30T23:59:59Z</time>
      </trkpt>
      <trkpt lat="37.757726" lon="-3.026697">
        <ele>718.7</ele>
        <time>1989-12-30T23:59:59Z</time>
      </trkpt>
      <trkpt lat="37.757699" lon="-3.026591">
        <ele>720.2</ele>
        <time>1989-12-30T23:59:59Z</time>
      </trkpt>
      <trkpt lat="37.757693" lon="-3.026555">
        <ele>720.6</ele>
        <time>1989-12-30T23:59:59Z</time>
      </trkpt>
      <trkpt lat="37.757679" lon="-3.026523">
        <ele>721.1</ele>
        <time>1989-12-30T23:59:59Z</time>
      </trkpt>
      <trkpt lat="37.757640" lon="-3.026624">
        <ele>723.0</ele>
        <time>1989-12-30T23:59:59Z</time>
      </trkpt>
      <trkpt lat="37.757613" lon="-3.026727">
        <ele>721.6</ele>
        <time>1989-12-30T23:59:59Z</time>
      </trkpt>
      <trkpt lat="37.757562" lon="-3.026830">
        <ele>724.0</ele>
        <time>1989-12-30T23:59:59Z</time>
      </trkpt>
      <trkpt lat="37.757483" lon="-3.026895">
        <ele>726.9</ele>
        <time>1989-12-30T23:59:59Z</time>
      </trkpt>
      <trkpt lat="37.757394" lon="-3.026966">
        <ele>729.8</ele>
        <time>1989-12-30T23:59:59Z</time>
      </trkpt>
      <trkpt lat="37.757319" lon="-3.027031">
        <ele>729.3</ele>
        <time>1989-12-30T23:59:59Z</time>
      </trkpt>
      <trkpt lat="37.757226" lon="-3.027048">
        <ele>729.3</ele>
        <time>1989-12-30T23:59:59Z</time>
      </trkpt>
      <trkpt lat="37.757129" lon="-3.027034">
        <ele>729.3</ele>
        <time>1989-12-30T23:59:59Z</time>
      </trkpt>
      <trkpt lat="37.757058" lon="-3.026966">
        <ele>729.8</ele>
        <time>1989-12-30T23:59:59Z</time>
      </trkpt>
      <trkpt lat="37.757004" lon="-3.026860">
        <ele>730.3</ele>
        <time>1989-12-30T23:59:59Z</time>
      </trkpt>
      <trkpt lat="37.756937" lon="-3.026775">
        <ele>731.7</ele>
        <time>1989-12-30T23:59:59Z</time>
      </trkpt>
      <trkpt lat="37.756869" lon="-3.026696">
        <ele>732.7</ele>
        <time>1989-12-30T23:59:59Z</time>
      </trkpt>
      <trkpt lat="37.756784" lon="-3.026642">
        <ele>734.1</ele>
        <time>1989-12-30T23:59:59Z</time>
      </trkpt>
      <trkpt lat="37.756689" lon="-3.026645">
        <ele>734.1</ele>
        <time>1989-12-30T23:59:59Z</time>
      </trkpt>
      <trkpt lat="37.756593" lon="-3.026649">
        <ele>734.1</ele>
        <time>1989-12-30T23:59:59Z</time>
      </trkpt>
      <trkpt lat="37.756501" lon="-3.026659">
        <ele>733.6</ele>
        <time>1989-12-30T23:59:59Z</time>
      </trkpt>
      <trkpt lat="37.756410" lon="-3.026657">
        <ele>733.6</ele>
        <time>1989-12-30T23:59:59Z</time>
      </trkpt>
      <trkpt lat="37.756316" lon="-3.026650">
        <ele>734.1</ele>
        <time>1989-12-30T23:59:59Z</time>
      </trkpt>
      <trkpt lat="37.756224" lon="-3.026653">
        <ele>734.1</ele>
        <time>1989-12-30T23:59:59Z</time>
      </trkpt>
      <trkpt lat="37.756132" lon="-3.026664">
        <ele>734.6</ele>
        <time>1989-12-30T23:59:59Z</time>
      </trkpt>
      <trkpt lat="37.756034" lon="-3.026681">
        <ele>734.6</ele>
        <time>1989-12-30T23:59:59Z</time>
      </trkpt>
      <trkpt lat="37.755946" lon="-3.026702">
        <ele>734.6</ele>
        <time>1989-12-30T23:59:59Z</time>
      </trkpt>
      <trkpt lat="37.755845" lon="-3.026727">
        <ele>736.0</ele>
        <time>1989-12-30T23:59:59Z</time>
      </trkpt>
      <trkpt lat="37.755744" lon="-3.026723">
        <ele>738.4</ele>
        <time>1989-12-30T23:59:59Z</time>
      </trkpt>
      <trkpt lat="37.755495" lon="-3.026821">
        <ele>734.6</ele>
        <time>1989-12-30T23:59:59Z</time>
      </trkpt>
      <trkpt lat="37.754932" lon="-3.026934">
        <ele>733.1</ele>
        <time>1989-12-30T23:59:59Z</time>
      </trkpt>
      <trkpt lat="37.754786" lon="-3.026734">
        <ele>728.8</ele>
        <time>1989-12-30T23:59:59Z</time>
      </trkpt>
      <trkpt lat="37.754697" lon="-3.026691">
        <ele>726.9</ele>
        <time>1989-12-30T23:59:59Z</time>
      </trkpt>
      <trkpt lat="37.754627" lon="-3.026697">
        <ele>724.5</ele>
        <time>1989-12-30T23:59:59Z</time>
      </trkpt>
      <trkpt lat="37.754536" lon="-3.026728">
        <ele>723.0</ele>
        <time>1989-12-30T23:59:59Z</time>
      </trkpt>
      <trkpt lat="37.754801" lon="-3.026494">
        <ele>721.1</ele>
        <time>1989-12-30T23:59:59Z</time>
      </trkpt>
      <trkpt lat="37.754831" lon="-3.026366">
        <ele>720.6</ele>
        <time>1989-12-30T23:59:59Z</time>
      </trkpt>
      <trkpt lat="37.754808" lon="-3.026102">
        <ele>720.2</ele>
        <time>1989-12-30T23:59:59Z</time>
      </trkpt>
      <trkpt lat="37.754834" lon="-3.025719">
        <ele>719.7</ele>
        <time>1989-12-30T23:59:59Z</time>
      </trkpt>
      <trkpt lat="37.754892" lon="-3.025491">
        <ele>716.3</ele>
        <time>1989-12-30T23:59:59Z</time>
      </trkpt>
      <trkpt lat="37.754875" lon="-3.025261">
        <ele>714.4</ele>
        <time>1989-12-30T23:59:59Z</time>
      </trkpt>
      <trkpt lat="37.754892" lon="-3.025150">
        <ele>714.4</ele>
        <time>1989-12-30T23:59:59Z</time>
      </trkpt>
      <trkpt lat="37.754809" lon="-3.024916">
        <ele>715.4</ele>
        <time>1989-12-30T23:59:59Z</time>
      </trkpt>
      <trkpt lat="37.754677" lon="-3.024776">
        <ele>712.0</ele>
        <time>1989-12-30T23:59:59Z</time>
      </trkpt>
      <trkpt lat="37.754662" lon="-3.024677">
        <ele>712.0</ele>
        <time>1989-12-30T23:59:59Z</time>
      </trkpt>
      <trkpt lat="37.754648" lon="-3.024533">
        <ele>709.1</ele>
        <time>1989-12-30T23:59:59Z</time>
      </trkpt>
      <trkpt lat="37.754661" lon="-3.024297">
        <ele>709.6</ele>
        <time>1989-12-30T23:59:59Z</time>
      </trkpt>
      <trkpt lat="37.755099" lon="-3.024029">
        <ele>708.1</ele>
        <time>1989-12-30T23:59:59Z</time>
      </trkpt>
      <trkpt lat="37.755241" lon="-3.023729">
        <ele>701.9</ele>
        <time>1989-12-30T23:59:59Z</time>
      </trkpt>
      <trkpt lat="37.755262" lon="-3.023619">
        <ele>698.5</ele>
        <time>1989-12-30T23:59:59Z</time>
      </trkpt>
      <trkpt lat="37.755313" lon="-3.023539">
        <ele>705.3</ele>
        <time>1989-12-30T23:59:59Z</time>
      </trkpt>
      <trkpt lat="37.755234" lon="-3.023546">
        <ele>702.4</ele>
        <time>1989-12-30T23:59:59Z</time>
      </trkpt>
      <trkpt lat="37.755058" lon="-3.023592">
        <ele>705.3</ele>
        <time>1989-12-30T23:59:59Z</time>
      </trkpt>
      <trkpt lat="37.754867" lon="-3.023575">
        <ele>706.7</ele>
        <time>1989-12-30T23:59:59Z</time>
      </trkpt>
      <trkpt lat="37.754788" lon="-3.023519">
        <ele>709.6</ele>
        <time>1989-12-30T23:59:59Z</time>
      </trkpt>
      <trkpt lat="37.754752" lon="-3.023404">
        <ele>711.5</ele>
        <time>1989-12-30T23:59:59Z</time>
      </trkpt>
      <trkpt lat="37.754598" lon="-3.023275">
        <ele>716.8</ele>
        <time>1989-12-30T23:59:59Z</time>
      </trkpt>
      <trkpt lat="37.754519" lon="-3.023237">
        <ele>716.3</ele>
        <time>1989-12-30T23:59:59Z</time>
      </trkpt>
      <trkpt lat="37.754427" lon="-3.023224">
        <ele>717.8</ele>
        <time>1989-12-30T23:59:59Z</time>
      </trkpt>
      <trkpt lat="37.754337" lon="-3.023260">
        <ele>718.2</ele>
        <time>1989-12-30T23:59:59Z</time>
      </trkpt>
      <trkpt lat="37.754280" lon="-3.023201">
        <ele>721.1</ele>
        <time>1989-12-30T23:59:59Z</time>
      </trkpt>
      <trkpt lat="37.754109" lon="-3.023137">
        <ele>725.9</ele>
        <time>1989-12-30T23:59:59Z</time>
      </trkpt>
      <trkpt lat="37.754026" lon="-3.023079">
        <ele>727.4</ele>
        <time>1989-12-30T23:59:59Z</time>
      </trkpt>
      <trkpt lat="37.753948" lon="-3.023027">
        <ele>731.2</ele>
        <time>1989-12-30T23:59:59Z</time>
      </trkpt>
      <trkpt lat="37.753787" lon="-3.022911">
        <ele>733.1</ele>
        <time>1989-12-30T23:59:59Z</time>
      </trkpt>
      <trkpt lat="37.753634" lon="-3.022590">
        <ele>737.0</ele>
        <time>1989-12-30T23:59:59Z</time>
      </trkpt>
      <trkpt lat="37.753556" lon="-3.022391">
        <ele>740.8</ele>
        <time>1989-12-30T23:59:59Z</time>
      </trkpt>
      <trkpt lat="37.753508" lon="-3.022293">
        <ele>740.4</ele>
        <time>1989-12-30T23:59:59Z</time>
      </trkpt>
      <trkpt lat="37.753467" lon="-3.022202">
        <ele>742.3</ele>
        <time>1989-12-30T23:59:59Z</time>
      </trkpt>
      <trkpt lat="37.753416" lon="-3.022161">
        <ele>740.4</ele>
        <time>1989-12-30T23:59:59Z</time>
      </trkpt>
      <trkpt lat="37.753339" lon="-3.022093">
        <ele>743.7</ele>
        <time>1989-12-30T23:59:59Z</time>
      </trkpt>
      <trkpt lat="37.753204" lon="-3.021934">
        <ele>746.1</ele>
        <time>1989-12-30T23:59:59Z</time>
      </trkpt>
      <trkpt lat="37.753045" lon="-3.021657">
        <ele>749.5</ele>
        <time>1989-12-30T23:59:59Z</time>
      </trkpt>
      <trkpt lat="37.753003" lon="-3.021559">
        <ele>753.3</ele>
        <time>1989-12-30T23:59:59Z</time>
      </trkpt>
      <trkpt lat="37.752892" lon="-3.021385">
        <ele>756.7</ele>
        <time>1989-12-30T23:59:59Z</time>
      </trkpt>
      <trkpt lat="37.752721" lon="-3.021092">
        <ele>759.1</ele>
        <time>1989-12-30T23:59:59Z</time>
      </trkpt>
      <trkpt lat="37.752693" lon="-3.020985">
        <ele>761.0</ele>
        <time>1989-12-30T23:59:59Z</time>
      </trkpt>
      <trkpt lat="37.752625" lon="-3.020808">
        <ele>760.5</ele>
        <time>1989-12-30T23:59:59Z</time>
      </trkpt>
      <trkpt lat="37.752613" lon="-3.020616">
        <ele>765.8</ele>
        <time>1989-12-30T23:59:59Z</time>
      </trkpt>
      <trkpt lat="37.752544" lon="-3.020184">
        <ele>769.7</ele>
        <time>1989-12-30T23:59:59Z</time>
      </trkpt>
      <trkpt lat="37.752629" lon="-3.020157">
        <ele>770.2</ele>
        <time>1989-12-30T23:59:59Z</time>
      </trkpt>
      <trkpt lat="37.752694" lon="-3.020203">
        <ele>772.6</ele>
        <time>1989-12-30T23:59:59Z</time>
      </trkpt>
      <trkpt lat="37.752926" lon="-3.020355">
        <ele>776.4</ele>
        <time>1989-12-30T23:59:59Z</time>
      </trkpt>
      <trkpt lat="37.753007" lon="-3.020423">
        <ele>778.8</ele>
        <time>1989-12-30T23:59:59Z</time>
      </trkpt>
      <trkpt lat="37.753177" lon="-3.020510">
        <ele>781.7</ele>
        <time>1989-12-30T23:59:59Z</time>
      </trkpt>
      <trkpt lat="37.753452" lon="-3.020583">
        <ele>785.5</ele>
        <time>1989-12-30T23:59:59Z</time>
      </trkpt>
      <trkpt lat="37.753525" lon="-3.020646">
        <ele>787.5</ele>
        <time>1989-12-30T23:59:59Z</time>
      </trkpt>
      <trkpt lat="37.753591" lon="-3.020672">
        <ele>787.5</ele>
        <time>1989-12-30T23:59:59Z</time>
      </trkpt>
      <trkpt lat="37.753657" lon="-3.020648">
        <ele>790.8</ele>
        <time>1989-12-30T23:59:59Z</time>
      </trkpt>
      <trkpt lat="37.753659" lon="-3.020651">
        <ele>790.3</ele>
        <time>1989-12-30T23:59:59Z</time>
      </trkpt>
      <trkpt lat="37.753797" lon="-3.020736">
        <ele>792.3</ele>
        <time>1989-12-30T23:59:59Z</time>
      </trkpt>
      <trkpt lat="37.753852" lon="-3.020839">
        <ele>794.2</ele>
        <time>1989-12-30T23:59:59Z</time>
      </trkpt>
      <trkpt lat="37.754034" lon="-3.021074">
        <ele>800.0</ele>
        <time>1989-12-30T23:59:59Z</time>
      </trkpt>
      <trkpt lat="37.754148" lon="-3.021042">
        <ele>800.0</ele>
        <time>1989-12-30T23:59:59Z</time>
      </trkpt>
      <trkpt lat="37.754246" lon="-3.021042">
        <ele>800.9</ele>
        <time>1989-12-30T23:59:59Z</time>
      </trkpt>
      <trkpt lat="37.754483" lon="-3.021229">
        <ele>803.8</ele>
        <time>1989-12-30T23:59:59Z</time>
      </trkpt>
      <trkpt lat="37.754576" lon="-3.021235">
        <ele>805.2</ele>
        <time>1989-12-30T23:59:59Z</time>
      </trkpt>
      <trkpt lat="37.754686" lon="-3.020921">
        <ele>808.1</ele>
        <time>1989-12-30T23:59:59Z</time>
      </trkpt>
      <trkpt lat="37.754728" lon="-3.020692">
        <ele>810.0</ele>
        <time>1989-12-30T23:59:59Z</time>
      </trkpt>
      <trkpt lat="37.754779" lon="-3.020599">
        <ele>812.0</ele>
        <time>1989-12-30T23:59:59Z</time>
      </trkpt>
      <trkpt lat="37.754836" lon="-3.020377">
        <ele>814.4</ele>
        <time>1989-12-30T23:59:59Z</time>
      </trkpt>
      <trkpt lat="37.754857" lon="-3.020259">
        <ele>815.8</ele>
        <time>1989-12-30T23:59:59Z</time>
      </trkpt>
      <trkpt lat="37.754901" lon="-3.020136">
        <ele>818.7</ele>
        <time>1989-12-30T23:59:59Z</time>
      </trkpt>
      <trkpt lat="37.754901" lon="-3.019672">
        <ele>822.1</ele>
        <time>1989-12-30T23:59:59Z</time>
      </trkpt>
      <trkpt lat="37.754950" lon="-3.019574">
        <ele>823.0</ele>
        <time>1989-12-30T23:59:59Z</time>
      </trkpt>
      <trkpt lat="37.755213" lon="-3.019239">
        <ele>827.8</ele>
        <time>1989-12-30T23:59:59Z</time>
      </trkpt>
      <trkpt lat="37.755314" lon="-3.019028">
        <ele>831.7</ele>
        <time>1989-12-30T23:59:59Z</time>
      </trkpt>
      <trkpt lat="37.755334" lon="-3.018903">
        <ele>833.6</ele>
        <time>1989-12-30T23:59:59Z</time>
      </trkpt>
      <trkpt lat="37.755325" lon="-3.018788">
        <ele>834.1</ele>
        <time>1989-12-30T23:59:59Z</time>
      </trkpt>
      <trkpt lat="37.755249" lon="-3.018563">
        <ele>835.5</ele>
        <time>1989-12-30T23:59:59Z</time>
      </trkpt>
      <trkpt lat="37.755310" lon="-3.018481">
        <ele>836.0</ele>
        <time>1989-12-30T23:59:59Z</time>
      </trkpt>
      <trkpt lat="37.755391" lon="-3.018457">
        <ele>837.9</ele>
        <time>1989-12-30T23:59:59Z</time>
      </trkpt>
      <trkpt lat="37.755581" lon="-3.018513">
        <ele>841.3</ele>
        <time>1989-12-30T23:59:59Z</time>
      </trkpt>
      <trkpt lat="37.755916" lon="-3.018735">
        <ele>847.5</ele>
        <time>1989-12-30T23:59:59Z</time>
      </trkpt>
      <trkpt lat="37.756119" lon="-3.018787">
        <ele>848.0</ele>
        <time>1989-12-30T23:59:59Z</time>
      </trkpt>
      <trkpt lat="37.756481" lon="-3.018875">
        <ele>853.8</ele>
        <time>1989-12-30T23:59:59Z</time>
      </trkpt>
      <trkpt lat="37.756723" lon="-3.019045">
        <ele>857.6</ele>
        <time>1989-12-30T23:59:59Z</time>
      </trkpt>
      <trkpt lat="37.756813" lon="-3.019084">
        <ele>859.6</ele>
        <time>1989-12-30T23:59:59Z</time>
      </trkpt>
      <trkpt lat="37.756906" lon="-3.019061">
        <ele>860.5</ele>
        <time>1989-12-30T23:59:59Z</time>
      </trkpt>
      <trkpt lat="37.757132" lon="-3.018851">
        <ele>863.9</ele>
        <time>1989-12-30T23:59:59Z</time>
      </trkpt>
      <trkpt lat="37.757241" lon="-3.018387">
        <ele>865.8</ele>
        <time>1989-12-30T23:59:59Z</time>
      </trkpt>
      <trkpt lat="37.757282" lon="-3.018291">
        <ele>865.3</ele>
        <time>1989-12-30T23:59:59Z</time>
      </trkpt>
      <trkpt lat="37.757430" lon="-3.017976">
        <ele>867.7</ele>
        <time>1989-12-30T23:59:59Z</time>
      </trkpt>
      <trkpt lat="37.757546" lon="-3.017792">
        <ele>869.6</ele>
        <time>1989-12-30T23:59:59Z</time>
      </trkpt>
      <trkpt lat="37.757672" lon="-3.017601">
        <ele>871.1</ele>
        <time>1989-12-30T23:59:59Z</time>
      </trkpt>
      <trkpt lat="37.757744" lon="-3.017526">
        <ele>873.0</ele>
        <time>1989-12-30T23:59:59Z</time>
      </trkpt>
      <trkpt lat="37.757920" lon="-3.017447">
        <ele>872.1</ele>
        <time>1989-12-30T23:59:59Z</time>
      </trkpt>
      <trkpt lat="37.758000" lon="-3.017386">
        <ele>873.5</ele>
        <time>1989-12-30T23:59:59Z</time>
      </trkpt>
      <trkpt lat="37.758062" lon="-3.017278">
        <ele>874.5</ele>
        <time>1989-12-30T23:59:59Z</time>
      </trkpt>
      <trkpt lat="37.758137" lon="-3.016920">
        <ele>872.5</ele>
        <time>1989-12-30T23:59:59Z</time>
      </trkpt>
      <trkpt lat="37.758259" lon="-3.016594">
        <ele>880.2</ele>
        <time>1989-12-30T23:59:59Z</time>
      </trkpt>
      <trkpt lat="37.758573" lon="-3.016150">
        <ele>883.1</ele>
        <time>1989-12-30T23:59:59Z</time>
      </trkpt>
      <trkpt lat="37.758992" lon="-3.015846">
        <ele>888.4</ele>
        <time>1989-12-30T23:59:59Z</time>
      </trkpt>
      <trkpt lat="37.759114" lon="-3.015616">
        <ele>889.8</ele>
        <time>1989-12-30T23:59:59Z</time>
      </trkpt>
      <trkpt lat="37.759199" lon="-3.015333">
        <ele>890.3</ele>
        <time>1989-12-30T23:59:59Z</time>
      </trkpt>
      <trkpt lat="37.759231" lon="-3.015191">
        <ele>890.3</ele>
        <time>1989-12-30T23:59:59Z</time>
      </trkpt>
      <trkpt lat="37.759244" lon="-3.015131">
        <ele>895.6</ele>
        <time>1989-12-30T23:59:59Z</time>
      </trkpt>
      <trkpt lat="37.759266" lon="-3.014957">
        <ele>895.6</ele>
        <time>1989-12-30T23:59:59Z</time>
      </trkpt>
      <trkpt lat="37.759305" lon="-3.014858">
        <ele>895.1</ele>
        <time>1989-12-30T23:59:59Z</time>
      </trkpt>
      <trkpt lat="37.759323" lon="-3.014736">
        <ele>896.6</ele>
        <time>1989-12-30T23:59:59Z</time>
      </trkpt>
      <trkpt lat="37.759375" lon="-3.014019">
        <ele>900.9</ele>
        <time>1989-12-30T23:59:59Z</time>
      </trkpt>
      <trkpt lat="37.759359" lon="-3.013901">
        <ele>903.8</ele>
        <time>1989-12-30T23:59:59Z</time>
      </trkpt>
      <trkpt lat="37.759347" lon="-3.013782">
        <ele>904.3</ele>
        <time>1989-12-30T23:59:59Z</time>
      </trkpt>
      <trkpt lat="37.759316" lon="-3.013668">
        <ele>907.6</ele>
        <time>1989-12-30T23:59:59Z</time>
      </trkpt>
      <trkpt lat="37.759245" lon="-3.013187">
        <ele>910.0</ele>
        <time>1989-12-30T23:59:59Z</time>
      </trkpt>
      <trkpt lat="37.759228" lon="-3.013090">
        <ele>908.1</ele>
        <time>1989-12-30T23:59:59Z</time>
      </trkpt>
      <trkpt lat="37.759185" lon="-3.012863">
        <ele>908.1</ele>
        <time>1989-12-30T23:59:59Z</time>
      </trkpt>
      <trkpt lat="37.759205" lon="-3.012632">
        <ele>908.6</ele>
        <time>1989-12-30T23:59:59Z</time>
      </trkpt>
      <trkpt lat="37.759232" lon="-3.012404">
        <ele>907.1</ele>
        <time>1989-12-30T23:59:59Z</time>
      </trkpt>
      <trkpt lat="37.759260" lon="-3.012290">
        <ele>908.1</ele>
        <time>1989-12-30T23:59:59Z</time>
      </trkpt>
      <trkpt lat="37.759321" lon="-3.012194">
        <ele>909.1</ele>
        <time>1989-12-30T23:59:59Z</time>
      </trkpt>
      <trkpt lat="37.759394" lon="-3.011991">
        <ele>917.2</ele>
        <time>1989-12-30T23:59:59Z</time>
      </trkpt>
      <trkpt lat="37.759215" lon="-3.011478">
        <ele>922.0</ele>
        <time>1989-12-30T23:59:59Z</time>
      </trkpt>
      <trkpt lat="37.759248" lon="-3.011368">
        <ele>925.9</ele>
        <time>1989-12-30T23:59:59Z</time>
      </trkpt>
      <trkpt lat="37.759285" lon="-3.011070">
        <ele>927.8</ele>
        <time>1989-12-30T23:59:59Z</time>
      </trkpt>
      <trkpt lat="37.759315" lon="-3.010830">
        <ele>934.5</ele>
        <time>1989-12-30T23:59:59Z</time>
      </trkpt>
      <trkpt lat="37.759333" lon="-3.010294">
        <ele>942.2</ele>
        <time>1989-12-30T23:59:59Z</time>
      </trkpt>
      <trkpt lat="37.759284" lon="-3.009966">
        <ele>949.4</ele>
        <time>1989-12-30T23:59:59Z</time>
      </trkpt>
      <trkpt lat="37.759283" lon="-3.009844">
        <ele>950.4</ele>
        <time>1989-12-30T23:59:59Z</time>
      </trkpt>
      <trkpt lat="37.759295" lon="-3.009722">
        <ele>953.8</ele>
        <time>1989-12-30T23:59:59Z</time>
      </trkpt>
      <trkpt lat="37.759335" lon="-3.009624">
        <ele>956.6</ele>
        <time>1989-12-30T23:59:59Z</time>
      </trkpt>
      <trkpt lat="37.759322" lon="-3.009516">
        <ele>959.5</ele>
        <time>1989-12-30T23:59:59Z</time>
      </trkpt>
      <trkpt lat="37.759366" lon="-3.009460">
        <ele>961.0</ele>
        <time>1989-12-30T23:59:59Z</time>
      </trkpt>
      <trkpt lat="37.759332" lon="-3.009338">
        <ele>960.5</ele>
        <time>1989-12-30T23:59:59Z</time>
      </trkpt>
      <trkpt lat="37.759288" lon="-3.009235">
        <ele>961.0</ele>
        <time>1989-12-30T23:59:59Z</time>
      </trkpt>
      <trkpt lat="37.759261" lon="-3.009122">
        <ele>961.9</ele>
        <time>1989-12-30T23:59:59Z</time>
      </trkpt>
      <trkpt lat="37.759268" lon="-3.009004">
        <ele>961.9</ele>
        <time>1989-12-30T23:59:59Z</time>
      </trkpt>
      <trkpt lat="37.759349" lon="-3.008805">
        <ele>960.0</ele>
        <time>1989-12-30T23:59:59Z</time>
      </trkpt>
      <trkpt lat="37.759490" lon="-3.008636">
        <ele>959.5</ele>
        <time>1989-12-30T23:59:59Z</time>
      </trkpt>
      <trkpt lat="37.759906" lon="-3.008372">
        <ele>957.6</ele>
        <time>1989-12-30T23:59:59Z</time>
      </trkpt>
      <trkpt lat="37.759957" lon="-3.008270">
        <ele>958.1</ele>
        <time>1989-12-30T23:59:59Z</time>
      </trkpt>
      <trkpt lat="37.759973" lon="-3.008157">
        <ele>958.1</ele>
        <time>1989-12-30T23:59:59Z</time>
      </trkpt>
      <trkpt lat="37.759877" lon="-3.007689">
        <ele>958.1</ele>
        <time>1989-12-30T23:59:59Z</time>
      </trkpt>
      <trkpt lat="37.759850" lon="-3.007457">
        <ele>958.1</ele>
        <time>1989-12-30T23:59:59Z</time>
      </trkpt>
      <trkpt lat="37.759889" lon="-3.007221">
        <ele>958.6</ele>
        <time>1989-12-30T23:59:59Z</time>
      </trkpt>
      <trkpt lat="37.759882" lon="-3.007098">
        <ele>958.6</ele>
        <time>1989-12-30T23:59:59Z</time>
      </trkpt>
      <trkpt lat="37.759710" lon="-3.006837">
        <ele>959.5</ele>
        <time>1989-12-30T23:59:59Z</time>
      </trkpt>
      <trkpt lat="37.759661" lon="-3.006722">
        <ele>959.1</ele>
        <time>1989-12-30T23:59:59Z</time>
      </trkpt>
      <trkpt lat="37.759596" lon="-3.006491">
        <ele>961.0</ele>
        <time>1989-12-30T23:59:59Z</time>
      </trkpt>
      <trkpt lat="37.759554" lon="-3.006381">
        <ele>960.5</ele>
        <time>1989-12-30T23:59:59Z</time>
      </trkpt>
      <trkpt lat="37.759492" lon="-3.006281">
        <ele>961.0</ele>
        <time>1989-12-30T23:59:59Z</time>
      </trkpt>
      <trkpt lat="37.759302" lon="-3.006009">
        <ele>961.9</ele>
        <time>1989-12-30T23:59:59Z</time>
      </trkpt>
      <trkpt lat="37.759146" lon="-3.005831">
        <ele>961.9</ele>
        <time>1989-12-30T23:59:59Z</time>
      </trkpt>
      <trkpt lat="37.759072" lon="-3.005771">
        <ele>964.3</ele>
        <time>1989-12-30T23:59:59Z</time>
      </trkpt>
      <trkpt lat="37.759010" lon="-3.005693">
        <ele>963.9</ele>
        <time>1989-12-30T23:59:59Z</time>
      </trkpt>
      <trkpt lat="37.759006" lon="-3.005524">
        <ele>956.2</ele>
        <time>1989-12-30T23:59:59Z</time>
      </trkpt>
      <trkpt lat="37.758930" lon="-3.005308">
        <ele>956.6</ele>
        <time>1989-12-30T23:59:59Z</time>
      </trkpt>
      <trkpt lat="37.758831" lon="-3.005219">
        <ele>957.1</ele>
        <time>1989-12-30T23:59:59Z</time>
      </trkpt>
      <trkpt lat="37.758794" lon="-3.004987">
        <ele>961.9</ele>
        <time>1989-12-30T23:59:59Z</time>
      </trkpt>
      <trkpt lat="37.758713" lon="-3.004895">
        <ele>965.8</ele>
        <time>1989-12-30T23:59:59Z</time>
      </trkpt>
      <trkpt lat="37.758554" lon="-3.004742">
        <ele>969.1</ele>
        <time>1989-12-30T23:59:59Z</time>
      </trkpt>
      <trkpt lat="37.758437" lon="-3.004560">
        <ele>973.5</ele>
        <time>1989-12-30T23:59:59Z</time>
      </trkpt>
      <trkpt lat="37.758402" lon="-3.004319">
        <ele>977.8</ele>
        <time>1989-12-30T23:59:59Z</time>
      </trkpt>
      <trkpt lat="37.758419" lon="-3.004071">
        <ele>981.6</ele>
        <time>1989-12-30T23:59:59Z</time>
      </trkpt>
      <trkpt lat="37.758642" lon="-3.003353">
        <ele>987.4</ele>
        <time>1989-12-30T23:59:59Z</time>
      </trkpt>
      <trkpt lat="37.758715" lon="-3.003264">
        <ele>987.4</ele>
        <time>1989-12-30T23:59:59Z</time>
      </trkpt>
      <trkpt lat="37.758731" lon="-3.002758">
        <ele>993.7</ele>
        <time>1989-12-30T23:59:59Z</time>
      </trkpt>
      <trkpt lat="37.759053" lon="-3.002447">
        <ele>999.4</ele>
        <time>1989-12-30T23:59:59Z</time>
      </trkpt>
      <trkpt lat="37.759023" lon="-3.002270">
        <ele>999.4</ele>
        <time>1989-12-30T23:59:59Z</time>
      </trkpt>
      <trkpt lat="37.758976" lon="-3.002131">
        <ele>997.0</ele>
        <time>1989-12-30T23:59:59Z</time>
      </trkpt>
      <trkpt lat="37.758917" lon="-3.002013">
        <ele>997.5</ele>
        <time>1989-12-30T23:59:59Z</time>
      </trkpt>
      <trkpt lat="37.758845" lon="-3.001764">
        <ele>996.5</ele>
        <time>1989-12-30T23:59:59Z</time>
      </trkpt>
      <trkpt lat="37.758559" lon="-3.001252">
        <ele>998.5</ele>
        <time>1989-12-30T23:59:59Z</time>
      </trkpt>
      <trkpt lat="37.758434" lon="-3.001052">
        <ele>1000.9</ele>
        <time>1989-12-30T23:59:59Z</time>
      </trkpt>
      <trkpt lat="37.758351" lon="-3.000995">
        <ele>1012.9</ele>
        <time>1989-12-30T23:59:59Z</time>
      </trkpt>
      <trkpt lat="37.758341" lon="-3.000900">
        <ele>1014.8</ele>
        <time>1989-12-30T23:59:59Z</time>
      </trkpt>
      <trkpt lat="37.758309" lon="-3.000778">
        <ele>1013.4</ele>
        <time>1989-12-30T23:59:59Z</time>
      </trkpt>
      <trkpt lat="37.758294" lon="-3.000666">
        <ele>1014.8</ele>
        <time>1989-12-30T23:59:59Z</time>
      </trkpt>
      <trkpt lat="37.758310" lon="-3.000551">
        <ele>1013.8</ele>
        <time>1989-12-30T23:59:59Z</time>
      </trkpt>
      <trkpt lat="37.758339" lon="-3.000424">
        <ele>1015.3</ele>
        <time>1989-12-30T23:59:59Z</time>
      </trkpt>
      <trkpt lat="37.758339" lon="-3.000296">
        <ele>1019.1</ele>
        <time>1989-12-30T23:59:59Z</time>
      </trkpt>
      <trkpt lat="37.758369" lon="-3.000200">
        <ele>1020.6</ele>
        <time>1989-12-30T23:59:59Z</time>
      </trkpt>
      <trkpt lat="37.758551" lon="-3.000022">
        <ele>1021.5</ele>
        <time>1989-12-30T23:59:59Z</time>
      </trkpt>
      <trkpt lat="37.758638" lon="-2.999916">
        <ele>1019.6</ele>
        <time>1989-12-30T23:59:59Z</time>
      </trkpt>
      <trkpt lat="37.758710" lon="-2.999966">
        <ele>1023.0</ele>
        <time>1989-12-30T23:59:59Z</time>
      </trkpt>
      <trkpt lat="37.759009" lon="-3.000044">
        <ele>1028.3</ele>
        <time>1989-12-30T23:59:59Z</time>
      </trkpt>
      <trkpt lat="37.759050" lon="-2.999788">
        <ele>1030.2</ele>
        <time>1989-12-30T23:59:59Z</time>
      </trkpt>
      <trkpt lat="37.759055" lon="-2.999229">
        <ele>1035.5</ele>
        <time>1989-12-30T23:59:59Z</time>
      </trkpt>
      <trkpt lat="37.759173" lon="-2.998980">
        <ele>1037.4</ele>
        <time>1989-12-30T23:59:59Z</time>
      </trkpt>
      <trkpt lat="37.759489" lon="-2.998990">
        <ele>1047.5</ele>
        <time>1989-12-30T23:59:59Z</time>
      </trkpt>
      <trkpt lat="37.759597" lon="-2.998988">
        <ele>1048.9</ele>
        <time>1989-12-30T23:59:59Z</time>
      </trkpt>
      <trkpt lat="37.759780" lon="-2.999035">
        <ele>1050.4</ele>
        <time>1989-12-30T23:59:59Z</time>
      </trkpt>
      <trkpt lat="37.759972" lon="-2.999032">
        <ele>1051.8</ele>
        <time>1989-12-30T23:59:59Z</time>
      </trkpt>
      <trkpt lat="37.760082" lon="-2.999017">
        <ele>1050.4</ele>
        <time>1989-12-30T23:59:59Z</time>
      </trkpt>
      <trkpt lat="37.760128" lon="-2.999048">
        <ele>1053.3</ele>
        <time>1989-12-30T23:59:59Z</time>
      </trkpt>
      <trkpt lat="37.760119" lon="-2.998914">
        <ele>1058.5</ele>
        <time>1989-12-30T23:59:59Z</time>
      </trkpt>
      <trkpt lat="37.759991" lon="-2.998835">
        <ele>1064.3</ele>
        <time>1989-12-30T23:59:59Z</time>
      </trkpt>
      <trkpt lat="37.759762" lon="-2.998737">
        <ele>1074.9</ele>
        <time>1989-12-30T23:59:59Z</time>
      </trkpt>
      <trkpt lat="37.759707" lon="-2.998608">
        <ele>1066.2</ele>
        <time>1989-12-30T23:59:59Z</time>
      </trkpt>
      <trkpt lat="37.759617" lon="-2.998519">
        <ele>1065.8</ele>
        <time>1989-12-30T23:59:59Z</time>
      </trkpt>
      <trkpt lat="37.759521" lon="-2.998446">
        <ele>1068.6</ele>
        <time>1989-12-30T23:59:59Z</time>
      </trkpt>
      <trkpt lat="37.759378" lon="-2.998276">
        <ele>1073.9</ele>
        <time>1989-12-30T23:59:59Z</time>
      </trkpt>
      <trkpt lat="37.759310" lon="-2.998197">
        <ele>1071.0</ele>
        <time>1989-12-30T23:59:59Z</time>
      </trkpt>
      <trkpt lat="37.759212" lon="-2.998152">
        <ele>1072.5</ele>
        <time>1989-12-30T23:59:59Z</time>
      </trkpt>
      <trkpt lat="37.759109" lon="-2.998142">
        <ele>1071.5</ele>
        <time>1989-12-30T23:59:59Z</time>
      </trkpt>
      <trkpt lat="37.759209" lon="-2.997951">
        <ele>1074.4</ele>
        <time>1989-12-30T23:59:59Z</time>
      </trkpt>
      <trkpt lat="37.759340" lon="-2.997880">
        <ele>1073.9</ele>
        <time>1989-12-30T23:59:59Z</time>
      </trkpt>
      <trkpt lat="37.759563" lon="-2.997807">
        <ele>1075.9</ele>
        <time>1989-12-30T23:59:59Z</time>
      </trkpt>
      <trkpt lat="37.759825" lon="-2.997802">
        <ele>1084.5</ele>
        <time>1989-12-30T23:59:59Z</time>
      </trkpt>
      <trkpt lat="37.759924" lon="-2.997841">
        <ele>1087.9</ele>
        <time>1989-12-30T23:59:59Z</time>
      </trkpt>
      <trkpt lat="37.760247" lon="-2.997926">
        <ele>1090.8</ele>
        <time>1989-12-30T23:59:59Z</time>
      </trkpt>
      <trkpt lat="37.760322" lon="-2.997916">
        <ele>1094.6</ele>
        <time>1989-12-30T23:59:59Z</time>
      </trkpt>
      <trkpt lat="37.760241" lon="-2.997860">
        <ele>1101.8</ele>
        <time>1989-12-30T23:59:59Z</time>
      </trkpt>
      <trkpt lat="37.760170" lon="-2.997785">
        <ele>1103.7</ele>
        <time>1989-12-30T23:59:59Z</time>
      </trkpt>
      <trkpt lat="37.759956" lon="-2.997530">
        <ele>1100.4</ele>
        <time>1989-12-30T23:59:59Z</time>
      </trkpt>
      <trkpt lat="37.759898" lon="-2.997432">
        <ele>1101.8</ele>
        <time>1989-12-30T23:59:59Z</time>
      </trkpt>
      <trkpt lat="37.759813" lon="-2.997363">
        <ele>1104.7</ele>
        <time>1989-12-30T23:59:59Z</time>
      </trkpt>
      <trkpt lat="37.759639" lon="-2.997293">
        <ele>1107.6</ele>
        <time>1989-12-30T23:59:59Z</time>
      </trkpt>
      <trkpt lat="37.759561" lon="-2.997218">
        <ele>1107.6</ele>
        <time>1989-12-30T23:59:59Z</time>
      </trkpt>
      <trkpt lat="37.759259" lon="-2.997198">
        <ele>1115.7</ele>
        <time>1989-12-30T23:59:59Z</time>
      </trkpt>
      <trkpt lat="37.759293" lon="-2.997074">
        <ele>1118.2</ele>
        <time>1989-12-30T23:59:59Z</time>
      </trkpt>
      <trkpt lat="37.759572" lon="-2.996969">
        <ele>1123.9</ele>
        <time>1989-12-30T23:59:59Z</time>
      </trkpt>
      <trkpt lat="37.759683" lon="-2.996959">
        <ele>1122.0</ele>
        <time>1989-12-30T23:59:59Z</time>
      </trkpt>
      <trkpt lat="37.759896" lon="-2.996963">
        <ele>1122.5</ele>
        <time>1989-12-30T23:59:59Z</time>
      </trkpt>
      <trkpt lat="37.760090" lon="-2.996918">
        <ele>1122.0</ele>
        <time>1989-12-30T23:59:59Z</time>
      </trkpt>
      <trkpt lat="37.760246" lon="-2.996986">
        <ele>1128.2</ele>
        <time>1989-12-30T23:59:59Z</time>
      </trkpt>
      <trkpt lat="37.760637" lon="-2.997049">
        <ele>1133.1</ele>
        <time>1989-12-30T23:59:59Z</time>
      </trkpt>
      <trkpt lat="37.760913" lon="-2.997187">
        <ele>1128.2</ele>
        <time>1989-12-30T23:59:59Z</time>
      </trkpt>
      <trkpt lat="37.761043" lon="-2.997197">
        <ele>1127.8</ele>
        <time>1989-12-30T23:59:59Z</time>
      </trkpt>
      <trkpt lat="37.761140" lon="-2.997210">
        <ele>1130.6</ele>
        <time>1989-12-30T23:59:59Z</time>
      </trkpt>
      <trkpt lat="37.761236" lon="-2.997258">
        <ele>1157.6</ele>
        <time>1989-12-30T23:59:59Z</time>
      </trkpt>
      <trkpt lat="37.761390" lon="-2.997342">
        <ele>1152.8</ele>
        <time>1989-12-30T23:59:59Z</time>
      </trkpt>
      <trkpt lat="37.761467" lon="-2.997387">
        <ele>1156.1</ele>
        <time>1989-12-30T23:59:59Z</time>
      </trkpt>
      <trkpt lat="37.761413" lon="-2.997316">
        <ele>1158.5</ele>
        <time>1989-12-30T23:59:59Z</time>
      </trkpt>
      <trkpt lat="37.761187" lon="-2.997070">
        <ele>1162.4</ele>
        <time>1989-12-30T23:59:59Z</time>
      </trkpt>
      <trkpt lat="37.761083" lon="-2.996858">
        <ele>1165.7</ele>
        <time>1989-12-30T23:59:59Z</time>
      </trkpt>
      <trkpt lat="37.761048" lon="-2.996732">
        <ele>1164.3</ele>
        <time>1989-12-30T23:59:59Z</time>
      </trkpt>
      <trkpt lat="37.760977" lon="-2.996636">
        <ele>1163.8</ele>
        <time>1989-12-30T23:59:59Z</time>
      </trkpt>
      <trkpt lat="37.760884" lon="-2.996596">
        <ele>1164.3</ele>
        <time>1989-12-30T23:59:59Z</time>
      </trkpt>
      <trkpt lat="37.760612" lon="-2.996515">
        <ele>1168.6</ele>
        <time>1989-12-30T23:59:59Z</time>
      </trkpt>
      <trkpt lat="37.760559" lon="-2.996427">
        <ele>1170.1</ele>
        <time>1989-12-30T23:59:59Z</time>
      </trkpt>
      <trkpt lat="37.760532" lon="-2.996179">
        <ele>1172.0</ele>
        <time>1989-12-30T23:59:59Z</time>
      </trkpt>
      <trkpt lat="37.760551" lon="-2.996064">
        <ele>1172.0</ele>
        <time>1989-12-30T23:59:59Z</time>
      </trkpt>
      <trkpt lat="37.760607" lon="-2.995957">
        <ele>1172.5</ele>
        <time>1989-12-30T23:59:59Z</time>
      </trkpt>
      <trkpt lat="37.760624" lon="-2.995921">
        <ele>1173.9</ele>
        <time>1989-12-30T23:59:59Z</time>
      </trkpt>
      <trkpt lat="37.760676" lon="-2.995790">
        <ele>1172.9</ele>
        <time>1989-12-30T23:59:59Z</time>
      </trkpt>
      <trkpt lat="37.760753" lon="-2.995699">
        <ele>1172.0</ele>
        <time>1989-12-30T23:59:59Z</time>
      </trkpt>
      <trkpt lat="37.760857" lon="-2.995593">
        <ele>1167.2</ele>
        <time>1989-12-30T23:59:59Z</time>
      </trkpt>
      <trkpt lat="37.760919" lon="-2.995489">
        <ele>1167.7</ele>
        <time>1989-12-30T23:59:59Z</time>
      </trkpt>
      <trkpt lat="37.760989" lon="-2.995407">
        <ele>1172.0</ele>
        <time>1989-12-30T23:59:59Z</time>
      </trkpt>
      <trkpt lat="37.761095" lon="-2.995218">
        <ele>1173.4</ele>
        <time>1989-12-30T23:59:59Z</time>
      </trkpt>
      <trkpt lat="37.761258" lon="-2.994944">
        <ele>1171.0</ele>
        <time>1989-12-30T23:59:59Z</time>
      </trkpt>
      <trkpt lat="37.761374" lon="-2.994803">
        <ele>1172.9</ele>
        <time>1989-12-30T23:59:59Z</time>
      </trkpt>
      <trkpt lat="37.761464" lon="-2.994662">
        <ele>1176.8</ele>
        <time>1989-12-30T23:59:59Z</time>
      </trkpt>
      <trkpt lat="37.761566" lon="-2.994536">
        <ele>1176.4</ele>
        <time>1989-12-30T23:59:59Z</time>
      </trkpt>
      <trkpt lat="37.761656" lon="-2.994502">
        <ele>1176.9</ele>
        <time>1989-12-30T23:59:59Z</time>
      </trkpt>
      <trkpt lat="37.761824" lon="-2.994391">
        <ele>1178.2</ele>
        <time>1989-12-30T23:59:59Z</time>
      </trkpt>
      <trkpt lat="37.761895" lon="-2.994307">
        <ele>1179.2</ele>
        <time>1989-12-30T23:59:59Z</time>
      </trkpt>
      <trkpt lat="37.762018" lon="-2.994103">
        <ele>1179.7</ele>
        <time>1989-12-30T23:59:59Z</time>
      </trkpt>
      <trkpt lat="37.762176" lon="-2.993936">
        <ele>1180.2</ele>
        <time>1989-12-30T23:59:59Z</time>
      </trkpt>
      <trkpt lat="37.762348" lon="-2.993761">
        <ele>1183.5</ele>
        <time>1989-12-30T23:59:59Z</time>
      </trkpt>
      <trkpt lat="37.762635" lon="-2.993624">
        <ele>1187.8</ele>
        <time>1989-12-30T23:59:59Z</time>
      </trkpt>
      <trkpt lat="37.763021" lon="-2.993531">
        <ele>1185.4</ele>
        <time>1989-12-30T23:59:59Z</time>
      </trkpt>
      <trkpt lat="37.763104" lon="-2.993480">
        <ele>1188.3</ele>
        <time>1989-12-30T23:59:59Z</time>
      </trkpt>
      <trkpt lat="37.763188" lon="-2.993442">
        <ele>1188.3</ele>
        <time>1989-12-30T23:59:59Z</time>
      </trkpt>
      <trkpt lat="37.763352" lon="-2.993318">
        <ele>1191.2</ele>
        <time>1989-12-30T23:59:59Z</time>
      </trkpt>
      <trkpt lat="37.763430" lon="-2.993254">
        <ele>1187.4</ele>
        <time>1989-12-30T23:59:59Z</time>
      </trkpt>
      <trkpt lat="37.763552" lon="-2.993099">
        <ele>1188.3</ele>
        <time>1989-12-30T23:59:59Z</time>
      </trkpt>
      <trkpt lat="37.763596" lon="-2.992997">
        <ele>1184.0</ele>
        <time>1989-12-30T23:59:59Z</time>
      </trkpt>
      <trkpt lat="37.763803" lon="-2.992916">
        <ele>1183.5</ele>
        <time>1989-12-30T23:59:59Z</time>
      </trkpt>
      <trkpt lat="37.763984" lon="-2.992755">
        <ele>1189.8</ele>
        <time>1989-12-30T23:59:59Z</time>
      </trkpt>
      <trkpt lat="37.764079" lon="-2.992685">
        <ele>1190.2</ele>
        <time>1989-12-30T23:59:59Z</time>
      </trkpt>
      <trkpt lat="37.764185" lon="-2.992652">
        <ele>1190.2</ele>
        <time>1989-12-30T23:59:59Z</time>
      </trkpt>
      <trkpt lat="37.764246" lon="-2.992554">
        <ele>1190.7</ele>
        <time>1989-12-30T23:59:59Z</time>
      </trkpt>
      <trkpt lat="37.764283" lon="-2.992441">
        <ele>1191.7</ele>
        <time>1989-12-30T23:59:59Z</time>
      </trkpt>
      <trkpt lat="37.764351" lon="-2.992351">
        <ele>1190.2</ele>
        <time>1989-12-30T23:59:59Z</time>
      </trkpt>
      <trkpt lat="37.764422" lon="-2.992258">
        <ele>1192.2</ele>
        <time>1989-12-30T23:59:59Z</time>
      </trkpt>
      <trkpt lat="37.764509" lon="-2.992023">
        <ele>1197.9</ele>
        <time>1989-12-30T23:59:59Z</time>
      </trkpt>
      <trkpt lat="37.764624" lon="-2.991823">
        <ele>1199.9</ele>
        <time>1989-12-30T23:59:59Z</time>
      </trkpt>
      <trkpt lat="37.764696" lon="-2.991751">
        <ele>1199.4</ele>
        <time>1989-12-30T23:59:59Z</time>
      </trkpt>
      <trkpt lat="37.764762" lon="-2.991658">
        <ele>1202.3</ele>
        <time>1989-12-30T23:59:59Z</time>
      </trkpt>
      <trkpt lat="37.764964" lon="-2.991503">
        <ele>1209.0</ele>
        <time>1989-12-30T23:59:59Z</time>
      </trkpt>
      <trkpt lat="37.765050" lon="-2.991402">
        <ele>1213.3</ele>
        <time>1989-12-30T23:59:59Z</time>
      </trkpt>
      <trkpt lat="37.765090" lon="-2.991304">
        <ele>1212.4</ele>
        <time>1989-12-30T23:59:59Z</time>
      </trkpt>
      <trkpt lat="37.765244" lon="-2.990888">
        <ele>1217.6</ele>
        <time>1989-12-30T23:59:59Z</time>
      </trkpt>
      <trkpt lat="37.765363" lon="-2.990730">
        <ele>1210.4</ele>
        <time>1989-12-30T23:59:59Z</time>
      </trkpt>
      <trkpt lat="37.765443" lon="-2.990637">
        <ele>1213.8</ele>
        <time>1989-12-30T23:59:59Z</time>
      </trkpt>
      <trkpt lat="37.765522" lon="-2.990573">
        <ele>1215.2</ele>
        <time>1989-12-30T23:59:59Z</time>
      </trkpt>
      <trkpt lat="37.765616" lon="-2.990527">
        <ele>1213.3</ele>
        <time>1989-12-30T23:59:59Z</time>
      </trkpt>
      <trkpt lat="37.765713" lon="-2.990466">
        <ele>1217.2</ele>
        <time>1989-12-30T23:59:59Z</time>
      </trkpt>
      <trkpt lat="37.765958" lon="-2.990312">
        <ele>1218.6</ele>
        <time>1989-12-30T23:59:59Z</time>
      </trkpt>
      <trkpt lat="37.766236" lon="-2.990121">
        <ele>1227.7</ele>
        <time>1989-12-30T23:59:59Z</time>
      </trkpt>
      <trkpt lat="37.766326" lon="-2.990090">
        <ele>1227.3</ele>
        <time>1989-12-30T23:59:59Z</time>
      </trkpt>
      <trkpt lat="37.766408" lon="-2.990038">
        <ele>1226.8</ele>
        <time>1989-12-30T23:59:59Z</time>
      </trkpt>
      <trkpt lat="37.766584" lon="-2.989875">
        <ele>1232.5</ele>
        <time>1989-12-30T23:59:59Z</time>
      </trkpt>
      <trkpt lat="37.766801" lon="-2.989648">
        <ele>1235.4</ele>
        <time>1989-12-30T23:59:59Z</time>
      </trkpt>
      <trkpt lat="37.766938" lon="-2.989487">
        <ele>1239.8</ele>
        <time>1989-12-30T23:59:59Z</time>
      </trkpt>
      <trkpt lat="37.767017" lon="-2.989388">
        <ele>1245.5</ele>
        <time>1989-12-30T23:59:59Z</time>
      </trkpt>
      <trkpt lat="37.767383" lon="-2.988984">
        <ele>1250.8</ele>
        <time>1989-12-30T23:59:59Z</time>
      </trkpt>
      <trkpt lat="37.767428" lon="-2.988892">
        <ele>1252.7</ele>
        <time>1989-12-30T23:59:59Z</time>
      </trkpt>
      <trkpt lat="37.767383" lon="-2.988805">
        <ele>1251.8</ele>
        <time>1989-12-30T23:59:59Z</time>
      </trkpt>
      <trkpt lat="37.767199" lon="-2.988707">
        <ele>1251.8</ele>
        <time>1989-12-30T23:59:59Z</time>
      </trkpt>
      <trkpt lat="37.767031" lon="-2.988601">
        <ele>1248.4</ele>
        <time>1989-12-30T23:59:59Z</time>
      </trkpt>
      <trkpt lat="37.767000" lon="-2.988516">
        <ele>1249.4</ele>
        <time>1989-12-30T23:59:59Z</time>
      </trkpt>
      <trkpt lat="37.767180" lon="-2.988008">
        <ele>1248.9</ele>
        <time>1989-12-30T23:59:59Z</time>
      </trkpt>
      <trkpt lat="37.767241" lon="-2.987886">
        <ele>1248.9</ele>
        <time>1989-12-30T23:59:59Z</time>
      </trkpt>
      <trkpt lat="37.767381" lon="-2.987684">
        <ele>1252.7</ele>
        <time>1989-12-30T23:59:59Z</time>
      </trkpt>
      <trkpt lat="37.767614" lon="-2.987450">
        <ele>1252.3</ele>
        <time>1989-12-30T23:59:59Z</time>
      </trkpt>
      <trkpt lat="37.767692" lon="-2.987345">
        <ele>1255.6</ele>
        <time>1989-12-30T23:59:59Z</time>
      </trkpt>
      <trkpt lat="37.767910" lon="-2.987090">
        <ele>1253.7</ele>
        <time>1989-12-30T23:59:59Z</time>
      </trkpt>
      <trkpt lat="37.767993" lon="-2.987018">
        <ele>1253.2</ele>
        <time>1989-12-30T23:59:59Z</time>
      </trkpt>
      <trkpt lat="37.768062" lon="-2.986911">
        <ele>1256.6</ele>
        <time>1989-12-30T23:59:59Z</time>
      </trkpt>
      <trkpt lat="37.768262" lon="-2.986632">
        <ele>1258.5</ele>
        <time>1989-12-30T23:59:59Z</time>
      </trkpt>
      <trkpt lat="37.768421" lon="-2.986353">
        <ele>1255.6</ele>
        <time>1989-12-30T23:59:59Z</time>
      </trkpt>
      <trkpt lat="37.768601" lon="-2.985929">
        <ele>1254.2</ele>
        <time>1989-12-30T23:59:59Z</time>
      </trkpt>
      <trkpt lat="37.768749" lon="-2.985608">
        <ele>1262.3</ele>
        <time>1989-12-30T23:59:59Z</time>
      </trkpt>
      <trkpt lat="37.768785" lon="-2.985499">
        <ele>1267.6</ele>
        <time>1989-12-30T23:59:59Z</time>
      </trkpt>
      <trkpt lat="37.768996" lon="-2.985206">
        <ele>1269.1</ele>
        <time>1989-12-30T23:59:59Z</time>
      </trkpt>
      <trkpt lat="37.769185" lon="-2.984920">
        <ele>1276.8</ele>
        <time>1989-12-30T23:59:59Z</time>
      </trkpt>
      <trkpt lat="37.769271" lon="-2.984861">
        <ele>1274.8</ele>
        <time>1989-12-30T23:59:59Z</time>
      </trkpt>
      <trkpt lat="37.769346" lon="-2.984766">
        <ele>1274.8</ele>
        <time>1989-12-30T23:59:59Z</time>
      </trkpt>
      <trkpt lat="37.769479" lon="-2.984596">
        <ele>1278.2</ele>
        <time>1989-12-30T23:59:59Z</time>
      </trkpt>
      <trkpt lat="37.769638" lon="-2.984446">
        <ele>1281.6</ele>
        <time>1989-12-30T23:59:59Z</time>
      </trkpt>
      <trkpt lat="37.769716" lon="-2.984390">
        <ele>1281.6</ele>
        <time>1989-12-30T23:59:59Z</time>
      </trkpt>
      <trkpt lat="37.769788" lon="-2.984335">
        <ele>1278.2</ele>
        <time>1989-12-30T23:59:59Z</time>
      </trkpt>
      <trkpt lat="37.769865" lon="-2.984247">
        <ele>1281.6</ele>
        <time>1989-12-30T23:59:59Z</time>
      </trkpt>
      <trkpt lat="37.769919" lon="-2.984178">
        <ele>1274.4</ele>
        <time>1989-12-30T23:59:59Z</time>
      </trkpt>
      <trkpt lat="37.770010" lon="-2.984131">
        <ele>1273.9</ele>
        <time>1989-12-30T23:59:59Z</time>
      </trkpt>
      <trkpt lat="37.770081" lon="-2.984070">
        <ele>1272.9</ele>
        <time>1989-12-30T23:59:59Z</time>
      </trkpt>
      <trkpt lat="37.770213" lon="-2.983868">
        <ele>1280.6</ele>
        <time>1989-12-30T23:59:59Z</time>
      </trkpt>
      <trkpt lat="37.770283" lon="-2.983778">
        <ele>1282.5</ele>
        <time>1989-12-30T23:59:59Z</time>
      </trkpt>
      <trkpt lat="37.770349" lon="-2.983696">
        <ele>1282.1</ele>
        <time>1989-12-30T23:59:59Z</time>
      </trkpt>
      <trkpt lat="37.770335" lon="-2.983565">
        <ele>1286.4</ele>
        <time>1989-12-30T23:59:59Z</time>
      </trkpt>
      <trkpt lat="37.770359" lon="-2.983332">
        <ele>1290.7</ele>
        <time>1989-12-30T23:59:59Z</time>
      </trkpt>
      <trkpt lat="37.770383" lon="-2.983219">
        <ele>1293.1</ele>
        <time>1989-12-30T23:59:59Z</time>
      </trkpt>
      <trkpt lat="37.770469" lon="-2.983411">
        <ele>1297.0</ele>
        <time>1989-12-30T23:59:59Z</time>
      </trkpt>
      <trkpt lat="37.770611" lon="-2.983690">
        <ele>1297.9</ele>
        <time>1989-12-30T23:59:59Z</time>
      </trkpt>
      <trkpt lat="37.770797" lon="-2.982899">
        <ele>1312.3</ele>
        <time>1989-12-30T23:59:59Z</time>
      </trkpt>
      <trkpt lat="37.770809" lon="-2.982776">
        <ele>1311.4</ele>
        <time>1989-12-30T23:59:59Z</time>
      </trkpt>
      <trkpt lat="37.770789" lon="-2.982405">
        <ele>1315.7</ele>
        <time>1989-12-30T23:59:59Z</time>
      </trkpt>
      <trkpt lat="37.770785" lon="-2.982165">
        <ele>1315.7</ele>
        <time>1989-12-30T23:59:59Z</time>
      </trkpt>
      <trkpt lat="37.770830" lon="-2.981909">
        <ele>1317.6</ele>
        <time>1989-12-30T23:59:59Z</time>
      </trkpt>
      <trkpt lat="37.770830" lon="-2.981909">
        <ele>1317.6</ele>
        <time>1989-12-30T23:59:59Z</time>
      </trkpt>
      <trkpt lat="37.770949" lon="-2.981788">
        <ele>1314.7</ele>
        <time>1989-12-30T23:59:59Z</time>
      </trkpt>
      <trkpt lat="37.770998" lon="-2.981656">
        <ele>1313.8</ele>
        <time>1989-12-30T23:59:59Z</time>
      </trkpt>
      <trkpt lat="37.771055" lon="-2.981545">
        <ele>1313.3</ele>
        <time>1989-12-30T23:59:59Z</time>
      </trkpt>
      <trkpt lat="37.771122" lon="-2.981439">
        <ele>1312.8</ele>
        <time>1989-12-30T23:59:59Z</time>
      </trkpt>
      <trkpt lat="37.771209" lon="-2.981370">
        <ele>1312.8</ele>
        <time>1989-12-30T23:59:59Z</time>
      </trkpt>
      <trkpt lat="37.771313" lon="-2.981296">
        <ele>1313.3</ele>
        <time>1989-12-30T23:59:59Z</time>
      </trkpt>
      <trkpt lat="37.771412" lon="-2.981228">
        <ele>1313.3</ele>
        <time>1989-12-30T23:59:59Z</time>
      </trkpt>
      <trkpt lat="37.771501" lon="-2.981175">
        <ele>1313.3</ele>
        <time>1989-12-30T23:59:59Z</time>
      </trkpt>
      <trkpt lat="37.771606" lon="-2.981122">
        <ele>1311.9</ele>
        <time>1989-12-30T23:59:59Z</time>
      </trkpt>
      <trkpt lat="37.771724" lon="-2.981069">
        <ele>1309.0</ele>
        <time>1989-12-30T23:59:59Z</time>
      </trkpt>
      <trkpt lat="37.771840" lon="-2.981036">
        <ele>1307.5</ele>
        <time>1989-12-30T23:59:59Z</time>
      </trkpt>
      <trkpt lat="37.771950" lon="-2.981020">
        <ele>1304.6</ele>
        <time>1989-12-30T23:59:59Z</time>
      </trkpt>
      <trkpt lat="37.772054" lon="-2.981002">
        <ele>1301.3</ele>
        <time>1989-12-30T23:59:59Z</time>
      </trkpt>
      <trkpt lat="37.772166" lon="-2.980981">
        <ele>1298.4</ele>
        <time>1989-12-30T23:59:59Z</time>
      </trkpt>
      <trkpt lat="37.772268" lon="-2.980973">
        <ele>1297.0</ele>
        <time>1989-12-30T23:59:59Z</time>
      </trkpt>
      <trkpt lat="37.772377" lon="-2.980989">
        <ele>1295.5</ele>
        <time>1989-12-30T23:59:59Z</time>
      </trkpt>
      <trkpt lat="37.772613" lon="-2.980964">
        <ele>1289.3</ele>
        <time>1989-12-30T23:59:59Z</time>
      </trkpt>
      <trkpt lat="37.772591" lon="-2.980736">
        <ele>1285.9</ele>
        <time>1989-12-30T23:59:59Z</time>
      </trkpt>
      <trkpt lat="37.772511" lon="-2.980657">
        <ele>1284.2</ele>
        <time>1989-12-30T23:59:59Z</time>
      </trkpt>
      <trkpt lat="37.772452" lon="-2.980606">
        <ele>1282.1</ele>
        <time>1989-12-30T23:59:59Z</time>
      </trkpt>
      <trkpt lat="37.772345" lon="-2.980590">
        <ele>1280.1</ele>
        <time>1989-12-30T23:59:59Z</time>
      </trkpt>
      <trkpt lat="37.772227" lon="-2.980546">
        <ele>1278.7</ele>
        <time>1989-12-30T23:59:59Z</time>
      </trkpt>
      <trkpt lat="37.772100" lon="-2.980543">
        <ele>1274.8</ele>
        <time>1989-12-30T23:59:59Z</time>
      </trkpt>
      <trkpt lat="37.771890" lon="-2.980516">
        <ele>1276.3</ele>
        <time>1989-12-30T23:59:59Z</time>
      </trkpt>
      <trkpt lat="37.771789" lon="-2.980517">
        <ele>1272.9</ele>
        <time>1989-12-30T23:59:59Z</time>
      </trkpt>
      <trkpt lat="37.771561" lon="-2.980469">
        <ele>1272.4</ele>
        <time>1989-12-30T23:59:59Z</time>
      </trkpt>
      <trkpt lat="37.771470" lon="-2.980464">
        <ele>1271.5</ele>
        <time>1989-12-30T23:59:59Z</time>
      </trkpt>
      <trkpt lat="37.771297" lon="-2.980416">
        <ele>1264.3</ele>
        <time>1989-12-30T23:59:59Z</time>
      </trkpt>
      <trkpt lat="37.771204" lon="-2.980357">
        <ele>1265.7</ele>
        <time>1989-12-30T23:59:59Z</time>
      </trkpt>
      <trkpt lat="37.771146" lon="-2.980320">
        <ele>1260.4</ele>
        <time>1989-12-30T23:59:59Z</time>
      </trkpt>
      <trkpt lat="37.771118" lon="-2.980259">
        <ele>1258.0</ele>
        <time>1989-12-30T23:59:59Z</time>
      </trkpt>
      <trkpt lat="37.771029" lon="-2.980222">
        <ele>1258.5</ele>
        <time>1989-12-30T23:59:59Z</time>
      </trkpt>
      <trkpt lat="37.770924" lon="-2.980211">
        <ele>1258.5</ele>
        <time>1989-12-30T23:59:59Z</time>
      </trkpt>
      <trkpt lat="37.770918" lon="-2.980125">
        <ele>1258.5</ele>
        <time>1989-12-30T23:59:59Z</time>
      </trkpt>
      <trkpt lat="37.770992" lon="-2.980064">
        <ele>1258.5</ele>
        <time>1989-12-30T23:59:59Z</time>
      </trkpt>
      <trkpt lat="37.771069" lon="-2.980025">
        <ele>1258.5</ele>
        <time>1989-12-30T23:59:59Z</time>
      </trkpt>
      <trkpt lat="37.771166" lon="-2.979985">
        <ele>1250.3</ele>
        <time>1989-12-30T23:59:59Z</time>
      </trkpt>
      <trkpt lat="37.771085" lon="-2.979940">
        <ele>1250.3</ele>
        <time>1989-12-30T23:59:59Z</time>
      </trkpt>
      <trkpt lat="37.770985" lon="-2.979957">
        <ele>1250.3</ele>
        <time>1989-12-30T23:59:59Z</time>
      </trkpt>
      <trkpt lat="37.770858" lon="-2.979882">
        <ele>1251.8</ele>
        <time>1989-12-30T23:59:59Z</time>
      </trkpt>
      <trkpt lat="37.770690" lon="-2.979655">
        <ele>1247.0</ele>
        <time>1989-12-30T23:59:59Z</time>
      </trkpt>
      <trkpt lat="37.770636" lon="-2.979550">
        <ele>1247.0</ele>
        <time>1989-12-30T23:59:59Z</time>
      </trkpt>
      <trkpt lat="37.770354" lon="-2.979361">
        <ele>1250.8</ele>
        <time>1989-12-30T23:59:59Z</time>
      </trkpt>
      <trkpt lat="37.770190" lon="-2.979235">
        <ele>1250.3</ele>
        <time>1989-12-30T23:59:59Z</time>
      </trkpt>
      <trkpt lat="37.770068" lon="-2.979253">
        <ele>1252.7</ele>
        <time>1989-12-30T23:59:59Z</time>
      </trkpt>
      <trkpt lat="37.769907" lon="-2.979325">
        <ele>1244.1</ele>
        <time>1989-12-30T23:59:59Z</time>
      </trkpt>
      <trkpt lat="37.769812" lon="-2.979312">
        <ele>1247.4</ele>
        <time>1989-12-30T23:59:59Z</time>
      </trkpt>
      <trkpt lat="37.769720" lon="-2.979296">
        <ele>1250.8</ele>
        <time>1989-12-30T23:59:59Z</time>
      </trkpt>
      <trkpt lat="37.769626" lon="-2.979254">
        <ele>1252.3</ele>
        <time>1989-12-30T23:59:59Z</time>
      </trkpt>
      <trkpt lat="37.769480" lon="-2.979129">
        <ele>1252.3</ele>
        <time>1989-12-30T23:59:59Z</time>
      </trkpt>
      <trkpt lat="37.769391" lon="-2.979050">
        <ele>1259.5</ele>
        <time>1989-12-30T23:59:59Z</time>
      </trkpt>
      <trkpt lat="37.769324" lon="-2.979045">
        <ele>1242.6</ele>
        <time>1989-12-30T23:59:59Z</time>
      </trkpt>
      <trkpt lat="37.768906" lon="-2.979384">
        <ele>1247.9</ele>
        <time>1989-12-30T23:59:59Z</time>
      </trkpt>
      <trkpt lat="37.768794" lon="-2.979485">
        <ele>1252.3</ele>
        <time>1989-12-30T23:59:59Z</time>
      </trkpt>
      <trkpt lat="37.768690" lon="-2.979529">
        <ele>1252.7</ele>
        <time>1989-12-30T23:59:59Z</time>
      </trkpt>
      <trkpt lat="37.768242" lon="-2.979809">
        <ele>1271.5</ele>
        <time>1989-12-30T23:59:59Z</time>
      </trkpt>
      <trkpt lat="37.768170" lon="-2.979897">
        <ele>1271.5</ele>
        <time>1989-12-30T23:59:59Z</time>
      </trkpt>
      <trkpt lat="37.768024" lon="-2.979826">
        <ele>1281.1</ele>
        <time>1989-12-30T23:59:59Z</time>
      </trkpt>
      <trkpt lat="37.767965" lon="-2.979714">
        <ele>1286.9</ele>
        <time>1989-12-30T23:59:59Z</time>
      </trkpt>
      <trkpt lat="37.767889" lon="-2.979643">
        <ele>1292.1</ele>
        <time>1989-12-30T23:59:59Z</time>
      </trkpt>
      <trkpt lat="37.767860" lon="-2.979457">
        <ele>1295.5</ele>
        <time>1989-12-30T23:59:59Z</time>
      </trkpt>
      <trkpt lat="37.767935" lon="-2.979425">
        <ele>1298.9</ele>
        <time>1989-12-30T23:59:59Z</time>
      </trkpt>
      <trkpt lat="37.767938" lon="-2.979293">
        <ele>1306.1</ele>
        <time>1989-12-30T23:59:59Z</time>
      </trkpt>
      <trkpt lat="37.767960" lon="-2.979181">
        <ele>1308.5</ele>
        <time>1989-12-30T23:59:59Z</time>
      </trkpt>
      <trkpt lat="37.767977" lon="-2.979048">
        <ele>1313.8</ele>
        <time>1989-12-30T23:59:59Z</time>
      </trkpt>
      <trkpt lat="37.767989" lon="-2.978914">
        <ele>1307.5</ele>
        <time>1989-12-30T23:59:59Z</time>
      </trkpt>
      <trkpt lat="37.768015" lon="-2.978780">
        <ele>1311.4</ele>
        <time>1989-12-30T23:59:59Z</time>
      </trkpt>
      <trkpt lat="37.768030" lon="-2.978644">
        <ele>1312.8</ele>
        <time>1989-12-30T23:59:59Z</time>
      </trkpt>
      <trkpt lat="37.768028" lon="-2.978513">
        <ele>1312.3</ele>
        <time>1989-12-30T23:59:59Z</time>
      </trkpt>
      <trkpt lat="37.767989" lon="-2.978403">
        <ele>1312.8</ele>
        <time>1989-12-30T23:59:59Z</time>
      </trkpt>
      <trkpt lat="37.767915" lon="-2.978334">
        <ele>1313.3</ele>
        <time>1989-12-30T23:59:59Z</time>
      </trkpt>
      <trkpt lat="37.767826" lon="-2.978371">
        <ele>1317.1</ele>
        <time>1989-12-30T23:59:59Z</time>
      </trkpt>
      <trkpt lat="37.767700" lon="-2.978518">
        <ele>1306.1</ele>
        <time>1989-12-30T23:59:59Z</time>
      </trkpt>
      <trkpt lat="37.767638" lon="-2.978607">
        <ele>1307.0</ele>
        <time>1989-12-30T23:59:59Z</time>
      </trkpt>
      <trkpt lat="37.767615" lon="-2.978738">
        <ele>1309.0</ele>
        <time>1989-12-30T23:59:59Z</time>
      </trkpt>
      <trkpt lat="37.767569" lon="-2.978852">
        <ele>1311.4</ele>
        <time>1989-12-30T23:59:59Z</time>
      </trkpt>
      <trkpt lat="37.767508" lon="-2.978930">
        <ele>1310.4</ele>
        <time>1989-12-30T23:59:59Z</time>
      </trkpt>
      <trkpt lat="37.767412" lon="-2.978980">
        <ele>1310.9</ele>
        <time>1989-12-30T23:59:59Z</time>
      </trkpt>
      <trkpt lat="37.767318" lon="-2.979001">
        <ele>1310.9</ele>
        <time>1989-12-30T23:59:59Z</time>
      </trkpt>
      <trkpt lat="37.767215" lon="-2.979022">
        <ele>1310.4</ele>
        <time>1989-12-30T23:59:59Z</time>
      </trkpt>
      <trkpt lat="37.767042" lon="-2.979105">
        <ele>1311.9</ele>
        <time>1989-12-30T23:59:59Z</time>
      </trkpt>
      <trkpt lat="37.766846" lon="-2.979345">
        <ele>1316.7</ele>
        <time>1989-12-30T23:59:59Z</time>
      </trkpt>
      <trkpt lat="37.766870" lon="-2.979468">
        <ele>1319.5</ele>
        <time>1989-12-30T23:59:59Z</time>
      </trkpt>
      <trkpt lat="37.766884" lon="-2.979580">
        <ele>1321.0</ele>
        <time>1989-12-30T23:59:59Z</time>
      </trkpt>
      <trkpt lat="37.766904" lon="-2.979716">
        <ele>1326.8</ele>
        <time>1989-12-30T23:59:59Z</time>
      </trkpt>
      <trkpt lat="37.766881" lon="-2.980083">
        <ele>1332.5</ele>
        <time>1989-12-30T23:59:59Z</time>
      </trkpt>
      <trkpt lat="37.766965" lon="-2.980143">
        <ele>1335.4</ele>
        <time>1989-12-30T23:59:59Z</time>
      </trkpt>
      <trkpt lat="37.767058" lon="-2.980363">
        <ele>1334.4</ele>
        <time>1989-12-30T23:59:59Z</time>
      </trkpt>
      <trkpt lat="37.767073" lon="-2.980485">
        <ele>1334.9</ele>
        <time>1989-12-30T23:59:59Z</time>
      </trkpt>
      <trkpt lat="37.767069" lon="-2.980606">
        <ele>1337.3</ele>
        <time>1989-12-30T23:59:59Z</time>
      </trkpt>
      <trkpt lat="37.767040" lon="-2.980728">
        <ele>1338.3</ele>
        <time>1989-12-30T23:59:59Z</time>
      </trkpt>
      <trkpt lat="37.766984" lon="-2.980827">
        <ele>1340.2</ele>
        <time>1989-12-30T23:59:59Z</time>
      </trkpt>
      <trkpt lat="37.766902" lon="-2.980786">
        <ele>1342.1</ele>
        <time>1989-12-30T23:59:59Z</time>
      </trkpt>
      <trkpt lat="37.766846" lon="-2.980756">
        <ele>1340.7</ele>
        <time>1989-12-30T23:59:59Z</time>
      </trkpt>
      <trkpt lat="37.766725" lon="-2.980716">
        <ele>1349.8</ele>
        <time>1989-12-30T23:59:59Z</time>
      </trkpt>
      <trkpt lat="37.766640" lon="-2.980660">
        <ele>1349.8</ele>
        <time>1989-12-30T23:59:59Z</time>
      </trkpt>
      <trkpt lat="37.766559" lon="-2.980570">
        <ele>1363.8</ele>
        <time>1989-12-30T23:59:59Z</time>
      </trkpt>
      <trkpt lat="37.766579" lon="-2.980372">
        <ele>1347.9</ele>
        <time>1989-12-30T23:59:59Z</time>
      </trkpt>
      <trkpt lat="37.766557" lon="-2.980264">
        <ele>1347.9</ele>
        <time>1989-12-30T23:59:59Z</time>
      </trkpt>
      <trkpt lat="37.766433" lon="-2.980351">
        <ele>1349.8</ele>
        <time>1989-12-30T23:59:59Z</time>
      </trkpt>
      <trkpt lat="37.766377" lon="-2.980455">
        <ele>1350.8</ele>
        <time>1989-12-30T23:59:59Z</time>
      </trkpt>
      <trkpt lat="37.766295" lon="-2.980513">
        <ele>1351.8</ele>
        <time>1989-12-30T23:59:59Z</time>
      </trkpt>
      <trkpt lat="37.766210" lon="-2.980559">
        <ele>1352.7</ele>
        <time>1989-12-30T23:59:59Z</time>
      </trkpt>
      <trkpt lat="37.766019" lon="-2.980579">
        <ele>1353.2</ele>
        <time>1989-12-30T23:59:59Z</time>
      </trkpt>
      <trkpt lat="37.765918" lon="-2.980583">
        <ele>1354.6</ele>
        <time>1989-12-30T23:59:59Z</time>
      </trkpt>
      <trkpt lat="37.765828" lon="-2.980586">
        <ele>1354.6</ele>
        <time>1989-12-30T23:59:59Z</time>
      </trkpt>
      <trkpt lat="37.765742" lon="-2.980620">
        <ele>1357.0</ele>
        <time>1989-12-30T23:59:59Z</time>
      </trkpt>
      <trkpt lat="37.765644" lon="-2.980617">
        <ele>1357.5</ele>
        <time>1989-12-30T23:59:59Z</time>
      </trkpt>
      <trkpt lat="37.765549" lon="-2.980595">
        <ele>1360.9</ele>
        <time>1989-12-30T23:59:59Z</time>
      </trkpt>
      <trkpt lat="37.765456" lon="-2.980586">
        <ele>1362.8</ele>
        <time>1989-12-30T23:59:59Z</time>
      </trkpt>
      <trkpt lat="37.765372" lon="-2.980568">
        <ele>1363.3</ele>
        <time>1989-12-30T23:59:59Z</time>
      </trkpt>
      <trkpt lat="37.765280" lon="-2.980535">
        <ele>1363.8</ele>
        <time>1989-12-30T23:59:59Z</time>
      </trkpt>
      <trkpt lat="37.765195" lon="-2.980506">
        <ele>1364.2</ele>
        <time>1989-12-30T23:59:59Z</time>
      </trkpt>
      <trkpt lat="37.765111" lon="-2.980456">
        <ele>1365.2</ele>
        <time>1989-12-30T23:59:59Z</time>
      </trkpt>
      <trkpt lat="37.765032" lon="-2.980398">
        <ele>1365.7</ele>
        <time>1989-12-30T23:59:59Z</time>
      </trkpt>
      <trkpt lat="37.764950" lon="-2.980339">
        <ele>1365.7</ele>
        <time>1989-12-30T23:59:59Z</time>
      </trkpt>
      <trkpt lat="37.764872" lon="-2.980282">
        <ele>1365.7</ele>
        <time>1989-12-30T23:59:59Z</time>
      </trkpt>
      <trkpt lat="37.764786" lon="-2.980232">
        <ele>1365.7</ele>
        <time>1989-12-30T23:59:59Z</time>
      </trkpt>
      <trkpt lat="37.764710" lon="-2.980182">
        <ele>1366.7</ele>
        <time>1989-12-30T23:59:59Z</time>
      </trkpt>
      <trkpt lat="37.764630" lon="-2.980146">
        <ele>1370.0</ele>
        <time>1989-12-30T23:59:59Z</time>
      </trkpt>
      <trkpt lat="37.764554" lon="-2.980091">
        <ele>1371.5</ele>
        <time>1989-12-30T23:59:59Z</time>
      </trkpt>
      <trkpt lat="37.764405" lon="-2.979941">
        <ele>1371.9</ele>
        <time>1989-12-30T23:59:59Z</time>
      </trkpt>
      <trkpt lat="37.764344" lon="-2.979928">
        <ele>1383.0</ele>
        <time>1989-12-30T23:59:59Z</time>
      </trkpt>
      <trkpt lat="37.764268" lon="-2.979854">
        <ele>1379.6</ele>
        <time>1989-12-30T23:59:59Z</time>
      </trkpt>
      <trkpt lat="37.764182" lon="-2.979813">
        <ele>1380.6</ele>
        <time>1989-12-30T23:59:59Z</time>
      </trkpt>
      <trkpt lat="37.764097" lon="-2.979786">
        <ele>1383.0</ele>
        <time>1989-12-30T23:59:59Z</time>
      </trkpt>
      <trkpt lat="37.764012" lon="-2.979741">
        <ele>1384.9</ele>
        <time>1989-12-30T23:59:59Z</time>
      </trkpt>
      <trkpt lat="37.763935" lon="-2.979691">
        <ele>1386.4</ele>
        <time>1989-12-30T23:59:59Z</time>
      </trkpt>
      <trkpt lat="37.763866" lon="-2.979618">
        <ele>1386.8</ele>
        <time>1989-12-30T23:59:59Z</time>
      </trkpt>
      <trkpt lat="37.763802" lon="-2.979562">
        <ele>1387.8</ele>
        <time>1989-12-30T23:59:59Z</time>
      </trkpt>
      <trkpt lat="37.763729" lon="-2.979479">
        <ele>1387.8</ele>
        <time>1989-12-30T23:59:59Z</time>
      </trkpt>
      <trkpt lat="37.763670" lon="-2.979392">
        <ele>1388.3</ele>
        <time>1989-12-30T23:59:59Z</time>
      </trkpt>
      <trkpt lat="37.763603" lon="-2.979312">
        <ele>1388.8</ele>
        <time>1989-12-30T23:59:59Z</time>
      </trkpt>
      <trkpt lat="37.763526" lon="-2.979242">
        <ele>1390.2</ele>
        <time>1989-12-30T23:59:59Z</time>
      </trkpt>
      <trkpt lat="37.763445" lon="-2.979171">
        <ele>1390.7</ele>
        <time>1989-12-30T23:59:59Z</time>
      </trkpt>
      <trkpt lat="37.763363" lon="-2.979100">
        <ele>1391.6</ele>
        <time>1989-12-30T23:59:59Z</time>
      </trkpt>
      <trkpt lat="37.763289" lon="-2.979025">
        <ele>1391.6</ele>
        <time>1989-12-30T23:59:59Z</time>
      </trkpt>
      <trkpt lat="37.763208" lon="-2.978956">
        <ele>1393.1</ele>
        <time>1989-12-30T23:59:59Z</time>
      </trkpt>
      <trkpt lat="37.763121" lon="-2.978894">
        <ele>1393.6</ele>
        <time>1989-12-30T23:59:59Z</time>
      </trkpt>
      <trkpt lat="37.763041" lon="-2.978825">
        <ele>1396.5</ele>
        <time>1989-12-30T23:59:59Z</time>
      </trkpt>
      <trkpt lat="37.762966" lon="-2.978764">
        <ele>1398.9</ele>
        <time>1989-12-30T23:59:59Z</time>
      </trkpt>
      <trkpt lat="37.762893" lon="-2.978692">
        <ele>1400.3</ele>
        <time>1989-12-30T23:59:59Z</time>
      </trkpt>
      <trkpt lat="37.762813" lon="-2.978622">
        <ele>1402.7</ele>
        <time>1989-12-30T23:59:59Z</time>
      </trkpt>
      <trkpt lat="37.762737" lon="-2.978559">
        <ele>1403.2</ele>
        <time>1989-12-30T23:59:59Z</time>
      </trkpt>
      <trkpt lat="37.762666" lon="-2.978495">
        <ele>1405.6</ele>
        <time>1989-12-30T23:59:59Z</time>
      </trkpt>
      <trkpt lat="37.762590" lon="-2.978422">
        <ele>1406.5</ele>
        <time>1989-12-30T23:59:59Z</time>
      </trkpt>
      <trkpt lat="37.762521" lon="-2.978340">
        <ele>1405.6</ele>
        <time>1989-12-30T23:59:59Z</time>
      </trkpt>
      <trkpt lat="37.762449" lon="-2.978272">
        <ele>1407.0</ele>
        <time>1989-12-30T23:59:59Z</time>
      </trkpt>
      <trkpt lat="37.762402" lon="-2.978176">
        <ele>1408.0</ele>
        <time>1989-12-30T23:59:59Z</time>
      </trkpt>
      <trkpt lat="37.762369" lon="-2.978067">
        <ele>1408.5</ele>
        <time>1989-12-30T23:59:59Z</time>
      </trkpt>
      <trkpt lat="37.762352" lon="-2.977944">
        <ele>1408.5</ele>
        <time>1989-12-30T23:59:59Z</time>
      </trkpt>
      <trkpt lat="37.762361" lon="-2.977829">
        <ele>1408.0</ele>
        <time>1989-12-30T23:59:59Z</time>
      </trkpt>
      <trkpt lat="37.762365" lon="-2.977714">
        <ele>1408.9</ele>
        <time>1989-12-30T23:59:59Z</time>
      </trkpt>
      <trkpt lat="37.762371" lon="-2.977586">
        <ele>1409.4</ele>
        <time>1989-12-30T23:59:59Z</time>
      </trkpt>
      <trkpt lat="37.762368" lon="-2.977463">
        <ele>1410.4</ele>
        <time>1989-12-30T23:59:59Z</time>
      </trkpt>
      <trkpt lat="37.762374" lon="-2.977337">
        <ele>1410.9</ele>
        <time>1989-12-30T23:59:59Z</time>
      </trkpt>
      <trkpt lat="37.762384" lon="-2.977212">
        <ele>1412.3</ele>
        <time>1989-12-30T23:59:59Z</time>
      </trkpt>
      <trkpt lat="37.762383" lon="-2.977087">
        <ele>1412.8</ele>
        <time>1989-12-30T23:59:59Z</time>
      </trkpt>
      <trkpt lat="37.762377" lon="-2.976968">
        <ele>1412.8</ele>
        <time>1989-12-30T23:59:59Z</time>
      </trkpt>
      <trkpt lat="37.762368" lon="-2.976847">
        <ele>1413.3</ele>
        <time>1989-12-30T23:59:59Z</time>
      </trkpt>
      <trkpt lat="37.762363" lon="-2.976731">
        <ele>1413.3</ele>
        <time>1989-12-30T23:59:59Z</time>
      </trkpt>
      <trkpt lat="37.762350" lon="-2.976605">
        <ele>1413.8</ele>
        <time>1989-12-30T23:59:59Z</time>
      </trkpt>
      <trkpt lat="37.762358" lon="-2.976490">
        <ele>1413.8</ele>
        <time>1989-12-30T23:59:59Z</time>
      </trkpt>
      <trkpt lat="37.762368" lon="-2.976368">
        <ele>1413.8</ele>
        <time>1989-12-30T23:59:59Z</time>
      </trkpt>
      <trkpt lat="37.762390" lon="-2.976248">
        <ele>1414.7</ele>
        <time>1989-12-30T23:59:59Z</time>
      </trkpt>
      <trkpt lat="37.762414" lon="-2.976128">
        <ele>1414.7</ele>
        <time>1989-12-30T23:59:59Z</time>
      </trkpt>
      <trkpt lat="37.762425" lon="-2.976005">
        <ele>1415.2</ele>
        <time>1989-12-30T23:59:59Z</time>
      </trkpt>
      <trkpt lat="37.762431" lon="-2.975887">
        <ele>1415.2</ele>
        <time>1989-12-30T23:59:59Z</time>
      </trkpt>
      <trkpt lat="37.762433" lon="-2.975764">
        <ele>1415.7</ele>
        <time>1989-12-30T23:59:59Z</time>
      </trkpt>
      <trkpt lat="37.762444" lon="-2.975502">
        <ele>1416.2</ele>
        <time>1989-12-30T23:59:59Z</time>
      </trkpt>
      <trkpt lat="37.762453" lon="-2.975372">
        <ele>1416.2</ele>
        <time>1989-12-30T23:59:59Z</time>
      </trkpt>
      <trkpt lat="37.762451" lon="-2.975252">
        <ele>1416.2</ele>
        <time>1989-12-30T23:59:59Z</time>
      </trkpt>
      <trkpt lat="37.762407" lon="-2.975148">
        <ele>1416.6</ele>
        <time>1989-12-30T23:59:59Z</time>
      </trkpt>
      <trkpt lat="37.762326" lon="-2.975069">
        <ele>1420.5</ele>
        <time>1989-12-30T23:59:59Z</time>
      </trkpt>
      <trkpt lat="37.762273" lon="-2.975013">
        <ele>1417.1</ele>
        <time>1989-12-30T23:59:59Z</time>
      </trkpt>
      <trkpt lat="37.762180" lon="-2.974955">
        <ele>1410.4</ele>
        <time>1989-12-30T23:59:59Z</time>
      </trkpt>
      <trkpt lat="37.762145" lon="-2.974867">
        <ele>1412.3</ele>
        <time>1989-12-30T23:59:59Z</time>
      </trkpt>
      <trkpt lat="37.762173" lon="-2.974763">
        <ele>1412.8</ele>
        <time>1989-12-30T23:59:59Z</time>
      </trkpt>
      <trkpt lat="37.762182" lon="-2.974630">
        <ele>1416.2</ele>
        <time>1989-12-30T23:59:59Z</time>
      </trkpt>
      <trkpt lat="37.762203" lon="-2.974506">
        <ele>1419.0</ele>
        <time>1989-12-30T23:59:59Z</time>
      </trkpt>
      <trkpt lat="37.762235" lon="-2.974400">
        <ele>1421.0</ele>
        <time>1989-12-30T23:59:59Z</time>
      </trkpt>
      <trkpt lat="37.762280" lon="-2.974293">
        <ele>1421.9</ele>
        <time>1989-12-30T23:59:59Z</time>
      </trkpt>
      <trkpt lat="37.762328" lon="-2.974190">
        <ele>1423.8</ele>
        <time>1989-12-30T23:59:59Z</time>
      </trkpt>
      <trkpt lat="37.762396" lon="-2.974103">
        <ele>1425.3</ele>
        <time>1989-12-30T23:59:59Z</time>
      </trkpt>
      <trkpt lat="37.762478" lon="-2.974017">
        <ele>1425.8</ele>
        <time>1989-12-30T23:59:59Z</time>
      </trkpt>
      <trkpt lat="37.762513" lon="-2.973914">
        <ele>1424.8</ele>
        <time>1989-12-30T23:59:59Z</time>
      </trkpt>
      <trkpt lat="37.762505" lon="-2.973794">
        <ele>1425.3</ele>
        <time>1989-12-30T23:59:59Z</time>
      </trkpt>
      <trkpt lat="37.762505" lon="-2.973667">
        <ele>1426.7</ele>
        <time>1989-12-30T23:59:59Z</time>
      </trkpt>
      <trkpt lat="37.762416" lon="-2.973348">
        <ele>1427.7</ele>
        <time>1989-12-30T23:59:59Z</time>
      </trkpt>
      <trkpt lat="37.762327" lon="-2.973232">
        <ele>1429.6</ele>
        <time>1989-12-30T23:59:59Z</time>
      </trkpt>
      <trkpt lat="37.762250" lon="-2.973121">
        <ele>1429.1</ele>
        <time>1989-12-30T23:59:59Z</time>
      </trkpt>
      <trkpt lat="37.762158" lon="-2.973041">
        <ele>1430.6</ele>
        <time>1989-12-30T23:59:59Z</time>
      </trkpt>
      <trkpt lat="37.762060" lon="-2.972976">
        <ele>1436.3</ele>
        <time>1989-12-30T23:59:59Z</time>
      </trkpt>
      <trkpt lat="37.761973" lon="-2.972917">
        <ele>1434.9</ele>
        <time>1989-12-30T23:59:59Z</time>
      </trkpt>
      <trkpt lat="37.761885" lon="-2.972875">
        <ele>1433.5</ele>
        <time>1989-12-30T23:59:59Z</time>
      </trkpt>
      <trkpt lat="37.761791" lon="-2.972848">
        <ele>1433.0</ele>
        <time>1989-12-30T23:59:59Z</time>
      </trkpt>
      <trkpt lat="37.761603" lon="-2.972765">
        <ele>1432.5</ele>
        <time>1989-12-30T23:59:59Z</time>
      </trkpt>
      <trkpt lat="37.761502" lon="-2.972753">
        <ele>1431.1</ele>
        <time>1989-12-30T23:59:59Z</time>
      </trkpt>
      <trkpt lat="37.761404" lon="-2.972760">
        <ele>1430.6</ele>
        <time>1989-12-30T23:59:59Z</time>
      </trkpt>
      <trkpt lat="37.761311" lon="-2.972722">
        <ele>1430.6</ele>
        <time>1989-12-30T23:59:59Z</time>
      </trkpt>
      <trkpt lat="37.761183" lon="-2.972723">
        <ele>1433.9</ele>
        <time>1989-12-30T23:59:59Z</time>
      </trkpt>
      <trkpt lat="37.761076" lon="-2.972721">
        <ele>1433.9</ele>
        <time>1989-12-30T23:59:59Z</time>
      </trkpt>
      <trkpt lat="37.760976" lon="-2.972733">
        <ele>1436.3</ele>
        <time>1989-12-30T23:59:59Z</time>
      </trkpt>
      <trkpt lat="37.760786" lon="-2.972741">
        <ele>1441.2</ele>
        <time>1989-12-30T23:59:59Z</time>
      </trkpt>
      <trkpt lat="37.760764" lon="-2.972677">
        <ele>1446.4</ele>
        <time>1989-12-30T23:59:59Z</time>
      </trkpt>
      <trkpt lat="37.760784" lon="-2.972651">
        <ele>1458.0</ele>
        <time>1989-12-30T23:59:59Z</time>
      </trkpt>
      <trkpt lat="37.761017" lon="-2.972551">
        <ele>1457.5</ele>
        <time>1989-12-30T23:59:59Z</time>
      </trkpt>
      <trkpt lat="37.761103" lon="-2.972488">
        <ele>1458.5</ele>
        <time>1989-12-30T23:59:59Z</time>
      </trkpt>
      <trkpt lat="37.761333" lon="-2.972344">
        <ele>1462.3</ele>
        <time>1989-12-30T23:59:59Z</time>
      </trkpt>
      <trkpt lat="37.761751" lon="-2.972362">
        <ele>1466.1</ele>
        <time>1989-12-30T23:59:59Z</time>
      </trkpt>
      <trkpt lat="37.761836" lon="-2.972320">
        <ele>1466.6</ele>
        <time>1989-12-30T23:59:59Z</time>
      </trkpt>
      <trkpt lat="37.761898" lon="-2.972296">
        <ele>1467.1</ele>
        <time>1989-12-30T23:59:59Z</time>
      </trkpt>
      <trkpt lat="37.762090" lon="-2.972159">
        <ele>1471.0</ele>
        <time>1989-12-30T23:59:59Z</time>
      </trkpt>
      <trkpt lat="37.761979" lon="-2.972072">
        <ele>1471.9</ele>
        <time>1989-12-30T23:59:59Z</time>
      </trkpt>
      <trkpt lat="37.761727" lon="-2.972009">
        <ele>1476.7</ele>
        <time>1989-12-30T23:59:59Z</time>
      </trkpt>
      <trkpt lat="37.761606" lon="-2.971987">
        <ele>1478.2</ele>
        <time>1989-12-30T23:59:59Z</time>
      </trkpt>
      <trkpt lat="37.761504" lon="-2.971956">
        <ele>1477.7</ele>
        <time>1989-12-30T23:59:59Z</time>
      </trkpt>
      <trkpt lat="37.761423" lon="-2.971873">
        <ele>1481.5</ele>
        <time>1989-12-30T23:59:59Z</time>
      </trkpt>
      <trkpt lat="37.761509" lon="-2.971560">
        <ele>1482.5</ele>
        <time>1989-12-30T23:59:59Z</time>
      </trkpt>
      <trkpt lat="37.761617" lon="-2.971546">
        <ele>1483.5</ele>
        <time>1989-12-30T23:59:59Z</time>
      </trkpt>
      <trkpt lat="37.761727" lon="-2.971542">
        <ele>1484.4</ele>
        <time>1989-12-30T23:59:59Z</time>
      </trkpt>
      <trkpt lat="37.761839" lon="-2.971551">
        <ele>1485.4</ele>
        <time>1989-12-30T23:59:59Z</time>
      </trkpt>
      <trkpt lat="37.761937" lon="-2.971536">
        <ele>1486.3</ele>
        <time>1989-12-30T23:59:59Z</time>
      </trkpt>
      <trkpt lat="37.762027" lon="-2.971499">
        <ele>1486.3</ele>
        <time>1989-12-30T23:59:59Z</time>
      </trkpt>
      <trkpt lat="37.762128" lon="-2.971460">
        <ele>1485.9</ele>
        <time>1989-12-30T23:59:59Z</time>
      </trkpt>
      <trkpt lat="37.762296" lon="-2.971376">
        <ele>1489.7</ele>
        <time>1989-12-30T23:59:59Z</time>
      </trkpt>
      <trkpt lat="37.762389" lon="-2.971319">
        <ele>1489.7</ele>
        <time>1989-12-30T23:59:59Z</time>
      </trkpt>
      <trkpt lat="37.762484" lon="-2.971279">
        <ele>1490.7</ele>
        <time>1989-12-30T23:59:59Z</time>
      </trkpt>
      <trkpt lat="37.762683" lon="-2.971248">
        <ele>1489.7</ele>
        <time>1989-12-30T23:59:59Z</time>
      </trkpt>
      <trkpt lat="37.762763" lon="-2.971201">
        <ele>1489.2</ele>
        <time>1989-12-30T23:59:59Z</time>
      </trkpt>
      <trkpt lat="37.762924" lon="-2.971131">
        <ele>1490.2</ele>
        <time>1989-12-30T23:59:59Z</time>
      </trkpt>
      <trkpt lat="37.763302" lon="-2.970995">
        <ele>1492.1</ele>
        <time>1989-12-30T23:59:59Z</time>
      </trkpt>
      <trkpt lat="37.763600" lon="-2.970842">
        <ele>1490.2</ele>
        <time>1989-12-30T23:59:59Z</time>
      </trkpt>
      <trkpt lat="37.763829" lon="-2.970836">
        <ele>1490.2</ele>
        <time>1989-12-30T23:59:59Z</time>
      </trkpt>
      <trkpt lat="37.764109" lon="-2.970546">
        <ele>1494.5</ele>
        <time>1989-12-30T23:59:59Z</time>
      </trkpt>
      <trkpt lat="37.764186" lon="-2.970505">
        <ele>1502.7</ele>
        <time>1989-12-30T23:59:59Z</time>
      </trkpt>
      <trkpt lat="37.764313" lon="-2.970489">
        <ele>1504.6</ele>
        <time>1989-12-30T23:59:59Z</time>
      </trkpt>
      <trkpt lat="37.764419" lon="-2.970498">
        <ele>1505.1</ele>
        <time>1989-12-30T23:59:59Z</time>
      </trkpt>
      <trkpt lat="37.764514" lon="-2.970532">
        <ele>1504.6</ele>
        <time>1989-12-30T23:59:59Z</time>
      </trkpt>
      <trkpt lat="37.764770" lon="-2.970547">
        <ele>1506.5</ele>
        <time>1989-12-30T23:59:59Z</time>
      </trkpt>
      <trkpt lat="37.765138" lon="-2.970564">
        <ele>1505.1</ele>
        <time>1989-12-30T23:59:59Z</time>
      </trkpt>
      <trkpt lat="37.765378" lon="-2.970543">
        <ele>1506.0</ele>
        <time>1989-12-30T23:59:59Z</time>
      </trkpt>
      <trkpt lat="37.765641" lon="-2.970431">
        <ele>1506.0</ele>
        <time>1989-12-30T23:59:59Z</time>
      </trkpt>
      <trkpt lat="37.765883" lon="-2.970321">
        <ele>1508.0</ele>
        <time>1989-12-30T23:59:59Z</time>
      </trkpt>
      <trkpt lat="37.766054" lon="-2.970200">
        <ele>1511.3</ele>
        <time>1989-12-30T23:59:59Z</time>
      </trkpt>
      <trkpt lat="37.766209" lon="-2.969864">
        <ele>1520.5</ele>
        <time>1989-12-30T23:59:59Z</time>
      </trkpt>
      <trkpt lat="37.766275" lon="-2.969785">
        <ele>1520.5</ele>
        <time>1989-12-30T23:59:59Z</time>
      </trkpt>
      <trkpt lat="37.766364" lon="-2.969722">
        <ele>1518.1</ele>
        <time>1989-12-30T23:59:59Z</time>
      </trkpt>
      <trkpt lat="37.766455" lon="-2.969647">
        <ele>1517.6</ele>
        <time>1989-12-30T23:59:59Z</time>
      </trkpt>
      <trkpt lat="37.766543" lon="-2.969577">
        <ele>1519.5</ele>
        <time>1989-12-30T23:59:59Z</time>
      </trkpt>
      <trkpt lat="37.766626" lon="-2.969503">
        <ele>1520.5</ele>
        <time>1989-12-30T23:59:59Z</time>
      </trkpt>
      <trkpt lat="37.766707" lon="-2.969433">
        <ele>1520.5</ele>
        <time>1989-12-30T23:59:59Z</time>
      </trkpt>
      <trkpt lat="37.766783" lon="-2.969372">
        <ele>1520.5</ele>
        <time>1989-12-30T23:59:59Z</time>
      </trkpt>
      <trkpt lat="37.766915" lon="-2.969176">
        <ele>1521.4</ele>
        <time>1989-12-30T23:59:59Z</time>
      </trkpt>
      <trkpt lat="37.766981" lon="-2.969097">
        <ele>1520.9</ele>
        <time>1989-12-30T23:59:59Z</time>
      </trkpt>
      <trkpt lat="37.767046" lon="-2.969025">
        <ele>1521.9</ele>
        <time>1989-12-30T23:59:59Z</time>
      </trkpt>
      <trkpt lat="37.767164" lon="-2.968840">
        <ele>1523.3</ele>
        <time>1989-12-30T23:59:59Z</time>
      </trkpt>
      <trkpt lat="37.767336" lon="-2.968664">
        <ele>1524.3</ele>
        <time>1989-12-30T23:59:59Z</time>
      </trkpt>
      <trkpt lat="37.767527" lon="-2.968487">
        <ele>1524.3</ele>
        <time>1989-12-30T23:59:59Z</time>
      </trkpt>
      <trkpt lat="37.767600" lon="-2.968378">
        <ele>1524.3</ele>
        <time>1989-12-30T23:59:59Z</time>
      </trkpt>
      <trkpt lat="37.767651" lon="-2.968252">
        <ele>1523.8</ele>
        <time>1989-12-30T23:59:59Z</time>
      </trkpt>
      <trkpt lat="37.767691" lon="-2.968125">
        <ele>1523.3</ele>
        <time>1989-12-30T23:59:59Z</time>
      </trkpt>
      <trkpt lat="37.767743" lon="-2.968012">
        <ele>1522.9</ele>
        <time>1989-12-30T23:59:59Z</time>
      </trkpt>
      <trkpt lat="37.767814" lon="-2.967896">
        <ele>1522.4</ele>
        <time>1989-12-30T23:59:59Z</time>
      </trkpt>
      <trkpt lat="37.767886" lon="-2.967795">
        <ele>1521.9</ele>
        <time>1989-12-30T23:59:59Z</time>
      </trkpt>
      <trkpt lat="37.767942" lon="-2.967689">
        <ele>1521.9</ele>
        <time>1989-12-30T23:59:59Z</time>
      </trkpt>
      <trkpt lat="37.767996" lon="-2.967582">
        <ele>1521.4</ele>
        <time>1989-12-30T23:59:59Z</time>
      </trkpt>
      <trkpt lat="37.768007" lon="-2.967342">
        <ele>1520.9</ele>
        <time>1989-12-30T23:59:59Z</time>
      </trkpt>
      <trkpt lat="37.768008" lon="-2.967207">
        <ele>1519.0</ele>
        <time>1989-12-30T23:59:59Z</time>
      </trkpt>
      <trkpt lat="37.768026" lon="-2.967084">
        <ele>1518.5</ele>
        <time>1989-12-30T23:59:59Z</time>
      </trkpt>
      <trkpt lat="37.768057" lon="-2.966962">
        <ele>1518.5</ele>
        <time>1989-12-30T23:59:59Z</time>
      </trkpt>
      <trkpt lat="37.768089" lon="-2.966830">
        <ele>1519.0</ele>
        <time>1989-12-30T23:59:59Z</time>
      </trkpt>
      <trkpt lat="37.768111" lon="-2.966708">
        <ele>1517.6</ele>
        <time>1989-12-30T23:59:59Z</time>
      </trkpt>
      <trkpt lat="37.768142" lon="-2.966600">
        <ele>1517.6</ele>
        <time>1989-12-30T23:59:59Z</time>
      </trkpt>
      <trkpt lat="37.768170" lon="-2.966485">
        <ele>1515.2</ele>
        <time>1989-12-30T23:59:59Z</time>
      </trkpt>
      <trkpt lat="37.768189" lon="-2.966361">
        <ele>1516.1</ele>
        <time>1989-12-30T23:59:59Z</time>
      </trkpt>
      <trkpt lat="37.768198" lon="-2.966246">
        <ele>1517.6</ele>
        <time>1989-12-30T23:59:59Z</time>
      </trkpt>
      <trkpt lat="37.768211" lon="-2.966140">
        <ele>1517.6</ele>
        <time>1989-12-30T23:59:59Z</time>
      </trkpt>
      <trkpt lat="37.768229" lon="-2.966009">
        <ele>1517.6</ele>
        <time>1989-12-30T23:59:59Z</time>
      </trkpt>
      <trkpt lat="37.768243" lon="-2.965890">
        <ele>1516.6</ele>
        <time>1989-12-30T23:59:59Z</time>
      </trkpt>
      <trkpt lat="37.768199" lon="-2.965785">
        <ele>1516.6</ele>
        <time>1989-12-30T23:59:59Z</time>
      </trkpt>
      <trkpt lat="37.767610" lon="-2.966469">
        <ele>1516.6</ele>
        <time>1989-12-30T23:59:59Z</time>
      </trkpt>
      <trkpt lat="37.767003" lon="-2.966944">
        <ele>1516.1</ele>
        <time>1989-12-30T23:59:59Z</time>
      </trkpt>
      <trkpt lat="37.766634" lon="-2.967274">
        <ele>1517.1</ele>
        <time>1989-12-30T23:59:59Z</time>
      </trkpt>
      <trkpt lat="37.765823" lon="-2.967544">
        <ele>1520.5</ele>
        <time>1989-12-30T23:59:59Z</time>
      </trkpt>
      <trkpt lat="37.765734" lon="-2.967511">
        <ele>1521.4</ele>
        <time>1989-12-30T23:59:59Z</time>
      </trkpt>
      <trkpt lat="37.765646" lon="-2.967481">
        <ele>1522.9</ele>
        <time>1989-12-30T23:59:59Z</time>
      </trkpt>
      <trkpt lat="37.765551" lon="-2.967452">
        <ele>1523.8</ele>
        <time>1989-12-30T23:59:59Z</time>
      </trkpt>
      <trkpt lat="37.765417" lon="-2.967302">
        <ele>1522.9</ele>
        <time>1989-12-30T23:59:59Z</time>
      </trkpt>
      <trkpt lat="37.765317" lon="-2.967276">
        <ele>1525.7</ele>
        <time>1989-12-30T23:59:59Z</time>
      </trkpt>
      <trkpt lat="37.765112" lon="-2.967246">
        <ele>1526.7</ele>
        <time>1989-12-30T23:59:59Z</time>
      </trkpt>
      <trkpt lat="37.765015" lon="-2.967221">
        <ele>1526.7</ele>
        <time>1989-12-30T23:59:59Z</time>
      </trkpt>
      <trkpt lat="37.764824" lon="-2.967160">
        <ele>1528.6</ele>
        <time>1989-12-30T23:59:59Z</time>
      </trkpt>
      <trkpt lat="37.764732" lon="-2.967102">
        <ele>1531.5</ele>
        <time>1989-12-30T23:59:59Z</time>
      </trkpt>
      <trkpt lat="37.764479" lon="-2.966932">
        <ele>1532.5</ele>
        <time>1989-12-30T23:59:59Z</time>
      </trkpt>
      <trkpt lat="37.764215" lon="-2.966851">
        <ele>1532.0</ele>
        <time>1989-12-30T23:59:59Z</time>
      </trkpt>
      <trkpt lat="37.764089" lon="-2.966967">
        <ele>1542.1</ele>
        <time>1989-12-30T23:59:59Z</time>
      </trkpt>
      <trkpt lat="37.763959" lon="-2.966971">
        <ele>1543.1</ele>
        <time>1989-12-30T23:59:59Z</time>
      </trkpt>
      <trkpt lat="37.763860" lon="-2.966993">
        <ele>1543.5</ele>
        <time>1989-12-30T23:59:59Z</time>
      </trkpt>
      <trkpt lat="37.763755" lon="-2.967002">
        <ele>1542.1</ele>
        <time>1989-12-30T23:59:59Z</time>
      </trkpt>
      <trkpt lat="37.763644" lon="-2.966970">
        <ele>1542.1</ele>
        <time>1989-12-30T23:59:59Z</time>
      </trkpt>
      <trkpt lat="37.763540" lon="-2.966945">
        <ele>1543.1</ele>
        <time>1989-12-30T23:59:59Z</time>
      </trkpt>
      <trkpt lat="37.763446" lon="-2.966914">
        <ele>1543.5</ele>
        <time>1989-12-30T23:59:59Z</time>
      </trkpt>
      <trkpt lat="37.763343" lon="-2.966876">
        <ele>1543.5</ele>
        <time>1989-12-30T23:59:59Z</time>
      </trkpt>
      <trkpt lat="37.763255" lon="-2.966831">
        <ele>1543.5</ele>
        <time>1989-12-30T23:59:59Z</time>
      </trkpt>
      <trkpt lat="37.763186" lon="-2.966761">
        <ele>1544.5</ele>
        <time>1989-12-30T23:59:59Z</time>
      </trkpt>
      <trkpt lat="37.763183" lon="-2.966674">
        <ele>1547.4</ele>
        <time>1989-12-30T23:59:59Z</time>
      </trkpt>
      <trkpt lat="37.763352" lon="-2.966549">
        <ele>1549.3</ele>
        <time>1989-12-30T23:59:59Z</time>
      </trkpt>
      <trkpt lat="37.763470" lon="-2.966515">
        <ele>1550.7</ele>
        <time>1989-12-30T23:59:59Z</time>
      </trkpt>
      <trkpt lat="37.763557" lon="-2.966472">
        <ele>1550.7</ele>
        <time>1989-12-30T23:59:59Z</time>
      </trkpt>
      <trkpt lat="37.763646" lon="-2.966421">
        <ele>1551.2</ele>
        <time>1989-12-30T23:59:59Z</time>
      </trkpt>
      <trkpt lat="37.763724" lon="-2.966337">
        <ele>1551.2</ele>
        <time>1989-12-30T23:59:59Z</time>
      </trkpt>
      <trkpt lat="37.763798" lon="-2.966250">
        <ele>1551.2</ele>
        <time>1989-12-30T23:59:59Z</time>
      </trkpt>
      <trkpt lat="37.763892" lon="-2.966040">
        <ele>1551.2</ele>
        <time>1989-12-30T23:59:59Z</time>
      </trkpt>
      <trkpt lat="37.763939" lon="-2.965937">
        <ele>1551.2</ele>
        <time>1989-12-30T23:59:59Z</time>
      </trkpt>
      <trkpt lat="37.764004" lon="-2.965844">
        <ele>1551.2</ele>
        <time>1989-12-30T23:59:59Z</time>
      </trkpt>
      <trkpt lat="37.764081" lon="-2.965757">
        <ele>1551.2</ele>
        <time>1989-12-30T23:59:59Z</time>
      </trkpt>
      <trkpt lat="37.764117" lon="-2.965637">
        <ele>1551.2</ele>
        <time>1989-12-30T23:59:59Z</time>
      </trkpt>
      <trkpt lat="37.764130" lon="-2.965513">
        <ele>1550.7</ele>
        <time>1989-12-30T23:59:59Z</time>
      </trkpt>
      <trkpt lat="37.764117" lon="-2.965379">
        <ele>1550.7</ele>
        <time>1989-12-30T23:59:59Z</time>
      </trkpt>
      <trkpt lat="37.764061" lon="-2.965275">
        <ele>1550.7</ele>
        <time>1989-12-30T23:59:59Z</time>
      </trkpt>
      <trkpt lat="37.764021" lon="-2.965169">
        <ele>1550.7</ele>
        <time>1989-12-30T23:59:59Z</time>
      </trkpt>
      <trkpt lat="37.763986" lon="-2.965045">
        <ele>1554.1</ele>
        <time>1989-12-30T23:59:59Z</time>
      </trkpt>
      <trkpt lat="37.763951" lon="-2.964925">
        <ele>1558.0</ele>
        <time>1989-12-30T23:59:59Z</time>
      </trkpt>
      <trkpt lat="37.763933" lon="-2.964798">
        <ele>1558.9</ele>
        <time>1989-12-30T23:59:59Z</time>
      </trkpt>
      <trkpt lat="37.763915" lon="-2.964690">
        <ele>1558.9</ele>
        <time>1989-12-30T23:59:59Z</time>
      </trkpt>
      <trkpt lat="37.763849" lon="-2.964599">
        <ele>1558.9</ele>
        <time>1989-12-30T23:59:59Z</time>
      </trkpt>
      <trkpt lat="37.763783" lon="-2.964521">
        <ele>1558.9</ele>
        <time>1989-12-30T23:59:59Z</time>
      </trkpt>
      <trkpt lat="37.763705" lon="-2.964454">
        <ele>1560.8</ele>
        <time>1989-12-30T23:59:59Z</time>
      </trkpt>
      <trkpt lat="37.763626" lon="-2.964398">
        <ele>1560.8</ele>
        <time>1989-12-30T23:59:59Z</time>
      </trkpt>
      <trkpt lat="37.763543" lon="-2.964323">
        <ele>1562.8</ele>
        <time>1989-12-30T23:59:59Z</time>
      </trkpt>
      <trkpt lat="37.763451" lon="-2.964295">
        <ele>1566.1</ele>
        <time>1989-12-30T23:59:59Z</time>
      </trkpt>
      <trkpt lat="37.763352" lon="-2.964314">
        <ele>1568.5</ele>
        <time>1989-12-30T23:59:59Z</time>
      </trkpt>
      <trkpt lat="37.763244" lon="-2.964368">
        <ele>1572.4</ele>
        <time>1989-12-30T23:59:59Z</time>
      </trkpt>
      <trkpt lat="37.763148" lon="-2.964378">
        <ele>1574.3</ele>
        <time>1989-12-30T23:59:59Z</time>
      </trkpt>
      <trkpt lat="37.763057" lon="-2.964325">
        <ele>1574.8</ele>
        <time>1989-12-30T23:59:59Z</time>
      </trkpt>
      <trkpt lat="37.762966" lon="-2.964292">
        <ele>1575.7</ele>
        <time>1989-12-30T23:59:59Z</time>
      </trkpt>
      <trkpt lat="37.762886" lon="-2.964240">
        <ele>1576.7</ele>
        <time>1989-12-30T23:59:59Z</time>
      </trkpt>
      <trkpt lat="37.762800" lon="-2.964185">
        <ele>1577.7</ele>
        <time>1989-12-30T23:59:59Z</time>
      </trkpt>
      <trkpt lat="37.762707" lon="-2.964130">
        <ele>1578.6</ele>
        <time>1989-12-30T23:59:59Z</time>
      </trkpt>
      <trkpt lat="37.762621" lon="-2.964074">
        <ele>1580.1</ele>
        <time>1989-12-30T23:59:59Z</time>
      </trkpt>
      <trkpt lat="37.762551" lon="-2.963994">
        <ele>1582.0</ele>
        <time>1989-12-30T23:59:59Z</time>
      </trkpt>
      <trkpt lat="37.762497" lon="-2.963896">
        <ele>1582.9</ele>
        <time>1989-12-30T23:59:59Z</time>
      </trkpt>
      <trkpt lat="37.762470" lon="-2.963774">
        <ele>1585.4</ele>
        <time>1989-12-30T23:59:59Z</time>
      </trkpt>
      <trkpt lat="37.762433" lon="-2.963643">
        <ele>1583.4</ele>
        <time>1989-12-30T23:59:59Z</time>
      </trkpt>
      <trkpt lat="37.762404" lon="-2.963521">
        <ele>1584.9</ele>
        <time>1989-12-30T23:59:59Z</time>
      </trkpt>
      <trkpt lat="37.762378" lon="-2.963414">
        <ele>1585.8</ele>
        <time>1989-12-30T23:59:59Z</time>
      </trkpt>
      <trkpt lat="37.762350" lon="-2.963306">
        <ele>1586.8</ele>
        <time>1989-12-30T23:59:59Z</time>
      </trkpt>
      <trkpt lat="37.762317" lon="-2.963196">
        <ele>1586.8</ele>
        <time>1989-12-30T23:59:59Z</time>
      </trkpt>
      <trkpt lat="37.762265" lon="-2.963088">
        <ele>1586.3</ele>
        <time>1989-12-30T23:59:59Z</time>
      </trkpt>
      <trkpt lat="37.762215" lon="-2.962992">
        <ele>1586.8</ele>
        <time>1989-12-30T23:59:59Z</time>
      </trkpt>
      <trkpt lat="37.762169" lon="-2.962896">
        <ele>1587.3</ele>
        <time>1989-12-30T23:59:59Z</time>
      </trkpt>
      <trkpt lat="37.762113" lon="-2.962794">
        <ele>1588.2</ele>
        <time>1989-12-30T23:59:59Z</time>
      </trkpt>
      <trkpt lat="37.762055" lon="-2.962689">
        <ele>1588.7</ele>
        <time>1989-12-30T23:59:59Z</time>
      </trkpt>
      <trkpt lat="37.761998" lon="-2.962598">
        <ele>1588.7</ele>
        <time>1989-12-30T23:59:59Z</time>
      </trkpt>
      <trkpt lat="37.761930" lon="-2.962506">
        <ele>1588.7</ele>
        <time>1989-12-30T23:59:59Z</time>
      </trkpt>
      <trkpt lat="37.761865" lon="-2.962425">
        <ele>1588.7</ele>
        <time>1989-12-30T23:59:59Z</time>
      </trkpt>
      <trkpt lat="37.761800" lon="-2.962334">
        <ele>1589.7</ele>
        <time>1989-12-30T23:59:59Z</time>
      </trkpt>
      <trkpt lat="37.761729" lon="-2.962243">
        <ele>1589.7</ele>
        <time>1989-12-30T23:59:59Z</time>
      </trkpt>
      <trkpt lat="37.761669" lon="-2.962161">
        <ele>1588.7</ele>
        <time>1989-12-30T23:59:59Z</time>
      </trkpt>
      <trkpt lat="37.761604" lon="-2.962083">
        <ele>1589.2</ele>
        <time>1989-12-30T23:59:59Z</time>
      </trkpt>
      <trkpt lat="37.761525" lon="-2.962015">
        <ele>1588.7</ele>
        <time>1989-12-30T23:59:59Z</time>
      </trkpt>
      <trkpt lat="37.761449" lon="-2.961943">
        <ele>1590.2</ele>
        <time>1989-12-30T23:59:59Z</time>
      </trkpt>
      <trkpt lat="37.761367" lon="-2.961875">
        <ele>1591.1</ele>
        <time>1989-12-30T23:59:59Z</time>
      </trkpt>
      <trkpt lat="37.761283" lon="-2.961814">
        <ele>1591.6</ele>
        <time>1989-12-30T23:59:59Z</time>
      </trkpt>
      <trkpt lat="37.761200" lon="-2.961745">
        <ele>1592.6</ele>
        <time>1989-12-30T23:59:59Z</time>
      </trkpt>
      <trkpt lat="37.761121" lon="-2.961672">
        <ele>1593.0</ele>
        <time>1989-12-30T23:59:59Z</time>
      </trkpt>
      <trkpt lat="37.761044" lon="-2.961592">
        <ele>1594.0</ele>
        <time>1989-12-30T23:59:59Z</time>
      </trkpt>
      <trkpt lat="37.760980" lon="-2.961505">
        <ele>1594.5</ele>
        <time>1989-12-30T23:59:59Z</time>
      </trkpt>
      <trkpt lat="37.760934" lon="-2.961401">
        <ele>1594.0</ele>
        <time>1989-12-30T23:59:59Z</time>
      </trkpt>
      <trkpt lat="37.760931" lon="-2.961280">
        <ele>1594.0</ele>
        <time>1989-12-30T23:59:59Z</time>
      </trkpt>
      <trkpt lat="37.760932" lon="-2.961166">
        <ele>1592.6</ele>
        <time>1989-12-30T23:59:59Z</time>
      </trkpt>
      <trkpt lat="37.760931" lon="-2.961038">
        <ele>1593.0</ele>
        <time>1989-12-30T23:59:59Z</time>
      </trkpt>
      <trkpt lat="37.760938" lon="-2.960918">
        <ele>1592.6</ele>
        <time>1989-12-30T23:59:59Z</time>
      </trkpt>
      <trkpt lat="37.760963" lon="-2.960812">
        <ele>1591.1</ele>
        <time>1989-12-30T23:59:59Z</time>
      </trkpt>
      <trkpt lat="37.761000" lon="-2.960709">
        <ele>1590.6</ele>
        <time>1989-12-30T23:59:59Z</time>
      </trkpt>
      <trkpt lat="37.761048" lon="-2.960604">
        <ele>1591.1</ele>
        <time>1989-12-30T23:59:59Z</time>
      </trkpt>
      <trkpt lat="37.761109" lon="-2.960505">
        <ele>1592.1</ele>
        <time>1989-12-30T23:59:59Z</time>
      </trkpt>
      <trkpt lat="37.761176" lon="-2.960424">
        <ele>1592.6</ele>
        <time>1989-12-30T23:59:59Z</time>
      </trkpt>
      <trkpt lat="37.761216" lon="-2.960319">
        <ele>1591.1</ele>
        <time>1989-12-30T23:59:59Z</time>
      </trkpt>
      <trkpt lat="37.761240" lon="-2.960210">
        <ele>1592.1</ele>
        <time>1989-12-30T23:59:59Z</time>
      </trkpt>
      <trkpt lat="37.761267" lon="-2.960092">
        <ele>1592.1</ele>
        <time>1989-12-30T23:59:59Z</time>
      </trkpt>
      <trkpt lat="37.761308" lon="-2.959983">
        <ele>1592.1</ele>
        <time>1989-12-30T23:59:59Z</time>
      </trkpt>
      <trkpt lat="37.761369" lon="-2.959893">
        <ele>1590.2</ele>
        <time>1989-12-30T23:59:59Z</time>
      </trkpt>
      <trkpt lat="37.761438" lon="-2.959815">
        <ele>1588.2</ele>
        <time>1989-12-30T23:59:59Z</time>
      </trkpt>
      <trkpt lat="37.761519" lon="-2.959748">
        <ele>1587.8</ele>
        <time>1989-12-30T23:59:59Z</time>
      </trkpt>
      <trkpt lat="37.761601" lon="-2.959702">
        <ele>1585.4</ele>
        <time>1989-12-30T23:59:59Z</time>
      </trkpt>
      <trkpt lat="37.761689" lon="-2.959642">
        <ele>1586.8</ele>
        <time>1989-12-30T23:59:59Z</time>
      </trkpt>
      <trkpt lat="37.761783" lon="-2.959624">
        <ele>1585.8</ele>
        <time>1989-12-30T23:59:59Z</time>
      </trkpt>
      <trkpt lat="37.761880" lon="-2.959542">
        <ele>1582.0</ele>
        <time>1989-12-30T23:59:59Z</time>
      </trkpt>
      <trkpt lat="37.761955" lon="-2.959523">
        <ele>1581.6</ele>
        <time>1989-12-30T23:59:59Z</time>
      </trkpt>
      <trkpt lat="37.761955" lon="-2.959523">
        <ele>1581.6</ele>
        <time>1989-12-30T23:59:59Z</time>
      </trkpt>
      <trkpt lat="37.762387" lon="-2.959420">
        <ele>1581.8</ele>
        <time>1989-12-30T23:59:59Z</time>
      </trkpt>
      <trkpt lat="37.762577" lon="-2.959329">
        <ele>1581.8</ele>
        <time>1989-12-30T23:59:59Z</time>
      </trkpt>
      <trkpt lat="37.762730" lon="-2.959159">
        <ele>1581.8</ele>
        <time>1989-12-30T23:59:59Z</time>
      </trkpt>
      <trkpt lat="37.762845" lon="-2.958956">
        <ele>1583.4</ele>
        <time>1989-12-30T23:59:59Z</time>
      </trkpt>
      <trkpt lat="37.763036" lon="-2.958686">
        <ele>1582.5</ele>
        <time>1989-12-30T23:59:59Z</time>
      </trkpt>
      <trkpt lat="37.763285" lon="-2.958543">
        <ele>1581.5</ele>
        <time>1989-12-30T23:59:59Z</time>
      </trkpt>
      <trkpt lat="37.763477" lon="-2.958532">
        <ele>1579.6</ele>
        <time>1989-12-30T23:59:59Z</time>
      </trkpt>
      <trkpt lat="37.763568" lon="-2.958515">
        <ele>1575.7</ele>
        <time>1989-12-30T23:59:59Z</time>
      </trkpt>
      <trkpt lat="37.763879" lon="-2.958357">
        <ele>1572.4</ele>
        <time>1989-12-30T23:59:59Z</time>
      </trkpt>
      <trkpt lat="37.763991" lon="-2.958318">
        <ele>1570.9</ele>
        <time>1989-12-30T23:59:59Z</time>
      </trkpt>
      <trkpt lat="37.764105" lon="-2.958293">
        <ele>1570.9</ele>
        <time>1989-12-30T23:59:59Z</time>
      </trkpt>
      <trkpt lat="37.764306" lon="-2.958285">
        <ele>1570.0</ele>
        <time>1989-12-30T23:59:59Z</time>
      </trkpt>
      <trkpt lat="37.764344" lon="-2.958195">
        <ele>1569.0</ele>
        <time>1989-12-30T23:59:59Z</time>
      </trkpt>
      <trkpt lat="37.764156" lon="-2.958039">
        <ele>1568.0</ele>
        <time>1989-12-30T23:59:59Z</time>
      </trkpt>
      <trkpt lat="37.763941" lon="-2.957937">
        <ele>1567.6</ele>
        <time>1989-12-30T23:59:59Z</time>
      </trkpt>
      <trkpt lat="37.763667" lon="-2.957741">
        <ele>1567.1</ele>
        <time>1989-12-30T23:59:59Z</time>
      </trkpt>
      <trkpt lat="37.763374" lon="-2.957628">
        <ele>1565.6</ele>
        <time>1989-12-30T23:59:59Z</time>
      </trkpt>
      <trkpt lat="37.763298" lon="-2.957560">
        <ele>1564.7</ele>
        <time>1989-12-30T23:59:59Z</time>
      </trkpt>
      <trkpt lat="37.763242" lon="-2.957468">
        <ele>1563.7</ele>
        <time>1989-12-30T23:59:59Z</time>
      </trkpt>
      <trkpt lat="37.763182" lon="-2.957378">
        <ele>1560.4</ele>
        <time>1989-12-30T23:59:59Z</time>
      </trkpt>
      <trkpt lat="37.763043" lon="-2.957234">
        <ele>1558.0</ele>
        <time>1989-12-30T23:59:59Z</time>
      </trkpt>
      <trkpt lat="37.762985" lon="-2.957127">
        <ele>1557.5</ele>
        <time>1989-12-30T23:59:59Z</time>
      </trkpt>
      <trkpt lat="37.762910" lon="-2.956786">
        <ele>1546.9</ele>
        <time>1989-12-30T23:59:59Z</time>
      </trkpt>
      <trkpt lat="37.762933" lon="-2.956550">
        <ele>1544.0</ele>
        <time>1989-12-30T23:59:59Z</time>
      </trkpt>
      <trkpt lat="37.763071" lon="-2.956228">
        <ele>1538.7</ele>
        <time>1989-12-30T23:59:59Z</time>
      </trkpt>
      <trkpt lat="37.763246" lon="-2.955779">
        <ele>1537.8</ele>
        <time>1989-12-30T23:59:59Z</time>
      </trkpt>
      <trkpt lat="37.763321" lon="-2.955433">
        <ele>1535.8</ele>
        <time>1989-12-30T23:59:59Z</time>
      </trkpt>
      <trkpt lat="37.763327" lon="-2.955314">
        <ele>1535.4</ele>
        <time>1989-12-30T23:59:59Z</time>
      </trkpt>
      <trkpt lat="37.763293" lon="-2.955199">
        <ele>1535.4</ele>
        <time>1989-12-30T23:59:59Z</time>
      </trkpt>
      <trkpt lat="37.763205" lon="-2.954986">
        <ele>1530.1</ele>
        <time>1989-12-30T23:59:59Z</time>
      </trkpt>
      <trkpt lat="37.763177" lon="-2.954861">
        <ele>1531.5</ele>
        <time>1989-12-30T23:59:59Z</time>
      </trkpt>
      <trkpt lat="37.763153" lon="-2.954723">
        <ele>1524.8</ele>
        <time>1989-12-30T23:59:59Z</time>
      </trkpt>
      <trkpt lat="37.763170" lon="-2.954618">
        <ele>1522.4</ele>
        <time>1989-12-30T23:59:59Z</time>
      </trkpt>
      <trkpt lat="37.763239" lon="-2.954526">
        <ele>1520.0</ele>
        <time>1989-12-30T23:59:59Z</time>
      </trkpt>
      <trkpt lat="37.763284" lon="-2.954419">
        <ele>1521.4</ele>
        <time>1989-12-30T23:59:59Z</time>
      </trkpt>
      <trkpt lat="37.763406" lon="-2.954234">
        <ele>1520.9</ele>
        <time>1989-12-30T23:59:59Z</time>
      </trkpt>
      <trkpt lat="37.763503" lon="-2.954186">
        <ele>1522.4</ele>
        <time>1989-12-30T23:59:59Z</time>
      </trkpt>
      <trkpt lat="37.763806" lon="-2.954246">
        <ele>1524.3</ele>
        <time>1989-12-30T23:59:59Z</time>
      </trkpt>
      <trkpt lat="37.763887" lon="-2.954227">
        <ele>1525.3</ele>
        <time>1989-12-30T23:59:59Z</time>
      </trkpt>
      <trkpt lat="37.764286" lon="-2.954212">
        <ele>1530.6</ele>
        <time>1989-12-30T23:59:59Z</time>
      </trkpt>
      <trkpt lat="37.764403" lon="-2.954134">
        <ele>1533.9</ele>
        <time>1989-12-30T23:59:59Z</time>
      </trkpt>
      <trkpt lat="37.764575" lon="-2.954034">
        <ele>1529.1</ele>
        <time>1989-12-30T23:59:59Z</time>
      </trkpt>
      <trkpt lat="37.764677" lon="-2.953982">
        <ele>1527.7</ele>
        <time>1989-12-30T23:59:59Z</time>
      </trkpt>
      <trkpt lat="37.764751" lon="-2.953914">
        <ele>1526.7</ele>
        <time>1989-12-30T23:59:59Z</time>
      </trkpt>
      <trkpt lat="37.764837" lon="-2.953869">
        <ele>1523.8</ele>
        <time>1989-12-30T23:59:59Z</time>
      </trkpt>
      <trkpt lat="37.764909" lon="-2.953803">
        <ele>1522.9</ele>
        <time>1989-12-30T23:59:59Z</time>
      </trkpt>
      <trkpt lat="37.765032" lon="-2.953620">
        <ele>1521.9</ele>
        <time>1989-12-30T23:59:59Z</time>
      </trkpt>
      <trkpt lat="37.765134" lon="-2.953433">
        <ele>1518.1</ele>
        <time>1989-12-30T23:59:59Z</time>
      </trkpt>
      <trkpt lat="37.765223" lon="-2.953223">
        <ele>1516.6</ele>
        <time>1989-12-30T23:59:59Z</time>
      </trkpt>
      <trkpt lat="37.765241" lon="-2.953106">
        <ele>1515.7</ele>
        <time>1989-12-30T23:59:59Z</time>
      </trkpt>
      <trkpt lat="37.765157" lon="-2.953100">
        <ele>1512.3</ele>
        <time>1989-12-30T23:59:59Z</time>
      </trkpt>
      <trkpt lat="37.764683" lon="-2.953184">
        <ele>1503.2</ele>
        <time>1989-12-30T23:59:59Z</time>
      </trkpt>
      <trkpt lat="37.764595" lon="-2.953177">
        <ele>1500.3</ele>
        <time>1989-12-30T23:59:59Z</time>
      </trkpt>
      <trkpt lat="37.764317" lon="-2.953136">
        <ele>1495.9</ele>
        <time>1989-12-30T23:59:59Z</time>
      </trkpt>
      <trkpt lat="37.764144" lon="-2.953050">
        <ele>1493.1</ele>
        <time>1989-12-30T23:59:59Z</time>
      </trkpt>
      <trkpt lat="37.763992" lon="-2.952902">
        <ele>1491.6</ele>
        <time>1989-12-30T23:59:59Z</time>
      </trkpt>
      <trkpt lat="37.763916" lon="-2.952809">
        <ele>1489.2</ele>
        <time>1989-12-30T23:59:59Z</time>
      </trkpt>
      <trkpt lat="37.763776" lon="-2.952640">
        <ele>1487.8</ele>
        <time>1989-12-30T23:59:59Z</time>
      </trkpt>
      <trkpt lat="37.763636" lon="-2.952483">
        <ele>1483.5</ele>
        <time>1989-12-30T23:59:59Z</time>
      </trkpt>
      <trkpt lat="37.763504" lon="-2.952289">
        <ele>1481.0</ele>
        <time>1989-12-30T23:59:59Z</time>
      </trkpt>
      <trkpt lat="37.763400" lon="-2.952213">
        <ele>1480.1</ele>
        <time>1989-12-30T23:59:59Z</time>
      </trkpt>
      <trkpt lat="37.763343" lon="-2.952118">
        <ele>1479.1</ele>
        <time>1989-12-30T23:59:59Z</time>
      </trkpt>
      <trkpt lat="37.763336" lon="-2.952081">
        <ele>1473.8</ele>
        <time>1989-12-30T23:59:59Z</time>
      </trkpt>
      <trkpt lat="37.763105" lon="-2.951815">
        <ele>1469.5</ele>
        <time>1989-12-30T23:59:59Z</time>
      </trkpt>
      <trkpt lat="37.762936" lon="-2.951680">
        <ele>1467.1</ele>
        <time>1989-12-30T23:59:59Z</time>
      </trkpt>
      <trkpt lat="37.762489" lon="-2.951453">
        <ele>1458.9</ele>
        <time>1989-12-30T23:59:59Z</time>
      </trkpt>
      <trkpt lat="37.762394" lon="-2.951427">
        <ele>1458.9</ele>
        <time>1989-12-30T23:59:59Z</time>
      </trkpt>
      <trkpt lat="37.762015" lon="-2.951361">
        <ele>1453.2</ele>
        <time>1989-12-30T23:59:59Z</time>
      </trkpt>
      <trkpt lat="37.761929" lon="-2.951379">
        <ele>1456.5</ele>
        <time>1989-12-30T23:59:59Z</time>
      </trkpt>
      <trkpt lat="37.761756" lon="-2.951342">
        <ele>1452.7</ele>
        <time>1989-12-30T23:59:59Z</time>
      </trkpt>
      <trkpt lat="37.761583" lon="-2.951190">
        <ele>1448.4</ele>
        <time>1989-12-30T23:59:59Z</time>
      </trkpt>
      <trkpt lat="37.761552" lon="-2.951080">
        <ele>1447.9</ele>
        <time>1989-12-30T23:59:59Z</time>
      </trkpt>
      <trkpt lat="37.761662" lon="-2.950890">
        <ele>1447.4</ele>
        <time>1989-12-30T23:59:59Z</time>
      </trkpt>
      <trkpt lat="37.761738" lon="-2.950798">
        <ele>1444.5</ele>
        <time>1989-12-30T23:59:59Z</time>
      </trkpt>
      <trkpt lat="37.761832" lon="-2.950741">
        <ele>1443.1</ele>
        <time>1989-12-30T23:59:59Z</time>
      </trkpt>
      <trkpt lat="37.761944" lon="-2.950568">
        <ele>1438.8</ele>
        <time>1989-12-30T23:59:59Z</time>
      </trkpt>
      <trkpt lat="37.762106" lon="-2.950437">
        <ele>1436.3</ele>
        <time>1989-12-30T23:59:59Z</time>
      </trkpt>
      <trkpt lat="37.762173" lon="-2.950341">
        <ele>1435.9</ele>
        <time>1989-12-30T23:59:59Z</time>
      </trkpt>
      <trkpt lat="37.762248" lon="-2.950124">
        <ele>1434.9</ele>
        <time>1989-12-30T23:59:59Z</time>
      </trkpt>
      <trkpt lat="37.762293" lon="-2.949913">
        <ele>1432.5</ele>
        <time>1989-12-30T23:59:59Z</time>
      </trkpt>
      <trkpt lat="37.762288" lon="-2.949775">
        <ele>1433.5</ele>
        <time>1989-12-30T23:59:59Z</time>
      </trkpt>
      <trkpt lat="37.762342" lon="-2.949453">
        <ele>1425.3</ele>
        <time>1989-12-30T23:59:59Z</time>
      </trkpt>
      <trkpt lat="37.762479" lon="-2.949324">
        <ele>1419.5</ele>
        <time>1989-12-30T23:59:59Z</time>
      </trkpt>
      <trkpt lat="37.762598" lon="-2.949127">
        <ele>1420.5</ele>
        <time>1989-12-30T23:59:59Z</time>
      </trkpt>
      <trkpt lat="37.762704" lon="-2.948958">
        <ele>1415.7</ele>
        <time>1989-12-30T23:59:59Z</time>
      </trkpt>
      <trkpt lat="37.762778" lon="-2.948891">
        <ele>1415.7</ele>
        <time>1989-12-30T23:59:59Z</time>
      </trkpt>
      <trkpt lat="37.762863" lon="-2.948863">
        <ele>1412.3</ele>
        <time>1989-12-30T23:59:59Z</time>
      </trkpt>
      <trkpt lat="37.763063" lon="-2.948842">
        <ele>1403.7</ele>
        <time>1989-12-30T23:59:59Z</time>
      </trkpt>
      <trkpt lat="37.763146" lon="-2.948794">
        <ele>1403.7</ele>
        <time>1989-12-30T23:59:59Z</time>
      </trkpt>
      <trkpt lat="37.763613" lon="-2.948810">
        <ele>1391.2</ele>
        <time>1989-12-30T23:59:59Z</time>
      </trkpt>
      <trkpt lat="37.763696" lon="-2.948774">
        <ele>1385.4</ele>
        <time>1989-12-30T23:59:59Z</time>
      </trkpt>
      <trkpt lat="37.763780" lon="-2.948721">
        <ele>1384.0</ele>
        <time>1989-12-30T23:59:59Z</time>
      </trkpt>
      <trkpt lat="37.763900" lon="-2.948549">
        <ele>1383.0</ele>
        <time>1989-12-30T23:59:59Z</time>
      </trkpt>
      <trkpt lat="37.763971" lon="-2.948496">
        <ele>1380.1</ele>
        <time>1989-12-30T23:59:59Z</time>
      </trkpt>
      <trkpt lat="37.764169" lon="-2.948232">
        <ele>1377.7</ele>
        <time>1989-12-30T23:59:59Z</time>
      </trkpt>
      <trkpt lat="37.764318" lon="-2.947941">
        <ele>1373.4</ele>
        <time>1989-12-30T23:59:59Z</time>
      </trkpt>
      <trkpt lat="37.764383" lon="-2.947873">
        <ele>1367.6</ele>
        <time>1989-12-30T23:59:59Z</time>
      </trkpt>
      <trkpt lat="37.764425" lon="-2.947750">
        <ele>1368.1</ele>
        <time>1989-12-30T23:59:59Z</time>
      </trkpt>
      <trkpt lat="37.764735" lon="-2.947504">
        <ele>1368.1</ele>
        <time>1989-12-30T23:59:59Z</time>
      </trkpt>
      <trkpt lat="37.764788" lon="-2.947438">
        <ele>1366.7</ele>
        <time>1989-12-30T23:59:59Z</time>
      </trkpt>
      <trkpt lat="37.764933" lon="-2.947347">
        <ele>1363.8</ele>
        <time>1989-12-30T23:59:59Z</time>
      </trkpt>
      <trkpt lat="37.764983" lon="-2.947250">
        <ele>1361.4</ele>
        <time>1989-12-30T23:59:59Z</time>
      </trkpt>
      <trkpt lat="37.765113" lon="-2.947090">
        <ele>1357.5</ele>
        <time>1989-12-30T23:59:59Z</time>
      </trkpt>
      <trkpt lat="37.765230" lon="-2.946921">
        <ele>1356.1</ele>
        <time>1989-12-30T23:59:59Z</time>
      </trkpt>
      <trkpt lat="37.765400" lon="-2.946859">
        <ele>1348.9</ele>
        <time>1989-12-30T23:59:59Z</time>
      </trkpt>
      <trkpt lat="37.765575" lon="-2.946724">
        <ele>1346.5</ele>
        <time>1989-12-30T23:59:59Z</time>
      </trkpt>
      <trkpt lat="37.765751" lon="-2.946662">
        <ele>1342.1</ele>
        <time>1989-12-30T23:59:59Z</time>
      </trkpt>
      <trkpt lat="37.765908" lon="-2.946516">
        <ele>1341.7</ele>
        <time>1989-12-30T23:59:59Z</time>
      </trkpt>
      <trkpt lat="37.766295" lon="-2.946194">
        <ele>1334.0</ele>
        <time>1989-12-30T23:59:59Z</time>
      </trkpt>
      <trkpt lat="37.766441" lon="-2.945762">
        <ele>1329.2</ele>
        <time>1989-12-30T23:59:59Z</time>
      </trkpt>
      <trkpt lat="37.766482" lon="-2.945665">
        <ele>1326.3</ele>
        <time>1989-12-30T23:59:59Z</time>
      </trkpt>
      <trkpt lat="37.766561" lon="-2.945596">
        <ele>1324.4</ele>
        <time>1989-12-30T23:59:59Z</time>
      </trkpt>
      <trkpt lat="37.766671" lon="-2.945402">
        <ele>1320.5</ele>
        <time>1989-12-30T23:59:59Z</time>
      </trkpt>
      <trkpt lat="37.766738" lon="-2.945326">
        <ele>1318.6</ele>
        <time>1989-12-30T23:59:59Z</time>
      </trkpt>
      <trkpt lat="37.766822" lon="-2.945273">
        <ele>1318.6</ele>
        <time>1989-12-30T23:59:59Z</time>
      </trkpt>
      <trkpt lat="37.766901" lon="-2.945252">
        <ele>1315.2</ele>
        <time>1989-12-30T23:59:59Z</time>
      </trkpt>
      <trkpt lat="37.766961" lon="-2.945137">
        <ele>1314.3</ele>
        <time>1989-12-30T23:59:59Z</time>
      </trkpt>
      <trkpt lat="37.767189" lon="-2.944985">
        <ele>1307.5</ele>
        <time>1989-12-30T23:59:59Z</time>
      </trkpt>
      <trkpt lat="37.767272" lon="-2.944916">
        <ele>1304.2</ele>
        <time>1989-12-30T23:59:59Z</time>
      </trkpt>
      <trkpt lat="37.767338" lon="-2.944868">
        <ele>1297.4</ele>
        <time>1989-12-30T23:59:59Z</time>
      </trkpt>
      <trkpt lat="37.767475" lon="-2.944723">
        <ele>1289.3</ele>
        <time>1989-12-30T23:59:59Z</time>
      </trkpt>
      <trkpt lat="37.767595" lon="-2.944558">
        <ele>1284.5</ele>
        <time>1989-12-30T23:59:59Z</time>
      </trkpt>
      <trkpt lat="37.767675" lon="-2.944591">
        <ele>1282.5</ele>
        <time>1989-12-30T23:59:59Z</time>
      </trkpt>
      <trkpt lat="37.767802" lon="-2.944736">
        <ele>1280.6</ele>
        <time>1989-12-30T23:59:59Z</time>
      </trkpt>
      <trkpt lat="37.767841" lon="-2.944845">
        <ele>1276.8</ele>
        <time>1989-12-30T23:59:59Z</time>
      </trkpt>
      <trkpt lat="37.768218" lon="-2.945096">
        <ele>1276.8</ele>
        <time>1989-12-30T23:59:59Z</time>
      </trkpt>
      <trkpt lat="37.768293" lon="-2.945173">
        <ele>1276.3</ele>
        <time>1989-12-30T23:59:59Z</time>
      </trkpt>
      <trkpt lat="37.768344" lon="-2.945282">
        <ele>1276.3</ele>
        <time>1989-12-30T23:59:59Z</time>
      </trkpt>
      <trkpt lat="37.768426" lon="-2.945506">
        <ele>1277.2</ele>
        <time>1989-12-30T23:59:59Z</time>
      </trkpt>
      <trkpt lat="37.768516" lon="-2.945530">
        <ele>1277.7</ele>
        <time>1989-12-30T23:59:59Z</time>
      </trkpt>
      <trkpt lat="37.768660" lon="-2.945216">
        <ele>1274.4</ele>
        <time>1989-12-30T23:59:59Z</time>
      </trkpt>
      <trkpt lat="37.768670" lon="-2.944727">
        <ele>1275.8</ele>
        <time>1989-12-30T23:59:59Z</time>
      </trkpt>
      <trkpt lat="37.768758" lon="-2.944507">
        <ele>1277.7</ele>
        <time>1989-12-30T23:59:59Z</time>
      </trkpt>
      <trkpt lat="37.768823" lon="-2.944428">
        <ele>1278.2</ele>
        <time>1989-12-30T23:59:59Z</time>
      </trkpt>
      <trkpt lat="37.768993" lon="-2.944129">
        <ele>1280.6</ele>
        <time>1989-12-30T23:59:59Z</time>
      </trkpt>
      <trkpt lat="37.769037" lon="-2.944074">
        <ele>1277.7</ele>
        <time>1989-12-30T23:59:59Z</time>
      </trkpt>
      <trkpt lat="37.769189" lon="-2.943943">
        <ele>1281.6</ele>
        <time>1989-12-30T23:59:59Z</time>
      </trkpt>
      <trkpt lat="37.769267" lon="-2.943882">
        <ele>1280.1</ele>
        <time>1989-12-30T23:59:59Z</time>
      </trkpt>
      <trkpt lat="37.769396" lon="-2.943703">
        <ele>1278.7</ele>
        <time>1989-12-30T23:59:59Z</time>
      </trkpt>
      <trkpt lat="37.769474" lon="-2.943511">
        <ele>1274.4</ele>
        <time>1989-12-30T23:59:59Z</time>
      </trkpt>
      <trkpt lat="37.769523" lon="-2.943161">
        <ele>1269.6</ele>
        <time>1989-12-30T23:59:59Z</time>
      </trkpt>
      <trkpt lat="37.769492" lon="-2.942939">
        <ele>1262.3</ele>
        <time>1989-12-30T23:59:59Z</time>
      </trkpt>
      <trkpt lat="37.769498" lon="-2.942683">
        <ele>1258.5</ele>
        <time>1989-12-30T23:59:59Z</time>
      </trkpt>
      <trkpt lat="37.769587" lon="-2.942460">
        <ele>1255.1</ele>
        <time>1989-12-30T23:59:59Z</time>
      </trkpt>
      <trkpt lat="37.769716" lon="-2.942287">
        <ele>1250.3</ele>
        <time>1989-12-30T23:59:59Z</time>
      </trkpt>
      <trkpt lat="37.769817" lon="-2.942124">
        <ele>1242.6</ele>
        <time>1989-12-30T23:59:59Z</time>
      </trkpt>
      <trkpt lat="37.770112" lon="-2.941846">
        <ele>1236.4</ele>
        <time>1989-12-30T23:59:59Z</time>
      </trkpt>
      <trkpt lat="37.770352" lon="-2.941637">
        <ele>1234.5</ele>
        <time>1989-12-30T23:59:59Z</time>
      </trkpt>
      <trkpt lat="37.770534" lon="-2.941549">
        <ele>1233.5</ele>
        <time>1989-12-30T23:59:59Z</time>
      </trkpt>
      <trkpt lat="37.770710" lon="-2.941469">
        <ele>1230.6</ele>
        <time>1989-12-30T23:59:59Z</time>
      </trkpt>
      <trkpt lat="37.770800" lon="-2.941464">
        <ele>1228.7</ele>
        <time>1989-12-30T23:59:59Z</time>
      </trkpt>
      <trkpt lat="37.770886" lon="-2.941498">
        <ele>1224.9</ele>
        <time>1989-12-30T23:59:59Z</time>
      </trkpt>
      <trkpt lat="37.770962" lon="-2.941472">
        <ele>1221.0</ele>
        <time>1989-12-30T23:59:59Z</time>
      </trkpt>
      <trkpt lat="37.770955" lon="-2.941352">
        <ele>1220.1</ele>
        <time>1989-12-30T23:59:59Z</time>
      </trkpt>
      <trkpt lat="37.770925" lon="-2.941242">
        <ele>1220.5</ele>
        <time>1989-12-30T23:59:59Z</time>
      </trkpt>
      <trkpt lat="37.770896" lon="-2.941014">
        <ele>1216.2</ele>
        <time>1989-12-30T23:59:59Z</time>
      </trkpt>
      <trkpt lat="37.770887" lon="-2.940791">
        <ele>1215.2</ele>
        <time>1989-12-30T23:59:59Z</time>
      </trkpt>
      <trkpt lat="37.770854" lon="-2.940701">
        <ele>1213.3</ele>
        <time>1989-12-30T23:59:59Z</time>
      </trkpt>
      <trkpt lat="37.770894" lon="-2.940512">
        <ele>1208.5</ele>
        <time>1989-12-30T23:59:59Z</time>
      </trkpt>
      <trkpt lat="37.770876" lon="-2.940406">
        <ele>1206.6</ele>
        <time>1989-12-30T23:59:59Z</time>
      </trkpt>
      <trkpt lat="37.770820" lon="-2.940337">
        <ele>1207.1</ele>
        <time>1989-12-30T23:59:59Z</time>
      </trkpt>
      <trkpt lat="37.770747" lon="-2.940295">
        <ele>1203.7</ele>
        <time>1989-12-30T23:59:59Z</time>
      </trkpt>
      <trkpt lat="37.770662" lon="-2.940377">
        <ele>1200.3</ele>
        <time>1989-12-30T23:59:59Z</time>
      </trkpt>
      <trkpt lat="37.770509" lon="-2.940525">
        <ele>1197.0</ele>
        <time>1989-12-30T23:59:59Z</time>
      </trkpt>
      <trkpt lat="37.770420" lon="-2.940542">
        <ele>1195.1</ele>
        <time>1989-12-30T23:59:59Z</time>
      </trkpt>
      <trkpt lat="37.770333" lon="-2.940530">
        <ele>1189.8</ele>
        <time>1989-12-30T23:59:59Z</time>
      </trkpt>
      <trkpt lat="37.770250" lon="-2.940469">
        <ele>1189.8</ele>
        <time>1989-12-30T23:59:59Z</time>
      </trkpt>
      <trkpt lat="37.770073" lon="-2.940379">
        <ele>1187.4</ele>
        <time>1989-12-30T23:59:59Z</time>
      </trkpt>
      <trkpt lat="37.769882" lon="-2.940324">
        <ele>1185.9</ele>
        <time>1989-12-30T23:59:59Z</time>
      </trkpt>
      <trkpt lat="37.769538" lon="-2.940118">
        <ele>1181.6</ele>
        <time>1989-12-30T23:59:59Z</time>
      </trkpt>
      <trkpt lat="37.769263" lon="-2.940069">
        <ele>1176.8</ele>
        <time>1989-12-30T23:59:59Z</time>
      </trkpt>
      <trkpt lat="37.769205" lon="-2.940006">
        <ele>1175.3</ele>
        <time>1989-12-30T23:59:59Z</time>
      </trkpt>
      <trkpt lat="37.769248" lon="-2.939895">
        <ele>1173.9</ele>
        <time>1989-12-30T23:59:59Z</time>
      </trkpt>
      <trkpt lat="37.769585" lon="-2.939677">
        <ele>1170.1</ele>
        <time>1989-12-30T23:59:59Z</time>
      </trkpt>
      <trkpt lat="37.769626" lon="-2.939578">
        <ele>1170.1</ele>
        <time>1989-12-30T23:59:59Z</time>
      </trkpt>
      <trkpt lat="37.769668" lon="-2.939551">
        <ele>1167.2</ele>
        <time>1989-12-30T23:59:59Z</time>
      </trkpt>
      <trkpt lat="37.769529" lon="-2.939326">
        <ele>1168.1</ele>
        <time>1989-12-30T23:59:59Z</time>
      </trkpt>
      <trkpt lat="37.769247" lon="-2.939262">
        <ele>1162.4</ele>
        <time>1989-12-30T23:59:59Z</time>
      </trkpt>
      <trkpt lat="37.768966" lon="-2.939161">
        <ele>1159.0</ele>
        <time>1989-12-30T23:59:59Z</time>
      </trkpt>
      <trkpt lat="37.768880" lon="-2.939147">
        <ele>1155.6</ele>
        <time>1989-12-30T23:59:59Z</time>
      </trkpt>
      <trkpt lat="37.768684" lon="-2.939143">
        <ele>1156.6</ele>
        <time>1989-12-30T23:59:59Z</time>
      </trkpt>
      <trkpt lat="37.768604" lon="-2.939100">
        <ele>1154.7</ele>
        <time>1989-12-30T23:59:59Z</time>
      </trkpt>
      <trkpt lat="37.768495" lon="-2.938905">
        <ele>1152.8</ele>
        <time>1989-12-30T23:59:59Z</time>
      </trkpt>
      <trkpt lat="37.768425" lon="-2.938815">
        <ele>1152.8</ele>
        <time>1989-12-30T23:59:59Z</time>
      </trkpt>
      <trkpt lat="37.768302" lon="-2.938793">
        <ele>1151.3</ele>
        <time>1989-12-30T23:59:59Z</time>
      </trkpt>
      <trkpt lat="37.768230" lon="-2.938729">
        <ele>1148.4</ele>
        <time>1989-12-30T23:59:59Z</time>
      </trkpt>
      <trkpt lat="37.768097" lon="-2.938415">
        <ele>1145.5</ele>
        <time>1989-12-30T23:59:59Z</time>
      </trkpt>
      <trkpt lat="37.768059" lon="-2.938359">
        <ele>1143.1</ele>
        <time>1989-12-30T23:59:59Z</time>
      </trkpt>
      <trkpt lat="37.767999" lon="-2.938232">
        <ele>1142.2</ele>
        <time>1989-12-30T23:59:59Z</time>
      </trkpt>
      <trkpt lat="37.767945" lon="-2.937977">
        <ele>1170.5</ele>
        <time>1989-12-30T23:59:59Z</time>
      </trkpt>
      <trkpt lat="37.767919" lon="-2.937853">
        <ele>1166.7</ele>
        <time>1989-12-30T23:59:59Z</time>
      </trkpt>
      <trkpt lat="37.767944" lon="-2.937560">
        <ele>1166.2</ele>
        <time>1989-12-30T23:59:59Z</time>
      </trkpt>
      <trkpt lat="37.767865" lon="-2.937417">
        <ele>1135.5</ele>
        <time>1989-12-30T23:59:59Z</time>
      </trkpt>
      <trkpt lat="37.767820" lon="-2.937328">
        <ele>1135.9</ele>
        <time>1989-12-30T23:59:59Z</time>
      </trkpt>
      <trkpt lat="37.767764" lon="-2.936952">
        <ele>1132.6</ele>
        <time>1989-12-30T23:59:59Z</time>
      </trkpt>
      <trkpt lat="37.767719" lon="-2.936846">
        <ele>1131.1</ele>
        <time>1989-12-30T23:59:59Z</time>
      </trkpt>
      <trkpt lat="37.767651" lon="-2.936752">
        <ele>1131.6</ele>
        <time>1989-12-30T23:59:59Z</time>
      </trkpt>
      <trkpt lat="37.767472" lon="-2.936622">
        <ele>1128.7</ele>
        <time>1989-12-30T23:59:59Z</time>
      </trkpt>
      <trkpt lat="37.767326" lon="-2.936464">
        <ele>1128.2</ele>
        <time>1989-12-30T23:59:59Z</time>
      </trkpt>
      <trkpt lat="37.767263" lon="-2.936384">
        <ele>1124.9</ele>
        <time>1989-12-30T23:59:59Z</time>
      </trkpt>
      <trkpt lat="37.767179" lon="-2.936316">
        <ele>1124.4</ele>
        <time>1989-12-30T23:59:59Z</time>
      </trkpt>
      <trkpt lat="37.767088" lon="-2.936276">
        <ele>1123.0</ele>
        <time>1989-12-30T23:59:59Z</time>
      </trkpt>
      <trkpt lat="37.766886" lon="-2.936274">
        <ele>1124.4</ele>
        <time>1989-12-30T23:59:59Z</time>
      </trkpt>
      <trkpt lat="37.766689" lon="-2.936319">
        <ele>1121.5</ele>
        <time>1989-12-30T23:59:59Z</time>
      </trkpt>
      <trkpt lat="37.766278" lon="-2.936360">
        <ele>1120.6</ele>
        <time>1989-12-30T23:59:59Z</time>
      </trkpt>
      <trkpt lat="37.766103" lon="-2.936303">
        <ele>1119.1</ele>
        <time>1989-12-30T23:59:59Z</time>
      </trkpt>
      <trkpt lat="37.766020" lon="-2.936251">
        <ele>1118.2</ele>
        <time>1989-12-30T23:59:59Z</time>
      </trkpt>
      <trkpt lat="37.765872" lon="-2.936114">
        <ele>1115.3</ele>
        <time>1989-12-30T23:59:59Z</time>
      </trkpt>
      <trkpt lat="37.765739" lon="-2.935954">
        <ele>1113.8</ele>
        <time>1989-12-30T23:59:59Z</time>
      </trkpt>
      <trkpt lat="37.765657" lon="-2.935905">
        <ele>1112.9</ele>
        <time>1989-12-30T23:59:59Z</time>
      </trkpt>
      <trkpt lat="37.765469" lon="-2.935925">
        <ele>1111.4</ele>
        <time>1989-12-30T23:59:59Z</time>
      </trkpt>
      <trkpt lat="37.765383" lon="-2.935886">
        <ele>1111.4</ele>
        <time>1989-12-30T23:59:59Z</time>
      </trkpt>
      <trkpt lat="37.765366" lon="-2.935782">
        <ele>1110.0</ele>
        <time>1989-12-30T23:59:59Z</time>
      </trkpt>
      <trkpt lat="37.765379" lon="-2.935564">
        <ele>1108.5</ele>
        <time>1989-12-30T23:59:59Z</time>
      </trkpt>
      <trkpt lat="37.765342" lon="-2.935465">
        <ele>1107.1</ele>
        <time>1989-12-30T23:59:59Z</time>
      </trkpt>
      <trkpt lat="37.765322" lon="-2.935237">
        <ele>1107.1</ele>
        <time>1989-12-30T23:59:59Z</time>
      </trkpt>
      <trkpt lat="37.765234" lon="-2.935041">
        <ele>1105.7</ele>
        <time>1989-12-30T23:59:59Z</time>
      </trkpt>
      <trkpt lat="37.765176" lon="-2.934956">
        <ele>1104.7</ele>
        <time>1989-12-30T23:59:59Z</time>
      </trkpt>
      <trkpt lat="37.765099" lon="-2.934876">
        <ele>1101.3</ele>
        <time>1989-12-30T23:59:59Z</time>
      </trkpt>
      <trkpt lat="37.764950" lon="-2.934542">
        <ele>1101.8</ele>
        <time>1989-12-30T23:59:59Z</time>
      </trkpt>
      <trkpt lat="37.764920" lon="-2.934448">
        <ele>1100.4</ele>
        <time>1989-12-30T23:59:59Z</time>
      </trkpt>
      <trkpt lat="37.764905" lon="-2.934331">
        <ele>1100.8</ele>
        <time>1989-12-30T23:59:59Z</time>
      </trkpt>
      <trkpt lat="37.764911" lon="-2.934062">
        <ele>1100.8</ele>
        <time>1989-12-30T23:59:59Z</time>
      </trkpt>
      <trkpt lat="37.764909" lon="-2.933943">
        <ele>1102.8</ele>
        <time>1989-12-30T23:59:59Z</time>
      </trkpt>
      <trkpt lat="37.764895" lon="-2.933834">
        <ele>1102.8</ele>
        <time>1989-12-30T23:59:59Z</time>
      </trkpt>
      <trkpt lat="37.764881" lon="-2.933608">
        <ele>1098.4</ele>
        <time>1989-12-30T23:59:59Z</time>
      </trkpt>
      <trkpt lat="37.764897" lon="-2.933488">
        <ele>1098.0</ele>
        <time>1989-12-30T23:59:59Z</time>
      </trkpt>
      <trkpt lat="37.764989" lon="-2.933124">
        <ele>1098.9</ele>
        <time>1989-12-30T23:59:59Z</time>
      </trkpt>
      <trkpt lat="37.765029" lon="-2.933018">
        <ele>1098.4</ele>
        <time>1989-12-30T23:59:59Z</time>
      </trkpt>
      <trkpt lat="37.765064" lon="-2.932763">
        <ele>1100.4</ele>
        <time>1989-12-30T23:59:59Z</time>
      </trkpt>
      <trkpt lat="37.765095" lon="-2.932669">
        <ele>1098.0</ele>
        <time>1989-12-30T23:59:59Z</time>
      </trkpt>
      <trkpt lat="37.765142" lon="-2.932452">
        <ele>1098.9</ele>
        <time>1989-12-30T23:59:59Z</time>
      </trkpt>
      <trkpt lat="37.765209" lon="-2.932246">
        <ele>1098.4</ele>
        <time>1989-12-30T23:59:59Z</time>
      </trkpt>
      <trkpt lat="37.765489" lon="-2.931111">
        <ele>1090.8</ele>
        <time>1989-12-30T23:59:59Z</time>
      </trkpt>
      <trkpt lat="37.765481" lon="-2.930997">
        <ele>1089.3</ele>
        <time>1989-12-30T23:59:59Z</time>
      </trkpt>
      <trkpt lat="37.765449" lon="-2.930881">
        <ele>1090.3</ele>
        <time>1989-12-30T23:59:59Z</time>
      </trkpt>
      <trkpt lat="37.765427" lon="-2.930772">
        <ele>1087.4</ele>
        <time>1989-12-30T23:59:59Z</time>
      </trkpt>
      <trkpt lat="37.765365" lon="-2.930541">
        <ele>1085.9</ele>
        <time>1989-12-30T23:59:59Z</time>
      </trkpt>
      <trkpt lat="37.765338" lon="-2.930272">
        <ele>1085.9</ele>
        <time>1989-12-30T23:59:59Z</time>
      </trkpt>
      <trkpt lat="37.765358" lon="-2.930159">
        <ele>1084.5</ele>
        <time>1989-12-30T23:59:59Z</time>
      </trkpt>
      <trkpt lat="37.765695" lon="-2.929742">
        <ele>1079.2</ele>
        <time>1989-12-30T23:59:59Z</time>
      </trkpt>
      <trkpt lat="37.765831" lon="-2.929466">
        <ele>1083.5</ele>
        <time>1989-12-30T23:59:59Z</time>
      </trkpt>
      <trkpt lat="37.765999" lon="-2.929035">
        <ele>1081.6</ele>
        <time>1989-12-30T23:59:59Z</time>
      </trkpt>
      <trkpt lat="37.766062" lon="-2.928944">
        <ele>1078.3</ele>
        <time>1989-12-30T23:59:59Z</time>
      </trkpt>
      <trkpt lat="37.766170" lon="-2.928728">
        <ele>1075.9</ele>
        <time>1989-12-30T23:59:59Z</time>
      </trkpt>
      <trkpt lat="37.766314" lon="-2.928152">
        <ele>1078.3</ele>
        <time>1989-12-30T23:59:59Z</time>
      </trkpt>
      <trkpt lat="37.766471" lon="-2.927800">
        <ele>1074.4</ele>
        <time>1989-12-30T23:59:59Z</time>
      </trkpt>
      <trkpt lat="37.766476" lon="-2.927580">
        <ele>1071.0</ele>
        <time>1989-12-30T23:59:59Z</time>
      </trkpt>
      <trkpt lat="37.766455" lon="-2.927325">
        <ele>1071.0</ele>
        <time>1989-12-30T23:59:59Z</time>
      </trkpt>
      <trkpt lat="37.766502" lon="-2.926855">
        <ele>1068.2</ele>
        <time>1989-12-30T23:59:59Z</time>
      </trkpt>
      <trkpt lat="37.766549" lon="-2.926546">
        <ele>1071.0</ele>
        <time>1989-12-30T23:59:59Z</time>
      </trkpt>
      <trkpt lat="37.766582" lon="-2.926480">
        <ele>1070.1</ele>
        <time>1989-12-30T23:59:59Z</time>
      </trkpt>
      <trkpt lat="37.766613" lon="-2.926201">
        <ele>1069.1</ele>
        <time>1989-12-30T23:59:59Z</time>
      </trkpt>
      <trkpt lat="37.766750" lon="-2.925503">
        <ele>1063.7</ele>
        <time>1989-12-30T23:59:59Z</time>
      </trkpt>
      <trkpt lat="37.766877" lon="-2.925140">
        <ele>1058.2</ele>
        <time>1989-12-30T23:59:59Z</time>
      </trkpt>
      <trkpt lat="37.766897" lon="-2.925004">
        <ele>1056.6</ele>
        <time>1989-12-30T23:59:59Z</time>
      </trkpt>
      <trkpt lat="37.766897" lon="-2.924709">
        <ele>1056.1</ele>
        <time>1989-12-30T23:59:59Z</time>
      </trkpt>
      <trkpt lat="37.766890" lon="-2.924322">
        <ele>1062.4</ele>
        <time>1989-12-30T23:59:59Z</time>
      </trkpt>
      <trkpt lat="37.766798" lon="-2.923946">
        <ele>1061.4</ele>
        <time>1989-12-30T23:59:59Z</time>
      </trkpt>
      <trkpt lat="37.766591" lon="-2.923614">
        <ele>1061.0</ele>
        <time>1989-12-30T23:59:59Z</time>
      </trkpt>
      <trkpt lat="37.766368" lon="-2.923182">
        <ele>1058.5</ele>
        <time>1989-12-30T23:59:59Z</time>
      </trkpt>
      <trkpt lat="37.766267" lon="-2.922979">
        <ele>1054.7</ele>
        <time>1989-12-30T23:59:59Z</time>
      </trkpt>
      <trkpt lat="37.766138" lon="-2.922652">
        <ele>1051.3</ele>
        <time>1989-12-30T23:59:59Z</time>
      </trkpt>
      <trkpt lat="37.766068" lon="-2.922553">
        <ele>1048.5</ele>
        <time>1989-12-30T23:59:59Z</time>
      </trkpt>
      <trkpt lat="37.765994" lon="-2.922474">
        <ele>1048.9</ele>
        <time>1989-12-30T23:59:59Z</time>
      </trkpt>
      <trkpt lat="37.765825" lon="-2.922354">
        <ele>1047.5</ele>
        <time>1989-12-30T23:59:59Z</time>
      </trkpt>
      <trkpt lat="37.765579" lon="-2.922024">
        <ele>1039.3</ele>
        <time>1989-12-30T23:59:59Z</time>
      </trkpt>
      <trkpt lat="37.765444" lon="-2.921843">
        <ele>1038.8</ele>
        <time>1989-12-30T23:59:59Z</time>
      </trkpt>
      <trkpt lat="37.765381" lon="-2.921760">
        <ele>1036.9</ele>
        <time>1989-12-30T23:59:59Z</time>
      </trkpt>
      <trkpt lat="37.765343" lon="-2.921637">
        <ele>1044.6</ele>
        <time>1989-12-30T23:59:59Z</time>
      </trkpt>
      <trkpt lat="37.765187" lon="-2.921327">
        <ele>1043.6</ele>
        <time>1989-12-30T23:59:59Z</time>
      </trkpt>
      <trkpt lat="37.765054" lon="-2.921014">
        <ele>1041.7</ele>
        <time>1989-12-30T23:59:59Z</time>
      </trkpt>
      <trkpt lat="37.764973" lon="-2.920675">
        <ele>1037.9</ele>
        <time>1989-12-30T23:59:59Z</time>
      </trkpt>
      <trkpt lat="37.764933" lon="-2.920552">
        <ele>1039.8</ele>
        <time>1989-12-30T23:59:59Z</time>
      </trkpt>
      <trkpt lat="37.764845" lon="-2.920460">
        <ele>1036.9</ele>
        <time>1989-12-30T23:59:59Z</time>
      </trkpt>
      <trkpt lat="37.764490" lon="-2.920236">
        <ele>1033.1</ele>
        <time>1989-12-30T23:59:59Z</time>
      </trkpt>
      <trkpt lat="37.764418" lon="-2.920159">
        <ele>1030.2</ele>
        <time>1989-12-30T23:59:59Z</time>
      </trkpt>
      <trkpt lat="37.764278" lon="-2.920045">
        <ele>1027.8</ele>
        <time>1989-12-30T23:59:59Z</time>
      </trkpt>
      <trkpt lat="37.764107" lon="-2.919951">
        <ele>1025.9</ele>
        <time>1989-12-30T23:59:59Z</time>
      </trkpt>
      <trkpt lat="37.764159" lon="-2.919807">
        <ele>1015.3</ele>
        <time>1989-12-30T23:59:59Z</time>
      </trkpt>
      <trkpt lat="37.764222" lon="-2.919793">
        <ele>1023.5</ele>
        <time>1989-12-30T23:59:59Z</time>
      </trkpt>
      <trkpt lat="37.764316" lon="-2.919746">
        <ele>1025.4</ele>
        <time>1989-12-30T23:59:59Z</time>
      </trkpt>
      <trkpt lat="37.764617" lon="-2.919718">
        <ele>1026.3</ele>
        <time>1989-12-30T23:59:59Z</time>
      </trkpt>
      <trkpt lat="37.764831" lon="-2.919703">
        <ele>1029.7</ele>
        <time>1989-12-30T23:59:59Z</time>
      </trkpt>
      <trkpt lat="37.765234" lon="-2.919646">
        <ele>1028.7</ele>
        <time>1989-12-30T23:59:59Z</time>
      </trkpt>
      <trkpt lat="37.765333" lon="-2.919638">
        <ele>1032.1</ele>
        <time>1989-12-30T23:59:59Z</time>
      </trkpt>
      <trkpt lat="37.765427" lon="-2.919663">
        <ele>1031.6</ele>
        <time>1989-12-30T23:59:59Z</time>
      </trkpt>
      <trkpt lat="37.765527" lon="-2.919673">
        <ele>1035.5</ele>
        <time>1989-12-30T23:59:59Z</time>
      </trkpt>
      <trkpt lat="37.765793" lon="-2.919596">
        <ele>1034.5</ele>
        <time>1989-12-30T23:59:59Z</time>
      </trkpt>
      <trkpt lat="37.765982" lon="-2.919622">
        <ele>1031.2</ele>
        <time>1989-12-30T23:59:59Z</time>
      </trkpt>
      <trkpt lat="37.766138" lon="-2.919614">
        <ele>1020.6</ele>
        <time>1989-12-30T23:59:59Z</time>
      </trkpt>
      <trkpt lat="37.766262" lon="-2.919544">
        <ele>1031.6</ele>
        <time>1989-12-30T23:59:59Z</time>
      </trkpt>
      <trkpt lat="37.766423" lon="-2.919433">
        <ele>1032.1</ele>
        <time>1989-12-30T23:59:59Z</time>
      </trkpt>
      <trkpt lat="37.766651" lon="-2.919182">
        <ele>1028.7</ele>
        <time>1989-12-30T23:59:59Z</time>
      </trkpt>
      <trkpt lat="37.766899" lon="-2.919052">
        <ele>1017.7</ele>
        <time>1989-12-30T23:59:59Z</time>
      </trkpt>
      <trkpt lat="37.766997" lon="-2.919021">
        <ele>1016.3</ele>
        <time>1989-12-30T23:59:59Z</time>
      </trkpt>
      <trkpt lat="37.767097" lon="-2.919024">
        <ele>1012.9</ele>
        <time>1989-12-30T23:59:59Z</time>
      </trkpt>
      <trkpt lat="37.767485" lon="-2.918933">
        <ele>1017.7</ele>
        <time>1989-12-30T23:59:59Z</time>
      </trkpt>
      <trkpt lat="37.767569" lon="-2.918897">
        <ele>1018.2</ele>
        <time>1989-12-30T23:59:59Z</time>
      </trkpt>
      <trkpt lat="37.767660" lon="-2.918859">
        <ele>1020.6</ele>
        <time>1989-12-30T23:59:59Z</time>
      </trkpt>
      <trkpt lat="37.767831" lon="-2.918788">
        <ele>1019.6</ele>
        <time>1989-12-30T23:59:59Z</time>
      </trkpt>
      <trkpt lat="37.768145" lon="-2.918558">
        <ele>1018.2</ele>
        <time>1989-12-30T23:59:59Z</time>
      </trkpt>
      <trkpt lat="37.768329" lon="-2.918526">
        <ele>1018.2</ele>
        <time>1989-12-30T23:59:59Z</time>
      </trkpt>
      <trkpt lat="37.768407" lon="-2.918482">
        <ele>1018.2</ele>
        <time>1989-12-30T23:59:59Z</time>
      </trkpt>
      <trkpt lat="37.768640" lon="-2.918141">
        <ele>1016.7</ele>
        <time>1989-12-30T23:59:59Z</time>
      </trkpt>
      <trkpt lat="37.768861" lon="-2.917866">
        <ele>1014.8</ele>
        <time>1989-12-30T23:59:59Z</time>
      </trkpt>
      <trkpt lat="37.769204" lon="-2.917581">
        <ele>1012.4</ele>
        <time>1989-12-30T23:59:59Z</time>
      </trkpt>
      <trkpt lat="37.769502" lon="-2.917273">
        <ele>1012.9</ele>
        <time>1989-12-30T23:59:59Z</time>
      </trkpt>
      <trkpt lat="37.769595" lon="-2.917226">
        <ele>1010.5</ele>
        <time>1989-12-30T23:59:59Z</time>
      </trkpt>
      <trkpt lat="37.769692" lon="-2.917222">
        <ele>1010.0</ele>
        <time>1989-12-30T23:59:59Z</time>
      </trkpt>
      <trkpt lat="37.769771" lon="-2.917407">
        <ele>1007.6</ele>
        <time>1989-12-30T23:59:59Z</time>
      </trkpt>
      <trkpt lat="37.769842" lon="-2.917490">
        <ele>1007.6</ele>
        <time>1989-12-30T23:59:59Z</time>
      </trkpt>
      <trkpt lat="37.770037" lon="-2.917758">
        <ele>1005.7</ele>
        <time>1989-12-30T23:59:59Z</time>
      </trkpt>
      <trkpt lat="37.770439" lon="-2.918315">
        <ele>1007.6</ele>
        <time>1989-12-30T23:59:59Z</time>
      </trkpt>
      <trkpt lat="37.770827" lon="-2.918884">
        <ele>1006.2</ele>
        <time>1989-12-30T23:59:59Z</time>
      </trkpt>
      <trkpt lat="37.770890" lon="-2.918978">
        <ele>1007.6</ele>
        <time>1989-12-30T23:59:59Z</time>
      </trkpt>
      <trkpt lat="37.770961" lon="-2.919070">
        <ele>1007.1</ele>
        <time>1989-12-30T23:59:59Z</time>
      </trkpt>
      <trkpt lat="37.771022" lon="-2.919162">
        <ele>1009.5</ele>
        <time>1989-12-30T23:59:59Z</time>
      </trkpt>
      <trkpt lat="37.771185" lon="-2.919334">
        <ele>1010.0</ele>
        <time>1989-12-30T23:59:59Z</time>
      </trkpt>
      <trkpt lat="37.771541" lon="-2.919595">
        <ele>1011.4</ele>
        <time>1989-12-30T23:59:59Z</time>
      </trkpt>
      <trkpt lat="37.771607" lon="-2.919682">
        <ele>1012.4</ele>
        <time>1989-12-30T23:59:59Z</time>
      </trkpt>
      <trkpt lat="37.771782" lon="-2.919803">
        <ele>1011.4</ele>
        <time>1989-12-30T23:59:59Z</time>
      </trkpt>
      <trkpt lat="37.771921" lon="-2.919970">
        <ele>1011.4</ele>
        <time>1989-12-30T23:59:59Z</time>
      </trkpt>
      <trkpt lat="37.772095" lon="-2.920106">
        <ele>1018.2</ele>
        <time>1989-12-30T23:59:59Z</time>
      </trkpt>
      <trkpt lat="37.772196" lon="-2.920141">
        <ele>1015.3</ele>
        <time>1989-12-30T23:59:59Z</time>
      </trkpt>
      <trkpt lat="37.772408" lon="-2.920198">
        <ele>1017.7</ele>
        <time>1989-12-30T23:59:59Z</time>
      </trkpt>
      <trkpt lat="37.772611" lon="-2.920259">
        <ele>1018.2</ele>
        <time>1989-12-30T23:59:59Z</time>
      </trkpt>
      <trkpt lat="37.772894" lon="-2.920396">
        <ele>1016.3</ele>
        <time>1989-12-30T23:59:59Z</time>
      </trkpt>
      <trkpt lat="37.773061" lon="-2.920518">
        <ele>1017.7</ele>
        <time>1989-12-30T23:59:59Z</time>
      </trkpt>
      <trkpt lat="37.773356" lon="-2.920948">
        <ele>1018.7</ele>
        <time>1989-12-30T23:59:59Z</time>
      </trkpt>
      <trkpt lat="37.773427" lon="-2.921025">
        <ele>1020.6</ele>
        <time>1989-12-30T23:59:59Z</time>
      </trkpt>
      <trkpt lat="37.773507" lon="-2.921113">
        <ele>1018.7</ele>
        <time>1989-12-30T23:59:59Z</time>
      </trkpt>
      <trkpt lat="37.773768" lon="-2.921466">
        <ele>1018.2</ele>
        <time>1989-12-30T23:59:59Z</time>
      </trkpt>
      <trkpt lat="37.773934" lon="-2.921582">
        <ele>1018.7</ele>
        <time>1989-12-30T23:59:59Z</time>
      </trkpt>
      <trkpt lat="37.774122" lon="-2.921677">
        <ele>1018.7</ele>
        <time>1989-12-30T23:59:59Z</time>
      </trkpt>
      <trkpt lat="37.774160" lon="-2.921782">
        <ele>1019.1</ele>
        <time>1989-12-30T23:59:59Z</time>
      </trkpt>
      <trkpt lat="37.774254" lon="-2.921312">
        <ele>1016.3</ele>
        <time>1989-12-30T23:59:59Z</time>
      </trkpt>
      <trkpt lat="37.774149" lon="-2.921135">
        <ele>1016.3</ele>
        <time>1989-12-30T23:59:59Z</time>
      </trkpt>
      <trkpt lat="37.773966" lon="-2.920999">
        <ele>1021.5</ele>
        <time>1989-12-30T23:59:59Z</time>
      </trkpt>
      <trkpt lat="37.773689" lon="-2.920658">
        <ele>1019.1</ele>
        <time>1989-12-30T23:59:59Z</time>
      </trkpt>
      <trkpt lat="37.773500" lon="-2.920108">
        <ele>1021.5</ele>
        <time>1989-12-30T23:59:59Z</time>
      </trkpt>
      <trkpt lat="37.773209" lon="-2.919317">
        <ele>1014.3</ele>
        <time>1989-12-30T23:59:59Z</time>
      </trkpt>
      <trkpt lat="37.773189" lon="-2.919207">
        <ele>1014.3</ele>
        <time>1989-12-30T23:59:59Z</time>
      </trkpt>
      <trkpt lat="37.773272" lon="-2.918981">
        <ele>1014.8</ele>
        <time>1989-12-30T23:59:59Z</time>
      </trkpt>
      <trkpt lat="37.773330" lon="-2.918882">
        <ele>1014.3</ele>
        <time>1989-12-30T23:59:59Z</time>
      </trkpt>
      <trkpt lat="37.774247" lon="-2.918257">
        <ele>1011.9</ele>
        <time>1989-12-30T23:59:59Z</time>
      </trkpt>
      <trkpt lat="37.774562" lon="-2.917972">
        <ele>1011.9</ele>
        <time>1989-12-30T23:59:59Z</time>
      </trkpt>
      <trkpt lat="37.775010" lon="-2.917708">
        <ele>1005.2</ele>
        <time>1989-12-30T23:59:59Z</time>
      </trkpt>
      <trkpt lat="37.775949" lon="-2.917031">
        <ele>1010.5</ele>
        <time>1989-12-30T23:59:59Z</time>
      </trkpt>
      <trkpt lat="37.776220" lon="-2.916701">
        <ele>1013.8</ele>
        <time>1989-12-30T23:59:59Z</time>
      </trkpt>
      <trkpt lat="37.776670" lon="-2.916498">
        <ele>1015.3</ele>
        <time>1989-12-30T23:59:59Z</time>
      </trkpt>
      <trkpt lat="37.776985" lon="-2.916544">
        <ele>1003.8</ele>
        <time>1989-12-30T23:59:59Z</time>
      </trkpt>
      <trkpt lat="37.777316" lon="-2.916307">
        <ele>989.4</ele>
        <time>1989-12-30T23:59:59Z</time>
      </trkpt>
      <trkpt lat="37.777659" lon="-2.916337">
        <ele>988.4</ele>
        <time>1989-12-30T23:59:59Z</time>
      </trkpt>
      <trkpt lat="37.778113" lon="-2.916279">
        <ele>988.4</ele>
        <time>1989-12-30T23:59:59Z</time>
      </trkpt>
      <trkpt lat="37.778043" lon="-2.915807">
        <ele>988.4</ele>
        <time>1989-12-30T23:59:59Z</time>
      </trkpt>
      <trkpt lat="37.777647" lon="-2.915426">
        <ele>990.3</ele>
        <time>1989-12-30T23:59:59Z</time>
      </trkpt>
      <trkpt lat="37.777731" lon="-2.915026">
        <ele>990.3</ele>
        <time>1989-12-30T23:59:59Z</time>
      </trkpt>
      <trkpt lat="37.778532" lon="-2.914485">
        <ele>998.5</ele>
        <time>1989-12-30T23:59:59Z</time>
      </trkpt>
      <trkpt lat="37.779031" lon="-2.914212">
        <ele>1004.2</ele>
        <time>1989-12-30T23:59:59Z</time>
      </trkpt>
      <trkpt lat="37.779268" lon="-2.913972">
        <ele>1004.2</ele>
        <time>1989-12-30T23:59:59Z</time>
      </trkpt>
      <trkpt lat="37.779565" lon="-2.913518">
        <ele>1011.0</ele>
        <time>1989-12-30T23:59:59Z</time>
      </trkpt>
      <trkpt lat="37.779964" lon="-2.913158">
        <ele>1012.9</ele>
        <time>1989-12-30T23:59:59Z</time>
      </trkpt>
      <trkpt lat="37.780178" lon="-2.913107">
        <ele>1013.4</ele>
        <time>1989-12-30T23:59:59Z</time>
      </trkpt>
      <trkpt lat="37.780308" lon="-2.913149">
        <ele>1012.4</ele>
        <time>1989-12-30T23:59:59Z</time>
      </trkpt>
      <trkpt lat="37.780656" lon="-2.913455">
        <ele>1012.4</ele>
        <time>1989-12-30T23:59:59Z</time>
      </trkpt>
      <trkpt lat="37.780771" lon="-2.913478">
        <ele>1012.4</ele>
        <time>1989-12-30T23:59:59Z</time>
      </trkpt>
      <trkpt lat="37.781390" lon="-2.912723">
        <ele>1014.8</ele>
        <time>1989-12-30T23:59:59Z</time>
      </trkpt>
      <trkpt lat="37.781778" lon="-2.912156">
        <ele>1013.8</ele>
        <time>1989-12-30T23:59:59Z</time>
      </trkpt>
      <trkpt lat="37.781988" lon="-2.912049">
        <ele>1013.8</ele>
        <time>1989-12-30T23:59:59Z</time>
      </trkpt>
      <trkpt lat="37.782507" lon="-2.911927">
        <ele>1008.6</ele>
        <time>1989-12-30T23:59:59Z</time>
      </trkpt>
      <trkpt lat="37.783607" lon="-2.911367">
        <ele>1008.1</ele>
        <time>1989-12-30T23:59:59Z</time>
      </trkpt>
      <trkpt lat="37.783930" lon="-2.911070">
        <ele>1005.7</ele>
        <time>1989-12-30T23:59:59Z</time>
      </trkpt>
      <trkpt lat="37.784175" lon="-2.910760">
        <ele>1001.4</ele>
        <time>1989-12-30T23:59:59Z</time>
      </trkpt>
      <trkpt lat="37.785253" lon="-2.909921">
        <ele>996.1</ele>
        <time>1989-12-30T23:59:59Z</time>
      </trkpt>
      <trkpt lat="37.786461" lon="-2.909499">
        <ele>1002.8</ele>
        <time>1989-12-30T23:59:59Z</time>
      </trkpt>
      <trkpt lat="37.786733" lon="-2.909467">
        <ele>998.9</ele>
        <time>1989-12-30T23:59:59Z</time>
      </trkpt>
      <trkpt lat="37.788568" lon="-2.909014">
        <ele>1000.2</ele>
        <time>1989-12-30T23:59:59Z</time>
      </trkpt>
      <trkpt lat="37.789134" lon="-2.908747">
        <ele>1002.3</ele>
        <time>1989-12-30T23:59:59Z</time>
      </trkpt>
      <trkpt lat="37.790253" lon="-2.908131">
        <ele>999.9</ele>
        <time>1989-12-30T23:59:59Z</time>
      </trkpt>
      <trkpt lat="37.792132" lon="-2.908252">
        <ele>999.9</ele>
        <time>1989-12-30T23:59:59Z</time>
      </trkpt>
      <trkpt lat="37.793377" lon="-2.908124">
        <ele>997.5</ele>
        <time>1989-12-30T23:59:59Z</time>
      </trkpt>
      <trkpt lat="37.794299" lon="-2.907905">
        <ele>1000.9</ele>
        <time>1989-12-30T23:59:59Z</time>
      </trkpt>
      <trkpt lat="37.794552" lon="-2.907810">
        <ele>1006.6</ele>
        <time>1989-12-30T23:59:59Z</time>
      </trkpt>
      <trkpt lat="37.795627" lon="-2.907340">
        <ele>1002.3</ele>
        <time>1989-12-30T23:59:59Z</time>
      </trkpt>
      <trkpt lat="37.795750" lon="-2.907258">
        <ele>1005.7</ele>
        <time>1989-12-30T23:59:59Z</time>
      </trkpt>
      <trkpt lat="37.795852" lon="-2.907225">
        <ele>998.9</ele>
        <time>1989-12-30T23:59:59Z</time>
      </trkpt>
      <trkpt lat="37.796431" lon="-2.907197">
        <ele>999.4</ele>
        <time>1989-12-30T23:59:59Z</time>
      </trkpt>
      <trkpt lat="37.797011" lon="-2.906977">
        <ele>1007.1</ele>
        <time>1989-12-30T23:59:59Z</time>
      </trkpt>
      <trkpt lat="37.797768" lon="-2.906914">
        <ele>1003.3</ele>
        <time>1989-12-30T23:59:59Z</time>
      </trkpt>
      <trkpt lat="37.798651" lon="-2.906776">
        <ele>1002.8</ele>
        <time>1989-12-30T23:59:59Z</time>
      </trkpt>
      <trkpt lat="37.799151" lon="-2.906656">
        <ele>998.0</ele>
        <time>1989-12-30T23:59:59Z</time>
      </trkpt>
      <trkpt lat="37.799523" lon="-2.906476">
        <ele>998.5</ele>
        <time>1989-12-30T23:59:59Z</time>
      </trkpt>
      <trkpt lat="37.800381" lon="-2.906336">
        <ele>1000.4</ele>
        <time>1989-12-30T23:59:59Z</time>
      </trkpt>
      <trkpt lat="37.801142" lon="-2.906118">
        <ele>998.9</ele>
        <time>1989-12-30T23:59:59Z</time>
      </trkpt>
      <trkpt lat="37.802019" lon="-2.905919">
        <ele>1005.7</ele>
        <time>1989-12-30T23:59:59Z</time>
      </trkpt>
      <trkpt lat="37.802310" lon="-2.905995">
        <ele>1007.6</ele>
        <time>1989-12-30T23:59:59Z</time>
      </trkpt>
      <trkpt lat="37.802859" lon="-2.906331">
        <ele>1011.0</ele>
        <time>1989-12-30T23:59:59Z</time>
      </trkpt>
      <trkpt lat="37.803823" lon="-2.906281">
        <ele>1010.5</ele>
        <time>1989-12-30T23:59:59Z</time>
      </trkpt>
      <trkpt lat="37.804923" lon="-2.906359">
        <ele>1010.9</ele>
        <time>1989-12-30T23:59:59Z</time>
      </trkpt>
      <trkpt lat="37.805409" lon="-2.906359">
        <ele>1014.3</ele>
        <time>1989-12-30T23:59:59Z</time>
      </trkpt>
      <trkpt lat="37.805410" lon="-2.907025">
        <ele>1016.3</ele>
        <time>1989-12-30T23:59:59Z</time>
      </trkpt>
      <trkpt lat="37.805096" lon="-2.907590">
        <ele>1018.3</ele>
        <time>1989-12-30T23:59:59Z</time>
      </trkpt>
      <trkpt lat="37.805176" lon="-2.908126">
        <ele>1020.1</ele>
        <time>1989-12-30T23:59:59Z</time>
      </trkpt>
      <trkpt lat="37.805470" lon="-2.908298">
        <ele>1029.2</ele>
        <time>1989-12-30T23:59:59Z</time>
      </trkpt>
      <trkpt lat="37.805638" lon="-2.908782">
        <ele>1031.6</ele>
        <time>1989-12-30T23:59:59Z</time>
      </trkpt>
      <trkpt lat="37.805831" lon="-2.909073">
        <ele>1032.6</ele>
        <time>1989-12-30T23:59:59Z</time>
      </trkpt>
      <trkpt lat="37.805995" lon="-2.909131">
        <ele>1034.5</ele>
        <time>1989-12-30T23:59:59Z</time>
      </trkpt>
      <trkpt lat="37.806126" lon="-2.909050">
        <ele>1036.5</ele>
        <time>1989-12-30T23:59:59Z</time>
      </trkpt>
      <trkpt lat="37.806342" lon="-2.908845">
        <ele>1038.2</ele>
        <time>1989-12-30T23:59:59Z</time>
      </trkpt>
      <trkpt lat="37.806387" lon="-2.908708">
        <ele>1040.2</ele>
        <time>1989-12-30T23:59:59Z</time>
      </trkpt>
      <trkpt lat="37.806287" lon="-2.908311">
        <ele>1041.7</ele>
        <time>1989-12-30T23:59:59Z</time>
      </trkpt>
      <trkpt lat="37.806297" lon="-2.907719">
        <ele>1044.1</ele>
        <time>1989-12-30T23:59:59Z</time>
      </trkpt>
      <trkpt lat="37.806416" lon="-2.907041">
        <ele>1037.4</ele>
        <time>1989-12-30T23:59:59Z</time>
      </trkpt>
      <trkpt lat="37.806820" lon="-2.905974">
        <ele>1030.2</ele>
        <time>1989-12-30T23:59:59Z</time>
      </trkpt>
      <trkpt lat="37.806711" lon="-2.904926">
        <ele>1024.9</ele>
        <time>1989-12-30T23:59:59Z</time>
      </trkpt>
      <trkpt lat="37.806907" lon="-2.904520">
        <ele>1020.6</ele>
        <time>1989-12-30T23:59:59Z</time>
      </trkpt>
      <trkpt lat="37.807028" lon="-2.904460">
        <ele>1014.8</ele>
        <time>1989-12-30T23:59:59Z</time>
      </trkpt>
      <trkpt lat="37.807226" lon="-2.904498">
        <ele>1018.7</ele>
        <time>1989-12-30T23:59:59Z</time>
      </trkpt>
      <trkpt lat="37.807349" lon="-2.904649">
        <ele>1020.6</ele>
        <time>1989-12-30T23:59:59Z</time>
      </trkpt>
      <trkpt lat="37.807860" lon="-2.904944">
        <ele>1021.5</ele>
        <time>1989-12-30T23:59:59Z</time>
      </trkpt>
      <trkpt lat="37.808173" lon="-2.904879">
        <ele>1022.0</ele>
        <time>1989-12-30T23:59:59Z</time>
      </trkpt>
      <trkpt lat="37.808246" lon="-2.904849">
        <ele>1031.2</ele>
        <time>1989-12-30T23:59:59Z</time>
      </trkpt>
      <trkpt lat="37.808825" lon="-2.904578">
        <ele>1017.2</ele>
        <time>1989-12-30T23:59:59Z</time>
      </trkpt>
      <trkpt lat="37.809217" lon="-2.904635">
        <ele>1015.3</ele>
        <time>1989-12-30T23:59:59Z</time>
      </trkpt>
      <trkpt lat="37.809293" lon="-2.904552">
        <ele>1015.3</ele>
        <time>1989-12-30T23:59:59Z</time>
      </trkpt>
      <trkpt lat="37.809381" lon="-2.904207">
        <ele>1016.3</ele>
        <time>1989-12-30T23:59:59Z</time>
      </trkpt>
      <trkpt lat="37.809462" lon="-2.904138">
        <ele>1014.3</ele>
        <time>1989-12-30T23:59:59Z</time>
      </trkpt>
      <trkpt lat="37.809639" lon="-2.904048">
        <ele>1017.2</ele>
        <time>1989-12-30T23:59:59Z</time>
      </trkpt>
      <trkpt lat="37.810019" lon="-2.903890">
        <ele>1010.0</ele>
        <time>1989-12-30T23:59:59Z</time>
      </trkpt>
      <trkpt lat="37.811042" lon="-2.903637">
        <ele>1005.2</ele>
        <time>1989-12-30T23:59:59Z</time>
      </trkpt>
      <trkpt lat="37.811549" lon="-2.903301">
        <ele>1006.6</ele>
        <time>1989-12-30T23:59:59Z</time>
      </trkpt>
      <trkpt lat="37.811708" lon="-2.903176">
        <ele>1000.9</ele>
        <time>1989-12-30T23:59:59Z</time>
      </trkpt>
      <trkpt lat="37.812029" lon="-2.902880">
        <ele>1003.8</ele>
        <time>1989-12-30T23:59:59Z</time>
      </trkpt>
      <trkpt lat="37.812127" lon="-2.902875">
        <ele>1002.3</ele>
        <time>1989-12-30T23:59:59Z</time>
      </trkpt>
      <trkpt lat="37.812268" lon="-2.903193">
        <ele>1001.8</ele>
        <time>1989-12-30T23:59:59Z</time>
      </trkpt>
      <trkpt lat="37.812354" lon="-2.903246">
        <ele>1000.9</ele>
        <time>1989-12-30T23:59:59Z</time>
      </trkpt>
      <trkpt lat="37.812688" lon="-2.903037">
        <ele>997.0</ele>
        <time>1989-12-30T23:59:59Z</time>
      </trkpt>
      <trkpt lat="37.812826" lon="-2.903009">
        <ele>982.7</ele>
        <time>1989-12-30T23:59:59Z</time>
      </trkpt>
      <trkpt lat="37.813012" lon="-2.903013">
        <ele>983.1</ele>
        <time>1989-12-30T23:59:59Z</time>
      </trkpt>
      <trkpt lat="37.813075" lon="-2.903102">
        <ele>984.5</ele>
        <time>1989-12-30T23:59:59Z</time>
      </trkpt>
      <trkpt lat="37.813021" lon="-2.903449">
        <ele>985.5</ele>
        <time>1989-12-30T23:59:59Z</time>
      </trkpt>
      <trkpt lat="37.813152" lon="-2.903651">
        <ele>986.9</ele>
        <time>1989-12-30T23:59:59Z</time>
      </trkpt>
      <trkpt lat="37.813449" lon="-2.903346">
        <ele>989.3</ele>
        <time>1989-12-30T23:59:59Z</time>
      </trkpt>
      <trkpt lat="37.813660" lon="-2.903256">
        <ele>982.6</ele>
        <time>1989-12-30T23:59:59Z</time>
      </trkpt>
      <trkpt lat="37.813904" lon="-2.903115">
        <ele>990.3</ele>
        <time>1989-12-30T23:59:59Z</time>
      </trkpt>
      <trkpt lat="37.814602" lon="-2.902938">
        <ele>1006.9</ele>
        <time>1989-12-30T23:59:59Z</time>
      </trkpt>
      <trkpt lat="37.815097" lon="-2.902586">
        <ele>1013.9</ele>
        <time>1989-12-30T23:59:59Z</time>
      </trkpt>
      <trkpt lat="37.815278" lon="-2.902483">
        <ele>1018.0</ele>
        <time>1989-12-30T23:59:59Z</time>
      </trkpt>
      <trkpt lat="37.815350" lon="-2.902449">
        <ele>1026.1</ele>
        <time>1989-12-30T23:59:59Z</time>
      </trkpt>
      <trkpt lat="37.815818" lon="-2.902392">
        <ele>1034.2</ele>
        <time>1989-12-30T23:59:59Z</time>
      </trkpt>
      <trkpt lat="37.815999" lon="-2.902323">
        <ele>1043.7</ele>
        <time>1989-12-30T23:59:59Z</time>
      </trkpt>
      <trkpt lat="37.816170" lon="-2.902232">
        <ele>1050.3</ele>
        <time>1989-12-30T23:59:59Z</time>
      </trkpt>
      <trkpt lat="37.816548" lon="-2.902198">
        <ele>1059.7</ele>
        <time>1989-12-30T23:59:59Z</time>
      </trkpt>
      <trkpt lat="37.816963" lon="-2.902038">
        <ele>1071.2</ele>
        <time>1989-12-30T23:59:59Z</time>
      </trkpt>
      <trkpt lat="37.817062" lon="-2.901947">
        <ele>1080.5</ele>
        <time>1989-12-30T23:59:59Z</time>
      </trkpt>
      <trkpt lat="37.817152" lon="-2.901924">
        <ele>1091.6</ele>
        <time>1989-12-30T23:59:59Z</time>
      </trkpt>
      <trkpt lat="37.817269" lon="-2.901776">
        <ele>1101.2</ele>
        <time>1989-12-30T23:59:59Z</time>
      </trkpt>
      <trkpt lat="37.817296" lon="-2.901674">
        <ele>1107.9</ele>
        <time>1989-12-30T23:59:59Z</time>
      </trkpt>
      <trkpt lat="37.817476" lon="-2.901526">
        <ele>1114.1</ele>
        <time>1989-12-30T23:59:59Z</time>
      </trkpt>
      <trkpt lat="37.819044" lon="-2.900854">
        <ele>1116.1</ele>
        <time>1989-12-30T23:59:59Z</time>
      </trkpt>
      <trkpt lat="37.820269" lon="-2.900693">
        <ele>1117.5</ele>
        <time>1989-12-30T23:59:59Z</time>
      </trkpt>
      <trkpt lat="37.821234" lon="-2.900658">
        <ele>1120.4</ele>
        <time>1989-12-30T23:59:59Z</time>
      </trkpt>
      <trkpt lat="37.821693" lon="-2.900668">
        <ele>1121.4</ele>
        <time>1989-12-30T23:59:59Z</time>
      </trkpt>
      <trkpt lat="37.822009" lon="-2.900657">
        <ele>1122.7</ele>
        <time>1989-12-30T23:59:59Z</time>
      </trkpt>
      <trkpt lat="37.822324" lon="-2.900645">
        <ele>1123.6</ele>
        <time>1989-12-30T23:59:59Z</time>
      </trkpt>
      <trkpt lat="37.822495" lon="-2.900565">
        <ele>1124.8</ele>
        <time>1989-12-30T23:59:59Z</time>
      </trkpt>
      <trkpt lat="37.822612" lon="-2.900428">
        <ele>1127.4</ele>
        <time>1989-12-30T23:59:59Z</time>
      </trkpt>
      <trkpt lat="37.823063" lon="-2.900189">
        <ele>1128.4</ele>
        <time>1989-12-30T23:59:59Z</time>
      </trkpt>
      <trkpt lat="37.824270" lon="-2.899972">
        <ele>1130.4</ele>
        <time>1989-12-30T23:59:59Z</time>
      </trkpt>
      <trkpt lat="37.824784" lon="-2.899892">
        <ele>1130.4</ele>
        <time>1989-12-30T23:59:59Z</time>
      </trkpt>
      <trkpt lat="37.825064" lon="-2.899709">
        <ele>1130.6</ele>
        <time>1989-12-30T23:59:59Z</time>
      </trkpt>
      <trkpt lat="37.825442" lon="-2.899720">
        <ele>1132.2</ele>
        <time>1989-12-30T23:59:59Z</time>
      </trkpt>
      <trkpt lat="37.825752" lon="-2.899681">
        <ele>1132.6</ele>
        <time>1989-12-30T23:59:59Z</time>
      </trkpt>
      <trkpt lat="37.826050" lon="-2.899732">
        <ele>1135.5</ele>
        <time>1989-12-30T23:59:59Z</time>
      </trkpt>
      <trkpt lat="37.826120" lon="-2.899713">
        <ele>1141.2</ele>
        <time>1989-12-30T23:59:59Z</time>
      </trkpt>
      <trkpt lat="37.826329" lon="-2.899696">
        <ele>1142.2</ele>
        <time>1989-12-30T23:59:59Z</time>
      </trkpt>
      <trkpt lat="37.826494" lon="-2.899739">
        <ele>1143.1</ele>
        <time>1989-12-30T23:59:59Z</time>
      </trkpt>
      <trkpt lat="37.826685" lon="-2.899703">
        <ele>1148.4</ele>
        <time>1989-12-30T23:59:59Z</time>
      </trkpt>
      <trkpt lat="37.826827" lon="-2.899661">
        <ele>1152.3</ele>
        <time>1989-12-30T23:59:59Z</time>
      </trkpt>
      <trkpt lat="37.826899" lon="-2.899594">
        <ele>1152.3</ele>
        <time>1989-12-30T23:59:59Z</time>
      </trkpt>
      <trkpt lat="37.827170" lon="-2.899498">
        <ele>1156.6</ele>
        <time>1989-12-30T23:59:59Z</time>
      </trkpt>
      <trkpt lat="37.827449" lon="-2.899501">
        <ele>1159.5</ele>
        <time>1989-12-30T23:59:59Z</time>
      </trkpt>
      <trkpt lat="37.827779" lon="-2.899383">
        <ele>1168.6</ele>
        <time>1989-12-30T23:59:59Z</time>
      </trkpt>
      <trkpt lat="37.827916" lon="-2.899255">
        <ele>1172.9</ele>
        <time>1989-12-30T23:59:59Z</time>
      </trkpt>
      <trkpt lat="37.828012" lon="-2.899114">
        <ele>1169.6</ele>
        <time>1989-12-30T23:59:59Z</time>
      </trkpt>
      <trkpt lat="37.828080" lon="-2.898998">
        <ele>1170.5</ele>
        <time>1989-12-30T23:59:59Z</time>
      </trkpt>
      <trkpt lat="37.828162" lon="-2.898913">
        <ele>1174.9</ele>
        <time>1989-12-30T23:59:59Z</time>
      </trkpt>
      <trkpt lat="37.828329" lon="-2.898594">
        <ele>1190.7</ele>
        <time>1989-12-30T23:59:59Z</time>
      </trkpt>
      <trkpt lat="37.828500" lon="-2.898467">
        <ele>1205.1</ele>
        <time>1989-12-30T23:59:59Z</time>
      </trkpt>
      <trkpt lat="37.828685" lon="-2.898421">
        <ele>1206.1</ele>
        <time>1989-12-30T23:59:59Z</time>
      </trkpt>
      <trkpt lat="37.829059" lon="-2.898370">
        <ele>1206.6</ele>
        <time>1989-12-30T23:59:59Z</time>
      </trkpt>
      <trkpt lat="37.829947" lon="-2.898110">
        <ele>1205.1</ele>
        <time>1989-12-30T23:59:59Z</time>
      </trkpt>
      <trkpt lat="37.830435" lon="-2.897876">
        <ele>1206.6</ele>
        <time>1989-12-30T23:59:59Z</time>
      </trkpt>
      <trkpt lat="37.830830" lon="-2.897459">
        <ele>1209.5</ele>
        <time>1989-12-30T23:59:59Z</time>
      </trkpt>
      <trkpt lat="37.831021" lon="-2.897343">
        <ele>1211.4</ele>
        <time>1989-12-30T23:59:59Z</time>
      </trkpt>
      <trkpt lat="37.831715" lon="-2.897176">
        <ele>1211.9</ele>
        <time>1989-12-30T23:59:59Z</time>
      </trkpt>
      <trkpt lat="37.832514" lon="-2.897127">
        <ele>1215.2</ele>
        <time>1989-12-30T23:59:59Z</time>
      </trkpt>
      <trkpt lat="37.833230" lon="-2.897233">
        <ele>1227.3</ele>
        <time>1989-12-30T23:59:59Z</time>
      </trkpt>
      <trkpt lat="37.833631" lon="-2.897348">
        <ele>1228.7</ele>
        <time>1989-12-30T23:59:59Z</time>
      </trkpt>
      <trkpt lat="37.833956" lon="-2.897373">
        <ele>1235.4</ele>
        <time>1989-12-30T23:59:59Z</time>
      </trkpt>
      <trkpt lat="37.834409" lon="-2.897636">
        <ele>1235.0</ele>
        <time>1989-12-30T23:59:59Z</time>
      </trkpt>
      <trkpt lat="37.835286" lon="-2.897894">
        <ele>1233.5</ele>
        <time>1989-12-30T23:59:59Z</time>
      </trkpt>
      <trkpt lat="37.835545" lon="-2.897911">
        <ele>1252.7</ele>
        <time>1989-12-30T23:59:59Z</time>
      </trkpt>
      <trkpt lat="37.836168" lon="-2.898154">
        <ele>1254.7</ele>
        <time>1989-12-30T23:59:59Z</time>
      </trkpt>
      <trkpt lat="37.836260" lon="-2.898072">
        <ele>1255.1</ele>
        <time>1989-12-30T23:59:59Z</time>
      </trkpt>
      <trkpt lat="37.835929" lon="-2.897374">
        <ele>1258.0</ele>
        <time>1989-12-30T23:59:59Z</time>
      </trkpt>
      <trkpt lat="37.835672" lon="-2.897041">
        <ele>1262.8</ele>
        <time>1989-12-30T23:59:59Z</time>
      </trkpt>
      <trkpt lat="37.835683" lon="-2.896902">
        <ele>1264.3</ele>
        <time>1989-12-30T23:59:59Z</time>
      </trkpt>
      <trkpt lat="37.835853" lon="-2.896751">
        <ele>1261.9</ele>
        <time>1989-12-30T23:59:59Z</time>
      </trkpt>
      <trkpt lat="37.836136" lon="-2.896821">
        <ele>1261.9</ele>
        <time>1989-12-30T23:59:59Z</time>
      </trkpt>
      <trkpt lat="37.836462" lon="-2.897250">
        <ele>1260.4</ele>
        <time>1989-12-30T23:59:59Z</time>
      </trkpt>
      <trkpt lat="37.836742" lon="-2.897258">
        <ele>1266.2</ele>
        <time>1989-12-30T23:59:59Z</time>
      </trkpt>
      <trkpt lat="37.837772" lon="-2.897449">
        <ele>1266.7</ele>
        <time>1989-12-30T23:59:59Z</time>
      </trkpt>
      <trkpt lat="37.838172" lon="-2.897604">
        <ele>1266.7</ele>
        <time>1989-12-30T23:59:59Z</time>
      </trkpt>
      <trkpt lat="37.838421" lon="-2.897610">
        <ele>1276.3</ele>
        <time>1989-12-30T23:59:59Z</time>
      </trkpt>
      <trkpt lat="37.839035" lon="-2.897680">
        <ele>1281.1</ele>
        <time>1989-12-30T23:59:59Z</time>
      </trkpt>
      <trkpt lat="37.839874" lon="-2.897567">
        <ele>1282.1</ele>
        <time>1989-12-30T23:59:59Z</time>
      </trkpt>
      <trkpt lat="37.840780" lon="-2.897317">
        <ele>1282.1</ele>
        <time>1989-12-30T23:59:59Z</time>
      </trkpt>
      <trkpt lat="37.841920" lon="-2.897109">
        <ele>1281.1</ele>
        <time>1989-12-30T23:59:59Z</time>
      </trkpt>
      <trkpt lat="37.842278" lon="-2.897009">
        <ele>1281.1</ele>
        <time>1989-12-30T23:59:59Z</time>
      </trkpt>
      <trkpt lat="37.842500" lon="-2.896840">
        <ele>1284.0</ele>
        <time>1989-12-30T23:59:59Z</time>
      </trkpt>
      <trkpt lat="37.843757" lon="-2.896455">
        <ele>1275.8</ele>
        <time>1989-12-30T23:59:59Z</time>
      </trkpt>
      <trkpt lat="37.844382" lon="-2.896125">
        <ele>1269.1</ele>
        <time>1989-12-30T23:59:59Z</time>
      </trkpt>
      <trkpt lat="37.844842" lon="-2.895358">
        <ele>1256.6</ele>
        <time>1989-12-30T23:59:59Z</time>
      </trkpt>
      <trkpt lat="37.845254" lon="-2.894525">
        <ele>1253.7</ele>
        <time>1989-12-30T23:59:59Z</time>
      </trkpt>
      <trkpt lat="37.845667" lon="-2.893975">
        <ele>1247.0</ele>
        <time>1989-12-30T23:59:59Z</time>
      </trkpt>
      <trkpt lat="37.845990" lon="-2.893669">
        <ele>1245.0</ele>
        <time>1989-12-30T23:59:59Z</time>
      </trkpt>
      <trkpt lat="37.846328" lon="-2.893191">
        <ele>1246.2</ele>
        <time>1989-12-30T23:59:59Z</time>
      </trkpt>
      <trkpt lat="37.846986" lon="-2.893250">
        <ele>1243.6</ele>
        <time>1989-12-30T23:59:59Z</time>
      </trkpt>
      <trkpt lat="37.847188" lon="-2.893078">
        <ele>1242.2</ele>
        <time>1989-12-30T23:59:59Z</time>
      </trkpt>
      <trkpt lat="37.847367" lon="-2.892733">
        <ele>1240.7</ele>
        <time>1989-12-30T23:59:59Z</time>
      </trkpt>
      <trkpt lat="37.847962" lon="-2.892289">
        <ele>1234.5</ele>
        <time>1989-12-30T23:59:59Z</time>
      </trkpt>
      <trkpt lat="37.848496" lon="-2.891846">
        <ele>1233.5</ele>
        <time>1989-12-30T23:59:59Z</time>
      </trkpt>
      <trkpt lat="37.849167" lon="-2.891398">
        <ele>1228.7</ele>
        <time>1989-12-30T23:59:59Z</time>
      </trkpt>
      <trkpt lat="37.850130" lon="-2.891444">
        <ele>1227.7</ele>
        <time>1989-12-30T23:59:59Z</time>
      </trkpt>
      <trkpt lat="37.850598" lon="-2.891556">
        <ele>1223.9</ele>
        <time>1989-12-30T23:59:59Z</time>
      </trkpt>
      <trkpt lat="37.851966" lon="-2.890674">
        <ele>1222.0</ele>
        <time>1989-12-30T23:59:59Z</time>
      </trkpt>
      <trkpt lat="37.853275" lon="-2.890276">
        <ele>1216.7</ele>
        <time>1989-12-30T23:59:59Z</time>
      </trkpt>
      <trkpt lat="37.854471" lon="-2.889572">
        <ele>1212.4</ele>
        <time>1989-12-30T23:59:59Z</time>
      </trkpt>
      <trkpt lat="37.854831" lon="-2.889424">
        <ele>1212.4</ele>
        <time>1989-12-30T23:59:59Z</time>
      </trkpt>
      <trkpt lat="37.856010" lon="-2.889337">
        <ele>1212.4</ele>
        <time>1989-12-30T23:59:59Z</time>
      </trkpt>
      <trkpt lat="37.856448" lon="-2.889425">
        <ele>1210.0</ele>
        <time>1989-12-30T23:59:59Z</time>
      </trkpt>
      <trkpt lat="37.856696" lon="-2.889592">
        <ele>1209.0</ele>
        <time>1989-12-30T23:59:59Z</time>
      </trkpt>
      <trkpt lat="37.857106" lon="-2.889743">
        <ele>1206.6</ele>
        <time>1989-12-30T23:59:59Z</time>
      </trkpt>
      <trkpt lat="37.857793" lon="-2.889758">
        <ele>1202.3</ele>
        <time>1989-12-30T23:59:59Z</time>
      </trkpt>
      <trkpt lat="37.858519" lon="-2.889849">
        <ele>1176.3</ele>
        <time>1989-12-30T23:59:59Z</time>
      </trkpt>
      <trkpt lat="37.858761" lon="-2.889634">
        <ele>1172.5</ele>
        <time>1989-12-30T23:59:59Z</time>
      </trkpt>
      <trkpt lat="37.859409" lon="-2.888836">
        <ele>1156.1</ele>
        <time>1989-12-30T23:59:59Z</time>
      </trkpt>
      <trkpt lat="37.859804" lon="-2.888265">
        <ele>1155.6</ele>
        <time>1989-12-30T23:59:59Z</time>
      </trkpt>
      <trkpt lat="37.860487" lon="-2.887600">
        <ele>1163.3</ele>
        <time>1989-12-30T23:59:59Z</time>
      </trkpt>
      <trkpt lat="37.860861" lon="-2.887490">
        <ele>1169.1</ele>
        <time>1989-12-30T23:59:59Z</time>
      </trkpt>
      <trkpt lat="37.861243" lon="-2.887593">
        <ele>1172.9</ele>
        <time>1989-12-30T23:59:59Z</time>
      </trkpt>
      <trkpt lat="37.861719" lon="-2.887420">
        <ele>1174.9</ele>
        <time>1989-12-30T23:59:59Z</time>
      </trkpt>
      <trkpt lat="37.861995" lon="-2.887433">
        <ele>1176.3</ele>
        <time>1989-12-30T23:59:59Z</time>
      </trkpt>
      <trkpt lat="37.862372" lon="-2.887346">
        <ele>1179.2</ele>
        <time>1989-12-30T23:59:59Z</time>
      </trkpt>
      <trkpt lat="37.863655" lon="-2.886285">
        <ele>1182.1</ele>
        <time>1989-12-30T23:59:59Z</time>
      </trkpt>
      <trkpt lat="37.864785" lon="-2.885803">
        <ele>1175.8</ele>
        <time>1989-12-30T23:59:59Z</time>
      </trkpt>
      <trkpt lat="37.865521" lon="-2.885415">
        <ele>1170.5</ele>
        <time>1989-12-30T23:59:59Z</time>
      </trkpt>
      <trkpt lat="37.865665" lon="-2.885270">
        <ele>1168.1</ele>
        <time>1989-12-30T23:59:59Z</time>
      </trkpt>
      <trkpt lat="37.865825" lon="-2.884944">
        <ele>1166.7</ele>
        <time>1989-12-30T23:59:59Z</time>
      </trkpt>
      <trkpt lat="37.866004" lon="-2.884809">
        <ele>1169.6</ele>
        <time>1989-12-30T23:59:59Z</time>
      </trkpt>
      <trkpt lat="37.866089" lon="-2.884779">
        <ele>1165.7</ele>
        <time>1989-12-30T23:59:59Z</time>
      </trkpt>
      <trkpt lat="37.866180" lon="-2.884816">
        <ele>1167.2</ele>
        <time>1989-12-30T23:59:59Z</time>
      </trkpt>
      <trkpt lat="37.866148" lon="-2.885391">
        <ele>1170.5</ele>
        <time>1989-12-30T23:59:59Z</time>
      </trkpt>
      <trkpt lat="37.866205" lon="-2.885476">
        <ele>1163.8</ele>
        <time>1989-12-30T23:59:59Z</time>
      </trkpt>
      <trkpt lat="37.866377" lon="-2.885419">
        <ele>1156.6</ele>
        <time>1989-12-30T23:59:59Z</time>
      </trkpt>
      <trkpt lat="37.866537" lon="-2.885090">
        <ele>1154.1</ele>
        <time>1989-12-30T23:59:59Z</time>
      </trkpt>
      <trkpt lat="37.866564" lon="-2.884863">
        <ele>1148.8</ele>
        <time>1989-12-30T23:59:59Z</time>
      </trkpt>
      <trkpt lat="37.866537" lon="-2.884454">
        <ele>1144.7</ele>
        <time>1989-12-30T23:59:59Z</time>
      </trkpt>
      <trkpt lat="37.866518" lon="-2.884237">
        <ele>1136.5</ele>
        <time>1989-12-30T23:59:59Z</time>
      </trkpt>
      <trkpt lat="37.866644" lon="-2.883646">
        <ele>1130.5</ele>
        <time>1989-12-30T23:59:59Z</time>
      </trkpt>
      <trkpt lat="37.866761" lon="-2.883453">
        <ele>1127.9</ele>
        <time>1989-12-30T23:59:59Z</time>
      </trkpt>
      <trkpt lat="37.867103" lon="-2.883134">
        <ele>1126.9</ele>
        <time>1989-12-30T23:59:59Z</time>
      </trkpt>
      <trkpt lat="37.867229" lon="-2.882645">
        <ele>1125.1</ele>
        <time>1989-12-30T23:59:59Z</time>
      </trkpt>
      <trkpt lat="37.867886" lon="-2.882075">
        <ele>1123.1</ele>
        <time>1989-12-30T23:59:59Z</time>
      </trkpt>
      <trkpt lat="37.868588" lon="-2.881256">
        <ele>1121.6</ele>
        <time>1989-12-30T23:59:59Z</time>
      </trkpt>
      <trkpt lat="37.868939" lon="-2.880936">
        <ele>1120.6</ele>
        <time>1989-12-30T23:59:59Z</time>
      </trkpt>
      <trkpt lat="37.869164" lon="-2.880732">
        <ele>1117.7</ele>
        <time>1989-12-30T23:59:59Z</time>
      </trkpt>
      <trkpt lat="37.869239" lon="-2.880591">
        <ele>1118.6</ele>
        <time>1989-12-30T23:59:59Z</time>
      </trkpt>
      <trkpt lat="37.869315" lon="-2.880437">
        <ele>1113.3</ele>
        <time>1989-12-30T23:59:59Z</time>
      </trkpt>
      <trkpt lat="37.869333" lon="-2.880392">
        <ele>1110.5</ele>
        <time>1989-12-30T23:59:59Z</time>
      </trkpt>
      <trkpt lat="37.869310" lon="-2.880278">
        <ele>1110.0</ele>
        <time>1989-12-30T23:59:59Z</time>
      </trkpt>
      <trkpt lat="37.869417" lon="-2.879913">
        <ele>1112.9</ele>
        <time>1989-12-30T23:59:59Z</time>
      </trkpt>
      <trkpt lat="37.869700" lon="-2.879463">
        <ele>1110.0</ele>
        <time>1989-12-30T23:59:59Z</time>
      </trkpt>
      <trkpt lat="37.870085" lon="-2.879227">
        <ele>1109.0</ele>
        <time>1989-12-30T23:59:59Z</time>
      </trkpt>
      <trkpt lat="37.870242" lon="-2.879063">
        <ele>1108.5</ele>
        <time>1989-12-30T23:59:59Z</time>
      </trkpt>
      <trkpt lat="37.870454" lon="-2.879080">
        <ele>1111.9</ele>
        <time>1989-12-30T23:59:59Z</time>
      </trkpt>
      <trkpt lat="37.870538" lon="-2.879006">
        <ele>1112.4</ele>
        <time>1989-12-30T23:59:59Z</time>
      </trkpt>
      <trkpt lat="37.870721" lon="-2.878473">
        <ele>1111.4</ele>
        <time>1989-12-30T23:59:59Z</time>
      </trkpt>
      <trkpt lat="37.870858" lon="-2.878108">
        <ele>1118.2</ele>
        <time>1989-12-30T23:59:59Z</time>
      </trkpt>
      <trkpt lat="37.870857" lon="-2.877373">
        <ele>1119.6</ele>
        <time>1989-12-30T23:59:59Z</time>
      </trkpt>
      <trkpt lat="37.870907" lon="-2.876862">
        <ele>1121.0</ele>
        <time>1989-12-30T23:59:59Z</time>
      </trkpt>
      <trkpt lat="37.870932" lon="-2.876335">
        <ele>1125.4</ele>
        <time>1989-12-30T23:59:59Z</time>
      </trkpt>
      <trkpt lat="37.871032" lon="-2.875778">
        <ele>1124.4</ele>
        <time>1989-12-30T23:59:59Z</time>
      </trkpt>
      <trkpt lat="37.871231" lon="-2.875489">
        <ele>1124.9</ele>
        <time>1989-12-30T23:59:59Z</time>
      </trkpt>
      <trkpt lat="37.871520" lon="-2.875104">
        <ele>1113.8</ele>
        <time>1989-12-30T23:59:59Z</time>
      </trkpt>
      <trkpt lat="37.871595" lon="-2.874867">
        <ele>1117.7</ele>
        <time>1989-12-30T23:59:59Z</time>
      </trkpt>
      <trkpt lat="37.871506" lon="-2.874471">
        <ele>1120.1</ele>
        <time>1989-12-30T23:59:59Z</time>
      </trkpt>
      <trkpt lat="37.871354" lon="-2.874282">
        <ele>1120.1</ele>
        <time>1989-12-30T23:59:59Z</time>
      </trkpt>
      <trkpt lat="37.871332" lon="-2.874040">
        <ele>1120.1</ele>
        <time>1989-12-30T23:59:59Z</time>
      </trkpt>
      <trkpt lat="37.871305" lon="-2.873838">
        <ele>1133.1</ele>
        <time>1989-12-30T23:59:59Z</time>
      </trkpt>
      <trkpt lat="37.871176" lon="-2.873666">
        <ele>1137.4</ele>
        <time>1989-12-30T23:59:59Z</time>
      </trkpt>
      <trkpt lat="37.871149" lon="-2.873573">
        <ele>1128.2</ele>
        <time>1989-12-30T23:59:59Z</time>
      </trkpt>
      <trkpt lat="37.871017" lon="-2.873346">
        <ele>1132.1</ele>
        <time>1989-12-30T23:59:59Z</time>
      </trkpt>
      <trkpt lat="37.871092" lon="-2.872333">
        <ele>1135.5</ele>
        <time>1989-12-30T23:59:59Z</time>
      </trkpt>
      <trkpt lat="37.870885" lon="-2.871890">
        <ele>1139.8</ele>
        <time>1989-12-30T23:59:59Z</time>
      </trkpt>
      <trkpt lat="37.870914" lon="-2.871527">
        <ele>1135.9</ele>
        <time>1989-12-30T23:59:59Z</time>
      </trkpt>
      <trkpt lat="37.870724" lon="-2.871176">
        <ele>1144.1</ele>
        <time>1989-12-30T23:59:59Z</time>
      </trkpt>
      <trkpt lat="37.870837" lon="-2.870665">
        <ele>1142.2</ele>
        <time>1989-12-30T23:59:59Z</time>
      </trkpt>
      <trkpt lat="37.871431" lon="-2.869929">
        <ele>1152.8</ele>
        <time>1989-12-30T23:59:59Z</time>
      </trkpt>
      <trkpt lat="37.872064" lon="-2.869337">
        <ele>1147.0</ele>
        <time>1989-12-30T23:59:59Z</time>
      </trkpt>
      <trkpt lat="37.872272" lon="-2.869227">
        <ele>1149.4</ele>
        <time>1989-12-30T23:59:59Z</time>
      </trkpt>
      <trkpt lat="37.872406" lon="-2.868921">
        <ele>1148.9</ele>
        <time>1989-12-30T23:59:59Z</time>
      </trkpt>
      <trkpt lat="37.872604" lon="-2.868382">
        <ele>1149.9</ele>
        <time>1989-12-30T23:59:59Z</time>
      </trkpt>
      <trkpt lat="37.872808" lon="-2.868247">
        <ele>1148.9</ele>
        <time>1989-12-30T23:59:59Z</time>
      </trkpt>
      <trkpt lat="37.872975" lon="-2.867904">
        <ele>1147.0</ele>
        <time>1989-12-30T23:59:59Z</time>
      </trkpt>
      <trkpt lat="37.873037" lon="-2.867535">
        <ele>1151.8</ele>
        <time>1989-12-30T23:59:59Z</time>
      </trkpt>
      <trkpt lat="37.873063" lon="-2.867273">
        <ele>1147.5</ele>
        <time>1989-12-30T23:59:59Z</time>
      </trkpt>
      <trkpt lat="37.872926" lon="-2.866803">
        <ele>1144.1</ele>
        <time>1989-12-30T23:59:59Z</time>
      </trkpt>
      <trkpt lat="37.872887" lon="-2.866210">
        <ele>1146.0</ele>
        <time>1989-12-30T23:59:59Z</time>
      </trkpt>
      <trkpt lat="37.872510" lon="-2.865373">
        <ele>1158.5</ele>
        <time>1989-12-30T23:59:59Z</time>
      </trkpt>
      <trkpt lat="37.872433" lon="-2.864960">
        <ele>1161.4</ele>
        <time>1989-12-30T23:59:59Z</time>
      </trkpt>
      <trkpt lat="37.872098" lon="-2.864369">
        <ele>1163.3</ele>
        <time>1989-12-30T23:59:59Z</time>
      </trkpt>
      <trkpt lat="37.872046" lon="-2.863915">
        <ele>1165.3</ele>
        <time>1989-12-30T23:59:59Z</time>
      </trkpt>
      <trkpt lat="37.872159" lon="-2.863697">
        <ele>1173.9</ele>
        <time>1989-12-30T23:59:59Z</time>
      </trkpt>
      <trkpt lat="37.872260" lon="-2.863426">
        <ele>1168.1</ele>
        <time>1989-12-30T23:59:59Z</time>
      </trkpt>
      <trkpt lat="37.872399" lon="-2.863248">
        <ele>1171.5</ele>
        <time>1989-12-30T23:59:59Z</time>
      </trkpt>
      <trkpt lat="37.872737" lon="-2.863026">
        <ele>1167.2</ele>
        <time>1989-12-30T23:59:59Z</time>
      </trkpt>
      <trkpt lat="37.872831" lon="-2.862813">
        <ele>1169.1</ele>
        <time>1989-12-30T23:59:59Z</time>
      </trkpt>
      <trkpt lat="37.872894" lon="-2.862445">
        <ele>1160.9</ele>
        <time>1989-12-30T23:59:59Z</time>
      </trkpt>
      <trkpt lat="37.872610" lon="-2.861566">
        <ele>1160.0</ele>
        <time>1989-12-30T23:59:59Z</time>
      </trkpt>
      <trkpt lat="37.872675" lon="-2.861220">
        <ele>1165.7</ele>
        <time>1989-12-30T23:59:59Z</time>
      </trkpt>
      <trkpt lat="37.873067" lon="-2.860548">
        <ele>1171.5</ele>
        <time>1989-12-30T23:59:59Z</time>
      </trkpt>
      <trkpt lat="37.873211" lon="-2.860145">
        <ele>1172.0</ele>
        <time>1989-12-30T23:59:59Z</time>
      </trkpt>
      <trkpt lat="37.873294" lon="-2.859606">
        <ele>1173.9</ele>
        <time>1989-12-30T23:59:59Z</time>
      </trkpt>
      <trkpt lat="37.873318" lon="-2.858887">
        <ele>1174.4</ele>
        <time>1989-12-30T23:59:59Z</time>
      </trkpt>
      <trkpt lat="37.873665" lon="-2.858481">
        <ele>1180.6</ele>
        <time>1989-12-30T23:59:59Z</time>
      </trkpt>
      <trkpt lat="37.874240" lon="-2.858445">
        <ele>1180.6</ele>
        <time>1989-12-30T23:59:59Z</time>
      </trkpt>
      <trkpt lat="37.874325" lon="-2.858388">
        <ele>1182.6</ele>
        <time>1989-12-30T23:59:59Z</time>
      </trkpt>
      <trkpt lat="37.874573" lon="-2.858119">
        <ele>1185.0</ele>
        <time>1989-12-30T23:59:59Z</time>
      </trkpt>
      <trkpt lat="37.874802" lon="-2.857442">
        <ele>1185.9</ele>
        <time>1989-12-30T23:59:59Z</time>
      </trkpt>
      <trkpt lat="37.875143" lon="-2.856878">
        <ele>1195.1</ele>
        <time>1989-12-30T23:59:59Z</time>
      </trkpt>
      <trkpt lat="37.875874" lon="-2.856298">
        <ele>1197.5</ele>
        <time>1989-12-30T23:59:59Z</time>
      </trkpt>
      <trkpt lat="37.875936" lon="-2.855884">
        <ele>1199.4</ele>
        <time>1989-12-30T23:59:59Z</time>
      </trkpt>
      <trkpt lat="37.876147" lon="-2.855687">
        <ele>1204.7</ele>
        <time>1989-12-30T23:59:59Z</time>
      </trkpt>
      <trkpt lat="37.876400" lon="-2.855569">
        <ele>1205.1</ele>
        <time>1989-12-30T23:59:59Z</time>
      </trkpt>
      <trkpt lat="37.876835" lon="-2.855540">
        <ele>1205.1</ele>
        <time>1989-12-30T23:59:59Z</time>
      </trkpt>
      <trkpt lat="37.877540" lon="-2.855377">
        <ele>1206.1</ele>
        <time>1989-12-30T23:59:59Z</time>
      </trkpt>
      <trkpt lat="37.878111" lon="-2.855620">
        <ele>1206.6</ele>
        <time>1989-12-30T23:59:59Z</time>
      </trkpt>
      <trkpt lat="37.878698" lon="-2.855541">
        <ele>1207.1</ele>
        <time>1989-12-30T23:59:59Z</time>
      </trkpt>
      <trkpt lat="37.879073" lon="-2.855870">
        <ele>1208.0</ele>
        <time>1989-12-30T23:59:59Z</time>
      </trkpt>
      <trkpt lat="37.879537" lon="-2.855915">
        <ele>1209.0</ele>
        <time>1989-12-30T23:59:59Z</time>
      </trkpt>
      <trkpt lat="37.880076" lon="-2.855679">
        <ele>1210.9</ele>
        <time>1989-12-30T23:59:59Z</time>
      </trkpt>
      <trkpt lat="37.880329" lon="-2.855247">
        <ele>1211.9</ele>
        <time>1989-12-30T23:59:59Z</time>
      </trkpt>
      <trkpt lat="37.880594" lon="-2.854975">
        <ele>1216.7</ele>
        <time>1989-12-30T23:59:59Z</time>
      </trkpt>
      <trkpt lat="37.881379" lon="-2.854910">
        <ele>1217.2</ele>
        <time>1989-12-30T23:59:59Z</time>
      </trkpt>
      <trkpt lat="37.882114" lon="-2.854524">
        <ele>1219.6</ele>
        <time>1989-12-30T23:59:59Z</time>
      </trkpt>
      <trkpt lat="37.882746" lon="-2.854507">
        <ele>1220.1</ele>
        <time>1989-12-30T23:59:59Z</time>
      </trkpt>
      <trkpt lat="37.883264" lon="-2.854281">
        <ele>1220.5</ele>
        <time>1989-12-30T23:59:59Z</time>
      </trkpt>
      <trkpt lat="37.883824" lon="-2.854081">
        <ele>1224.9</ele>
        <time>1989-12-30T23:59:59Z</time>
      </trkpt>
      <trkpt lat="37.884027" lon="-2.854101">
        <ele>1231.6</ele>
        <time>1989-12-30T23:59:59Z</time>
      </trkpt>
      <trkpt lat="37.884382" lon="-2.853907">
        <ele>1225.8</ele>
        <time>1989-12-30T23:59:59Z</time>
      </trkpt>
      <trkpt lat="37.884474" lon="-2.853689">
        <ele>1227.3</ele>
        <time>1989-12-30T23:59:59Z</time>
      </trkpt>
      <trkpt lat="37.884913" lon="-2.853347">
        <ele>1234.0</ele>
        <time>1989-12-30T23:59:59Z</time>
      </trkpt>
      <trkpt lat="37.885337" lon="-2.852861">
        <ele>1237.8</ele>
        <time>1989-12-30T23:59:59Z</time>
      </trkpt>
      <trkpt lat="37.885676" lon="-2.852626">
        <ele>1236.9</ele>
        <time>1989-12-30T23:59:59Z</time>
      </trkpt>
      <trkpt lat="37.885759" lon="-2.852585">
        <ele>1237.8</ele>
        <time>1989-12-30T23:59:59Z</time>
      </trkpt>
      <trkpt lat="37.886186" lon="-2.852835">
        <ele>1237.4</ele>
        <time>1989-12-30T23:59:59Z</time>
      </trkpt>
      <trkpt lat="37.886381" lon="-2.852876">
        <ele>1235.4</ele>
        <time>1989-12-30T23:59:59Z</time>
      </trkpt>
      <trkpt lat="37.886671" lon="-2.852793">
        <ele>1237.8</ele>
        <time>1989-12-30T23:59:59Z</time>
      </trkpt>
      <trkpt lat="37.887140" lon="-2.852779">
        <ele>1240.7</ele>
        <time>1989-12-30T23:59:59Z</time>
      </trkpt>
      <trkpt lat="37.887408" lon="-2.852484">
        <ele>1242.6</ele>
        <time>1989-12-30T23:59:59Z</time>
      </trkpt>
      <trkpt lat="37.888164" lon="-2.851254">
        <ele>1242.2</ele>
        <time>1989-12-30T23:59:59Z</time>
      </trkpt>
      <trkpt lat="37.888236" lon="-2.851155">
        <ele>1249.4</ele>
        <time>1989-12-30T23:59:59Z</time>
      </trkpt>
      <trkpt lat="37.888838" lon="-2.850649">
        <ele>1252.7</ele>
        <time>1989-12-30T23:59:59Z</time>
      </trkpt>
      <trkpt lat="37.889046" lon="-2.850616">
        <ele>1252.3</ele>
        <time>1989-12-30T23:59:59Z</time>
      </trkpt>
      <trkpt lat="37.889200" lon="-2.850456">
        <ele>1257.5</ele>
        <time>1989-12-30T23:59:59Z</time>
      </trkpt>
      <trkpt lat="37.889529" lon="-2.850260">
        <ele>1250.3</ele>
        <time>1989-12-30T23:59:59Z</time>
      </trkpt>
      <trkpt lat="37.889980" lon="-2.850129">
        <ele>1250.3</ele>
        <time>1989-12-30T23:59:59Z</time>
      </trkpt>
      <trkpt lat="37.890224" lon="-2.849928">
        <ele>1254.7</ele>
        <time>1989-12-30T23:59:59Z</time>
      </trkpt>
      <trkpt lat="37.890485" lon="-2.849588">
        <ele>1257.1</ele>
        <time>1989-12-30T23:59:59Z</time>
      </trkpt>
      <trkpt lat="37.890515" lon="-2.849482">
        <ele>1257.1</ele>
        <time>1989-12-30T23:59:59Z</time>
      </trkpt>
      <trkpt lat="37.890514" lon="-2.849383">
        <ele>1264.8</ele>
        <time>1989-12-30T23:59:59Z</time>
      </trkpt>
      <trkpt lat="37.890596" lon="-2.848990">
        <ele>1263.8</ele>
        <time>1989-12-30T23:59:59Z</time>
      </trkpt>
      <trkpt lat="37.890826" lon="-2.848830">
        <ele>1258.0</ele>
        <time>1989-12-30T23:59:59Z</time>
      </trkpt>
      <trkpt lat="37.891008" lon="-2.848846">
        <ele>1256.1</ele>
        <time>1989-12-30T23:59:59Z</time>
      </trkpt>
      <trkpt lat="37.891085" lon="-2.848780">
        <ele>1255.6</ele>
        <time>1989-12-30T23:59:59Z</time>
      </trkpt>
      <trkpt lat="37.891101" lon="-2.848428">
        <ele>1255.1</ele>
        <time>1989-12-30T23:59:59Z</time>
      </trkpt>
      <trkpt lat="37.891207" lon="-2.848209">
        <ele>1255.6</ele>
        <time>1989-12-30T23:59:59Z</time>
      </trkpt>
      <trkpt lat="37.891465" lon="-2.848088">
        <ele>1253.7</ele>
        <time>1989-12-30T23:59:59Z</time>
      </trkpt>
      <trkpt lat="37.891820" lon="-2.847668">
        <ele>1256.6</ele>
        <time>1989-12-30T23:59:59Z</time>
      </trkpt>
      <trkpt lat="37.892093" lon="-2.847548">
        <ele>1253.7</ele>
        <time>1989-12-30T23:59:59Z</time>
      </trkpt>
      <trkpt lat="37.892241" lon="-2.847370">
        <ele>1253.2</ele>
        <time>1989-12-30T23:59:59Z</time>
      </trkpt>
      <trkpt lat="37.892226" lon="-2.846633">
        <ele>1252.7</ele>
        <time>1989-12-30T23:59:59Z</time>
      </trkpt>
      <trkpt lat="37.892081" lon="-2.846315">
        <ele>1255.1</ele>
        <time>1989-12-30T23:59:59Z</time>
      </trkpt>
      <trkpt lat="37.892097" lon="-2.846021">
        <ele>1264.3</ele>
        <time>1989-12-30T23:59:59Z</time>
      </trkpt>
      <trkpt lat="37.892422" lon="-2.845948">
        <ele>1262.8</ele>
        <time>1989-12-30T23:59:59Z</time>
      </trkpt>
      <trkpt lat="37.892706" lon="-2.845616">
        <ele>1265.2</ele>
        <time>1989-12-30T23:59:59Z</time>
      </trkpt>
      <trkpt lat="37.892899" lon="-2.845315">
        <ele>1267.6</ele>
        <time>1989-12-30T23:59:59Z</time>
      </trkpt>
      <trkpt lat="37.893068" lon="-2.844704">
        <ele>1267.6</ele>
        <time>1989-12-30T23:59:59Z</time>
      </trkpt>
      <trkpt lat="37.893310" lon="-2.844262">
        <ele>1267.6</ele>
        <time>1989-12-30T23:59:59Z</time>
      </trkpt>
      <trkpt lat="37.893454" lon="-2.844083">
        <ele>1271.5</ele>
        <time>1989-12-30T23:59:59Z</time>
      </trkpt>
      <trkpt lat="37.893897" lon="-2.843814">
        <ele>1273.4</ele>
        <time>1989-12-30T23:59:59Z</time>
      </trkpt>
      <trkpt lat="37.894201" lon="-2.843236">
        <ele>1272.4</ele>
        <time>1989-12-30T23:59:59Z</time>
      </trkpt>
      <trkpt lat="37.894377" lon="-2.843027">
        <ele>1275.3</ele>
        <time>1989-12-30T23:59:59Z</time>
      </trkpt>
      <trkpt lat="37.894423" lon="-2.843112">
        <ele>1276.3</ele>
        <time>1989-12-30T23:59:59Z</time>
      </trkpt>
      <trkpt lat="37.894496" lon="-2.843017">
        <ele>1277.7</ele>
        <time>1989-12-30T23:59:59Z</time>
      </trkpt>
      <trkpt lat="37.894655" lon="-2.842655">
        <ele>1277.7</ele>
        <time>1989-12-30T23:59:59Z</time>
      </trkpt>
      <trkpt lat="37.894807" lon="-2.842069">
        <ele>1283.5</ele>
        <time>1989-12-30T23:59:59Z</time>
      </trkpt>
      <trkpt lat="37.894966" lon="-2.841915">
        <ele>1287.8</ele>
        <time>1989-12-30T23:59:59Z</time>
      </trkpt>
      <trkpt lat="37.895331" lon="-2.841720">
        <ele>1288.3</ele>
        <time>1989-12-30T23:59:59Z</time>
      </trkpt>
      <trkpt lat="37.895766" lon="-2.841224">
        <ele>1287.8</ele>
        <time>1989-12-30T23:59:59Z</time>
      </trkpt>
      <trkpt lat="37.896219" lon="-2.841008">
        <ele>1286.4</ele>
        <time>1989-12-30T23:59:59Z</time>
      </trkpt>
      <trkpt lat="37.896400" lon="-2.840890">
        <ele>1293.1</ele>
        <time>1989-12-30T23:59:59Z</time>
      </trkpt>
      <trkpt lat="37.896664" lon="-2.840763">
        <ele>1289.3</ele>
        <time>1989-12-30T23:59:59Z</time>
      </trkpt>
      <trkpt lat="37.896826" lon="-2.840587">
        <ele>1287.3</ele>
        <time>1989-12-30T23:59:59Z</time>
      </trkpt>
      <trkpt lat="37.896985" lon="-2.840406">
        <ele>1292.6</ele>
        <time>1989-12-30T23:59:59Z</time>
      </trkpt>
      <trkpt lat="37.897364" lon="-2.840175">
        <ele>1292.6</ele>
        <time>1989-12-30T23:59:59Z</time>
      </trkpt>
      <trkpt lat="37.897525" lon="-2.839800">
        <ele>1298.4</ele>
        <time>1989-12-30T23:59:59Z</time>
      </trkpt>
      <trkpt lat="37.897610" lon="-2.839704">
        <ele>1298.9</ele>
        <time>1989-12-30T23:59:59Z</time>
      </trkpt>
      <trkpt lat="37.897714" lon="-2.839685">
        <ele>1297.4</ele>
        <time>1989-12-30T23:59:59Z</time>
      </trkpt>
      <trkpt lat="37.898044" lon="-2.839645">
        <ele>1297.9</ele>
        <time>1989-12-30T23:59:59Z</time>
      </trkpt>
      <trkpt lat="37.898447" lon="-2.839690">
        <ele>1300.3</ele>
        <time>1989-12-30T23:59:59Z</time>
      </trkpt>
      <trkpt lat="37.898550" lon="-2.839669">
        <ele>1301.8</ele>
        <time>1989-12-30T23:59:59Z</time>
      </trkpt>
      <trkpt lat="37.898638" lon="-2.839633">
        <ele>1312.3</ele>
        <time>1989-12-30T23:59:59Z</time>
      </trkpt>
      <trkpt lat="37.898696" lon="-2.839748">
        <ele>1308.5</ele>
        <time>1989-12-30T23:59:59Z</time>
      </trkpt>
      <trkpt lat="37.898675" lon="-2.839874">
        <ele>1308.5</ele>
        <time>1989-12-30T23:59:59Z</time>
      </trkpt>
      <trkpt lat="37.898539" lon="-2.840022">
        <ele>1294.1</ele>
        <time>1989-12-30T23:59:59Z</time>
      </trkpt>
      <trkpt lat="37.898202" lon="-2.840383">
        <ele>1309.0</ele>
        <time>1989-12-30T23:59:59Z</time>
      </trkpt>
      <trkpt lat="37.897920" lon="-2.840285">
        <ele>1314.3</ele>
        <time>1989-12-30T23:59:59Z</time>
      </trkpt>
      <trkpt lat="37.897740" lon="-2.840393">
        <ele>1311.9</ele>
        <time>1989-12-30T23:59:59Z</time>
      </trkpt>
      <trkpt lat="37.897623" lon="-2.840662">
        <ele>1314.7</ele>
        <time>1989-12-30T23:59:59Z</time>
      </trkpt>
      <trkpt lat="37.897414" lon="-2.840928">
        <ele>1317.6</ele>
        <time>1989-12-30T23:59:59Z</time>
      </trkpt>
      <trkpt lat="37.897428" lon="-2.841036">
        <ele>1322.4</ele>
        <time>1989-12-30T23:59:59Z</time>
      </trkpt>
      <trkpt lat="37.897340" lon="-2.841248">
        <ele>1323.4</ele>
        <time>1989-12-30T23:59:59Z</time>
      </trkpt>
      <trkpt lat="37.897108" lon="-2.841467">
        <ele>1323.9</ele>
        <time>1989-12-30T23:59:59Z</time>
      </trkpt>
      <trkpt lat="37.896898" lon="-2.842180">
        <ele>1332.5</ele>
        <time>1989-12-30T23:59:59Z</time>
      </trkpt>
      <trkpt lat="37.896597" lon="-2.842320">
        <ele>1340.2</ele>
        <time>1989-12-30T23:59:59Z</time>
      </trkpt>
      <trkpt lat="37.896248" lon="-2.842523">
        <ele>1338.3</ele>
        <time>1989-12-30T23:59:59Z</time>
      </trkpt>
      <trkpt lat="37.895884" lon="-2.842920">
        <ele>1343.6</ele>
        <time>1989-12-30T23:59:59Z</time>
      </trkpt>
      <trkpt lat="37.895810" lon="-2.843162">
        <ele>1347.4</ele>
        <time>1989-12-30T23:59:59Z</time>
      </trkpt>
      <trkpt lat="37.895852" lon="-2.843727">
        <ele>1358.0</ele>
        <time>1989-12-30T23:59:59Z</time>
      </trkpt>
      <trkpt lat="37.895678" lon="-2.844011">
        <ele>1357.0</ele>
        <time>1989-12-30T23:59:59Z</time>
      </trkpt>
      <trkpt lat="37.895561" lon="-2.844357">
        <ele>1358.5</ele>
        <time>1989-12-30T23:59:59Z</time>
      </trkpt>
      <trkpt lat="37.895797" lon="-2.844233">
        <ele>1363.8</ele>
        <time>1989-12-30T23:59:59Z</time>
      </trkpt>
      <trkpt lat="37.896149" lon="-2.843890">
        <ele>1364.2</ele>
        <time>1989-12-30T23:59:59Z</time>
      </trkpt>
      <trkpt lat="37.896329" lon="-2.843724">
        <ele>1369.5</ele>
        <time>1989-12-30T23:59:59Z</time>
      </trkpt>
      <trkpt lat="37.896776" lon="-2.843608">
        <ele>1378.2</ele>
        <time>1989-12-30T23:59:59Z</time>
      </trkpt>
      <trkpt lat="37.897065" lon="-2.843690">
        <ele>1382.0</ele>
        <time>1989-12-30T23:59:59Z</time>
      </trkpt>
      <trkpt lat="37.897364" lon="-2.843641">
        <ele>1380.1</ele>
        <time>1989-12-30T23:59:59Z</time>
      </trkpt>
      <trkpt lat="37.897559" lon="-2.843565">
        <ele>1383.5</ele>
        <time>1989-12-30T23:59:59Z</time>
      </trkpt>
      <trkpt lat="37.897905" lon="-2.843301">
        <ele>1391.2</ele>
        <time>1989-12-30T23:59:59Z</time>
      </trkpt>
      <trkpt lat="37.898477" lon="-2.843227">
        <ele>1401.3</ele>
        <time>1989-12-30T23:59:59Z</time>
      </trkpt>
      <trkpt lat="37.898893" lon="-2.843263">
        <ele>1403.2</ele>
        <time>1989-12-30T23:59:59Z</time>
      </trkpt>
      <trkpt lat="37.899343" lon="-2.843233">
        <ele>1414.7</ele>
        <time>1989-12-30T23:59:59Z</time>
      </trkpt>
      <trkpt lat="37.899605" lon="-2.843382">
        <ele>1416.2</ele>
        <time>1989-12-30T23:59:59Z</time>
      </trkpt>
      <trkpt lat="37.900003" lon="-2.843515">
        <ele>1425.3</ele>
        <time>1989-12-30T23:59:59Z</time>
      </trkpt>
      <trkpt lat="37.900262" lon="-2.844228">
        <ele>1436.8</ele>
        <time>1989-12-30T23:59:59Z</time>
      </trkpt>
      <trkpt lat="37.900444" lon="-2.844497">
        <ele>1438.3</ele>
        <time>1989-12-30T23:59:59Z</time>
      </trkpt>
      <trkpt lat="37.900532" lon="-2.844542">
        <ele>1439.7</ele>
        <time>1989-12-30T23:59:59Z</time>
      </trkpt>
      <trkpt lat="37.900634" lon="-2.844577">
        <ele>1440.2</ele>
        <time>1989-12-30T23:59:59Z</time>
      </trkpt>
      <trkpt lat="37.900732" lon="-2.844550">
        <ele>1447.4</ele>
        <time>1989-12-30T23:59:59Z</time>
      </trkpt>
      <trkpt lat="37.900984" lon="-2.844204">
        <ele>1456.1</ele>
        <time>1989-12-30T23:59:59Z</time>
      </trkpt>
      <trkpt lat="37.901155" lon="-2.844270">
        <ele>1459.9</ele>
        <time>1989-12-30T23:59:59Z</time>
      </trkpt>
      <trkpt lat="37.901209" lon="-2.844366">
        <ele>1460.4</ele>
        <time>1989-12-30T23:59:59Z</time>
      </trkpt>
      <trkpt lat="37.901149" lon="-2.844604">
        <ele>1462.8</ele>
        <time>1989-12-30T23:59:59Z</time>
      </trkpt>
      <trkpt lat="37.900361" lon="-2.845679">
        <ele>1479.6</ele>
        <time>1989-12-30T23:59:59Z</time>
      </trkpt>
      <trkpt lat="37.900302" lon="-2.846401">
        <ele>1481.5</ele>
        <time>1989-12-30T23:59:59Z</time>
      </trkpt>
      <trkpt lat="37.900332" lon="-2.846946">
        <ele>1480.6</ele>
        <time>1989-12-30T23:59:59Z</time>
      </trkpt>
      <trkpt lat="37.900223" lon="-2.847141">
        <ele>1481.5</ele>
        <time>1989-12-30T23:59:59Z</time>
      </trkpt>
      <trkpt lat="37.900274" lon="-2.847480">
        <ele>1481.0</ele>
        <time>1989-12-30T23:59:59Z</time>
      </trkpt>
      <trkpt lat="37.900150" lon="-2.848206">
        <ele>1481.5</ele>
        <time>1989-12-30T23:59:59Z</time>
      </trkpt>
      <trkpt lat="37.900251" lon="-2.848544">
        <ele>1480.1</ele>
        <time>1989-12-30T23:59:59Z</time>
      </trkpt>
      <trkpt lat="37.900449" lon="-2.848669">
        <ele>1478.6</ele>
        <time>1989-12-30T23:59:59Z</time>
      </trkpt>
      <trkpt lat="37.900774" lon="-2.848755">
        <ele>1482.5</ele>
        <time>1989-12-30T23:59:59Z</time>
      </trkpt>
      <trkpt lat="37.900836" lon="-2.848889">
        <ele>1494.5</ele>
        <time>1989-12-30T23:59:59Z</time>
      </trkpt>
      <trkpt lat="37.900512" lon="-2.849300">
        <ele>1494.5</ele>
        <time>1989-12-30T23:59:59Z</time>
      </trkpt>
      <trkpt lat="37.900442" lon="-2.849781">
        <ele>1499.3</ele>
        <time>1989-12-30T23:59:59Z</time>
      </trkpt>
      <trkpt lat="37.900233" lon="-2.850187">
        <ele>1499.8</ele>
        <time>1989-12-30T23:59:59Z</time>
      </trkpt>
      <trkpt lat="37.899656" lon="-2.850832">
        <ele>1498.4</ele>
        <time>1989-12-30T23:59:59Z</time>
      </trkpt>
      <trkpt lat="37.899490" lon="-2.851121">
        <ele>1497.4</ele>
        <time>1989-12-30T23:59:59Z</time>
      </trkpt>
      <trkpt lat="37.899504" lon="-2.851121">
        <ele>1500.8</ele>
        <time>1989-12-30T23:59:59Z</time>
      </trkpt>
      <trkpt lat="37.899468" lon="-2.851182">
        <ele>1495.5</ele>
        <time>1989-12-30T23:59:59Z</time>
      </trkpt>
      <trkpt lat="37.899254" lon="-2.851413">
        <ele>1496.4</ele>
        <time>1989-12-30T23:59:59Z</time>
      </trkpt>
      <trkpt lat="37.898873" lon="-2.851788">
        <ele>1498.8</ele>
        <time>1989-12-30T23:59:59Z</time>
      </trkpt>
      <trkpt lat="37.899080" lon="-2.851650">
        <ele>1491.1</ele>
        <time>1989-12-30T23:59:59Z</time>
      </trkpt>
      <trkpt lat="37.899331" lon="-2.851376">
        <ele>1490.2</ele>
        <time>1989-12-30T23:59:59Z</time>
      </trkpt>
      <trkpt lat="37.899513" lon="-2.851066">
        <ele>1494.0</ele>
        <time>1989-12-30T23:59:59Z</time>
      </trkpt>
      <trkpt lat="37.899658" lon="-2.850830">
        <ele>1494.0</ele>
        <time>1989-12-30T23:59:59Z</time>
      </trkpt>
      <trkpt lat="37.900134" lon="-2.850203">
        <ele>1494.0</ele>
        <time>1989-12-30T23:59:59Z</time>
      </trkpt>
      <trkpt lat="37.900881" lon="-2.848857">
        <ele>1493.5</ele>
        <time>1989-12-30T23:59:59Z</time>
      </trkpt>
      <trkpt lat="37.901378" lon="-2.848604">
        <ele>1492.6</ele>
        <time>1989-12-30T23:59:59Z</time>
      </trkpt>
      <trkpt lat="37.901494" lon="-2.848540">
        <ele>1492.6</ele>
        <time>1989-12-30T23:59:59Z</time>
      </trkpt>
      <trkpt lat="37.901740" lon="-2.848401">
        <ele>1492.1</ele>
        <time>1989-12-30T23:59:59Z</time>
      </trkpt>
      <trkpt lat="37.902471" lon="-2.847988">
        <ele>1492.1</ele>
        <time>1989-12-30T23:59:59Z</time>
      </trkpt>
      <trkpt lat="37.902870" lon="-2.847849">
        <ele>1493.1</ele>
        <time>1989-12-30T23:59:59Z</time>
      </trkpt>
      <trkpt lat="37.902973" lon="-2.847826">
        <ele>1493.1</ele>
        <time>1989-12-30T23:59:59Z</time>
      </trkpt>
      <trkpt lat="37.903276" lon="-2.847771">
        <ele>1493.1</ele>
        <time>1989-12-30T23:59:59Z</time>
      </trkpt>
      <trkpt lat="37.903763" lon="-2.847631">
        <ele>1493.5</ele>
        <time>1989-12-30T23:59:59Z</time>
      </trkpt>
      <trkpt lat="37.903980" lon="-2.847571">
        <ele>1494.0</ele>
        <time>1989-12-30T23:59:59Z</time>
      </trkpt>
      <trkpt lat="37.904089" lon="-2.847530">
        <ele>1494.0</ele>
        <time>1989-12-30T23:59:59Z</time>
      </trkpt>
      <trkpt lat="37.904189" lon="-2.847487">
        <ele>1494.0</ele>
        <time>1989-12-30T23:59:59Z</time>
      </trkpt>
      <trkpt lat="37.905151" lon="-2.846885">
        <ele>1504.1</ele>
        <time>1989-12-30T23:59:59Z</time>
      </trkpt>
      <trkpt lat="37.905454" lon="-2.847452">
        <ele>1503.2</ele>
        <time>1989-12-30T23:59:59Z</time>
      </trkpt>
      <trkpt lat="37.905736" lon="-2.847632">
        <ele>1498.8</ele>
        <time>1989-12-30T23:59:59Z</time>
      </trkpt>
      <trkpt lat="37.906017" lon="-2.847811">
        <ele>1499.3</ele>
        <time>1989-12-30T23:59:59Z</time>
      </trkpt>
      <trkpt lat="37.906262" lon="-2.847738">
        <ele>1499.8</ele>
        <time>1989-12-30T23:59:59Z</time>
      </trkpt>
      <trkpt lat="37.906448" lon="-2.847708">
        <ele>1499.8</ele>
        <time>1989-12-30T23:59:59Z</time>
      </trkpt>
      <trkpt lat="37.906565" lon="-2.847604">
        <ele>1499.8</ele>
        <time>1989-12-30T23:59:59Z</time>
      </trkpt>
      <trkpt lat="37.906717" lon="-2.847500">
        <ele>1499.8</ele>
        <time>1989-12-30T23:59:59Z</time>
      </trkpt>
      <trkpt lat="37.907242" lon="-2.847338">
        <ele>1499.8</ele>
        <time>1989-12-30T23:59:59Z</time>
      </trkpt>
      <trkpt lat="37.907533" lon="-2.847249">
        <ele>1499.8</ele>
        <time>1989-12-30T23:59:59Z</time>
      </trkpt>
      <trkpt lat="37.907896" lon="-2.847410">
        <ele>1499.8</ele>
        <time>1989-12-30T23:59:59Z</time>
      </trkpt>
      <trkpt lat="37.908246" lon="-2.847409">
        <ele>1501.2</ele>
        <time>1989-12-30T23:59:59Z</time>
      </trkpt>
      <trkpt lat="37.908538" lon="-2.847482">
        <ele>1502.7</ele>
        <time>1989-12-30T23:59:59Z</time>
      </trkpt>
      <trkpt lat="37.908671" lon="-2.847437">
        <ele>1504.6</ele>
        <time>1989-12-30T23:59:59Z</time>
      </trkpt>
      <trkpt lat="37.908836" lon="-2.847502">
        <ele>1519.0</ele>
        <time>1989-12-30T23:59:59Z</time>
      </trkpt>
      <trkpt lat="37.908960" lon="-2.847591">
        <ele>1521.9</ele>
        <time>1989-12-30T23:59:59Z</time>
      </trkpt>
      <trkpt lat="37.909084" lon="-2.847553">
        <ele>1529.6</ele>
        <time>1989-12-30T23:59:59Z</time>
      </trkpt>
      <trkpt lat="37.909155" lon="-2.847501">
        <ele>1524.8</ele>
        <time>1989-12-30T23:59:59Z</time>
      </trkpt>
      <trkpt lat="37.909285" lon="-2.847386">
        <ele>1523.3</ele>
        <time>1989-12-30T23:59:59Z</time>
      </trkpt>
      <trkpt lat="37.909697" lon="-2.847018">
        <ele>1522.9</ele>
        <time>1989-12-30T23:59:59Z</time>
      </trkpt>
      <trkpt lat="37.909820" lon="-2.846891">
        <ele>1523.8</ele>
        <time>1989-12-30T23:59:59Z</time>
      </trkpt>
      <trkpt lat="37.910069" lon="-2.846687">
        <ele>1526.2</ele>
        <time>1989-12-30T23:59:59Z</time>
      </trkpt>
      <trkpt lat="37.910307" lon="-2.846562">
        <ele>1525.7</ele>
        <time>1989-12-30T23:59:59Z</time>
      </trkpt>
      <trkpt lat="37.910420" lon="-2.846504">
        <ele>1524.8</ele>
        <time>1989-12-30T23:59:59Z</time>
      </trkpt>
      <trkpt lat="37.910985" lon="-2.846215">
        <ele>1525.7</ele>
        <time>1989-12-30T23:59:59Z</time>
      </trkpt>
      <trkpt lat="37.911373" lon="-2.846003">
        <ele>1526.2</ele>
        <time>1989-12-30T23:59:59Z</time>
      </trkpt>
      <trkpt lat="37.911490" lon="-2.845855">
        <ele>1527.2</ele>
        <time>1989-12-30T23:59:59Z</time>
      </trkpt>
      <trkpt lat="37.911782" lon="-2.845752">
        <ele>1526.7</ele>
        <time>1989-12-30T23:59:59Z</time>
      </trkpt>
      <trkpt lat="37.912038" lon="-2.845854">
        <ele>1526.2</ele>
        <time>1989-12-30T23:59:59Z</time>
      </trkpt>
      <trkpt lat="37.912038" lon="-2.845854">
        <ele>1528.6</ele>
        <time>1989-12-30T23:59:59Z</time>
      </trkpt>
      <trkpt lat="37.912214" lon="-2.845957">
        <ele>1527.7</ele>
        <time>1989-12-30T23:59:59Z</time>
      </trkpt>
      <trkpt lat="37.912408" lon="-2.846040">
        <ele>1528.2</ele>
        <time>1989-12-30T23:59:59Z</time>
      </trkpt>
      <trkpt lat="37.912408" lon="-2.846040">
        <ele>1528.2</ele>
        <time>1989-12-30T23:59:59Z</time>
      </trkpt>
      <trkpt lat="37.912903" lon="-2.846147">
        <ele>1528.6</ele>
        <time>1989-12-30T23:59:59Z</time>
      </trkpt>
      <trkpt lat="37.913031" lon="-2.846235">
        <ele>1529.6</ele>
        <time>1989-12-30T23:59:59Z</time>
      </trkpt>
      <trkpt lat="37.913210" lon="-2.846234">
        <ele>1531.5</ele>
        <time>1989-12-30T23:59:59Z</time>
      </trkpt>
      <trkpt lat="37.913210" lon="-2.846234">
        <ele>1545.9</ele>
        <time>1989-12-30T23:59:59Z</time>
      </trkpt>
      <trkpt lat="37.913581" lon="-2.846288">
        <ele>1543.5</ele>
        <time>1989-12-30T23:59:59Z</time>
      </trkpt>
      <trkpt lat="37.913892" lon="-2.846248">
        <ele>1544.0</ele>
        <time>1989-12-30T23:59:59Z</time>
      </trkpt>
      <trkpt lat="37.914502" lon="-2.845923">
        <ele>1538.2</ele>
        <time>1989-12-30T23:59:59Z</time>
      </trkpt>
      <trkpt lat="37.915014" lon="-2.845318">
        <ele>1536.8</ele>
        <time>1989-12-30T23:59:59Z</time>
      </trkpt>
      <trkpt lat="37.915213" lon="-2.845288">
        <ele>1537.3</ele>
        <time>1989-12-30T23:59:59Z</time>
      </trkpt>
      <trkpt lat="37.916031" lon="-2.845581">
        <ele>1537.3</ele>
        <time>1989-12-30T23:59:59Z</time>
      </trkpt>
      <trkpt lat="37.916544" lon="-2.845270">
        <ele>1536.8</ele>
        <time>1989-12-30T23:59:59Z</time>
      </trkpt>
      <trkpt lat="37.916473" lon="-2.844431">
        <ele>1537.3</ele>
        <time>1989-12-30T23:59:59Z</time>
      </trkpt>
      <trkpt lat="37.917677" lon="-2.844180">
        <ele>1532.5</ele>
        <time>1989-12-30T23:59:59Z</time>
      </trkpt>
      <trkpt lat="37.918883" lon="-2.843672">
        <ele>1552.2</ele>
        <time>1989-12-30T23:59:59Z</time>
      </trkpt>
      <trkpt lat="37.919763" lon="-2.843465">
        <ele>1552.7</ele>
        <time>1989-12-30T23:59:59Z</time>
      </trkpt>
      <trkpt lat="37.920272" lon="-2.843299">
        <ele>1552.2</ele>
        <time>1989-12-30T23:59:59Z</time>
      </trkpt>
      <trkpt lat="37.920387" lon="-2.843286">
        <ele>1552.2</ele>
        <time>1989-12-30T23:59:59Z</time>
      </trkpt>
      <trkpt lat="37.920520" lon="-2.843280">
        <ele>1551.7</ele>
        <time>1989-12-30T23:59:59Z</time>
      </trkpt>
      <trkpt lat="37.920649" lon="-2.843283">
        <ele>1550.7</ele>
        <time>1989-12-30T23:59:59Z</time>
      </trkpt>
      <trkpt lat="37.921284" lon="-2.843238">
        <ele>1550.3</ele>
        <time>1989-12-30T23:59:59Z</time>
      </trkpt>
      <trkpt lat="37.922534" lon="-2.843169">
        <ele>1550.3</ele>
        <time>1989-12-30T23:59:59Z</time>
      </trkpt>
      <trkpt lat="37.922974" lon="-2.842869">
        <ele>1550.3</ele>
        <time>1989-12-30T23:59:59Z</time>
      </trkpt>
      <trkpt lat="37.923417" lon="-2.842411">
        <ele>1550.3</ele>
        <time>1989-12-30T23:59:59Z</time>
      </trkpt>
      <trkpt lat="37.923494" lon="-2.841896">
        <ele>1550.3</ele>
        <time>1989-12-30T23:59:59Z</time>
      </trkpt>
      <trkpt lat="37.923649" lon="-2.841580">
        <ele>1544.5</ele>
        <time>1989-12-30T23:59:59Z</time>
      </trkpt>
      <trkpt lat="37.923750" lon="-2.841526">
        <ele>1544.5</ele>
        <time>1989-12-30T23:59:59Z</time>
      </trkpt>
      <trkpt lat="37.923858" lon="-2.841476">
        <ele>1544.5</ele>
        <time>1989-12-30T23:59:59Z</time>
      </trkpt>
      <trkpt lat="37.924049" lon="-2.841389">
        <ele>1544.5</ele>
        <time>1989-12-30T23:59:59Z</time>
      </trkpt>
      <trkpt lat="37.924239" lon="-2.841304">
        <ele>1544.5</ele>
        <time>1989-12-30T23:59:59Z</time>
      </trkpt>
      <trkpt lat="37.924802" lon="-2.841068">
        <ele>1544.5</ele>
        <time>1989-12-30T23:59:59Z</time>
      </trkpt>
      <trkpt lat="37.925084" lon="-2.840787">
        <ele>1567.6</ele>
        <time>1989-12-30T23:59:59Z</time>
      </trkpt>
      <trkpt lat="37.924945" lon="-2.840176">
        <ele>1567.6</ele>
        <time>1989-12-30T23:59:59Z</time>
      </trkpt>
      <trkpt lat="37.924616" lon="-2.840066">
        <ele>1569.0</ele>
        <time>1989-12-30T23:59:59Z</time>
      </trkpt>
      <trkpt lat="37.924464" lon="-2.839771">
        <ele>1569.0</ele>
        <time>1989-12-30T23:59:59Z</time>
      </trkpt>
      <trkpt lat="37.924381" lon="-2.838843">
        <ele>1569.0</ele>
        <time>1989-12-30T23:59:59Z</time>
      </trkpt>
      <trkpt lat="37.924158" lon="-2.838195">
        <ele>1570.9</ele>
        <time>1989-12-30T23:59:59Z</time>
      </trkpt>
      <trkpt lat="37.923772" lon="-2.837945">
        <ele>1571.4</ele>
        <time>1989-12-30T23:59:59Z</time>
      </trkpt>
      <trkpt lat="37.923457" lon="-2.837739">
        <ele>1571.9</ele>
        <time>1989-12-30T23:59:59Z</time>
      </trkpt>
      <trkpt lat="37.923282" lon="-2.837533">
        <ele>1571.9</ele>
        <time>1989-12-30T23:59:59Z</time>
      </trkpt>
      <trkpt lat="37.923118" lon="-2.837593">
        <ele>1571.9</ele>
        <time>1989-12-30T23:59:59Z</time>
      </trkpt>
      <trkpt lat="37.922698" lon="-2.837977">
        <ele>1572.4</ele>
        <time>1989-12-30T23:59:59Z</time>
      </trkpt>
      <trkpt lat="37.922384" lon="-2.837966">
        <ele>1572.4</ele>
        <time>1989-12-30T23:59:59Z</time>
      </trkpt>
      <trkpt lat="37.922196" lon="-2.837845">
        <ele>1572.9</ele>
        <time>1989-12-30T23:59:59Z</time>
      </trkpt>
      <trkpt lat="37.922114" lon="-2.837580">
        <ele>1573.3</ele>
        <time>1989-12-30T23:59:59Z</time>
      </trkpt>
      <trkpt lat="37.921986" lon="-2.837433">
        <ele>1573.3</ele>
        <time>1989-12-30T23:59:59Z</time>
      </trkpt>
      <trkpt lat="37.921822" lon="-2.837432">
        <ele>1574.3</ele>
        <time>1989-12-30T23:59:59Z</time>
      </trkpt>
      <trkpt lat="37.921717" lon="-2.837257">
        <ele>1574.8</ele>
        <time>1989-12-30T23:59:59Z</time>
      </trkpt>
      <trkpt lat="37.921699" lon="-2.837056">
        <ele>1574.8</ele>
        <time>1989-12-30T23:59:59Z</time>
      </trkpt>
      <trkpt lat="37.921972" lon="-2.836638">
        <ele>1578.2</ele>
        <time>1989-12-30T23:59:59Z</time>
      </trkpt>
      <trkpt lat="37.921771" lon="-2.835965">
        <ele>1587.8</ele>
        <time>1989-12-30T23:59:59Z</time>
      </trkpt>
      <trkpt lat="37.921713" lon="-2.835826">
        <ele>1587.3</ele>
        <time>1989-12-30T23:59:59Z</time>
      </trkpt>
      <trkpt lat="37.921609" lon="-2.835444">
        <ele>1587.3</ele>
        <time>1989-12-30T23:59:59Z</time>
      </trkpt>
      <trkpt lat="37.921387" lon="-2.835342">
        <ele>1586.8</ele>
        <time>1989-12-30T23:59:59Z</time>
      </trkpt>
      <trkpt lat="37.921046" lon="-2.835393">
        <ele>1586.8</ele>
        <time>1989-12-30T23:59:59Z</time>
      </trkpt>
      <trkpt lat="37.920936" lon="-2.835393">
        <ele>1586.3</ele>
        <time>1989-12-30T23:59:59Z</time>
      </trkpt>
      <trkpt lat="37.920799" lon="-2.835446">
        <ele>1585.3</ele>
        <time>1989-12-30T23:59:59Z</time>
      </trkpt>
      <trkpt lat="37.920700" lon="-2.835515">
        <ele>1584.3</ele>
        <time>1989-12-30T23:59:59Z</time>
      </trkpt>
      <trkpt lat="37.920619" lon="-2.835571">
        <ele>1584.3</ele>
        <time>1989-12-30T23:59:59Z</time>
      </trkpt>
      <trkpt lat="37.920504" lon="-2.835645">
        <ele>1582.0</ele>
        <time>1989-12-30T23:59:59Z</time>
      </trkpt>
      <trkpt lat="37.920380" lon="-2.835647">
        <ele>1582.5</ele>
        <time>1989-12-30T23:59:59Z</time>
      </trkpt>
      <trkpt lat="37.920262" lon="-2.835632">
        <ele>1582.5</ele>
        <time>1989-12-30T23:59:59Z</time>
      </trkpt>
      <trkpt lat="37.919978" lon="-2.835373">
        <ele>1584.4</ele>
        <time>1989-12-30T23:59:59Z</time>
      </trkpt>
      <trkpt lat="37.919849" lon="-2.835133">
        <ele>1585.4</ele>
        <time>1989-12-30T23:59:59Z</time>
      </trkpt>
      <trkpt lat="37.919693" lon="-2.835006">
        <ele>1585.4</ele>
        <time>1989-12-30T23:59:59Z</time>
      </trkpt>
      <trkpt lat="37.919482" lon="-2.834997">
        <ele>1585.8</ele>
        <time>1989-12-30T23:59:59Z</time>
      </trkpt>
      <trkpt lat="37.919116" lon="-2.834861">
        <ele>1587.3</ele>
        <time>1989-12-30T23:59:59Z</time>
      </trkpt>
      <trkpt lat="37.918807" lon="-2.834499">
        <ele>1587.3</ele>
        <time>1989-12-30T23:59:59Z</time>
      </trkpt>
      <trkpt lat="37.918597" lon="-2.833909">
        <ele>1587.3</ele>
        <time>1989-12-30T23:59:59Z</time>
      </trkpt>
      <trkpt lat="37.918331" lon="-2.833067">
        <ele>1587.3</ele>
        <time>1989-12-30T23:59:59Z</time>
      </trkpt>
      <trkpt lat="37.917204" lon="-2.833227">
        <ele>1586.8</ele>
        <time>1989-12-30T23:59:59Z</time>
      </trkpt>
      <trkpt lat="37.916592" lon="-2.833387">
        <ele>1586.8</ele>
        <time>1989-12-30T23:59:59Z</time>
      </trkpt>
      <trkpt lat="37.916563" lon="-2.832754">
        <ele>1586.8</ele>
        <time>1989-12-30T23:59:59Z</time>
      </trkpt>
      <trkpt lat="37.916201" lon="-2.832264">
        <ele>1586.8</ele>
        <time>1989-12-30T23:59:59Z</time>
      </trkpt>
      <trkpt lat="37.916198" lon="-2.829787">
        <ele>1586.8</ele>
        <time>1989-12-30T23:59:59Z</time>
      </trkpt>
      <trkpt lat="37.916905" lon="-2.828749">
        <ele>1587.3</ele>
        <time>1989-12-30T23:59:59Z</time>
      </trkpt>
      <trkpt lat="37.917518" lon="-2.828607">
        <ele>1586.8</ele>
        <time>1989-12-30T23:59:59Z</time>
      </trkpt>
      <trkpt lat="37.917781" lon="-2.828273">
        <ele>1588.2</ele>
        <time>1989-12-30T23:59:59Z</time>
      </trkpt>
      <trkpt lat="37.918268" lon="-2.828061">
        <ele>1593.0</ele>
        <time>1989-12-30T23:59:59Z</time>
      </trkpt>
      <trkpt lat="37.919339" lon="-2.827725">
        <ele>1626.2</ele>
        <time>1989-12-30T23:59:59Z</time>
      </trkpt>
      <trkpt lat="37.919588" lon="-2.826969">
        <ele>1625.2</ele>
        <time>1989-12-30T23:59:59Z</time>
      </trkpt>
      <trkpt lat="37.919811" lon="-2.827039">
        <ele>1627.6</ele>
        <time>1989-12-30T23:59:59Z</time>
      </trkpt>
      <trkpt lat="37.920052" lon="-2.827503">
        <ele>1627.6</ele>
        <time>1989-12-30T23:59:59Z</time>
      </trkpt>
      <trkpt lat="37.920184" lon="-2.827540">
        <ele>1627.6</ele>
        <time>1989-12-30T23:59:59Z</time>
      </trkpt>
      <trkpt lat="37.920318" lon="-2.827540">
        <ele>1627.6</ele>
        <time>1989-12-30T23:59:59Z</time>
      </trkpt>
      <trkpt lat="37.921693" lon="-2.827359">
        <ele>1628.1</ele>
        <time>1989-12-30T23:59:59Z</time>
      </trkpt>
      <trkpt lat="37.922100" lon="-2.826654">
        <ele>1638.2</ele>
        <time>1989-12-30T23:59:59Z</time>
      </trkpt>
      <trkpt lat="37.922551" lon="-2.826225">
        <ele>1638.2</ele>
        <time>1989-12-30T23:59:59Z</time>
      </trkpt>
      <trkpt lat="37.922843" lon="-2.825837">
        <ele>1638.2</ele>
        <time>1989-12-30T23:59:59Z</time>
      </trkpt>
      <trkpt lat="37.922884" lon="-2.825486">
        <ele>1638.2</ele>
        <time>1989-12-30T23:59:59Z</time>
      </trkpt>
      <trkpt lat="37.922995" lon="-2.825257">
        <ele>1638.2</ele>
        <time>1989-12-30T23:59:59Z</time>
      </trkpt>
      <trkpt lat="37.923010" lon="-2.824984">
        <ele>1639.7</ele>
        <time>1989-12-30T23:59:59Z</time>
      </trkpt>
      <trkpt lat="37.922932" lon="-2.824797">
        <ele>1640.6</ele>
        <time>1989-12-30T23:59:59Z</time>
      </trkpt>
      <trkpt lat="37.922895" lon="-2.824609">
        <ele>1641.1</ele>
        <time>1989-12-30T23:59:59Z</time>
      </trkpt>
      <trkpt lat="37.922856" lon="-2.824343">
        <ele>1641.6</ele>
        <time>1989-12-30T23:59:59Z</time>
      </trkpt>
      <trkpt lat="37.922848" lon="-2.824206">
        <ele>1642.5</ele>
        <time>1989-12-30T23:59:59Z</time>
      </trkpt>
      <trkpt lat="37.922883" lon="-2.824166">
        <ele>1645.9</ele>
        <time>1989-12-30T23:59:59Z</time>
      </trkpt>
      <trkpt lat="37.922865" lon="-2.824018">
        <ele>1642.0</ele>
        <time>1989-12-30T23:59:59Z</time>
      </trkpt>
      <trkpt lat="37.922945" lon="-2.823893">
        <ele>1642.0</ele>
        <time>1989-12-30T23:59:59Z</time>
      </trkpt>
      <trkpt lat="37.923065" lon="-2.823747">
        <ele>1643.5</ele>
        <time>1989-12-30T23:59:59Z</time>
      </trkpt>
      <trkpt lat="37.923166" lon="-2.823652">
        <ele>1644.5</ele>
        <time>1989-12-30T23:59:59Z</time>
      </trkpt>
      <trkpt lat="37.923275" lon="-2.823409">
        <ele>1644.5</ele>
        <time>1989-12-30T23:59:59Z</time>
      </trkpt>
      <trkpt lat="37.923535" lon="-2.822540">
        <ele>1646.9</ele>
        <time>1989-12-30T23:59:59Z</time>
      </trkpt>
      <trkpt lat="37.923293" lon="-2.821969">
        <ele>1646.4</ele>
        <time>1989-12-30T23:59:59Z</time>
      </trkpt>
      <trkpt lat="37.923452" lon="-2.820746">
        <ele>1646.4</ele>
        <time>1989-12-30T23:59:59Z</time>
      </trkpt>
      <trkpt lat="37.923364" lon="-2.820406">
        <ele>1646.9</ele>
        <time>1989-12-30T23:59:59Z</time>
      </trkpt>
      <trkpt lat="37.923204" lon="-2.820068">
        <ele>1646.9</ele>
        <time>1989-12-30T23:59:59Z</time>
      </trkpt>
      <trkpt lat="37.923361" lon="-2.819355">
        <ele>1641.1</ele>
        <time>1989-12-30T23:59:59Z</time>
      </trkpt>
      <trkpt lat="37.923125" lon="-2.818859">
        <ele>1640.6</ele>
        <time>1989-12-30T23:59:59Z</time>
      </trkpt>
      <trkpt lat="37.922941" lon="-2.818602">
        <ele>1640.1</ele>
        <time>1989-12-30T23:59:59Z</time>
      </trkpt>
      <trkpt lat="37.922823" lon="-2.818292">
        <ele>1638.7</ele>
        <time>1989-12-30T23:59:59Z</time>
      </trkpt>
      <trkpt lat="37.922765" lon="-2.818138">
        <ele>1638.7</ele>
        <time>1989-12-30T23:59:59Z</time>
      </trkpt>
      <trkpt lat="37.922738" lon="-2.818026">
        <ele>1638.7</ele>
        <time>1989-12-30T23:59:59Z</time>
      </trkpt>
      <trkpt lat="37.922687" lon="-2.817788">
        <ele>1636.8</ele>
        <time>1989-12-30T23:59:59Z</time>
      </trkpt>
      <trkpt lat="37.922676" lon="-2.817665">
        <ele>1636.3</ele>
        <time>1989-12-30T23:59:59Z</time>
      </trkpt>
      <trkpt lat="37.922656" lon="-2.817482">
        <ele>1635.8</ele>
        <time>1989-12-30T23:59:59Z</time>
      </trkpt>
      <trkpt lat="37.922636" lon="-2.817319">
        <ele>1634.9</ele>
        <time>1989-12-30T23:59:59Z</time>
      </trkpt>
      <trkpt lat="37.922597" lon="-2.817194">
        <ele>1633.4</ele>
        <time>1989-12-30T23:59:59Z</time>
      </trkpt>
      <trkpt lat="37.922549" lon="-2.817096">
        <ele>1631.5</ele>
        <time>1989-12-30T23:59:59Z</time>
      </trkpt>
      <trkpt lat="37.922477" lon="-2.816988">
        <ele>1629.1</ele>
        <time>1989-12-30T23:59:59Z</time>
      </trkpt>
      <trkpt lat="37.922415" lon="-2.816884">
        <ele>1628.1</ele>
        <time>1989-12-30T23:59:59Z</time>
      </trkpt>
      <trkpt lat="37.922363" lon="-2.816768">
        <ele>1621.9</ele>
        <time>1989-12-30T23:59:59Z</time>
      </trkpt>
      <trkpt lat="37.922341" lon="-2.816649">
        <ele>1622.8</ele>
        <time>1989-12-30T23:59:59Z</time>
      </trkpt>
      <trkpt lat="37.922315" lon="-2.816522">
        <ele>1624.8</ele>
        <time>1989-12-30T23:59:59Z</time>
      </trkpt>
      <trkpt lat="37.922314" lon="-2.816225">
        <ele>1623.8</ele>
        <time>1989-12-30T23:59:59Z</time>
      </trkpt>
      <trkpt lat="37.922332" lon="-2.816085">
        <ele>1624.8</ele>
        <time>1989-12-30T23:59:59Z</time>
      </trkpt>
      <trkpt lat="37.922371" lon="-2.815936">
        <ele>1625.7</ele>
        <time>1989-12-30T23:59:59Z</time>
      </trkpt>
      <trkpt lat="37.922409" lon="-2.815785">
        <ele>1625.7</ele>
        <time>1989-12-30T23:59:59Z</time>
      </trkpt>
      <trkpt lat="37.922445" lon="-2.815653">
        <ele>1626.7</ele>
        <time>1989-12-30T23:59:59Z</time>
      </trkpt>
      <trkpt lat="37.922486" lon="-2.815543">
        <ele>1626.2</ele>
        <time>1989-12-30T23:59:59Z</time>
      </trkpt>
      <trkpt lat="37.922537" lon="-2.815438">
        <ele>1625.2</ele>
        <time>1989-12-30T23:59:59Z</time>
      </trkpt>
      <trkpt lat="37.922613" lon="-2.815362">
        <ele>1624.8</ele>
        <time>1989-12-30T23:59:59Z</time>
      </trkpt>
      <trkpt lat="37.922706" lon="-2.815281">
        <ele>1624.3</ele>
        <time>1989-12-30T23:59:59Z</time>
      </trkpt>
      <trkpt lat="37.922774" lon="-2.815204">
        <ele>1618.0</ele>
        <time>1989-12-30T23:59:59Z</time>
      </trkpt>
      <trkpt lat="37.922838" lon="-2.815088">
        <ele>1618.0</ele>
        <time>1989-12-30T23:59:59Z</time>
      </trkpt>
      <trkpt lat="37.922907" lon="-2.814954">
        <ele>1617.1</ele>
        <time>1989-12-30T23:59:59Z</time>
      </trkpt>
      <trkpt lat="37.922949" lon="-2.814854">
        <ele>1616.6</ele>
        <time>1989-12-30T23:59:59Z</time>
      </trkpt>
      <trkpt lat="37.923013" lon="-2.814709">
        <ele>1616.6</ele>
        <time>1989-12-30T23:59:59Z</time>
      </trkpt>
      <trkpt lat="37.923068" lon="-2.814585">
        <ele>1617.1</ele>
        <time>1989-12-30T23:59:59Z</time>
      </trkpt>
      <trkpt lat="37.922950" lon="-2.814819">
        <ele>1618.5</ele>
        <time>1989-12-30T23:59:59Z</time>
      </trkpt>
      <trkpt lat="37.923002" lon="-2.814693">
        <ele>1618.5</ele>
        <time>1989-12-30T23:59:59Z</time>
      </trkpt>
      <trkpt lat="37.923057" lon="-2.814562">
        <ele>1617.6</ele>
        <time>1989-12-30T23:59:59Z</time>
      </trkpt>
      <trkpt lat="37.923122" lon="-2.814421">
        <ele>1617.6</ele>
        <time>1989-12-30T23:59:59Z</time>
      </trkpt>
      <trkpt lat="37.923187" lon="-2.814269">
        <ele>1617.6</ele>
        <time>1989-12-30T23:59:59Z</time>
      </trkpt>
      <trkpt lat="37.923252" lon="-2.814115">
        <ele>1617.1</ele>
        <time>1989-12-30T23:59:59Z</time>
      </trkpt>
      <trkpt lat="37.923317" lon="-2.813958">
        <ele>1617.1</ele>
        <time>1989-12-30T23:59:59Z</time>
      </trkpt>
      <trkpt lat="37.923451" lon="-2.813656">
        <ele>1616.6</ele>
        <time>1989-12-30T23:59:59Z</time>
      </trkpt>
      <trkpt lat="37.923542" lon="-2.813532">
        <ele>1617.1</ele>
        <time>1989-12-30T23:59:59Z</time>
      </trkpt>
      <trkpt lat="37.923625" lon="-2.813426">
        <ele>1617.1</ele>
        <time>1989-12-30T23:59:59Z</time>
      </trkpt>
      <trkpt lat="37.923698" lon="-2.813331">
        <ele>1617.1</ele>
        <time>1989-12-30T23:59:59Z</time>
      </trkpt>
      <trkpt lat="37.923780" lon="-2.813220">
        <ele>1617.1</ele>
        <time>1989-12-30T23:59:59Z</time>
      </trkpt>
      <trkpt lat="37.923866" lon="-2.813101">
        <ele>1618.0</ele>
        <time>1989-12-30T23:59:59Z</time>
      </trkpt>
      <trkpt lat="37.923903" lon="-2.812988">
        <ele>1618.0</ele>
        <time>1989-12-30T23:59:59Z</time>
      </trkpt>
      <trkpt lat="37.923935" lon="-2.812870">
        <ele>1618.0</ele>
        <time>1989-12-30T23:59:59Z</time>
      </trkpt>
      <trkpt lat="37.923992" lon="-2.812640">
        <ele>1617.6</ele>
        <time>1989-12-30T23:59:59Z</time>
      </trkpt>
      <trkpt lat="37.924019" lon="-2.812542">
        <ele>1617.6</ele>
        <time>1989-12-30T23:59:59Z</time>
      </trkpt>
      <trkpt lat="37.924075" lon="-2.812316">
        <ele>1618.0</ele>
        <time>1989-12-30T23:59:59Z</time>
      </trkpt>
      <trkpt lat="37.924144" lon="-2.812234">
        <ele>1618.0</ele>
        <time>1989-12-30T23:59:59Z</time>
      </trkpt>
      <trkpt lat="37.924268" lon="-2.812172">
        <ele>1618.5</ele>
        <time>1989-12-30T23:59:59Z</time>
      </trkpt>
      <trkpt lat="37.924356" lon="-2.812156">
        <ele>1618.5</ele>
        <time>1989-12-30T23:59:59Z</time>
      </trkpt>
      <trkpt lat="37.924494" lon="-2.812092">
        <ele>1618.5</ele>
        <time>1989-12-30T23:59:59Z</time>
      </trkpt>
      <trkpt lat="37.924566" lon="-2.812113">
        <ele>1618.0</ele>
        <time>1989-12-30T23:59:59Z</time>
      </trkpt>
      <trkpt lat="37.924713" lon="-2.812059">
        <ele>1617.1</ele>
        <time>1989-12-30T23:59:59Z</time>
      </trkpt>
      <trkpt lat="37.924755" lon="-2.811980">
        <ele>1609.9</ele>
        <time>1989-12-30T23:59:59Z</time>
      </trkpt>
      <trkpt lat="37.924763" lon="-2.811921">
        <ele>1608.9</ele>
        <time>1989-12-30T23:59:59Z</time>
      </trkpt>
      <trkpt lat="37.924796" lon="-2.811544">
        <ele>1605.5</ele>
        <time>1989-12-30T23:59:59Z</time>
      </trkpt>
      <trkpt lat="37.924862" lon="-2.811330">
        <ele>1607.5</ele>
        <time>1989-12-30T23:59:59Z</time>
      </trkpt>
      <trkpt lat="37.924922" lon="-2.811242">
        <ele>1606.5</ele>
        <time>1989-12-30T23:59:59Z</time>
      </trkpt>
      <trkpt lat="37.924997" lon="-2.811098">
        <ele>1606.0</ele>
        <time>1989-12-30T23:59:59Z</time>
      </trkpt>
      <trkpt lat="37.925129" lon="-2.810760">
        <ele>1606.0</ele>
        <time>1989-12-30T23:59:59Z</time>
      </trkpt>
      <trkpt lat="37.925170" lon="-2.810647">
        <ele>1606.0</ele>
        <time>1989-12-30T23:59:59Z</time>
      </trkpt>
      <trkpt lat="37.925226" lon="-2.810545">
        <ele>1605.5</ele>
        <time>1989-12-30T23:59:59Z</time>
      </trkpt>
      <trkpt lat="37.925295" lon="-2.810454">
        <ele>1606.0</ele>
        <time>1989-12-30T23:59:59Z</time>
      </trkpt>
      <trkpt lat="37.925365" lon="-2.810373">
        <ele>1605.1</ele>
        <time>1989-12-30T23:59:59Z</time>
      </trkpt>
      <trkpt lat="37.925420" lon="-2.810283">
        <ele>1604.1</ele>
        <time>1989-12-30T23:59:59Z</time>
      </trkpt>
      <trkpt lat="37.925474" lon="-2.810125">
        <ele>1603.6</ele>
        <time>1989-12-30T23:59:59Z</time>
      </trkpt>
      <trkpt lat="37.925506" lon="-2.810012">
        <ele>1602.7</ele>
        <time>1989-12-30T23:59:59Z</time>
      </trkpt>
      <trkpt lat="37.925548" lon="-2.809906">
        <ele>1602.2</ele>
        <time>1989-12-30T23:59:59Z</time>
      </trkpt>
      <trkpt lat="37.925641" lon="-2.809838">
        <ele>1602.2</ele>
        <time>1989-12-30T23:59:59Z</time>
      </trkpt>
      <trkpt lat="37.925732" lon="-2.809775">
        <ele>1601.7</ele>
        <time>1989-12-30T23:59:59Z</time>
      </trkpt>
      <trkpt lat="37.925824" lon="-2.809718">
        <ele>1601.7</ele>
        <time>1989-12-30T23:59:59Z</time>
      </trkpt>
      <trkpt lat="37.925915" lon="-2.809654">
        <ele>1601.2</ele>
        <time>1989-12-30T23:59:59Z</time>
      </trkpt>
      <trkpt lat="37.925996" lon="-2.809589">
        <ele>1601.2</ele>
        <time>1989-12-30T23:59:59Z</time>
      </trkpt>
      <trkpt lat="37.926069" lon="-2.809527">
        <ele>1600.7</ele>
        <time>1989-12-30T23:59:59Z</time>
      </trkpt>
      <trkpt lat="37.926144" lon="-2.809454">
        <ele>1600.3</ele>
        <time>1989-12-30T23:59:59Z</time>
      </trkpt>
      <trkpt lat="37.926305" lon="-2.809289">
        <ele>1600.7</ele>
        <time>1989-12-30T23:59:59Z</time>
      </trkpt>
      <trkpt lat="37.926403" lon="-2.809208">
        <ele>1600.3</ele>
        <time>1989-12-30T23:59:59Z</time>
      </trkpt>
      <trkpt lat="37.926609" lon="-2.809082">
        <ele>1599.8</ele>
        <time>1989-12-30T23:59:59Z</time>
      </trkpt>
      <trkpt lat="37.926727" lon="-2.809044">
        <ele>1599.3</ele>
        <time>1989-12-30T23:59:59Z</time>
      </trkpt>
      <trkpt lat="37.926837" lon="-2.809026">
        <ele>1598.8</ele>
        <time>1989-12-30T23:59:59Z</time>
      </trkpt>
      <trkpt lat="37.926942" lon="-2.809007">
        <ele>1598.8</ele>
        <time>1989-12-30T23:59:59Z</time>
      </trkpt>
      <trkpt lat="37.927052" lon="-2.808994">
        <ele>1598.8</ele>
        <time>1989-12-30T23:59:59Z</time>
      </trkpt>
      <trkpt lat="37.927167" lon="-2.808978">
        <ele>1599.3</ele>
        <time>1989-12-30T23:59:59Z</time>
      </trkpt>
      <trkpt lat="37.927285" lon="-2.808961">
        <ele>1599.8</ele>
        <time>1989-12-30T23:59:59Z</time>
      </trkpt>
      <trkpt lat="37.927397" lon="-2.808937">
        <ele>1600.3</ele>
        <time>1989-12-30T23:59:59Z</time>
      </trkpt>
      <trkpt lat="37.927497" lon="-2.808921">
        <ele>1599.8</ele>
        <time>1989-12-30T23:59:59Z</time>
      </trkpt>
      <trkpt lat="37.927614" lon="-2.808900">
        <ele>1599.8</ele>
        <time>1989-12-30T23:59:59Z</time>
      </trkpt>
      <trkpt lat="37.927725" lon="-2.808879">
        <ele>1599.8</ele>
        <time>1989-12-30T23:59:59Z</time>
      </trkpt>
      <trkpt lat="37.927827" lon="-2.808859">
        <ele>1599.8</ele>
        <time>1989-12-30T23:59:59Z</time>
      </trkpt>
      <trkpt lat="37.927920" lon="-2.808842">
        <ele>1599.8</ele>
        <time>1989-12-30T23:59:59Z</time>
      </trkpt>
      <trkpt lat="37.927998" lon="-2.808832">
        <ele>1599.8</ele>
        <time>1989-12-30T23:59:59Z</time>
      </trkpt>
      <trkpt lat="37.928167" lon="-2.808792">
        <ele>1600.9</ele>
        <time>1989-12-30T23:59:59Z</time>
      </trkpt>
      <trkpt lat="37.928303" lon="-2.808667">
        <ele>1600.4</ele>
        <time>1989-12-30T23:59:59Z</time>
      </trkpt>
      <trkpt lat="37.928392" lon="-2.808552">
        <ele>1600.7</ele>
        <time>1989-12-30T23:59:59Z</time>
      </trkpt>
      <trkpt lat="37.928478" lon="-2.808442">
        <ele>1612.7</ele>
        <time>1989-12-30T23:59:59Z</time>
      </trkpt>
      <trkpt lat="37.928554" lon="-2.808347">
        <ele>1600.8</ele>
        <time>1989-12-30T23:59:59Z</time>
      </trkpt>
      <trkpt lat="37.928635" lon="-2.808245">
        <ele>1600.9</ele>
        <time>1989-12-30T23:59:59Z</time>
      </trkpt>
      <trkpt lat="37.928701" lon="-2.808155">
        <ele>1607.9</ele>
        <time>1989-12-30T23:59:59Z</time>
      </trkpt>
      <trkpt lat="37.928778" lon="-2.808076">
        <ele>1606.5</ele>
        <time>1989-12-30T23:59:59Z</time>
      </trkpt>
      <trkpt lat="37.928878" lon="-2.808017">
        <ele>1606.0</ele>
        <time>1989-12-30T23:59:59Z</time>
      </trkpt>
      <trkpt lat="37.928961" lon="-2.807988">
        <ele>1588.2</ele>
        <time>1989-12-30T23:59:59Z</time>
      </trkpt>
      <trkpt lat="37.929088" lon="-2.807862">
        <ele>1587.8</ele>
        <time>1989-12-30T23:59:59Z</time>
      </trkpt>
      <trkpt lat="37.929201" lon="-2.807868">
        <ele>1587.8</ele>
        <time>1989-12-30T23:59:59Z</time>
      </trkpt>
      <trkpt lat="37.929308" lon="-2.807850">
        <ele>1587.3</ele>
        <time>1989-12-30T23:59:59Z</time>
      </trkpt>
      <trkpt lat="37.929426" lon="-2.807810">
        <ele>1587.8</ele>
        <time>1989-12-30T23:59:59Z</time>
      </trkpt>
      <trkpt lat="37.929533" lon="-2.807759">
        <ele>1587.3</ele>
        <time>1989-12-30T23:59:59Z</time>
      </trkpt>
      <trkpt lat="37.929647" lon="-2.807680">
        <ele>1587.3</ele>
        <time>1989-12-30T23:59:59Z</time>
      </trkpt>
      <trkpt lat="37.929723" lon="-2.807611">
        <ele>1587.3</ele>
        <time>1989-12-30T23:59:59Z</time>
      </trkpt>
      <trkpt lat="37.929792" lon="-2.807537">
        <ele>1587.3</ele>
        <time>1989-12-30T23:59:59Z</time>
      </trkpt>
      <trkpt lat="37.929865" lon="-2.807464">
        <ele>1587.8</ele>
        <time>1989-12-30T23:59:59Z</time>
      </trkpt>
      <trkpt lat="37.929941" lon="-2.807391">
        <ele>1587.8</ele>
        <time>1989-12-30T23:59:59Z</time>
      </trkpt>
      <trkpt lat="37.930036" lon="-2.807372">
        <ele>1588.7</ele>
        <time>1989-12-30T23:59:59Z</time>
      </trkpt>
      <trkpt lat="37.930134" lon="-2.807365">
        <ele>1590.2</ele>
        <time>1989-12-30T23:59:59Z</time>
      </trkpt>
      <trkpt lat="37.930453" lon="-2.807391">
        <ele>1590.2</ele>
        <time>1989-12-30T23:59:59Z</time>
      </trkpt>
      <trkpt lat="37.930581" lon="-2.807371">
        <ele>1589.7</ele>
        <time>1989-12-30T23:59:59Z</time>
      </trkpt>
      <trkpt lat="37.930840" lon="-2.807336">
        <ele>1588.7</ele>
        <time>1989-12-30T23:59:59Z</time>
      </trkpt>
      <trkpt lat="37.930977" lon="-2.807354">
        <ele>1588.2</ele>
        <time>1989-12-30T23:59:59Z</time>
      </trkpt>
      <trkpt lat="37.931223" lon="-2.807397">
        <ele>1587.8</ele>
        <time>1989-12-30T23:59:59Z</time>
      </trkpt>
      <trkpt lat="37.931341" lon="-2.807384">
        <ele>1587.3</ele>
        <time>1989-12-30T23:59:59Z</time>
      </trkpt>
      <trkpt lat="37.931453" lon="-2.807323">
        <ele>1587.3</ele>
        <time>1989-12-30T23:59:59Z</time>
      </trkpt>
      <trkpt lat="37.931556" lon="-2.807228">
        <ele>1586.3</ele>
        <time>1989-12-30T23:59:59Z</time>
      </trkpt>
      <trkpt lat="37.931665" lon="-2.807139">
        <ele>1585.4</ele>
        <time>1989-12-30T23:59:59Z</time>
      </trkpt>
      <trkpt lat="37.931794" lon="-2.807066">
        <ele>1584.9</ele>
        <time>1989-12-30T23:59:59Z</time>
      </trkpt>
      <trkpt lat="37.931925" lon="-2.806989">
        <ele>1584.9</ele>
        <time>1989-12-30T23:59:59Z</time>
      </trkpt>
      <trkpt lat="37.932058" lon="-2.806920">
        <ele>1584.9</ele>
        <time>1989-12-30T23:59:59Z</time>
      </trkpt>
      <trkpt lat="37.932449" lon="-2.806714">
        <ele>1585.4</ele>
        <time>1989-12-30T23:59:59Z</time>
      </trkpt>
      <trkpt lat="37.932813" lon="-2.806506">
        <ele>1585.4</ele>
        <time>1989-12-30T23:59:59Z</time>
      </trkpt>
      <trkpt lat="37.933144" lon="-2.806293">
        <ele>1585.8</ele>
        <time>1989-12-30T23:59:59Z</time>
      </trkpt>
      <trkpt lat="37.932987" lon="-2.806377">
        <ele>1578.6</ele>
        <time>1989-12-30T23:59:59Z</time>
      </trkpt>
      <trkpt lat="37.933407" lon="-2.806242">
        <ele>1567.1</ele>
        <time>1989-12-30T23:59:59Z</time>
      </trkpt>
      <trkpt lat="37.933547" lon="-2.806174">
        <ele>1566.6</ele>
        <time>1989-12-30T23:59:59Z</time>
      </trkpt>
      <trkpt lat="37.933634" lon="-2.806131">
        <ele>1566.1</ele>
        <time>1989-12-30T23:59:59Z</time>
      </trkpt>
      <trkpt lat="37.933727" lon="-2.806080">
        <ele>1566.6</ele>
        <time>1989-12-30T23:59:59Z</time>
      </trkpt>
      <trkpt lat="37.933828" lon="-2.806025">
        <ele>1566.1</ele>
        <time>1989-12-30T23:59:59Z</time>
      </trkpt>
      <trkpt lat="37.934112" lon="-2.805866">
        <ele>1565.6</ele>
        <time>1989-12-30T23:59:59Z</time>
      </trkpt>
      <trkpt lat="37.934637" lon="-2.805535">
        <ele>1565.2</ele>
        <time>1989-12-30T23:59:59Z</time>
      </trkpt>
      <trkpt lat="37.934877" lon="-2.805335">
        <ele>1566.1</ele>
        <time>1989-12-30T23:59:59Z</time>
      </trkpt>
      <trkpt lat="37.934957" lon="-2.805179">
        <ele>1565.2</ele>
        <time>1989-12-30T23:59:59Z</time>
      </trkpt>
      <trkpt lat="37.935021" lon="-2.804971">
        <ele>1558.0</ele>
        <time>1989-12-30T23:59:59Z</time>
      </trkpt>
      <trkpt lat="37.935127" lon="-2.804795">
        <ele>1557.0</ele>
        <time>1989-12-30T23:59:59Z</time>
      </trkpt>
      <trkpt lat="37.935386" lon="-2.804450">
        <ele>1558.0</ele>
        <time>1989-12-30T23:59:59Z</time>
      </trkpt>
      <trkpt lat="37.935453" lon="-2.804334">
        <ele>1558.4</ele>
        <time>1989-12-30T23:59:59Z</time>
      </trkpt>
      <trkpt lat="37.935515" lon="-2.804222">
        <ele>1558.4</ele>
        <time>1989-12-30T23:59:59Z</time>
      </trkpt>
      <trkpt lat="37.935886" lon="-2.803558">
        <ele>1558.4</ele>
        <time>1989-12-30T23:59:59Z</time>
      </trkpt>
      <trkpt lat="37.936097" lon="-2.803236">
        <ele>1558.0</ele>
        <time>1989-12-30T23:59:59Z</time>
      </trkpt>
      <trkpt lat="37.937106" lon="-2.802358">
        <ele>1558.0</ele>
        <time>1989-12-30T23:59:59Z</time>
      </trkpt>
      <trkpt lat="37.937458" lon="-2.802005">
        <ele>1558.0</ele>
        <time>1989-12-30T23:59:59Z</time>
      </trkpt>
      <trkpt lat="37.937646" lon="-2.801633">
        <ele>1546.4</ele>
        <time>1989-12-30T23:59:59Z</time>
      </trkpt>
      <trkpt lat="37.937689" lon="-2.801077">
        <ele>1547.4</ele>
        <time>1989-12-30T23:59:59Z</time>
      </trkpt>
      <trkpt lat="37.937636" lon="-2.800920">
        <ele>1546.9</ele>
        <time>1989-12-30T23:59:59Z</time>
      </trkpt>
      <trkpt lat="37.937644" lon="-2.800842">
        <ele>1548.3</ele>
        <time>1989-12-30T23:59:59Z</time>
      </trkpt>
      <trkpt lat="37.937642" lon="-2.800735">
        <ele>1549.8</ele>
        <time>1989-12-30T23:59:59Z</time>
      </trkpt>
      <trkpt lat="37.937639" lon="-2.800189">
        <ele>1549.8</ele>
        <time>1989-12-30T23:59:59Z</time>
      </trkpt>
      <trkpt lat="37.937665" lon="-2.800141">
        <ele>1550.3</ele>
        <time>1989-12-30T23:59:59Z</time>
      </trkpt>
      <trkpt lat="37.937677" lon="-2.800085">
        <ele>1550.7</ele>
        <time>1989-12-30T23:59:59Z</time>
      </trkpt>
      <trkpt lat="37.937714" lon="-2.799967">
        <ele>1551.2</ele>
        <time>1989-12-30T23:59:59Z</time>
      </trkpt>
      <trkpt lat="37.937744" lon="-2.799813">
        <ele>1552.7</ele>
        <time>1989-12-30T23:59:59Z</time>
      </trkpt>
      <trkpt lat="37.937756" lon="-2.799654">
        <ele>1553.1</ele>
        <time>1989-12-30T23:59:59Z</time>
      </trkpt>
      <trkpt lat="37.937772" lon="-2.799525">
        <ele>1553.6</ele>
        <time>1989-12-30T23:59:59Z</time>
      </trkpt>
      <trkpt lat="37.937788" lon="-2.799405">
        <ele>1553.6</ele>
        <time>1989-12-30T23:59:59Z</time>
      </trkpt>
      <trkpt lat="37.937797" lon="-2.799275">
        <ele>1553.1</ele>
        <time>1989-12-30T23:59:59Z</time>
      </trkpt>
      <trkpt lat="37.937819" lon="-2.799006">
        <ele>1552.7</ele>
        <time>1989-12-30T23:59:59Z</time>
      </trkpt>
      <trkpt lat="37.937815" lon="-2.798742">
        <ele>1552.2</ele>
        <time>1989-12-30T23:59:59Z</time>
      </trkpt>
      <trkpt lat="37.937792" lon="-2.798510">
        <ele>1552.2</ele>
        <time>1989-12-30T23:59:59Z</time>
      </trkpt>
      <trkpt lat="37.937759" lon="-2.798265">
        <ele>1552.7</ele>
        <time>1989-12-30T23:59:59Z</time>
      </trkpt>
      <trkpt lat="37.937735" lon="-2.798067">
        <ele>1555.1</ele>
        <time>1989-12-30T23:59:59Z</time>
      </trkpt>
      <trkpt lat="37.937746" lon="-2.797946">
        <ele>1556.5</ele>
        <time>1989-12-30T23:59:59Z</time>
      </trkpt>
      <trkpt lat="37.937771" lon="-2.797805">
        <ele>1558.0</ele>
        <time>1989-12-30T23:59:59Z</time>
      </trkpt>
      <trkpt lat="37.937860" lon="-2.797325">
        <ele>1559.9</ele>
        <time>1989-12-30T23:59:59Z</time>
      </trkpt>
      <trkpt lat="37.937823" lon="-2.797595">
        <ele>1563.7</ele>
        <time>1989-12-30T23:59:59Z</time>
      </trkpt>
      <trkpt lat="37.937880" lon="-2.797444">
        <ele>1564.7</ele>
        <time>1989-12-30T23:59:59Z</time>
      </trkpt>
      <trkpt lat="37.937950" lon="-2.797292">
        <ele>1564.7</ele>
        <time>1989-12-30T23:59:59Z</time>
      </trkpt>
      <trkpt lat="37.938005" lon="-2.797182">
        <ele>1564.7</ele>
        <time>1989-12-30T23:59:59Z</time>
      </trkpt>
      <trkpt lat="37.938066" lon="-2.797060">
        <ele>1564.7</ele>
        <time>1989-12-30T23:59:59Z</time>
      </trkpt>
      <trkpt lat="37.938231" lon="-2.796736">
        <ele>1564.7</ele>
        <time>1989-12-30T23:59:59Z</time>
      </trkpt>
      <trkpt lat="37.938289" lon="-2.796622">
        <ele>1564.7</ele>
        <time>1989-12-30T23:59:59Z</time>
      </trkpt>
      <trkpt lat="37.938362" lon="-2.796492">
        <ele>1565.2</ele>
        <time>1989-12-30T23:59:59Z</time>
      </trkpt>
      <trkpt lat="37.938441" lon="-2.796357">
        <ele>1565.6</ele>
        <time>1989-12-30T23:59:59Z</time>
      </trkpt>
      <trkpt lat="37.938601" lon="-2.796091">
        <ele>1565.6</ele>
        <time>1989-12-30T23:59:59Z</time>
      </trkpt>
      <trkpt lat="37.938668" lon="-2.795940">
        <ele>1565.6</ele>
        <time>1989-12-30T23:59:59Z</time>
      </trkpt>
      <trkpt lat="37.938855" lon="-2.795463">
        <ele>1565.2</ele>
        <time>1989-12-30T23:59:59Z</time>
      </trkpt>
      <trkpt lat="37.938890" lon="-2.795322">
        <ele>1565.2</ele>
        <time>1989-12-30T23:59:59Z</time>
      </trkpt>
      <trkpt lat="37.938912" lon="-2.795152">
        <ele>1565.2</ele>
        <time>1989-12-30T23:59:59Z</time>
      </trkpt>
      <trkpt lat="37.938951" lon="-2.795042">
        <ele>1564.7</ele>
        <time>1989-12-30T23:59:59Z</time>
      </trkpt>
      <trkpt lat="37.939023" lon="-2.794931">
        <ele>1564.2</ele>
        <time>1989-12-30T23:59:59Z</time>
      </trkpt>
      <trkpt lat="37.939071" lon="-2.794807">
        <ele>1563.7</ele>
        <time>1989-12-30T23:59:59Z</time>
      </trkpt>
      <trkpt lat="37.939103" lon="-2.794681">
        <ele>1563.2</ele>
        <time>1989-12-30T23:59:59Z</time>
      </trkpt>
      <trkpt lat="37.939118" lon="-2.794535">
        <ele>1564.2</ele>
        <time>1989-12-30T23:59:59Z</time>
      </trkpt>
      <trkpt lat="37.939132" lon="-2.794386">
        <ele>1564.7</ele>
        <time>1989-12-30T23:59:59Z</time>
      </trkpt>
      <trkpt lat="37.939150" lon="-2.794244">
        <ele>1565.2</ele>
        <time>1989-12-30T23:59:59Z</time>
      </trkpt>
      <trkpt lat="37.939223" lon="-2.794129">
        <ele>1566.1</ele>
        <time>1989-12-30T23:59:59Z</time>
      </trkpt>
      <trkpt lat="37.939333" lon="-2.794016">
        <ele>1569.5</ele>
        <time>1989-12-30T23:59:59Z</time>
      </trkpt>
      <trkpt lat="37.939406" lon="-2.793910">
        <ele>1570.0</ele>
        <time>1989-12-30T23:59:59Z</time>
      </trkpt>
      <trkpt lat="37.939476" lon="-2.793796">
        <ele>1570.5</ele>
        <time>1989-12-30T23:59:59Z</time>
      </trkpt>
      <trkpt lat="37.939555" lon="-2.793671">
        <ele>1570.5</ele>
        <time>1989-12-30T23:59:59Z</time>
      </trkpt>
      <trkpt lat="37.939642" lon="-2.793552">
        <ele>1571.4</ele>
        <time>1989-12-30T23:59:59Z</time>
      </trkpt>
      <trkpt lat="37.939929" lon="-2.793225">
        <ele>1571.9</ele>
        <time>1989-12-30T23:59:59Z</time>
      </trkpt>
      <trkpt lat="37.940029" lon="-2.793171">
        <ele>1571.9</ele>
        <time>1989-12-30T23:59:59Z</time>
      </trkpt>
      <trkpt lat="37.940141" lon="-2.793095">
        <ele>1570.9</ele>
        <time>1989-12-30T23:59:59Z</time>
      </trkpt>
      <trkpt lat="37.940253" lon="-2.793002">
        <ele>1570.9</ele>
        <time>1989-12-30T23:59:59Z</time>
      </trkpt>
      <trkpt lat="37.940355" lon="-2.792918">
        <ele>1570.5</ele>
        <time>1989-12-30T23:59:59Z</time>
      </trkpt>
      <trkpt lat="37.940456" lon="-2.792853">
        <ele>1570.5</ele>
        <time>1989-12-30T23:59:59Z</time>
      </trkpt>
      <trkpt lat="37.940544" lon="-2.792793">
        <ele>1570.5</ele>
        <time>1989-12-30T23:59:59Z</time>
      </trkpt>
      <trkpt lat="37.940788" lon="-2.792611">
        <ele>1568.5</ele>
        <time>1989-12-30T23:59:59Z</time>
      </trkpt>
      <trkpt lat="37.940915" lon="-2.792533">
        <ele>1565.2</ele>
        <time>1989-12-30T23:59:59Z</time>
      </trkpt>
      <trkpt lat="37.940975" lon="-2.792490">
        <ele>1564.2</ele>
        <time>1989-12-30T23:59:59Z</time>
      </trkpt>
      <trkpt lat="37.941011" lon="-2.792477">
        <ele>1562.3</ele>
        <time>1989-12-30T23:59:59Z</time>
      </trkpt>
      <trkpt lat="37.941099" lon="-2.792421">
        <ele>1563.2</ele>
        <time>1989-12-30T23:59:59Z</time>
      </trkpt>
      <trkpt lat="37.941192" lon="-2.792362">
        <ele>1563.7</ele>
        <time>1989-12-30T23:59:59Z</time>
      </trkpt>
      <trkpt lat="37.941287" lon="-2.792301">
        <ele>1564.7</ele>
        <time>1989-12-30T23:59:59Z</time>
      </trkpt>
      <trkpt lat="37.941368" lon="-2.792250">
        <ele>1565.2</ele>
        <time>1989-12-30T23:59:59Z</time>
      </trkpt>
      <trkpt lat="37.941926" lon="-2.791922">
        <ele>1566.6</ele>
        <time>1989-12-30T23:59:59Z</time>
      </trkpt>
      <trkpt lat="37.942255" lon="-2.791724">
        <ele>1566.1</ele>
        <time>1989-12-30T23:59:59Z</time>
      </trkpt>
      <trkpt lat="37.942606" lon="-2.791455">
        <ele>1566.1</ele>
        <time>1989-12-30T23:59:59Z</time>
      </trkpt>
      <trkpt lat="37.942971" lon="-2.791115">
        <ele>1565.6</ele>
        <time>1989-12-30T23:59:59Z</time>
      </trkpt>
      <trkpt lat="37.943388" lon="-2.790835">
        <ele>1567.1</ele>
        <time>1989-12-30T23:59:59Z</time>
      </trkpt>
      <trkpt lat="37.944060" lon="-2.790543">
        <ele>1567.1</ele>
        <time>1989-12-30T23:59:59Z</time>
      </trkpt>
      <trkpt lat="37.944281" lon="-2.790438">
        <ele>1567.1</ele>
        <time>1989-12-30T23:59:59Z</time>
      </trkpt>
      <trkpt lat="37.944527" lon="-2.790334">
        <ele>1566.1</ele>
        <time>1989-12-30T23:59:59Z</time>
      </trkpt>
      <trkpt lat="37.944703" lon="-2.790209">
        <ele>1563.7</ele>
        <time>1989-12-30T23:59:59Z</time>
      </trkpt>
      <trkpt lat="37.944804" lon="-2.790157">
        <ele>1564.2</ele>
        <time>1989-12-30T23:59:59Z</time>
      </trkpt>
      <trkpt lat="37.944888" lon="-2.790109">
        <ele>1565.2</ele>
        <time>1989-12-30T23:59:59Z</time>
      </trkpt>
      <trkpt lat="37.945054" lon="-2.789969">
        <ele>1572.9</ele>
        <time>1989-12-30T23:59:59Z</time>
      </trkpt>
      <trkpt lat="37.945145" lon="-2.789881">
        <ele>1571.9</ele>
        <time>1989-12-30T23:59:59Z</time>
      </trkpt>
      <trkpt lat="37.945310" lon="-2.789789">
        <ele>1574.3</ele>
        <time>1989-12-30T23:59:59Z</time>
      </trkpt>
      <trkpt lat="37.945724" lon="-2.789392">
        <ele>1564.2</ele>
        <time>1989-12-30T23:59:59Z</time>
      </trkpt>
      <trkpt lat="37.945807" lon="-2.789340">
        <ele>1565.6</ele>
        <time>1989-12-30T23:59:59Z</time>
      </trkpt>
      <trkpt lat="37.945920" lon="-2.789261">
        <ele>1568.0</ele>
        <time>1989-12-30T23:59:59Z</time>
      </trkpt>
      <trkpt lat="37.945980" lon="-2.789172">
        <ele>1569.0</ele>
        <time>1989-12-30T23:59:59Z</time>
      </trkpt>
      <trkpt lat="37.946037" lon="-2.789072">
        <ele>1569.5</ele>
        <time>1989-12-30T23:59:59Z</time>
      </trkpt>
      <trkpt lat="37.946092" lon="-2.788962">
        <ele>1570.5</ele>
        <time>1989-12-30T23:59:59Z</time>
      </trkpt>
      <trkpt lat="37.946147" lon="-2.788868">
        <ele>1571.9</ele>
        <time>1989-12-30T23:59:59Z</time>
      </trkpt>
      <trkpt lat="37.946217" lon="-2.788764">
        <ele>1573.8</ele>
        <time>1989-12-30T23:59:59Z</time>
      </trkpt>
      <trkpt lat="37.946284" lon="-2.788632">
        <ele>1574.8</ele>
        <time>1989-12-30T23:59:59Z</time>
      </trkpt>
      <trkpt lat="37.946315" lon="-2.788497">
        <ele>1575.7</ele>
        <time>1989-12-30T23:59:59Z</time>
      </trkpt>
      <trkpt lat="37.946320" lon="-2.788375">
        <ele>1577.2</ele>
        <time>1989-12-30T23:59:59Z</time>
      </trkpt>
      <trkpt lat="37.946304" lon="-2.788257">
        <ele>1578.1</ele>
        <time>1989-12-30T23:59:59Z</time>
      </trkpt>
      <trkpt lat="37.946276" lon="-2.788143">
        <ele>1578.6</ele>
        <time>1989-12-30T23:59:59Z</time>
      </trkpt>
      <trkpt lat="37.946252" lon="-2.788028">
        <ele>1578.1</ele>
        <time>1989-12-30T23:59:59Z</time>
      </trkpt>
      <trkpt lat="37.946245" lon="-2.787869">
        <ele>1580.5</ele>
        <time>1989-12-30T23:59:59Z</time>
      </trkpt>
      <trkpt lat="37.946222" lon="-2.787582">
        <ele>1583.9</ele>
        <time>1989-12-30T23:59:59Z</time>
      </trkpt>
      <trkpt lat="37.946199" lon="-2.787441">
        <ele>1583.9</ele>
        <time>1989-12-30T23:59:59Z</time>
      </trkpt>
      <trkpt lat="37.946220" lon="-2.787330">
        <ele>1582.9</ele>
        <time>1989-12-30T23:59:59Z</time>
      </trkpt>
      <trkpt lat="37.946233" lon="-2.786935">
        <ele>1584.9</ele>
        <time>1989-12-30T23:59:59Z</time>
      </trkpt>
      <trkpt lat="37.946331" lon="-2.786718">
        <ele>1584.9</ele>
        <time>1989-12-30T23:59:59Z</time>
      </trkpt>
      <trkpt lat="37.946389" lon="-2.786583">
        <ele>1584.9</ele>
        <time>1989-12-30T23:59:59Z</time>
      </trkpt>
      <trkpt lat="37.946419" lon="-2.786578">
        <ele>1580.1</ele>
        <time>1989-12-30T23:59:59Z</time>
      </trkpt>
      <trkpt lat="37.946498" lon="-2.786483">
        <ele>1580.1</ele>
        <time>1989-12-30T23:59:59Z</time>
      </trkpt>
      <trkpt lat="37.946469" lon="-2.786404">
        <ele>1578.6</ele>
        <time>1989-12-30T23:59:59Z</time>
      </trkpt>
      <trkpt lat="37.946457" lon="-2.786281">
        <ele>1579.6</ele>
        <time>1989-12-30T23:59:59Z</time>
      </trkpt>
      <trkpt lat="37.946505" lon="-2.785923">
        <ele>1579.1</ele>
        <time>1989-12-30T23:59:59Z</time>
      </trkpt>
      <trkpt lat="37.946435" lon="-2.785679">
        <ele>1580.5</ele>
        <time>1989-12-30T23:59:59Z</time>
      </trkpt>
      <trkpt lat="37.946423" lon="-2.785416">
        <ele>1582.5</ele>
        <time>1989-12-30T23:59:59Z</time>
      </trkpt>
      <trkpt lat="37.946504" lon="-2.785137">
        <ele>1586.8</ele>
        <time>1989-12-30T23:59:59Z</time>
      </trkpt>
      <trkpt lat="37.946534" lon="-2.785026">
        <ele>1586.3</ele>
        <time>1989-12-30T23:59:59Z</time>
      </trkpt>
      <trkpt lat="37.946714" lon="-2.784641">
        <ele>1585.8</ele>
        <time>1989-12-30T23:59:59Z</time>
      </trkpt>
      <trkpt lat="37.946854" lon="-2.784177">
        <ele>1587.3</ele>
        <time>1989-12-30T23:59:59Z</time>
      </trkpt>
      <trkpt lat="37.946866" lon="-2.784033">
        <ele>1592.6</ele>
        <time>1989-12-30T23:59:59Z</time>
      </trkpt>
      <trkpt lat="37.946944" lon="-2.783724">
        <ele>1592.1</ele>
        <time>1989-12-30T23:59:59Z</time>
      </trkpt>
      <trkpt lat="37.947236" lon="-2.782815">
        <ele>1593.5</ele>
        <time>1989-12-30T23:59:59Z</time>
      </trkpt>
      <trkpt lat="37.947541" lon="-2.781581">
        <ele>1596.9</ele>
        <time>1989-12-30T23:59:59Z</time>
      </trkpt>
      <trkpt lat="37.947800" lon="-2.780798">
        <ele>1598.3</ele>
        <time>1989-12-30T23:59:59Z</time>
      </trkpt>
      <trkpt lat="37.948070" lon="-2.780072">
        <ele>1599.3</ele>
        <time>1989-12-30T23:59:59Z</time>
      </trkpt>
      <trkpt lat="37.948194" lon="-2.779812">
        <ele>1599.8</ele>
        <time>1989-12-30T23:59:59Z</time>
      </trkpt>
      <trkpt lat="37.948422" lon="-2.778874">
        <ele>1601.2</ele>
        <time>1989-12-30T23:59:59Z</time>
      </trkpt>
      <trkpt lat="37.948605" lon="-2.778523">
        <ele>1601.2</ele>
        <time>1989-12-30T23:59:59Z</time>
      </trkpt>
      <trkpt lat="37.948722" lon="-2.777821">
        <ele>1607.5</ele>
        <time>1989-12-30T23:59:59Z</time>
      </trkpt>
      <trkpt lat="37.948814" lon="-2.777541">
        <ele>1606.5</ele>
        <time>1989-12-30T23:59:59Z</time>
      </trkpt>
      <trkpt lat="37.948837" lon="-2.777411">
        <ele>1607.5</ele>
        <time>1989-12-30T23:59:59Z</time>
      </trkpt>
      <trkpt lat="37.948867" lon="-2.777031">
        <ele>1607.5</ele>
        <time>1989-12-30T23:59:59Z</time>
      </trkpt>
      <trkpt lat="37.948759" lon="-2.776399">
        <ele>1609.4</ele>
        <time>1989-12-30T23:59:59Z</time>
      </trkpt>
      <trkpt lat="37.948690" lon="-2.776148">
        <ele>1609.4</ele>
        <time>1989-12-30T23:59:59Z</time>
      </trkpt>
      <trkpt lat="37.948646" lon="-2.775959">
        <ele>1606.0</ele>
        <time>1989-12-30T23:59:59Z</time>
      </trkpt>
      <trkpt lat="37.948616" lon="-2.775866">
        <ele>1606.5</ele>
        <time>1989-12-30T23:59:59Z</time>
      </trkpt>
      <trkpt lat="37.948630" lon="-2.776041">
        <ele>1609.4</ele>
        <time>1989-12-30T23:59:59Z</time>
      </trkpt>
      <trkpt lat="37.948593" lon="-2.775405">
        <ele>1612.3</ele>
        <time>1989-12-30T23:59:59Z</time>
      </trkpt>
      <trkpt lat="37.948606" lon="-2.774513">
        <ele>1614.2</ele>
        <time>1989-12-30T23:59:59Z</time>
      </trkpt>
      <trkpt lat="37.948627" lon="-2.773989">
        <ele>1617.6</ele>
        <time>1989-12-30T23:59:59Z</time>
      </trkpt>
      <trkpt lat="37.948705" lon="-2.773379">
        <ele>1619.0</ele>
        <time>1989-12-30T23:59:59Z</time>
      </trkpt>
      <trkpt lat="37.948832" lon="-2.772803">
        <ele>1618.5</ele>
        <time>1989-12-30T23:59:59Z</time>
      </trkpt>
      <trkpt lat="37.948825" lon="-2.772691">
        <ele>1619.0</ele>
        <time>1989-12-30T23:59:59Z</time>
      </trkpt>
      <trkpt lat="37.948796" lon="-2.772580">
        <ele>1618.5</ele>
        <time>1989-12-30T23:59:59Z</time>
      </trkpt>
      <trkpt lat="37.948737" lon="-2.772514">
        <ele>1617.6</ele>
        <time>1989-12-30T23:59:59Z</time>
      </trkpt>
      <trkpt lat="37.948703" lon="-2.772392">
        <ele>1617.1</ele>
        <time>1989-12-30T23:59:59Z</time>
      </trkpt>
      <trkpt lat="37.948666" lon="-2.772159">
        <ele>1616.1</ele>
        <time>1989-12-30T23:59:59Z</time>
      </trkpt>
      <trkpt lat="37.948666" lon="-2.772081">
        <ele>1614.2</ele>
        <time>1989-12-30T23:59:59Z</time>
      </trkpt>
      <trkpt lat="37.948585" lon="-2.771468">
        <ele>1617.1</ele>
        <time>1989-12-30T23:59:59Z</time>
      </trkpt>
      <trkpt lat="37.948452" lon="-2.770739">
        <ele>1627.2</ele>
        <time>1989-12-30T23:59:59Z</time>
      </trkpt>
      <trkpt lat="37.948470" lon="-2.770585">
        <ele>1632.0</ele>
        <time>1989-12-30T23:59:59Z</time>
      </trkpt>
      <trkpt lat="37.948515" lon="-2.770399">
        <ele>1623.3</ele>
        <time>1989-12-30T23:59:59Z</time>
      </trkpt>
      <trkpt lat="37.948553" lon="-2.770168">
        <ele>1624.3</ele>
        <time>1989-12-30T23:59:59Z</time>
      </trkpt>
      <trkpt lat="37.948597" lon="-2.770000">
        <ele>1623.3</ele>
        <time>1989-12-30T23:59:59Z</time>
      </trkpt>
      <trkpt lat="37.948657" lon="-2.769703">
        <ele>1626.7</ele>
        <time>1989-12-30T23:59:59Z</time>
      </trkpt>
      <trkpt lat="37.948793" lon="-2.769274">
        <ele>1622.8</ele>
        <time>1989-12-30T23:59:59Z</time>
      </trkpt>
      <trkpt lat="37.949143" lon="-2.768470">
        <ele>1615.6</ele>
        <time>1989-12-30T23:59:59Z</time>
      </trkpt>
      <trkpt lat="37.949143" lon="-2.768373">
        <ele>1616.1</ele>
        <time>1989-12-30T23:59:59Z</time>
      </trkpt>
      <trkpt lat="37.949164" lon="-2.768299">
        <ele>1621.9</ele>
        <time>1989-12-30T23:59:59Z</time>
      </trkpt>
      <trkpt lat="37.949592" lon="-2.767203">
        <ele>1622.8</ele>
        <time>1989-12-30T23:59:59Z</time>
      </trkpt>
      <trkpt lat="37.949833" lon="-2.766660">
        <ele>1622.4</ele>
        <time>1989-12-30T23:59:59Z</time>
      </trkpt>
      <trkpt lat="37.949942" lon="-2.766341">
        <ele>1622.4</ele>
        <time>1989-12-30T23:59:59Z</time>
      </trkpt>
      <trkpt lat="37.950020" lon="-2.766012">
        <ele>1622.8</ele>
        <time>1989-12-30T23:59:59Z</time>
      </trkpt>
      <trkpt lat="37.950072" lon="-2.765508">
        <ele>1623.8</ele>
        <time>1989-12-30T23:59:59Z</time>
      </trkpt>
      <trkpt lat="37.950173" lon="-2.765177">
        <ele>1624.8</ele>
        <time>1989-12-30T23:59:59Z</time>
      </trkpt>
      <trkpt lat="37.950489" lon="-2.764275">
        <ele>1627.2</ele>
        <time>1989-12-30T23:59:59Z</time>
      </trkpt>
      <trkpt lat="37.950628" lon="-2.763533">
        <ele>1629.1</ele>
        <time>1989-12-30T23:59:59Z</time>
      </trkpt>
      <trkpt lat="37.950899" lon="-2.762661">
        <ele>1629.6</ele>
        <time>1989-12-30T23:59:59Z</time>
      </trkpt>
      <trkpt lat="37.951006" lon="-2.762196">
        <ele>1629.6</ele>
        <time>1989-12-30T23:59:59Z</time>
      </trkpt>
      <trkpt lat="37.951040" lon="-2.762121">
        <ele>1628.1</ele>
        <time>1989-12-30T23:59:59Z</time>
      </trkpt>
      <trkpt lat="37.951023" lon="-2.761893">
        <ele>1635.3</ele>
        <time>1989-12-30T23:59:59Z</time>
      </trkpt>
      <trkpt lat="37.951034" lon="-2.761263">
        <ele>1636.8</ele>
        <time>1989-12-30T23:59:59Z</time>
      </trkpt>
      <trkpt lat="37.951051" lon="-2.760902">
        <ele>1636.8</ele>
        <time>1989-12-30T23:59:59Z</time>
      </trkpt>
      <trkpt lat="37.951203" lon="-2.759855">
        <ele>1637.3</ele>
        <time>1989-12-30T23:59:59Z</time>
      </trkpt>
      <trkpt lat="37.951200" lon="-2.759378">
        <ele>1638.2</ele>
        <time>1989-12-30T23:59:59Z</time>
      </trkpt>
      <trkpt lat="37.951242" lon="-2.759273">
        <ele>1638.7</ele>
        <time>1989-12-30T23:59:59Z</time>
      </trkpt>
      <trkpt lat="37.951484" lon="-2.758885">
        <ele>1638.2</ele>
        <time>1989-12-30T23:59:59Z</time>
      </trkpt>
      <trkpt lat="37.951617" lon="-2.758641">
        <ele>1638.7</ele>
        <time>1989-12-30T23:59:59Z</time>
      </trkpt>
      <trkpt lat="37.951711" lon="-2.758600">
        <ele>1640.1</ele>
        <time>1989-12-30T23:59:59Z</time>
      </trkpt>
      <trkpt lat="37.951884" lon="-2.758390">
        <ele>1644.0</ele>
        <time>1989-12-30T23:59:59Z</time>
      </trkpt>
      <trkpt lat="37.952110" lon="-2.758038">
        <ele>1639.2</ele>
        <time>1989-12-30T23:59:59Z</time>
      </trkpt>
      <trkpt lat="37.952579" lon="-2.757577">
        <ele>1637.3</ele>
        <time>1989-12-30T23:59:59Z</time>
      </trkpt>
      <trkpt lat="37.953073" lon="-2.756980">
        <ele>1633.9</ele>
        <time>1989-12-30T23:59:59Z</time>
      </trkpt>
      <trkpt lat="37.953308" lon="-2.756652">
        <ele>1632.5</ele>
        <time>1989-12-30T23:59:59Z</time>
      </trkpt>
      <trkpt lat="37.953637" lon="-2.756562">
        <ele>1630.5</ele>
        <time>1989-12-30T23:59:59Z</time>
      </trkpt>
      <trkpt lat="37.954014" lon="-2.756501">
        <ele>1630.1</ele>
        <time>1989-12-30T23:59:59Z</time>
      </trkpt>
      <trkpt lat="37.954509" lon="-2.756470">
        <ele>1633.4</ele>
        <time>1989-12-30T23:59:59Z</time>
      </trkpt>
      <trkpt lat="37.954861" lon="-2.756260">
        <ele>1632.0</ele>
        <time>1989-12-30T23:59:59Z</time>
      </trkpt>
      <trkpt lat="37.955120" lon="-2.756170">
        <ele>1635.8</ele>
        <time>1989-12-30T23:59:59Z</time>
      </trkpt>
      <trkpt lat="37.955448" lon="-2.756132">
        <ele>1627.6</ele>
        <time>1989-12-30T23:59:59Z</time>
      </trkpt>
      <trkpt lat="37.955630" lon="-2.756329">
        <ele>1628.1</ele>
        <time>1989-12-30T23:59:59Z</time>
      </trkpt>
      <trkpt lat="37.955814" lon="-2.756467">
        <ele>1628.6</ele>
        <time>1989-12-30T23:59:59Z</time>
      </trkpt>
      <trkpt lat="37.955922" lon="-2.756524">
        <ele>1628.6</ele>
        <time>1989-12-30T23:59:59Z</time>
      </trkpt>
      <trkpt lat="37.956279" lon="-2.756631">
        <ele>1627.6</ele>
        <time>1989-12-30T23:59:59Z</time>
      </trkpt>
      <trkpt lat="37.956968" lon="-2.756737">
        <ele>1627.6</ele>
        <time>1989-12-30T23:59:59Z</time>
      </trkpt>
      <trkpt lat="37.957290" lon="-2.756767">
        <ele>1628.1</ele>
        <time>1989-12-30T23:59:59Z</time>
      </trkpt>
      <trkpt lat="37.957627" lon="-2.756741">
        <ele>1629.1</ele>
        <time>1989-12-30T23:59:59Z</time>
      </trkpt>
      <trkpt lat="37.958275" lon="-2.756572">
        <ele>1629.6</ele>
        <time>1989-12-30T23:59:59Z</time>
      </trkpt>
      <trkpt lat="37.958617" lon="-2.756433">
        <ele>1630.5</ele>
        <time>1989-12-30T23:59:59Z</time>
      </trkpt>
      <trkpt lat="37.958969" lon="-2.756313">
        <ele>1629.1</ele>
        <time>1989-12-30T23:59:59Z</time>
      </trkpt>
      <trkpt lat="37.959677" lon="-2.756027">
        <ele>1627.6</ele>
        <time>1989-12-30T23:59:59Z</time>
      </trkpt>
      <trkpt lat="37.959793" lon="-2.755969">
        <ele>1629.1</ele>
        <time>1989-12-30T23:59:59Z</time>
      </trkpt>
      <trkpt lat="37.960357" lon="-2.755805">
        <ele>1630.1</ele>
        <time>1989-12-30T23:59:59Z</time>
      </trkpt>
      <trkpt lat="37.960677" lon="-2.755650">
        <ele>1631.0</ele>
        <time>1989-12-30T23:59:59Z</time>
      </trkpt>
      <trkpt lat="37.960882" lon="-2.755572">
        <ele>1631.5</ele>
        <time>1989-12-30T23:59:59Z</time>
      </trkpt>
      <trkpt lat="37.961140" lon="-2.755389">
        <ele>1632.9</ele>
        <time>1989-12-30T23:59:59Z</time>
      </trkpt>
      <trkpt lat="37.961177" lon="-2.755226">
        <ele>1640.1</ele>
        <time>1989-12-30T23:59:59Z</time>
      </trkpt>
      <trkpt lat="37.961376" lon="-2.755207">
        <ele>1641.1</ele>
        <time>1989-12-30T23:59:59Z</time>
      </trkpt>
      <trkpt lat="37.962481" lon="-2.754985">
        <ele>1647.4</ele>
        <time>1989-12-30T23:59:59Z</time>
      </trkpt>
      <trkpt lat="37.962666" lon="-2.754985">
        <ele>1650.2</ele>
        <time>1989-12-30T23:59:59Z</time>
      </trkpt>
      <trkpt lat="37.963210" lon="-2.754764">
        <ele>1652.6</ele>
        <time>1989-12-30T23:59:59Z</time>
      </trkpt>
      <trkpt lat="37.963909" lon="-2.754569">
        <ele>1656.0</ele>
        <time>1989-12-30T23:59:59Z</time>
      </trkpt>
      <trkpt lat="37.964010" lon="-2.754497">
        <ele>1657.0</ele>
        <time>1989-12-30T23:59:59Z</time>
      </trkpt>
      <trkpt lat="37.964414" lon="-2.754387">
        <ele>1658.4</ele>
        <time>1989-12-30T23:59:59Z</time>
      </trkpt>
      <trkpt lat="37.964528" lon="-2.754384">
        <ele>1658.9</ele>
        <time>1989-12-30T23:59:59Z</time>
      </trkpt>
      <trkpt lat="37.964874" lon="-2.754412">
        <ele>1659.4</ele>
        <time>1989-12-30T23:59:59Z</time>
      </trkpt>
      <trkpt lat="37.965193" lon="-2.754469">
        <ele>1659.4</ele>
        <time>1989-12-30T23:59:59Z</time>
      </trkpt>
      <trkpt lat="37.965382" lon="-2.754362">
        <ele>1659.4</ele>
        <time>1989-12-30T23:59:59Z</time>
      </trkpt>
      <trkpt lat="37.965507" lon="-2.754311">
        <ele>1659.4</ele>
        <time>1989-12-30T23:59:59Z</time>
      </trkpt>
      <trkpt lat="37.966116" lon="-2.753834">
        <ele>1658.9</ele>
        <time>1989-12-30T23:59:59Z</time>
      </trkpt>
      <trkpt lat="37.966384" lon="-2.753615">
        <ele>1658.4</ele>
        <time>1989-12-30T23:59:59Z</time>
      </trkpt>
      <trkpt lat="37.966490" lon="-2.753510">
        <ele>1658.4</ele>
        <time>1989-12-30T23:59:59Z</time>
      </trkpt>
      <trkpt lat="37.966643" lon="-2.753447">
        <ele>1657.0</ele>
        <time>1989-12-30T23:59:59Z</time>
      </trkpt>
      <trkpt lat="37.966742" lon="-2.753458">
        <ele>1659.4</ele>
        <time>1989-12-30T23:59:59Z</time>
      </trkpt>
      <trkpt lat="37.966853" lon="-2.753561">
        <ele>1655.0</ele>
        <time>1989-12-30T23:59:59Z</time>
      </trkpt>
      <trkpt lat="37.967076" lon="-2.753779">
        <ele>1655.0</ele>
        <time>1989-12-30T23:59:59Z</time>
      </trkpt>
      <trkpt lat="37.967175" lon="-2.753919">
        <ele>1655.0</ele>
        <time>1989-12-30T23:59:59Z</time>
      </trkpt>
      <trkpt lat="37.967286" lon="-2.754003">
        <ele>1656.5</ele>
        <time>1989-12-30T23:59:59Z</time>
      </trkpt>
      <trkpt lat="37.967392" lon="-2.753953">
        <ele>1657.9</ele>
        <time>1989-12-30T23:59:59Z</time>
      </trkpt>
      <trkpt lat="37.967615" lon="-2.753881">
        <ele>1659.4</ele>
        <time>1989-12-30T23:59:59Z</time>
      </trkpt>
      <trkpt lat="37.967815" lon="-2.753902">
        <ele>1660.3</ele>
        <time>1989-12-30T23:59:59Z</time>
      </trkpt>
      <trkpt lat="37.968114" lon="-2.753983">
        <ele>1661.8</ele>
        <time>1989-12-30T23:59:59Z</time>
      </trkpt>
      <trkpt lat="37.968412" lon="-2.754083">
        <ele>1661.3</ele>
        <time>1989-12-30T23:59:59Z</time>
      </trkpt>
      <trkpt lat="37.968974" lon="-2.754397">
        <ele>1661.3</ele>
        <time>1989-12-30T23:59:59Z</time>
      </trkpt>
      <trkpt lat="37.969359" lon="-2.754570">
        <ele>1661.8</ele>
        <time>1989-12-30T23:59:59Z</time>
      </trkpt>
      <trkpt lat="37.969487" lon="-2.754601">
        <ele>1660.8</ele>
        <time>1989-12-30T23:59:59Z</time>
      </trkpt>
      <trkpt lat="37.969875" lon="-2.754648">
        <ele>1661.3</ele>
        <time>1989-12-30T23:59:59Z</time>
      </trkpt>
      <trkpt lat="37.970002" lon="-2.754708">
        <ele>1663.2</ele>
        <time>1989-12-30T23:59:59Z</time>
      </trkpt>
      <trkpt lat="37.970073" lon="-2.754814">
        <ele>1662.7</ele>
        <time>1989-12-30T23:59:59Z</time>
      </trkpt>
      <trkpt lat="37.970090" lon="-2.754955">
        <ele>1662.3</ele>
        <time>1989-12-30T23:59:59Z</time>
      </trkpt>
      <trkpt lat="37.970072" lon="-2.755126">
        <ele>1662.3</ele>
        <time>1989-12-30T23:59:59Z</time>
      </trkpt>
      <trkpt lat="37.969882" lon="-2.755651">
        <ele>1661.8</ele>
        <time>1989-12-30T23:59:59Z</time>
      </trkpt>
      <trkpt lat="37.969926" lon="-2.755539">
        <ele>1662.7</ele>
        <time>1989-12-30T23:59:59Z</time>
      </trkpt>
      <trkpt lat="37.969875" lon="-2.755785">
        <ele>1663.2</ele>
        <time>1989-12-30T23:59:59Z</time>
      </trkpt>
      <trkpt lat="37.969887" lon="-2.755912">
        <ele>1662.7</ele>
        <time>1989-12-30T23:59:59Z</time>
      </trkpt>
      <trkpt lat="37.969987" lon="-2.756271">
        <ele>1659.9</ele>
        <time>1989-12-30T23:59:59Z</time>
      </trkpt>
      <trkpt lat="37.969990" lon="-2.756418">
        <ele>1659.9</ele>
        <time>1989-12-30T23:59:59Z</time>
      </trkpt>
      <trkpt lat="37.970075" lon="-2.756500">
        <ele>1661.3</ele>
        <time>1989-12-30T23:59:59Z</time>
      </trkpt>
      <trkpt lat="37.970156" lon="-2.756548">
        <ele>1662.7</ele>
        <time>1989-12-30T23:59:59Z</time>
      </trkpt>
      <trkpt lat="37.970629" lon="-2.756736">
        <ele>1665.6</ele>
        <time>1989-12-30T23:59:59Z</time>
      </trkpt>
      <trkpt lat="37.970840" lon="-2.756732">
        <ele>1667.1</ele>
        <time>1989-12-30T23:59:59Z</time>
      </trkpt>
      <trkpt lat="37.971019" lon="-2.756776">
        <ele>1669.5</ele>
        <time>1989-12-30T23:59:59Z</time>
      </trkpt>
      <trkpt lat="37.971110" lon="-2.756867">
        <ele>1669.9</ele>
        <time>1989-12-30T23:59:59Z</time>
      </trkpt>
      <trkpt lat="37.971208" lon="-2.756912">
        <ele>1670.4</ele>
        <time>1989-12-30T23:59:59Z</time>
      </trkpt>
      <trkpt lat="37.971347" lon="-2.756872">
        <ele>1669.9</ele>
        <time>1989-12-30T23:59:59Z</time>
      </trkpt>
      <trkpt lat="37.971418" lon="-2.756770">
        <ele>1677.6</ele>
        <time>1989-12-30T23:59:59Z</time>
      </trkpt>
      <trkpt lat="37.971521" lon="-2.756707">
        <ele>1677.2</ele>
        <time>1989-12-30T23:59:59Z</time>
      </trkpt>
      <trkpt lat="37.971642" lon="-2.756660">
        <ele>1677.6</ele>
        <time>1989-12-30T23:59:59Z</time>
      </trkpt>
      <trkpt lat="37.972146" lon="-2.756847">
        <ele>1677.2</ele>
        <time>1989-12-30T23:59:59Z</time>
      </trkpt>
      <trkpt lat="37.972410" lon="-2.756910">
        <ele>1676.2</ele>
        <time>1989-12-30T23:59:59Z</time>
      </trkpt>
      <trkpt lat="37.972934" lon="-2.756970">
        <ele>1675.7</ele>
        <time>1989-12-30T23:59:59Z</time>
      </trkpt>
      <trkpt lat="37.973156" lon="-2.756909">
        <ele>1679.1</ele>
        <time>1989-12-30T23:59:59Z</time>
      </trkpt>
      <trkpt lat="37.973239" lon="-2.756804">
        <ele>1675.7</ele>
        <time>1989-12-30T23:59:59Z</time>
      </trkpt>
      <trkpt lat="37.973400" lon="-2.756666">
        <ele>1676.7</ele>
        <time>1989-12-30T23:59:59Z</time>
      </trkpt>
      <trkpt lat="37.973491" lon="-2.756631">
        <ele>1676.7</ele>
        <time>1989-12-30T23:59:59Z</time>
      </trkpt>
      <trkpt lat="37.973701" lon="-2.756624">
        <ele>1676.7</ele>
        <time>1989-12-30T23:59:59Z</time>
      </trkpt>
      <trkpt lat="37.973922" lon="-2.756757">
        <ele>1675.2</ele>
        <time>1989-12-30T23:59:59Z</time>
      </trkpt>
      <trkpt lat="37.974520" lon="-2.757139">
        <ele>1675.2</ele>
        <time>1989-12-30T23:59:59Z</time>
      </trkpt>
      <trkpt lat="37.974594" lon="-2.757163">
        <ele>1678.6</ele>
        <time>1989-12-30T23:59:59Z</time>
      </trkpt>
      <trkpt lat="37.974708" lon="-2.757116">
        <ele>1679.1</ele>
        <time>1989-12-30T23:59:59Z</time>
      </trkpt>
      <trkpt lat="37.974964" lon="-2.757089">
        <ele>1677.2</ele>
        <time>1989-12-30T23:59:59Z</time>
      </trkpt>
      <trkpt lat="37.975269" lon="-2.756992">
        <ele>1677.6</ele>
        <time>1989-12-30T23:59:59Z</time>
      </trkpt>
      <trkpt lat="37.975658" lon="-2.757084">
        <ele>1677.6</ele>
        <time>1989-12-30T23:59:59Z</time>
      </trkpt>
      <trkpt lat="37.975956" lon="-2.757105">
        <ele>1676.2</ele>
        <time>1989-12-30T23:59:59Z</time>
      </trkpt>
      <trkpt lat="37.976602" lon="-2.756800">
        <ele>1677.2</ele>
        <time>1989-12-30T23:59:59Z</time>
      </trkpt>
      <trkpt lat="37.976702" lon="-2.756733">
        <ele>1676.7</ele>
        <time>1989-12-30T23:59:59Z</time>
      </trkpt>
      <trkpt lat="37.976923" lon="-2.756456">
        <ele>1677.2</ele>
        <time>1989-12-30T23:59:59Z</time>
      </trkpt>
      <trkpt lat="37.977294" lon="-2.756230">
        <ele>1673.8</ele>
        <time>1989-12-30T23:59:59Z</time>
      </trkpt>
      <trkpt lat="37.977487" lon="-2.756242">
        <ele>1674.3</ele>
        <time>1989-12-30T23:59:59Z</time>
      </trkpt>
      <trkpt lat="37.977712" lon="-2.756237">
        <ele>1674.8</ele>
        <time>1989-12-30T23:59:59Z</time>
      </trkpt>
      <trkpt lat="37.978216" lon="-2.756118">
        <ele>1674.8</ele>
        <time>1989-12-30T23:59:59Z</time>
      </trkpt>
      <trkpt lat="37.978402" lon="-2.755991">
        <ele>1673.8</ele>
        <time>1989-12-30T23:59:59Z</time>
      </trkpt>
      <trkpt lat="37.978529" lon="-2.755971">
        <ele>1673.8</ele>
        <time>1989-12-30T23:59:59Z</time>
      </trkpt>
      <trkpt lat="37.978836" lon="-2.755974">
        <ele>1672.4</ele>
        <time>1989-12-30T23:59:59Z</time>
      </trkpt>
      <trkpt lat="37.978941" lon="-2.755900">
        <ele>1671.4</ele>
        <time>1989-12-30T23:59:59Z</time>
      </trkpt>
      <trkpt lat="37.979211" lon="-2.755575">
        <ele>1670.4</ele>
        <time>1989-12-30T23:59:59Z</time>
      </trkpt>
      <trkpt lat="37.979353" lon="-2.755445">
        <ele>1673.8</ele>
        <time>1989-12-30T23:59:59Z</time>
      </trkpt>
      <trkpt lat="37.979756" lon="-2.755082">
        <ele>1677.6</ele>
        <time>1989-12-30T23:59:59Z</time>
      </trkpt>
      <trkpt lat="37.980450" lon="-2.754409">
        <ele>1681.0</ele>
        <time>1989-12-30T23:59:59Z</time>
      </trkpt>
      <trkpt lat="37.980953" lon="-2.754025">
        <ele>1683.9</ele>
        <time>1989-12-30T23:59:59Z</time>
      </trkpt>
      <trkpt lat="37.981427" lon="-2.753803">
        <ele>1683.9</ele>
        <time>1989-12-30T23:59:59Z</time>
      </trkpt>
      <trkpt lat="37.981776" lon="-2.753680">
        <ele>1684.8</ele>
        <time>1989-12-30T23:59:59Z</time>
      </trkpt>
      <trkpt lat="37.981876" lon="-2.753715">
        <ele>1684.8</ele>
        <time>1989-12-30T23:59:59Z</time>
      </trkpt>
      <trkpt lat="37.982059" lon="-2.753647">
        <ele>1685.8</ele>
        <time>1989-12-30T23:59:59Z</time>
      </trkpt>
      <trkpt lat="37.982350" lon="-2.753687">
        <ele>1687.3</ele>
        <time>1989-12-30T23:59:59Z</time>
      </trkpt>
      <trkpt lat="37.982547" lon="-2.753642">
        <ele>1688.2</ele>
        <time>1989-12-30T23:59:59Z</time>
      </trkpt>
      <trkpt lat="37.982853" lon="-2.753406">
        <ele>1688.7</ele>
        <time>1989-12-30T23:59:59Z</time>
      </trkpt>
      <trkpt lat="37.983331" lon="-2.753210">
        <ele>1689.2</ele>
        <time>1989-12-30T23:59:59Z</time>
      </trkpt>
      <trkpt lat="37.983671" lon="-2.753020">
        <ele>1689.2</ele>
        <time>1989-12-30T23:59:59Z</time>
      </trkpt>
      <trkpt lat="37.983991" lon="-2.752764">
        <ele>1690.6</ele>
        <time>1989-12-30T23:59:59Z</time>
      </trkpt>
      <trkpt lat="37.984345" lon="-2.752548">
        <ele>1691.6</ele>
        <time>1989-12-30T23:59:59Z</time>
      </trkpt>
      <trkpt lat="37.984596" lon="-2.752431">
        <ele>1695.4</ele>
        <time>1989-12-30T23:59:59Z</time>
      </trkpt>
      <trkpt lat="37.984581" lon="-2.752319">
        <ele>1695.9</ele>
        <time>1989-12-30T23:59:59Z</time>
      </trkpt>
      <trkpt lat="37.984789" lon="-2.752189">
        <ele>1695.4</ele>
        <time>1989-12-30T23:59:59Z</time>
      </trkpt>
      <trkpt lat="37.984899" lon="-2.752079">
        <ele>1695.4</ele>
        <time>1989-12-30T23:59:59Z</time>
      </trkpt>
      <trkpt lat="37.985196" lon="-2.751600">
        <ele>1696.4</ele>
        <time>1989-12-30T23:59:59Z</time>
      </trkpt>
      <trkpt lat="37.985273" lon="-2.751489">
        <ele>1689.7</ele>
        <time>1989-12-30T23:59:59Z</time>
      </trkpt>
      <trkpt lat="37.985450" lon="-2.751421">
        <ele>1691.1</ele>
        <time>1989-12-30T23:59:59Z</time>
      </trkpt>
      <trkpt lat="37.985555" lon="-2.751353">
        <ele>1691.6</ele>
        <time>1989-12-30T23:59:59Z</time>
      </trkpt>
      <trkpt lat="37.986472" lon="-2.750512">
        <ele>1698.8</ele>
        <time>1989-12-30T23:59:59Z</time>
      </trkpt>
      <trkpt lat="37.986854" lon="-2.750350">
        <ele>1703.1</ele>
        <time>1989-12-30T23:59:59Z</time>
      </trkpt>
      <trkpt lat="37.986987" lon="-2.750309">
        <ele>1704.1</ele>
        <time>1989-12-30T23:59:59Z</time>
      </trkpt>
      <trkpt lat="37.987384" lon="-2.750262">
        <ele>1706.5</ele>
        <time>1989-12-30T23:59:59Z</time>
      </trkpt>
      <trkpt lat="37.987513" lon="-2.750277">
        <ele>1707.0</ele>
        <time>1989-12-30T23:59:59Z</time>
      </trkpt>
      <trkpt lat="37.987648" lon="-2.750267">
        <ele>1707.9</ele>
        <time>1989-12-30T23:59:59Z</time>
      </trkpt>
      <trkpt lat="37.988044" lon="-2.750214">
        <ele>1709.8</ele>
        <time>1989-12-30T23:59:59Z</time>
      </trkpt>
      <trkpt lat="37.988385" lon="-2.750140">
        <ele>1711.8</ele>
        <time>1989-12-30T23:59:59Z</time>
      </trkpt>
      <trkpt lat="37.988557" lon="-2.749939">
        <ele>1714.2</ele>
        <time>1989-12-30T23:59:59Z</time>
      </trkpt>
      <trkpt lat="37.988763" lon="-2.749802">
        <ele>1717.5</ele>
        <time>1989-12-30T23:59:59Z</time>
      </trkpt>
      <trkpt lat="37.989568" lon="-2.749359">
        <ele>1726.7</ele>
        <time>1989-12-30T23:59:59Z</time>
      </trkpt>
      <trkpt lat="37.989665" lon="-2.749108">
        <ele>1729.1</ele>
        <time>1989-12-30T23:59:59Z</time>
      </trkpt>
      <trkpt lat="37.989765" lon="-2.749024">
        <ele>1730.5</ele>
        <time>1989-12-30T23:59:59Z</time>
      </trkpt>
      <trkpt lat="37.989859" lon="-2.748955">
        <ele>1730.0</ele>
        <time>1989-12-30T23:59:59Z</time>
      </trkpt>
      <trkpt lat="37.990090" lon="-2.748815">
        <ele>1732.4</ele>
        <time>1989-12-30T23:59:59Z</time>
      </trkpt>
      <trkpt lat="37.990163" lon="-2.748807">
        <ele>1736.8</ele>
        <time>1989-12-30T23:59:59Z</time>
      </trkpt>
      <trkpt lat="37.990245" lon="-2.748807">
        <ele>1737.7</ele>
        <time>1989-12-30T23:59:59Z</time>
      </trkpt>
      <trkpt lat="37.990329" lon="-2.748847">
        <ele>1735.3</ele>
        <time>1989-12-30T23:59:59Z</time>
      </trkpt>
      <trkpt lat="37.990446" lon="-2.748874">
        <ele>1739.2</ele>
        <time>1989-12-30T23:59:59Z</time>
      </trkpt>
      <trkpt lat="37.990640" lon="-2.748975">
        <ele>1742.0</ele>
        <time>1989-12-30T23:59:59Z</time>
      </trkpt>
      <trkpt lat="37.990726" lon="-2.749046">
        <ele>1741.1</ele>
        <time>1989-12-30T23:59:59Z</time>
      </trkpt>
      <trkpt lat="37.990837" lon="-2.749106">
        <ele>1741.1</ele>
        <time>1989-12-30T23:59:59Z</time>
      </trkpt>
      <trkpt lat="37.991260" lon="-2.749173">
        <ele>1739.6</ele>
        <time>1989-12-30T23:59:59Z</time>
      </trkpt>
      <trkpt lat="37.991605" lon="-2.749341">
        <ele>1738.2</ele>
        <time>1989-12-30T23:59:59Z</time>
      </trkpt>
      <trkpt lat="37.991689" lon="-2.749398">
        <ele>1737.2</ele>
        <time>1989-12-30T23:59:59Z</time>
      </trkpt>
      <trkpt lat="37.991960" lon="-2.749456">
        <ele>1736.8</ele>
        <time>1989-12-30T23:59:59Z</time>
      </trkpt>
      <trkpt lat="37.992256" lon="-2.749219">
        <ele>1735.3</ele>
        <time>1989-12-30T23:59:59Z</time>
      </trkpt>
      <trkpt lat="37.992396" lon="-2.749162">
        <ele>1732.9</ele>
        <time>1989-12-30T23:59:59Z</time>
      </trkpt>
      <trkpt lat="37.992496" lon="-2.749161">
        <ele>1731.5</ele>
        <time>1989-12-30T23:59:59Z</time>
      </trkpt>
      <trkpt lat="37.992811" lon="-2.749256">
        <ele>1729.1</ele>
        <time>1989-12-30T23:59:59Z</time>
      </trkpt>
      <trkpt lat="37.993270" lon="-2.749077">
        <ele>1727.6</ele>
        <time>1989-12-30T23:59:59Z</time>
      </trkpt>
      <trkpt lat="37.993488" lon="-2.749075">
        <ele>1726.7</ele>
        <time>1989-12-30T23:59:59Z</time>
      </trkpt>
      <trkpt lat="37.993712" lon="-2.748981">
        <ele>1725.2</ele>
        <time>1989-12-30T23:59:59Z</time>
      </trkpt>
      <trkpt lat="37.993831" lon="-2.748963">
        <ele>1724.3</ele>
        <time>1989-12-30T23:59:59Z</time>
      </trkpt>
      <trkpt lat="37.994053" lon="-2.749021">
        <ele>1722.3</ele>
        <time>1989-12-30T23:59:59Z</time>
      </trkpt>
      <trkpt lat="37.994147" lon="-2.749002">
        <ele>1721.9</ele>
        <time>1989-12-30T23:59:59Z</time>
      </trkpt>
      <trkpt lat="37.994296" lon="-2.748787">
        <ele>1722.3</ele>
        <time>1989-12-30T23:59:59Z</time>
      </trkpt>
      <trkpt lat="37.994396" lon="-2.748707">
        <ele>1722.8</ele>
        <time>1989-12-30T23:59:59Z</time>
      </trkpt>
      <trkpt lat="37.994528" lon="-2.748679">
        <ele>1723.8</ele>
        <time>1989-12-30T23:59:59Z</time>
      </trkpt>
      <trkpt lat="37.994791" lon="-2.748574">
        <ele>1722.8</ele>
        <time>1989-12-30T23:59:59Z</time>
      </trkpt>
      <trkpt lat="37.994907" lon="-2.748488">
        <ele>1723.3</ele>
        <time>1989-12-30T23:59:59Z</time>
      </trkpt>
      <trkpt lat="37.995352" lon="-2.748266">
        <ele>1723.8</ele>
        <time>1989-12-30T23:59:59Z</time>
      </trkpt>
      <trkpt lat="37.995805" lon="-2.748085">
        <ele>1721.9</ele>
        <time>1989-12-30T23:59:59Z</time>
      </trkpt>
      <trkpt lat="37.996149" lon="-2.748182">
        <ele>1720.9</ele>
        <time>1989-12-30T23:59:59Z</time>
      </trkpt>
      <trkpt lat="37.996261" lon="-2.748166">
        <ele>1721.4</ele>
        <time>1989-12-30T23:59:59Z</time>
      </trkpt>
      <trkpt lat="37.996358" lon="-2.748117">
        <ele>1721.4</ele>
        <time>1989-12-30T23:59:59Z</time>
      </trkpt>
      <trkpt lat="37.996436" lon="-2.748036">
        <ele>1721.4</ele>
        <time>1989-12-30T23:59:59Z</time>
      </trkpt>
      <trkpt lat="37.996475" lon="-2.747762">
        <ele>1720.9</ele>
        <time>1989-12-30T23:59:59Z</time>
      </trkpt>
      <trkpt lat="37.996546" lon="-2.747651">
        <ele>1721.4</ele>
        <time>1989-12-30T23:59:59Z</time>
      </trkpt>
      <trkpt lat="37.996743" lon="-2.747530">
        <ele>1722.3</ele>
        <time>1989-12-30T23:59:59Z</time>
      </trkpt>
      <trkpt lat="37.996942" lon="-2.747452">
        <ele>1722.8</ele>
        <time>1989-12-30T23:59:59Z</time>
      </trkpt>
      <trkpt lat="37.997510" lon="-2.747414">
        <ele>1719.9</ele>
        <time>1989-12-30T23:59:59Z</time>
      </trkpt>
      <trkpt lat="37.997747" lon="-2.747340">
        <ele>1719.5</ele>
        <time>1989-12-30T23:59:59Z</time>
      </trkpt>
      <trkpt lat="37.997816" lon="-2.747293">
        <ele>1719.5</ele>
        <time>1989-12-30T23:59:59Z</time>
      </trkpt>
      <trkpt lat="37.998026" lon="-2.747197">
        <ele>1720.9</ele>
        <time>1989-12-30T23:59:59Z</time>
      </trkpt>
      <trkpt lat="37.998114" lon="-2.747118">
        <ele>1720.9</ele>
        <time>1989-12-30T23:59:59Z</time>
      </trkpt>
      <trkpt lat="37.998323" lon="-2.746818">
        <ele>1719.9</ele>
        <time>1989-12-30T23:59:59Z</time>
      </trkpt>
      <trkpt lat="37.998448" lon="-2.746763">
        <ele>1720.4</ele>
        <time>1989-12-30T23:59:59Z</time>
      </trkpt>
      <trkpt lat="37.998551" lon="-2.746789">
        <ele>1720.4</ele>
        <time>1989-12-30T23:59:59Z</time>
      </trkpt>
      <trkpt lat="37.998633" lon="-2.746838">
        <ele>1720.4</ele>
        <time>1989-12-30T23:59:59Z</time>
      </trkpt>
      <trkpt lat="37.998872" lon="-2.746865">
        <ele>1718.0</ele>
        <time>1989-12-30T23:59:59Z</time>
      </trkpt>
      <trkpt lat="37.998973" lon="-2.746807">
        <ele>1716.6</ele>
        <time>1989-12-30T23:59:59Z</time>
      </trkpt>
      <trkpt lat="37.999139" lon="-2.746680">
        <ele>1714.6</ele>
        <time>1989-12-30T23:59:59Z</time>
      </trkpt>
      <trkpt lat="37.999659" lon="-2.746340">
        <ele>1717.5</ele>
        <time>1989-12-30T23:59:59Z</time>
      </trkpt>
      <trkpt lat="37.999866" lon="-2.746192">
        <ele>1718.5</ele>
        <time>1989-12-30T23:59:59Z</time>
      </trkpt>
      <trkpt lat="38.000086" lon="-2.745925">
        <ele>1719.9</ele>
        <time>1989-12-30T23:59:59Z</time>
      </trkpt>
      <trkpt lat="38.000874" lon="-2.744962">
        <ele>1720.4</ele>
        <time>1989-12-30T23:59:59Z</time>
      </trkpt>
      <trkpt lat="38.001036" lon="-2.744844">
        <ele>1719.5</ele>
        <time>1989-12-30T23:59:59Z</time>
      </trkpt>
      <trkpt lat="38.001699" lon="-2.744460">
        <ele>1719.0</ele>
        <time>1989-12-30T23:59:59Z</time>
      </trkpt>
      <trkpt lat="38.002360" lon="-2.743963">
        <ele>1719.0</ele>
        <time>1989-12-30T23:59:59Z</time>
      </trkpt>
      <trkpt lat="38.002570" lon="-2.743736">
        <ele>1718.5</ele>
        <time>1989-12-30T23:59:59Z</time>
      </trkpt>
      <trkpt lat="38.002734" lon="-2.743547">
        <ele>1719.9</ele>
        <time>1989-12-30T23:59:59Z</time>
      </trkpt>
      <trkpt lat="38.003591" lon="-2.743159">
        <ele>1719.9</ele>
        <time>1989-12-30T23:59:59Z</time>
      </trkpt>
      <trkpt lat="38.003825" lon="-2.742959">
        <ele>1720.4</ele>
        <time>1989-12-30T23:59:59Z</time>
      </trkpt>
      <trkpt lat="38.004598" lon="-2.742669">
        <ele>1723.3</ele>
        <time>1989-12-30T23:59:59Z</time>
      </trkpt>
      <trkpt lat="38.004848" lon="-2.742537">
        <ele>1724.3</ele>
        <time>1989-12-30T23:59:59Z</time>
      </trkpt>
      <trkpt lat="38.005599" lon="-2.742260">
        <ele>1724.7</ele>
        <time>1989-12-30T23:59:59Z</time>
      </trkpt>
      <trkpt lat="38.006337" lon="-2.741919">
        <ele>1725.7</ele>
        <time>1989-12-30T23:59:59Z</time>
      </trkpt>
      <trkpt lat="38.006626" lon="-2.741727">
        <ele>1726.7</ele>
        <time>1989-12-30T23:59:59Z</time>
      </trkpt>
      <trkpt lat="38.007091" lon="-2.741334">
        <ele>1727.1</ele>
        <time>1989-12-30T23:59:59Z</time>
      </trkpt>
      <trkpt lat="38.007380" lon="-2.741117">
        <ele>1728.6</ele>
        <time>1989-12-30T23:59:59Z</time>
      </trkpt>
      <trkpt lat="38.007658" lon="-2.740988">
        <ele>1730.5</ele>
        <time>1989-12-30T23:59:59Z</time>
      </trkpt>
      <trkpt lat="38.007702" lon="-2.740979">
        <ele>1738.2</ele>
        <time>1989-12-30T23:59:59Z</time>
      </trkpt>
      <trkpt lat="38.007865" lon="-2.740881">
        <ele>1739.6</ele>
        <time>1989-12-30T23:59:59Z</time>
      </trkpt>
      <trkpt lat="38.008156" lon="-2.740672">
        <ele>1741.1</ele>
        <time>1989-12-30T23:59:59Z</time>
      </trkpt>
      <trkpt lat="38.009049" lon="-2.740267">
        <ele>1744.9</ele>
        <time>1989-12-30T23:59:59Z</time>
      </trkpt>
      <trkpt lat="38.009160" lon="-2.740188">
        <ele>1744.4</ele>
        <time>1989-12-30T23:59:59Z</time>
      </trkpt>
      <trkpt lat="38.009271" lon="-2.740129">
        <ele>1744.9</ele>
        <time>1989-12-30T23:59:59Z</time>
      </trkpt>
      <trkpt lat="38.009476" lon="-2.739959">
        <ele>1746.4</ele>
        <time>1989-12-30T23:59:59Z</time>
      </trkpt>
      <trkpt lat="38.009586" lon="-2.739776">
        <ele>1743.0</ele>
        <time>1989-12-30T23:59:59Z</time>
      </trkpt>
      <trkpt lat="38.009631" lon="-2.739666">
        <ele>1743.5</ele>
        <time>1989-12-30T23:59:59Z</time>
      </trkpt>
      <trkpt lat="38.009931" lon="-2.739317">
        <ele>1744.0</ele>
        <time>1989-12-30T23:59:59Z</time>
      </trkpt>
      <trkpt lat="38.010180" lon="-2.738956">
        <ele>1745.4</ele>
        <time>1989-12-30T23:59:59Z</time>
      </trkpt>
      <trkpt lat="38.010279" lon="-2.738859">
        <ele>1745.4</ele>
        <time>1989-12-30T23:59:59Z</time>
      </trkpt>
      <trkpt lat="38.010402" lon="-2.738801">
        <ele>1745.4</ele>
        <time>1989-12-30T23:59:59Z</time>
      </trkpt>
      <trkpt lat="38.010645" lon="-2.738762">
        <ele>1745.4</ele>
        <time>1989-12-30T23:59:59Z</time>
      </trkpt>
      <trkpt lat="38.010752" lon="-2.738701">
        <ele>1745.9</ele>
        <time>1989-12-30T23:59:59Z</time>
      </trkpt>
      <trkpt lat="38.010854" lon="-2.738611">
        <ele>1747.3</ele>
        <time>1989-12-30T23:59:59Z</time>
      </trkpt>
      <trkpt lat="38.011192" lon="-2.738356">
        <ele>1748.3</ele>
        <time>1989-12-30T23:59:59Z</time>
      </trkpt>
      <trkpt lat="38.011659" lon="-2.737815">
        <ele>1748.8</ele>
        <time>1989-12-30T23:59:59Z</time>
      </trkpt>
      <trkpt lat="38.011923" lon="-2.737547">
        <ele>1749.7</ele>
        <time>1989-12-30T23:59:59Z</time>
      </trkpt>
      <trkpt lat="38.011997" lon="-2.737525">
        <ele>1750.7</ele>
        <time>1989-12-30T23:59:59Z</time>
      </trkpt>
      <trkpt lat="38.012093" lon="-2.737529">
        <ele>1745.9</ele>
        <time>1989-12-30T23:59:59Z</time>
      </trkpt>
      <trkpt lat="38.012186" lon="-2.737483">
        <ele>1744.9</ele>
        <time>1989-12-30T23:59:59Z</time>
      </trkpt>
      <trkpt lat="38.012350" lon="-2.737339">
        <ele>1747.3</ele>
        <time>1989-12-30T23:59:59Z</time>
      </trkpt>
      <trkpt lat="38.012507" lon="-2.737055">
        <ele>1747.3</ele>
        <time>1989-12-30T23:59:59Z</time>
      </trkpt>
      <trkpt lat="38.012589" lon="-2.737036">
        <ele>1744.4</ele>
        <time>1989-12-30T23:59:59Z</time>
      </trkpt>
      <trkpt lat="38.012703" lon="-2.737021">
        <ele>1744.9</ele>
        <time>1989-12-30T23:59:59Z</time>
      </trkpt>
      <trkpt lat="38.012824" lon="-2.737084">
        <ele>1744.9</ele>
        <time>1989-12-30T23:59:59Z</time>
      </trkpt>
      <trkpt lat="38.013420" lon="-2.737705">
        <ele>1751.7</ele>
        <time>1989-12-30T23:59:59Z</time>
      </trkpt>
      <trkpt lat="38.013907" lon="-2.738212">
        <ele>1748.8</ele>
        <time>1989-12-30T23:59:59Z</time>
      </trkpt>
      <trkpt lat="38.014512" lon="-2.738908">
        <ele>1750.7</ele>
        <time>1989-12-30T23:59:59Z</time>
      </trkpt>
      <trkpt lat="38.014772" lon="-2.739080">
        <ele>1750.7</ele>
        <time>1989-12-30T23:59:59Z</time>
      </trkpt>
      <trkpt lat="38.014887" lon="-2.739072">
        <ele>1751.2</ele>
        <time>1989-12-30T23:59:59Z</time>
      </trkpt>
      <trkpt lat="38.015001" lon="-2.739089">
        <ele>1751.7</ele>
        <time>1989-12-30T23:59:59Z</time>
      </trkpt>
      <trkpt lat="38.015230" lon="-2.739187">
        <ele>1754.1</ele>
        <time>1989-12-30T23:59:59Z</time>
      </trkpt>
      <trkpt lat="38.015423" lon="-2.739320">
        <ele>1756.0</ele>
        <time>1989-12-30T23:59:59Z</time>
      </trkpt>
      <trkpt lat="38.015465" lon="-2.739410">
        <ele>1756.9</ele>
        <time>1989-12-30T23:59:59Z</time>
      </trkpt>
      <trkpt lat="38.015320" lon="-2.739865">
        <ele>1762.2</ele>
        <time>1989-12-30T23:59:59Z</time>
      </trkpt>
      <trkpt lat="38.015365" lon="-2.740020">
        <ele>1763.2</ele>
        <time>1989-12-30T23:59:59Z</time>
      </trkpt>
      <trkpt lat="38.015721" lon="-2.740480">
        <ele>1764.6</ele>
        <time>1989-12-30T23:59:59Z</time>
      </trkpt>
      <trkpt lat="38.015792" lon="-2.740442">
        <ele>1765.6</ele>
        <time>1989-12-30T23:59:59Z</time>
      </trkpt>
      <trkpt lat="38.015871" lon="-2.740373">
        <ele>1765.1</ele>
        <time>1989-12-30T23:59:59Z</time>
      </trkpt>
      <trkpt lat="38.016081" lon="-2.740425">
        <ele>1769.4</ele>
        <time>1989-12-30T23:59:59Z</time>
      </trkpt>
      <trkpt lat="38.016164" lon="-2.740483">
        <ele>1769.4</ele>
        <time>1989-12-30T23:59:59Z</time>
      </trkpt>
      <trkpt lat="38.016214" lon="-2.740399">
        <ele>1758.9</ele>
        <time>1989-12-30T23:59:59Z</time>
      </trkpt>
      <trkpt lat="38.016313" lon="-2.740291">
        <ele>1764.2</ele>
        <time>1989-12-30T23:59:59Z</time>
      </trkpt>
      <trkpt lat="38.016415" lon="-2.740232">
        <ele>1765.6</ele>
        <time>1989-12-30T23:59:59Z</time>
      </trkpt>
      <trkpt lat="38.016893" lon="-2.739947">
        <ele>1768.0</ele>
        <time>1989-12-30T23:59:59Z</time>
      </trkpt>
      <trkpt lat="38.017230" lon="-2.739633">
        <ele>1768.5</ele>
        <time>1989-12-30T23:59:59Z</time>
      </trkpt>
      <trkpt lat="38.017321" lon="-2.739519">
        <ele>1769.0</ele>
        <time>1989-12-30T23:59:59Z</time>
      </trkpt>
      <trkpt lat="38.017573" lon="-2.739102">
        <ele>1769.4</ele>
        <time>1989-12-30T23:59:59Z</time>
      </trkpt>
      <trkpt lat="38.017713" lon="-2.738830">
        <ele>1769.4</ele>
        <time>1989-12-30T23:59:59Z</time>
      </trkpt>
      <trkpt lat="38.017871" lon="-2.738467">
        <ele>1770.4</ele>
        <time>1989-12-30T23:59:59Z</time>
      </trkpt>
      <trkpt lat="38.017976" lon="-2.738364">
        <ele>1769.9</ele>
        <time>1989-12-30T23:59:59Z</time>
      </trkpt>
      <trkpt lat="38.018294" lon="-2.738220">
        <ele>1773.3</ele>
        <time>1989-12-30T23:59:59Z</time>
      </trkpt>
      <trkpt lat="38.018475" lon="-2.738106">
        <ele>1775.7</ele>
        <time>1989-12-30T23:59:59Z</time>
      </trkpt>
      <trkpt lat="38.018599" lon="-2.738011">
        <ele>1774.3</ele>
        <time>1989-12-30T23:59:59Z</time>
      </trkpt>
      <trkpt lat="38.018640" lon="-2.737868">
        <ele>1776.2</ele>
        <time>1989-12-30T23:59:59Z</time>
      </trkpt>
      <trkpt lat="38.018700" lon="-2.737743">
        <ele>1776.2</ele>
        <time>1989-12-30T23:59:59Z</time>
      </trkpt>
      <trkpt lat="38.018984" lon="-2.737395">
        <ele>1775.2</ele>
        <time>1989-12-30T23:59:59Z</time>
      </trkpt>
      <trkpt lat="38.019237" lon="-2.737016">
        <ele>1777.6</ele>
        <time>1989-12-30T23:59:59Z</time>
      </trkpt>
      <trkpt lat="38.019449" lon="-2.736721">
        <ele>1775.2</ele>
        <time>1989-12-30T23:59:59Z</time>
      </trkpt>
      <trkpt lat="38.020095" lon="-2.736116">
        <ele>1770.9</ele>
        <time>1989-12-30T23:59:59Z</time>
      </trkpt>
      <trkpt lat="38.020364" lon="-2.736040">
        <ele>1768.5</ele>
        <time>1989-12-30T23:59:59Z</time>
      </trkpt>
      <trkpt lat="38.020600" lon="-2.735828">
        <ele>1766.1</ele>
        <time>1989-12-30T23:59:59Z</time>
      </trkpt>
      <trkpt lat="38.020686" lon="-2.735680">
        <ele>1764.2</ele>
        <time>1989-12-30T23:59:59Z</time>
      </trkpt>
      <trkpt lat="38.020796" lon="-2.735577">
        <ele>1762.7</ele>
        <time>1989-12-30T23:59:59Z</time>
      </trkpt>
      <trkpt lat="38.021041" lon="-2.735478">
        <ele>1760.3</ele>
        <time>1989-12-30T23:59:59Z</time>
      </trkpt>
      <trkpt lat="38.021151" lon="-2.735403">
        <ele>1759.8</ele>
        <time>1989-12-30T23:59:59Z</time>
      </trkpt>
      <trkpt lat="38.021202" lon="-2.735265">
        <ele>1759.4</ele>
        <time>1989-12-30T23:59:59Z</time>
      </trkpt>
      <trkpt lat="38.021238" lon="-2.734834">
        <ele>1755.0</ele>
        <time>1989-12-30T23:59:59Z</time>
      </trkpt>
      <trkpt lat="38.021324" lon="-2.734564">
        <ele>1751.2</ele>
        <time>1989-12-30T23:59:59Z</time>
      </trkpt>
      <trkpt lat="38.021405" lon="-2.734180">
        <ele>1748.3</ele>
        <time>1989-12-30T23:59:59Z</time>
      </trkpt>
      <trkpt lat="38.021722" lon="-2.733285">
        <ele>1746.4</ele>
        <time>1989-12-30T23:59:59Z</time>
      </trkpt>
      <trkpt lat="38.021814" lon="-2.733234">
        <ele>1745.9</ele>
        <time>1989-12-30T23:59:59Z</time>
      </trkpt>
      <trkpt lat="38.021932" lon="-2.733239">
        <ele>1744.9</ele>
        <time>1989-12-30T23:59:59Z</time>
      </trkpt>
      <trkpt lat="38.022153" lon="-2.733307">
        <ele>1744.0</ele>
        <time>1989-12-30T23:59:59Z</time>
      </trkpt>
      <trkpt lat="38.022679" lon="-2.733554">
        <ele>1740.1</ele>
        <time>1989-12-30T23:59:59Z</time>
      </trkpt>
      <trkpt lat="38.022996" lon="-2.733613">
        <ele>1738.2</ele>
        <time>1989-12-30T23:59:59Z</time>
      </trkpt>
      <trkpt lat="38.023118" lon="-2.733610">
        <ele>1738.2</ele>
        <time>1989-12-30T23:59:59Z</time>
      </trkpt>
      <trkpt lat="38.023440" lon="-2.733571">
        <ele>1734.4</ele>
        <time>1989-12-30T23:59:59Z</time>
      </trkpt>
      <trkpt lat="38.023531" lon="-2.733539">
        <ele>1733.9</ele>
        <time>1989-12-30T23:59:59Z</time>
      </trkpt>
      <trkpt lat="38.023746" lon="-2.733378">
        <ele>1732.4</ele>
        <time>1989-12-30T23:59:59Z</time>
      </trkpt>
      <trkpt lat="38.023714" lon="-2.733438">
        <ele>1732.0</ele>
        <time>1989-12-30T23:59:59Z</time>
      </trkpt>
      <trkpt lat="38.023846" lon="-2.733297">
        <ele>1723.3</ele>
        <time>1989-12-30T23:59:59Z</time>
      </trkpt>
      <trkpt lat="38.024019" lon="-2.733139">
        <ele>1725.7</ele>
        <time>1989-12-30T23:59:59Z</time>
      </trkpt>
      <trkpt lat="38.024395" lon="-2.732875">
        <ele>1728.6</ele>
        <time>1989-12-30T23:59:59Z</time>
      </trkpt>
      <trkpt lat="38.024868" lon="-2.732635">
        <ele>1728.6</ele>
        <time>1989-12-30T23:59:59Z</time>
      </trkpt>
      <trkpt lat="38.024973" lon="-2.732675">
        <ele>1728.1</ele>
        <time>1989-12-30T23:59:59Z</time>
      </trkpt>
      <trkpt lat="38.025078" lon="-2.732688">
        <ele>1728.1</ele>
        <time>1989-12-30T23:59:59Z</time>
      </trkpt>
      <trkpt lat="38.025272" lon="-2.732657">
        <ele>1727.1</ele>
        <time>1989-12-30T23:59:59Z</time>
      </trkpt>
      <trkpt lat="38.025477" lon="-2.732650">
        <ele>1725.7</ele>
        <time>1989-12-30T23:59:59Z</time>
      </trkpt>
      <trkpt lat="38.025905" lon="-2.732548">
        <ele>1722.8</ele>
        <time>1989-12-30T23:59:59Z</time>
      </trkpt>
      <trkpt lat="38.026207" lon="-2.732337">
        <ele>1720.4</ele>
        <time>1989-12-30T23:59:59Z</time>
      </trkpt>
      <trkpt lat="38.026411" lon="-2.732231">
        <ele>1719.5</ele>
        <time>1989-12-30T23:59:59Z</time>
      </trkpt>
      <trkpt lat="38.026943" lon="-2.731829">
        <ele>1717.1</ele>
        <time>1989-12-30T23:59:59Z</time>
      </trkpt>
      <trkpt lat="38.027154" lon="-2.731774">
        <ele>1715.1</ele>
        <time>1989-12-30T23:59:59Z</time>
      </trkpt>
      <trkpt lat="38.027211" lon="-2.731780">
        <ele>1707.9</ele>
        <time>1989-12-30T23:59:59Z</time>
      </trkpt>
      <trkpt lat="38.027337" lon="-2.731794">
        <ele>1707.9</ele>
        <time>1989-12-30T23:59:59Z</time>
      </trkpt>
      <trkpt lat="38.028022" lon="-2.731759">
        <ele>1706.5</ele>
        <time>1989-12-30T23:59:59Z</time>
      </trkpt>
      <trkpt lat="38.028144" lon="-2.731696">
        <ele>1711.3</ele>
        <time>1989-12-30T23:59:59Z</time>
      </trkpt>
      <trkpt lat="38.028228" lon="-2.731576">
        <ele>1713.7</ele>
        <time>1989-12-30T23:59:59Z</time>
      </trkpt>
      <trkpt lat="38.028505" lon="-2.730914">
        <ele>1713.7</ele>
        <time>1989-12-30T23:59:59Z</time>
      </trkpt>
      <trkpt lat="38.028866" lon="-2.730333">
        <ele>1710.3</ele>
        <time>1989-12-30T23:59:59Z</time>
      </trkpt>
      <trkpt lat="38.029277" lon="-2.729694">
        <ele>1710.3</ele>
        <time>1989-12-30T23:59:59Z</time>
      </trkpt>
      <trkpt lat="38.029319" lon="-2.729540">
        <ele>1709.8</ele>
        <time>1989-12-30T23:59:59Z</time>
      </trkpt>
      <trkpt lat="38.029390" lon="-2.729393">
        <ele>1709.4</ele>
        <time>1989-12-30T23:59:59Z</time>
      </trkpt>
      <trkpt lat="38.029490" lon="-2.729275">
        <ele>1709.4</ele>
        <time>1989-12-30T23:59:59Z</time>
      </trkpt>
      <trkpt lat="38.029783" lon="-2.729011">
        <ele>1709.8</ele>
        <time>1989-12-30T23:59:59Z</time>
      </trkpt>
      <trkpt lat="38.030067" lon="-2.728708">
        <ele>1709.4</ele>
        <time>1989-12-30T23:59:59Z</time>
      </trkpt>
      <trkpt lat="38.030626" lon="-2.727961">
        <ele>1711.3</ele>
        <time>1989-12-30T23:59:59Z</time>
      </trkpt>
      <trkpt lat="38.030894" lon="-2.727537">
        <ele>1711.3</ele>
        <time>1989-12-30T23:59:59Z</time>
      </trkpt>
      <trkpt lat="38.031063" lon="-2.727087">
        <ele>1712.2</ele>
        <time>1989-12-30T23:59:59Z</time>
      </trkpt>
      <trkpt lat="38.031058" lon="-2.726922">
        <ele>1711.8</ele>
        <time>1989-12-30T23:59:59Z</time>
      </trkpt>
      <trkpt lat="38.031020" lon="-2.726754">
        <ele>1712.2</ele>
        <time>1989-12-30T23:59:59Z</time>
      </trkpt>
      <trkpt lat="38.030970" lon="-2.726622">
        <ele>1712.2</ele>
        <time>1989-12-30T23:59:59Z</time>
      </trkpt>
      <trkpt lat="38.030772" lon="-2.726317">
        <ele>1709.8</ele>
        <time>1989-12-30T23:59:59Z</time>
      </trkpt>
      <trkpt lat="38.030657" lon="-2.725994">
        <ele>1708.9</ele>
        <time>1989-12-30T23:59:59Z</time>
      </trkpt>
      <trkpt lat="38.030880" lon="-2.725874">
        <ele>1706.5</ele>
        <time>1989-12-30T23:59:59Z</time>
      </trkpt>
      <trkpt lat="38.030977" lon="-2.725775">
        <ele>1706.5</ele>
        <time>1989-12-30T23:59:59Z</time>
      </trkpt>
      <trkpt lat="38.031717" lon="-2.724216">
        <ele>1706.0</ele>
        <time>1989-12-30T23:59:59Z</time>
      </trkpt>
      <trkpt lat="38.031792" lon="-2.723996">
        <ele>1701.2</ele>
        <time>1989-12-30T23:59:59Z</time>
      </trkpt>
      <trkpt lat="38.032031" lon="-2.723470">
        <ele>1705.0</ele>
        <time>1989-12-30T23:59:59Z</time>
      </trkpt>
      <trkpt lat="38.032195" lon="-2.723156">
        <ele>1706.0</ele>
        <time>1989-12-30T23:59:59Z</time>
      </trkpt>
      <trkpt lat="38.032288" lon="-2.723071">
        <ele>1710.8</ele>
        <time>1989-12-30T23:59:59Z</time>
      </trkpt>
      <trkpt lat="38.032258" lon="-2.723040">
        <ele>1709.4</ele>
        <time>1989-12-30T23:59:59Z</time>
      </trkpt>
      <trkpt lat="38.032594" lon="-2.722237">
        <ele>1704.6</ele>
        <time>1989-12-30T23:59:59Z</time>
      </trkpt>
      <trkpt lat="38.032689" lon="-2.721906">
        <ele>1707.9</ele>
        <time>1989-12-30T23:59:59Z</time>
      </trkpt>
      <trkpt lat="38.032885" lon="-2.721500">
        <ele>1704.1</ele>
        <time>1989-12-30T23:59:59Z</time>
      </trkpt>
      <trkpt lat="38.032997" lon="-2.721402">
        <ele>1713.7</ele>
        <time>1989-12-30T23:59:59Z</time>
      </trkpt>
      <trkpt lat="38.033063" lon="-2.721284">
        <ele>1713.7</ele>
        <time>1989-12-30T23:59:59Z</time>
      </trkpt>
      <trkpt lat="38.033100" lon="-2.721101">
        <ele>1712.7</ele>
        <time>1989-12-30T23:59:59Z</time>
      </trkpt>
      <trkpt lat="38.033119" lon="-2.720928">
        <ele>1712.7</ele>
        <time>1989-12-30T23:59:59Z</time>
      </trkpt>
      <trkpt lat="38.033084" lon="-2.720764">
        <ele>1711.3</ele>
        <time>1989-12-30T23:59:59Z</time>
      </trkpt>
      <trkpt lat="38.032955" lon="-2.720511">
        <ele>1709.4</ele>
        <time>1989-12-30T23:59:59Z</time>
      </trkpt>
      <trkpt lat="38.032968" lon="-2.720089">
        <ele>1707.9</ele>
        <time>1989-12-30T23:59:59Z</time>
      </trkpt>
      <trkpt lat="38.033236" lon="-2.719859">
        <ele>1705.5</ele>
        <time>1989-12-30T23:59:59Z</time>
      </trkpt>
      <trkpt lat="38.033440" lon="-2.719712">
        <ele>1704.6</ele>
        <time>1989-12-30T23:59:59Z</time>
      </trkpt>
      <trkpt lat="38.033752" lon="-2.719552">
        <ele>1705.0</ele>
        <time>1989-12-30T23:59:59Z</time>
      </trkpt>
      <trkpt lat="38.034548" lon="-2.719132">
        <ele>1699.3</ele>
        <time>1989-12-30T23:59:59Z</time>
      </trkpt>
      <trkpt lat="38.035261" lon="-2.718616">
        <ele>1694.9</ele>
        <time>1989-12-30T23:59:59Z</time>
      </trkpt>
      <trkpt lat="38.035726" lon="-2.718342">
        <ele>1694.9</ele>
        <time>1989-12-30T23:59:59Z</time>
      </trkpt>
      <trkpt lat="38.035920" lon="-2.718216">
        <ele>1692.1</ele>
        <time>1989-12-30T23:59:59Z</time>
      </trkpt>
      <trkpt lat="38.036006" lon="-2.718155">
        <ele>1690.1</ele>
        <time>1989-12-30T23:59:59Z</time>
      </trkpt>
      <trkpt lat="38.036443" lon="-2.717764">
        <ele>1688.7</ele>
        <time>1989-12-30T23:59:59Z</time>
      </trkpt>
      <trkpt lat="38.036524" lon="-2.717706">
        <ele>1687.3</ele>
        <time>1989-12-30T23:59:59Z</time>
      </trkpt>
      <trkpt lat="38.036629" lon="-2.717625">
        <ele>1694.0</ele>
        <time>1989-12-30T23:59:59Z</time>
      </trkpt>
      <trkpt lat="38.036737" lon="-2.717535">
        <ele>1692.1</ele>
        <time>1989-12-30T23:59:59Z</time>
      </trkpt>
      <trkpt lat="38.036979" lon="-2.717407">
        <ele>1690.1</ele>
        <time>1989-12-30T23:59:59Z</time>
      </trkpt>
      <trkpt lat="38.037552" lon="-2.717162">
        <ele>1691.1</ele>
        <time>1989-12-30T23:59:59Z</time>
      </trkpt>
      <trkpt lat="38.037604" lon="-2.716897">
        <ele>1692.5</ele>
        <time>1989-12-30T23:59:59Z</time>
      </trkpt>
      <trkpt lat="38.037669" lon="-2.716736">
        <ele>1692.1</ele>
        <time>1989-12-30T23:59:59Z</time>
      </trkpt>
      <trkpt lat="38.037679" lon="-2.716592">
        <ele>1692.1</ele>
        <time>1989-12-30T23:59:59Z</time>
      </trkpt>
      <trkpt lat="38.037751" lon="-2.716445">
        <ele>1692.5</ele>
        <time>1989-12-30T23:59:59Z</time>
      </trkpt>
      <trkpt lat="38.038121" lon="-2.716272">
        <ele>1694.0</ele>
        <time>1989-12-30T23:59:59Z</time>
      </trkpt>
      <trkpt lat="38.038332" lon="-2.716136">
        <ele>1692.5</ele>
        <time>1989-12-30T23:59:59Z</time>
      </trkpt>
      <trkpt lat="38.038635" lon="-2.716024">
        <ele>1692.1</ele>
        <time>1989-12-30T23:59:59Z</time>
      </trkpt>
      <trkpt lat="38.038970" lon="-2.715834">
        <ele>1692.5</ele>
        <time>1989-12-30T23:59:59Z</time>
      </trkpt>
      <trkpt lat="38.039193" lon="-2.715664">
        <ele>1692.5</ele>
        <time>1989-12-30T23:59:59Z</time>
      </trkpt>
      <trkpt lat="38.039347" lon="-2.715278">
        <ele>1694.0</ele>
        <time>1989-12-30T23:59:59Z</time>
      </trkpt>
      <trkpt lat="38.039383" lon="-2.715118">
        <ele>1693.5</ele>
        <time>1989-12-30T23:59:59Z</time>
      </trkpt>
      <trkpt lat="38.039411" lon="-2.714825">
        <ele>1694.5</ele>
        <time>1989-12-30T23:59:59Z</time>
      </trkpt>
      <trkpt lat="38.039414" lon="-2.714452">
        <ele>1694.0</ele>
        <time>1989-12-30T23:59:59Z</time>
      </trkpt>
      <trkpt lat="38.039466" lon="-2.714106">
        <ele>1694.0</ele>
        <time>1989-12-30T23:59:59Z</time>
      </trkpt>
      <trkpt lat="38.039563" lon="-2.713770">
        <ele>1693.0</ele>
        <time>1989-12-30T23:59:59Z</time>
      </trkpt>
      <trkpt lat="38.039731" lon="-2.713326">
        <ele>1693.5</ele>
        <time>1989-12-30T23:59:59Z</time>
      </trkpt>
      <trkpt lat="38.039786" lon="-2.713230">
        <ele>1694.5</ele>
        <time>1989-12-30T23:59:59Z</time>
      </trkpt>
      <trkpt lat="38.039815" lon="-2.713066">
        <ele>1695.9</ele>
        <time>1989-12-30T23:59:59Z</time>
      </trkpt>
      <trkpt lat="38.039745" lon="-2.712533">
        <ele>1700.2</ele>
        <time>1989-12-30T23:59:59Z</time>
      </trkpt>
      <trkpt lat="38.039751" lon="-2.711807">
        <ele>1700.2</ele>
        <time>1989-12-30T23:59:59Z</time>
      </trkpt>
      <trkpt lat="38.039874" lon="-2.711719">
        <ele>1698.8</ele>
        <time>1989-12-30T23:59:59Z</time>
      </trkpt>
      <trkpt lat="38.039978" lon="-2.711599">
        <ele>1696.9</ele>
        <time>1989-12-30T23:59:59Z</time>
      </trkpt>
      <trkpt lat="38.040084" lon="-2.711378">
        <ele>1695.9</ele>
        <time>1989-12-30T23:59:59Z</time>
      </trkpt>
      <trkpt lat="38.040155" lon="-2.711302">
        <ele>1695.4</ele>
        <time>1989-12-30T23:59:59Z</time>
      </trkpt>
      <trkpt lat="38.040152" lon="-2.711027">
        <ele>1692.5</ele>
        <time>1989-12-30T23:59:59Z</time>
      </trkpt>
      <trkpt lat="38.040229" lon="-2.710753">
        <ele>1688.7</ele>
        <time>1989-12-30T23:59:59Z</time>
      </trkpt>
      <trkpt lat="38.040665" lon="-2.710432">
        <ele>1689.7</ele>
        <time>1989-12-30T23:59:59Z</time>
      </trkpt>
      <trkpt lat="38.041326" lon="-2.709858">
        <ele>1690.6</ele>
        <time>1989-12-30T23:59:59Z</time>
      </trkpt>
      <trkpt lat="38.041467" lon="-2.709671">
        <ele>1704.1</ele>
        <time>1989-12-30T23:59:59Z</time>
      </trkpt>
      <trkpt lat="38.041540" lon="-2.709447">
        <ele>1699.3</ele>
        <time>1989-12-30T23:59:59Z</time>
      </trkpt>
      <trkpt lat="38.042053" lon="-2.708304">
        <ele>1694.9</ele>
        <time>1989-12-30T23:59:59Z</time>
      </trkpt>
      <trkpt lat="38.042254" lon="-2.707987">
        <ele>1689.2</ele>
        <time>1989-12-30T23:59:59Z</time>
      </trkpt>
      <trkpt lat="38.042337" lon="-2.707734">
        <ele>1686.3</ele>
        <time>1989-12-30T23:59:59Z</time>
      </trkpt>
      <trkpt lat="38.042423" lon="-2.707344">
        <ele>1685.8</ele>
        <time>1989-12-30T23:59:59Z</time>
      </trkpt>
      <trkpt lat="38.042680" lon="-2.706806">
        <ele>1680.5</ele>
        <time>1989-12-30T23:59:59Z</time>
      </trkpt>
      <trkpt lat="38.042933" lon="-2.706603">
        <ele>1675.2</ele>
        <time>1989-12-30T23:59:59Z</time>
      </trkpt>
      <trkpt lat="38.043347" lon="-2.706259">
        <ele>1671.4</ele>
        <time>1989-12-30T23:59:59Z</time>
      </trkpt>
      <trkpt lat="38.043655" lon="-2.705915">
        <ele>1670.4</ele>
        <time>1989-12-30T23:59:59Z</time>
      </trkpt>
      <trkpt lat="38.043714" lon="-2.705507">
        <ele>1671.9</ele>
        <time>1989-12-30T23:59:59Z</time>
      </trkpt>
      <trkpt lat="38.043696" lon="-2.705362">
        <ele>1671.9</ele>
        <time>1989-12-30T23:59:59Z</time>
      </trkpt>
      <trkpt lat="38.043593" lon="-2.705094">
        <ele>1673.3</ele>
        <time>1989-12-30T23:59:59Z</time>
      </trkpt>
      <trkpt lat="38.043492" lon="-2.704664">
        <ele>1674.8</ele>
        <time>1989-12-30T23:59:59Z</time>
      </trkpt>
      <trkpt lat="38.043464" lon="-2.704527">
        <ele>1676.7</ele>
        <time>1989-12-30T23:59:59Z</time>
      </trkpt>
      <trkpt lat="38.043487" lon="-2.703670">
        <ele>1683.4</ele>
        <time>1989-12-30T23:59:59Z</time>
      </trkpt>
      <trkpt lat="38.043528" lon="-2.703357">
        <ele>1687.3</ele>
        <time>1989-12-30T23:59:59Z</time>
      </trkpt>
      <trkpt lat="38.043828" lon="-2.702357">
        <ele>1692.1</ele>
        <time>1989-12-30T23:59:59Z</time>
      </trkpt>
      <trkpt lat="38.044036" lon="-2.702164">
        <ele>1691.6</ele>
        <time>1989-12-30T23:59:59Z</time>
      </trkpt>
      <trkpt lat="38.044095" lon="-2.702015">
        <ele>1691.6</ele>
        <time>1989-12-30T23:59:59Z</time>
      </trkpt>
      <trkpt lat="38.044099" lon="-2.701857">
        <ele>1692.5</ele>
        <time>1989-12-30T23:59:59Z</time>
      </trkpt>
      <trkpt lat="38.044176" lon="-2.701710">
        <ele>1693.0</ele>
        <time>1989-12-30T23:59:59Z</time>
      </trkpt>
      <trkpt lat="38.044574" lon="-2.701375">
        <ele>1692.5</ele>
        <time>1989-12-30T23:59:59Z</time>
      </trkpt>
      <trkpt lat="38.044886" lon="-2.701154">
        <ele>1692.1</ele>
        <time>1989-12-30T23:59:59Z</time>
      </trkpt>
      <trkpt lat="38.045155" lon="-2.700933">
        <ele>1691.1</ele>
        <time>1989-12-30T23:59:59Z</time>
      </trkpt>
      <trkpt lat="38.046065" lon="-2.700254">
        <ele>1692.1</ele>
        <time>1989-12-30T23:59:59Z</time>
      </trkpt>
      <trkpt lat="38.046943" lon="-2.699473">
        <ele>1690.6</ele>
        <time>1989-12-30T23:59:59Z</time>
      </trkpt>
      <trkpt lat="38.047273" lon="-2.699099">
        <ele>1690.1</ele>
        <time>1989-12-30T23:59:59Z</time>
      </trkpt>
      <trkpt lat="38.047543" lon="-2.698839">
        <ele>1690.6</ele>
        <time>1989-12-30T23:59:59Z</time>
      </trkpt>
      <trkpt lat="38.047668" lon="-2.698671">
        <ele>1691.6</ele>
        <time>1989-12-30T23:59:59Z</time>
      </trkpt>
      <trkpt lat="38.047851" lon="-2.698451">
        <ele>1687.3</ele>
        <time>1989-12-30T23:59:59Z</time>
      </trkpt>
      <trkpt lat="38.048049" lon="-2.698186">
        <ele>1682.4</ele>
        <time>1989-12-30T23:59:59Z</time>
      </trkpt>
      <trkpt lat="38.048448" lon="-2.697679">
        <ele>1678.6</ele>
        <time>1989-12-30T23:59:59Z</time>
      </trkpt>
      <trkpt lat="38.048554" lon="-2.697608">
        <ele>1677.6</ele>
        <time>1989-12-30T23:59:59Z</time>
      </trkpt>
      <trkpt lat="38.048779" lon="-2.697541">
        <ele>1675.7</ele>
        <time>1989-12-30T23:59:59Z</time>
      </trkpt>
      <trkpt lat="38.049059" lon="-2.697304">
        <ele>1669.5</ele>
        <time>1989-12-30T23:59:59Z</time>
      </trkpt>
      <trkpt lat="38.049256" lon="-2.697102">
        <ele>1666.1</ele>
        <time>1989-12-30T23:59:59Z</time>
      </trkpt>
      <trkpt lat="38.049361" lon="-2.697047">
        <ele>1662.3</ele>
        <time>1989-12-30T23:59:59Z</time>
      </trkpt>
      <trkpt lat="38.049492" lon="-2.696955">
        <ele>1667.1</ele>
        <time>1989-12-30T23:59:59Z</time>
      </trkpt>
      <trkpt lat="38.049782" lon="-2.696800">
        <ele>1664.7</ele>
        <time>1989-12-30T23:59:59Z</time>
      </trkpt>
      <trkpt lat="38.049978" lon="-2.696725">
        <ele>1662.3</ele>
        <time>1989-12-30T23:59:59Z</time>
      </trkpt>
      <trkpt lat="38.050328" lon="-2.696609">
        <ele>1662.7</ele>
        <time>1989-12-30T23:59:59Z</time>
      </trkpt>
      <trkpt lat="38.050557" lon="-2.696577">
        <ele>1658.9</ele>
        <time>1989-12-30T23:59:59Z</time>
      </trkpt>
      <trkpt lat="38.050664" lon="-2.696603">
        <ele>1657.0</ele>
        <time>1989-12-30T23:59:59Z</time>
      </trkpt>
      <trkpt lat="38.051090" lon="-2.696796">
        <ele>1648.3</ele>
        <time>1989-12-30T23:59:59Z</time>
      </trkpt>
      <trkpt lat="38.051296" lon="-2.696857">
        <ele>1646.4</ele>
        <time>1989-12-30T23:59:59Z</time>
      </trkpt>
      <trkpt lat="38.051515" lon="-2.696951">
        <ele>1643.5</ele>
        <time>1989-12-30T23:59:59Z</time>
      </trkpt>
      <trkpt lat="38.051927" lon="-2.697055">
        <ele>1639.2</ele>
        <time>1989-12-30T23:59:59Z</time>
      </trkpt>
      <trkpt lat="38.052139" lon="-2.697094">
        <ele>1637.7</ele>
        <time>1989-12-30T23:59:59Z</time>
      </trkpt>
      <trkpt lat="38.052609" lon="-2.697429">
        <ele>1635.8</ele>
        <time>1989-12-30T23:59:59Z</time>
      </trkpt>
      <trkpt lat="38.052809" lon="-2.697509">
        <ele>1632.5</ele>
        <time>1989-12-30T23:59:59Z</time>
      </trkpt>
      <trkpt lat="38.052903" lon="-2.697562">
        <ele>1631.0</ele>
        <time>1989-12-30T23:59:59Z</time>
      </trkpt>
      <trkpt lat="38.053064" lon="-2.697705">
        <ele>1630.1</ele>
        <time>1989-12-30T23:59:59Z</time>
      </trkpt>
      <trkpt lat="38.053193" lon="-2.697786">
        <ele>1633.9</ele>
        <time>1989-12-30T23:59:59Z</time>
      </trkpt>
      <trkpt lat="38.053475" lon="-2.698022">
        <ele>1631.0</ele>
        <time>1989-12-30T23:59:59Z</time>
      </trkpt>
      <trkpt lat="38.053587" lon="-2.698045">
        <ele>1630.5</ele>
        <time>1989-12-30T23:59:59Z</time>
      </trkpt>
      <trkpt lat="38.053711" lon="-2.698008">
        <ele>1629.6</ele>
        <time>1989-12-30T23:59:59Z</time>
      </trkpt>
      <trkpt lat="38.053831" lon="-2.697941">
        <ele>1628.1</ele>
        <time>1989-12-30T23:59:59Z</time>
      </trkpt>
      <trkpt lat="38.054144" lon="-2.697688">
        <ele>1626.7</ele>
        <time>1989-12-30T23:59:59Z</time>
      </trkpt>
      <trkpt lat="38.054451" lon="-2.697385">
        <ele>1623.8</ele>
        <time>1989-12-30T23:59:59Z</time>
      </trkpt>
      <trkpt lat="38.054685" lon="-2.697285">
        <ele>1621.9</ele>
        <time>1989-12-30T23:59:59Z</time>
      </trkpt>
      <trkpt lat="38.055019" lon="-2.697221">
        <ele>1621.9</ele>
        <time>1989-12-30T23:59:59Z</time>
      </trkpt>
      <trkpt lat="38.055265" lon="-2.697029">
        <ele>1620.9</ele>
        <time>1989-12-30T23:59:59Z</time>
      </trkpt>
      <trkpt lat="38.055519" lon="-2.696925">
        <ele>1618.5</ele>
        <time>1989-12-30T23:59:59Z</time>
      </trkpt>
      <trkpt lat="38.056076" lon="-2.696599">
        <ele>1614.2</ele>
        <time>1989-12-30T23:59:59Z</time>
      </trkpt>
      <trkpt lat="38.056294" lon="-2.696569">
        <ele>1612.3</ele>
        <time>1989-12-30T23:59:59Z</time>
      </trkpt>
      <trkpt lat="38.056413" lon="-2.696534">
        <ele>1610.8</ele>
        <time>1989-12-30T23:59:59Z</time>
      </trkpt>
      <trkpt lat="38.056527" lon="-2.696461">
        <ele>1609.4</ele>
        <time>1989-12-30T23:59:59Z</time>
      </trkpt>
      <trkpt lat="38.056743" lon="-2.696267">
        <ele>1607.9</ele>
        <time>1989-12-30T23:59:59Z</time>
      </trkpt>
      <trkpt lat="38.057106" lon="-2.696135">
        <ele>1607.5</ele>
        <time>1989-12-30T23:59:59Z</time>
      </trkpt>
      <trkpt lat="38.057318" lon="-2.696019">
        <ele>1606.5</ele>
        <time>1989-12-30T23:59:59Z</time>
      </trkpt>
      <trkpt lat="38.058309" lon="-2.695215">
        <ele>1604.1</ele>
        <time>1989-12-30T23:59:59Z</time>
      </trkpt>
      <trkpt lat="38.058579" lon="-2.695030">
        <ele>1602.7</ele>
        <time>1989-12-30T23:59:59Z</time>
      </trkpt>
      <trkpt lat="38.059049" lon="-2.694644">
        <ele>1601.2</ele>
        <time>1989-12-30T23:59:59Z</time>
      </trkpt>
      <trkpt lat="38.059102" lon="-2.694578">
        <ele>1600.7</ele>
        <time>1989-12-30T23:59:59Z</time>
      </trkpt>
      <trkpt lat="38.059073" lon="-2.694529">
        <ele>1596.4</ele>
        <time>1989-12-30T23:59:59Z</time>
      </trkpt>
      <trkpt lat="38.059229" lon="-2.694438">
        <ele>1597.4</ele>
        <time>1989-12-30T23:59:59Z</time>
      </trkpt>
      <trkpt lat="38.059618" lon="-2.694275">
        <ele>1597.4</ele>
        <time>1989-12-30T23:59:59Z</time>
      </trkpt>
      <trkpt lat="38.059956" lon="-2.694086">
        <ele>1597.4</ele>
        <time>1989-12-30T23:59:59Z</time>
      </trkpt>
      <trkpt lat="38.060283" lon="-2.693866">
        <ele>1596.4</ele>
        <time>1989-12-30T23:59:59Z</time>
      </trkpt>
      <trkpt lat="38.060483" lon="-2.693614">
        <ele>1595.4</ele>
        <time>1989-12-30T23:59:59Z</time>
      </trkpt>
      <trkpt lat="38.060848" lon="-2.693272">
        <ele>1596.4</ele>
        <time>1989-12-30T23:59:59Z</time>
      </trkpt>
      <trkpt lat="38.061482" lon="-2.692969">
        <ele>1596.4</ele>
        <time>1989-12-30T23:59:59Z</time>
      </trkpt>
      <trkpt lat="38.062026" lon="-2.692419">
        <ele>1595.9</ele>
        <time>1989-12-30T23:59:59Z</time>
      </trkpt>
      <trkpt lat="38.062206" lon="-2.692298">
        <ele>1596.4</ele>
        <time>1989-12-30T23:59:59Z</time>
      </trkpt>
      <trkpt lat="38.062367" lon="-2.692132">
        <ele>1596.9</ele>
        <time>1989-12-30T23:59:59Z</time>
      </trkpt>
      <trkpt lat="38.062632" lon="-2.691824">
        <ele>1596.4</ele>
        <time>1989-12-30T23:59:59Z</time>
      </trkpt>
      <trkpt lat="38.063073" lon="-2.691417">
        <ele>1596.9</ele>
        <time>1989-12-30T23:59:59Z</time>
      </trkpt>
      <trkpt lat="38.063213" lon="-2.691016">
        <ele>1596.4</ele>
        <time>1989-12-30T23:59:59Z</time>
      </trkpt>
      <trkpt lat="38.063286" lon="-2.690895">
        <ele>1596.9</ele>
        <time>1989-12-30T23:59:59Z</time>
      </trkpt>
      <trkpt lat="38.063570" lon="-2.690684">
        <ele>1597.8</ele>
        <time>1989-12-30T23:59:59Z</time>
      </trkpt>
      <trkpt lat="38.063729" lon="-2.690524">
        <ele>1598.3</ele>
        <time>1989-12-30T23:59:59Z</time>
      </trkpt>
      <trkpt lat="38.063908" lon="-2.690181">
        <ele>1598.3</ele>
        <time>1989-12-30T23:59:59Z</time>
      </trkpt>
      <trkpt lat="38.063924" lon="-2.689908">
        <ele>1598.3</ele>
        <time>1989-12-30T23:59:59Z</time>
      </trkpt>
      <trkpt lat="38.063891" lon="-2.689706">
        <ele>1601.7</ele>
        <time>1989-12-30T23:59:59Z</time>
      </trkpt>
      <trkpt lat="38.064042" lon="-2.689622">
        <ele>1600.3</ele>
        <time>1989-12-30T23:59:59Z</time>
      </trkpt>
      <trkpt lat="38.064399" lon="-2.689652">
        <ele>1600.7</ele>
        <time>1989-12-30T23:59:59Z</time>
      </trkpt>
      <trkpt lat="38.064641" lon="-2.689564">
        <ele>1598.8</ele>
        <time>1989-12-30T23:59:59Z</time>
      </trkpt>
      <trkpt lat="38.065112" lon="-2.689265">
        <ele>1597.8</ele>
        <time>1989-12-30T23:59:59Z</time>
      </trkpt>
      <trkpt lat="38.065468" lon="-2.688930">
        <ele>1598.3</ele>
        <time>1989-12-30T23:59:59Z</time>
      </trkpt>
      <trkpt lat="38.065587" lon="-2.688463">
        <ele>1599.3</ele>
        <time>1989-12-30T23:59:59Z</time>
      </trkpt>
      <trkpt lat="38.065659" lon="-2.688310">
        <ele>1599.3</ele>
        <time>1989-12-30T23:59:59Z</time>
      </trkpt>
      <trkpt lat="38.065869" lon="-2.688033">
        <ele>1598.8</ele>
        <time>1989-12-30T23:59:59Z</time>
      </trkpt>
      <trkpt lat="38.066362" lon="-2.687532">
        <ele>1597.8</ele>
        <time>1989-12-30T23:59:59Z</time>
      </trkpt>
      <trkpt lat="38.066621" lon="-2.687306">
        <ele>1598.3</ele>
        <time>1989-12-30T23:59:59Z</time>
      </trkpt>
      <trkpt lat="38.066926" lon="-2.686921">
        <ele>1600.3</ele>
        <time>1989-12-30T23:59:59Z</time>
      </trkpt>
      <trkpt lat="38.067045" lon="-2.686703">
        <ele>1600.3</ele>
        <time>1989-12-30T23:59:59Z</time>
      </trkpt>
      <trkpt lat="38.067203" lon="-2.686411">
        <ele>1603.6</ele>
        <time>1989-12-30T23:59:59Z</time>
      </trkpt>
      <trkpt lat="38.067266" lon="-2.686120">
        <ele>1604.1</ele>
        <time>1989-12-30T23:59:59Z</time>
      </trkpt>
      <trkpt lat="38.067246" lon="-2.685787">
        <ele>1604.1</ele>
        <time>1989-12-30T23:59:59Z</time>
      </trkpt>
      <trkpt lat="38.067181" lon="-2.685529">
        <ele>1600.7</ele>
        <time>1989-12-30T23:59:59Z</time>
      </trkpt>
      <trkpt lat="38.067123" lon="-2.685411">
        <ele>1603.1</ele>
        <time>1989-12-30T23:59:59Z</time>
      </trkpt>
      <trkpt lat="38.066906" lon="-2.685091">
        <ele>1603.1</ele>
        <time>1989-12-30T23:59:59Z</time>
      </trkpt>
      <trkpt lat="38.066871" lon="-2.684980">
        <ele>1596.9</ele>
        <time>1989-12-30T23:59:59Z</time>
      </trkpt>
      <trkpt lat="38.066976" lon="-2.684682">
        <ele>1602.7</ele>
        <time>1989-12-30T23:59:59Z</time>
      </trkpt>
      <trkpt lat="38.067065" lon="-2.684603">
        <ele>1602.2</ele>
        <time>1989-12-30T23:59:59Z</time>
      </trkpt>
      <trkpt lat="38.067272" lon="-2.684568">
        <ele>1601.2</ele>
        <time>1989-12-30T23:59:59Z</time>
      </trkpt>
      <trkpt lat="38.067457" lon="-2.684792">
        <ele>1601.7</ele>
        <time>1989-12-30T23:59:59Z</time>
      </trkpt>
      <trkpt lat="38.067615" lon="-2.684951">
        <ele>1607.0</ele>
        <time>1989-12-30T23:59:59Z</time>
      </trkpt>
      <trkpt lat="38.067823" lon="-2.685103">
        <ele>1607.5</ele>
        <time>1989-12-30T23:59:59Z</time>
      </trkpt>
      <trkpt lat="38.067985" lon="-2.685249">
        <ele>1617.6</ele>
        <time>1989-12-30T23:59:59Z</time>
      </trkpt>
      <trkpt lat="38.068146" lon="-2.685404">
        <ele>1616.1</ele>
        <time>1989-12-30T23:59:59Z</time>
      </trkpt>
      <trkpt lat="38.068315" lon="-2.685536">
        <ele>1613.2</ele>
        <time>1989-12-30T23:59:59Z</time>
      </trkpt>
      <trkpt lat="38.068666" lon="-2.685690">
        <ele>1610.3</ele>
        <time>1989-12-30T23:59:59Z</time>
      </trkpt>
      <trkpt lat="38.068893" lon="-2.685783">
        <ele>1609.9</ele>
        <time>1989-12-30T23:59:59Z</time>
      </trkpt>
      <trkpt lat="38.069505" lon="-2.686177">
        <ele>1607.0</ele>
        <time>1989-12-30T23:59:59Z</time>
      </trkpt>
      <trkpt lat="38.069492" lon="-2.686208">
        <ele>1602.2</ele>
        <time>1989-12-30T23:59:59Z</time>
      </trkpt>
      <trkpt lat="38.069637" lon="-2.686312">
        <ele>1603.1</ele>
        <time>1989-12-30T23:59:59Z</time>
      </trkpt>
      <trkpt lat="38.070465" lon="-2.686817">
        <ele>1601.2</ele>
        <time>1989-12-30T23:59:59Z</time>
      </trkpt>
      <trkpt lat="38.070554" lon="-2.686860">
        <ele>1600.7</ele>
        <time>1989-12-30T23:59:59Z</time>
      </trkpt>
      <trkpt lat="38.070923" lon="-2.686910">
        <ele>1599.8</ele>
        <time>1989-12-30T23:59:59Z</time>
      </trkpt>
      <trkpt lat="38.071064" lon="-2.686957">
        <ele>1596.9</ele>
        <time>1989-12-30T23:59:59Z</time>
      </trkpt>
      <trkpt lat="38.071457" lon="-2.686937">
        <ele>1599.8</ele>
        <time>1989-12-30T23:59:59Z</time>
      </trkpt>
      <trkpt lat="38.073657" lon="-2.689729">
        <ele>1600.7</ele>
        <time>1989-12-30T23:59:59Z</time>
      </trkpt>
      <trkpt lat="38.074093" lon="-2.689867">
        <ele>1600.3</ele>
        <time>1989-12-30T23:59:59Z</time>
      </trkpt>
      <trkpt lat="38.074398" lon="-2.690383">
        <ele>1600.3</ele>
        <time>1989-12-30T23:59:59Z</time>
      </trkpt>
      <trkpt lat="38.074666" lon="-2.690732">
        <ele>1600.3</ele>
        <time>1989-12-30T23:59:59Z</time>
      </trkpt>
      <trkpt lat="38.074714" lon="-2.690859">
        <ele>1599.8</ele>
        <time>1989-12-30T23:59:59Z</time>
      </trkpt>
      <trkpt lat="38.074778" lon="-2.690966">
        <ele>1599.3</ele>
        <time>1989-12-30T23:59:59Z</time>
      </trkpt>
      <trkpt lat="38.074974" lon="-2.691234">
        <ele>1599.3</ele>
        <time>1989-12-30T23:59:59Z</time>
      </trkpt>
      <trkpt lat="38.075058" lon="-2.691286">
        <ele>1598.8</ele>
        <time>1989-12-30T23:59:59Z</time>
      </trkpt>
      <trkpt lat="38.075190" lon="-2.691300">
        <ele>1597.8</ele>
        <time>1989-12-30T23:59:59Z</time>
      </trkpt>
      <trkpt lat="38.076153" lon="-2.692324">
        <ele>1595.4</ele>
        <time>1989-12-30T23:59:59Z</time>
      </trkpt>
      <trkpt lat="38.076337" lon="-2.692860">
        <ele>1595.4</ele>
        <time>1989-12-30T23:59:59Z</time>
      </trkpt>
      <trkpt lat="38.076510" lon="-2.693175">
        <ele>1595.0</ele>
        <time>1989-12-30T23:59:59Z</time>
      </trkpt>
      <trkpt lat="38.076746" lon="-2.693410">
        <ele>1595.4</ele>
        <time>1989-12-30T23:59:59Z</time>
      </trkpt>
      <trkpt lat="38.076831" lon="-2.693526">
        <ele>1595.0</ele>
        <time>1989-12-30T23:59:59Z</time>
      </trkpt>
      <trkpt lat="38.077040" lon="-2.693723">
        <ele>1595.0</ele>
        <time>1989-12-30T23:59:59Z</time>
      </trkpt>
      <trkpt lat="38.077693" lon="-2.693903">
        <ele>1594.0</ele>
        <time>1989-12-30T23:59:59Z</time>
      </trkpt>
      <trkpt lat="38.078223" lon="-2.693991">
        <ele>1592.1</ele>
        <time>1989-12-30T23:59:59Z</time>
      </trkpt>
      <trkpt lat="38.078728" lon="-2.694098">
        <ele>1591.6</ele>
        <time>1989-12-30T23:59:59Z</time>
      </trkpt>
      <trkpt lat="38.079062" lon="-2.694310">
        <ele>1588.7</ele>
        <time>1989-12-30T23:59:59Z</time>
      </trkpt>
      <trkpt lat="38.079359" lon="-2.694598">
        <ele>1586.8</ele>
        <time>1989-12-30T23:59:59Z</time>
      </trkpt>
      <trkpt lat="38.079414" lon="-2.695075">
        <ele>1584.9</ele>
        <time>1989-12-30T23:59:59Z</time>
      </trkpt>
      <trkpt lat="38.079359" lon="-2.695382">
        <ele>1558.0</ele>
        <time>1989-12-30T23:59:59Z</time>
      </trkpt>
      <trkpt lat="38.080931" lon="-2.697471">
        <ele>1556.5</ele>
        <time>1989-12-30T23:59:59Z</time>
      </trkpt>
      <trkpt lat="38.081073" lon="-2.697632">
        <ele>1556.0</ele>
        <time>1989-12-30T23:59:59Z</time>
      </trkpt>
      <trkpt lat="38.081388" lon="-2.697892">
        <ele>1555.6</ele>
        <time>1989-12-30T23:59:59Z</time>
      </trkpt>
      <trkpt lat="38.081449" lon="-2.698032">
        <ele>1555.6</ele>
        <time>1989-12-30T23:59:59Z</time>
      </trkpt>
      <trkpt lat="38.081682" lon="-2.698367">
        <ele>1555.6</ele>
        <time>1989-12-30T23:59:59Z</time>
      </trkpt>
      <trkpt lat="38.082642" lon="-2.698725">
        <ele>1555.6</ele>
        <time>1989-12-30T23:59:59Z</time>
      </trkpt>
      <trkpt lat="38.083073" lon="-2.698911">
        <ele>1556.5</ele>
        <time>1989-12-30T23:59:59Z</time>
      </trkpt>
      <trkpt lat="38.083310" lon="-2.699332">
        <ele>1556.0</ele>
        <time>1989-12-30T23:59:59Z</time>
      </trkpt>
      <trkpt lat="38.084234" lon="-2.699758">
        <ele>1554.1</ele>
        <time>1989-12-30T23:59:59Z</time>
      </trkpt>
      <trkpt lat="38.084570" lon="-2.699824">
        <ele>1552.7</ele>
        <time>1989-12-30T23:59:59Z</time>
      </trkpt>
      <trkpt lat="38.084759" lon="-2.699841">
        <ele>1550.7</ele>
        <time>1989-12-30T23:59:59Z</time>
      </trkpt>
      <trkpt lat="38.084932" lon="-2.699840">
        <ele>1549.8</ele>
        <time>1989-12-30T23:59:59Z</time>
      </trkpt>
      <trkpt lat="38.084932" lon="-2.699840">
        <ele>1538.2</ele>
        <time>1989-12-30T23:59:59Z</time>
      </trkpt>
      <trkpt lat="38.085378" lon="-2.700389">
        <ele>1535.4</ele>
        <time>1989-12-30T23:59:59Z</time>
      </trkpt>
      <trkpt lat="38.085805" lon="-2.701259">
        <ele>1532.5</ele>
        <time>1989-12-30T23:59:59Z</time>
      </trkpt>
      <trkpt lat="38.085827" lon="-2.701384">
        <ele>1524.3</ele>
        <time>1989-12-30T23:59:59Z</time>
      </trkpt>
      <trkpt lat="38.085990" lon="-2.701514">
        <ele>1524.8</ele>
        <time>1989-12-30T23:59:59Z</time>
      </trkpt>
      <trkpt lat="38.086112" lon="-2.701574">
        <ele>1525.7</ele>
        <time>1989-12-30T23:59:59Z</time>
      </trkpt>
      <trkpt lat="38.086246" lon="-2.701603">
        <ele>1513.7</ele>
        <time>1989-12-30T23:59:59Z</time>
      </trkpt>
      <trkpt lat="38.086608" lon="-2.701469">
        <ele>1385.9</ele>
        <time>1989-12-30T23:59:59Z</time>
      </trkpt>
      <trkpt lat="38.086931" lon="-2.701416">
        <ele>1599.8</ele>
        <time>1989-12-30T23:59:59Z</time>
      </trkpt>
      <trkpt lat="38.087348" lon="-2.701244">
        <ele>1599.8</ele>
        <time>1989-12-30T23:59:59Z</time>
      </trkpt>
      <trkpt lat="38.087577" lon="-2.701261">
        <ele>1597.4</ele>
        <time>1989-12-30T23:59:59Z</time>
      </trkpt>
      <trkpt lat="38.087793" lon="-2.701549">
        <ele>1586.3</ele>
        <time>1989-12-30T23:59:59Z</time>
      </trkpt>
      <trkpt lat="38.087942" lon="-2.701770">
        <ele>1559.4</ele>
        <time>1989-12-30T23:59:59Z</time>
      </trkpt>
      <trkpt lat="38.088441" lon="-2.702245">
        <ele>1548.8</ele>
        <time>1989-12-30T23:59:59Z</time>
      </trkpt>
      <trkpt lat="38.088916" lon="-2.702427">
        <ele>1466.6</ele>
        <time>1989-12-30T23:59:59Z</time>
      </trkpt>
      <trkpt lat="38.089014" lon="-2.702442">
        <ele>1464.2</ele>
        <time>1989-12-30T23:59:59Z</time>
      </trkpt>
      <trkpt lat="38.089111" lon="-2.702420">
        <ele>1474.3</ele>
        <time>1989-12-30T23:59:59Z</time>
      </trkpt>
      <trkpt lat="38.089217" lon="-2.702463">
        <ele>1474.8</ele>
        <time>1989-12-30T23:59:59Z</time>
      </trkpt>
      <trkpt lat="38.089334" lon="-2.702477">
        <ele>1474.8</ele>
        <time>1989-12-30T23:59:59Z</time>
      </trkpt>
      <trkpt lat="38.089628" lon="-2.702421">
        <ele>1472.9</ele>
        <time>1989-12-30T23:59:59Z</time>
      </trkpt>
      <trkpt lat="38.089776" lon="-2.702174">
        <ele>1471.4</ele>
        <time>1989-12-30T23:59:59Z</time>
      </trkpt>
      <trkpt lat="38.090103" lon="-2.701780">
        <ele>1471.0</ele>
        <time>1989-12-30T23:59:59Z</time>
      </trkpt>
      <trkpt lat="38.090147" lon="-2.701672">
        <ele>1471.0</ele>
        <time>1989-12-30T23:59:59Z</time>
      </trkpt>
      <trkpt lat="38.090327" lon="-2.701157">
        <ele>1464.7</ele>
        <time>1989-12-30T23:59:59Z</time>
      </trkpt>
      <trkpt lat="38.090416" lon="-2.700961">
        <ele>1464.2</ele>
        <time>1989-12-30T23:59:59Z</time>
      </trkpt>
      <trkpt lat="38.090630" lon="-2.700693">
        <ele>1451.7</ele>
        <time>1989-12-30T23:59:59Z</time>
      </trkpt>
      <trkpt lat="38.090849" lon="-2.700593">
        <ele>1449.8</ele>
        <time>1989-12-30T23:59:59Z</time>
      </trkpt>
      <trkpt lat="38.091027" lon="-2.700555">
        <ele>1449.3</ele>
        <time>1989-12-30T23:59:59Z</time>
      </trkpt>
      <trkpt lat="38.091387" lon="-2.700580">
        <ele>1449.3</ele>
        <time>1989-12-30T23:59:59Z</time>
      </trkpt>
      <trkpt lat="38.091615" lon="-2.700653">
        <ele>1448.4</ele>
        <time>1989-12-30T23:59:59Z</time>
      </trkpt>
      <trkpt lat="38.092038" lon="-2.701023">
        <ele>1450.3</ele>
        <time>1989-12-30T23:59:59Z</time>
      </trkpt>
      <trkpt lat="38.092150" lon="-2.701048">
        <ele>1451.2</ele>
        <time>1989-12-30T23:59:59Z</time>
      </trkpt>
      <trkpt lat="38.092132" lon="-2.700770">
        <ele>1450.8</ele>
        <time>1989-12-30T23:59:59Z</time>
      </trkpt>
      <trkpt lat="38.091983" lon="-2.700567">
        <ele>1448.8</ele>
        <time>1989-12-30T23:59:59Z</time>
      </trkpt>
      <trkpt lat="38.091855" lon="-2.700421">
        <ele>1448.4</ele>
        <time>1989-12-30T23:59:59Z</time>
      </trkpt>
      <trkpt lat="38.091618" lon="-2.700202">
        <ele>1447.4</ele>
        <time>1989-12-30T23:59:59Z</time>
      </trkpt>
      <trkpt lat="38.091299" lon="-2.700114">
        <ele>1446.9</ele>
        <time>1989-12-30T23:59:59Z</time>
      </trkpt>
      <trkpt lat="38.091394" lon="-2.700041">
        <ele>1447.9</ele>
        <time>1989-12-30T23:59:59Z</time>
      </trkpt>
      <trkpt lat="38.091572" lon="-2.700008">
        <ele>1464.7</ele>
        <time>1989-12-30T23:59:59Z</time>
      </trkpt>
      <trkpt lat="38.091717" lon="-2.700039">
        <ele>1437.3</ele>
        <time>1989-12-30T23:59:59Z</time>
      </trkpt>
      <trkpt lat="38.091887" lon="-2.700096">
        <ele>1436.8</ele>
        <time>1989-12-30T23:59:59Z</time>
      </trkpt>
      <trkpt lat="38.092036" lon="-2.700190">
        <ele>1437.3</ele>
        <time>1989-12-30T23:59:59Z</time>
      </trkpt>
      <trkpt lat="38.092380" lon="-2.700372">
        <ele>1435.9</ele>
        <time>1989-12-30T23:59:59Z</time>
      </trkpt>
      <trkpt lat="38.092782" lon="-2.700668">
        <ele>1437.3</ele>
        <time>1989-12-30T23:59:59Z</time>
      </trkpt>
      <trkpt lat="38.092876" lon="-2.700664">
        <ele>1431.1</ele>
        <time>1989-12-30T23:59:59Z</time>
      </trkpt>
      <trkpt lat="38.092968" lon="-2.700630">
        <ele>1431.1</ele>
        <time>1989-12-30T23:59:59Z</time>
      </trkpt>
      <trkpt lat="38.093094" lon="-2.700266">
        <ele>1427.7</ele>
        <time>1989-12-30T23:59:59Z</time>
      </trkpt>
      <trkpt lat="38.093228" lon="-2.699934">
        <ele>1426.3</ele>
        <time>1989-12-30T23:59:59Z</time>
      </trkpt>
      <trkpt lat="38.093575" lon="-2.699279">
        <ele>1423.8</ele>
        <time>1989-12-30T23:59:59Z</time>
      </trkpt>
      <trkpt lat="38.093657" lon="-2.699213">
        <ele>1421.4</ele>
        <time>1989-12-30T23:59:59Z</time>
      </trkpt>
      <trkpt lat="38.094278" lon="-2.698932">
        <ele>1418.6</ele>
        <time>1989-12-30T23:59:59Z</time>
      </trkpt>
      <trkpt lat="38.094512" lon="-2.698870">
        <ele>1419.5</ele>
        <time>1989-12-30T23:59:59Z</time>
      </trkpt>
      <trkpt lat="38.094624" lon="-2.698859">
        <ele>1419.5</ele>
        <time>1989-12-30T23:59:59Z</time>
      </trkpt>
      <trkpt lat="38.094793" lon="-2.698843">
        <ele>1419.0</ele>
        <time>1989-12-30T23:59:59Z</time>
      </trkpt>
      <trkpt lat="38.095364" lon="-2.698789">
        <ele>1416.2</ele>
        <time>1989-12-30T23:59:59Z</time>
      </trkpt>
      <trkpt lat="38.095899" lon="-2.698677">
        <ele>1418.6</ele>
        <time>1989-12-30T23:59:59Z</time>
      </trkpt>
      <trkpt lat="38.096685" lon="-2.698452">
        <ele>1420.5</ele>
        <time>1989-12-30T23:59:59Z</time>
      </trkpt>
      <trkpt lat="38.096781" lon="-2.698392">
        <ele>1417.6</ele>
        <time>1989-12-30T23:59:59Z</time>
      </trkpt>
      <trkpt lat="38.097008" lon="-2.698299">
        <ele>1415.7</ele>
        <time>1989-12-30T23:59:59Z</time>
      </trkpt>
      <trkpt lat="38.097089" lon="-2.698254">
        <ele>1413.3</ele>
        <time>1989-12-30T23:59:59Z</time>
      </trkpt>
      <trkpt lat="38.097525" lon="-2.698001">
        <ele>1413.3</ele>
        <time>1989-12-30T23:59:59Z</time>
      </trkpt>
      <trkpt lat="38.097703" lon="-2.697766">
        <ele>1406.5</ele>
        <time>1989-12-30T23:59:59Z</time>
      </trkpt>
      <trkpt lat="38.097927" lon="-2.697616">
        <ele>1406.5</ele>
        <time>1989-12-30T23:59:59Z</time>
      </trkpt>
      <trkpt lat="38.098096" lon="-2.697436">
        <ele>1408.0</ele>
        <time>1989-12-30T23:59:59Z</time>
      </trkpt>
      <trkpt lat="38.098795" lon="-2.696761">
        <ele>1405.6</ele>
        <time>1989-12-30T23:59:59Z</time>
      </trkpt>
      <trkpt lat="38.098970" lon="-2.696609">
        <ele>1405.1</ele>
        <time>1989-12-30T23:59:59Z</time>
      </trkpt>
      <trkpt lat="38.099237" lon="-2.696428">
        <ele>1404.1</ele>
        <time>1989-12-30T23:59:59Z</time>
      </trkpt>
      <trkpt lat="38.099788" lon="-2.696157">
        <ele>1405.6</ele>
        <time>1989-12-30T23:59:59Z</time>
      </trkpt>
      <trkpt lat="38.099953" lon="-2.696052">
        <ele>1405.1</ele>
        <time>1989-12-30T23:59:59Z</time>
      </trkpt>
      <trkpt lat="38.100340" lon="-2.695918">
        <ele>1406.5</ele>
        <time>1989-12-30T23:59:59Z</time>
      </trkpt>
      <trkpt lat="38.100588" lon="-2.695938">
        <ele>1413.8</ele>
        <time>1989-12-30T23:59:59Z</time>
      </trkpt>
      <trkpt lat="38.100683" lon="-2.695895">
        <ele>1414.2</ele>
        <time>1989-12-30T23:59:59Z</time>
      </trkpt>
      <trkpt lat="38.100841" lon="-2.695759">
        <ele>1413.8</ele>
        <time>1989-12-30T23:59:59Z</time>
      </trkpt>
      <trkpt lat="38.101410" lon="-2.695802">
        <ele>1410.9</ele>
        <time>1989-12-30T23:59:59Z</time>
      </trkpt>
      <trkpt lat="38.101504" lon="-2.695773">
        <ele>1410.4</ele>
        <time>1989-12-30T23:59:59Z</time>
      </trkpt>
      <trkpt lat="38.101637" lon="-2.695448">
        <ele>1407.0</ele>
        <time>1989-12-30T23:59:59Z</time>
      </trkpt>
      <trkpt lat="38.101758" lon="-2.694850">
        <ele>1400.8</ele>
        <time>1989-12-30T23:59:59Z</time>
      </trkpt>
      <trkpt lat="38.101929" lon="-2.694663">
        <ele>1404.1</ele>
        <time>1989-12-30T23:59:59Z</time>
      </trkpt>
      <trkpt lat="38.101989" lon="-2.694568">
        <ele>1404.1</ele>
        <time>1989-12-30T23:59:59Z</time>
      </trkpt>
      <trkpt lat="38.102198" lon="-2.694145">
        <ele>1400.3</ele>
        <time>1989-12-30T23:59:59Z</time>
      </trkpt>
      <trkpt lat="38.102862" lon="-2.693299">
        <ele>1398.9</ele>
        <time>1989-12-30T23:59:59Z</time>
      </trkpt>
      <trkpt lat="38.103257" lon="-2.692827">
        <ele>1396.5</ele>
        <time>1989-12-30T23:59:59Z</time>
      </trkpt>
      <trkpt lat="38.103481" lon="-2.692663">
        <ele>1394.5</ele>
        <time>1989-12-30T23:59:59Z</time>
      </trkpt>
      <trkpt lat="38.103652" lon="-2.692560">
        <ele>1395.0</ele>
        <time>1989-12-30T23:59:59Z</time>
      </trkpt>
      <trkpt lat="38.103710" lon="-2.692524">
        <ele>1400.8</ele>
        <time>1989-12-30T23:59:59Z</time>
      </trkpt>
      <trkpt lat="38.103925" lon="-2.692466">
        <ele>1401.3</ele>
        <time>1989-12-30T23:59:59Z</time>
      </trkpt>
      <trkpt lat="38.104016" lon="-2.692527">
        <ele>1400.3</ele>
        <time>1989-12-30T23:59:59Z</time>
      </trkpt>
      <trkpt lat="38.104399" lon="-2.692487">
        <ele>1398.4</ele>
        <time>1989-12-30T23:59:59Z</time>
      </trkpt>
      <trkpt lat="38.104646" lon="-2.692063">
        <ele>1408.5</ele>
        <time>1989-12-30T23:59:59Z</time>
      </trkpt>
      <trkpt lat="38.104693" lon="-2.691856">
        <ele>1396.9</ele>
        <time>1989-12-30T23:59:59Z</time>
      </trkpt>
      <trkpt lat="38.104672" lon="-2.691794">
        <ele>1384.0</ele>
        <time>1989-12-30T23:59:59Z</time>
      </trkpt>
      <trkpt lat="38.104647" lon="-2.691704">
        <ele>1388.8</ele>
        <time>1989-12-30T23:59:59Z</time>
      </trkpt>
      <trkpt lat="38.104618" lon="-2.691626">
        <ele>1393.6</ele>
        <time>1989-12-30T23:59:59Z</time>
      </trkpt>
      <trkpt lat="38.104459" lon="-2.691609">
        <ele>1384.9</ele>
        <time>1989-12-30T23:59:59Z</time>
      </trkpt>
      <trkpt lat="38.104305" lon="-2.691499">
        <ele>1387.3</ele>
        <time>1989-12-30T23:59:59Z</time>
      </trkpt>
      <trkpt lat="38.104340" lon="-2.691198">
        <ele>1387.8</ele>
        <time>1989-12-30T23:59:59Z</time>
      </trkpt>
      <trkpt lat="38.104541" lon="-2.691056">
        <ele>1387.8</ele>
        <time>1989-12-30T23:59:59Z</time>
      </trkpt>
      <trkpt lat="38.104825" lon="-2.690852">
        <ele>1388.3</ele>
        <time>1989-12-30T23:59:59Z</time>
      </trkpt>
      <trkpt lat="38.104926" lon="-2.690841">
        <ele>1392.6</ele>
        <time>1989-12-30T23:59:59Z</time>
      </trkpt>
      <trkpt lat="38.105547" lon="-2.690577">
        <ele>1401.3</ele>
        <time>1989-12-30T23:59:59Z</time>
      </trkpt>
      <trkpt lat="38.105847" lon="-2.690399">
        <ele>1404.6</ele>
        <time>1989-12-30T23:59:59Z</time>
      </trkpt>
      <trkpt lat="38.106206" lon="-2.689989">
        <ele>1420.0</ele>
        <time>1989-12-30T23:59:59Z</time>
      </trkpt>
      <trkpt lat="38.106071" lon="-2.689723">
        <ele>1420.0</ele>
        <time>1989-12-30T23:59:59Z</time>
      </trkpt>
      <trkpt lat="38.106304" lon="-2.689456">
        <ele>1421.9</ele>
        <time>1989-12-30T23:59:59Z</time>
      </trkpt>
      <trkpt lat="38.106527" lon="-2.689168">
        <ele>1422.4</ele>
        <time>1989-12-30T23:59:59Z</time>
      </trkpt>
      <trkpt lat="38.106644" lon="-2.689038">
        <ele>1422.4</ele>
        <time>1989-12-30T23:59:59Z</time>
      </trkpt>
      <trkpt lat="38.106706" lon="-2.688936">
        <ele>1420.5</ele>
        <time>1989-12-30T23:59:59Z</time>
      </trkpt>
      <trkpt lat="38.106788" lon="-2.688814">
        <ele>1419.0</ele>
        <time>1989-12-30T23:59:59Z</time>
      </trkpt>
      <trkpt lat="38.106874" lon="-2.688699">
        <ele>1415.2</ele>
        <time>1989-12-30T23:59:59Z</time>
      </trkpt>
      <trkpt lat="38.107068" lon="-2.688436">
        <ele>1415.2</ele>
        <time>1989-12-30T23:59:59Z</time>
      </trkpt>
      <trkpt lat="38.107123" lon="-2.688234">
        <ele>1414.2</ele>
        <time>1989-12-30T23:59:59Z</time>
      </trkpt>
      <trkpt lat="38.107163" lon="-2.688078">
        <ele>1411.4</ele>
        <time>1989-12-30T23:59:59Z</time>
      </trkpt>
      <trkpt lat="38.107216" lon="-2.687901">
        <ele>1415.7</ele>
        <time>1989-12-30T23:59:59Z</time>
      </trkpt>
      <trkpt lat="38.107273" lon="-2.687580">
        <ele>1412.8</ele>
        <time>1989-12-30T23:59:59Z</time>
      </trkpt>
      <trkpt lat="38.107383" lon="-2.687104">
        <ele>1413.3</ele>
        <time>1989-12-30T23:59:59Z</time>
      </trkpt>
      <trkpt lat="38.107503" lon="-2.686857">
        <ele>1407.5</ele>
        <time>1989-12-30T23:59:59Z</time>
      </trkpt>
      <trkpt lat="38.107863" lon="-2.687214">
        <ele>1407.0</ele>
        <time>1989-12-30T23:59:59Z</time>
      </trkpt>
      <trkpt lat="38.108554" lon="-2.687064">
        <ele>1407.0</ele>
        <time>1989-12-30T23:59:59Z</time>
      </trkpt>
      <trkpt lat="38.108613" lon="-2.686599">
        <ele>1401.7</ele>
        <time>1989-12-30T23:59:59Z</time>
      </trkpt>
      <trkpt lat="38.108672" lon="-2.686212">
        <ele>1401.7</ele>
        <time>1989-12-30T23:59:59Z</time>
      </trkpt>
      <trkpt lat="38.108904" lon="-2.685654">
        <ele>1399.8</ele>
        <time>1989-12-30T23:59:59Z</time>
      </trkpt>
      <trkpt lat="38.109099" lon="-2.685368">
        <ele>1399.8</ele>
        <time>1989-12-30T23:59:59Z</time>
      </trkpt>
      <trkpt lat="38.109167" lon="-2.685294">
        <ele>1398.4</ele>
        <time>1989-12-30T23:59:59Z</time>
      </trkpt>
      <trkpt lat="38.109294" lon="-2.685121">
        <ele>1396.5</ele>
        <time>1989-12-30T23:59:59Z</time>
      </trkpt>
      <trkpt lat="38.109482" lon="-2.684849">
        <ele>1396.0</ele>
        <time>1989-12-30T23:59:59Z</time>
      </trkpt>
      <trkpt lat="38.109792" lon="-2.683945">
        <ele>1387.8</ele>
        <time>1989-12-30T23:59:59Z</time>
      </trkpt>
      <trkpt lat="38.109872" lon="-2.683832">
        <ele>1387.8</ele>
        <time>1989-12-30T23:59:59Z</time>
      </trkpt>
      <trkpt lat="38.109969" lon="-2.683715">
        <ele>1385.9</ele>
        <time>1989-12-30T23:59:59Z</time>
      </trkpt>
      <trkpt lat="38.110403" lon="-2.683414">
        <ele>1383.5</ele>
        <time>1989-12-30T23:59:59Z</time>
      </trkpt>
      <trkpt lat="38.110485" lon="-2.683295">
        <ele>1384.4</ele>
        <time>1989-12-30T23:59:59Z</time>
      </trkpt>
      <trkpt lat="38.111278" lon="-2.682221">
        <ele>1384.0</ele>
        <time>1989-12-30T23:59:59Z</time>
      </trkpt>
      <trkpt lat="38.111610" lon="-2.681691">
        <ele>1383.0</ele>
        <time>1989-12-30T23:59:59Z</time>
      </trkpt>
      <trkpt lat="38.111677" lon="-2.681586">
        <ele>1381.1</ele>
        <time>1989-12-30T23:59:59Z</time>
      </trkpt>
      <trkpt lat="38.111829" lon="-2.681418">
        <ele>1380.1</ele>
        <time>1989-12-30T23:59:59Z</time>
      </trkpt>
      <trkpt lat="38.112377" lon="-2.680664">
        <ele>1380.6</ele>
        <time>1989-12-30T23:59:59Z</time>
      </trkpt>
      <trkpt lat="38.112422" lon="-2.680559">
        <ele>1378.7</ele>
        <time>1989-12-30T23:59:59Z</time>
      </trkpt>
      <trkpt lat="38.112757" lon="-2.679952">
        <ele>1376.3</ele>
        <time>1989-12-30T23:59:59Z</time>
      </trkpt>
      <trkpt lat="38.112864" lon="-2.679749">
        <ele>1376.7</ele>
        <time>1989-12-30T23:59:59Z</time>
      </trkpt>
      <trkpt lat="38.113438" lon="-2.678765">
        <ele>1371.0</ele>
        <time>1989-12-30T23:59:59Z</time>
      </trkpt>
      <trkpt lat="38.113744" lon="-2.678374">
        <ele>1372.4</ele>
        <time>1989-12-30T23:59:59Z</time>
      </trkpt>
      <trkpt lat="38.114199" lon="-2.677649">
        <ele>1372.4</ele>
        <time>1989-12-30T23:59:59Z</time>
      </trkpt>
      <trkpt lat="38.114366" lon="-2.677404">
        <ele>1374.3</ele>
        <time>1989-12-30T23:59:59Z</time>
      </trkpt>
      <trkpt lat="38.114416" lon="-2.677299">
        <ele>1373.4</ele>
        <time>1989-12-30T23:59:59Z</time>
      </trkpt>
      <trkpt lat="38.114632" lon="-2.676656">
        <ele>1373.4</ele>
        <time>1989-12-30T23:59:59Z</time>
      </trkpt>
      <trkpt lat="38.114736" lon="-2.676354">
        <ele>1369.5</ele>
        <time>1989-12-30T23:59:59Z</time>
      </trkpt>
      <trkpt lat="38.114752" lon="-2.676108">
        <ele>1368.1</ele>
        <time>1989-12-30T23:59:59Z</time>
      </trkpt>
      <trkpt lat="38.114782" lon="-2.675897">
        <ele>1364.2</ele>
        <time>1989-12-30T23:59:59Z</time>
      </trkpt>
      <trkpt lat="38.114672" lon="-2.675642">
        <ele>1364.2</ele>
        <time>1989-12-30T23:59:59Z</time>
      </trkpt>
      <trkpt lat="38.114749" lon="-2.675474">
        <ele>1359.4</ele>
        <time>1989-12-30T23:59:59Z</time>
      </trkpt>
      <trkpt lat="38.114913" lon="-2.675203">
        <ele>1358.0</ele>
        <time>1989-12-30T23:59:59Z</time>
      </trkpt>
      <trkpt lat="38.114972" lon="-2.675034">
        <ele>1357.5</ele>
        <time>1989-12-30T23:59:59Z</time>
      </trkpt>
      <trkpt lat="38.115112" lon="-2.674465">
        <ele>1356.1</ele>
        <time>1989-12-30T23:59:59Z</time>
      </trkpt>
      <trkpt lat="38.115243" lon="-2.674166">
        <ele>1356.1</ele>
        <time>1989-12-30T23:59:59Z</time>
      </trkpt>
      <trkpt lat="38.115876" lon="-2.672907">
        <ele>1356.1</ele>
        <time>1989-12-30T23:59:59Z</time>
      </trkpt>
      <trkpt lat="38.116007" lon="-2.672550">
        <ele>1356.1</ele>
        <time>1989-12-30T23:59:59Z</time>
      </trkpt>
      <trkpt lat="38.116083" lon="-2.672147">
        <ele>1356.1</ele>
        <time>1989-12-30T23:59:59Z</time>
      </trkpt>
      <trkpt lat="38.116183" lon="-2.671915">
        <ele>1347.4</ele>
        <time>1989-12-30T23:59:59Z</time>
      </trkpt>
      <trkpt lat="38.118995" lon="-2.666458">
        <ele>1349.3</ele>
        <time>1989-12-30T23:59:59Z</time>
      </trkpt>
      <trkpt lat="38.119026" lon="-2.666348">
        <ele>1347.9</ele>
        <time>1989-12-30T23:59:59Z</time>
      </trkpt>
      <trkpt lat="38.118971" lon="-2.666252">
        <ele>1346.0</ele>
        <time>1989-12-30T23:59:59Z</time>
      </trkpt>
      <trkpt lat="38.118906" lon="-2.666171">
        <ele>1345.5</ele>
        <time>1989-12-30T23:59:59Z</time>
      </trkpt>
      <trkpt lat="38.118834" lon="-2.666089">
        <ele>1345.5</ele>
        <time>1989-12-30T23:59:59Z</time>
      </trkpt>
      <trkpt lat="38.118765" lon="-2.666011">
        <ele>1345.0</ele>
        <time>1989-12-30T23:59:59Z</time>
      </trkpt>
      <trkpt lat="38.118691" lon="-2.665930">
        <ele>1345.0</ele>
        <time>1989-12-30T23:59:59Z</time>
      </trkpt>
      <trkpt lat="38.118623" lon="-2.665850">
        <ele>1345.5</ele>
        <time>1989-12-30T23:59:59Z</time>
      </trkpt>
      <trkpt lat="38.118548" lon="-2.665781">
        <ele>1346.0</ele>
        <time>1989-12-30T23:59:59Z</time>
      </trkpt>
      <trkpt lat="38.118474" lon="-2.665705">
        <ele>1346.5</ele>
        <time>1989-12-30T23:59:59Z</time>
      </trkpt>
      <trkpt lat="38.118401" lon="-2.665632">
        <ele>1346.9</ele>
        <time>1989-12-30T23:59:59Z</time>
      </trkpt>
      <trkpt lat="38.118325" lon="-2.665551">
        <ele>1346.9</ele>
        <time>1989-12-30T23:59:59Z</time>
      </trkpt>
      <trkpt lat="38.118247" lon="-2.665498">
        <ele>1347.9</ele>
        <time>1989-12-30T23:59:59Z</time>
      </trkpt>
      <trkpt lat="38.118177" lon="-2.665455">
        <ele>1349.8</ele>
        <time>1989-12-30T23:59:59Z</time>
      </trkpt>
      <trkpt lat="38.118080" lon="-2.665404">
        <ele>1350.3</ele>
        <time>1989-12-30T23:59:59Z</time>
      </trkpt>
      <trkpt lat="38.117981" lon="-2.665404">
        <ele>1349.8</ele>
        <time>1989-12-30T23:59:59Z</time>
      </trkpt>
      <trkpt lat="38.117887" lon="-2.665441">
        <ele>1351.3</ele>
        <time>1989-12-30T23:59:59Z</time>
      </trkpt>
      <trkpt lat="38.117785" lon="-2.665458">
        <ele>1351.8</ele>
        <time>1989-12-30T23:59:59Z</time>
      </trkpt>
      <trkpt lat="38.117694" lon="-2.665446">
        <ele>1353.2</ele>
        <time>1989-12-30T23:59:59Z</time>
      </trkpt>
      <trkpt lat="38.117614" lon="-2.665399">
        <ele>1354.2</ele>
        <time>1989-12-30T23:59:59Z</time>
      </trkpt>
      <trkpt lat="38.117541" lon="-2.665314">
        <ele>1355.6</ele>
        <time>1989-12-30T23:59:59Z</time>
      </trkpt>
      <trkpt lat="38.117493" lon="-2.665216">
        <ele>1356.1</ele>
        <time>1989-12-30T23:59:59Z</time>
      </trkpt>
      <trkpt lat="38.117460" lon="-2.665109">
        <ele>1356.6</ele>
        <time>1989-12-30T23:59:59Z</time>
      </trkpt>
      <trkpt lat="38.117428" lon="-2.665000">
        <ele>1356.6</ele>
        <time>1989-12-30T23:59:59Z</time>
      </trkpt>
      <trkpt lat="38.117393" lon="-2.664890">
        <ele>1357.5</ele>
        <time>1989-12-30T23:59:59Z</time>
      </trkpt>
      <trkpt lat="38.117358" lon="-2.664783">
        <ele>1358.5</ele>
        <time>1989-12-30T23:59:59Z</time>
      </trkpt>
      <trkpt lat="38.117317" lon="-2.664658">
        <ele>1359.0</ele>
        <time>1989-12-30T23:59:59Z</time>
      </trkpt>
      <trkpt lat="38.117290" lon="-2.664548">
        <ele>1360.4</ele>
        <time>1989-12-30T23:59:59Z</time>
      </trkpt>
      <trkpt lat="38.117249" lon="-2.664433">
        <ele>1361.8</ele>
        <time>1989-12-30T23:59:59Z</time>
      </trkpt>
      <trkpt lat="38.117225" lon="-2.664325">
        <ele>1361.8</ele>
        <time>1989-12-30T23:59:59Z</time>
      </trkpt>
      <trkpt lat="38.117201" lon="-2.664191">
        <ele>1364.7</ele>
        <time>1989-12-30T23:59:59Z</time>
      </trkpt>
      <trkpt lat="38.117210" lon="-2.664079">
        <ele>1365.2</ele>
        <time>1989-12-30T23:59:59Z</time>
      </trkpt>
      <trkpt lat="38.117222" lon="-2.663964">
        <ele>1367.1</ele>
        <time>1989-12-30T23:59:59Z</time>
      </trkpt>
      <trkpt lat="38.117255" lon="-2.663844">
        <ele>1368.1</ele>
        <time>1989-12-30T23:59:59Z</time>
      </trkpt>
      <trkpt lat="38.117299" lon="-2.663732">
        <ele>1369.1</ele>
        <time>1989-12-30T23:59:59Z</time>
      </trkpt>
      <trkpt lat="38.117352" lon="-2.663648">
        <ele>1370.0</ele>
        <time>1989-12-30T23:59:59Z</time>
      </trkpt>
      <trkpt lat="38.117431" lon="-2.663572">
        <ele>1371.0</ele>
        <time>1989-12-30T23:59:59Z</time>
      </trkpt>
      <trkpt lat="38.117505" lon="-2.663507">
        <ele>1371.9</ele>
        <time>1989-12-30T23:59:59Z</time>
      </trkpt>
      <trkpt lat="38.117597" lon="-2.663442">
        <ele>1372.4</ele>
        <time>1989-12-30T23:59:59Z</time>
      </trkpt>
      <trkpt lat="38.117679" lon="-2.663382">
        <ele>1372.9</ele>
        <time>1989-12-30T23:59:59Z</time>
      </trkpt>
      <trkpt lat="38.117765" lon="-2.663323">
        <ele>1373.9</ele>
        <time>1989-12-30T23:59:59Z</time>
      </trkpt>
      <trkpt lat="38.117846" lon="-2.663267">
        <ele>1374.8</ele>
        <time>1989-12-30T23:59:59Z</time>
      </trkpt>
      <trkpt lat="38.117927" lon="-2.663209">
        <ele>1375.3</ele>
        <time>1989-12-30T23:59:59Z</time>
      </trkpt>
      <trkpt lat="38.118009" lon="-2.663151">
        <ele>1375.8</ele>
        <time>1989-12-30T23:59:59Z</time>
      </trkpt>
      <trkpt lat="38.118092" lon="-2.663076">
        <ele>1376.3</ele>
        <time>1989-12-30T23:59:59Z</time>
      </trkpt>
      <trkpt lat="38.118158" lon="-2.662989">
        <ele>1376.7</ele>
        <time>1989-12-30T23:59:59Z</time>
      </trkpt>
      <trkpt lat="38.118214" lon="-2.662893">
        <ele>1378.2</ele>
        <time>1989-12-30T23:59:59Z</time>
      </trkpt>
      <trkpt lat="38.118257" lon="-2.662724">
        <ele>1379.6</ele>
        <time>1989-12-30T23:59:59Z</time>
      </trkpt>
      <trkpt lat="38.118202" lon="-2.662621">
        <ele>1381.1</ele>
        <time>1989-12-30T23:59:59Z</time>
      </trkpt>
      <trkpt lat="38.118168" lon="-2.662481">
        <ele>1382.0</ele>
        <time>1989-12-30T23:59:59Z</time>
      </trkpt>
      <trkpt lat="38.118191" lon="-2.662377">
        <ele>1383.5</ele>
        <time>1989-12-30T23:59:59Z</time>
      </trkpt>
      <trkpt lat="38.118248" lon="-2.662277">
        <ele>1383.0</ele>
        <time>1989-12-30T23:59:59Z</time>
      </trkpt>
      <trkpt lat="38.118293" lon="-2.662178">
        <ele>1381.6</ele>
        <time>1989-12-30T23:59:59Z</time>
      </trkpt>
      <trkpt lat="38.118331" lon="-2.662063">
        <ele>1381.1</ele>
        <time>1989-12-30T23:59:59Z</time>
      </trkpt>
      <trkpt lat="38.118354" lon="-2.661952">
        <ele>1382.5</ele>
        <time>1989-12-30T23:59:59Z</time>
      </trkpt>
      <trkpt lat="38.118342" lon="-2.661834">
        <ele>1382.0</ele>
        <time>1989-12-30T23:59:59Z</time>
      </trkpt>
      <trkpt lat="38.118324" lon="-2.661717">
        <ele>1380.1</ele>
        <time>1989-12-30T23:59:59Z</time>
      </trkpt>
      <trkpt lat="38.118345" lon="-2.661586">
        <ele>1378.2</ele>
        <time>1989-12-30T23:59:59Z</time>
      </trkpt>
      <trkpt lat="38.118391" lon="-2.661472">
        <ele>1377.2</ele>
        <time>1989-12-30T23:59:59Z</time>
      </trkpt>
      <trkpt lat="38.118422" lon="-2.661366">
        <ele>1375.8</ele>
        <time>1989-12-30T23:59:59Z</time>
      </trkpt>
      <trkpt lat="38.118495" lon="-2.661306">
        <ele>1375.3</ele>
        <time>1989-12-30T23:59:59Z</time>
      </trkpt>
      <trkpt lat="38.118577" lon="-2.661355">
        <ele>1376.3</ele>
        <time>1989-12-30T23:59:59Z</time>
      </trkpt>
      <trkpt lat="38.118671" lon="-2.661394">
        <ele>1377.2</ele>
        <time>1989-12-30T23:59:59Z</time>
      </trkpt>
      <trkpt lat="38.118764" lon="-2.661421">
        <ele>1379.1</ele>
        <time>1989-12-30T23:59:59Z</time>
      </trkpt>
      <trkpt lat="38.118853" lon="-2.661465">
        <ele>1381.1</ele>
        <time>1989-12-30T23:59:59Z</time>
      </trkpt>
      <trkpt lat="38.118949" lon="-2.661504">
        <ele>1384.4</ele>
        <time>1989-12-30T23:59:59Z</time>
      </trkpt>
      <trkpt lat="38.119036" lon="-2.661506">
        <ele>1384.4</ele>
        <time>1989-12-30T23:59:59Z</time>
      </trkpt>
      <trkpt lat="38.119128" lon="-2.661570">
        <ele>1386.4</ele>
        <time>1989-12-30T23:59:59Z</time>
      </trkpt>
      <trkpt lat="38.119218" lon="-2.661579">
        <ele>1385.4</ele>
        <time>1989-12-30T23:59:59Z</time>
      </trkpt>
      <trkpt lat="38.119309" lon="-2.661525">
        <ele>1386.4</ele>
        <time>1989-12-30T23:59:59Z</time>
      </trkpt>
      <trkpt lat="38.119389" lon="-2.661466">
        <ele>1387.3</ele>
        <time>1989-12-30T23:59:59Z</time>
      </trkpt>
      <trkpt lat="38.119476" lon="-2.661422">
        <ele>1388.8</ele>
        <time>1989-12-30T23:59:59Z</time>
      </trkpt>
      <trkpt lat="38.119557" lon="-2.661366">
        <ele>1390.2</ele>
        <time>1989-12-30T23:59:59Z</time>
      </trkpt>
      <trkpt lat="38.119647" lon="-2.661338">
        <ele>1391.6</ele>
        <time>1989-12-30T23:59:59Z</time>
      </trkpt>
      <trkpt lat="38.119745" lon="-2.661345">
        <ele>1392.6</ele>
        <time>1989-12-30T23:59:59Z</time>
      </trkpt>
      <trkpt lat="38.119834" lon="-2.661322">
        <ele>1393.6</ele>
        <time>1989-12-30T23:59:59Z</time>
      </trkpt>
      <trkpt lat="38.119921" lon="-2.661275">
        <ele>1394.5</ele>
        <time>1989-12-30T23:59:59Z</time>
      </trkpt>
      <trkpt lat="38.120014" lon="-2.661247">
        <ele>1395.0</ele>
        <time>1989-12-30T23:59:59Z</time>
      </trkpt>
      <trkpt lat="38.120103" lon="-2.661207">
        <ele>1396.0</ele>
        <time>1989-12-30T23:59:59Z</time>
      </trkpt>
      <trkpt lat="38.120196" lon="-2.661162">
        <ele>1396.9</ele>
        <time>1989-12-30T23:59:59Z</time>
      </trkpt>
      <trkpt lat="38.120282" lon="-2.661139">
        <ele>1397.9</ele>
        <time>1989-12-30T23:59:59Z</time>
      </trkpt>
      <trkpt lat="38.120372" lon="-2.661108">
        <ele>1398.4</ele>
        <time>1989-12-30T23:59:59Z</time>
      </trkpt>
      <trkpt lat="38.120467" lon="-2.661086">
        <ele>1399.3</ele>
        <time>1989-12-30T23:59:59Z</time>
      </trkpt>
      <trkpt lat="38.120564" lon="-2.661049">
        <ele>1399.3</ele>
        <time>1989-12-30T23:59:59Z</time>
      </trkpt>
      <trkpt lat="38.120659" lon="-2.661022">
        <ele>1400.3</ele>
        <time>1989-12-30T23:59:59Z</time>
      </trkpt>
      <trkpt lat="38.120745" lon="-2.660986">
        <ele>1399.8</ele>
        <time>1989-12-30T23:59:59Z</time>
      </trkpt>
      <trkpt lat="38.120841" lon="-2.660956">
        <ele>1400.3</ele>
        <time>1989-12-30T23:59:59Z</time>
      </trkpt>
      <trkpt lat="38.120934" lon="-2.660922">
        <ele>1400.3</ele>
        <time>1989-12-30T23:59:59Z</time>
      </trkpt>
      <trkpt lat="38.121030" lon="-2.660889">
        <ele>1400.8</ele>
        <time>1989-12-30T23:59:59Z</time>
      </trkpt>
      <trkpt lat="38.121115" lon="-2.660829">
        <ele>1400.8</ele>
        <time>1989-12-30T23:59:59Z</time>
      </trkpt>
      <trkpt lat="38.121174" lon="-2.660743">
        <ele>1401.3</ele>
        <time>1989-12-30T23:59:59Z</time>
      </trkpt>
      <trkpt lat="38.121164" lon="-2.660622">
        <ele>1402.2</ele>
        <time>1989-12-30T23:59:59Z</time>
      </trkpt>
      <trkpt lat="38.121073" lon="-2.660608">
        <ele>1401.7</ele>
        <time>1989-12-30T23:59:59Z</time>
      </trkpt>
      <trkpt lat="38.120999" lon="-2.660650">
        <ele>1402.2</ele>
        <time>1989-12-30T23:59:59Z</time>
      </trkpt>
      <trkpt lat="38.120899" lon="-2.660643">
        <ele>1402.7</ele>
        <time>1989-12-30T23:59:59Z</time>
      </trkpt>
      <trkpt lat="38.120809" lon="-2.660604">
        <ele>1403.7</ele>
        <time>1989-12-30T23:59:59Z</time>
      </trkpt>
      <trkpt lat="38.120724" lon="-2.660537">
        <ele>1404.6</ele>
        <time>1989-12-30T23:59:59Z</time>
      </trkpt>
      <trkpt lat="38.120707" lon="-2.660418">
        <ele>1406.5</ele>
        <time>1989-12-30T23:59:59Z</time>
      </trkpt>
      <trkpt lat="38.120738" lon="-2.660294">
        <ele>1408.5</ele>
        <time>1989-12-30T23:59:59Z</time>
      </trkpt>
      <trkpt lat="38.120756" lon="-2.660201">
        <ele>1410.9</ele>
        <time>1989-12-30T23:59:59Z</time>
      </trkpt>
      <trkpt lat="38.120812" lon="-2.660118">
        <ele>1411.8</ele>
        <time>1989-12-30T23:59:59Z</time>
      </trkpt>
      <trkpt lat="38.120878" lon="-2.660033">
        <ele>1412.8</ele>
        <time>1989-12-30T23:59:59Z</time>
      </trkpt>
      <trkpt lat="38.120949" lon="-2.659944">
        <ele>1413.3</ele>
        <time>1989-12-30T23:59:59Z</time>
      </trkpt>
      <trkpt lat="38.121018" lon="-2.659854">
        <ele>1414.7</ele>
        <time>1989-12-30T23:59:59Z</time>
      </trkpt>
      <trkpt lat="38.121083" lon="-2.659761">
        <ele>1415.2</ele>
        <time>1989-12-30T23:59:59Z</time>
      </trkpt>
      <trkpt lat="38.121143" lon="-2.659668">
        <ele>1416.2</ele>
        <time>1989-12-30T23:59:59Z</time>
      </trkpt>
      <trkpt lat="38.121194" lon="-2.659572">
        <ele>1417.6</ele>
        <time>1989-12-30T23:59:59Z</time>
      </trkpt>
      <trkpt lat="38.121233" lon="-2.659464">
        <ele>1419.0</ele>
        <time>1989-12-30T23:59:59Z</time>
      </trkpt>
      <trkpt lat="38.121247" lon="-2.659350">
        <ele>1418.6</ele>
        <time>1989-12-30T23:59:59Z</time>
      </trkpt>
      <trkpt lat="38.121252" lon="-2.659225">
        <ele>1420.5</ele>
        <time>1989-12-30T23:59:59Z</time>
      </trkpt>
      <trkpt lat="38.121284" lon="-2.659113">
        <ele>1421.9</ele>
        <time>1989-12-30T23:59:59Z</time>
      </trkpt>
      <trkpt lat="38.121338" lon="-2.659018">
        <ele>1423.8</ele>
        <time>1989-12-30T23:59:59Z</time>
      </trkpt>
      <trkpt lat="38.121438" lon="-2.658999">
        <ele>1423.8</ele>
        <time>1989-12-30T23:59:59Z</time>
      </trkpt>
      <trkpt lat="38.121538" lon="-2.658983">
        <ele>1423.8</ele>
        <time>1989-12-30T23:59:59Z</time>
      </trkpt>
      <trkpt lat="38.121632" lon="-2.658940">
        <ele>1423.8</ele>
        <time>1989-12-30T23:59:59Z</time>
      </trkpt>
      <trkpt lat="38.121718" lon="-2.658883">
        <ele>1422.9</ele>
        <time>1989-12-30T23:59:59Z</time>
      </trkpt>
      <trkpt lat="38.121783" lon="-2.658795">
        <ele>1423.4</ele>
        <time>1989-12-30T23:59:59Z</time>
      </trkpt>
      <trkpt lat="38.121856" lon="-2.658726">
        <ele>1424.8</ele>
        <time>1989-12-30T23:59:59Z</time>
      </trkpt>
      <trkpt lat="38.121943" lon="-2.658675">
        <ele>1424.3</ele>
        <time>1989-12-30T23:59:59Z</time>
      </trkpt>
      <trkpt lat="38.122017" lon="-2.658604">
        <ele>1425.8</ele>
        <time>1989-12-30T23:59:59Z</time>
      </trkpt>
      <trkpt lat="38.122081" lon="-2.658523">
        <ele>1427.2</ele>
        <time>1989-12-30T23:59:59Z</time>
      </trkpt>
      <trkpt lat="38.122137" lon="-2.658416">
        <ele>1428.2</ele>
        <time>1989-12-30T23:59:59Z</time>
      </trkpt>
      <trkpt lat="38.122160" lon="-2.658302">
        <ele>1429.1</ele>
        <time>1989-12-30T23:59:59Z</time>
      </trkpt>
      <trkpt lat="38.122205" lon="-2.658204">
        <ele>1430.1</ele>
        <time>1989-12-30T23:59:59Z</time>
      </trkpt>
      <trkpt lat="38.122261" lon="-2.658100">
        <ele>1431.1</ele>
        <time>1989-12-30T23:59:59Z</time>
      </trkpt>
      <trkpt lat="38.122297" lon="-2.657985">
        <ele>1430.6</ele>
        <time>1989-12-30T23:59:59Z</time>
      </trkpt>
      <trkpt lat="38.122317" lon="-2.657860">
        <ele>1430.6</ele>
        <time>1989-12-30T23:59:59Z</time>
      </trkpt>
      <trkpt lat="38.122359" lon="-2.657747">
        <ele>1430.6</ele>
        <time>1989-12-30T23:59:59Z</time>
      </trkpt>
      <trkpt lat="38.122430" lon="-2.657670">
        <ele>1431.5</ele>
        <time>1989-12-30T23:59:59Z</time>
      </trkpt>
      <trkpt lat="38.122509" lon="-2.657602">
        <ele>1433.0</ele>
        <time>1989-12-30T23:59:59Z</time>
      </trkpt>
      <trkpt lat="38.122596" lon="-2.657563">
        <ele>1433.9</ele>
        <time>1989-12-30T23:59:59Z</time>
      </trkpt>
      <trkpt lat="38.122689" lon="-2.657560">
        <ele>1434.9</ele>
        <time>1989-12-30T23:59:59Z</time>
      </trkpt>
      <trkpt lat="38.122782" lon="-2.657583">
        <ele>1435.9</ele>
        <time>1989-12-30T23:59:59Z</time>
      </trkpt>
      <trkpt lat="38.122872" lon="-2.657611">
        <ele>1437.3</ele>
        <time>1989-12-30T23:59:59Z</time>
      </trkpt>
      <trkpt lat="38.122960" lon="-2.657594">
        <ele>1438.8</ele>
        <time>1989-12-30T23:59:59Z</time>
      </trkpt>
      <trkpt lat="38.123009" lon="-2.657490">
        <ele>1438.3</ele>
        <time>1989-12-30T23:59:59Z</time>
      </trkpt>
      <trkpt lat="38.123042" lon="-2.657388">
        <ele>1436.8</ele>
        <time>1989-12-30T23:59:59Z</time>
      </trkpt>
      <trkpt lat="38.123100" lon="-2.657291">
        <ele>1436.8</ele>
        <time>1989-12-30T23:59:59Z</time>
      </trkpt>
      <trkpt lat="38.123174" lon="-2.657215">
        <ele>1438.8</ele>
        <time>1989-12-30T23:59:59Z</time>
      </trkpt>
      <trkpt lat="38.123248" lon="-2.657152">
        <ele>1439.7</ele>
        <time>1989-12-30T23:59:59Z</time>
      </trkpt>
      <trkpt lat="38.123339" lon="-2.657110">
        <ele>1440.2</ele>
        <time>1989-12-30T23:59:59Z</time>
      </trkpt>
      <trkpt lat="38.123434" lon="-2.657093">
        <ele>1440.7</ele>
        <time>1989-12-30T23:59:59Z</time>
      </trkpt>
      <trkpt lat="38.123529" lon="-2.657106">
        <ele>1440.7</ele>
        <time>1989-12-30T23:59:59Z</time>
      </trkpt>
      <trkpt lat="38.123616" lon="-2.657064">
        <ele>1441.2</ele>
        <time>1989-12-30T23:59:59Z</time>
      </trkpt>
      <trkpt lat="38.123694" lon="-2.657005">
        <ele>1442.1</ele>
        <time>1989-12-30T23:59:59Z</time>
      </trkpt>
      <trkpt lat="38.123778" lon="-2.656931">
        <ele>1443.6</ele>
        <time>1989-12-30T23:59:59Z</time>
      </trkpt>
      <trkpt lat="38.123855" lon="-2.656874">
        <ele>1443.1</ele>
        <time>1989-12-30T23:59:59Z</time>
      </trkpt>
      <trkpt lat="38.123942" lon="-2.656821">
        <ele>1444.0</ele>
        <time>1989-12-30T23:59:59Z</time>
      </trkpt>
      <trkpt lat="38.124016" lon="-2.656755">
        <ele>1445.5</ele>
        <time>1989-12-30T23:59:59Z</time>
      </trkpt>
      <trkpt lat="38.124087" lon="-2.656672">
        <ele>1446.4</ele>
        <time>1989-12-30T23:59:59Z</time>
      </trkpt>
      <trkpt lat="38.124164" lon="-2.656591">
        <ele>1446.4</ele>
        <time>1989-12-30T23:59:59Z</time>
      </trkpt>
      <trkpt lat="38.124235" lon="-2.656513">
        <ele>1446.0</ele>
        <time>1989-12-30T23:59:59Z</time>
      </trkpt>
      <trkpt lat="38.124291" lon="-2.656420">
        <ele>1446.4</ele>
        <time>1989-12-30T23:59:59Z</time>
      </trkpt>
      <trkpt lat="38.124339" lon="-2.656320">
        <ele>1447.4</ele>
        <time>1989-12-30T23:59:59Z</time>
      </trkpt>
      <trkpt lat="38.124378" lon="-2.656225">
        <ele>1448.4</ele>
        <time>1989-12-30T23:59:59Z</time>
      </trkpt>
      <trkpt lat="38.124448" lon="-2.656129">
        <ele>1449.3</ele>
        <time>1989-12-30T23:59:59Z</time>
      </trkpt>
      <trkpt lat="38.124515" lon="-2.656041">
        <ele>1451.7</ele>
        <time>1989-12-30T23:59:59Z</time>
      </trkpt>
      <trkpt lat="38.124576" lon="-2.655951">
        <ele>1453.7</ele>
        <time>1989-12-30T23:59:59Z</time>
      </trkpt>
      <trkpt lat="38.124634" lon="-2.655857">
        <ele>1454.6</ele>
        <time>1989-12-30T23:59:59Z</time>
      </trkpt>
      <trkpt lat="38.124689" lon="-2.655763">
        <ele>1456.1</ele>
        <time>1989-12-30T23:59:59Z</time>
      </trkpt>
      <trkpt lat="38.124751" lon="-2.655662">
        <ele>1456.5</ele>
        <time>1989-12-30T23:59:59Z</time>
      </trkpt>
      <trkpt lat="38.124807" lon="-2.655572">
        <ele>1458.5</ele>
        <time>1989-12-30T23:59:59Z</time>
      </trkpt>
      <trkpt lat="38.124867" lon="-2.655470">
        <ele>1460.9</ele>
        <time>1989-12-30T23:59:59Z</time>
      </trkpt>
      <trkpt lat="38.124927" lon="-2.655380">
        <ele>1461.8</ele>
        <time>1989-12-30T23:59:59Z</time>
      </trkpt>
      <trkpt lat="38.124977" lon="-2.655281">
        <ele>1461.8</ele>
        <time>1989-12-30T23:59:59Z</time>
      </trkpt>
      <trkpt lat="38.125026" lon="-2.655182">
        <ele>1461.8</ele>
        <time>1989-12-30T23:59:59Z</time>
      </trkpt>
      <trkpt lat="38.125098" lon="-2.655097">
        <ele>1462.8</ele>
        <time>1989-12-30T23:59:59Z</time>
      </trkpt>
      <trkpt lat="38.125177" lon="-2.655015">
        <ele>1462.3</ele>
        <time>1989-12-30T23:59:59Z</time>
      </trkpt>
      <trkpt lat="38.125260" lon="-2.654937">
        <ele>1462.3</ele>
        <time>1989-12-30T23:59:59Z</time>
      </trkpt>
      <trkpt lat="38.125339" lon="-2.654875">
        <ele>1462.3</ele>
        <time>1989-12-30T23:59:59Z</time>
      </trkpt>
      <trkpt lat="38.125415" lon="-2.654814">
        <ele>1462.8</ele>
        <time>1989-12-30T23:59:59Z</time>
      </trkpt>
      <trkpt lat="38.125472" lon="-2.654747">
        <ele>1464.2</ele>
        <time>1989-12-30T23:59:59Z</time>
      </trkpt>
      <trkpt lat="38.125554" lon="-2.654702">
        <ele>1464.2</ele>
        <time>1989-12-30T23:59:59Z</time>
      </trkpt>
      <trkpt lat="38.125633" lon="-2.654631">
        <ele>1464.2</ele>
        <time>1989-12-30T23:59:59Z</time>
      </trkpt>
      <trkpt lat="38.125703" lon="-2.654561">
        <ele>1463.7</ele>
        <time>1989-12-30T23:59:59Z</time>
      </trkpt>
      <trkpt lat="38.125779" lon="-2.654489">
        <ele>1462.8</ele>
        <time>1989-12-30T23:59:59Z</time>
      </trkpt>
      <trkpt lat="38.125832" lon="-2.654391">
        <ele>1462.3</ele>
        <time>1989-12-30T23:59:59Z</time>
      </trkpt>
      <trkpt lat="38.125887" lon="-2.654299">
        <ele>1461.8</ele>
        <time>1989-12-30T23:59:59Z</time>
      </trkpt>
      <trkpt lat="38.125957" lon="-2.654214">
        <ele>1462.3</ele>
        <time>1989-12-30T23:59:59Z</time>
      </trkpt>
      <trkpt lat="38.126016" lon="-2.654134">
        <ele>1462.3</ele>
        <time>1989-12-30T23:59:59Z</time>
      </trkpt>
      <trkpt lat="38.126050" lon="-2.654031">
        <ele>1461.8</ele>
        <time>1989-12-30T23:59:59Z</time>
      </trkpt>
      <trkpt lat="38.126113" lon="-2.653947">
        <ele>1462.8</ele>
        <time>1989-12-30T23:59:59Z</time>
      </trkpt>
      <trkpt lat="38.126181" lon="-2.653862">
        <ele>1462.8</ele>
        <time>1989-12-30T23:59:59Z</time>
      </trkpt>
      <trkpt lat="38.126245" lon="-2.653779">
        <ele>1462.8</ele>
        <time>1989-12-30T23:59:59Z</time>
      </trkpt>
      <trkpt lat="38.126313" lon="-2.653690">
        <ele>1462.3</ele>
        <time>1989-12-30T23:59:59Z</time>
      </trkpt>
      <trkpt lat="38.126382" lon="-2.653611">
        <ele>1462.8</ele>
        <time>1989-12-30T23:59:59Z</time>
      </trkpt>
      <trkpt lat="38.126446" lon="-2.653514">
        <ele>1462.8</ele>
        <time>1989-12-30T23:59:59Z</time>
      </trkpt>
      <trkpt lat="38.126509" lon="-2.653429">
        <ele>1462.8</ele>
        <time>1989-12-30T23:59:59Z</time>
      </trkpt>
      <trkpt lat="38.126569" lon="-2.653339">
        <ele>1462.3</ele>
        <time>1989-12-30T23:59:59Z</time>
      </trkpt>
      <trkpt lat="38.126553" lon="-2.653389">
        <ele>1458.0</ele>
        <time>1989-12-30T23:59:59Z</time>
      </trkpt>
      <trkpt lat="38.126592" lon="-2.653300">
        <ele>1458.9</ele>
        <time>1989-12-30T23:59:59Z</time>
      </trkpt>
      <trkpt lat="38.126644" lon="-2.653193">
        <ele>1459.9</ele>
        <time>1989-12-30T23:59:59Z</time>
      </trkpt>
      <trkpt lat="38.126707" lon="-2.653087">
        <ele>1460.9</ele>
        <time>1989-12-30T23:59:59Z</time>
      </trkpt>
      <trkpt lat="38.126761" lon="-2.652983">
        <ele>1461.8</ele>
        <time>1989-12-30T23:59:59Z</time>
      </trkpt>
      <trkpt lat="38.126818" lon="-2.652880">
        <ele>1462.3</ele>
        <time>1989-12-30T23:59:59Z</time>
      </trkpt>
      <trkpt lat="38.126875" lon="-2.652772">
        <ele>1461.8</ele>
        <time>1989-12-30T23:59:59Z</time>
      </trkpt>
      <trkpt lat="38.126932" lon="-2.652672">
        <ele>1462.8</ele>
        <time>1989-12-30T23:59:59Z</time>
      </trkpt>
      <trkpt lat="38.126991" lon="-2.652582">
        <ele>1462.8</ele>
        <time>1989-12-30T23:59:59Z</time>
      </trkpt>
      <trkpt lat="38.127046" lon="-2.652485">
        <ele>1462.8</ele>
        <time>1989-12-30T23:59:59Z</time>
      </trkpt>
      <trkpt lat="38.127100" lon="-2.652385">
        <ele>1462.8</ele>
        <time>1989-12-30T23:59:59Z</time>
      </trkpt>
      <trkpt lat="38.127150" lon="-2.652282">
        <ele>1463.3</ele>
        <time>1989-12-30T23:59:59Z</time>
      </trkpt>
      <trkpt lat="38.127201" lon="-2.652188">
        <ele>1462.8</ele>
        <time>1989-12-30T23:59:59Z</time>
      </trkpt>
      <trkpt lat="38.127258" lon="-2.652087">
        <ele>1463.3</ele>
        <time>1989-12-30T23:59:59Z</time>
      </trkpt>
      <trkpt lat="38.127313" lon="-2.651992">
        <ele>1463.7</ele>
        <time>1989-12-30T23:59:59Z</time>
      </trkpt>
      <trkpt lat="38.127359" lon="-2.651899">
        <ele>1465.7</ele>
        <time>1989-12-30T23:59:59Z</time>
      </trkpt>
      <trkpt lat="38.127423" lon="-2.651786">
        <ele>1469.5</ele>
        <time>1989-12-30T23:59:59Z</time>
      </trkpt>
      <trkpt lat="38.127430" lon="-2.651786">
        <ele>1464.2</ele>
        <time>1989-12-30T23:59:59Z</time>
      </trkpt>
      <trkpt lat="38.127505" lon="-2.651710">
        <ele>1467.6</ele>
        <time>1989-12-30T23:59:59Z</time>
      </trkpt>
      <trkpt lat="38.127583" lon="-2.651643">
        <ele>1467.1</ele>
        <time>1989-12-30T23:59:59Z</time>
      </trkpt>
      <trkpt lat="38.127660" lon="-2.651579">
        <ele>1467.1</ele>
        <time>1989-12-30T23:59:59Z</time>
      </trkpt>
      <trkpt lat="38.127730" lon="-2.651509">
        <ele>1467.1</ele>
        <time>1989-12-30T23:59:59Z</time>
      </trkpt>
      <trkpt lat="38.127799" lon="-2.651444">
        <ele>1468.1</ele>
        <time>1989-12-30T23:59:59Z</time>
      </trkpt>
      <trkpt lat="38.127878" lon="-2.651390">
        <ele>1468.6</ele>
        <time>1989-12-30T23:59:59Z</time>
      </trkpt>
      <trkpt lat="38.127956" lon="-2.651322">
        <ele>1470.5</ele>
        <time>1989-12-30T23:59:59Z</time>
      </trkpt>
      <trkpt lat="38.128090" lon="-2.651275">
        <ele>1472.4</ele>
        <time>1989-12-30T23:59:59Z</time>
      </trkpt>
      <trkpt lat="38.128154" lon="-2.651209">
        <ele>1470.5</ele>
        <time>1989-12-30T23:59:59Z</time>
      </trkpt>
      <trkpt lat="38.128213" lon="-2.651131">
        <ele>1469.0</ele>
        <time>1989-12-30T23:59:59Z</time>
      </trkpt>
      <trkpt lat="38.128280" lon="-2.651053">
        <ele>1468.1</ele>
        <time>1989-12-30T23:59:59Z</time>
      </trkpt>
      <trkpt lat="38.128347" lon="-2.651004">
        <ele>1468.1</ele>
        <time>1989-12-30T23:59:59Z</time>
      </trkpt>
      <trkpt lat="38.128436" lon="-2.650962">
        <ele>1467.1</ele>
        <time>1989-12-30T23:59:59Z</time>
      </trkpt>
      <trkpt lat="38.128521" lon="-2.650906">
        <ele>1466.1</ele>
        <time>1989-12-30T23:59:59Z</time>
      </trkpt>
      <trkpt lat="38.128641" lon="-2.650938">
        <ele>1467.6</ele>
        <time>1989-12-30T23:59:59Z</time>
      </trkpt>
      <trkpt lat="38.128740" lon="-2.650954">
        <ele>1462.3</ele>
        <time>1989-12-30T23:59:59Z</time>
      </trkpt>
      <trkpt lat="38.128831" lon="-2.650943">
        <ele>1461.3</ele>
        <time>1989-12-30T23:59:59Z</time>
      </trkpt>
      <trkpt lat="38.128911" lon="-2.650928">
        <ele>1464.2</ele>
        <time>1989-12-30T23:59:59Z</time>
      </trkpt>
      <trkpt lat="38.129003" lon="-2.650908">
        <ele>1463.7</ele>
        <time>1989-12-30T23:59:59Z</time>
      </trkpt>
      <trkpt lat="38.129092" lon="-2.650865">
        <ele>1463.3</ele>
        <time>1989-12-30T23:59:59Z</time>
      </trkpt>
      <trkpt lat="38.129178" lon="-2.650791">
        <ele>1462.8</ele>
        <time>1989-12-30T23:59:59Z</time>
      </trkpt>
      <trkpt lat="38.129256" lon="-2.650710">
        <ele>1463.7</ele>
        <time>1989-12-30T23:59:59Z</time>
      </trkpt>
      <trkpt lat="38.129329" lon="-2.650630">
        <ele>1464.7</ele>
        <time>1989-12-30T23:59:59Z</time>
      </trkpt>
      <trkpt lat="38.129301" lon="-2.650691">
        <ele>1466.1</ele>
        <time>1989-12-30T23:59:59Z</time>
      </trkpt>
      <trkpt lat="38.129311" lon="-2.650613">
        <ele>1465.2</ele>
        <time>1989-12-30T23:59:59Z</time>
      </trkpt>
      <trkpt lat="38.129377" lon="-2.650532">
        <ele>1464.7</ele>
        <time>1989-12-30T23:59:59Z</time>
      </trkpt>
      <trkpt lat="38.129445" lon="-2.650454">
        <ele>1465.2</ele>
        <time>1989-12-30T23:59:59Z</time>
      </trkpt>
      <trkpt lat="38.129484" lon="-2.650379">
        <ele>1464.2</ele>
        <time>1989-12-30T23:59:59Z</time>
      </trkpt>
      <trkpt lat="38.129545" lon="-2.650275">
        <ele>1464.2</ele>
        <time>1989-12-30T23:59:59Z</time>
      </trkpt>
      <trkpt lat="38.129587" lon="-2.650148">
        <ele>1464.7</ele>
        <time>1989-12-30T23:59:59Z</time>
      </trkpt>
      <trkpt lat="38.129646" lon="-2.650040">
        <ele>1464.7</ele>
        <time>1989-12-30T23:59:59Z</time>
      </trkpt>
      <trkpt lat="38.129719" lon="-2.649954">
        <ele>1464.7</ele>
        <time>1989-12-30T23:59:59Z</time>
      </trkpt>
      <trkpt lat="38.129804" lon="-2.649892">
        <ele>1464.2</ele>
        <time>1989-12-30T23:59:59Z</time>
      </trkpt>
      <trkpt lat="38.129880" lon="-2.649821">
        <ele>1464.2</ele>
        <time>1989-12-30T23:59:59Z</time>
      </trkpt>
      <trkpt lat="38.129981" lon="-2.649757">
        <ele>1464.2</ele>
        <time>1989-12-30T23:59:59Z</time>
      </trkpt>
      <trkpt lat="38.129994" lon="-2.649633">
        <ele>1466.6</ele>
        <time>1989-12-30T23:59:59Z</time>
      </trkpt>
      <trkpt lat="38.129974" lon="-2.649490">
        <ele>1468.1</ele>
        <time>1989-12-30T23:59:59Z</time>
      </trkpt>
      <trkpt lat="38.130009" lon="-2.649400">
        <ele>1463.7</ele>
        <time>1989-12-30T23:59:59Z</time>
      </trkpt>
      <trkpt lat="38.130037" lon="-2.649270">
        <ele>1465.7</ele>
        <time>1989-12-30T23:59:59Z</time>
      </trkpt>
      <trkpt lat="38.130071" lon="-2.649169">
        <ele>1467.1</ele>
        <time>1989-12-30T23:59:59Z</time>
      </trkpt>
      <trkpt lat="38.130123" lon="-2.649087">
        <ele>1468.6</ele>
        <time>1989-12-30T23:59:59Z</time>
      </trkpt>
      <trkpt lat="38.130168" lon="-2.649002">
        <ele>1469.0</ele>
        <time>1989-12-30T23:59:59Z</time>
      </trkpt>
      <trkpt lat="38.130227" lon="-2.648900">
        <ele>1471.4</ele>
        <time>1989-12-30T23:59:59Z</time>
      </trkpt>
      <trkpt lat="38.130280" lon="-2.648801">
        <ele>1471.9</ele>
        <time>1989-12-30T23:59:59Z</time>
      </trkpt>
      <trkpt lat="38.130342" lon="-2.648717">
        <ele>1472.4</ele>
        <time>1989-12-30T23:59:59Z</time>
      </trkpt>
      <trkpt lat="38.130391" lon="-2.648617">
        <ele>1473.4</ele>
        <time>1989-12-30T23:59:59Z</time>
      </trkpt>
      <trkpt lat="38.130444" lon="-2.648524">
        <ele>1474.8</ele>
        <time>1989-12-30T23:59:59Z</time>
      </trkpt>
      <trkpt lat="38.130475" lon="-2.648411">
        <ele>1476.7</ele>
        <time>1989-12-30T23:59:59Z</time>
      </trkpt>
      <trkpt lat="38.130544" lon="-2.648362">
        <ele>1475.8</ele>
        <time>1989-12-30T23:59:59Z</time>
      </trkpt>
      <trkpt lat="38.130624" lon="-2.648259">
        <ele>1476.7</ele>
        <time>1989-12-30T23:59:59Z</time>
      </trkpt>
      <trkpt lat="38.130689" lon="-2.648177">
        <ele>1476.7</ele>
        <time>1989-12-30T23:59:59Z</time>
      </trkpt>
      <trkpt lat="38.130761" lon="-2.648104">
        <ele>1476.2</ele>
        <time>1989-12-30T23:59:59Z</time>
      </trkpt>
      <trkpt lat="38.130802" lon="-2.648005">
        <ele>1474.8</ele>
        <time>1989-12-30T23:59:59Z</time>
      </trkpt>
      <trkpt lat="38.130805" lon="-2.647863">
        <ele>1478.2</ele>
        <time>1989-12-30T23:59:59Z</time>
      </trkpt>
      <trkpt lat="38.130803" lon="-2.647746">
        <ele>1476.2</ele>
        <time>1989-12-30T23:59:59Z</time>
      </trkpt>
      <trkpt lat="38.130803" lon="-2.647650">
        <ele>1474.8</ele>
        <time>1989-12-30T23:59:59Z</time>
      </trkpt>
      <trkpt lat="38.130781" lon="-2.647540">
        <ele>1477.7</ele>
        <time>1989-12-30T23:59:59Z</time>
      </trkpt>
      <trkpt lat="38.130795" lon="-2.647415">
        <ele>1476.7</ele>
        <time>1989-12-30T23:59:59Z</time>
      </trkpt>
      <trkpt lat="38.130832" lon="-2.647311">
        <ele>1477.2</ele>
        <time>1989-12-30T23:59:59Z</time>
      </trkpt>
      <trkpt lat="38.130876" lon="-2.647209">
        <ele>1477.2</ele>
        <time>1989-12-30T23:59:59Z</time>
      </trkpt>
      <trkpt lat="38.130922" lon="-2.647105">
        <ele>1477.7</ele>
        <time>1989-12-30T23:59:59Z</time>
      </trkpt>
      <trkpt lat="38.130950" lon="-2.646996">
        <ele>1475.8</ele>
        <time>1989-12-30T23:59:59Z</time>
      </trkpt>
      <trkpt lat="38.130965" lon="-2.646880">
        <ele>1473.8</ele>
        <time>1989-12-30T23:59:59Z</time>
      </trkpt>
      <trkpt lat="38.131010" lon="-2.646789">
        <ele>1471.4</ele>
        <time>1989-12-30T23:59:59Z</time>
      </trkpt>
      <trkpt lat="38.131080" lon="-2.646681">
        <ele>1472.4</ele>
        <time>1989-12-30T23:59:59Z</time>
      </trkpt>
      <trkpt lat="38.131152" lon="-2.646607">
        <ele>1473.8</ele>
        <time>1989-12-30T23:59:59Z</time>
      </trkpt>
      <trkpt lat="38.131227" lon="-2.646543">
        <ele>1474.3</ele>
        <time>1989-12-30T23:59:59Z</time>
      </trkpt>
      <trkpt lat="38.131294" lon="-2.646459">
        <ele>1475.3</ele>
        <time>1989-12-30T23:59:59Z</time>
      </trkpt>
      <trkpt lat="38.131348" lon="-2.646441">
        <ele>1470.5</ele>
        <time>1989-12-30T23:59:59Z</time>
      </trkpt>
      <trkpt lat="38.131410" lon="-2.646343">
        <ele>1472.9</ele>
        <time>1989-12-30T23:59:59Z</time>
      </trkpt>
      <trkpt lat="38.131461" lon="-2.646228">
        <ele>1478.2</ele>
        <time>1989-12-30T23:59:59Z</time>
      </trkpt>
      <trkpt lat="38.131536" lon="-2.646156">
        <ele>1477.7</ele>
        <time>1989-12-30T23:59:59Z</time>
      </trkpt>
      <trkpt lat="38.131593" lon="-2.646061">
        <ele>1476.7</ele>
        <time>1989-12-30T23:59:59Z</time>
      </trkpt>
      <trkpt lat="38.131662" lon="-2.645982">
        <ele>1475.8</ele>
        <time>1989-12-30T23:59:59Z</time>
      </trkpt>
      <trkpt lat="38.131740" lon="-2.645913">
        <ele>1475.3</ele>
        <time>1989-12-30T23:59:59Z</time>
      </trkpt>
      <trkpt lat="38.131816" lon="-2.645841">
        <ele>1474.8</ele>
        <time>1989-12-30T23:59:59Z</time>
      </trkpt>
      <trkpt lat="38.131884" lon="-2.645764">
        <ele>1474.3</ele>
        <time>1989-12-30T23:59:59Z</time>
      </trkpt>
      <trkpt lat="38.131964" lon="-2.645694">
        <ele>1473.4</ele>
        <time>1989-12-30T23:59:59Z</time>
      </trkpt>
      <trkpt lat="38.132030" lon="-2.645622">
        <ele>1472.4</ele>
        <time>1989-12-30T23:59:59Z</time>
      </trkpt>
      <trkpt lat="38.132102" lon="-2.645547">
        <ele>1472.4</ele>
        <time>1989-12-30T23:59:59Z</time>
      </trkpt>
      <trkpt lat="38.132173" lon="-2.645484">
        <ele>1472.4</ele>
        <time>1989-12-30T23:59:59Z</time>
      </trkpt>
      <trkpt lat="38.132255" lon="-2.645329">
        <ele>1473.8</ele>
        <time>1989-12-30T23:59:59Z</time>
      </trkpt>
      <trkpt lat="38.132306" lon="-2.645237">
        <ele>1472.4</ele>
        <time>1989-12-30T23:59:59Z</time>
      </trkpt>
      <trkpt lat="38.132347" lon="-2.645127">
        <ele>1471.4</ele>
        <time>1989-12-30T23:59:59Z</time>
      </trkpt>
      <trkpt lat="38.132404" lon="-2.645039">
        <ele>1471.0</ele>
        <time>1989-12-30T23:59:59Z</time>
      </trkpt>
      <trkpt lat="38.132456" lon="-2.644949">
        <ele>1470.5</ele>
        <time>1989-12-30T23:59:59Z</time>
      </trkpt>
      <trkpt lat="38.132501" lon="-2.644852">
        <ele>1469.5</ele>
        <time>1989-12-30T23:59:59Z</time>
      </trkpt>
      <trkpt lat="38.132536" lon="-2.644739">
        <ele>1469.0</ele>
        <time>1989-12-30T23:59:59Z</time>
      </trkpt>
      <trkpt lat="38.132603" lon="-2.644639">
        <ele>1469.0</ele>
        <time>1989-12-30T23:59:59Z</time>
      </trkpt>
      <trkpt lat="38.132651" lon="-2.644554">
        <ele>1467.6</ele>
        <time>1989-12-30T23:59:59Z</time>
      </trkpt>
      <trkpt lat="38.132721" lon="-2.644469">
        <ele>1466.1</ele>
        <time>1989-12-30T23:59:59Z</time>
      </trkpt>
      <trkpt lat="38.132753" lon="-2.644406">
        <ele>1461.8</ele>
        <time>1989-12-30T23:59:59Z</time>
      </trkpt>
      <trkpt lat="38.132796" lon="-2.644314">
        <ele>1461.3</ele>
        <time>1989-12-30T23:59:59Z</time>
      </trkpt>
      <trkpt lat="38.132871" lon="-2.644206">
        <ele>1462.8</ele>
        <time>1989-12-30T23:59:59Z</time>
      </trkpt>
      <trkpt lat="38.132927" lon="-2.644106">
        <ele>1462.3</ele>
        <time>1989-12-30T23:59:59Z</time>
      </trkpt>
      <trkpt lat="38.132978" lon="-2.644008">
        <ele>1462.8</ele>
        <time>1989-12-30T23:59:59Z</time>
      </trkpt>
      <trkpt lat="38.133039" lon="-2.643910">
        <ele>1464.2</ele>
        <time>1989-12-30T23:59:59Z</time>
      </trkpt>
      <trkpt lat="38.133084" lon="-2.643810">
        <ele>1465.2</ele>
        <time>1989-12-30T23:59:59Z</time>
      </trkpt>
      <trkpt lat="38.133124" lon="-2.643716">
        <ele>1463.3</ele>
        <time>1989-12-30T23:59:59Z</time>
      </trkpt>
      <trkpt lat="38.133170" lon="-2.643609">
        <ele>1470.5</ele>
        <time>1989-12-30T23:59:59Z</time>
      </trkpt>
      <trkpt lat="38.133224" lon="-2.643504">
        <ele>1471.4</ele>
        <time>1989-12-30T23:59:59Z</time>
      </trkpt>
      <trkpt lat="38.133264" lon="-2.643359">
        <ele>1473.8</ele>
        <time>1989-12-30T23:59:59Z</time>
      </trkpt>
      <trkpt lat="38.133321" lon="-2.643267">
        <ele>1472.9</ele>
        <time>1989-12-30T23:59:59Z</time>
      </trkpt>
      <trkpt lat="38.133363" lon="-2.643171">
        <ele>1471.4</ele>
        <time>1989-12-30T23:59:59Z</time>
      </trkpt>
      <trkpt lat="38.133397" lon="-2.643062">
        <ele>1470.5</ele>
        <time>1989-12-30T23:59:59Z</time>
      </trkpt>
      <trkpt lat="38.133422" lon="-2.642934">
        <ele>1471.0</ele>
        <time>1989-12-30T23:59:59Z</time>
      </trkpt>
      <trkpt lat="38.133442" lon="-2.642813">
        <ele>1471.0</ele>
        <time>1989-12-30T23:59:59Z</time>
      </trkpt>
      <trkpt lat="38.133469" lon="-2.642695">
        <ele>1471.4</ele>
        <time>1989-12-30T23:59:59Z</time>
      </trkpt>
      <trkpt lat="38.133524" lon="-2.642601">
        <ele>1472.4</ele>
        <time>1989-12-30T23:59:59Z</time>
      </trkpt>
      <trkpt lat="38.133592" lon="-2.642508">
        <ele>1471.9</ele>
        <time>1989-12-30T23:59:59Z</time>
      </trkpt>
      <trkpt lat="38.133659" lon="-2.642422">
        <ele>1472.4</ele>
        <time>1989-12-30T23:59:59Z</time>
      </trkpt>
      <trkpt lat="38.133733" lon="-2.642311">
        <ele>1474.8</ele>
        <time>1989-12-30T23:59:59Z</time>
      </trkpt>
      <trkpt lat="38.133779" lon="-2.642207">
        <ele>1474.3</ele>
        <time>1989-12-30T23:59:59Z</time>
      </trkpt>
      <trkpt lat="38.133822" lon="-2.642099">
        <ele>1473.4</ele>
        <time>1989-12-30T23:59:59Z</time>
      </trkpt>
      <trkpt lat="38.133855" lon="-2.641990">
        <ele>1472.4</ele>
        <time>1989-12-30T23:59:59Z</time>
      </trkpt>
      <trkpt lat="38.133884" lon="-2.641877">
        <ele>1471.9</ele>
        <time>1989-12-30T23:59:59Z</time>
      </trkpt>
      <trkpt lat="38.133919" lon="-2.641767">
        <ele>1471.4</ele>
        <time>1989-12-30T23:59:59Z</time>
      </trkpt>
      <trkpt lat="38.133966" lon="-2.641665">
        <ele>1469.5</ele>
        <time>1989-12-30T23:59:59Z</time>
      </trkpt>
      <trkpt lat="38.133987" lon="-2.641557">
        <ele>1468.1</ele>
        <time>1989-12-30T23:59:59Z</time>
      </trkpt>
      <trkpt lat="38.133984" lon="-2.641454">
        <ele>1466.1</ele>
        <time>1989-12-30T23:59:59Z</time>
      </trkpt>
      <trkpt lat="38.134004" lon="-2.641330">
        <ele>1464.2</ele>
        <time>1989-12-30T23:59:59Z</time>
      </trkpt>
      <trkpt lat="38.134007" lon="-2.641212">
        <ele>1465.2</ele>
        <time>1989-12-30T23:59:59Z</time>
      </trkpt>
      <trkpt lat="38.134043" lon="-2.641105">
        <ele>1464.7</ele>
        <time>1989-12-30T23:59:59Z</time>
      </trkpt>
      <trkpt lat="38.134065" lon="-2.641008">
        <ele>1462.8</ele>
        <time>1989-12-30T23:59:59Z</time>
      </trkpt>
      <trkpt lat="38.134109" lon="-2.640905">
        <ele>1463.7</ele>
        <time>1989-12-30T23:59:59Z</time>
      </trkpt>
      <trkpt lat="38.134151" lon="-2.640793">
        <ele>1466.1</ele>
        <time>1989-12-30T23:59:59Z</time>
      </trkpt>
      <trkpt lat="38.134220" lon="-2.640707">
        <ele>1466.1</ele>
        <time>1989-12-30T23:59:59Z</time>
      </trkpt>
      <trkpt lat="38.134273" lon="-2.640593">
        <ele>1467.6</ele>
        <time>1989-12-30T23:59:59Z</time>
      </trkpt>
      <trkpt lat="38.134329" lon="-2.640493">
        <ele>1468.6</ele>
        <time>1989-12-30T23:59:59Z</time>
      </trkpt>
      <trkpt lat="38.134393" lon="-2.640403">
        <ele>1468.6</ele>
        <time>1989-12-30T23:59:59Z</time>
      </trkpt>
      <trkpt lat="38.134451" lon="-2.640313">
        <ele>1469.5</ele>
        <time>1989-12-30T23:59:59Z</time>
      </trkpt>
      <trkpt lat="38.134485" lon="-2.640212">
        <ele>1471.4</ele>
        <time>1989-12-30T23:59:59Z</time>
      </trkpt>
      <trkpt lat="38.134496" lon="-2.640117">
        <ele>1475.8</ele>
        <time>1989-12-30T23:59:59Z</time>
      </trkpt>
      <trkpt lat="38.134524" lon="-2.640003">
        <ele>1478.2</ele>
        <time>1989-12-30T23:59:59Z</time>
      </trkpt>
      <trkpt lat="38.134573" lon="-2.639893">
        <ele>1478.6</ele>
        <time>1989-12-30T23:59:59Z</time>
      </trkpt>
      <trkpt lat="38.134611" lon="-2.639805">
        <ele>1478.6</ele>
        <time>1989-12-30T23:59:59Z</time>
      </trkpt>
      <trkpt lat="38.134599" lon="-2.639677">
        <ele>1479.6</ele>
        <time>1989-12-30T23:59:59Z</time>
      </trkpt>
      <trkpt lat="38.134599" lon="-2.639553">
        <ele>1480.1</ele>
        <time>1989-12-30T23:59:59Z</time>
      </trkpt>
      <trkpt lat="38.134610" lon="-2.639430">
        <ele>1478.2</ele>
        <time>1989-12-30T23:59:59Z</time>
      </trkpt>
      <trkpt lat="38.134603" lon="-2.639309">
        <ele>1480.6</ele>
        <time>1989-12-30T23:59:59Z</time>
      </trkpt>
      <trkpt lat="38.134639" lon="-2.639181">
        <ele>1483.9</ele>
        <time>1989-12-30T23:59:59Z</time>
      </trkpt>
      <trkpt lat="38.134652" lon="-2.639073">
        <ele>1482.5</ele>
        <time>1989-12-30T23:59:59Z</time>
      </trkpt>
      <trkpt lat="38.134619" lon="-2.638968">
        <ele>1482.0</ele>
        <time>1989-12-30T23:59:59Z</time>
      </trkpt>
      <trkpt lat="38.134579" lon="-2.638862">
        <ele>1476.2</ele>
        <time>1989-12-30T23:59:59Z</time>
      </trkpt>
      <trkpt lat="38.134516" lon="-2.638764">
        <ele>1475.3</ele>
        <time>1989-12-30T23:59:59Z</time>
      </trkpt>
      <trkpt lat="38.134464" lon="-2.638661">
        <ele>1475.3</ele>
        <time>1989-12-30T23:59:59Z</time>
      </trkpt>
      <trkpt lat="38.134432" lon="-2.638540">
        <ele>1476.2</ele>
        <time>1989-12-30T23:59:59Z</time>
      </trkpt>
      <trkpt lat="38.134434" lon="-2.638413">
        <ele>1476.7</ele>
        <time>1989-12-30T23:59:59Z</time>
      </trkpt>
      <trkpt lat="38.134434" lon="-2.638297">
        <ele>1478.2</ele>
        <time>1989-12-30T23:59:59Z</time>
      </trkpt>
      <trkpt lat="38.134473" lon="-2.638193">
        <ele>1478.6</ele>
        <time>1989-12-30T23:59:59Z</time>
      </trkpt>
      <trkpt lat="38.134492" lon="-2.638083">
        <ele>1477.2</ele>
        <time>1989-12-30T23:59:59Z</time>
      </trkpt>
      <trkpt lat="38.134520" lon="-2.637978">
        <ele>1477.2</ele>
        <time>1989-12-30T23:59:59Z</time>
      </trkpt>
      <trkpt lat="38.134525" lon="-2.637858">
        <ele>1476.7</ele>
        <time>1989-12-30T23:59:59Z</time>
      </trkpt>
      <trkpt lat="38.134489" lon="-2.637823">
        <ele>1477.7</ele>
        <time>1989-12-30T23:59:59Z</time>
      </trkpt>
      <trkpt lat="38.134455" lon="-2.637750">
        <ele>1476.7</ele>
        <time>1989-12-30T23:59:59Z</time>
      </trkpt>
      <trkpt lat="38.134397" lon="-2.637662">
        <ele>1476.2</ele>
        <time>1989-12-30T23:59:59Z</time>
      </trkpt>
      <trkpt lat="38.134341" lon="-2.637571">
        <ele>1475.8</ele>
        <time>1989-12-30T23:59:59Z</time>
      </trkpt>
      <trkpt lat="38.134310" lon="-2.637457">
        <ele>1473.8</ele>
        <time>1989-12-30T23:59:59Z</time>
      </trkpt>
      <trkpt lat="38.134307" lon="-2.637329">
        <ele>1471.4</ele>
        <time>1989-12-30T23:59:59Z</time>
      </trkpt>
      <trkpt lat="38.134299" lon="-2.637215">
        <ele>1469.0</ele>
        <time>1989-12-30T23:59:59Z</time>
      </trkpt>
      <trkpt lat="38.134276" lon="-2.637103">
        <ele>1467.1</ele>
        <time>1989-12-30T23:59:59Z</time>
      </trkpt>
      <trkpt lat="38.134239" lon="-2.636998">
        <ele>1465.7</ele>
        <time>1989-12-30T23:59:59Z</time>
      </trkpt>
      <trkpt lat="38.134197" lon="-2.636893">
        <ele>1464.7</ele>
        <time>1989-12-30T23:59:59Z</time>
      </trkpt>
      <trkpt lat="38.134164" lon="-2.636791">
        <ele>1463.7</ele>
        <time>1989-12-30T23:59:59Z</time>
      </trkpt>
      <trkpt lat="38.134117" lon="-2.636666">
        <ele>1461.3</ele>
        <time>1989-12-30T23:59:59Z</time>
      </trkpt>
      <trkpt lat="38.134077" lon="-2.636550">
        <ele>1459.9</ele>
        <time>1989-12-30T23:59:59Z</time>
      </trkpt>
      <trkpt lat="38.134038" lon="-2.636444">
        <ele>1459.9</ele>
        <time>1989-12-30T23:59:59Z</time>
      </trkpt>
      <trkpt lat="38.133961" lon="-2.636375">
        <ele>1460.4</ele>
        <time>1989-12-30T23:59:59Z</time>
      </trkpt>
      <trkpt lat="38.133874" lon="-2.636344">
        <ele>1461.3</ele>
        <time>1989-12-30T23:59:59Z</time>
      </trkpt>
      <trkpt lat="38.133787" lon="-2.636302">
        <ele>1461.8</ele>
        <time>1989-12-30T23:59:59Z</time>
      </trkpt>
      <trkpt lat="38.133699" lon="-2.636280">
        <ele>1462.3</ele>
        <time>1989-12-30T23:59:59Z</time>
      </trkpt>
      <trkpt lat="38.133605" lon="-2.636256">
        <ele>1462.8</ele>
        <time>1989-12-30T23:59:59Z</time>
      </trkpt>
      <trkpt lat="38.133511" lon="-2.636265">
        <ele>1463.7</ele>
        <time>1989-12-30T23:59:59Z</time>
      </trkpt>
      <trkpt lat="38.133421" lon="-2.636253">
        <ele>1464.7</ele>
        <time>1989-12-30T23:59:59Z</time>
      </trkpt>
      <trkpt lat="38.133357" lon="-2.636255">
        <ele>1466.6</ele>
        <time>1989-12-30T23:59:59Z</time>
      </trkpt>
      <trkpt lat="38.133305" lon="-2.636184">
        <ele>1465.7</ele>
        <time>1989-12-30T23:59:59Z</time>
      </trkpt>
      <trkpt lat="38.133234" lon="-2.636104">
        <ele>1464.7</ele>
        <time>1989-12-30T23:59:59Z</time>
      </trkpt>
      <trkpt lat="38.133187" lon="-2.636019">
        <ele>1465.7</ele>
        <time>1989-12-30T23:59:59Z</time>
      </trkpt>
      <trkpt lat="38.133103" lon="-2.635974">
        <ele>1466.6</ele>
        <time>1989-12-30T23:59:59Z</time>
      </trkpt>
      <trkpt lat="38.133045" lon="-2.635886">
        <ele>1466.1</ele>
        <time>1989-12-30T23:59:59Z</time>
      </trkpt>
      <trkpt lat="38.133001" lon="-2.635790">
        <ele>1465.2</ele>
        <time>1989-12-30T23:59:59Z</time>
      </trkpt>
      <trkpt lat="38.132946" lon="-2.635699">
        <ele>1465.2</ele>
        <time>1989-12-30T23:59:59Z</time>
      </trkpt>
      <trkpt lat="38.132899" lon="-2.635619">
        <ele>1463.7</ele>
        <time>1989-12-30T23:59:59Z</time>
      </trkpt>
      <trkpt lat="38.132844" lon="-2.635539">
        <ele>1467.1</ele>
        <time>1989-12-30T23:59:59Z</time>
      </trkpt>
      <trkpt lat="38.132777" lon="-2.635446">
        <ele>1466.6</ele>
        <time>1989-12-30T23:59:59Z</time>
      </trkpt>
      <trkpt lat="38.132708" lon="-2.635378">
        <ele>1468.1</ele>
        <time>1989-12-30T23:59:59Z</time>
      </trkpt>
      <trkpt lat="38.132635" lon="-2.635294">
        <ele>1469.0</ele>
        <time>1989-12-30T23:59:59Z</time>
      </trkpt>
      <trkpt lat="38.132571" lon="-2.635214">
        <ele>1469.5</ele>
        <time>1989-12-30T23:59:59Z</time>
      </trkpt>
      <trkpt lat="38.132494" lon="-2.635139">
        <ele>1471.4</ele>
        <time>1989-12-30T23:59:59Z</time>
      </trkpt>
      <trkpt lat="38.132440" lon="-2.635048">
        <ele>1473.4</ele>
        <time>1989-12-30T23:59:59Z</time>
      </trkpt>
      <trkpt lat="38.132385" lon="-2.634949">
        <ele>1473.8</ele>
        <time>1989-12-30T23:59:59Z</time>
      </trkpt>
      <trkpt lat="38.132329" lon="-2.634854">
        <ele>1473.4</ele>
        <time>1989-12-30T23:59:59Z</time>
      </trkpt>
      <trkpt lat="38.132278" lon="-2.634768">
        <ele>1473.4</ele>
        <time>1989-12-30T23:59:59Z</time>
      </trkpt>
      <trkpt lat="38.132219" lon="-2.634666">
        <ele>1473.4</ele>
        <time>1989-12-30T23:59:59Z</time>
      </trkpt>
      <trkpt lat="38.132165" lon="-2.634589">
        <ele>1475.8</ele>
        <time>1989-12-30T23:59:59Z</time>
      </trkpt>
      <trkpt lat="38.132094" lon="-2.634506">
        <ele>1476.7</ele>
        <time>1989-12-30T23:59:59Z</time>
      </trkpt>
      <trkpt lat="38.132023" lon="-2.634435">
        <ele>1477.2</ele>
        <time>1989-12-30T23:59:59Z</time>
      </trkpt>
      <trkpt lat="38.131981" lon="-2.634330">
        <ele>1476.2</ele>
        <time>1989-12-30T23:59:59Z</time>
      </trkpt>
      <trkpt lat="38.131934" lon="-2.634233">
        <ele>1477.7</ele>
        <time>1989-12-30T23:59:59Z</time>
      </trkpt>
      <trkpt lat="38.131853" lon="-2.634156">
        <ele>1477.7</ele>
        <time>1989-12-30T23:59:59Z</time>
      </trkpt>
      <trkpt lat="38.131799" lon="-2.634043">
        <ele>1474.3</ele>
        <time>1989-12-30T23:59:59Z</time>
      </trkpt>
      <trkpt lat="38.131748" lon="-2.633964">
        <ele>1476.7</ele>
        <time>1989-12-30T23:59:59Z</time>
      </trkpt>
      <trkpt lat="38.131674" lon="-2.633882">
        <ele>1477.2</ele>
        <time>1989-12-30T23:59:59Z</time>
      </trkpt>
      <trkpt lat="38.131581" lon="-2.633835">
        <ele>1478.2</ele>
        <time>1989-12-30T23:59:59Z</time>
      </trkpt>
      <trkpt lat="38.131491" lon="-2.633821">
        <ele>1478.6</ele>
        <time>1989-12-30T23:59:59Z</time>
      </trkpt>
      <trkpt lat="38.131393" lon="-2.633824">
        <ele>1479.6</ele>
        <time>1989-12-30T23:59:59Z</time>
      </trkpt>
      <trkpt lat="38.131288" lon="-2.633824">
        <ele>1481.0</ele>
        <time>1989-12-30T23:59:59Z</time>
      </trkpt>
      <trkpt lat="38.131282" lon="-2.633809">
        <ele>1481.0</ele>
        <time>1989-12-30T23:59:59Z</time>
      </trkpt>
      <trkpt lat="38.131239" lon="-2.633802">
        <ele>1482.0</ele>
        <time>1989-12-30T23:59:59Z</time>
      </trkpt>
      <trkpt lat="38.131152" lon="-2.633767">
        <ele>1482.5</ele>
        <time>1989-12-30T23:59:59Z</time>
      </trkpt>
      <trkpt lat="38.131079" lon="-2.633692">
        <ele>1483.5</ele>
        <time>1989-12-30T23:59:59Z</time>
      </trkpt>
      <trkpt lat="38.131020" lon="-2.633601">
        <ele>1483.5</ele>
        <time>1989-12-30T23:59:59Z</time>
      </trkpt>
      <trkpt lat="38.130968" lon="-2.633506">
        <ele>1484.4</ele>
        <time>1989-12-30T23:59:59Z</time>
      </trkpt>
      <trkpt lat="38.130925" lon="-2.633407">
        <ele>1485.4</ele>
        <time>1989-12-30T23:59:59Z</time>
      </trkpt>
      <trkpt lat="38.130885" lon="-2.633319">
        <ele>1488.3</ele>
        <time>1989-12-30T23:59:59Z</time>
      </trkpt>
      <trkpt lat="38.130842" lon="-2.633214">
        <ele>1487.3</ele>
        <time>1989-12-30T23:59:59Z</time>
      </trkpt>
      <trkpt lat="38.130785" lon="-2.633113">
        <ele>1488.3</ele>
        <time>1989-12-30T23:59:59Z</time>
      </trkpt>
      <trkpt lat="38.130734" lon="-2.633015">
        <ele>1488.7</ele>
        <time>1989-12-30T23:59:59Z</time>
      </trkpt>
      <trkpt lat="38.130687" lon="-2.632913">
        <ele>1489.7</ele>
        <time>1989-12-30T23:59:59Z</time>
      </trkpt>
      <trkpt lat="38.130645" lon="-2.632807">
        <ele>1491.6</ele>
        <time>1989-12-30T23:59:59Z</time>
      </trkpt>
      <trkpt lat="38.130556" lon="-2.632708">
        <ele>1495.9</ele>
        <time>1989-12-30T23:59:59Z</time>
      </trkpt>
      <trkpt lat="38.130498" lon="-2.632627">
        <ele>1490.7</ele>
        <time>1989-12-30T23:59:59Z</time>
      </trkpt>
      <trkpt lat="38.130471" lon="-2.632545">
        <ele>1491.6</ele>
        <time>1989-12-30T23:59:59Z</time>
      </trkpt>
      <trkpt lat="38.130444" lon="-2.632437">
        <ele>1492.6</ele>
        <time>1989-12-30T23:59:59Z</time>
      </trkpt>
      <trkpt lat="38.130456" lon="-2.632318">
        <ele>1493.5</ele>
        <time>1989-12-30T23:59:59Z</time>
      </trkpt>
      <trkpt lat="38.130600" lon="-2.631829">
        <ele>1495.0</ele>
        <time>1989-12-30T23:59:59Z</time>
      </trkpt>
      <trkpt lat="38.130559" lon="-2.631760">
        <ele>1495.5</ele>
        <time>1989-12-30T23:59:59Z</time>
      </trkpt>
      <trkpt lat="38.130489" lon="-2.631651">
        <ele>1503.6</ele>
        <time>1989-12-30T23:59:59Z</time>
      </trkpt>
      <trkpt lat="38.130460" lon="-2.631567">
        <ele>1501.2</ele>
        <time>1989-12-30T23:59:59Z</time>
      </trkpt>
      <trkpt lat="38.130435" lon="-2.631456">
        <ele>1502.2</ele>
        <time>1989-12-30T23:59:59Z</time>
      </trkpt>
      <trkpt lat="38.130392" lon="-2.631355">
        <ele>1502.7</ele>
        <time>1989-12-30T23:59:59Z</time>
      </trkpt>
      <trkpt lat="38.130380" lon="-2.631236">
        <ele>1504.1</ele>
        <time>1989-12-30T23:59:59Z</time>
      </trkpt>
      <trkpt lat="38.130343" lon="-2.631126">
        <ele>1505.6</ele>
        <time>1989-12-30T23:59:59Z</time>
      </trkpt>
      <trkpt lat="38.130300" lon="-2.631018">
        <ele>1506.5</ele>
        <time>1989-12-30T23:59:59Z</time>
      </trkpt>
      <trkpt lat="38.130253" lon="-2.630915">
        <ele>1507.0</ele>
        <time>1989-12-30T23:59:59Z</time>
      </trkpt>
      <trkpt lat="38.130205" lon="-2.630815">
        <ele>1508.9</ele>
        <time>1989-12-30T23:59:59Z</time>
      </trkpt>
      <trkpt lat="38.130170" lon="-2.630702">
        <ele>1508.9</ele>
        <time>1989-12-30T23:59:59Z</time>
      </trkpt>
      <trkpt lat="38.130130" lon="-2.630608">
        <ele>1509.4</ele>
        <time>1989-12-30T23:59:59Z</time>
      </trkpt>
      <trkpt lat="38.130083" lon="-2.630504">
        <ele>1510.8</ele>
        <time>1989-12-30T23:59:59Z</time>
      </trkpt>
      <trkpt lat="38.130079" lon="-2.630389">
        <ele>1511.8</ele>
        <time>1989-12-30T23:59:59Z</time>
      </trkpt>
      <trkpt lat="38.130057" lon="-2.630257">
        <ele>1514.2</ele>
        <time>1989-12-30T23:59:59Z</time>
      </trkpt>
      <trkpt lat="38.130016" lon="-2.630159">
        <ele>1515.7</ele>
        <time>1989-12-30T23:59:59Z</time>
      </trkpt>
      <trkpt lat="38.129979" lon="-2.630055">
        <ele>1516.1</ele>
        <time>1989-12-30T23:59:59Z</time>
      </trkpt>
      <trkpt lat="38.129966" lon="-2.629945">
        <ele>1520.5</ele>
        <time>1989-12-30T23:59:59Z</time>
      </trkpt>
      <trkpt lat="38.129971" lon="-2.629847">
        <ele>1522.4</ele>
        <time>1989-12-30T23:59:59Z</time>
      </trkpt>
      <trkpt lat="38.129949" lon="-2.629742">
        <ele>1524.3</ele>
        <time>1989-12-30T23:59:59Z</time>
      </trkpt>
      <trkpt lat="38.129920" lon="-2.629626">
        <ele>1527.2</ele>
        <time>1989-12-30T23:59:59Z</time>
      </trkpt>
      <trkpt lat="38.129905" lon="-2.629518">
        <ele>1530.6</ele>
        <time>1989-12-30T23:59:59Z</time>
      </trkpt>
      <trkpt lat="38.129912" lon="-2.629402">
        <ele>1535.8</ele>
        <time>1989-12-30T23:59:59Z</time>
      </trkpt>
      <trkpt lat="38.129879" lon="-2.629286">
        <ele>1538.7</ele>
        <time>1989-12-30T23:59:59Z</time>
      </trkpt>
      <trkpt lat="38.129855" lon="-2.629178">
        <ele>1539.2</ele>
        <time>1989-12-30T23:59:59Z</time>
      </trkpt>
      <trkpt lat="38.129799" lon="-2.629078">
        <ele>1539.2</ele>
        <time>1989-12-30T23:59:59Z</time>
      </trkpt>
      <trkpt lat="38.129751" lon="-2.628983">
        <ele>1539.7</ele>
        <time>1989-12-30T23:59:59Z</time>
      </trkpt>
      <trkpt lat="38.129720" lon="-2.628856">
        <ele>1536.3</ele>
        <time>1989-12-30T23:59:59Z</time>
      </trkpt>
      <trkpt lat="38.129665" lon="-2.628773">
        <ele>1540.2</ele>
        <time>1989-12-30T23:59:59Z</time>
      </trkpt>
      <trkpt lat="38.129610" lon="-2.628684">
        <ele>1539.7</ele>
        <time>1989-12-30T23:59:59Z</time>
      </trkpt>
      <trkpt lat="38.129583" lon="-2.628573">
        <ele>1541.1</ele>
        <time>1989-12-30T23:59:59Z</time>
      </trkpt>
      <trkpt lat="38.129538" lon="-2.628467">
        <ele>1542.6</ele>
        <time>1989-12-30T23:59:59Z</time>
      </trkpt>
      <trkpt lat="38.129490" lon="-2.628358">
        <ele>1543.5</ele>
        <time>1989-12-30T23:59:59Z</time>
      </trkpt>
      <trkpt lat="38.129438" lon="-2.628263">
        <ele>1544.5</ele>
        <time>1989-12-30T23:59:59Z</time>
      </trkpt>
      <trkpt lat="38.129393" lon="-2.628168">
        <ele>1546.9</ele>
        <time>1989-12-30T23:59:59Z</time>
      </trkpt>
      <trkpt lat="38.129364" lon="-2.628053">
        <ele>1545.5</ele>
        <time>1989-12-30T23:59:59Z</time>
      </trkpt>
      <trkpt lat="38.129302" lon="-2.627951">
        <ele>1546.4</ele>
        <time>1989-12-30T23:59:59Z</time>
      </trkpt>
      <trkpt lat="38.129260" lon="-2.627844">
        <ele>1546.9</ele>
        <time>1989-12-30T23:59:59Z</time>
      </trkpt>
      <trkpt lat="38.129211" lon="-2.627753">
        <ele>1548.3</ele>
        <time>1989-12-30T23:59:59Z</time>
      </trkpt>
      <trkpt lat="38.129168" lon="-2.627649">
        <ele>1549.8</ele>
        <time>1989-12-30T23:59:59Z</time>
      </trkpt>
      <trkpt lat="38.129133" lon="-2.627536">
        <ele>1551.7</ele>
        <time>1989-12-30T23:59:59Z</time>
      </trkpt>
      <trkpt lat="38.129096" lon="-2.627427">
        <ele>1553.1</ele>
        <time>1989-12-30T23:59:59Z</time>
      </trkpt>
      <trkpt lat="38.129055" lon="-2.627324">
        <ele>1555.6</ele>
        <time>1989-12-30T23:59:59Z</time>
      </trkpt>
      <trkpt lat="38.129029" lon="-2.627240">
        <ele>1557.0</ele>
        <time>1989-12-30T23:59:59Z</time>
      </trkpt>
      <trkpt lat="38.128989" lon="-2.627129">
        <ele>1558.9</ele>
        <time>1989-12-30T23:59:59Z</time>
      </trkpt>
      <trkpt lat="38.128949" lon="-2.627013">
        <ele>1560.8</ele>
        <time>1989-12-30T23:59:59Z</time>
      </trkpt>
      <trkpt lat="38.128908" lon="-2.626907">
        <ele>1561.3</ele>
        <time>1989-12-30T23:59:59Z</time>
      </trkpt>
      <trkpt lat="38.128853" lon="-2.626804">
        <ele>1561.3</ele>
        <time>1989-12-30T23:59:59Z</time>
      </trkpt>
      <trkpt lat="38.128819" lon="-2.626701">
        <ele>1561.8</ele>
        <time>1989-12-30T23:59:59Z</time>
      </trkpt>
      <trkpt lat="38.128750" lon="-2.626615">
        <ele>1561.8</ele>
        <time>1989-12-30T23:59:59Z</time>
      </trkpt>
      <trkpt lat="38.128686" lon="-2.626517">
        <ele>1561.8</ele>
        <time>1989-12-30T23:59:59Z</time>
      </trkpt>
      <trkpt lat="38.128548" lon="-2.626375">
        <ele>1564.2</ele>
        <time>1989-12-30T23:59:59Z</time>
      </trkpt>
      <trkpt lat="38.128415" lon="-2.626310">
        <ele>1564.2</ele>
        <time>1989-12-30T23:59:59Z</time>
      </trkpt>
      <trkpt lat="38.128356" lon="-2.626255">
        <ele>1565.6</ele>
        <time>1989-12-30T23:59:59Z</time>
      </trkpt>
      <trkpt lat="38.128233" lon="-2.626088">
        <ele>1566.6</ele>
        <time>1989-12-30T23:59:59Z</time>
      </trkpt>
      <trkpt lat="38.128160" lon="-2.625997">
        <ele>1566.1</ele>
        <time>1989-12-30T23:59:59Z</time>
      </trkpt>
      <trkpt lat="38.128082" lon="-2.625803">
        <ele>1566.6</ele>
        <time>1989-12-30T23:59:59Z</time>
      </trkpt>
      <trkpt lat="38.128007" lon="-2.625727">
        <ele>1566.6</ele>
        <time>1989-12-30T23:59:59Z</time>
      </trkpt>
      <trkpt lat="38.127923" lon="-2.625657">
        <ele>1567.1</ele>
        <time>1989-12-30T23:59:59Z</time>
      </trkpt>
      <trkpt lat="38.127857" lon="-2.625582">
        <ele>1567.1</ele>
        <time>1989-12-30T23:59:59Z</time>
      </trkpt>
      <trkpt lat="38.127830" lon="-2.625476">
        <ele>1568.0</ele>
        <time>1989-12-30T23:59:59Z</time>
      </trkpt>
      <trkpt lat="38.127777" lon="-2.625399">
        <ele>1568.5</ele>
        <time>1989-12-30T23:59:59Z</time>
      </trkpt>
      <trkpt lat="38.127718" lon="-2.625357">
        <ele>1572.9</ele>
        <time>1989-12-30T23:59:59Z</time>
      </trkpt>
      <trkpt lat="38.127658" lon="-2.625282">
        <ele>1574.8</ele>
        <time>1989-12-30T23:59:59Z</time>
      </trkpt>
      <trkpt lat="38.127417" lon="-2.625067">
        <ele>1591.1</ele>
        <time>1989-12-30T23:59:59Z</time>
      </trkpt>
      <trkpt lat="38.127361" lon="-2.624994">
        <ele>1592.6</ele>
        <time>1989-12-30T23:59:59Z</time>
      </trkpt>
      <trkpt lat="38.127314" lon="-2.624942">
        <ele>1598.3</ele>
        <time>1989-12-30T23:59:59Z</time>
      </trkpt>
      <trkpt lat="38.127257" lon="-2.624842">
        <ele>1599.3</ele>
        <time>1989-12-30T23:59:59Z</time>
      </trkpt>
      <trkpt lat="38.127218" lon="-2.624769">
        <ele>1600.3</ele>
        <time>1989-12-30T23:59:59Z</time>
      </trkpt>
      <trkpt lat="38.127147" lon="-2.624690">
        <ele>1600.7</ele>
        <time>1989-12-30T23:59:59Z</time>
      </trkpt>
      <trkpt lat="38.127066" lon="-2.624617">
        <ele>1601.7</ele>
        <time>1989-12-30T23:59:59Z</time>
      </trkpt>
      <trkpt lat="38.126986" lon="-2.624551">
        <ele>1603.1</ele>
        <time>1989-12-30T23:59:59Z</time>
      </trkpt>
      <trkpt lat="38.126902" lon="-2.624498">
        <ele>1604.6</ele>
        <time>1989-12-30T23:59:59Z</time>
      </trkpt>
      <trkpt lat="38.126818" lon="-2.624456">
        <ele>1605.5</ele>
        <time>1989-12-30T23:59:59Z</time>
      </trkpt>
      <trkpt lat="38.126727" lon="-2.624404">
        <ele>1606.5</ele>
        <time>1989-12-30T23:59:59Z</time>
      </trkpt>
      <trkpt lat="38.126639" lon="-2.624372">
        <ele>1606.0</ele>
        <time>1989-12-30T23:59:59Z</time>
      </trkpt>
      <trkpt lat="38.126548" lon="-2.624285">
        <ele>1607.5</ele>
        <time>1989-12-30T23:59:59Z</time>
      </trkpt>
      <trkpt lat="38.126443" lon="-2.624218">
        <ele>1608.9</ele>
        <time>1989-12-30T23:59:59Z</time>
      </trkpt>
      <trkpt lat="38.126350" lon="-2.624178">
        <ele>1610.3</ele>
        <time>1989-12-30T23:59:59Z</time>
      </trkpt>
      <trkpt lat="38.126270" lon="-2.624116">
        <ele>1617.1</ele>
        <time>1989-12-30T23:59:59Z</time>
      </trkpt>
      <trkpt lat="38.126169" lon="-2.624124">
        <ele>1616.6</ele>
        <time>1989-12-30T23:59:59Z</time>
      </trkpt>
      <trkpt lat="38.126061" lon="-2.624136">
        <ele>1616.6</ele>
        <time>1989-12-30T23:59:59Z</time>
      </trkpt>
      <trkpt lat="38.125952" lon="-2.624141">
        <ele>1616.6</ele>
        <time>1989-12-30T23:59:59Z</time>
      </trkpt>
      <trkpt lat="38.125853" lon="-2.624156">
        <ele>1618.0</ele>
        <time>1989-12-30T23:59:59Z</time>
      </trkpt>
      <trkpt lat="38.125751" lon="-2.624164">
        <ele>1619.0</ele>
        <time>1989-12-30T23:59:59Z</time>
      </trkpt>
      <trkpt lat="38.125651" lon="-2.624167">
        <ele>1620.0</ele>
        <time>1989-12-30T23:59:59Z</time>
      </trkpt>
      <trkpt lat="38.125555" lon="-2.624157">
        <ele>1620.9</ele>
        <time>1989-12-30T23:59:59Z</time>
      </trkpt>
      <trkpt lat="38.125457" lon="-2.624141">
        <ele>1621.4</ele>
        <time>1989-12-30T23:59:59Z</time>
      </trkpt>
      <trkpt lat="38.125357" lon="-2.624114">
        <ele>1621.9</ele>
        <time>1989-12-30T23:59:59Z</time>
      </trkpt>
      <trkpt lat="38.125262" lon="-2.624096">
        <ele>1622.8</ele>
        <time>1989-12-30T23:59:59Z</time>
      </trkpt>
      <trkpt lat="38.125158" lon="-2.624086">
        <ele>1623.3</ele>
        <time>1989-12-30T23:59:59Z</time>
      </trkpt>
      <trkpt lat="38.125066" lon="-2.624085">
        <ele>1623.8</ele>
        <time>1989-12-30T23:59:59Z</time>
      </trkpt>
      <trkpt lat="38.124976" lon="-2.624077">
        <ele>1623.8</ele>
        <time>1989-12-30T23:59:59Z</time>
      </trkpt>
      <trkpt lat="38.124886" lon="-2.624068">
        <ele>1624.3</ele>
        <time>1989-12-30T23:59:59Z</time>
      </trkpt>
      <trkpt lat="38.124786" lon="-2.624037">
        <ele>1624.3</ele>
        <time>1989-12-30T23:59:59Z</time>
      </trkpt>
      <trkpt lat="38.124691" lon="-2.623989">
        <ele>1623.8</ele>
        <time>1989-12-30T23:59:59Z</time>
      </trkpt>
      <trkpt lat="38.124590" lon="-2.623963">
        <ele>1622.8</ele>
        <time>1989-12-30T23:59:59Z</time>
      </trkpt>
      <trkpt lat="38.124488" lon="-2.623976">
        <ele>1622.4</ele>
        <time>1989-12-30T23:59:59Z</time>
      </trkpt>
      <trkpt lat="38.124397" lon="-2.623985">
        <ele>1622.4</ele>
        <time>1989-12-30T23:59:59Z</time>
      </trkpt>
      <trkpt lat="38.124303" lon="-2.623974">
        <ele>1623.3</ele>
        <time>1989-12-30T23:59:59Z</time>
      </trkpt>
      <trkpt lat="38.124213" lon="-2.623954">
        <ele>1623.3</ele>
        <time>1989-12-30T23:59:59Z</time>
      </trkpt>
      <trkpt lat="38.124124" lon="-2.623930">
        <ele>1623.3</ele>
        <time>1989-12-30T23:59:59Z</time>
      </trkpt>
      <trkpt lat="38.124037" lon="-2.623903">
        <ele>1622.8</ele>
        <time>1989-12-30T23:59:59Z</time>
      </trkpt>
      <trkpt lat="38.123938" lon="-2.623862">
        <ele>1621.9</ele>
        <time>1989-12-30T23:59:59Z</time>
      </trkpt>
      <trkpt lat="38.123846" lon="-2.623818">
        <ele>1621.4</ele>
        <time>1989-12-30T23:59:59Z</time>
      </trkpt>
      <trkpt lat="38.123770" lon="-2.623754">
        <ele>1621.4</ele>
        <time>1989-12-30T23:59:59Z</time>
      </trkpt>
      <trkpt lat="38.123702" lon="-2.623679">
        <ele>1621.4</ele>
        <time>1989-12-30T23:59:59Z</time>
      </trkpt>
      <trkpt lat="38.123633" lon="-2.623605">
        <ele>1621.4</ele>
        <time>1989-12-30T23:59:59Z</time>
      </trkpt>
      <trkpt lat="38.123555" lon="-2.623524">
        <ele>1621.9</ele>
        <time>1989-12-30T23:59:59Z</time>
      </trkpt>
      <trkpt lat="38.123470" lon="-2.623473">
        <ele>1620.9</ele>
        <time>1989-12-30T23:59:59Z</time>
      </trkpt>
      <trkpt lat="38.123369" lon="-2.623440">
        <ele>1620.9</ele>
        <time>1989-12-30T23:59:59Z</time>
      </trkpt>
      <trkpt lat="38.123272" lon="-2.623418">
        <ele>1621.4</ele>
        <time>1989-12-30T23:59:59Z</time>
      </trkpt>
      <trkpt lat="38.123079" lon="-2.623425">
        <ele>1621.4</ele>
        <time>1989-12-30T23:59:59Z</time>
      </trkpt>
      <trkpt lat="38.122985" lon="-2.623435">
        <ele>1622.8</ele>
        <time>1989-12-30T23:59:59Z</time>
      </trkpt>
      <trkpt lat="38.122884" lon="-2.623461">
        <ele>1624.8</ele>
        <time>1989-12-30T23:59:59Z</time>
      </trkpt>
      <trkpt lat="38.122818" lon="-2.623470">
        <ele>1625.7</ele>
        <time>1989-12-30T23:59:59Z</time>
      </trkpt>
      <trkpt lat="38.122724" lon="-2.623448">
        <ele>1623.8</ele>
        <time>1989-12-30T23:59:59Z</time>
      </trkpt>
      <trkpt lat="38.122633" lon="-2.623433">
        <ele>1624.3</ele>
        <time>1989-12-30T23:59:59Z</time>
      </trkpt>
      <trkpt lat="38.122549" lon="-2.623386">
        <ele>1625.7</ele>
        <time>1989-12-30T23:59:59Z</time>
      </trkpt>
      <trkpt lat="38.122478" lon="-2.623316">
        <ele>1627.2</ele>
        <time>1989-12-30T23:59:59Z</time>
      </trkpt>
      <trkpt lat="38.122404" lon="-2.623238">
        <ele>1629.1</ele>
        <time>1989-12-30T23:59:59Z</time>
      </trkpt>
      <trkpt lat="38.122335" lon="-2.623159">
        <ele>1629.6</ele>
        <time>1989-12-30T23:59:59Z</time>
      </trkpt>
      <trkpt lat="38.122262" lon="-2.623075">
        <ele>1630.5</ele>
        <time>1989-12-30T23:59:59Z</time>
      </trkpt>
      <trkpt lat="38.122200" lon="-2.622987">
        <ele>1631.5</ele>
        <time>1989-12-30T23:59:59Z</time>
      </trkpt>
      <trkpt lat="38.122142" lon="-2.622890">
        <ele>1632.5</ele>
        <time>1989-12-30T23:59:59Z</time>
      </trkpt>
      <trkpt lat="38.122092" lon="-2.622794">
        <ele>1633.4</ele>
        <time>1989-12-30T23:59:59Z</time>
      </trkpt>
      <trkpt lat="38.122039" lon="-2.622686">
        <ele>1634.9</ele>
        <time>1989-12-30T23:59:59Z</time>
      </trkpt>
      <trkpt lat="38.121989" lon="-2.622579">
        <ele>1635.8</ele>
        <time>1989-12-30T23:59:59Z</time>
      </trkpt>
      <trkpt lat="38.121944" lon="-2.622480">
        <ele>1636.8</ele>
        <time>1989-12-30T23:59:59Z</time>
      </trkpt>
      <trkpt lat="38.121899" lon="-2.622379">
        <ele>1637.7</ele>
        <time>1989-12-30T23:59:59Z</time>
      </trkpt>
      <trkpt lat="38.121849" lon="-2.622294">
        <ele>1634.9</ele>
        <time>1989-12-30T23:59:59Z</time>
      </trkpt>
      <trkpt lat="38.121820" lon="-2.622206">
        <ele>1637.7</ele>
        <time>1989-12-30T23:59:59Z</time>
      </trkpt>
      <trkpt lat="38.121782" lon="-2.622085">
        <ele>1638.7</ele>
        <time>1989-12-30T23:59:59Z</time>
      </trkpt>
      <trkpt lat="38.121763" lon="-2.621960">
        <ele>1639.2</ele>
        <time>1989-12-30T23:59:59Z</time>
      </trkpt>
      <trkpt lat="38.121751" lon="-2.621837">
        <ele>1639.7</ele>
        <time>1989-12-30T23:59:59Z</time>
      </trkpt>
      <trkpt lat="38.121737" lon="-2.621715">
        <ele>1640.6</ele>
        <time>1989-12-30T23:59:59Z</time>
      </trkpt>
      <trkpt lat="38.121721" lon="-2.621591">
        <ele>1641.1</ele>
        <time>1989-12-30T23:59:59Z</time>
      </trkpt>
      <trkpt lat="38.121700" lon="-2.621471">
        <ele>1641.6</ele>
        <time>1989-12-30T23:59:59Z</time>
      </trkpt>
      <trkpt lat="38.121670" lon="-2.621345">
        <ele>1641.1</ele>
        <time>1989-12-30T23:59:59Z</time>
      </trkpt>
      <trkpt lat="38.121640" lon="-2.621220">
        <ele>1640.6</ele>
        <time>1989-12-30T23:59:59Z</time>
      </trkpt>
      <trkpt lat="38.121609" lon="-2.621096">
        <ele>1640.1</ele>
        <time>1989-12-30T23:59:59Z</time>
      </trkpt>
      <trkpt lat="38.121574" lon="-2.620969">
        <ele>1639.7</ele>
        <time>1989-12-30T23:59:59Z</time>
      </trkpt>
      <trkpt lat="38.121537" lon="-2.620847">
        <ele>1639.2</ele>
        <time>1989-12-30T23:59:59Z</time>
      </trkpt>
      <trkpt lat="38.121504" lon="-2.620721">
        <ele>1639.2</ele>
        <time>1989-12-30T23:59:59Z</time>
      </trkpt>
      <trkpt lat="38.121474" lon="-2.620604">
        <ele>1638.7</ele>
        <time>1989-12-30T23:59:59Z</time>
      </trkpt>
      <trkpt lat="38.121446" lon="-2.620467">
        <ele>1638.2</ele>
        <time>1989-12-30T23:59:59Z</time>
      </trkpt>
      <trkpt lat="38.121413" lon="-2.620345">
        <ele>1637.3</ele>
        <time>1989-12-30T23:59:59Z</time>
      </trkpt>
      <trkpt lat="38.121352" lon="-2.620237">
        <ele>1636.3</ele>
        <time>1989-12-30T23:59:59Z</time>
      </trkpt>
      <trkpt lat="38.121275" lon="-2.620148">
        <ele>1635.3</ele>
        <time>1989-12-30T23:59:59Z</time>
      </trkpt>
      <trkpt lat="38.121189" lon="-2.620082">
        <ele>1634.4</ele>
        <time>1989-12-30T23:59:59Z</time>
      </trkpt>
      <trkpt lat="38.121105" lon="-2.620005">
        <ele>1632.9</ele>
        <time>1989-12-30T23:59:59Z</time>
      </trkpt>
      <trkpt lat="38.121028" lon="-2.619916">
        <ele>1631.5</ele>
        <time>1989-12-30T23:59:59Z</time>
      </trkpt>
      <trkpt lat="38.120957" lon="-2.619824">
        <ele>1630.1</ele>
        <time>1989-12-30T23:59:59Z</time>
      </trkpt>
      <trkpt lat="38.120888" lon="-2.619724">
        <ele>1628.6</ele>
        <time>1989-12-30T23:59:59Z</time>
      </trkpt>
      <trkpt lat="38.120829" lon="-2.619618">
        <ele>1627.2</ele>
        <time>1989-12-30T23:59:59Z</time>
      </trkpt>
      <trkpt lat="38.120772" lon="-2.619513">
        <ele>1626.2</ele>
        <time>1989-12-30T23:59:59Z</time>
      </trkpt>
      <trkpt lat="38.120715" lon="-2.619406">
        <ele>1625.2</ele>
        <time>1989-12-30T23:59:59Z</time>
      </trkpt>
      <trkpt lat="38.120662" lon="-2.619289">
        <ele>1623.8</ele>
        <time>1989-12-30T23:59:59Z</time>
      </trkpt>
      <trkpt lat="38.120627" lon="-2.619168">
        <ele>1622.8</ele>
        <time>1989-12-30T23:59:59Z</time>
      </trkpt>
      <trkpt lat="38.120606" lon="-2.619042">
        <ele>1621.4</ele>
        <time>1989-12-30T23:59:59Z</time>
      </trkpt>
      <trkpt lat="38.120598" lon="-2.618929">
        <ele>1619.5</ele>
        <time>1989-12-30T23:59:59Z</time>
      </trkpt>
      <trkpt lat="38.120614" lon="-2.618799">
        <ele>1619.0</ele>
        <time>1989-12-30T23:59:59Z</time>
      </trkpt>
      <trkpt lat="38.120630" lon="-2.618685">
        <ele>1618.0</ele>
        <time>1989-12-30T23:59:59Z</time>
      </trkpt>
      <trkpt lat="38.120633" lon="-2.618570">
        <ele>1617.1</ele>
        <time>1989-12-30T23:59:59Z</time>
      </trkpt>
      <trkpt lat="38.120604" lon="-2.618461">
        <ele>1615.6</ele>
        <time>1989-12-30T23:59:59Z</time>
      </trkpt>
      <trkpt lat="38.120549" lon="-2.618353">
        <ele>1615.2</ele>
        <time>1989-12-30T23:59:59Z</time>
      </trkpt>
      <trkpt lat="38.120486" lon="-2.618268">
        <ele>1614.2</ele>
        <time>1989-12-30T23:59:59Z</time>
      </trkpt>
      <trkpt lat="38.120416" lon="-2.618177">
        <ele>1613.2</ele>
        <time>1989-12-30T23:59:59Z</time>
      </trkpt>
      <trkpt lat="38.120357" lon="-2.618105">
        <ele>1613.2</ele>
        <time>1989-12-30T23:59:59Z</time>
      </trkpt>
      <trkpt lat="38.120292" lon="-2.618011">
        <ele>1611.8</ele>
        <time>1989-12-30T23:59:59Z</time>
      </trkpt>
      <trkpt lat="38.120229" lon="-2.617918">
        <ele>1611.3</ele>
        <time>1989-12-30T23:59:59Z</time>
      </trkpt>
      <trkpt lat="38.120161" lon="-2.617819">
        <ele>1610.3</ele>
        <time>1989-12-30T23:59:59Z</time>
      </trkpt>
      <trkpt lat="38.120097" lon="-2.617730">
        <ele>1609.9</ele>
        <time>1989-12-30T23:59:59Z</time>
      </trkpt>
      <trkpt lat="38.120030" lon="-2.617637">
        <ele>1609.9</ele>
        <time>1989-12-30T23:59:59Z</time>
      </trkpt>
      <trkpt lat="38.119965" lon="-2.617546">
        <ele>1608.9</ele>
        <time>1989-12-30T23:59:59Z</time>
      </trkpt>
      <trkpt lat="38.119895" lon="-2.617452">
        <ele>1607.9</ele>
        <time>1989-12-30T23:59:59Z</time>
      </trkpt>
      <trkpt lat="38.119826" lon="-2.617363">
        <ele>1607.5</ele>
        <time>1989-12-30T23:59:59Z</time>
      </trkpt>
      <trkpt lat="38.119761" lon="-2.617279">
        <ele>1607.0</ele>
        <time>1989-12-30T23:59:59Z</time>
      </trkpt>
      <trkpt lat="38.119699" lon="-2.617194">
        <ele>1606.5</ele>
        <time>1989-12-30T23:59:59Z</time>
      </trkpt>
      <trkpt lat="38.119638" lon="-2.617101">
        <ele>1606.5</ele>
        <time>1989-12-30T23:59:59Z</time>
      </trkpt>
      <trkpt lat="38.119581" lon="-2.617011">
        <ele>1606.0</ele>
        <time>1989-12-30T23:59:59Z</time>
      </trkpt>
      <trkpt lat="38.119523" lon="-2.616908">
        <ele>1605.5</ele>
        <time>1989-12-30T23:59:59Z</time>
      </trkpt>
      <trkpt lat="38.119471" lon="-2.616811">
        <ele>1605.1</ele>
        <time>1989-12-30T23:59:59Z</time>
      </trkpt>
      <trkpt lat="38.119423" lon="-2.616732">
        <ele>1605.1</ele>
        <time>1989-12-30T23:59:59Z</time>
      </trkpt>
      <trkpt lat="38.119369" lon="-2.616616">
        <ele>1606.0</ele>
        <time>1989-12-30T23:59:59Z</time>
      </trkpt>
      <trkpt lat="38.119327" lon="-2.616509">
        <ele>1605.5</ele>
        <time>1989-12-30T23:59:59Z</time>
      </trkpt>
      <trkpt lat="38.119285" lon="-2.616405">
        <ele>1604.6</ele>
        <time>1989-12-30T23:59:59Z</time>
      </trkpt>
      <trkpt lat="38.119246" lon="-2.616292">
        <ele>1603.1</ele>
        <time>1989-12-30T23:59:59Z</time>
      </trkpt>
      <trkpt lat="38.119213" lon="-2.616177">
        <ele>1602.7</ele>
        <time>1989-12-30T23:59:59Z</time>
      </trkpt>
      <trkpt lat="38.119208" lon="-2.616054">
        <ele>1601.7</ele>
        <time>1989-12-30T23:59:59Z</time>
      </trkpt>
      <trkpt lat="38.119233" lon="-2.615954">
        <ele>1600.7</ele>
        <time>1989-12-30T23:59:59Z</time>
      </trkpt>
      <trkpt lat="38.119263" lon="-2.615852">
        <ele>1598.8</ele>
        <time>1989-12-30T23:59:59Z</time>
      </trkpt>
      <trkpt lat="38.119296" lon="-2.615737">
        <ele>1597.4</ele>
        <time>1989-12-30T23:59:59Z</time>
      </trkpt>
      <trkpt lat="38.119328" lon="-2.615628">
        <ele>1595.9</ele>
        <time>1989-12-30T23:59:59Z</time>
      </trkpt>
      <trkpt lat="38.119359" lon="-2.615519">
        <ele>1595.0</ele>
        <time>1989-12-30T23:59:59Z</time>
      </trkpt>
      <trkpt lat="38.119386" lon="-2.615402">
        <ele>1593.5</ele>
        <time>1989-12-30T23:59:59Z</time>
      </trkpt>
      <trkpt lat="38.119369" lon="-2.615272">
        <ele>1593.0</ele>
        <time>1989-12-30T23:59:59Z</time>
      </trkpt>
      <trkpt lat="38.119339" lon="-2.615163">
        <ele>1591.6</ele>
        <time>1989-12-30T23:59:59Z</time>
      </trkpt>
      <trkpt lat="38.119293" lon="-2.615060">
        <ele>1589.7</ele>
        <time>1989-12-30T23:59:59Z</time>
      </trkpt>
      <trkpt lat="38.119235" lon="-2.614966">
        <ele>1589.2</ele>
        <time>1989-12-30T23:59:59Z</time>
      </trkpt>
      <trkpt lat="38.119176" lon="-2.614875">
        <ele>1588.7</ele>
        <time>1989-12-30T23:59:59Z</time>
      </trkpt>
      <trkpt lat="38.119117" lon="-2.614783">
        <ele>1587.3</ele>
        <time>1989-12-30T23:59:59Z</time>
      </trkpt>
      <trkpt lat="38.119083" lon="-2.614672">
        <ele>1586.3</ele>
        <time>1989-12-30T23:59:59Z</time>
      </trkpt>
      <trkpt lat="38.119091" lon="-2.614553">
        <ele>1585.4</ele>
        <time>1989-12-30T23:59:59Z</time>
      </trkpt>
      <trkpt lat="38.119106" lon="-2.614435">
        <ele>1584.4</ele>
        <time>1989-12-30T23:59:59Z</time>
      </trkpt>
      <trkpt lat="38.119063" lon="-2.614334">
        <ele>1582.5</ele>
        <time>1989-12-30T23:59:59Z</time>
      </trkpt>
      <trkpt lat="38.118987" lon="-2.614263">
        <ele>1581.0</ele>
        <time>1989-12-30T23:59:59Z</time>
      </trkpt>
      <trkpt lat="38.118907" lon="-2.614199">
        <ele>1579.6</ele>
        <time>1989-12-30T23:59:59Z</time>
      </trkpt>
      <trkpt lat="38.118827" lon="-2.614140">
        <ele>1577.7</ele>
        <time>1989-12-30T23:59:59Z</time>
      </trkpt>
      <trkpt lat="38.118747" lon="-2.614082">
        <ele>1576.2</ele>
        <time>1989-12-30T23:59:59Z</time>
      </trkpt>
      <trkpt lat="38.118663" lon="-2.614024">
        <ele>1575.3</ele>
        <time>1989-12-30T23:59:59Z</time>
      </trkpt>
      <trkpt lat="38.118586" lon="-2.613964">
        <ele>1575.3</ele>
        <time>1989-12-30T23:59:59Z</time>
      </trkpt>
      <trkpt lat="38.118517" lon="-2.613892">
        <ele>1574.8</ele>
        <time>1989-12-30T23:59:59Z</time>
      </trkpt>
      <trkpt lat="38.118449" lon="-2.613810">
        <ele>1574.3</ele>
        <time>1989-12-30T23:59:59Z</time>
      </trkpt>
      <trkpt lat="38.118379" lon="-2.613722">
        <ele>1573.8</ele>
        <time>1989-12-30T23:59:59Z</time>
      </trkpt>
      <trkpt lat="38.118311" lon="-2.613630">
        <ele>1573.3</ele>
        <time>1989-12-30T23:59:59Z</time>
      </trkpt>
      <trkpt lat="38.118246" lon="-2.613537">
        <ele>1572.9</ele>
        <time>1989-12-30T23:59:59Z</time>
      </trkpt>
      <trkpt lat="38.118181" lon="-2.613443">
        <ele>1572.9</ele>
        <time>1989-12-30T23:59:59Z</time>
      </trkpt>
      <trkpt lat="38.118122" lon="-2.613353">
        <ele>1572.4</ele>
        <time>1989-12-30T23:59:59Z</time>
      </trkpt>
      <trkpt lat="38.118067" lon="-2.613265">
        <ele>1574.3</ele>
        <time>1989-12-30T23:59:59Z</time>
      </trkpt>
      <trkpt lat="38.118019" lon="-2.613160">
        <ele>1573.3</ele>
        <time>1989-12-30T23:59:59Z</time>
      </trkpt>
      <trkpt lat="38.117983" lon="-2.613043">
        <ele>1572.9</ele>
        <time>1989-12-30T23:59:59Z</time>
      </trkpt>
      <trkpt lat="38.117954" lon="-2.612931">
        <ele>1571.9</ele>
        <time>1989-12-30T23:59:59Z</time>
      </trkpt>
      <trkpt lat="38.117926" lon="-2.612824">
        <ele>1571.9</ele>
        <time>1989-12-30T23:59:59Z</time>
      </trkpt>
      <trkpt lat="38.117899" lon="-2.612751">
        <ele>1573.3</ele>
        <time>1989-12-30T23:59:59Z</time>
      </trkpt>
      <trkpt lat="38.117867" lon="-2.612650">
        <ele>1571.9</ele>
        <time>1989-12-30T23:59:59Z</time>
      </trkpt>
      <trkpt lat="38.117814" lon="-2.612484">
        <ele>1571.9</ele>
        <time>1989-12-30T23:59:59Z</time>
      </trkpt>
      <trkpt lat="38.117836" lon="-2.612358">
        <ele>1570.0</ele>
        <time>1989-12-30T23:59:59Z</time>
      </trkpt>
      <trkpt lat="38.117866" lon="-2.612234">
        <ele>1570.5</ele>
        <time>1989-12-30T23:59:59Z</time>
      </trkpt>
      <trkpt lat="38.117901" lon="-2.612117">
        <ele>1570.0</ele>
        <time>1989-12-30T23:59:59Z</time>
      </trkpt>
      <trkpt lat="38.117940" lon="-2.611994">
        <ele>1570.5</ele>
        <time>1989-12-30T23:59:59Z</time>
      </trkpt>
      <trkpt lat="38.117970" lon="-2.611844">
        <ele>1575.7</ele>
        <time>1989-12-30T23:59:59Z</time>
      </trkpt>
      <trkpt lat="38.118025" lon="-2.611773">
        <ele>1573.8</ele>
        <time>1989-12-30T23:59:59Z</time>
      </trkpt>
      <trkpt lat="38.118063" lon="-2.611663">
        <ele>1572.9</ele>
        <time>1989-12-30T23:59:59Z</time>
      </trkpt>
      <trkpt lat="38.118101" lon="-2.611559">
        <ele>1573.3</ele>
        <time>1989-12-30T23:59:59Z</time>
      </trkpt>
      <trkpt lat="38.118142" lon="-2.611444">
        <ele>1571.9</ele>
        <time>1989-12-30T23:59:59Z</time>
      </trkpt>
      <trkpt lat="38.118201" lon="-2.611328">
        <ele>1570.5</ele>
        <time>1989-12-30T23:59:59Z</time>
      </trkpt>
      <trkpt lat="38.118258" lon="-2.611231">
        <ele>1566.6</ele>
        <time>1989-12-30T23:59:59Z</time>
      </trkpt>
      <trkpt lat="38.118259" lon="-2.611177">
        <ele>1568.0</ele>
        <time>1989-12-30T23:59:59Z</time>
      </trkpt>
      <trkpt lat="38.118285" lon="-2.611046">
        <ele>1570.0</ele>
        <time>1989-12-30T23:59:59Z</time>
      </trkpt>
      <trkpt lat="38.118364" lon="-2.610317">
        <ele>1568.5</ele>
        <time>1989-12-30T23:59:59Z</time>
      </trkpt>
      <trkpt lat="38.118361" lon="-2.609846">
        <ele>1567.6</ele>
        <time>1989-12-30T23:59:59Z</time>
      </trkpt>
      <trkpt lat="38.118334" lon="-2.609689">
        <ele>1576.2</ele>
        <time>1989-12-30T23:59:59Z</time>
      </trkpt>
      <trkpt lat="38.118331" lon="-2.609471">
        <ele>1571.4</ele>
        <time>1989-12-30T23:59:59Z</time>
      </trkpt>
      <trkpt lat="38.118292" lon="-2.609386">
        <ele>1566.1</ele>
        <time>1989-12-30T23:59:59Z</time>
      </trkpt>
      <trkpt lat="38.118306" lon="-2.609147">
        <ele>1565.6</ele>
        <time>1989-12-30T23:59:59Z</time>
      </trkpt>
      <trkpt lat="38.118296" lon="-2.608895">
        <ele>1570.5</ele>
        <time>1989-12-30T23:59:59Z</time>
      </trkpt>
      <trkpt lat="38.118418" lon="-2.608322">
        <ele>1567.6</ele>
        <time>1989-12-30T23:59:59Z</time>
      </trkpt>
      <trkpt lat="38.118496" lon="-2.608083">
        <ele>1570.0</ele>
        <time>1989-12-30T23:59:59Z</time>
      </trkpt>
      <trkpt lat="38.118550" lon="-2.607736">
        <ele>1567.1</ele>
        <time>1989-12-30T23:59:59Z</time>
      </trkpt>
      <trkpt lat="38.118603" lon="-2.607506">
        <ele>1569.5</ele>
        <time>1989-12-30T23:59:59Z</time>
      </trkpt>
      <trkpt lat="38.118876" lon="-2.606630">
        <ele>1570.0</ele>
        <time>1989-12-30T23:59:59Z</time>
      </trkpt>
      <trkpt lat="38.118926" lon="-2.606410">
        <ele>1573.8</ele>
        <time>1989-12-30T23:59:59Z</time>
      </trkpt>
      <trkpt lat="38.119007" lon="-2.605962">
        <ele>1575.7</ele>
        <time>1989-12-30T23:59:59Z</time>
      </trkpt>
      <trkpt lat="38.119044" lon="-2.605862">
        <ele>1573.3</ele>
        <time>1989-12-30T23:59:59Z</time>
      </trkpt>
      <trkpt lat="38.119076" lon="-2.605656">
        <ele>1574.8</ele>
        <time>1989-12-30T23:59:59Z</time>
      </trkpt>
      <trkpt lat="38.119182" lon="-2.605346">
        <ele>1577.2</ele>
        <time>1989-12-30T23:59:59Z</time>
      </trkpt>
      <trkpt lat="38.119242" lon="-2.605039">
        <ele>1582.0</ele>
        <time>1989-12-30T23:59:59Z</time>
      </trkpt>
      <trkpt lat="38.119242" lon="-2.604846">
        <ele>1584.9</ele>
        <time>1989-12-30T23:59:59Z</time>
      </trkpt>
      <trkpt lat="38.119220" lon="-2.604745">
        <ele>1585.4</ele>
        <time>1989-12-30T23:59:59Z</time>
      </trkpt>
      <trkpt lat="38.119388" lon="-2.604338">
        <ele>1591.6</ele>
        <time>1989-12-30T23:59:59Z</time>
      </trkpt>
      <trkpt lat="38.119394" lon="-2.604234">
        <ele>1595.4</ele>
        <time>1989-12-30T23:59:59Z</time>
      </trkpt>
      <trkpt lat="38.119477" lon="-2.603779">
        <ele>1597.8</ele>
        <time>1989-12-30T23:59:59Z</time>
      </trkpt>
      <trkpt lat="38.119490" lon="-2.603662">
        <ele>1598.8</ele>
        <time>1989-12-30T23:59:59Z</time>
      </trkpt>
      <trkpt lat="38.119437" lon="-2.603450">
        <ele>1600.7</ele>
        <time>1989-12-30T23:59:59Z</time>
      </trkpt>
      <trkpt lat="38.119354" lon="-2.603473">
        <ele>1602.2</ele>
        <time>1989-12-30T23:59:59Z</time>
      </trkpt>
      <trkpt lat="38.119176" lon="-2.603407">
        <ele>1605.1</ele>
        <time>1989-12-30T23:59:59Z</time>
      </trkpt>
      <trkpt lat="38.119167" lon="-2.603332">
        <ele>1607.5</ele>
        <time>1989-12-30T23:59:59Z</time>
      </trkpt>
      <trkpt lat="38.119215" lon="-2.603235">
        <ele>1607.0</ele>
        <time>1989-12-30T23:59:59Z</time>
      </trkpt>
      <trkpt lat="38.119487" lon="-2.602892">
        <ele>1605.5</ele>
        <time>1989-12-30T23:59:59Z</time>
      </trkpt>
      <trkpt lat="38.119723" lon="-2.602681">
        <ele>1602.2</ele>
        <time>1989-12-30T23:59:59Z</time>
      </trkpt>
      <trkpt lat="38.120100" lon="-2.602360">
        <ele>1601.2</ele>
        <time>1989-12-30T23:59:59Z</time>
      </trkpt>
      <trkpt lat="38.120371" lon="-2.602031">
        <ele>1600.7</ele>
        <time>1989-12-30T23:59:59Z</time>
      </trkpt>
      <trkpt lat="38.120526" lon="-2.601730">
        <ele>1600.7</ele>
        <time>1989-12-30T23:59:59Z</time>
      </trkpt>
      <trkpt lat="38.120636" lon="-2.601395">
        <ele>1598.8</ele>
        <time>1989-12-30T23:59:59Z</time>
      </trkpt>
      <trkpt lat="38.120714" lon="-2.601063">
        <ele>1597.8</ele>
        <time>1989-12-30T23:59:59Z</time>
      </trkpt>
      <trkpt lat="38.120861" lon="-2.600750">
        <ele>1595.9</ele>
        <time>1989-12-30T23:59:59Z</time>
      </trkpt>
      <trkpt lat="38.120935" lon="-2.600524">
        <ele>1597.4</ele>
        <time>1989-12-30T23:59:59Z</time>
      </trkpt>
      <trkpt lat="38.120982" lon="-2.600414">
        <ele>1596.4</ele>
        <time>1989-12-30T23:59:59Z</time>
      </trkpt>
      <trkpt lat="38.121362" lon="-2.599931">
        <ele>1595.0</ele>
        <time>1989-12-30T23:59:59Z</time>
      </trkpt>
      <trkpt lat="38.121675" lon="-2.599680">
        <ele>1595.4</ele>
        <time>1989-12-30T23:59:59Z</time>
      </trkpt>
      <trkpt lat="38.121942" lon="-2.599348">
        <ele>1594.5</ele>
        <time>1989-12-30T23:59:59Z</time>
      </trkpt>
      <trkpt lat="38.122133" lon="-2.599092">
        <ele>1596.9</ele>
        <time>1989-12-30T23:59:59Z</time>
      </trkpt>
      <trkpt lat="38.122286" lon="-2.598797">
        <ele>1598.3</ele>
        <time>1989-12-30T23:59:59Z</time>
      </trkpt>
      <trkpt lat="38.122403" lon="-2.598335">
        <ele>1598.3</ele>
        <time>1989-12-30T23:59:59Z</time>
      </trkpt>
      <trkpt lat="38.122511" lon="-2.598134">
        <ele>1597.4</ele>
        <time>1989-12-30T23:59:59Z</time>
      </trkpt>
      <trkpt lat="38.122642" lon="-2.597938">
        <ele>1599.3</ele>
        <time>1989-12-30T23:59:59Z</time>
      </trkpt>
      <trkpt lat="38.122796" lon="-2.597817">
        <ele>1599.8</ele>
        <time>1989-12-30T23:59:59Z</time>
      </trkpt>
      <trkpt lat="38.122883" lon="-2.597762">
        <ele>1603.6</ele>
        <time>1989-12-30T23:59:59Z</time>
      </trkpt>
      <trkpt lat="38.122971" lon="-2.597715">
        <ele>1601.7</ele>
        <time>1989-12-30T23:59:59Z</time>
      </trkpt>
      <trkpt lat="38.123130" lon="-2.597602">
        <ele>1597.8</ele>
        <time>1989-12-30T23:59:59Z</time>
      </trkpt>
      <trkpt lat="38.123456" lon="-2.597188">
        <ele>1591.6</ele>
        <time>1989-12-30T23:59:59Z</time>
      </trkpt>
      <trkpt lat="38.123856" lon="-2.596890">
        <ele>1583.4</ele>
        <time>1989-12-30T23:59:59Z</time>
      </trkpt>
      <trkpt lat="38.123913" lon="-2.596798">
        <ele>1582.9</ele>
        <time>1989-12-30T23:59:59Z</time>
      </trkpt>
      <trkpt lat="38.123916" lon="-2.596674">
        <ele>1584.4</ele>
        <time>1989-12-30T23:59:59Z</time>
      </trkpt>
      <trkpt lat="38.123879" lon="-2.596582">
        <ele>1582.5</ele>
        <time>1989-12-30T23:59:59Z</time>
      </trkpt>
      <trkpt lat="38.123809" lon="-2.596510">
        <ele>1581.5</ele>
        <time>1989-12-30T23:59:59Z</time>
      </trkpt>
      <trkpt lat="38.123709" lon="-2.596379">
        <ele>1582.9</ele>
        <time>1989-12-30T23:59:59Z</time>
      </trkpt>
      <trkpt lat="38.123909" lon="-2.596374">
        <ele>1586.3</ele>
        <time>1989-12-30T23:59:59Z</time>
      </trkpt>
      <trkpt lat="38.124092" lon="-2.596309">
        <ele>1584.9</ele>
        <time>1989-12-30T23:59:59Z</time>
      </trkpt>
      <trkpt lat="38.124265" lon="-2.596186">
        <ele>1585.8</ele>
        <time>1989-12-30T23:59:59Z</time>
      </trkpt>
      <trkpt lat="38.124544" lon="-2.595871">
        <ele>1582.5</ele>
        <time>1989-12-30T23:59:59Z</time>
      </trkpt>
      <trkpt lat="38.124892" lon="-2.595421">
        <ele>1582.5</ele>
        <time>1989-12-30T23:59:59Z</time>
      </trkpt>
      <trkpt lat="38.125157" lon="-2.595112">
        <ele>1579.6</ele>
        <time>1989-12-30T23:59:59Z</time>
      </trkpt>
      <trkpt lat="38.125324" lon="-2.595032">
        <ele>1581.5</ele>
        <time>1989-12-30T23:59:59Z</time>
      </trkpt>
      <trkpt lat="38.125614" lon="-2.594975">
        <ele>1579.6</ele>
        <time>1989-12-30T23:59:59Z</time>
      </trkpt>
      <trkpt lat="38.125896" lon="-2.594854">
        <ele>1578.6</ele>
        <time>1989-12-30T23:59:59Z</time>
      </trkpt>
      <trkpt lat="38.126167" lon="-2.594712">
        <ele>1578.1</ele>
        <time>1989-12-30T23:59:59Z</time>
      </trkpt>
      <trkpt lat="38.126423" lon="-2.594543">
        <ele>1578.1</ele>
        <time>1989-12-30T23:59:59Z</time>
      </trkpt>
      <trkpt lat="38.126727" lon="-2.594245">
        <ele>1579.1</ele>
        <time>1989-12-30T23:59:59Z</time>
      </trkpt>
      <trkpt lat="38.127061" lon="-2.593825">
        <ele>1579.1</ele>
        <time>1989-12-30T23:59:59Z</time>
      </trkpt>
      <trkpt lat="38.127452" lon="-2.593485">
        <ele>1582.5</ele>
        <time>1989-12-30T23:59:59Z</time>
      </trkpt>
      <trkpt lat="38.127549" lon="-2.593279">
        <ele>1582.9</ele>
        <time>1989-12-30T23:59:59Z</time>
      </trkpt>
      <trkpt lat="38.127651" lon="-2.592944">
        <ele>1582.5</ele>
        <time>1989-12-30T23:59:59Z</time>
      </trkpt>
      <trkpt lat="38.127712" lon="-2.592859">
        <ele>1582.5</ele>
        <time>1989-12-30T23:59:59Z</time>
      </trkpt>
      <trkpt lat="38.128023" lon="-2.592598">
        <ele>1583.9</ele>
        <time>1989-12-30T23:59:59Z</time>
      </trkpt>
      <trkpt lat="38.128230" lon="-2.592337">
        <ele>1583.9</ele>
        <time>1989-12-30T23:59:59Z</time>
      </trkpt>
      <trkpt lat="38.128382" lon="-2.592172">
        <ele>1582.5</ele>
        <time>1989-12-30T23:59:59Z</time>
      </trkpt>
      <trkpt lat="38.128597" lon="-2.591954">
        <ele>1584.4</ele>
        <time>1989-12-30T23:59:59Z</time>
      </trkpt>
      <trkpt lat="38.128673" lon="-2.591892">
        <ele>1582.5</ele>
        <time>1989-12-30T23:59:59Z</time>
      </trkpt>
      <trkpt lat="38.128756" lon="-2.591819">
        <ele>1586.3</ele>
        <time>1989-12-30T23:59:59Z</time>
      </trkpt>
      <trkpt lat="38.128829" lon="-2.591772">
        <ele>1583.9</ele>
        <time>1989-12-30T23:59:59Z</time>
      </trkpt>
      <trkpt lat="38.128854" lon="-2.591699">
        <ele>1583.4</ele>
        <time>1989-12-30T23:59:59Z</time>
      </trkpt>
      <trkpt lat="38.129095" lon="-2.591525">
        <ele>1582.5</ele>
        <time>1989-12-30T23:59:59Z</time>
      </trkpt>
      <trkpt lat="38.129135" lon="-2.591461">
        <ele>1583.4</ele>
        <time>1989-12-30T23:59:59Z</time>
      </trkpt>
      <trkpt lat="38.129545" lon="-2.591213">
        <ele>1581.5</ele>
        <time>1989-12-30T23:59:59Z</time>
      </trkpt>
      <trkpt lat="38.129590" lon="-2.591125">
        <ele>1582.0</ele>
        <time>1989-12-30T23:59:59Z</time>
      </trkpt>
      <trkpt lat="38.129978" lon="-2.590986">
        <ele>1581.0</ele>
        <time>1989-12-30T23:59:59Z</time>
      </trkpt>
      <trkpt lat="38.130349" lon="-2.590935">
        <ele>1580.1</ele>
        <time>1989-12-30T23:59:59Z</time>
      </trkpt>
      <trkpt lat="38.130439" lon="-2.590898">
        <ele>1580.5</ele>
        <time>1989-12-30T23:59:59Z</time>
      </trkpt>
      <trkpt lat="38.130584" lon="-2.590739">
        <ele>1578.6</ele>
        <time>1989-12-30T23:59:59Z</time>
      </trkpt>
      <trkpt lat="38.130825" lon="-2.590364">
        <ele>1576.7</ele>
        <time>1989-12-30T23:59:59Z</time>
      </trkpt>
      <trkpt lat="38.130986" lon="-2.590243">
        <ele>1577.2</ele>
        <time>1989-12-30T23:59:59Z</time>
      </trkpt>
      <trkpt lat="38.131338" lon="-2.590127">
        <ele>1577.7</ele>
        <time>1989-12-30T23:59:59Z</time>
      </trkpt>
      <trkpt lat="38.131799" lon="-2.590121">
        <ele>1576.7</ele>
        <time>1989-12-30T23:59:59Z</time>
      </trkpt>
      <trkpt lat="38.132075" lon="-2.590022">
        <ele>1576.7</ele>
        <time>1989-12-30T23:59:59Z</time>
      </trkpt>
      <trkpt lat="38.132250" lon="-2.589911">
        <ele>1577.2</ele>
        <time>1989-12-30T23:59:59Z</time>
      </trkpt>
      <trkpt lat="38.132483" lon="-2.589692">
        <ele>1578.6</ele>
        <time>1989-12-30T23:59:59Z</time>
      </trkpt>
      <trkpt lat="38.132665" lon="-2.589422">
        <ele>1576.7</ele>
        <time>1989-12-30T23:59:59Z</time>
      </trkpt>
      <trkpt lat="38.132836" lon="-2.589014">
        <ele>1577.2</ele>
        <time>1989-12-30T23:59:59Z</time>
      </trkpt>
      <trkpt lat="38.132912" lon="-2.588674">
        <ele>1575.3</ele>
        <time>1989-12-30T23:59:59Z</time>
      </trkpt>
      <trkpt lat="38.132969" lon="-2.588453">
        <ele>1578.6</ele>
        <time>1989-12-30T23:59:59Z</time>
      </trkpt>
      <trkpt lat="38.133044" lon="-2.588238">
        <ele>1577.7</ele>
        <time>1989-12-30T23:59:59Z</time>
      </trkpt>
      <trkpt lat="38.133046" lon="-2.588165">
        <ele>1577.2</ele>
        <time>1989-12-30T23:59:59Z</time>
      </trkpt>
      <trkpt lat="38.133073" lon="-2.588104">
        <ele>1574.3</ele>
        <time>1989-12-30T23:59:59Z</time>
      </trkpt>
      <trkpt lat="38.133634" lon="-2.586952">
        <ele>1570.9</ele>
        <time>1989-12-30T23:59:59Z</time>
      </trkpt>
      <trkpt lat="38.133895" lon="-2.586451">
        <ele>1568.5</ele>
        <time>1989-12-30T23:59:59Z</time>
      </trkpt>
      <trkpt lat="38.134123" lon="-2.586077">
        <ele>1566.6</ele>
        <time>1989-12-30T23:59:59Z</time>
      </trkpt>
      <trkpt lat="38.134558" lon="-2.585832">
        <ele>1569.0</ele>
        <time>1989-12-30T23:59:59Z</time>
      </trkpt>
      <trkpt lat="38.135013" lon="-2.585634">
        <ele>1569.5</ele>
        <time>1989-12-30T23:59:59Z</time>
      </trkpt>
      <trkpt lat="38.136100" lon="-2.585089">
        <ele>1566.1</ele>
        <time>1989-12-30T23:59:59Z</time>
      </trkpt>
      <trkpt lat="38.136144" lon="-2.585007">
        <ele>1561.8</ele>
        <time>1989-12-30T23:59:59Z</time>
      </trkpt>
      <trkpt lat="38.136329" lon="-2.584957">
        <ele>1560.4</ele>
        <time>1989-12-30T23:59:59Z</time>
      </trkpt>
      <trkpt lat="38.136405" lon="-2.584953">
        <ele>1561.8</ele>
        <time>1989-12-30T23:59:59Z</time>
      </trkpt>
      <trkpt lat="38.136495" lon="-2.584975">
        <ele>1561.3</ele>
        <time>1989-12-30T23:59:59Z</time>
      </trkpt>
      <trkpt lat="38.136625" lon="-2.585154">
        <ele>1560.8</ele>
        <time>1989-12-30T23:59:59Z</time>
      </trkpt>
      <trkpt lat="38.136812" lon="-2.586217">
        <ele>1558.0</ele>
        <time>1989-12-30T23:59:59Z</time>
      </trkpt>
      <trkpt lat="38.136877" lon="-2.586456">
        <ele>1556.5</ele>
        <time>1989-12-30T23:59:59Z</time>
      </trkpt>
      <trkpt lat="38.136929" lon="-2.586563">
        <ele>1555.6</ele>
        <time>1989-12-30T23:59:59Z</time>
      </trkpt>
      <trkpt lat="38.137134" lon="-2.586835">
        <ele>1553.1</ele>
        <time>1989-12-30T23:59:59Z</time>
      </trkpt>
      <trkpt lat="38.137416" lon="-2.587146">
        <ele>1552.2</ele>
        <time>1989-12-30T23:59:59Z</time>
      </trkpt>
      <trkpt lat="38.137585" lon="-2.587274">
        <ele>1555.1</ele>
        <time>1989-12-30T23:59:59Z</time>
      </trkpt>
      <trkpt lat="38.138066" lon="-2.587654">
        <ele>1552.2</ele>
        <time>1989-12-30T23:59:59Z</time>
      </trkpt>
      <trkpt lat="38.138290" lon="-2.588057">
        <ele>1551.7</ele>
        <time>1989-12-30T23:59:59Z</time>
      </trkpt>
      <trkpt lat="38.138444" lon="-2.588205">
        <ele>1551.7</ele>
        <time>1989-12-30T23:59:59Z</time>
      </trkpt>
      <trkpt lat="38.138628" lon="-2.588273">
        <ele>1552.7</ele>
        <time>1989-12-30T23:59:59Z</time>
      </trkpt>
      <trkpt lat="38.138811" lon="-2.588295">
        <ele>1552.2</ele>
        <time>1989-12-30T23:59:59Z</time>
      </trkpt>
      <trkpt lat="38.139385" lon="-2.588296">
        <ele>1550.3</ele>
        <time>1989-12-30T23:59:59Z</time>
      </trkpt>
      <trkpt lat="38.139302" lon="-2.588298">
        <ele>1548.8</ele>
        <time>1989-12-30T23:59:59Z</time>
      </trkpt>
      <trkpt lat="38.139515" lon="-2.588278">
        <ele>1548.3</ele>
        <time>1989-12-30T23:59:59Z</time>
      </trkpt>
      <trkpt lat="38.139907" lon="-2.588282">
        <ele>1550.7</ele>
        <time>1989-12-30T23:59:59Z</time>
      </trkpt>
      <trkpt lat="38.140100" lon="-2.588305">
        <ele>1552.2</ele>
        <time>1989-12-30T23:59:59Z</time>
      </trkpt>
      <trkpt lat="38.140283" lon="-2.588386">
        <ele>1552.7</ele>
        <time>1989-12-30T23:59:59Z</time>
      </trkpt>
      <trkpt lat="38.140776" lon="-2.588781">
        <ele>1548.8</ele>
        <time>1989-12-30T23:59:59Z</time>
      </trkpt>
      <trkpt lat="38.140956" lon="-2.588856">
        <ele>1547.4</ele>
        <time>1989-12-30T23:59:59Z</time>
      </trkpt>
      <trkpt lat="38.141132" lon="-2.588839">
        <ele>1546.4</ele>
        <time>1989-12-30T23:59:59Z</time>
      </trkpt>
      <trkpt lat="38.141233" lon="-2.588813">
        <ele>1548.8</ele>
        <time>1989-12-30T23:59:59Z</time>
      </trkpt>
      <trkpt lat="38.141421" lon="-2.588719">
        <ele>1545.5</ele>
        <time>1989-12-30T23:59:59Z</time>
      </trkpt>
      <trkpt lat="38.141884" lon="-2.588616">
        <ele>1538.7</ele>
        <time>1989-12-30T23:59:59Z</time>
      </trkpt>
      <trkpt lat="38.142039" lon="-2.588474">
        <ele>1537.3</ele>
        <time>1989-12-30T23:59:59Z</time>
      </trkpt>
      <trkpt lat="38.142210" lon="-2.588366">
        <ele>1536.3</ele>
        <time>1989-12-30T23:59:59Z</time>
      </trkpt>
      <trkpt lat="38.142395" lon="-2.588313">
        <ele>1535.4</ele>
        <time>1989-12-30T23:59:59Z</time>
      </trkpt>
      <trkpt lat="38.142578" lon="-2.588378">
        <ele>1533.0</ele>
        <time>1989-12-30T23:59:59Z</time>
      </trkpt>
      <trkpt lat="38.142661" lon="-2.588428">
        <ele>1535.4</ele>
        <time>1989-12-30T23:59:59Z</time>
      </trkpt>
      <trkpt lat="38.142826" lon="-2.588560">
        <ele>1533.0</ele>
        <time>1989-12-30T23:59:59Z</time>
      </trkpt>
      <trkpt lat="38.142980" lon="-2.588717">
        <ele>1531.0</ele>
        <time>1989-12-30T23:59:59Z</time>
      </trkpt>
      <trkpt lat="38.143153" lon="-2.588838">
        <ele>1527.7</ele>
        <time>1989-12-30T23:59:59Z</time>
      </trkpt>
      <trkpt lat="38.143340" lon="-2.588917">
        <ele>1527.7</ele>
        <time>1989-12-30T23:59:59Z</time>
      </trkpt>
      <trkpt lat="38.143435" lon="-2.588937">
        <ele>1528.2</ele>
        <time>1989-12-30T23:59:59Z</time>
      </trkpt>
      <trkpt lat="38.143533" lon="-2.588966">
        <ele>1525.3</ele>
        <time>1989-12-30T23:59:59Z</time>
      </trkpt>
      <trkpt lat="38.143591" lon="-2.589029">
        <ele>1525.3</ele>
        <time>1989-12-30T23:59:59Z</time>
      </trkpt>
      <trkpt lat="38.143665" lon="-2.589060">
        <ele>1521.9</ele>
        <time>1989-12-30T23:59:59Z</time>
      </trkpt>
      <trkpt lat="38.143857" lon="-2.589105">
        <ele>1519.0</ele>
        <time>1989-12-30T23:59:59Z</time>
      </trkpt>
      <trkpt lat="38.143948" lon="-2.589144">
        <ele>1518.5</ele>
        <time>1989-12-30T23:59:59Z</time>
      </trkpt>
      <trkpt lat="38.144067" lon="-2.589111">
        <ele>1523.3</ele>
        <time>1989-12-30T23:59:59Z</time>
      </trkpt>
      <trkpt lat="38.144242" lon="-2.589074">
        <ele>1519.5</ele>
        <time>1989-12-30T23:59:59Z</time>
      </trkpt>
      <trkpt lat="38.144607" lon="-2.588753">
        <ele>1510.4</ele>
        <time>1989-12-30T23:59:59Z</time>
      </trkpt>
      <trkpt lat="38.144768" lon="-2.588635">
        <ele>1508.9</ele>
        <time>1989-12-30T23:59:59Z</time>
      </trkpt>
      <trkpt lat="38.145046" lon="-2.588516">
        <ele>1505.1</ele>
        <time>1989-12-30T23:59:59Z</time>
      </trkpt>
      <trkpt lat="38.145194" lon="-2.588359">
        <ele>1503.2</ele>
        <time>1989-12-30T23:59:59Z</time>
      </trkpt>
      <trkpt lat="38.145271" lon="-2.588327">
        <ele>1501.2</ele>
        <time>1989-12-30T23:59:59Z</time>
      </trkpt>
      <trkpt lat="38.145361" lon="-2.588360">
        <ele>1498.8</ele>
        <time>1989-12-30T23:59:59Z</time>
      </trkpt>
      <trkpt lat="38.145542" lon="-2.588592">
        <ele>1495.9</ele>
        <time>1989-12-30T23:59:59Z</time>
      </trkpt>
      <trkpt lat="38.145460" lon="-2.588620">
        <ele>1494.0</ele>
        <time>1989-12-30T23:59:59Z</time>
      </trkpt>
      <trkpt lat="38.145373" lon="-2.588605">
        <ele>1491.1</ele>
        <time>1989-12-30T23:59:59Z</time>
      </trkpt>
      <trkpt lat="38.145292" lon="-2.588661">
        <ele>1490.2</ele>
        <time>1989-12-30T23:59:59Z</time>
      </trkpt>
      <trkpt lat="38.145315" lon="-2.588743">
        <ele>1487.3</ele>
        <time>1989-12-30T23:59:59Z</time>
      </trkpt>
      <trkpt lat="38.145257" lon="-2.588775">
        <ele>1485.9</ele>
        <time>1989-12-30T23:59:59Z</time>
      </trkpt>
      <trkpt lat="38.145232" lon="-2.588821">
        <ele>1480.1</ele>
        <time>1989-12-30T23:59:59Z</time>
      </trkpt>
      <trkpt lat="38.145251" lon="-2.588894">
        <ele>1483.9</ele>
        <time>1989-12-30T23:59:59Z</time>
      </trkpt>
      <trkpt lat="38.145329" lon="-2.588873">
        <ele>1481.5</ele>
        <time>1989-12-30T23:59:59Z</time>
      </trkpt>
      <trkpt lat="38.145204" lon="-2.589010">
        <ele>1477.7</ele>
        <time>1989-12-30T23:59:59Z</time>
      </trkpt>
      <trkpt lat="38.145338" lon="-2.589005">
        <ele>1472.9</ele>
        <time>1989-12-30T23:59:59Z</time>
      </trkpt>
      <trkpt lat="38.145545" lon="-2.588840">
        <ele>1467.1</ele>
        <time>1989-12-30T23:59:59Z</time>
      </trkpt>
      <trkpt lat="38.145738" lon="-2.588621">
        <ele>1469.0</ele>
        <time>1989-12-30T23:59:59Z</time>
      </trkpt>
      <trkpt lat="38.145973" lon="-2.588281">
        <ele>1466.1</ele>
        <time>1989-12-30T23:59:59Z</time>
      </trkpt>
      <trkpt lat="38.146044" lon="-2.588219">
        <ele>1467.1</ele>
        <time>1989-12-30T23:59:59Z</time>
      </trkpt>
      <trkpt lat="38.146155" lon="-2.588028">
        <ele>1465.2</ele>
        <time>1989-12-30T23:59:59Z</time>
      </trkpt>
      <trkpt lat="38.146293" lon="-2.587980">
        <ele>1466.6</ele>
        <time>1989-12-30T23:59:59Z</time>
      </trkpt>
      <trkpt lat="38.146327" lon="-2.588038">
        <ele>1464.2</ele>
        <time>1989-12-30T23:59:59Z</time>
      </trkpt>
      <trkpt lat="38.146234" lon="-2.588062">
        <ele>1461.8</ele>
        <time>1989-12-30T23:59:59Z</time>
      </trkpt>
      <trkpt lat="38.146213" lon="-2.588115">
        <ele>1459.9</ele>
        <time>1989-12-30T23:59:59Z</time>
      </trkpt>
      <trkpt lat="38.145952" lon="-2.588460">
        <ele>1457.5</ele>
        <time>1989-12-30T23:59:59Z</time>
      </trkpt>
      <trkpt lat="38.145995" lon="-2.588495">
        <ele>1456.5</ele>
        <time>1989-12-30T23:59:59Z</time>
      </trkpt>
      <trkpt lat="38.146004" lon="-2.588533">
        <ele>1455.1</ele>
        <time>1989-12-30T23:59:59Z</time>
      </trkpt>
      <trkpt lat="38.145950" lon="-2.588624">
        <ele>1452.7</ele>
        <time>1989-12-30T23:59:59Z</time>
      </trkpt>
      <trkpt lat="38.145905" lon="-2.588840">
        <ele>1449.8</ele>
        <time>1989-12-30T23:59:59Z</time>
      </trkpt>
      <trkpt lat="38.146002" lon="-2.588665">
        <ele>1446.0</ele>
        <time>1989-12-30T23:59:59Z</time>
      </trkpt>
      <trkpt lat="38.146217" lon="-2.588459">
        <ele>1442.1</ele>
        <time>1989-12-30T23:59:59Z</time>
      </trkpt>
      <trkpt lat="38.146265" lon="-2.588458">
        <ele>1441.2</ele>
        <time>1989-12-30T23:59:59Z</time>
      </trkpt>
      <trkpt lat="38.146154" lon="-2.588631">
        <ele>1435.4</ele>
        <time>1989-12-30T23:59:59Z</time>
      </trkpt>
      <trkpt lat="38.146123" lon="-2.588735">
        <ele>1433.5</ele>
        <time>1989-12-30T23:59:59Z</time>
      </trkpt>
      <trkpt lat="38.146169" lon="-2.588760">
        <ele>1433.5</ele>
        <time>1989-12-30T23:59:59Z</time>
      </trkpt>
      <trkpt lat="38.146254" lon="-2.588735">
        <ele>1432.0</ele>
        <time>1989-12-30T23:59:59Z</time>
      </trkpt>
      <trkpt lat="38.146337" lon="-2.588680">
        <ele>1430.1</ele>
        <time>1989-12-30T23:59:59Z</time>
      </trkpt>
      <trkpt lat="38.146601" lon="-2.588588">
        <ele>1424.3</ele>
        <time>1989-12-30T23:59:59Z</time>
      </trkpt>
      <trkpt lat="38.146821" lon="-2.588430">
        <ele>1416.2</ele>
        <time>1989-12-30T23:59:59Z</time>
      </trkpt>
      <trkpt lat="38.147139" lon="-2.588234">
        <ele>1410.9</ele>
        <time>1989-12-30T23:59:59Z</time>
      </trkpt>
      <trkpt lat="38.147208" lon="-2.588170">
        <ele>1408.9</ele>
        <time>1989-12-30T23:59:59Z</time>
      </trkpt>
      <trkpt lat="38.147243" lon="-2.588114">
        <ele>1404.6</ele>
        <time>1989-12-30T23:59:59Z</time>
      </trkpt>
      <trkpt lat="38.147250" lon="-2.588203">
        <ele>1404.1</ele>
        <time>1989-12-30T23:59:59Z</time>
      </trkpt>
      <trkpt lat="38.147203" lon="-2.588292">
        <ele>1403.7</ele>
        <time>1989-12-30T23:59:59Z</time>
      </trkpt>
      <trkpt lat="38.147083" lon="-2.588463">
        <ele>1402.2</ele>
        <time>1989-12-30T23:59:59Z</time>
      </trkpt>
      <trkpt lat="38.146862" lon="-2.588698">
        <ele>1400.8</ele>
        <time>1989-12-30T23:59:59Z</time>
      </trkpt>
      <trkpt lat="38.146811" lon="-2.588788">
        <ele>1399.8</ele>
        <time>1989-12-30T23:59:59Z</time>
      </trkpt>
      <trkpt lat="38.146851" lon="-2.588882">
        <ele>1397.9</ele>
        <time>1989-12-30T23:59:59Z</time>
      </trkpt>
      <trkpt lat="38.146940" lon="-2.588843">
        <ele>1396.9</ele>
        <time>1989-12-30T23:59:59Z</time>
      </trkpt>
      <trkpt lat="38.147597" lon="-2.588130">
        <ele>1387.3</ele>
        <time>1989-12-30T23:59:59Z</time>
      </trkpt>
      <trkpt lat="38.147669" lon="-2.588088">
        <ele>1386.4</ele>
        <time>1989-12-30T23:59:59Z</time>
      </trkpt>
      <trkpt lat="38.148142" lon="-2.587493">
        <ele>1380.6</ele>
        <time>1989-12-30T23:59:59Z</time>
      </trkpt>
      <trkpt lat="38.148507" lon="-2.587118">
        <ele>1376.3</ele>
        <time>1989-12-30T23:59:59Z</time>
      </trkpt>
      <trkpt lat="38.148838" lon="-2.586863">
        <ele>1373.4</ele>
        <time>1989-12-30T23:59:59Z</time>
      </trkpt>
      <trkpt lat="38.149280" lon="-2.586393">
        <ele>1368.6</ele>
        <time>1989-12-30T23:59:59Z</time>
      </trkpt>
      <trkpt lat="38.149364" lon="-2.586327">
        <ele>1368.1</ele>
        <time>1989-12-30T23:59:59Z</time>
      </trkpt>
      <trkpt lat="38.149509" lon="-2.586236">
        <ele>1367.1</ele>
        <time>1989-12-30T23:59:59Z</time>
      </trkpt>
      <trkpt lat="38.149605" lon="-2.586176">
        <ele>1371.5</ele>
        <time>1989-12-30T23:59:59Z</time>
      </trkpt>
      <trkpt lat="38.149694" lon="-2.586123">
        <ele>1370.0</ele>
        <time>1989-12-30T23:59:59Z</time>
      </trkpt>
      <trkpt lat="38.150068" lon="-2.585980">
        <ele>1364.2</ele>
        <time>1989-12-30T23:59:59Z</time>
      </trkpt>
      <trkpt lat="38.150227" lon="-2.585694">
        <ele>1358.0</ele>
        <time>1989-12-30T23:59:59Z</time>
      </trkpt>
      <trkpt lat="38.150306" lon="-2.585634">
        <ele>1357.0</ele>
        <time>1989-12-30T23:59:59Z</time>
      </trkpt>
      <trkpt lat="38.150396" lon="-2.585669">
        <ele>1355.6</ele>
        <time>1989-12-30T23:59:59Z</time>
      </trkpt>
      <trkpt lat="38.150431" lon="-2.585767">
        <ele>1354.2</ele>
        <time>1989-12-30T23:59:59Z</time>
      </trkpt>
      <trkpt lat="38.150422" lon="-2.585887">
        <ele>1352.7</ele>
        <time>1989-12-30T23:59:59Z</time>
      </trkpt>
      <trkpt lat="38.150382" lon="-2.586000">
        <ele>1351.8</ele>
        <time>1989-12-30T23:59:59Z</time>
      </trkpt>
      <trkpt lat="38.150319" lon="-2.586095">
        <ele>1350.3</ele>
        <time>1989-12-30T23:59:59Z</time>
      </trkpt>
      <trkpt lat="38.149981" lon="-2.586285">
        <ele>1346.5</ele>
        <time>1989-12-30T23:59:59Z</time>
      </trkpt>
      <trkpt lat="38.149424" lon="-2.586755">
        <ele>1341.2</ele>
        <time>1989-12-30T23:59:59Z</time>
      </trkpt>
      <trkpt lat="38.149250" lon="-2.587043">
        <ele>1340.7</ele>
        <time>1989-12-30T23:59:59Z</time>
      </trkpt>
      <trkpt lat="38.148929" lon="-2.587517">
        <ele>1337.3</ele>
        <time>1989-12-30T23:59:59Z</time>
      </trkpt>
      <trkpt lat="38.148744" lon="-2.587958">
        <ele>1335.4</ele>
        <time>1989-12-30T23:59:59Z</time>
      </trkpt>
      <trkpt lat="38.148640" lon="-2.588307">
        <ele>1334.9</ele>
        <time>1989-12-30T23:59:59Z</time>
      </trkpt>
      <trkpt lat="38.148511" lon="-2.588639">
        <ele>1332.0</ele>
        <time>1989-12-30T23:59:59Z</time>
      </trkpt>
      <trkpt lat="38.148355" lon="-2.588953">
        <ele>1335.4</ele>
        <time>1989-12-30T23:59:59Z</time>
      </trkpt>
      <trkpt lat="38.148178" lon="-2.589394">
        <ele>1331.6</ele>
        <time>1989-12-30T23:59:59Z</time>
      </trkpt>
      <trkpt lat="38.148063" lon="-2.589569">
        <ele>1325.3</ele>
        <time>1989-12-30T23:59:59Z</time>
      </trkpt>
      <trkpt lat="38.148059" lon="-2.589699">
        <ele>1325.3</ele>
        <time>1989-12-30T23:59:59Z</time>
      </trkpt>
      <trkpt lat="38.148074" lon="-2.589800">
        <ele>1323.4</ele>
        <time>1989-12-30T23:59:59Z</time>
      </trkpt>
      <trkpt lat="38.148176" lon="-2.589791">
        <ele>1321.0</ele>
        <time>1989-12-30T23:59:59Z</time>
      </trkpt>
      <trkpt lat="38.148252" lon="-2.589733">
        <ele>1319.1</ele>
        <time>1989-12-30T23:59:59Z</time>
      </trkpt>
      <trkpt lat="38.148372" lon="-2.589563">
        <ele>1314.7</ele>
        <time>1989-12-30T23:59:59Z</time>
      </trkpt>
      <trkpt lat="38.148487" lon="-2.589373">
        <ele>1312.3</ele>
        <time>1989-12-30T23:59:59Z</time>
      </trkpt>
      <trkpt lat="38.148759" lon="-2.589002">
        <ele>1308.5</ele>
        <time>1989-12-30T23:59:59Z</time>
      </trkpt>
      <trkpt lat="38.148894" lon="-2.588667">
        <ele>1306.6</ele>
        <time>1989-12-30T23:59:59Z</time>
      </trkpt>
      <trkpt lat="38.149057" lon="-2.588364">
        <ele>1303.7</ele>
        <time>1989-12-30T23:59:59Z</time>
      </trkpt>
      <trkpt lat="38.149388" lon="-2.587926">
        <ele>1296.5</ele>
        <time>1989-12-30T23:59:59Z</time>
      </trkpt>
      <trkpt lat="38.149611" lon="-2.587688">
        <ele>1293.1</ele>
        <time>1989-12-30T23:59:59Z</time>
      </trkpt>
      <trkpt lat="38.149765" lon="-2.587538">
        <ele>1291.7</ele>
        <time>1989-12-30T23:59:59Z</time>
      </trkpt>
      <trkpt lat="38.150202" lon="-2.587267">
        <ele>1286.4</ele>
        <time>1989-12-30T23:59:59Z</time>
      </trkpt>
      <trkpt lat="38.150292" lon="-2.587224">
        <ele>1288.3</ele>
        <time>1989-12-30T23:59:59Z</time>
      </trkpt>
      <trkpt lat="38.150387" lon="-2.587193">
        <ele>1288.3</ele>
        <time>1989-12-30T23:59:59Z</time>
      </trkpt>
      <trkpt lat="38.150660" lon="-2.587205">
        <ele>1282.1</ele>
        <time>1989-12-30T23:59:59Z</time>
      </trkpt>
      <trkpt lat="38.150759" lon="-2.587177">
        <ele>1281.1</ele>
        <time>1989-12-30T23:59:59Z</time>
      </trkpt>
      <trkpt lat="38.150925" lon="-2.587039">
        <ele>1278.7</ele>
        <time>1989-12-30T23:59:59Z</time>
      </trkpt>
      <trkpt lat="38.151066" lon="-2.586877">
        <ele>1276.8</ele>
        <time>1989-12-30T23:59:59Z</time>
      </trkpt>
      <trkpt lat="38.151345" lon="-2.586374">
        <ele>1276.8</ele>
        <time>1989-12-30T23:59:59Z</time>
      </trkpt>
      <trkpt lat="38.151411" lon="-2.586148">
        <ele>1279.7</ele>
        <time>1989-12-30T23:59:59Z</time>
      </trkpt>
      <trkpt lat="38.151451" lon="-2.586074">
        <ele>1273.4</ele>
        <time>1989-12-30T23:59:59Z</time>
      </trkpt>
      <trkpt lat="38.151514" lon="-2.585851">
        <ele>1272.4</ele>
        <time>1989-12-30T23:59:59Z</time>
      </trkpt>
      <trkpt lat="38.151596" lon="-2.585658">
        <ele>1270.0</ele>
        <time>1989-12-30T23:59:59Z</time>
      </trkpt>
      <trkpt lat="38.151632" lon="-2.585512">
        <ele>1274.8</ele>
        <time>1989-12-30T23:59:59Z</time>
      </trkpt>
      <trkpt lat="38.151864" lon="-2.585178">
        <ele>1270.0</ele>
        <time>1989-12-30T23:59:59Z</time>
      </trkpt>
      <trkpt lat="38.151935" lon="-2.585123">
        <ele>1270.0</ele>
        <time>1989-12-30T23:59:59Z</time>
      </trkpt>
      <trkpt lat="38.152092" lon="-2.584966">
        <ele>1273.4</ele>
        <time>1989-12-30T23:59:59Z</time>
      </trkpt>
      <trkpt lat="38.152272" lon="-2.584914">
        <ele>1273.4</ele>
        <time>1989-12-30T23:59:59Z</time>
      </trkpt>
      <trkpt lat="38.152364" lon="-2.584924">
        <ele>1272.9</ele>
        <time>1989-12-30T23:59:59Z</time>
      </trkpt>
      <trkpt lat="38.152461" lon="-2.584920">
        <ele>1269.1</ele>
        <time>1989-12-30T23:59:59Z</time>
      </trkpt>
      <trkpt lat="38.152657" lon="-2.584955">
        <ele>1267.2</ele>
        <time>1989-12-30T23:59:59Z</time>
      </trkpt>
      <trkpt lat="38.152826" lon="-2.585076">
        <ele>1265.7</ele>
        <time>1989-12-30T23:59:59Z</time>
      </trkpt>
      <trkpt lat="38.153011" lon="-2.585151">
        <ele>1265.2</ele>
        <time>1989-12-30T23:59:59Z</time>
      </trkpt>
      <trkpt lat="38.153287" lon="-2.585099">
        <ele>1264.3</ele>
        <time>1989-12-30T23:59:59Z</time>
      </trkpt>
      <trkpt lat="38.153377" lon="-2.585054">
        <ele>1263.8</ele>
        <time>1989-12-30T23:59:59Z</time>
      </trkpt>
      <trkpt lat="38.153668" lon="-2.584717">
        <ele>1260.9</ele>
        <time>1989-12-30T23:59:59Z</time>
      </trkpt>
      <trkpt lat="38.153757" lon="-2.584674">
        <ele>1262.3</ele>
        <time>1989-12-30T23:59:59Z</time>
      </trkpt>
      <trkpt lat="38.153869" lon="-2.584476">
        <ele>1259.0</ele>
        <time>1989-12-30T23:59:59Z</time>
      </trkpt>
      <trkpt lat="38.153952" lon="-2.584259">
        <ele>1257.5</ele>
        <time>1989-12-30T23:59:59Z</time>
      </trkpt>
      <trkpt lat="38.153974" lon="-2.584143">
        <ele>1251.8</ele>
        <time>1989-12-30T23:59:59Z</time>
      </trkpt>
      <trkpt lat="38.154064" lon="-2.583900">
        <ele>1253.2</ele>
        <time>1989-12-30T23:59:59Z</time>
      </trkpt>
      <trkpt lat="38.154170" lon="-2.583699">
        <ele>1250.8</ele>
        <time>1989-12-30T23:59:59Z</time>
      </trkpt>
      <trkpt lat="38.154357" lon="-2.583436">
        <ele>1248.9</ele>
        <time>1989-12-30T23:59:59Z</time>
      </trkpt>
      <trkpt lat="38.154457" lon="-2.583338">
        <ele>1254.2</ele>
        <time>1989-12-30T23:59:59Z</time>
      </trkpt>
      <trkpt lat="38.154541" lon="-2.583268">
        <ele>1254.7</ele>
        <time>1989-12-30T23:59:59Z</time>
      </trkpt>
      <trkpt lat="38.154816" lon="-2.583111">
        <ele>1251.3</ele>
        <time>1989-12-30T23:59:59Z</time>
      </trkpt>
      <trkpt lat="38.154991" lon="-2.583049">
        <ele>1247.0</ele>
        <time>1989-12-30T23:59:59Z</time>
      </trkpt>
      <trkpt lat="38.155153" lon="-2.582968">
        <ele>1240.7</ele>
        <time>1989-12-30T23:59:59Z</time>
      </trkpt>
      <trkpt lat="38.155211" lon="-2.582996">
        <ele>1237.8</ele>
        <time>1989-12-30T23:59:59Z</time>
      </trkpt>
      <trkpt lat="38.155383" lon="-2.583033">
        <ele>1235.9</ele>
        <time>1989-12-30T23:59:59Z</time>
      </trkpt>
      <trkpt lat="38.155459" lon="-2.583084">
        <ele>1236.9</ele>
        <time>1989-12-30T23:59:59Z</time>
      </trkpt>
      <trkpt lat="38.155455" lon="-2.583334">
        <ele>1228.2</ele>
        <time>1989-12-30T23:59:59Z</time>
      </trkpt>
      <trkpt lat="38.155560" lon="-2.583268">
        <ele>1233.5</ele>
        <time>1989-12-30T23:59:59Z</time>
      </trkpt>
      <trkpt lat="38.155824" lon="-2.583094">
        <ele>1233.0</ele>
        <time>1989-12-30T23:59:59Z</time>
      </trkpt>
      <trkpt lat="38.155870" lon="-2.582760">
        <ele>1220.1</ele>
        <time>1989-12-30T23:59:59Z</time>
      </trkpt>
      <trkpt lat="38.155892" lon="-2.582605">
        <ele>1219.6</ele>
        <time>1989-12-30T23:59:59Z</time>
      </trkpt>
      <trkpt lat="38.155927" lon="-2.582505">
        <ele>1216.7</ele>
        <time>1989-12-30T23:59:59Z</time>
      </trkpt>
      <trkpt lat="38.155980" lon="-2.582390">
        <ele>1218.6</ele>
        <time>1989-12-30T23:59:59Z</time>
      </trkpt>
      <trkpt lat="38.156041" lon="-2.582173">
        <ele>1215.7</ele>
        <time>1989-12-30T23:59:59Z</time>
      </trkpt>
      <trkpt lat="38.156066" lon="-2.582074">
        <ele>1211.9</ele>
        <time>1989-12-30T23:59:59Z</time>
      </trkpt>
      <trkpt lat="38.156075" lon="-2.581930">
        <ele>1215.2</ele>
        <time>1989-12-30T23:59:59Z</time>
      </trkpt>
      <trkpt lat="38.156171" lon="-2.581880">
        <ele>1215.7</ele>
        <time>1989-12-30T23:59:59Z</time>
      </trkpt>
      <trkpt lat="38.156246" lon="-2.581803">
        <ele>1214.8</ele>
        <time>1989-12-30T23:59:59Z</time>
      </trkpt>
      <trkpt lat="38.156301" lon="-2.581696">
        <ele>1217.2</ele>
        <time>1989-12-30T23:59:59Z</time>
      </trkpt>
      <trkpt lat="38.156457" lon="-2.581586">
        <ele>1208.0</ele>
        <time>1989-12-30T23:59:59Z</time>
      </trkpt>
      <trkpt lat="38.156562" lon="-2.581549">
        <ele>1208.5</ele>
        <time>1989-12-30T23:59:59Z</time>
      </trkpt>
      <trkpt lat="38.156645" lon="-2.581543">
        <ele>1205.6</ele>
        <time>1989-12-30T23:59:59Z</time>
      </trkpt>
      <trkpt lat="38.156734" lon="-2.581582">
        <ele>1202.3</ele>
        <time>1989-12-30T23:59:59Z</time>
      </trkpt>
      <trkpt lat="38.156883" lon="-2.581631">
        <ele>1204.2</ele>
        <time>1989-12-30T23:59:59Z</time>
      </trkpt>
      <trkpt lat="38.157087" lon="-2.581578">
        <ele>1203.2</ele>
        <time>1989-12-30T23:59:59Z</time>
      </trkpt>
      <trkpt lat="38.157272" lon="-2.581485">
        <ele>1201.8</ele>
        <time>1989-12-30T23:59:59Z</time>
      </trkpt>
      <trkpt lat="38.157372" lon="-2.581484">
        <ele>1197.0</ele>
        <time>1989-12-30T23:59:59Z</time>
      </trkpt>
      <trkpt lat="38.157570" lon="-2.581502">
        <ele>1195.1</ele>
        <time>1989-12-30T23:59:59Z</time>
      </trkpt>
      <trkpt lat="38.157747" lon="-2.581583">
        <ele>1191.7</ele>
        <time>1989-12-30T23:59:59Z</time>
      </trkpt>
      <trkpt lat="38.157929" lon="-2.581597">
        <ele>1188.3</ele>
        <time>1989-12-30T23:59:59Z</time>
      </trkpt>
      <trkpt lat="38.158022" lon="-2.581556">
        <ele>1188.3</ele>
        <time>1989-12-30T23:59:59Z</time>
      </trkpt>
      <trkpt lat="38.158093" lon="-2.581483">
        <ele>1182.1</ele>
        <time>1989-12-30T23:59:59Z</time>
      </trkpt>
      <trkpt lat="38.158187" lon="-2.581427">
        <ele>1181.6</ele>
        <time>1989-12-30T23:59:59Z</time>
      </trkpt>
      <trkpt lat="38.158366" lon="-2.581286">
        <ele>1184.0</ele>
        <time>1989-12-30T23:59:59Z</time>
      </trkpt>
      <trkpt lat="38.158470" lon="-2.581223">
        <ele>1189.3</ele>
        <time>1989-12-30T23:59:59Z</time>
      </trkpt>
      <trkpt lat="38.158702" lon="-2.581055">
        <ele>1182.1</ele>
        <time>1989-12-30T23:59:59Z</time>
      </trkpt>
      <trkpt lat="38.158752" lon="-2.580997">
        <ele>1171.5</ele>
        <time>1989-12-30T23:59:59Z</time>
      </trkpt>
      <trkpt lat="38.158814" lon="-2.580937">
        <ele>1170.5</ele>
        <time>1989-12-30T23:59:59Z</time>
      </trkpt>
      <trkpt lat="38.158833" lon="-2.580832">
        <ele>1167.7</ele>
        <time>1989-12-30T23:59:59Z</time>
      </trkpt>
      <trkpt lat="38.159089" lon="-2.580206">
        <ele>1150.8</ele>
        <time>1989-12-30T23:59:59Z</time>
      </trkpt>
      <trkpt lat="38.159152" lon="-2.579953">
        <ele>1148.9</ele>
        <time>1989-12-30T23:59:59Z</time>
      </trkpt>
      <trkpt lat="38.159342" lon="-2.579694">
        <ele>1149.9</ele>
        <time>1989-12-30T23:59:59Z</time>
      </trkpt>
      <trkpt lat="38.159338" lon="-2.579697">
        <ele>1153.2</ele>
        <time>1989-12-30T23:59:59Z</time>
      </trkpt>
      <trkpt lat="38.159379" lon="-2.579591">
        <ele>1151.8</ele>
        <time>1989-12-30T23:59:59Z</time>
      </trkpt>
      <trkpt lat="38.159373" lon="-2.579482">
        <ele>1150.8</ele>
        <time>1989-12-30T23:59:59Z</time>
      </trkpt>
      <trkpt lat="38.159424" lon="-2.579411">
        <ele>1147.0</ele>
        <time>1989-12-30T23:59:59Z</time>
      </trkpt>
      <trkpt lat="38.159531" lon="-2.579409">
        <ele>1151.8</ele>
        <time>1989-12-30T23:59:59Z</time>
      </trkpt>
      <trkpt lat="38.159602" lon="-2.579356">
        <ele>1147.0</ele>
        <time>1989-12-30T23:59:59Z</time>
      </trkpt>
      <trkpt lat="38.159654" lon="-2.579259">
        <ele>1145.1</ele>
        <time>1989-12-30T23:59:59Z</time>
      </trkpt>
      <trkpt lat="38.159693" lon="-2.579149">
        <ele>1143.6</ele>
        <time>1989-12-30T23:59:59Z</time>
      </trkpt>
      <trkpt lat="38.159721" lon="-2.578912">
        <ele>1137.9</ele>
        <time>1989-12-30T23:59:59Z</time>
      </trkpt>
      <trkpt lat="38.159770" lon="-2.578815">
        <ele>1135.5</ele>
        <time>1989-12-30T23:59:59Z</time>
      </trkpt>
      <trkpt lat="38.159840" lon="-2.578764">
        <ele>1131.6</ele>
        <time>1989-12-30T23:59:59Z</time>
      </trkpt>
      <trkpt lat="38.159916" lon="-2.578730">
        <ele>1125.8</ele>
        <time>1989-12-30T23:59:59Z</time>
      </trkpt>
      <trkpt lat="38.160083" lon="-2.578625">
        <ele>1124.9</ele>
        <time>1989-12-30T23:59:59Z</time>
      </trkpt>
      <trkpt lat="38.160163" lon="-2.578619">
        <ele>1123.4</ele>
        <time>1989-12-30T23:59:59Z</time>
      </trkpt>
      <trkpt lat="38.160340" lon="-2.578730">
        <ele>1123.9</ele>
        <time>1989-12-30T23:59:59Z</time>
      </trkpt>
      <trkpt lat="38.160492" lon="-2.578842">
        <ele>1122.0</ele>
        <time>1989-12-30T23:59:59Z</time>
      </trkpt>
      <trkpt lat="38.160667" lon="-2.578889">
        <ele>1119.1</ele>
        <time>1989-12-30T23:59:59Z</time>
      </trkpt>
      <trkpt lat="38.160767" lon="-2.578851">
        <ele>1114.8</ele>
        <time>1989-12-30T23:59:59Z</time>
      </trkpt>
      <trkpt lat="38.160977" lon="-2.578737">
        <ele>1113.3</ele>
        <time>1989-12-30T23:59:59Z</time>
      </trkpt>
      <trkpt lat="38.161082" lon="-2.578670">
        <ele>1114.8</ele>
        <time>1989-12-30T23:59:59Z</time>
      </trkpt>
      <trkpt lat="38.161213" lon="-2.578527">
        <ele>1108.1</ele>
        <time>1989-12-30T23:59:59Z</time>
      </trkpt>
      <trkpt lat="38.161327" lon="-2.578478">
        <ele>1109.5</ele>
        <time>1989-12-30T23:59:59Z</time>
      </trkpt>
      <trkpt lat="38.161364" lon="-2.578549">
        <ele>1115.7</ele>
        <time>1989-12-30T23:59:59Z</time>
      </trkpt>
      <trkpt lat="38.161330" lon="-2.578592">
        <ele>1116.2</ele>
        <time>1989-12-30T23:59:59Z</time>
      </trkpt>
      <trkpt lat="38.161367" lon="-2.578607">
        <ele>1110.9</ele>
        <time>1989-12-30T23:59:59Z</time>
      </trkpt>
      <trkpt lat="38.161452" lon="-2.578563">
        <ele>1109.0</ele>
        <time>1989-12-30T23:59:59Z</time>
      </trkpt>
      <trkpt lat="38.161573" lon="-2.578534">
        <ele>1114.3</ele>
        <time>1989-12-30T23:59:59Z</time>
      </trkpt>
      <trkpt lat="38.161752" lon="-2.578473">
        <ele>1113.8</ele>
        <time>1989-12-30T23:59:59Z</time>
      </trkpt>
      <trkpt lat="38.161844" lon="-2.578428">
        <ele>1108.1</ele>
        <time>1989-12-30T23:59:59Z</time>
      </trkpt>
      <trkpt lat="38.161924" lon="-2.578377">
        <ele>1108.5</ele>
        <time>1989-12-30T23:59:59Z</time>
      </trkpt>
      <trkpt lat="38.162559" lon="-2.577829">
        <ele>1095.6</ele>
        <time>1989-12-30T23:59:59Z</time>
      </trkpt>
      <trkpt lat="38.162619" lon="-2.577691">
        <ele>1091.7</ele>
        <time>1989-12-30T23:59:59Z</time>
      </trkpt>
      <trkpt lat="38.162843" lon="-2.577483">
        <ele>1089.3</ele>
        <time>1989-12-30T23:59:59Z</time>
      </trkpt>
      <trkpt lat="38.162918" lon="-2.577285">
        <ele>1088.8</ele>
        <time>1989-12-30T23:59:59Z</time>
      </trkpt>
      <trkpt lat="38.163004" lon="-2.577032">
        <ele>1081.6</ele>
        <time>1989-12-30T23:59:59Z</time>
      </trkpt>
      <trkpt lat="38.163042" lon="-2.576763">
        <ele>1075.9</ele>
        <time>1989-12-30T23:59:59Z</time>
      </trkpt>
      <trkpt lat="38.163153" lon="-2.576553">
        <ele>1072.5</ele>
        <time>1989-12-30T23:59:59Z</time>
      </trkpt>
      <trkpt lat="38.163169" lon="-2.576443">
        <ele>1070.6</ele>
        <time>1989-12-30T23:59:59Z</time>
      </trkpt>
      <trkpt lat="38.163222" lon="-2.576338">
        <ele>1070.6</ele>
        <time>1989-12-30T23:59:59Z</time>
      </trkpt>
      <trkpt lat="38.163431" lon="-2.576050">
        <ele>1063.8</ele>
        <time>1989-12-30T23:59:59Z</time>
      </trkpt>
      <trkpt lat="38.163522" lon="-2.575963">
        <ele>1063.4</ele>
        <time>1989-12-30T23:59:59Z</time>
      </trkpt>
      <trkpt lat="38.163655" lon="-2.575761">
        <ele>1063.4</ele>
        <time>1989-12-30T23:59:59Z</time>
      </trkpt>
      <trkpt lat="38.163818" lon="-2.575551">
        <ele>1059.5</ele>
        <time>1989-12-30T23:59:59Z</time>
      </trkpt>
      <trkpt lat="38.164002" lon="-2.575248">
        <ele>1055.2</ele>
        <time>1989-12-30T23:59:59Z</time>
      </trkpt>
      <trkpt lat="38.164041" lon="-2.575135">
        <ele>1052.8</ele>
        <time>1989-12-30T23:59:59Z</time>
      </trkpt>
      <trkpt lat="38.164067" lon="-2.574926">
        <ele>1050.9</ele>
        <time>1989-12-30T23:59:59Z</time>
      </trkpt>
      <trkpt lat="38.164025" lon="-2.574795">
        <ele>1046.5</ele>
        <time>1989-12-30T23:59:59Z</time>
      </trkpt>
      <trkpt lat="38.164033" lon="-2.574563">
        <ele>1043.2</ele>
        <time>1989-12-30T23:59:59Z</time>
      </trkpt>
      <trkpt lat="38.164141" lon="-2.574343">
        <ele>1043.6</ele>
        <time>1989-12-30T23:59:59Z</time>
      </trkpt>
      <trkpt lat="38.164335" lon="-2.574293">
        <ele>1075.4</ele>
        <time>1989-12-30T23:59:59Z</time>
      </trkpt>
      <trkpt lat="38.164433" lon="-2.574182">
        <ele>1060.0</ele>
        <time>1989-12-30T23:59:59Z</time>
      </trkpt>
      <trkpt lat="38.164532" lon="-2.574150">
        <ele>1060.0</ele>
        <time>1989-12-30T23:59:59Z</time>
      </trkpt>
      <trkpt lat="38.164937" lon="-2.574218">
        <ele>1056.6</ele>
        <time>1989-12-30T23:59:59Z</time>
      </trkpt>
      <trkpt lat="38.165032" lon="-2.574194">
        <ele>1054.7</ele>
        <time>1989-12-30T23:59:59Z</time>
      </trkpt>
      <trkpt lat="38.165137" lon="-2.574198">
        <ele>1054.2</ele>
        <time>1989-12-30T23:59:59Z</time>
      </trkpt>
      <trkpt lat="38.165227" lon="-2.574157">
        <ele>1053.7</ele>
        <time>1989-12-30T23:59:59Z</time>
      </trkpt>
      <trkpt lat="38.165328" lon="-2.574088">
        <ele>1049.9</ele>
        <time>1989-12-30T23:59:59Z</time>
      </trkpt>
      <trkpt lat="38.165435" lon="-2.574026">
        <ele>1043.2</ele>
        <time>1989-12-30T23:59:59Z</time>
      </trkpt>
      <trkpt lat="38.165713" lon="-2.573851">
        <ele>1037.4</ele>
        <time>1989-12-30T23:59:59Z</time>
      </trkpt>
      <trkpt lat="38.165850" lon="-2.573688">
        <ele>1020.1</ele>
        <time>1989-12-30T23:59:59Z</time>
      </trkpt>
      <trkpt lat="38.165891" lon="-2.573372">
        <ele>1019.6</ele>
        <time>1989-12-30T23:59:59Z</time>
      </trkpt>
      <trkpt lat="38.166076" lon="-2.573105">
        <ele>1026.8</ele>
        <time>1989-12-30T23:59:59Z</time>
      </trkpt>
      <trkpt lat="38.166204" lon="-2.573028">
        <ele>1023.5</ele>
        <time>1989-12-30T23:59:59Z</time>
      </trkpt>
      <trkpt lat="38.166406" lon="-2.573054">
        <ele>1016.3</ele>
        <time>1989-12-30T23:59:59Z</time>
      </trkpt>
      <trkpt lat="38.166567" lon="-2.573050">
        <ele>1023.9</ele>
        <time>1989-12-30T23:59:59Z</time>
      </trkpt>
      <trkpt lat="38.166668" lon="-2.573041">
        <ele>1018.2</ele>
        <time>1989-12-30T23:59:59Z</time>
      </trkpt>
      <trkpt lat="38.166841" lon="-2.572952">
        <ele>1010.0</ele>
        <time>1989-12-30T23:59:59Z</time>
      </trkpt>
      <trkpt lat="38.166954" lon="-2.572623">
        <ele>1009.5</ele>
        <time>1989-12-30T23:59:59Z</time>
      </trkpt>
      <trkpt lat="38.166983" lon="-2.572529">
        <ele>1007.1</ele>
        <time>1989-12-30T23:59:59Z</time>
      </trkpt>
      <trkpt lat="38.166981" lon="-2.572402">
        <ele>1009.0</ele>
        <time>1989-12-30T23:59:59Z</time>
      </trkpt>
      <trkpt lat="38.167112" lon="-2.572107">
        <ele>1023.9</ele>
        <time>1989-12-30T23:59:59Z</time>
      </trkpt>
      <trkpt lat="38.167274" lon="-2.571983">
        <ele>1002.3</ele>
        <time>1989-12-30T23:59:59Z</time>
      </trkpt>
      <trkpt lat="38.167280" lon="-2.571649">
        <ele>1005.7</ele>
        <time>1989-12-30T23:59:59Z</time>
      </trkpt>
      <trkpt lat="38.167553" lon="-2.570619">
        <ele>1025.9</ele>
        <time>1989-12-30T23:59:59Z</time>
      </trkpt>
      <trkpt lat="38.167673" lon="-2.570154">
        <ele>1000.9</ele>
        <time>1989-12-30T23:59:59Z</time>
      </trkpt>
      <trkpt lat="38.167766" lon="-2.569962">
        <ele>1000.9</ele>
        <time>1989-12-30T23:59:59Z</time>
      </trkpt>
      <trkpt lat="38.167966" lon="-2.569532">
        <ele>1001.4</ele>
        <time>1989-12-30T23:59:59Z</time>
      </trkpt>
      <trkpt lat="38.168045" lon="-2.569541">
        <ele>994.6</ele>
        <time>1989-12-30T23:59:59Z</time>
      </trkpt>
      <trkpt lat="38.168282" lon="-2.569433">
        <ele>992.2</ele>
        <time>1989-12-30T23:59:59Z</time>
      </trkpt>
      <trkpt lat="38.168319" lon="-2.569378">
        <ele>987.9</ele>
        <time>1989-12-30T23:59:59Z</time>
      </trkpt>
      <trkpt lat="38.168381" lon="-2.569257">
        <ele>988.9</ele>
        <time>1989-12-30T23:59:59Z</time>
      </trkpt>
      <trkpt lat="38.168429" lon="-2.569221">
        <ele>985.5</ele>
        <time>1989-12-30T23:59:59Z</time>
      </trkpt>
      <trkpt lat="38.168478" lon="-2.568919">
        <ele>982.6</ele>
        <time>1989-12-30T23:59:59Z</time>
      </trkpt>
      <trkpt lat="38.168664" lon="-2.568416">
        <ele>983.1</ele>
        <time>1989-12-30T23:59:59Z</time>
      </trkpt>
      <trkpt lat="38.168707" lon="-2.568108">
        <ele>983.6</ele>
        <time>1989-12-30T23:59:59Z</time>
      </trkpt>
      <trkpt lat="38.168877" lon="-2.567750">
        <ele>983.6</ele>
        <time>1989-12-30T23:59:59Z</time>
      </trkpt>
      <trkpt lat="38.168865" lon="-2.567458">
        <ele>983.6</ele>
        <time>1989-12-30T23:59:59Z</time>
      </trkpt>
      <trkpt lat="38.168814" lon="-2.567194">
        <ele>966.7</ele>
        <time>1989-12-30T23:59:59Z</time>
      </trkpt>
      <trkpt lat="38.168913" lon="-2.566756">
        <ele>969.1</ele>
        <time>1989-12-30T23:59:59Z</time>
      </trkpt>
      <trkpt lat="38.169012" lon="-2.566579">
        <ele>952.3</ele>
        <time>1989-12-30T23:59:59Z</time>
      </trkpt>
      <trkpt lat="38.169096" lon="-2.566427">
        <ele>957.1</ele>
        <time>1989-12-30T23:59:59Z</time>
      </trkpt>
      <trkpt lat="38.169239" lon="-2.566295">
        <ele>957.6</ele>
        <time>1989-12-30T23:59:59Z</time>
      </trkpt>
      <trkpt lat="38.169392" lon="-2.566099">
        <ele>962.9</ele>
        <time>1989-12-30T23:59:59Z</time>
      </trkpt>
      <trkpt lat="38.169490" lon="-2.565832">
        <ele>961.0</ele>
        <time>1989-12-30T23:59:59Z</time>
      </trkpt>
      <trkpt lat="38.169534" lon="-2.565714">
        <ele>954.2</ele>
        <time>1989-12-30T23:59:59Z</time>
      </trkpt>
      <trkpt lat="38.169614" lon="-2.565548">
        <ele>950.4</ele>
        <time>1989-12-30T23:59:59Z</time>
      </trkpt>
      <trkpt lat="38.169698" lon="-2.565280">
        <ele>950.9</ele>
        <time>1989-12-30T23:59:59Z</time>
      </trkpt>
      <trkpt lat="38.169846" lon="-2.565013">
        <ele>954.1</ele>
        <time>1989-12-30T23:59:59Z</time>
      </trkpt>
      <trkpt lat="38.170088" lon="-2.564692">
        <ele>958.3</ele>
        <time>1989-12-30T23:59:59Z</time>
      </trkpt>
      <trkpt lat="38.170428" lon="-2.564165">
        <ele>970.6</ele>
        <time>1989-12-30T23:59:59Z</time>
      </trkpt>
      <trkpt lat="38.170554" lon="-2.563879">
        <ele>969.2</ele>
        <time>1989-12-30T23:59:59Z</time>
      </trkpt>
      <trkpt lat="38.170598" lon="-2.563696">
        <ele>975.8</ele>
        <time>1989-12-30T23:59:59Z</time>
      </trkpt>
      <trkpt lat="38.170588" lon="-2.563479">
        <ele>975.8</ele>
        <time>1989-12-30T23:59:59Z</time>
      </trkpt>
      <trkpt lat="38.170670" lon="-2.563208">
        <ele>973.0</ele>
        <time>1989-12-30T23:59:59Z</time>
      </trkpt>
      <trkpt lat="38.170731" lon="-2.563147">
        <ele>974.4</ele>
        <time>1989-12-30T23:59:59Z</time>
      </trkpt>
      <trkpt lat="38.170915" lon="-2.562946">
        <ele>974.0</ele>
        <time>1989-12-30T23:59:59Z</time>
      </trkpt>
      <trkpt lat="38.171017" lon="-2.562860">
        <ele>974.0</ele>
        <time>1989-12-30T23:59:59Z</time>
      </trkpt>
      <trkpt lat="38.171179" lon="-2.562631">
        <ele>974.0</ele>
        <time>1989-12-30T23:59:59Z</time>
      </trkpt>
      <trkpt lat="38.171365" lon="-2.562411">
        <ele>974.0</ele>
        <time>1989-12-30T23:59:59Z</time>
      </trkpt>
      <trkpt lat="38.171472" lon="-2.562264">
        <ele>973.5</ele>
        <time>1989-12-30T23:59:59Z</time>
      </trkpt>
      <trkpt lat="38.171709" lon="-2.562127">
        <ele>973.0</ele>
        <time>1989-12-30T23:59:59Z</time>
      </trkpt>
      <trkpt lat="38.171809" lon="-2.561989">
        <ele>973.0</ele>
        <time>1989-12-30T23:59:59Z</time>
      </trkpt>
      <trkpt lat="38.171974" lon="-2.561788">
        <ele>972.5</ele>
        <time>1989-12-30T23:59:59Z</time>
      </trkpt>
      <trkpt lat="38.172125" lon="-2.561668">
        <ele>972.0</ele>
        <time>1989-12-30T23:59:59Z</time>
      </trkpt>
      <trkpt lat="38.172254" lon="-2.561586">
        <ele>972.5</ele>
        <time>1989-12-30T23:59:59Z</time>
      </trkpt>
      <trkpt lat="38.172506" lon="-2.561584">
        <ele>972.0</ele>
        <time>1989-12-30T23:59:59Z</time>
      </trkpt>
      <trkpt lat="38.172708" lon="-2.561638">
        <ele>971.5</ele>
        <time>1989-12-30T23:59:59Z</time>
      </trkpt>
      <trkpt lat="38.172883" lon="-2.561624">
        <ele>970.6</ele>
        <time>1989-12-30T23:59:59Z</time>
      </trkpt>
      <trkpt lat="38.173018" lon="-2.561563">
        <ele>956.2</ele>
        <time>1989-12-30T23:59:59Z</time>
      </trkpt>
      <trkpt lat="38.173301" lon="-2.561475">
        <ele>954.2</ele>
        <time>1989-12-30T23:59:59Z</time>
      </trkpt>
      <trkpt lat="38.173459" lon="-2.561364">
        <ele>954.2</ele>
        <time>1989-12-30T23:59:59Z</time>
      </trkpt>
      <trkpt lat="38.173735" lon="-2.561314">
        <ele>959.5</ele>
        <time>1989-12-30T23:59:59Z</time>
      </trkpt>
      <trkpt lat="38.173908" lon="-2.561323">
        <ele>958.1</ele>
        <time>1989-12-30T23:59:59Z</time>
      </trkpt>
      <trkpt lat="38.174304" lon="-2.561256">
        <ele>954.7</ele>
        <time>1989-12-30T23:59:59Z</time>
      </trkpt>
      <trkpt lat="38.174847" lon="-2.561030">
        <ele>952.8</ele>
        <time>1989-12-30T23:59:59Z</time>
      </trkpt>
      <trkpt lat="38.175404" lon="-2.560921">
        <ele>952.3</ele>
        <time>1989-12-30T23:59:59Z</time>
      </trkpt>
      <trkpt lat="38.175767" lon="-2.560804">
        <ele>951.4</ele>
        <time>1989-12-30T23:59:59Z</time>
      </trkpt>
      <trkpt lat="38.176046" lon="-2.560804">
        <ele>949.4</ele>
        <time>1989-12-30T23:59:59Z</time>
      </trkpt>
      <trkpt lat="38.176325" lon="-2.560862">
        <ele>949.0</ele>
        <time>1989-12-30T23:59:59Z</time>
      </trkpt>
      <trkpt lat="38.176522" lon="-2.560816">
        <ele>949.0</ele>
        <time>1989-12-30T23:59:59Z</time>
      </trkpt>
      <trkpt lat="38.176894" lon="-2.560803">
        <ele>950.9</ele>
        <time>1989-12-30T23:59:59Z</time>
      </trkpt>
      <trkpt lat="38.177071" lon="-2.560758">
        <ele>951.4</ele>
        <time>1989-12-30T23:59:59Z</time>
      </trkpt>
      <trkpt lat="38.177147" lon="-2.560763">
        <ele>955.7</ele>
        <time>1989-12-30T23:59:59Z</time>
      </trkpt>
      <trkpt lat="38.177427" lon="-2.560596">
        <ele>952.3</ele>
        <time>1989-12-30T23:59:59Z</time>
      </trkpt>
      <trkpt lat="38.177575" lon="-2.560487">
        <ele>957.6</ele>
        <time>1989-12-30T23:59:59Z</time>
      </trkpt>
      <trkpt lat="38.177639" lon="-2.560423">
        <ele>954.7</ele>
        <time>1989-12-30T23:59:59Z</time>
      </trkpt>
      <trkpt lat="38.177898" lon="-2.560367">
        <ele>956.6</ele>
        <time>1989-12-30T23:59:59Z</time>
      </trkpt>
      <trkpt lat="38.178096" lon="-2.560328">
        <ele>960.0</ele>
        <time>1989-12-30T23:59:59Z</time>
      </trkpt>
      <trkpt lat="38.178194" lon="-2.560225">
        <ele>911.9</ele>
        <time>1989-12-30T23:59:59Z</time>
      </trkpt>
      <trkpt lat="38.178231" lon="-2.560220">
        <ele>960.5</ele>
        <time>1989-12-30T23:59:59Z</time>
      </trkpt>
      <trkpt lat="38.178362" lon="-2.560178">
        <ele>944.2</ele>
        <time>1989-12-30T23:59:59Z</time>
      </trkpt>
      <trkpt lat="38.178735" lon="-2.560231">
        <ele>946.6</ele>
        <time>1989-12-30T23:59:59Z</time>
      </trkpt>
      <trkpt lat="38.178903" lon="-2.560308">
        <ele>952.3</ele>
        <time>1989-12-30T23:59:59Z</time>
      </trkpt>
      <trkpt lat="38.178972" lon="-2.560298">
        <ele>965.3</ele>
        <time>2010-07-01T06:37:57Z</time>
      </trkpt>
      <trkpt lat="38.178910" lon="-2.560716">
        <ele>959.5</ele>
        <time>2010-07-01T06:39:31Z</time>
      </trkpt>
      <trkpt lat="38.178882" lon="-2.561005">
        <ele>958.6</ele>
        <time>2010-07-01T06:40:12Z</time>
      </trkpt>
      <trkpt lat="38.179104" lon="-2.561200">
        <ele>959.5</ele>
        <time>2010-07-01T06:42:16Z</time>
      </trkpt>
      <trkpt lat="38.179358" lon="-2.561715">
        <ele>962.9</ele>
        <time>2010-07-01T06:47:10Z</time>
      </trkpt>
      <trkpt lat="38.180016" lon="-2.562216">
        <ele>966.5</ele>
        <time>2010-07-01T06:48:58Z</time>
      </trkpt>
      <trkpt lat="38.180529" lon="-2.562308">
        <ele>969.0</ele>
        <time>2010-07-01T06:50:12Z</time>
      </trkpt>
      <trkpt lat="38.180866" lon="-2.562328">
        <ele>970.6</ele>
        <time>2010-07-01T06:51:00Z</time>
      </trkpt>
      <trkpt lat="38.180973" lon="-2.562616">
        <ele>971.5</ele>
        <time>2010-07-01T06:51:09Z</time>
      </trkpt>
      <trkpt lat="38.181005" lon="-2.562736">
        <ele>971.1</ele>
        <time>2010-07-01T06:51:18Z</time>
      </trkpt>
      <trkpt lat="38.181019" lon="-2.562857">
        <ele>970.6</ele>
        <time>2010-07-01T06:51:26Z</time>
      </trkpt>
      <trkpt lat="38.181027" lon="-2.562978">
        <ele>972.0</ele>
        <time>2010-07-01T06:51:34Z</time>
      </trkpt>
      <trkpt lat="38.181113" lon="-2.563092">
        <ele>972.0</ele>
        <time>2010-07-01T06:51:42Z</time>
      </trkpt>
      <trkpt lat="38.181330" lon="-2.563195">
        <ele>971.5</ele>
        <time>2010-07-01T06:52:15Z</time>
      </trkpt>
      <trkpt lat="38.181421" lon="-2.563112">
        <ele>971.5</ele>
        <time>2010-07-01T06:52:23Z</time>
      </trkpt>
      <trkpt lat="38.181537" lon="-2.563067">
        <ele>972.0</ele>
        <time>2010-07-01T06:52:31Z</time>
      </trkpt>
      <trkpt lat="38.181775" lon="-2.562869">
        <ele>970.6</ele>
        <time>2010-07-01T06:52:40Z</time>
      </trkpt>
      <trkpt lat="38.182044" lon="-2.562938">
        <ele>971.1</ele>
        <time>2010-07-01T06:53:14Z</time>
      </trkpt>
      <trkpt lat="38.182261" lon="-2.563074">
        <ele>968.7</ele>
        <time>2010-07-01T06:54:56Z</time>
      </trkpt>
      <trkpt lat="38.182499" lon="-2.563084">
        <ele>965.8</ele>
        <time>2010-07-01T06:55:05Z</time>
      </trkpt>
      <trkpt lat="38.182733" lon="-2.563099">
        <ele>966.3</ele>
        <time>2010-07-01T06:55:41Z</time>
      </trkpt>
      <trkpt lat="38.183098" lon="-2.563168">
        <ele>968.7</ele>
        <time>2010-07-01T06:56:35Z</time>
      </trkpt>
      <trkpt lat="38.183547" lon="-2.563463">
        <ele>967.2</ele>
        <time>2010-07-01T06:57:20Z</time>
      </trkpt>
      <trkpt lat="38.183679" lon="-2.563532">
        <ele>967.2</ele>
        <time>2010-07-01T06:57:28Z</time>
      </trkpt>
      <trkpt lat="38.183788" lon="-2.563828">
        <ele>967.2</ele>
        <time>2010-07-01T06:57:46Z</time>
      </trkpt>
      <trkpt lat="38.183897" lon="-2.563986">
        <ele>964.8</ele>
        <time>2010-07-01T06:58:17Z</time>
      </trkpt>
      <trkpt lat="38.184095" lon="-2.564017">
        <ele>949.9</ele>
        <time>2010-07-01T07:02:19Z</time>
      </trkpt>
      <trkpt lat="38.184204" lon="-2.564067">
        <ele>950.9</ele>
        <time>2010-07-01T07:05:09Z</time>
      </trkpt>
      <trkpt lat="38.184311" lon="-2.563936">
        <ele>954.7</ele>
        <time>2010-07-01T07:10:59Z</time>
      </trkpt>
      <trkpt lat="38.184538" lon="-2.563712">
        <ele>959.0</ele>
        <time>2010-07-01T07:11:44Z</time>
      </trkpt>
      <trkpt lat="38.184772" lon="-2.563627">
        <ele>962.6</ele>
        <time>2010-07-01T07:12:23Z</time>
      </trkpt>
      <trkpt lat="38.184883" lon="-2.563617">
        <ele>964.3</ele>
        <time>2010-07-01T07:12:41Z</time>
      </trkpt>
      <trkpt lat="38.185116" lon="-2.563640">
        <ele>969.1</ele>
        <time>2010-07-01T07:13:34Z</time>
      </trkpt>
      <trkpt lat="38.185425" lon="-2.563597">
        <ele>972.5</ele>
        <time>2010-07-01T07:15:04Z</time>
      </trkpt>
      <trkpt lat="38.185856" lon="-2.563551">
        <ele>986.9</ele>
        <time>2010-07-01T07:21:22Z</time>
      </trkpt>
      <trkpt lat="38.186077" lon="-2.563230">
        <ele>988.4</ele>
        <time>2010-07-01T07:22:40Z</time>
      </trkpt>
      <trkpt lat="38.186540" lon="-2.562629">
        <ele>991.3</ele>
        <time>2010-07-01T07:23:41Z</time>
      </trkpt>
      <trkpt lat="38.187007" lon="-2.562661">
        <ele>1006.6</ele>
        <time>2010-07-01T07:25:13Z</time>
      </trkpt>
      <trkpt lat="38.187168" lon="-2.562598">
        <ele>996.1</ele>
        <time>2010-07-01T07:25:43Z</time>
      </trkpt>
      <trkpt lat="38.187467" lon="-2.562328">
        <ele>1002.3</ele>
        <time>2010-07-01T07:27:53Z</time>
      </trkpt>
      <trkpt lat="38.187628" lon="-2.562189">
        <ele>1004.7</ele>
        <time>2010-07-01T07:28:17Z</time>
      </trkpt>
      <trkpt lat="38.187989" lon="-2.562032">
        <ele>1015.3</ele>
        <time>2010-07-01T07:33:07Z</time>
      </trkpt>
      <trkpt lat="38.188237" lon="-2.561730">
        <ele>1018.7</ele>
        <time>2010-07-01T07:33:41Z</time>
      </trkpt>
      <trkpt lat="38.188430" lon="-2.561545">
        <ele>1020.6</ele>
        <time>2010-07-01T07:33:59Z</time>
      </trkpt>
      <trkpt lat="38.188616" lon="-2.561378">
        <ele>1024.4</ele>
        <time>2010-07-01T07:34:16Z</time>
      </trkpt>
      <trkpt lat="38.188808" lon="-2.561161">
        <ele>1026.8</ele>
        <time>2010-07-01T07:34:49Z</time>
      </trkpt>
      <trkpt lat="38.188902" lon="-2.561083">
        <ele>1030.2</ele>
        <time>2010-07-01T07:35:04Z</time>
      </trkpt>
      <trkpt lat="38.189012" lon="-2.561047">
        <ele>1029.7</ele>
        <time>2010-07-01T07:35:32Z</time>
      </trkpt>
      <trkpt lat="38.189109" lon="-2.561108">
        <ele>1030.7</ele>
        <time>2010-07-01T07:36:05Z</time>
      </trkpt>
      <trkpt lat="38.189128" lon="-2.561405">
        <ele>1028.8</ele>
        <time>2010-07-01T05:15:13Z</time>
      </trkpt>
      <trkpt lat="38.189191" lon="-2.561703">
        <ele>1026.8</ele>
        <time>2010-07-01T07:41:17Z</time>
      </trkpt>
      <trkpt lat="38.189271" lon="-2.561837">
        <ele>1027.3</ele>
        <time>2010-07-01T07:41:27Z</time>
      </trkpt>
      <trkpt lat="38.189641" lon="-2.561984">
        <ele>1039.8</ele>
        <time>2010-07-01T07:46:46Z</time>
      </trkpt>
      <trkpt lat="38.189879" lon="-2.562000">
        <ele>1038.4</ele>
        <time>2010-07-01T07:47:18Z</time>
      </trkpt>
      <trkpt lat="38.190293" lon="-2.562046">
        <ele>1036.4</ele>
        <time>2010-07-01T07:47:35Z</time>
      </trkpt>
      <trkpt lat="38.190446" lon="-2.562123">
        <ele>1036.4</ele>
        <time>2010-07-01T07:47:53Z</time>
      </trkpt>
      <trkpt lat="38.190629" lon="-2.562223">
        <ele>1036.4</ele>
        <time>2010-07-01T07:48:17Z</time>
      </trkpt>
      <trkpt lat="38.190795" lon="-2.562340">
        <ele>1035.5</ele>
        <time>2010-07-01T07:48:34Z</time>
      </trkpt>
      <trkpt lat="38.190930" lon="-2.562422">
        <ele>1034.0</ele>
        <time>2010-07-01T07:48:53Z</time>
      </trkpt>
      <trkpt lat="38.191196" lon="-2.562617">
        <ele>1022.0</ele>
        <time>2010-07-01T07:51:35Z</time>
      </trkpt>
      <trkpt lat="38.191463" lon="-2.562756">
        <ele>1016.3</ele>
        <time>2010-07-01T07:52:47Z</time>
      </trkpt>
      <trkpt lat="38.191660" lon="-2.562921">
        <ele>1014.3</ele>
        <time>2010-07-01T07:52:58Z</time>
      </trkpt>
      <trkpt lat="38.191778" lon="-2.563104">
        <ele>1012.9</ele>
        <time>2010-07-01T07:53:16Z</time>
      </trkpt>
      <trkpt lat="38.192066" lon="-2.563435">
        <ele>1008.6</ele>
        <time>2010-07-01T07:53:58Z</time>
      </trkpt>
      <trkpt lat="38.192605" lon="-2.563703">
        <ele>1011.9</ele>
        <time>2010-07-01T07:58:08Z</time>
      </trkpt>
      <trkpt lat="38.192589" lon="-2.564040">
        <ele>1010.0</ele>
        <time>2010-07-01T07:58:16Z</time>
      </trkpt>
      <trkpt lat="38.192677" lon="-2.564419">
        <ele>1009.0</ele>
        <time>2010-07-01T07:58:34Z</time>
      </trkpt>
      <trkpt lat="38.192865" lon="-2.564632">
        <ele>1004.7</ele>
        <time>2010-07-01T07:58:59Z</time>
      </trkpt>
      <trkpt lat="38.193137" lon="-2.564701">
        <ele>1004.2</ele>
        <time>2010-07-01T07:59:22Z</time>
      </trkpt>
      <trkpt lat="38.193426" lon="-2.564685">
        <ele>1002.8</ele>
        <time>2010-07-01T07:59:46Z</time>
      </trkpt>
      <trkpt lat="38.193524" lon="-2.564699">
        <ele>1000.4</ele>
        <time>2010-07-01T07:59:54Z</time>
      </trkpt>
      <trkpt lat="38.193661" lon="-2.564659">
        <ele>1000.9</ele>
        <time>2010-07-01T08:00:03Z</time>
      </trkpt>
      <trkpt lat="38.193827" lon="-2.564575">
        <ele>1000.4</ele>
        <time>2010-07-01T08:02:13Z</time>
      </trkpt>
      <trkpt lat="38.193969" lon="-2.564626">
        <ele>1001.4</ele>
        <time>2010-07-01T08:02:22Z</time>
      </trkpt>
      <trkpt lat="38.194107" lon="-2.564717">
        <ele>1001.4</ele>
        <time>2010-07-01T08:02:30Z</time>
      </trkpt>
      <trkpt lat="38.194284" lon="-2.564896">
        <ele>1002.3</ele>
        <time>2010-07-01T08:02:46Z</time>
      </trkpt>
      <trkpt lat="38.194630" lon="-2.565095">
        <ele>1000.9</ele>
        <time>2010-07-01T08:03:35Z</time>
      </trkpt>
      <trkpt lat="38.195055" lon="-2.565180">
        <ele>1000.9</ele>
        <time>2010-07-01T08:03:59Z</time>
      </trkpt>
      <trkpt lat="38.195183" lon="-2.565293">
        <ele>1000.4</ele>
        <time>2010-07-01T08:04:16Z</time>
      </trkpt>
      <trkpt lat="38.195181" lon="-2.565660">
        <ele>998.1</ele>
        <time>2010-07-01T07:16:35Z</time>
      </trkpt>
      <trkpt lat="38.195275" lon="-2.565883">
        <ele>996.5</ele>
        <time>2010-07-01T08:05:22Z</time>
      </trkpt>
      <trkpt lat="38.195507" lon="-2.566078">
        <ele>997.0</ele>
        <time>2010-07-01T08:05:47Z</time>
      </trkpt>
      <trkpt lat="38.195632" lon="-2.566226">
        <ele>995.6</ele>
        <time>2010-07-01T08:06:08Z</time>
      </trkpt>
      <trkpt lat="38.195829" lon="-2.566317">
        <ele>999.9</ele>
        <time>2010-07-01T08:08:58Z</time>
      </trkpt>
      <trkpt lat="38.196043" lon="-2.566438">
        <ele>999.4</ele>
        <time>2010-07-01T08:12:29Z</time>
      </trkpt>
      <trkpt lat="38.196205" lon="-2.566463">
        <ele>998.5</ele>
        <time>2010-07-01T07:09:25Z</time>
      </trkpt>
      <trkpt lat="38.196365" lon="-2.566602">
        <ele>997.5</ele>
        <time>2010-07-01T08:13:29Z</time>
      </trkpt>
      <trkpt lat="38.196603" lon="-2.566627">
        <ele>996.3</ele>
        <time>2010-07-01T05:42:19Z</time>
      </trkpt>
      <trkpt lat="38.196662" lon="-2.566679">
        <ele>996.0</ele>
        <time>2010-07-01T05:42:19Z</time>
      </trkpt>
      <trkpt lat="38.196669" lon="-2.566789">
        <ele>995.6</ele>
        <time>2010-07-01T08:15:47Z</time>
      </trkpt>
      <trkpt lat="38.196639" lon="-2.566894">
        <ele>995.1</ele>
        <time>2010-07-01T08:15:58Z</time>
      </trkpt>
      <trkpt lat="38.196653" lon="-2.567021">
        <ele>994.1</ele>
        <time>2010-07-01T08:16:10Z</time>
      </trkpt>
      <trkpt lat="38.196735" lon="-2.566990">
        <ele>988.4</ele>
        <time>2010-07-01T08:17:23Z</time>
      </trkpt>
      <trkpt lat="38.196880" lon="-2.566906">
        <ele>991.1</ele>
        <time>2010-07-01T06:50:36Z</time>
      </trkpt>
      <trkpt lat="38.197109" lon="-2.566894">
        <ele>994.9</ele>
        <time>2010-07-01T06:50:36Z</time>
      </trkpt>
      <trkpt lat="38.197278" lon="-2.566995">
        <ele>997.8</ele>
        <time>2010-07-01T06:50:36Z</time>
      </trkpt>
      <trkpt lat="38.197340" lon="-2.567016">
        <ele>998.9</ele>
        <time>2010-07-01T08:19:41Z</time>
      </trkpt>
      <trkpt lat="38.197426" lon="-2.567078">
        <ele>998.0</ele>
        <time>2010-07-01T08:19:50Z</time>
      </trkpt>
      <trkpt lat="38.197575" lon="-2.567151">
        <ele>997.0</ele>
        <time>2010-07-01T08:20:17Z</time>
      </trkpt>
      <trkpt lat="38.197658" lon="-2.567215">
        <ele>1013.3</ele>
        <time>2010-07-01T05:34:33Z</time>
      </trkpt>
      <trkpt lat="38.197699" lon="-2.567278">
        <ele>1016.3</ele>
        <time>2010-07-01T03:43:59Z</time>
      </trkpt>
      <trkpt lat="38.197730" lon="-2.567189">
        <ele>999.3</ele>
        <time>2010-07-01T01:38:28Z</time>
      </trkpt>
      <trkpt lat="38.197809" lon="-2.567075">
        <ele>999.3</ele>
        <time>2010-06-30T22:08:04Z</time>
      </trkpt>
      <trkpt lat="38.197945" lon="-2.567038">
        <ele>1000.2</ele>
        <time>2010-06-30T22:08:04Z</time>
      </trkpt>
      <trkpt lat="38.197946" lon="-2.567073">
        <ele>999.3</ele>
        <time>2010-07-01T00:33:23Z</time>
      </trkpt>
      <trkpt lat="38.197924" lon="-2.567151">
        <ele>1014.0</ele>
        <time>2010-07-01T05:49:08Z</time>
      </trkpt>
      <trkpt lat="38.197950" lon="-2.567177">
        <ele>1000.9</ele>
        <time>2010-07-01T08:29:59Z</time>
      </trkpt>
      <trkpt lat="38.198124" lon="-2.567095">
        <ele>1000.9</ele>
        <time>2010-07-01T08:30:34Z</time>
      </trkpt>
      <trkpt lat="38.198536" lon="-2.566917">
        <ele>1012.9</ele>
        <time>2010-07-01T08:35:37Z</time>
      </trkpt>
      <trkpt lat="38.198553" lon="-2.566986">
        <ele>1014.1</ele>
        <time>2010-07-01T06:20:35Z</time>
      </trkpt>
      <trkpt lat="38.198419" lon="-2.567325">
        <ele>1020.1</ele>
        <time>2010-07-01T08:37:29Z</time>
      </trkpt>
      <trkpt lat="38.198460" lon="-2.567379">
        <ele>1026.3</ele>
        <time>2010-07-01T08:39:04Z</time>
      </trkpt>
      <trkpt lat="38.198591" lon="-2.567437">
        <ele>1027.3</ele>
        <time>2010-07-01T08:39:29Z</time>
      </trkpt>
      <trkpt lat="38.198732" lon="-2.567426">
        <ele>1031.6</ele>
        <time>2010-07-01T08:40:58Z</time>
      </trkpt>
      <trkpt lat="38.198984" lon="-2.567232">
        <ele>1032.1</ele>
        <time>2010-07-01T08:41:11Z</time>
      </trkpt>
      <trkpt lat="38.199061" lon="-2.567252">
        <ele>1034.2</ele>
        <time>2010-07-01T06:46:28Z</time>
      </trkpt>
      <trkpt lat="38.199127" lon="-2.567510">
        <ele>1039.8</ele>
        <time>2010-07-01T08:42:21Z</time>
      </trkpt>
      <trkpt lat="38.199254" lon="-2.568026">
        <ele>1045.6</ele>
        <time>2010-07-01T08:43:37Z</time>
      </trkpt>
      <trkpt lat="38.199310" lon="-2.568241">
        <ele>1049.9</ele>
        <time>2010-07-01T08:44:17Z</time>
      </trkpt>
      <trkpt lat="38.199340" lon="-2.568293">
        <ele>1051.3</ele>
        <time>2010-07-01T08:44:35Z</time>
      </trkpt>
      <trkpt lat="38.199370" lon="-2.568384">
        <ele>1059.0</ele>
        <time>2010-07-01T08:45:05Z</time>
      </trkpt>
      <trkpt lat="38.199473" lon="-2.567738">
        <ele>1075.4</ele>
        <time>2010-07-01T08:55:34Z</time>
      </trkpt>
      <trkpt lat="38.199509" lon="-2.567497">
        <ele>1073.4</ele>
        <time>2010-07-01T08:55:53Z</time>
      </trkpt>
      <trkpt lat="38.199602" lon="-2.567264">
        <ele>1075.7</ele>
        <time>2010-07-01T07:43:10Z</time>
      </trkpt>
      <trkpt lat="38.199716" lon="-2.567156">
        <ele>1077.3</ele>
        <time>2010-07-01T08:56:47Z</time>
      </trkpt>
      <trkpt lat="38.200125" lon="-2.567076">
        <ele>1077.8</ele>
        <time>2010-07-01T08:57:10Z</time>
      </trkpt>
      <trkpt lat="38.200247" lon="-2.567089">
        <ele>1077.8</ele>
        <time>2010-07-01T08:57:19Z</time>
      </trkpt>
      <trkpt lat="38.200353" lon="-2.567060">
        <ele>1078.3</ele>
        <time>2010-07-01T08:57:28Z</time>
      </trkpt>
      <trkpt lat="38.200968" lon="-2.566932">
        <ele>1078.7</ele>
        <time>2010-07-01T08:59:17Z</time>
      </trkpt>
      <trkpt lat="38.201194" lon="-2.566880">
        <ele>1079.5</ele>
        <time>2010-07-01T08:37:58Z</time>
      </trkpt>
      <trkpt lat="38.201422" lon="-2.566921">
        <ele>1080.3</ele>
        <time>2010-07-01T08:37:58Z</time>
      </trkpt>
      <trkpt lat="38.201634" lon="-2.567150">
        <ele>1081.2</ele>
        <time>2010-07-01T08:37:58Z</time>
      </trkpt>
      <trkpt lat="38.201715" lon="-2.567267">
        <ele>1081.6</ele>
        <time>2010-07-01T08:59:52Z</time>
      </trkpt>
      <trkpt lat="38.201847" lon="-2.567363">
        <ele>1084.5</ele>
        <time>2010-07-01T09:00:01Z</time>
      </trkpt>
      <trkpt lat="38.201931" lon="-2.567432">
        <ele>1085.5</ele>
        <time>2010-07-01T09:00:10Z</time>
      </trkpt>
      <trkpt lat="38.202055" lon="-2.567704">
        <ele>1088.8</ele>
        <time>2010-07-01T09:00:38Z</time>
      </trkpt>
      <trkpt lat="38.202170" lon="-2.567961">
        <ele>1089.8</ele>
        <time>2010-07-01T09:01:41Z</time>
      </trkpt>
      <trkpt lat="38.202525" lon="-2.568023">
        <ele>1092.7</ele>
        <time>2010-07-01T09:02:47Z</time>
      </trkpt>
      <trkpt lat="38.202702" lon="-2.568043">
        <ele>1096.0</ele>
        <time>2010-07-01T05:31:26Z</time>
      </trkpt>
      <trkpt lat="38.202822" lon="-2.568166">
        <ele>1098.4</ele>
        <time>2010-07-01T05:31:26Z</time>
      </trkpt>
      <trkpt lat="38.202897" lon="-2.568174">
        <ele>1100.0</ele>
        <time>2010-07-01T05:31:26Z</time>
      </trkpt>
      <trkpt lat="38.202944" lon="-2.568095">
        <ele>1100.4</ele>
        <time>2010-07-01T05:31:26Z</time>
      </trkpt>
      <trkpt lat="38.203128" lon="-2.567816">
        <ele>1104.7</ele>
        <time>2010-07-01T09:07:04Z</time>
      </trkpt>
      <trkpt lat="38.203381" lon="-2.567450">
        <ele>1106.6</ele>
        <time>2010-07-01T09:07:23Z</time>
      </trkpt>
      <trkpt lat="38.203554" lon="-2.567278">
        <ele>1108.4</ele>
        <time>2010-07-01T07:49:50Z</time>
      </trkpt>
      <trkpt lat="38.203760" lon="-2.567207">
        <ele>1110.0</ele>
        <time>2010-07-01T07:49:50Z</time>
      </trkpt>
      <trkpt lat="38.204116" lon="-2.567322">
        <ele>1112.9</ele>
        <time>2010-07-01T07:49:50Z</time>
      </trkpt>
      <trkpt lat="38.204407" lon="-2.567433">
        <ele>1115.3</ele>
        <time>2010-07-01T09:09:53Z</time>
      </trkpt>
      <trkpt lat="38.204644" lon="-2.567469">
        <ele>1114.3</ele>
        <time>2010-07-01T09:10:40Z</time>
      </trkpt>
      <trkpt lat="38.204894" lon="-2.567623">
        <ele>1118.8</ele>
        <time>2010-07-01T07:50:52Z</time>
      </trkpt>
      <trkpt lat="38.205114" lon="-2.567756">
        <ele>1122.4</ele>
        <time>2010-07-01T07:50:52Z</time>
      </trkpt>
      <trkpt lat="38.205263" lon="-2.567782">
        <ele>1124.5</ele>
        <time>2010-07-01T07:50:52Z</time>
      </trkpt>
      <trkpt lat="38.205557" lon="-2.567491">
        <ele>1129.7</ele>
        <time>2010-07-01T09:12:52Z</time>
      </trkpt>
      <trkpt lat="38.205734" lon="-2.567324">
        <ele>1130.6</ele>
        <time>2010-07-01T09:13:10Z</time>
      </trkpt>
      <trkpt lat="38.206037" lon="-2.567086">
        <ele>1130.2</ele>
        <time>2010-07-01T09:13:46Z</time>
      </trkpt>
      <trkpt lat="38.206425" lon="-2.566881">
        <ele>1130.2</ele>
        <time>2010-07-01T09:14:29Z</time>
      </trkpt>
      <trkpt lat="38.206586" lon="-2.566863">
        <ele>1130.2</ele>
        <time>2010-07-01T09:14:41Z</time>
      </trkpt>
      <trkpt lat="38.206777" lon="-2.567007">
        <ele>1160.4</ele>
        <time>2010-07-01T09:18:11Z</time>
      </trkpt>
      <trkpt lat="38.206992" lon="-2.567113">
        <ele>1162.2</ele>
        <time>2010-07-01T09:12:32Z</time>
      </trkpt>
      <trkpt lat="38.207052" lon="-2.567139">
        <ele>1162.7</ele>
        <time>2010-07-01T09:12:32Z</time>
      </trkpt>
      <trkpt lat="38.207300" lon="-2.566972">
        <ele>1164.8</ele>
        <time>2010-07-01T09:12:32Z</time>
      </trkpt>
      <trkpt lat="38.207715" lon="-2.566985">
        <ele>1168.0</ele>
        <time>2010-07-01T09:12:32Z</time>
      </trkpt>
      <trkpt lat="38.207926" lon="-2.567043">
        <ele>1169.6</ele>
        <time>2010-07-01T09:18:22Z</time>
      </trkpt>
      <trkpt lat="38.208048" lon="-2.567058">
        <ele>1165.3</ele>
        <time>2010-07-01T09:18:39Z</time>
      </trkpt>
      <trkpt lat="38.208205" lon="-2.567095">
        <ele>1164.8</ele>
        <time>2010-07-01T09:18:53Z</time>
      </trkpt>
      <trkpt lat="38.208353" lon="-2.567100">
        <ele>1164.3</ele>
        <time>2010-07-01T09:19:03Z</time>
      </trkpt>
      <trkpt lat="38.208493" lon="-2.567168">
        <ele>1163.3</ele>
        <time>2010-07-01T09:19:29Z</time>
      </trkpt>
      <trkpt lat="38.208679" lon="-2.567280">
        <ele>1165.2</ele>
        <time>2010-07-01T06:41:20Z</time>
      </trkpt>
      <trkpt lat="38.208802" lon="-2.567349">
        <ele>1166.0</ele>
        <time>2010-07-01T06:41:20Z</time>
      </trkpt>
      <trkpt lat="38.208832" lon="-2.567444">
        <ele>1166.5</ele>
        <time>2010-07-01T06:41:20Z</time>
      </trkpt>
      <trkpt lat="38.208786" lon="-2.567498">
        <ele>1166.8</ele>
        <time>2010-07-01T06:41:20Z</time>
      </trkpt>
      <trkpt lat="38.208710" lon="-2.567552">
        <ele>1167.2</ele>
        <time>2010-07-01T09:21:04Z</time>
      </trkpt>
      <trkpt lat="38.208562" lon="-2.567452">
        <ele>1166.8</ele>
        <time>2010-07-01T06:19:19Z</time>
      </trkpt>
      <trkpt lat="38.208506" lon="-2.567415">
        <ele>1166.7</ele>
        <time>2010-07-01T09:22:11Z</time>
      </trkpt>
      <trkpt lat="38.208469" lon="-2.567500">
        <ele>1169.6</ele>
        <time>2010-07-01T05:00:44Z</time>
      </trkpt>
      <trkpt lat="38.208448" lon="-2.567570">
        <ele>1171.4</ele>
        <time>2010-07-01T05:00:44Z</time>
      </trkpt>
      <trkpt lat="38.208520" lon="-2.567628">
        <ele>1173.9</ele>
        <time>2010-07-01T09:23:21Z</time>
      </trkpt>
      <trkpt lat="38.208786" lon="-2.567702">
        <ele>1176.6</ele>
        <time>2010-07-01T08:28:39Z</time>
      </trkpt>
      <trkpt lat="38.208925" lon="-2.567804">
        <ele>1178.2</ele>
        <time>2010-07-01T09:23:58Z</time>
      </trkpt>
      <trkpt lat="38.209108" lon="-2.567872">
        <ele>1178.2</ele>
        <time>2010-07-01T09:24:10Z</time>
      </trkpt>
      <trkpt lat="38.209170" lon="-2.567668">
        <ele>1179.2</ele>
        <time>2010-07-01T09:24:28Z</time>
      </trkpt>
      <trkpt lat="38.209170" lon="-2.567507">
        <ele>1179.2</ele>
        <time>2010-07-01T09:04:51Z</time>
      </trkpt>
      <trkpt lat="38.209250" lon="-2.567458">
        <ele>1179.2</ele>
        <time>2010-07-01T09:04:51Z</time>
      </trkpt>
      <trkpt lat="38.209344" lon="-2.567474">
        <ele>1179.2</ele>
        <time>2010-07-01T09:04:51Z</time>
      </trkpt>
      <trkpt lat="38.209386" lon="-2.567640">
        <ele>1179.2</ele>
        <time>2010-07-01T09:04:51Z</time>
      </trkpt>
      <trkpt lat="38.209421" lon="-2.567773">
        <ele>1179.2</ele>
        <time>2010-07-01T09:24:36Z</time>
      </trkpt>
      <trkpt lat="38.209384" lon="-2.568063">
        <ele>1178.7</ele>
        <time>2010-07-01T09:24:45Z</time>
      </trkpt>
      <trkpt lat="38.209240" lon="-2.568240">
        <ele>1180.8</ele>
        <time>2010-07-01T06:23:34Z</time>
      </trkpt>
      <trkpt lat="38.209093" lon="-2.568439">
        <ele>1183.1</ele>
        <time>2010-07-01T06:23:34Z</time>
      </trkpt>
      <trkpt lat="38.209021" lon="-2.568504">
        <ele>1184.0</ele>
        <time>2010-07-01T09:27:04Z</time>
      </trkpt>
      <trkpt lat="38.208853" lon="-2.568505">
        <ele>1185.1</ele>
        <time>2010-07-01T07:59:57Z</time>
      </trkpt>
      <trkpt lat="38.208785" lon="-2.568570">
        <ele>1185.5</ele>
        <time>2010-07-01T07:59:57Z</time>
      </trkpt>
      <trkpt lat="38.208794" lon="-2.568696">
        <ele>1185.9</ele>
        <time>2010-07-01T09:27:35Z</time>
      </trkpt>
      <trkpt lat="38.208839" lon="-2.568859">
        <ele>1190.0</ele>
        <time>2010-07-01T09:27:55Z</time>
      </trkpt>
      <trkpt lat="38.208921" lon="-2.569007">
        <ele>1190.9</ele>
        <time>2010-07-01T09:28:17Z</time>
      </trkpt>
      <trkpt lat="38.209049" lon="-2.569025">
        <ele>1192.2</ele>
        <time>2010-07-01T09:28:37Z</time>
      </trkpt>
      <trkpt lat="38.209243" lon="-2.568926">
        <ele>1198.9</ele>
        <time>2010-07-01T09:29:35Z</time>
      </trkpt>
      <trkpt lat="38.209325" lon="-2.568885">
        <ele>1198.4</ele>
        <time>2010-07-01T09:29:44Z</time>
      </trkpt>
      <trkpt lat="38.209538" lon="-2.568710">
        <ele>1197.3</ele>
        <time>2010-07-01T08:29:58Z</time>
      </trkpt>
      <trkpt lat="38.209689" lon="-2.568570">
        <ele>1196.5</ele>
        <time>2010-07-01T09:30:23Z</time>
      </trkpt>
      <trkpt lat="38.209867" lon="-2.568515">
        <ele>1197.5</ele>
        <time>2010-07-01T09:30:41Z</time>
      </trkpt>
      <trkpt lat="38.210015" lon="-2.568370">
        <ele>1197.5</ele>
        <time>2010-07-01T09:30:50Z</time>
      </trkpt>
      <trkpt lat="38.210010" lon="-2.568262">
        <ele>1197.5</ele>
        <time>2010-07-01T09:31:01Z</time>
      </trkpt>
      <trkpt lat="38.209976" lon="-2.568134">
        <ele>1199.4</ele>
        <time>2010-07-01T09:31:11Z</time>
      </trkpt>
      <trkpt lat="38.209950" lon="-2.568070">
        <ele>1200.3</ele>
        <time>2010-07-01T09:31:22Z</time>
      </trkpt>
      <trkpt lat="38.209978" lon="-2.567872">
        <ele>1207.6</ele>
        <time>2010-07-01T09:33:35Z</time>
      </trkpt>
      <trkpt lat="38.210037" lon="-2.567764">
        <ele>1208.8</ele>
        <time>2010-07-01T04:14:55Z</time>
      </trkpt>
      <trkpt lat="38.210105" lon="-2.567743">
        <ele>1209.6</ele>
        <time>2010-07-01T04:14:55Z</time>
      </trkpt>
      <trkpt lat="38.210164" lon="-2.567758">
        <ele>1210.3</ele>
        <time>2010-07-01T04:14:55Z</time>
      </trkpt>
      <trkpt lat="38.210215" lon="-2.567779">
        <ele>1210.9</ele>
        <time>2010-07-01T04:14:55Z</time>
      </trkpt>
      <trkpt lat="38.210220" lon="-2.567875">
        <ele>1211.7</ele>
        <time>2010-07-01T04:14:55Z</time>
      </trkpt>
      <trkpt lat="38.210292" lon="-2.568004">
        <ele>1212.9</ele>
        <time>2010-07-01T04:14:55Z</time>
      </trkpt>
      <trkpt lat="38.210347" lon="-2.568052">
        <ele>1213.4</ele>
        <time>2010-07-01T04:14:55Z</time>
      </trkpt>
      <trkpt lat="38.210444" lon="-2.568025">
        <ele>1214.3</ele>
        <time>2010-07-01T09:37:15Z</time>
      </trkpt>
      <trkpt lat="38.210617" lon="-2.567868">
        <ele>1219.8</ele>
        <time>2010-07-01T05:39:28Z</time>
      </trkpt>
      <trkpt lat="38.210731" lon="-2.567793">
        <ele>1223.1</ele>
        <time>2010-07-01T05:39:28Z</time>
      </trkpt>
      <trkpt lat="38.210810" lon="-2.567653">
        <ele>1226.5</ele>
        <time>2010-07-01T05:39:28Z</time>
      </trkpt>
      <trkpt lat="38.210903" lon="-2.567561">
        <ele>1229.3</ele>
        <time>2010-07-01T05:39:28Z</time>
      </trkpt>
      <trkpt lat="38.211034" lon="-2.567518">
        <ele>1232.5</ele>
        <time>2010-07-01T05:39:28Z</time>
      </trkpt>
      <trkpt lat="38.211157" lon="-2.567524">
        <ele>1235.4</ele>
        <time>2010-07-01T09:41:50Z</time>
      </trkpt>
      <trkpt lat="38.211151" lon="-2.567658">
        <ele>1243.1</ele>
        <time>2010-07-01T09:42:04Z</time>
      </trkpt>
      <trkpt lat="38.211165" lon="-2.567790">
        <ele>1243.6</ele>
        <time>2010-07-01T09:42:18Z</time>
      </trkpt>
      <trkpt lat="38.211225" lon="-2.568025">
        <ele>1247.0</ele>
        <time>2010-07-01T09:42:40Z</time>
      </trkpt>
      <trkpt lat="38.211431" lon="-2.567848">
        <ele>1257.1</ele>
        <time>2010-07-01T09:45:25Z</time>
      </trkpt>
      <trkpt lat="38.211584" lon="-2.567842">
        <ele>1262.3</ele>
        <time>2010-07-01T09:47:47Z</time>
      </trkpt>
      <trkpt lat="38.211562" lon="-2.567760">
        <ele>1280.1</ele>
        <time>2010-07-01T10:17:45Z</time>
      </trkpt>
      <trkpt lat="38.212020" lon="-2.568033">
        <ele>1284.5</ele>
        <time>2010-07-01T10:32:21Z</time>
      </trkpt>
      <trkpt lat="38.212104" lon="-2.568001">
        <ele>1284.5</ele>
        <time>2010-07-01T10:32:35Z</time>
      </trkpt>
      <trkpt lat="38.212462" lon="-2.568257">
        <ele>1292.7</ele>
        <time>2010-07-01T10:34:54Z</time>
      </trkpt>
      <trkpt lat="38.212956" lon="-2.568332">
        <ele>1298.9</ele>
        <time>2010-07-01T10:37:43Z</time>
      </trkpt>
      <trkpt lat="38.213392" lon="-2.568360">
        <ele>1297.4</ele>
        <time>2010-07-01T10:38:45Z</time>
      </trkpt>
      <trkpt lat="38.213524" lon="-2.568347">
        <ele>1298.9</ele>
        <time>2010-07-01T10:38:55Z</time>
      </trkpt>
      <trkpt lat="38.213658" lon="-2.568321">
        <ele>1302.7</ele>
        <time>2010-07-01T10:39:06Z</time>
      </trkpt>
      <trkpt lat="38.213896" lon="-2.568368">
        <ele>1306.6</ele>
        <time>2010-07-01T10:39:26Z</time>
      </trkpt>
      <trkpt lat="38.213987" lon="-2.568429">
        <ele>1306.6</ele>
        <time>2010-07-01T10:39:35Z</time>
      </trkpt>
      <trkpt lat="38.214099" lon="-2.568480">
        <ele>1310.9</ele>
        <time>2010-07-01T10:39:47Z</time>
      </trkpt>
      <trkpt lat="38.214350" lon="-2.568451">
        <ele>1313.1</ele>
        <time>2010-07-01T08:54:28Z</time>
      </trkpt>
      <trkpt lat="38.214600" lon="-2.568568">
        <ele>1315.4</ele>
        <time>2010-07-01T08:54:28Z</time>
      </trkpt>
      <trkpt lat="38.214854" lon="-2.568593">
        <ele>1317.6</ele>
        <time>2010-07-01T10:41:30Z</time>
      </trkpt>
      <trkpt lat="38.215265" lon="-2.568435">
        <ele>1326.3</ele>
        <time>2010-07-01T10:44:50Z</time>
      </trkpt>
      <trkpt lat="38.215483" lon="-2.568301">
        <ele>1330.6</ele>
        <time>2010-07-01T10:45:28Z</time>
      </trkpt>
      <trkpt lat="38.215596" lon="-2.568274">
        <ele>1329.2</ele>
        <time>2010-07-01T10:45:42Z</time>
      </trkpt>
      <trkpt lat="38.215702" lon="-2.568215">
        <ele>1331.6</ele>
        <time>2010-07-01T10:45:54Z</time>
      </trkpt>
      <trkpt lat="38.216103" lon="-2.567910">
        <ele>1348.9</ele>
        <time>2010-07-01T10:48:34Z</time>
      </trkpt>
      <trkpt lat="38.216228" lon="-2.567805">
        <ele>1362.8</ele>
        <time>2010-07-01T10:50:34Z</time>
      </trkpt>
      <trkpt lat="38.216345" lon="-2.567775">
        <ele>1361.4</ele>
        <time>2010-07-01T10:50:44Z</time>
      </trkpt>
      <trkpt lat="38.216444" lon="-2.567721">
        <ele>1362.3</ele>
        <time>2010-07-01T10:50:53Z</time>
      </trkpt>
      <trkpt lat="38.216819" lon="-2.567885">
        <ele>1359.9</ele>
        <time>2010-07-01T10:53:37Z</time>
      </trkpt>
      <trkpt lat="38.216910" lon="-2.568052">
        <ele>1359.4</ele>
        <time>2010-07-01T10:53:58Z</time>
      </trkpt>
      <trkpt lat="38.216982" lon="-2.568206">
        <ele>1359.0</ele>
        <time>2010-07-01T10:54:09Z</time>
      </trkpt>
      <trkpt lat="38.217060" lon="-2.568374">
        <ele>1360.4</ele>
        <time>2010-07-01T10:54:22Z</time>
      </trkpt>
      <trkpt lat="38.217146" lon="-2.568490">
        <ele>1360.9</ele>
        <time>2010-07-01T10:54:47Z</time>
      </trkpt>
      <trkpt lat="38.217197" lon="-2.568534">
        <ele>1361.0</ele>
        <time>2010-07-01T03:45:52Z</time>
      </trkpt>
      <trkpt lat="38.217402" lon="-2.568621">
        <ele>1361.4</ele>
        <time>2010-07-01T10:57:09Z</time>
      </trkpt>
      <trkpt lat="38.217734" lon="-2.568800">
        <ele>1361.8</ele>
        <time>2010-07-01T10:57:57Z</time>
      </trkpt>
      <trkpt lat="38.218022" lon="-2.568833">
        <ele>1364.4</ele>
        <time>2010-07-01T03:44:16Z</time>
      </trkpt>
      <trkpt lat="38.218168" lon="-2.568863">
        <ele>1365.7</ele>
        <time>2010-07-01T03:44:16Z</time>
      </trkpt>
      <trkpt lat="38.218270" lon="-2.568927">
        <ele>1366.7</ele>
        <time>2010-07-01T11:02:37Z</time>
      </trkpt>
      <trkpt lat="38.218327" lon="-2.569002">
        <ele>1369.5</ele>
        <time>2010-07-01T05:19:14Z</time>
      </trkpt>
      <trkpt lat="38.218397" lon="-2.569097">
        <ele>1372.6</ele>
        <time>2010-07-01T05:19:14Z</time>
      </trkpt>
      <trkpt lat="38.218304" lon="-2.569421">
        <ele>1380.7</ele>
        <time>2010-07-01T05:19:14Z</time>
      </trkpt>
      <trkpt lat="38.218173" lon="-2.569624">
        <ele>1386.7</ele>
        <time>2010-07-01T05:19:14Z</time>
      </trkpt>
      <trkpt lat="38.217924" lon="-2.569854">
        <ele>1395.5</ele>
        <time>2010-07-01T05:19:14Z</time>
      </trkpt>
      <trkpt lat="38.217774" lon="-2.569891">
        <ele>1399.8</ele>
        <time>2010-07-01T11:08:41Z</time>
      </trkpt>
      <trkpt lat="38.217510" lon="-2.569854">
        <ele>1400.3</ele>
        <time>2010-07-01T11:09:27Z</time>
      </trkpt>
      <trkpt lat="38.217383" lon="-2.569971">
        <ele>1399.8</ele>
        <time>2010-07-01T11:11:56Z</time>
      </trkpt>
      <trkpt lat="38.217356" lon="-2.570106">
        <ele>1416.6</ele>
        <time>2010-07-01T11:16:04Z</time>
      </trkpt>
      <trkpt lat="38.217284" lon="-2.570287">
        <ele>1421.0</ele>
        <time>2010-07-01T11:16:23Z</time>
      </trkpt>
      <trkpt lat="38.217080" lon="-2.570394">
        <ele>1437.3</ele>
        <time>2010-07-01T11:19:57Z</time>
      </trkpt>
      <trkpt lat="38.217013" lon="-2.570422">
        <ele>1442.1</ele>
        <time>2010-07-01T11:20:16Z</time>
      </trkpt>
      <trkpt lat="38.216967" lon="-2.570501">
        <ele>1448.6</ele>
        <time>2010-06-30T21:31:44Z</time>
      </trkpt>
      <trkpt lat="38.216949" lon="-2.570603">
        <ele>1455.6</ele>
        <time>2010-07-01T11:22:42Z</time>
      </trkpt>
      <trkpt lat="38.216998" lon="-2.570698">
        <ele>1453.2</ele>
        <time>2010-07-01T11:23:17Z</time>
      </trkpt>
      <trkpt lat="38.217053" lon="-2.570717">
        <ele>1453.2</ele>
        <time>2010-07-01T11:23:40Z</time>
      </trkpt>
      <trkpt lat="38.217133" lon="-2.570670">
        <ele>1453.2</ele>
        <time>2010-07-01T11:23:49Z</time>
      </trkpt>
      <trkpt lat="38.217183" lon="-2.570659">
        <ele>1453.2</ele>
        <time>2010-07-01T11:24:00Z</time>
      </trkpt>
      <trkpt lat="38.217063" lon="-2.570777">
        <ele>1454.6</ele>
        <time>2010-07-01T11:24:22Z</time>
      </trkpt>
      <trkpt lat="38.217140" lon="-2.570810">
        <ele>1454.1</ele>
        <time>2010-07-01T11:24:51Z</time>
      </trkpt>
      <trkpt lat="38.217101" lon="-2.570891">
        <ele>1457.0</ele>
        <time>2010-07-01T11:25:16Z</time>
      </trkpt>
      <trkpt lat="38.217141" lon="-2.570957">
        <ele>1457.5</ele>
        <time>2010-07-01T11:25:27Z</time>
      </trkpt>
      <trkpt lat="38.217244" lon="-2.570981">
        <ele>1459.9</ele>
        <time>2010-07-01T11:25:39Z</time>
      </trkpt>
      <trkpt lat="38.217311" lon="-2.570983">
        <ele>1462.3</ele>
        <time>2010-07-01T11:25:50Z</time>
      </trkpt>
      <trkpt lat="38.217216" lon="-2.571036">
        <ele>1468.6</ele>
        <time>2010-07-01T11:26:07Z</time>
      </trkpt>
      <trkpt lat="38.217127" lon="-2.571109">
        <ele>1469.0</ele>
        <time>2010-07-01T11:26:18Z</time>
      </trkpt>
      <trkpt lat="38.217112" lon="-2.571170">
        <ele>1468.6</ele>
        <time>2010-07-01T11:26:32Z</time>
      </trkpt>
      <trkpt lat="38.217230" lon="-2.571163">
        <ele>1471.0</ele>
        <time>2010-07-01T11:26:44Z</time>
      </trkpt>
      <trkpt lat="38.217324" lon="-2.571129">
        <ele>1471.0</ele>
        <time>2010-07-01T11:26:55Z</time>
      </trkpt>
      <trkpt lat="38.217289" lon="-2.571193">
        <ele>1471.9</ele>
        <time>2010-07-01T11:27:08Z</time>
      </trkpt>
      <trkpt lat="38.217300" lon="-2.571260">
        <ele>1470.5</ele>
        <time>2010-07-01T11:27:24Z</time>
      </trkpt>
      <trkpt lat="38.217386" lon="-2.571260">
        <ele>1471.9</ele>
        <time>2010-07-01T11:27:34Z</time>
      </trkpt>
      <trkpt lat="38.217285" lon="-2.571351">
        <ele>1474.3</ele>
        <time>2010-07-01T11:27:53Z</time>
      </trkpt>
      <trkpt lat="38.217169" lon="-2.571432">
        <ele>1479.6</ele>
        <time>2010-07-01T11:28:18Z</time>
      </trkpt>
      <trkpt lat="38.217114" lon="-2.571532">
        <ele>1487.8</ele>
        <time>2010-07-01T11:29:19Z</time>
      </trkpt>
      <trkpt lat="38.217041" lon="-2.571684">
        <ele>1485.4</ele>
        <time>2010-07-01T11:30:10Z</time>
      </trkpt>
      <trkpt lat="38.216977" lon="-2.571765">
        <ele>1486.8</ele>
        <time>2010-07-01T11:30:23Z</time>
      </trkpt>
      <trkpt lat="38.216987" lon="-2.571874">
        <ele>1489.2</ele>
        <time>2010-07-01T11:30:38Z</time>
      </trkpt>
      <trkpt lat="38.216942" lon="-2.572001">
        <ele>1490.7</ele>
        <time>2010-07-01T11:30:59Z</time>
      </trkpt>
      <trkpt lat="38.216676" lon="-2.572426">
        <ele>1490.2</ele>
        <time>2010-07-01T11:32:35Z</time>
      </trkpt>
      <trkpt lat="38.216590" lon="-2.572526">
        <ele>1490.7</ele>
        <time>2010-07-01T11:32:46Z</time>
      </trkpt>
      <trkpt lat="38.216427" lon="-2.572672">
        <ele>1489.7</ele>
        <time>2010-07-01T11:33:04Z</time>
      </trkpt>
      <trkpt lat="38.216344" lon="-2.572693">
        <ele>1489.9</ele>
        <time>2010-06-30T11:41:26Z</time>
      </trkpt>
      <trkpt lat="38.216262" lon="-2.572916">
        <ele>1490.2</ele>
        <time>2010-07-01T11:39:23Z</time>
      </trkpt>
      <trkpt lat="38.216198" lon="-2.573072">
        <ele>1511.9</ele>
        <time>2010-07-01T11:40:38Z</time>
      </trkpt>
      <trkpt lat="38.216182" lon="-2.573608">
        <ele>1500.3</ele>
        <time>2010-07-01T11:44:30Z</time>
      </trkpt>
      <trkpt lat="38.216200" lon="-2.573940">
        <ele>1500.3</ele>
        <time>2010-07-01T11:07:55Z</time>
      </trkpt>
      <trkpt lat="38.216198" lon="-2.574071">
        <ele>1500.3</ele>
        <time>2010-07-01T11:44:44Z</time>
      </trkpt>
      <trkpt lat="38.216167" lon="-2.574254">
        <ele>1499.8</ele>
        <time>2010-06-30T18:40:48Z</time>
      </trkpt>
      <trkpt lat="38.215903" lon="-2.574525">
        <ele>1498.8</ele>
        <time>2010-07-01T11:52:59Z</time>
      </trkpt>
      <trkpt lat="38.215698" lon="-2.574671">
        <ele>1498.8</ele>
        <time>2010-07-01T11:53:17Z</time>
      </trkpt>
      <trkpt lat="38.215608" lon="-2.574815">
        <ele>1498.8</ele>
        <time>2010-07-01T11:53:26Z</time>
      </trkpt>
      <trkpt lat="38.215522" lon="-2.574931">
        <ele>1498.4</ele>
        <time>2010-07-01T11:53:36Z</time>
      </trkpt>
      <trkpt lat="38.215450" lon="-2.575075">
        <ele>1497.9</ele>
        <time>2010-07-01T11:53:55Z</time>
      </trkpt>
      <trkpt lat="38.215374" lon="-2.575242">
        <ele>1497.9</ele>
        <time>2010-07-01T11:54:03Z</time>
      </trkpt>
      <trkpt lat="38.215351" lon="-2.575363">
        <ele>1497.9</ele>
        <time>2010-07-01T11:54:12Z</time>
      </trkpt>
      <trkpt lat="38.215325" lon="-2.575525">
        <ele>1497.4</ele>
        <time>2010-07-01T11:54:20Z</time>
      </trkpt>
      <trkpt lat="38.215338" lon="-2.575663">
        <ele>1497.4</ele>
        <time>2010-07-01T11:54:41Z</time>
      </trkpt>
      <trkpt lat="38.215334" lon="-2.576090">
        <ele>1497.9</ele>
        <time>2010-07-01T11:56:27Z</time>
      </trkpt>
      <trkpt lat="38.215384" lon="-2.576155">
        <ele>1500.3</ele>
        <time>2010-07-01T12:05:32Z</time>
      </trkpt>
      <trkpt lat="38.215487" lon="-2.576152">
        <ele>1499.3</ele>
        <time>2010-07-01T12:05:40Z</time>
      </trkpt>
      <trkpt lat="38.215714" lon="-2.576264">
        <ele>1499.3</ele>
        <time>2010-07-01T12:06:05Z</time>
      </trkpt>
      <trkpt lat="38.215755" lon="-2.576367">
        <ele>1498.8</ele>
        <time>2010-07-01T12:06:13Z</time>
      </trkpt>
      <trkpt lat="38.215782" lon="-2.576535">
        <ele>1498.8</ele>
        <time>2010-07-01T12:06:21Z</time>
      </trkpt>
      <trkpt lat="38.215769" lon="-2.576702">
        <ele>1493.9</ele>
        <time>2010-07-01T12:07:33Z</time>
      </trkpt>
      <trkpt lat="38.215844" lon="-2.576932">
        <ele>1487.3</ele>
        <time>2010-07-01T12:09:22Z</time>
      </trkpt>
      <trkpt lat="38.216070" lon="-2.577226">
        <ele>1483.5</ele>
        <time>2010-07-01T12:14:50Z</time>
      </trkpt>
      <trkpt lat="38.216207" lon="-2.577187">
        <ele>1482.1</ele>
        <time>2010-07-01T08:11:10Z</time>
      </trkpt>
      <trkpt lat="38.216343" lon="-2.577213">
        <ele>1481.1</ele>
        <time>2010-07-01T08:11:10Z</time>
      </trkpt>
      <trkpt lat="38.216354" lon="-2.577161">
        <ele>1474.8</ele>
        <time>2010-07-01T08:11:10Z</time>
      </trkpt>
      <trkpt lat="38.216404" lon="-2.577165">
        <ele>1481.0</ele>
        <time>2010-07-01T08:11:10Z</time>
      </trkpt>
      <trkpt lat="38.216438" lon="-2.577254">
        <ele>1480.2</ele>
        <time>2010-07-01T08:11:10Z</time>
      </trkpt>
      <trkpt lat="38.216407" lon="-2.577337">
        <ele>1479.2</ele>
        <time>2010-07-01T08:11:10Z</time>
      </trkpt>
      <trkpt lat="38.216436" lon="-2.577445">
        <ele>1478.1</ele>
        <time>2010-07-01T08:11:10Z</time>
      </trkpt>
      <trkpt lat="38.216410" lon="-2.577573">
        <ele>1477.0</ele>
        <time>2010-07-01T08:11:10Z</time>
      </trkpt>
      <trkpt lat="38.216432" lon="-2.577707">
        <ele>1476.3</ele>
        <time>2010-07-01T08:11:10Z</time>
      </trkpt>
      <trkpt lat="38.216498" lon="-2.577663">
        <ele>1475.8</ele>
        <time>2010-07-01T12:16:41Z</time>
      </trkpt>
      <trkpt lat="38.216549" lon="-2.577783">
        <ele>1468.6</ele>
        <time>2010-07-01T12:18:13Z</time>
      </trkpt>
      <trkpt lat="38.216606" lon="-2.577871">
        <ele>1465.2</ele>
        <time>2010-07-01T12:18:40Z</time>
      </trkpt>
      <trkpt lat="38.216653" lon="-2.577859">
        <ele>1444.9</ele>
        <time>2010-07-01T09:24:11Z</time>
      </trkpt>
      <trkpt lat="38.216688" lon="-2.577837">
        <ele>1444.5</ele>
        <time>2010-07-01T09:24:11Z</time>
      </trkpt>
      <trkpt lat="38.216688" lon="-2.577765">
        <ele>1462.8</ele>
        <time>2010-07-01T12:18:59Z</time>
      </trkpt>
      <trkpt lat="38.216752" lon="-2.577703">
        <ele>1457.0</ele>
        <time>2010-07-01T12:19:40Z</time>
      </trkpt>
      <trkpt lat="38.216835" lon="-2.577735">
        <ele>1453.2</ele>
        <time>2010-07-01T12:20:52Z</time>
      </trkpt>
      <trkpt lat="38.216989" lon="-2.577781">
        <ele>1446.9</ele>
        <time>2010-07-01T12:21:35Z</time>
      </trkpt>
      <trkpt lat="38.217098" lon="-2.577841">
        <ele>1446.0</ele>
        <time>2010-07-01T12:21:47Z</time>
      </trkpt>
      <trkpt lat="38.217147" lon="-2.578032">
        <ele>1443.2</ele>
        <time>2010-07-01T09:20:02Z</time>
      </trkpt>
      <trkpt lat="38.217293" lon="-2.578095">
        <ele>1440.6</ele>
        <time>2010-07-01T09:20:02Z</time>
      </trkpt>
      <trkpt lat="38.217363" lon="-2.578139">
        <ele>1439.2</ele>
        <time>2010-07-01T12:22:49Z</time>
      </trkpt>
      <trkpt lat="38.217457" lon="-2.578158">
        <ele>1436.3</ele>
        <time>2010-07-01T12:22:59Z</time>
      </trkpt>
      <trkpt lat="38.217603" lon="-2.578188">
        <ele>1433.3</ele>
        <time>2010-07-01T10:07:11Z</time>
      </trkpt>
      <trkpt lat="38.217720" lon="-2.578267">
        <ele>1430.6</ele>
        <time>2010-07-01T10:07:11Z</time>
      </trkpt>
      <trkpt lat="38.217835" lon="-2.578418">
        <ele>1427.3</ele>
        <time>2010-07-01T10:07:11Z</time>
      </trkpt>
      <trkpt lat="38.218001" lon="-2.578713">
        <ele>1421.6</ele>
        <time>2010-07-01T10:07:11Z</time>
      </trkpt>
      <trkpt lat="38.218033" lon="-2.578804">
        <ele>1420.0</ele>
        <time>2010-07-01T12:24:39Z</time>
      </trkpt>
      <trkpt lat="38.218042" lon="-2.578898">
        <ele>1406.5</ele>
        <time>2010-07-01T12:26:04Z</time>
      </trkpt>
      <trkpt lat="38.218280" lon="-2.579034">
        <ele>1404.6</ele>
        <time>2010-07-01T12:26:16Z</time>
      </trkpt>
      <trkpt lat="38.218339" lon="-2.579351">
        <ele>1385.4</ele>
        <time>2010-07-01T12:29:25Z</time>
      </trkpt>
      <trkpt lat="38.218605" lon="-2.579309">
        <ele>1377.2</ele>
        <time>2010-07-01T12:30:35Z</time>
      </trkpt>
      <trkpt lat="38.218880" lon="-2.579721">
        <ele>1372.4</ele>
        <time>2010-07-01T12:31:29Z</time>
      </trkpt>
      <trkpt lat="38.218927" lon="-2.579798">
        <ele>1371.5</ele>
        <time>2010-07-01T12:31:40Z</time>
      </trkpt>
      <trkpt lat="38.219032" lon="-2.579682">
        <ele>1366.2</ele>
        <time>2010-07-01T12:33:47Z</time>
      </trkpt>
      <trkpt lat="38.219310" lon="-2.579786">
        <ele>1365.2</ele>
        <time>2010-07-01T12:34:11Z</time>
      </trkpt>
      <trkpt lat="38.219405" lon="-2.579822">
        <ele>1364.2</ele>
        <time>2010-07-01T12:34:18Z</time>
      </trkpt>
      <trkpt lat="38.219716" lon="-2.579774">
        <ele>1359.9</ele>
        <time>2010-07-01T12:34:40Z</time>
      </trkpt>
      <trkpt lat="38.219758" lon="-2.579737">
        <ele>1357.5</ele>
        <time>2010-07-01T12:34:48Z</time>
      </trkpt>
      <trkpt lat="38.219869" lon="-2.579621">
        <ele>1355.6</ele>
        <time>2010-07-01T12:34:56Z</time>
      </trkpt>
      <trkpt lat="38.220046" lon="-2.579470">
        <ele>1352.7</ele>
        <time>2010-07-01T12:35:17Z</time>
      </trkpt>
      <trkpt lat="38.220145" lon="-2.579414">
        <ele>1352.7</ele>
        <time>2010-07-01T12:35:28Z</time>
      </trkpt>
      <trkpt lat="38.220331" lon="-2.579291">
        <ele>1351.3</ele>
        <time>2010-07-01T12:36:23Z</time>
      </trkpt>
      <trkpt lat="38.220464" lon="-2.579282">
        <ele>1350.0</ele>
        <time>2010-07-01T11:21:32Z</time>
      </trkpt>
      <trkpt lat="38.220675" lon="-2.579401">
        <ele>1347.7</ele>
        <time>2010-07-01T11:21:32Z</time>
      </trkpt>
      <trkpt lat="38.220856" lon="-2.579394">
        <ele>1346.0</ele>
        <time>2010-07-01T12:36:59Z</time>
      </trkpt>
      <trkpt lat="38.221065" lon="-2.579438">
        <ele>1340.2</ele>
        <time>2010-07-01T12:37:23Z</time>
      </trkpt>
      <trkpt lat="38.221350" lon="-2.579438">
        <ele>1337.4</ele>
        <time>2010-07-01T09:37:46Z</time>
      </trkpt>
      <trkpt lat="38.221553" lon="-2.579493">
        <ele>1335.4</ele>
        <time>2010-07-01T09:37:46Z</time>
      </trkpt>
      <trkpt lat="38.221719" lon="-2.579629">
        <ele>1333.5</ele>
        <time>2010-07-01T12:39:11Z</time>
      </trkpt>
      <trkpt lat="38.221892" lon="-2.579723">
        <ele>1319.1</ele>
        <time>2010-07-01T12:41:23Z</time>
      </trkpt>
      <trkpt lat="38.222171" lon="-2.579667">
        <ele>1318.6</ele>
        <time>2010-07-01T12:41:40Z</time>
      </trkpt>
      <trkpt lat="38.222270" lon="-2.579843">
        <ele>1314.7</ele>
        <time>2010-07-01T12:42:29Z</time>
      </trkpt>
      <trkpt lat="38.222645" lon="-2.579985">
        <ele>1302.2</ele>
        <time>2010-07-01T12:43:44Z</time>
      </trkpt>
      <trkpt lat="38.222813" lon="-2.579947">
        <ele>1297.4</ele>
        <time>2010-07-01T12:44:10Z</time>
      </trkpt>
      <trkpt lat="38.223028" lon="-2.580166">
        <ele>1291.7</ele>
        <time>2010-07-01T12:44:41Z</time>
      </trkpt>
      <trkpt lat="38.223107" lon="-2.580204">
        <ele>1287.8</ele>
        <time>2010-07-01T12:44:51Z</time>
      </trkpt>
      <trkpt lat="38.223179" lon="-2.580311">
        <ele>1284.0</ele>
        <time>2010-07-01T12:45:39Z</time>
      </trkpt>
      <trkpt lat="38.223307" lon="-2.580729">
        <ele>1278.7</ele>
        <time>2010-07-01T12:46:44Z</time>
      </trkpt>
      <trkpt lat="38.223444" lon="-2.580766">
        <ele>1272.4</ele>
        <time>2010-07-01T12:49:51Z</time>
      </trkpt>
      <trkpt lat="38.223527" lon="-2.581005">
        <ele>1272.0</ele>
        <time>2010-07-01T12:50:11Z</time>
      </trkpt>
      <trkpt lat="38.223562" lon="-2.581113">
        <ele>1272.0</ele>
        <time>2010-07-01T12:50:23Z</time>
      </trkpt>
      <trkpt lat="38.223678" lon="-2.581519">
        <ele>1272.0</ele>
        <time>2010-07-01T12:52:30Z</time>
      </trkpt>
      <trkpt lat="38.223605" lon="-2.581604">
        <ele>1282.5</ele>
        <time>2010-07-01T13:10:41Z</time>
      </trkpt>
      <trkpt lat="38.223610" lon="-2.581675">
        <ele>1282.1</ele>
        <time>2010-07-01T13:11:08Z</time>
      </trkpt>
      <trkpt lat="38.223648" lon="-2.582527">
        <ele>1295.5</ele>
        <time>2010-07-01T13:12:58Z</time>
      </trkpt>
      <trkpt lat="38.223789" lon="-2.582565">
        <ele>1294.6</ele>
        <time>2010-07-01T13:13:08Z</time>
      </trkpt>
      <trkpt lat="38.223810" lon="-2.582580">
        <ele>1294.1</ele>
        <time>2010-07-01T13:13:20Z</time>
      </trkpt>
      <trkpt lat="38.224070" lon="-2.582715">
        <ele>1295.0</ele>
        <time>2010-07-01T13:13:53Z</time>
      </trkpt>
      <trkpt lat="38.224152" lon="-2.582769">
        <ele>1294.6</ele>
        <time>2010-07-01T13:14:03Z</time>
      </trkpt>
      <trkpt lat="38.224323" lon="-2.582847">
        <ele>1297.0</ele>
        <time>2010-07-01T13:14:23Z</time>
      </trkpt>
      <trkpt lat="38.224368" lon="-2.582965">
        <ele>1297.4</ele>
        <time>2010-07-01T13:16:59Z</time>
      </trkpt>
      <trkpt lat="38.224444" lon="-2.582913">
        <ele>1298.9</ele>
        <time>2010-07-01T13:17:38Z</time>
      </trkpt>
      <trkpt lat="38.224584" lon="-2.582540">
        <ele>1301.8</ele>
        <time>2010-07-01T13:19:32Z</time>
      </trkpt>
      <trkpt lat="38.224684" lon="-2.582320">
        <ele>1301.8</ele>
        <time>2010-07-01T13:19:40Z</time>
      </trkpt>
      <trkpt lat="38.224719" lon="-2.582198">
        <ele>1301.3</ele>
        <time>2010-07-01T13:19:49Z</time>
      </trkpt>
      <trkpt lat="38.224711" lon="-2.582075">
        <ele>1303.7</ele>
        <time>2010-07-01T13:19:58Z</time>
      </trkpt>
      <trkpt lat="38.224719" lon="-2.581979">
        <ele>1306.6</ele>
        <time>2010-07-01T13:20:07Z</time>
      </trkpt>
      <trkpt lat="38.224694" lon="-2.581754">
        <ele>1308.0</ele>
        <time>2010-07-01T13:20:16Z</time>
      </trkpt>
      <trkpt lat="38.224810" lon="-2.581682">
        <ele>1307.9</ele>
        <time>2010-07-01T11:08:53Z</time>
      </trkpt>
      <trkpt lat="38.225128" lon="-2.581691">
        <ele>1307.6</ele>
        <time>2010-07-01T11:08:53Z</time>
      </trkpt>
      <trkpt lat="38.225220" lon="-2.581685">
        <ele>1307.5</ele>
        <time>2010-07-01T13:21:13Z</time>
      </trkpt>
      <trkpt lat="38.225293" lon="-2.581669">
        <ele>1306.6</ele>
        <time>2010-07-01T13:21:21Z</time>
      </trkpt>
      <trkpt lat="38.225340" lon="-2.581635">
        <ele>1306.6</ele>
        <time>2010-07-01T13:21:29Z</time>
      </trkpt>
      <trkpt lat="38.225449" lon="-2.581531">
        <ele>1306.6</ele>
        <time>2010-07-01T11:39:33Z</time>
      </trkpt>
      <trkpt lat="38.225669" lon="-2.581009">
        <ele>1306.6</ele>
        <time>2010-07-01T11:39:33Z</time>
      </trkpt>
      <trkpt lat="38.225820" lon="-2.580575">
        <ele>1306.6</ele>
        <time>2010-07-01T11:39:33Z</time>
      </trkpt>
      <trkpt lat="38.226048" lon="-2.580104">
        <ele>1306.6</ele>
        <time>2010-07-01T11:39:33Z</time>
      </trkpt>
      <trkpt lat="38.226196" lon="-2.579883">
        <ele>1306.6</ele>
        <time>2010-07-01T11:39:33Z</time>
      </trkpt>
      <trkpt lat="38.226368" lon="-2.579735">
        <ele>1306.6</ele>
        <time>2010-07-01T13:23:59Z</time>
      </trkpt>
      <trkpt lat="38.226501" lon="-2.579729">
        <ele>1307.0</ele>
        <time>2010-07-01T13:24:08Z</time>
      </trkpt>
      <trkpt lat="38.226602" lon="-2.579744">
        <ele>1308.5</ele>
        <time>2010-07-01T13:24:17Z</time>
      </trkpt>
      <trkpt lat="38.226687" lon="-2.579871">
        <ele>1308.5</ele>
        <time>2010-07-01T13:24:26Z</time>
      </trkpt>
      <trkpt lat="38.226719" lon="-2.579906">
        <ele>1310.4</ele>
        <time>2010-07-01T13:24:33Z</time>
      </trkpt>
      <trkpt lat="38.226876" lon="-2.579936">
        <ele>1313.8</ele>
        <time>2010-07-01T13:24:41Z</time>
      </trkpt>
      <trkpt lat="38.227017" lon="-2.579935">
        <ele>1316.2</ele>
        <time>2010-07-01T13:24:51Z</time>
      </trkpt>
      <trkpt lat="38.227142" lon="-2.579986">
        <ele>1317.1</ele>
        <time>2010-07-01T13:25:17Z</time>
      </trkpt>
      <trkpt lat="38.227295" lon="-2.580081">
        <ele>1319.1</ele>
        <time>2010-07-01T13:25:41Z</time>
      </trkpt>
      <trkpt lat="38.227404" lon="-2.580106">
        <ele>1319.5</ele>
        <time>2010-07-01T13:26:17Z</time>
      </trkpt>
      <trkpt lat="38.227532" lon="-2.579973">
        <ele>1319.5</ele>
        <time>2010-07-01T13:26:38Z</time>
      </trkpt>
      <trkpt lat="38.227592" lon="-2.579824">
        <ele>1323.4</ele>
        <time>2010-07-01T13:26:47Z</time>
      </trkpt>
      <trkpt lat="38.227652" lon="-2.579692">
        <ele>1321.9</ele>
        <time>2010-07-01T13:26:57Z</time>
      </trkpt>
      <trkpt lat="38.227695" lon="-2.579595">
        <ele>1321.5</ele>
        <time>2010-07-01T13:27:05Z</time>
      </trkpt>
      <trkpt lat="38.227732" lon="-2.579462">
        <ele>1323.4</ele>
        <time>2010-07-01T13:27:14Z</time>
      </trkpt>
      <trkpt lat="38.227771" lon="-2.579370">
        <ele>1324.8</ele>
        <time>2010-07-01T13:27:23Z</time>
      </trkpt>
      <trkpt lat="38.227811" lon="-2.579155">
        <ele>1325.8</ele>
        <time>2010-07-01T13:27:39Z</time>
      </trkpt>
      <trkpt lat="38.227802" lon="-2.578982">
        <ele>1326.3</ele>
        <time>2010-07-01T13:27:51Z</time>
      </trkpt>
      <trkpt lat="38.227770" lon="-2.578851">
        <ele>1325.8</ele>
        <time>2010-07-01T13:27:59Z</time>
      </trkpt>
      <trkpt lat="38.227769" lon="-2.578743">
        <ele>1325.8</ele>
        <time>2010-07-01T13:28:07Z</time>
      </trkpt>
      <trkpt lat="38.227765" lon="-2.578628">
        <ele>1325.8</ele>
        <time>2010-07-01T13:28:13Z</time>
      </trkpt>
      <trkpt lat="38.227719" lon="-2.578510">
        <ele>1325.3</ele>
        <time>2010-07-01T13:28:20Z</time>
      </trkpt>
      <trkpt lat="38.227686" lon="-2.578391">
        <ele>1324.8</ele>
        <time>2010-07-01T13:28:28Z</time>
      </trkpt>
      <trkpt lat="38.227703" lon="-2.578074">
        <ele>1324.4</ele>
        <time>2010-07-01T13:28:47Z</time>
      </trkpt>
      <trkpt lat="38.227874" lon="-2.578000">
        <ele>1323.9</ele>
        <time>2010-07-01T13:29:10Z</time>
      </trkpt>
      <trkpt lat="38.227989" lon="-2.577973">
        <ele>1322.9</ele>
        <time>2010-07-01T13:29:20Z</time>
      </trkpt>
      <trkpt lat="38.228065" lon="-2.577890">
        <ele>1322.9</ele>
        <time>2010-07-01T13:29:28Z</time>
      </trkpt>
      <trkpt lat="38.228381" lon="-2.577714">
        <ele>1321.0</ele>
        <time>2010-07-01T13:29:56Z</time>
      </trkpt>
      <trkpt lat="38.228614" lon="-2.577671">
        <ele>1319.1</ele>
        <time>2010-07-01T13:30:12Z</time>
      </trkpt>
      <trkpt lat="38.228755" lon="-2.577635">
        <ele>1319.1</ele>
        <time>2010-07-01T13:30:36Z</time>
      </trkpt>
      <trkpt lat="38.229116" lon="-2.577326">
        <ele>1318.1</ele>
        <time>2010-07-01T13:31:22Z</time>
      </trkpt>
      <trkpt lat="38.229176" lon="-2.577183">
        <ele>1318.1</ele>
        <time>2010-07-01T13:31:31Z</time>
      </trkpt>
      <trkpt lat="38.229203" lon="-2.576979">
        <ele>1318.6</ele>
        <time>2010-07-01T13:31:41Z</time>
      </trkpt>
      <trkpt lat="38.229146" lon="-2.576760">
        <ele>1318.6</ele>
        <time>2010-07-01T13:31:41Z</time>
      </trkpt>
      <trkpt lat="38.229081" lon="-2.576587">
        <ele>1318.6</ele>
        <time>2010-07-01T13:31:41Z</time>
      </trkpt>
      <trkpt lat="38.229089" lon="-2.576439">
        <ele>1318.6</ele>
        <time>2010-07-01T13:31:41Z</time>
      </trkpt>
      <trkpt lat="38.229184" lon="-2.576183">
        <ele>1318.6</ele>
        <time>2010-07-01T13:31:41Z</time>
      </trkpt>
      <trkpt lat="38.229091" lon="-2.576366">
        <ele>1334.0</ele>
        <time>1989-12-30T23:59:59Z</time>
      </trkpt>
      <trkpt lat="38.229285" lon="-2.575813">
        <ele>1318.3</ele>
        <time>2009-03-28T08:36:13Z</time>
      </trkpt>
      <trkpt lat="38.228736" lon="-2.574545">
        <ele>1302.1</ele>
        <time>2009-03-28T08:36:26Z</time>
      </trkpt>
      <trkpt lat="38.228905" lon="-2.573721">
        <ele>1305.7</ele>
        <time>2009-03-28T08:36:33Z</time>
      </trkpt>
      <trkpt lat="38.229446" lon="-2.572943">
        <ele>1314.1</ele>
        <time>2009-03-28T08:36:42Z</time>
      </trkpt>
      <trkpt lat="38.229844" lon="-2.571997">
        <ele>1310.6</ele>
        <time>2009-03-28T08:36:52Z</time>
      </trkpt>
      <trkpt lat="38.230073" lon="-2.571886">
        <ele>1314.4</ele>
        <time>2009-03-28T08:36:54Z</time>
      </trkpt>
      <trkpt lat="38.230242" lon="-2.571087">
        <ele>1311.2</ele>
        <time>2009-03-28T08:37:02Z</time>
      </trkpt>
      <trkpt lat="38.230037" lon="-2.570022">
        <ele>1324.5</ele>
        <time>2009-03-28T08:37:11Z</time>
      </trkpt>
      <trkpt lat="38.230731" lon="-2.569244">
        <ele>1323.9</ele>
        <time>2009-03-28T08:37:21Z</time>
      </trkpt>
      <trkpt lat="38.231179" lon="-2.569072">
        <ele>1329.6</ele>
        <time>2009-03-28T08:37:27Z</time>
      </trkpt>
      <trkpt lat="38.231598" lon="-2.568767">
        <ele>1335.9</ele>
        <time>2009-03-28T08:37:32Z</time>
      </trkpt>
      <trkpt lat="38.231949" lon="-2.568099">
        <ele>1329.0</ele>
        <time>2009-03-28T08:37:39Z</time>
      </trkpt>
      <trkpt lat="38.232900" lon="-2.567052">
        <ele>1340.9</ele>
        <time>2009-03-28T08:37:53Z</time>
      </trkpt>
      <trkpt lat="38.233953" lon="-2.565218">
        <ele>1343.1</ele>
        <time>2009-03-28T08:38:13Z</time>
      </trkpt>
      <trkpt lat="38.233913" lon="-2.564698">
        <ele>1338.1</ele>
        <time>2009-03-28T08:38:17Z</time>
      </trkpt>
      <trkpt lat="38.234045" lon="-2.564371">
        <ele>1340.4</ele>
        <time>2009-03-28T08:38:21Z</time>
      </trkpt>
      <trkpt lat="38.234787" lon="-2.563579">
        <ele>1350.2</ele>
        <time>2009-03-28T08:38:31Z</time>
      </trkpt>
      <trkpt lat="38.235006" lon="-2.563275">
        <ele>1351.7</ele>
        <time>2009-03-28T08:38:35Z</time>
      </trkpt>
      <trkpt lat="38.236310" lon="-2.562311">
        <ele>1362.7</ele>
        <time>2009-03-28T08:38:52Z</time>
      </trkpt>
      <trkpt lat="38.236538" lon="-2.562092">
        <ele>1361.3</ele>
        <time>2009-03-28T08:38:55Z</time>
      </trkpt>
      <trkpt lat="38.236604" lon="-2.561752">
        <ele>1358.3</ele>
        <time>2009-03-28T08:38:58Z</time>
      </trkpt>
      <trkpt lat="38.238184" lon="-2.560569">
        <ele>1370.8</ele>
        <time>2009-03-28T08:39:18Z</time>
      </trkpt>
      <trkpt lat="38.238410" lon="-2.560135">
        <ele>1374.7</ele>
        <time>2009-03-28T08:39:23Z</time>
      </trkpt>
      <trkpt lat="38.239309" lon="-2.560054">
        <ele>1382.2</ele>
        <time>2009-03-28T08:39:33Z</time>
      </trkpt>
      <trkpt lat="38.240088" lon="-2.559775">
        <ele>1389.9</ele>
        <time>2009-03-28T08:39:42Z</time>
      </trkpt>
      <trkpt lat="38.240857" lon="-2.559269">
        <ele>1395.8</ele>
        <time>2009-03-28T08:39:51Z</time>
      </trkpt>
      <trkpt lat="38.241230" lon="-2.558190">
        <ele>1396.0</ele>
        <time>2009-03-28T08:40:02Z</time>
      </trkpt>
      <trkpt lat="38.241638" lon="-2.557425">
        <ele>1407.3</ele>
        <time>2009-03-28T08:40:10Z</time>
      </trkpt>
      <trkpt lat="38.242574" lon="-2.556599">
        <ele>1411.1</ele>
        <time>2009-03-28T08:40:23Z</time>
      </trkpt>
      <trkpt lat="38.242770" lon="-2.556452">
        <ele>1410.9</ele>
        <time>2009-03-28T08:40:25Z</time>
      </trkpt>
      <trkpt lat="38.243000" lon="-2.556472">
        <ele>1413.7</ele>
        <time>2009-03-28T08:40:28Z</time>
      </trkpt>
      <trkpt lat="38.243423" lon="-2.556074">
        <ele>1417.2</ele>
        <time>2009-03-28T08:40:33Z</time>
      </trkpt>
      <trkpt lat="38.244143" lon="-2.555768">
        <ele>1424.1</ele>
        <time>2009-03-28T08:40:42Z</time>
      </trkpt>
      <trkpt lat="38.244263" lon="-2.555104">
        <ele>1417.0</ele>
        <time>2009-03-28T08:40:48Z</time>
      </trkpt>
      <trkpt lat="38.244646" lon="-2.554530">
        <ele>1415.8</ele>
        <time>2009-03-28T08:40:54Z</time>
      </trkpt>
      <trkpt lat="38.245544" lon="-2.554120">
        <ele>1428.4</ele>
        <time>2009-03-28T08:41:05Z</time>
      </trkpt>
      <trkpt lat="38.245896" lon="-2.554087">
        <ele>1433.7</ele>
        <time>2009-03-28T08:41:09Z</time>
      </trkpt>
      <trkpt lat="38.247277" lon="-2.553290">
        <ele>1438.9</ele>
        <time>2009-03-28T08:41:26Z</time>
      </trkpt>
      <trkpt lat="38.248634" lon="-2.552897">
        <ele>1448.8</ele>
        <time>2009-03-28T08:41:41Z</time>
      </trkpt>
      <trkpt lat="38.249256" lon="-2.552831">
        <ele>1449.9</ele>
        <time>2009-03-28T08:41:48Z</time>
      </trkpt>
      <trkpt lat="38.250087" lon="-2.552545">
        <ele>1451.7</ele>
        <time>2009-03-28T08:41:58Z</time>
      </trkpt>
      <trkpt lat="38.250343" lon="-2.552388">
        <ele>1451.7</ele>
        <time>2009-03-28T08:42:01Z</time>
      </trkpt>
      <trkpt lat="38.251144" lon="-2.552072">
        <ele>1453.2</ele>
        <time>2009-03-28T08:42:10Z</time>
      </trkpt>
      <trkpt lat="38.251569" lon="-2.552090">
        <ele>1458.4</ele>
        <time>2009-03-28T08:42:15Z</time>
      </trkpt>
      <trkpt lat="38.251913" lon="-2.551933">
        <ele>1460.6</ele>
        <time>2009-03-28T08:42:19Z</time>
      </trkpt>
      <trkpt lat="38.252649" lon="-2.551855">
        <ele>1464.5</ele>
        <time>2009-03-28T08:42:27Z</time>
      </trkpt>
      <trkpt lat="38.253033" lon="-2.551676">
        <ele>1465.2</ele>
        <time>2009-03-28T08:42:32Z</time>
      </trkpt>
      <trkpt lat="38.253653" lon="-2.551184">
        <ele>1462.1</ele>
        <time>2009-03-28T08:42:40Z</time>
      </trkpt>
      <trkpt lat="38.254456" lon="-2.550844">
        <ele>1470.5</ele>
        <time>2009-03-28T08:42:49Z</time>
      </trkpt>
      <trkpt lat="38.254501" lon="-2.550120">
        <ele>1469.1</ele>
        <time>2009-03-28T08:42:56Z</time>
      </trkpt>
      <trkpt lat="38.254705" lon="-2.550005">
        <ele>1471.5</ele>
        <time>2009-03-28T08:42:58Z</time>
      </trkpt>
      <trkpt lat="38.254830" lon="-2.550466">
        <ele>1468.0</ele>
        <time>2009-03-28T08:43:02Z</time>
      </trkpt>
      <trkpt lat="38.255386" lon="-2.550406">
        <ele>1473.0</ele>
        <time>2009-03-28T08:43:09Z</time>
      </trkpt>
      <trkpt lat="38.255869" lon="-2.550289">
        <ele>1483.9</ele>
        <time>2009-03-28T08:43:14Z</time>
      </trkpt>
      <trkpt lat="38.256546" lon="-2.549921">
        <ele>1490.1</ele>
        <time>2009-03-28T08:43:22Z</time>
      </trkpt>
      <trkpt lat="38.257285" lon="-2.548338">
        <ele>1492.5</ele>
        <time>2009-03-28T08:43:38Z</time>
      </trkpt>
      <trkpt lat="38.258574" lon="-2.547230">
        <ele>1504.9</ele>
        <time>2009-03-28T08:43:56Z</time>
      </trkpt>
      <trkpt lat="38.258669" lon="-2.546935">
        <ele>1512.5</ele>
        <time>2009-03-28T08:43:58Z</time>
      </trkpt>
      <trkpt lat="38.258171" lon="-2.546036">
        <ele>1525.9</ele>
        <time>2009-03-28T08:44:08Z</time>
      </trkpt>
      <trkpt lat="38.258328" lon="-2.545634">
        <ele>1528.6</ele>
        <time>2009-03-28T08:44:12Z</time>
      </trkpt>
      <trkpt lat="38.258591" lon="-2.545320">
        <ele>1533.2</ele>
        <time>2009-03-28T08:44:16Z</time>
      </trkpt>
      <trkpt lat="38.259254" lon="-2.545046">
        <ele>1530.9</ele>
        <time>2009-03-28T08:44:24Z</time>
      </trkpt>
      <trkpt lat="38.259786" lon="-2.545105">
        <ele>1521.3</ele>
        <time>2009-03-28T08:44:30Z</time>
      </trkpt>
      <trkpt lat="38.260376" lon="-2.545236">
        <ele>1513.1</ele>
        <time>2009-03-28T08:44:36Z</time>
      </trkpt>
      <trkpt lat="38.260866" lon="-2.545077">
        <ele>1522.6</ele>
        <time>2009-03-28T08:44:42Z</time>
      </trkpt>
      <trkpt lat="38.261104" lon="-2.545210">
        <ele>1516.3</ele>
        <time>2009-03-28T08:44:45Z</time>
      </trkpt>
      <trkpt lat="38.261652" lon="-2.544989">
        <ele>1525.7</ele>
        <time>2009-03-28T08:44:51Z</time>
      </trkpt>
      <trkpt lat="38.261725" lon="-2.544812">
        <ele>1533.4</ele>
        <time>2009-03-28T08:44:53Z</time>
      </trkpt>
      <trkpt lat="38.261296" lon="-2.543963">
        <ele>1572.9</ele>
        <time>2009-03-28T08:45:02Z</time>
      </trkpt>
      <trkpt lat="38.261522" lon="-2.543194">
        <ele>1579.7</ele>
        <time>2009-03-28T08:45:09Z</time>
      </trkpt>
      <trkpt lat="38.261558" lon="-2.541906">
        <ele>1590.5</ele>
        <time>2009-03-28T08:45:20Z</time>
      </trkpt>
      <trkpt lat="38.261508" lon="-2.541585">
        <ele>1592.7</ele>
        <time>2009-03-28T08:45:23Z</time>
      </trkpt>
      <trkpt lat="38.261938" lon="-2.540616">
        <ele>1575.9</ele>
        <time>2009-03-28T08:45:33Z</time>
      </trkpt>
      <trkpt lat="38.262223" lon="-2.540168">
        <ele>1573.6</ele>
        <time>2009-03-28T08:45:38Z</time>
      </trkpt>
      <trkpt lat="38.262582" lon="-2.539937">
        <ele>1568.4</ele>
        <time>2009-03-28T08:45:42Z</time>
      </trkpt>
      <trkpt lat="38.263098" lon="-2.539976">
        <ele>1556.2</ele>
        <time>2009-03-28T08:45:48Z</time>
      </trkpt>
      <trkpt lat="38.263849" lon="-2.539701">
        <ele>1558.5</ele>
        <time>2009-03-28T08:45:57Z</time>
      </trkpt>
      <trkpt lat="38.264103" lon="-2.539803">
        <ele>1557.2</ele>
        <time>2009-03-28T08:46:00Z</time>
      </trkpt>
      <trkpt lat="38.264172" lon="-2.540343">
        <ele>1550.3</ele>
        <time>2009-03-28T08:46:04Z</time>
      </trkpt>
      <trkpt lat="38.264663" lon="-2.540381">
        <ele>1547.6</ele>
        <time>2009-03-28T08:46:10Z</time>
      </trkpt>
      <trkpt lat="38.265145" lon="-2.540378">
        <ele>1539.2</ele>
        <time>2009-03-28T08:46:15Z</time>
      </trkpt>
      <trkpt lat="38.265455" lon="-2.540147">
        <ele>1539.6</ele>
        <time>2009-03-28T08:46:19Z</time>
      </trkpt>
      <trkpt lat="38.265907" lon="-2.540331">
        <ele>1529.3</ele>
        <time>2009-03-28T08:46:25Z</time>
      </trkpt>
      <trkpt lat="38.266366" lon="-2.540536">
        <ele>1520.1</ele>
        <time>2009-03-28T08:46:30Z</time>
      </trkpt>
      <trkpt lat="38.266684" lon="-2.540213">
        <ele>1526.8</ele>
        <time>2009-03-28T08:46:34Z</time>
      </trkpt>
      <trkpt lat="38.266766" lon="-2.540326">
        <ele>1524.5</ele>
        <time>2009-03-28T08:46:36Z</time>
      </trkpt>
      <trkpt lat="38.266842" lon="-2.540938">
        <ele>1512.7</ele>
        <time>2009-03-28T08:46:41Z</time>
      </trkpt>
      <trkpt lat="38.267490" lon="-2.541297">
        <ele>1506.6</ele>
        <time>2009-03-28T08:46:49Z</time>
      </trkpt>
      <trkpt lat="38.267818" lon="-2.541348">
        <ele>1505.2</ele>
        <time>2009-03-28T08:46:53Z</time>
      </trkpt>
      <trkpt lat="38.269451" lon="-2.542230">
        <ele>1489.3</ele>
        <time>2009-03-28T08:47:12Z</time>
      </trkpt>
      <trkpt lat="38.269884" lon="-2.542321">
        <ele>1492.1</ele>
        <time>2009-03-28T08:47:17Z</time>
      </trkpt>
      <trkpt lat="38.270001" lon="-2.542715">
        <ele>1486.7</ele>
        <time>2009-03-28T08:47:21Z</time>
      </trkpt>
      <trkpt lat="38.270403" lon="-2.543117">
        <ele>1491.3</ele>
        <time>2009-03-28T08:47:27Z</time>
      </trkpt>
      <trkpt lat="38.270601" lon="-2.543438">
        <ele>1494.4</ele>
        <time>2009-03-28T08:47:30Z</time>
      </trkpt>
      <trkpt lat="38.270905" lon="-2.543737">
        <ele>1497.4</ele>
        <time>2009-03-28T08:47:35Z</time>
      </trkpt>
      <trkpt lat="38.271044" lon="-2.543612">
        <ele>1497.7</ele>
        <time>2009-03-28T08:47:36Z</time>
      </trkpt>
      <trkpt lat="38.270879" lon="-2.543415">
        <ele>1496.0</ele>
        <time>2009-03-28T08:47:39Z</time>
      </trkpt>
      <trkpt lat="38.271254" lon="-2.542904">
        <ele>1496.4</ele>
        <time>2009-03-28T08:47:45Z</time>
      </trkpt>
      <trkpt lat="38.272154" lon="-2.542971">
        <ele>1472.9</ele>
        <time>2009-03-28T08:47:55Z</time>
      </trkpt>
      <trkpt lat="38.272621" lon="-2.542927">
        <ele>1464.2</ele>
        <time>2009-03-28T08:48:00Z</time>
      </trkpt>
      <trkpt lat="38.273161" lon="-2.542757">
        <ele>1458.1</ele>
        <time>2009-03-28T08:48:06Z</time>
      </trkpt>
      <trkpt lat="38.273587" lon="-2.542879">
        <ele>1448.1</ele>
        <time>2009-03-28T08:48:11Z</time>
      </trkpt>
      <trkpt lat="38.274223" lon="-2.542407">
        <ele>1448.8</ele>
        <time>2009-03-28T08:48:20Z</time>
      </trkpt>
      <trkpt lat="38.274370" lon="-2.542157">
        <ele>1452.2</ele>
        <time>2009-03-28T08:48:22Z</time>
      </trkpt>
      <trkpt lat="38.274754" lon="-2.542124">
        <ele>1446.5</ele>
        <time>2009-03-28T08:48:27Z</time>
      </trkpt>
      <trkpt lat="38.275138" lon="-2.541831">
        <ele>1445.0</ele>
        <time>2009-03-28T08:48:32Z</time>
      </trkpt>
      <trkpt lat="38.275425" lon="-2.542016">
        <ele>1436.8</ele>
        <time>2009-03-28T08:48:35Z</time>
      </trkpt>
      <trkpt lat="38.276169" lon="-2.541710">
        <ele>1432.1</ele>
        <time>2009-03-28T08:48:44Z</time>
      </trkpt>
      <trkpt lat="38.276323" lon="-2.541294">
        <ele>1435.8</ele>
        <time>2009-03-28T08:48:48Z</time>
      </trkpt>
      <trkpt lat="38.277756" lon="-2.541430">
        <ele>1417.9</ele>
        <time>2009-03-28T08:49:04Z</time>
      </trkpt>
      <trkpt lat="38.277724" lon="-2.541607">
        <ele>1414.4</ele>
        <time>2009-03-28T08:49:05Z</time>
      </trkpt>
      <trkpt lat="38.277143" lon="-2.541798">
        <ele>1415.7</ele>
        <time>2009-03-28T08:49:12Z</time>
      </trkpt>
      <trkpt lat="38.276792" lon="-2.541955">
        <ele>1418.4</ele>
        <time>2009-03-28T08:49:16Z</time>
      </trkpt>
      <trkpt lat="38.276484" lon="-2.542674">
        <ele>1411.9</ele>
        <time>2009-03-28T08:49:23Z</time>
      </trkpt>
      <trkpt lat="38.276142" lon="-2.543092">
        <ele>1413.5</ele>
        <time>2009-03-28T08:49:29Z</time>
      </trkpt>
      <trkpt lat="38.276061" lon="-2.543435">
        <ele>1417.4</ele>
        <time>2009-03-28T08:49:32Z</time>
      </trkpt>
      <trkpt lat="38.276357" lon="-2.543869">
        <ele>1423.3</ele>
        <time>2009-03-28T08:49:37Z</time>
      </trkpt>
      <trkpt lat="38.277248" lon="-2.543521">
        <ele>1413.5</ele>
        <time>2009-03-28T08:49:47Z</time>
      </trkpt>
      <trkpt lat="38.278058" lon="-2.543297">
        <ele>1405.5</ele>
        <time>2009-03-28T08:49:56Z</time>
      </trkpt>
      <trkpt lat="38.278255" lon="-2.543576">
        <ele>1407.8</ele>
        <time>2009-03-28T08:50:00Z</time>
      </trkpt>
      <trkpt lat="38.278306" lon="-2.543877">
        <ele>1411.1</ele>
        <time>2009-03-28T08:50:02Z</time>
      </trkpt>
      <trkpt lat="38.278559" lon="-2.543876">
        <ele>1407.8</ele>
        <time>2009-03-28T08:50:05Z</time>
      </trkpt>
      <trkpt lat="38.278795" lon="-2.543594">
        <ele>1403.4</ele>
        <time>2009-03-28T08:50:09Z</time>
      </trkpt>
      <trkpt lat="38.279642" lon="-2.542270">
        <ele>1394.4</ele>
        <time>2009-03-28T08:50:24Z</time>
      </trkpt>
      <trkpt lat="38.280042" lon="-2.542122">
        <ele>1393.7</ele>
        <time>2009-03-28T08:50:28Z</time>
      </trkpt>
      <trkpt lat="38.280380" lon="-2.542681">
        <ele>1398.0</ele>
        <time>2009-03-28T08:50:34Z</time>
      </trkpt>
      <trkpt lat="38.280185" lon="-2.543045">
        <ele>1401.6</ele>
        <time>2009-03-28T08:50:38Z</time>
      </trkpt>
      <trkpt lat="38.280112" lon="-2.543253">
        <ele>1404.1</ele>
        <time>2009-03-28T08:50:40Z</time>
      </trkpt>
      <trkpt lat="38.280211" lon="-2.543387">
        <ele>1404.3</ele>
        <time>2009-03-28T08:50:42Z</time>
      </trkpt>
      <trkpt lat="38.280465" lon="-2.543500">
        <ele>1402.6</ele>
        <time>2009-03-28T08:50:45Z</time>
      </trkpt>
      <trkpt lat="38.280671" lon="-2.543676">
        <ele>1402.9</ele>
        <time>2009-03-28T08:50:48Z</time>
      </trkpt>
      <trkpt lat="38.281055" lon="-2.543580">
        <ele>1398.9</ele>
        <time>2009-03-28T08:50:52Z</time>
      </trkpt>
      <trkpt lat="38.281601" lon="-2.542984">
        <ele>1390.6</ele>
        <time>2009-03-28T08:51:00Z</time>
      </trkpt>
      <trkpt lat="38.281951" lon="-2.542463">
        <ele>1382.8</ele>
        <time>2009-03-28T08:51:06Z</time>
      </trkpt>
      <trkpt lat="38.282115" lon="-2.542503">
        <ele>1384.9</ele>
        <time>2009-03-28T08:51:08Z</time>
      </trkpt>
      <trkpt lat="38.282280" lon="-2.542814">
        <ele>1396.1</ele>
        <time>2009-03-28T08:51:11Z</time>
      </trkpt>
      <trkpt lat="38.282492" lon="-2.542574">
        <ele>1391.9</ele>
        <time>2009-03-28T08:51:14Z</time>
      </trkpt>
      <trkpt lat="38.282762" lon="-2.542458">
        <ele>1391.5</ele>
        <time>2009-03-28T08:51:17Z</time>
      </trkpt>
      <trkpt lat="38.282817" lon="-2.542063">
        <ele>1378.1</ele>
        <time>2009-03-28T08:51:21Z</time>
      </trkpt>
      <trkpt lat="38.283004" lon="-2.541854">
        <ele>1377.3</ele>
        <time>2009-03-28T08:51:24Z</time>
      </trkpt>
      <trkpt lat="38.283283" lon="-2.541904">
        <ele>1385.8</ele>
        <time>2009-03-28T08:51:27Z</time>
      </trkpt>
      <trkpt lat="38.283429" lon="-2.541592">
        <ele>1381.4</ele>
        <time>2009-03-28T08:51:30Z</time>
      </trkpt>
      <trkpt lat="38.283526" lon="-2.541238">
        <ele>1374.0</ele>
        <time>2009-03-28T08:51:33Z</time>
      </trkpt>
      <trkpt lat="38.284231" lon="-2.541421">
        <ele>1388.9</ele>
        <time>2009-03-28T08:51:41Z</time>
      </trkpt>
      <trkpt lat="38.284845" lon="-2.541396">
        <ele>1389.7</ele>
        <time>2009-03-28T08:51:48Z</time>
      </trkpt>
      <trkpt lat="38.285102" lon="-2.541517">
        <ele>1393.1</ele>
        <time>2009-03-28T08:51:51Z</time>
      </trkpt>
      <trkpt lat="38.285327" lon="-2.541445">
        <ele>1388.6</ele>
        <time>2009-03-28T08:51:54Z</time>
      </trkpt>
      <trkpt lat="38.285698" lon="-2.541847">
        <ele>1398.5</ele>
        <time>2009-03-28T08:51:59Z</time>
      </trkpt>
      <trkpt lat="38.286124" lon="-2.542042">
        <ele>1394.7</ele>
        <time>2009-03-28T08:52:04Z</time>
      </trkpt>
      <trkpt lat="38.286492" lon="-2.541946">
        <ele>1385.1</ele>
        <time>2009-03-28T08:52:08Z</time>
      </trkpt>
      <trkpt lat="38.286714" lon="-2.542090">
        <ele>1388.6</ele>
        <time>2009-03-28T08:52:11Z</time>
      </trkpt>
      <trkpt lat="38.286885" lon="-2.542079">
        <ele>1386.0</ele>
        <time>2009-03-28T08:52:13Z</time>
      </trkpt>
      <trkpt lat="38.287558" lon="-2.542344">
        <ele>1393.6</ele>
        <time>2009-03-28T08:52:21Z</time>
      </trkpt>
      <trkpt lat="38.288147" lon="-2.542466">
        <ele>1394.3</ele>
        <time>2009-03-28T08:52:27Z</time>
      </trkpt>
      <trkpt lat="38.288524" lon="-2.542401">
        <ele>1385.2</ele>
        <time>2009-03-28T08:52:32Z</time>
      </trkpt>
      <trkpt lat="38.289328" lon="-2.542863">
        <ele>1393.1</ele>
        <time>2009-03-28T08:52:41Z</time>
      </trkpt>
      <trkpt lat="38.289429" lon="-2.543673">
        <ele>1436.7</ele>
        <time>2009-03-28T08:52:49Z</time>
      </trkpt>
      <trkpt lat="38.289815" lon="-2.543909">
        <ele>1436.9</ele>
        <time>2009-03-28T08:52:53Z</time>
      </trkpt>
      <trkpt lat="38.290478" lon="-2.543884">
        <ele>1416.0</ele>
        <time>2009-03-28T08:53:01Z</time>
      </trkpt>
      <trkpt lat="38.291451" lon="-2.543587">
        <ele>1413.3</ele>
        <time>2009-03-28T08:53:12Z</time>
      </trkpt>
      <trkpt lat="38.291737" lon="-2.543377">
        <ele>1405.8</ele>
        <time>2009-03-28T08:53:16Z</time>
      </trkpt>
      <trkpt lat="38.292433" lon="-2.543519">
        <ele>1415.4</ele>
        <time>2009-03-28T08:53:23Z</time>
      </trkpt>
      <trkpt lat="38.292698" lon="-2.544400">
        <ele>1457.0</ele>
        <time>2009-03-28T08:53:32Z</time>
      </trkpt>
      <trkpt lat="38.293386" lon="-2.544499">
        <ele>1447.0</ele>
        <time>2009-03-28T08:53:39Z</time>
      </trkpt>
      <trkpt lat="38.293576" lon="-2.544851">
        <ele>1460.8</ele>
        <time>2009-03-28T08:53:43Z</time>
      </trkpt>
      <trkpt lat="38.294075" lon="-2.544838">
        <ele>1453.9</ele>
        <time>2009-03-28T08:53:49Z</time>
      </trkpt>
      <trkpt lat="38.294232" lon="-2.545138">
        <ele>1467.2</ele>
        <time>2009-03-28T08:53:52Z</time>
      </trkpt>
      <trkpt lat="38.294584" lon="-2.545177">
        <ele>1467.0</ele>
        <time>2009-03-28T08:53:56Z</time>
      </trkpt>
      <trkpt lat="38.294927" lon="-2.544895">
        <ele>1457.6</ele>
        <time>2009-03-28T08:54:00Z</time>
      </trkpt>
      <trkpt lat="38.295015" lon="-2.544375">
        <ele>1438.0</ele>
        <time>2009-03-28T08:54:05Z</time>
      </trkpt>
      <trkpt lat="38.295325" lon="-2.544248">
        <ele>1437.6</ele>
        <time>2009-03-28T08:54:08Z</time>
      </trkpt>
      <trkpt lat="38.295523" lon="-2.544610">
        <ele>1454.3</ele>
        <time>2009-03-28T08:54:12Z</time>
      </trkpt>
      <trkpt lat="38.296022" lon="-2.544451">
        <ele>1455.5</ele>
        <time>2009-03-28T08:54:18Z</time>
      </trkpt>
      <trkpt lat="38.296479" lon="-2.544127">
        <ele>1447.4</ele>
        <time>2009-03-28T08:54:24Z</time>
      </trkpt>
      <trkpt lat="38.296936" lon="-2.543688">
        <ele>1441.0</ele>
        <time>2009-03-28T08:54:30Z</time>
      </trkpt>
      <trkpt lat="38.297150" lon="-2.544143">
        <ele>1458.3</ele>
        <time>2009-03-28T08:54:35Z</time>
      </trkpt>
      <trkpt lat="38.297241" lon="-2.544444">
        <ele>1464.8</ele>
        <time>2009-03-28T08:54:38Z</time>
      </trkpt>
      <trkpt lat="38.297204" lon="-2.545431">
        <ele>1491.7</ele>
        <time>2009-03-28T08:54:46Z</time>
      </trkpt>
      <trkpt lat="38.297320" lon="-2.545627">
        <ele>1495.5</ele>
        <time>2009-03-28T08:54:48Z</time>
      </trkpt>
      <trkpt lat="38.297640" lon="-2.545833">
        <ele>1491.6</ele>
        <time>2009-03-28T08:54:52Z</time>
      </trkpt>
      <trkpt lat="38.297879" lon="-2.546195">
        <ele>1495.9</ele>
        <time>2009-03-28T08:54:57Z</time>
      </trkpt>
      <trkpt lat="38.298149" lon="-2.546142">
        <ele>1487.3</ele>
        <time>2009-03-28T08:55:00Z</time>
      </trkpt>
      <trkpt lat="38.298403" lon="-2.546358">
        <ele>1489.3</ele>
        <time>2009-03-28T08:55:03Z</time>
      </trkpt>
      <trkpt lat="38.298780" lon="-2.546304">
        <ele>1478.5</ele>
        <time>2009-03-28T08:55:07Z</time>
      </trkpt>
      <trkpt lat="38.299106" lon="-2.546104">
        <ele>1470.1</ele>
        <time>2009-03-28T08:55:11Z</time>
      </trkpt>
      <trkpt lat="38.299370" lon="-2.546602">
        <ele>1476.7</ele>
        <time>2009-03-28T08:55:16Z</time>
      </trkpt>
      <trkpt lat="38.299519" lon="-2.546975">
        <ele>1479.0</ele>
        <time>2009-03-28T08:55:20Z</time>
      </trkpt>
      <trkpt lat="38.299496" lon="-2.547432">
        <ele>1483.6</ele>
        <time>2009-03-28T08:55:24Z</time>
      </trkpt>
      <trkpt lat="38.299653" lon="-2.547805">
        <ele>1476.5</ele>
        <time>2009-03-28T08:55:28Z</time>
      </trkpt>
      <trkpt lat="38.299400" lon="-2.548232">
        <ele>1497.1</ele>
        <time>2009-03-28T08:55:32Z</time>
      </trkpt>
      <trkpt lat="38.299550" lon="-2.548636">
        <ele>1494.3</ele>
        <time>2009-03-28T08:55:36Z</time>
      </trkpt>
      <trkpt lat="38.299633" lon="-2.549010">
        <ele>1489.9</ele>
        <time>2009-03-28T08:55:40Z</time>
      </trkpt>
      <trkpt lat="38.299627" lon="-2.549488">
        <ele>1490.6</ele>
        <time>2009-03-28T08:55:44Z</time>
      </trkpt>
      <trkpt lat="38.299825" lon="-2.549964">
        <ele>1471.3</ele>
        <time>2009-03-28T08:55:49Z</time>
      </trkpt>
      <trkpt lat="38.299794" lon="-2.550317">
        <ele>1468.0</ele>
        <time>2009-03-28T08:55:52Z</time>
      </trkpt>
      <trkpt lat="38.299787" lon="-2.550609">
        <ele>1464.2</ele>
        <time>2009-03-28T08:55:54Z</time>
      </trkpt>
      <trkpt lat="38.299528" lon="-2.551607">
        <ele>1468.1</ele>
        <time>2009-03-28T08:56:03Z</time>
      </trkpt>
      <trkpt lat="38.299620" lon="-2.552116">
        <ele>1459.6</ele>
        <time>2009-03-28T08:56:08Z</time>
      </trkpt>
      <trkpt lat="38.299499" lon="-2.552574">
        <ele>1472.7</ele>
        <time>2009-03-28T08:56:12Z</time>
      </trkpt>
      <trkpt lat="38.299821" lon="-2.553164">
        <ele>1460.2</ele>
        <time>2009-03-28T08:56:18Z</time>
      </trkpt>
      <trkpt lat="38.300010" lon="-2.553422">
        <ele>1452.1</ele>
        <time>2009-03-28T08:56:22Z</time>
      </trkpt>
      <trkpt lat="38.299988" lon="-2.554046">
        <ele>1447.7</ele>
        <time>2009-03-28T08:56:27Z</time>
      </trkpt>
      <trkpt lat="38.299892" lon="-2.554545">
        <ele>1444.3</ele>
        <time>2009-03-28T08:56:31Z</time>
      </trkpt>
      <trkpt lat="38.299647" lon="-2.554900">
        <ele>1455.1</ele>
        <time>2009-03-28T08:56:36Z</time>
      </trkpt>
      <trkpt lat="38.299706" lon="-2.555356">
        <ele>1453.7</ele>
        <time>2009-03-28T08:56:40Z</time>
      </trkpt>
      <trkpt lat="38.299986" lon="-2.555687">
        <ele>1440.6</ele>
        <time>2009-03-28T08:56:44Z</time>
      </trkpt>
      <trkpt lat="38.300004" lon="-2.556050">
        <ele>1438.7</ele>
        <time>2009-03-28T08:56:47Z</time>
      </trkpt>
      <trkpt lat="38.300514" lon="-2.556806">
        <ele>1416.2</ele>
        <time>2009-03-28T08:56:56Z</time>
      </trkpt>
      <trkpt lat="38.300287" lon="-2.557461">
        <ele>1409.6</ele>
        <time>2009-03-28T08:57:02Z</time>
      </trkpt>
      <trkpt lat="38.299727" lon="-2.558722">
        <ele>1392.2</ele>
        <time>2009-03-28T08:57:15Z</time>
      </trkpt>
      <trkpt lat="38.300561" lon="-2.558415">
        <ele>1389.5</ele>
        <time>2009-03-28T08:57:24Z</time>
      </trkpt>
      <trkpt lat="38.301156" lon="-2.557664">
        <ele>1388.5</ele>
        <time>2009-03-28T08:57:34Z</time>
      </trkpt>
      <trkpt lat="38.301465" lon="-2.557153">
        <ele>1386.5</ele>
        <time>2009-03-28T08:57:39Z</time>
      </trkpt>
      <trkpt lat="38.301715" lon="-2.556196">
        <ele>1381.7</ele>
        <time>2009-03-28T08:57:48Z</time>
      </trkpt>
      <trkpt lat="38.302540" lon="-2.555754">
        <ele>1364.6</ele>
        <time>2009-03-28T08:57:58Z</time>
      </trkpt>
      <trkpt lat="38.302674" lon="-2.556439">
        <ele>1360.0</ele>
        <time>2009-03-28T08:58:04Z</time>
      </trkpt>
      <trkpt lat="38.303083" lon="-2.556509">
        <ele>1353.9</ele>
        <time>2009-03-28T08:58:09Z</time>
      </trkpt>
      <trkpt lat="38.303672" lon="-2.556423">
        <ele>1347.4</ele>
        <time>2009-03-28T08:58:15Z</time>
      </trkpt>
      <trkpt lat="38.303952" lon="-2.556754">
        <ele>1346.0</ele>
        <time>2009-03-28T08:58:20Z</time>
      </trkpt>
      <trkpt lat="38.304274" lon="-2.557666">
        <ele>1346.7</ele>
        <time>2009-03-28T08:58:28Z</time>
      </trkpt>
      <trkpt lat="38.305213" lon="-2.559176">
        <ele>1330.5</ele>
        <time>2009-03-28T08:58:45Z</time>
      </trkpt>
      <trkpt lat="38.305798" lon="-2.559994">
        <ele>1322.6</ele>
        <time>2009-03-28T08:58:55Z</time>
      </trkpt>
      <trkpt lat="38.306601" lon="-2.560373">
        <ele>1319.1</ele>
        <time>2009-03-28T08:59:04Z</time>
      </trkpt>
      <trkpt lat="38.307094" lon="-2.560838">
        <ele>1319.2</ele>
        <time>2009-03-28T08:59:11Z</time>
      </trkpt>
      <trkpt lat="38.307292" lon="-2.561262">
        <ele>1318.9</ele>
        <time>2009-03-28T08:59:15Z</time>
      </trkpt>
      <trkpt lat="38.307768" lon="-2.561633">
        <ele>1320.8</ele>
        <time>2009-03-28T08:59:22Z</time>
      </trkpt>
      <trkpt lat="38.308083" lon="-2.562629">
        <ele>1329.0</ele>
        <time>2009-03-28T08:59:31Z</time>
      </trkpt>
      <trkpt lat="38.308454" lon="-2.563385">
        <ele>1327.4</ele>
        <time>2009-03-28T08:59:39Z</time>
      </trkpt>
      <trkpt lat="38.308480" lon="-2.563936">
        <ele>1327.6</ele>
        <time>2009-03-28T08:59:44Z</time>
      </trkpt>
      <trkpt lat="38.308653" lon="-2.564007">
        <ele>1324.2</ele>
        <time>2009-03-28T08:59:46Z</time>
      </trkpt>
      <trkpt lat="38.308948" lon="-2.564037">
        <ele>1321.7</ele>
        <time>2009-03-28T08:59:49Z</time>
      </trkpt>
      <trkpt lat="38.308957" lon="-2.564234">
        <ele>1322.2</ele>
        <time>2009-03-28T08:59:51Z</time>
      </trkpt>
      <trkpt lat="38.308786" lon="-2.564671">
        <ele>1324.8</ele>
        <time>2009-03-28T08:59:55Z</time>
      </trkpt>
      <trkpt lat="38.308199" lon="-2.565174">
        <ele>1334.3</ele>
        <time>2009-03-28T09:00:03Z</time>
      </trkpt>
      <trkpt lat="38.308298" lon="-2.565339">
        <ele>1334.6</ele>
        <time>2009-03-28T09:00:05Z</time>
      </trkpt>
      <trkpt lat="38.308536" lon="-2.565774">
        <ele>1338.9</ele>
        <time>2009-03-28T09:00:09Z</time>
      </trkpt>
      <trkpt lat="38.309357" lon="-2.566237">
        <ele>1346.9</ele>
        <time>2009-03-28T09:00:19Z</time>
      </trkpt>
      <trkpt lat="38.310028" lon="-2.566284">
        <ele>1346.9</ele>
        <time>2009-03-28T09:00:27Z</time>
      </trkpt>
      <trkpt lat="38.310461" lon="-2.565950">
        <ele>1342.0</ele>
        <time>2009-03-28T09:00:32Z</time>
      </trkpt>
      <trkpt lat="38.310716" lon="-2.566249">
        <ele>1342.9</ele>
        <time>2009-03-28T09:00:36Z</time>
      </trkpt>
      <trkpt lat="38.310700" lon="-2.566613">
        <ele>1339.0</ele>
        <time>2009-03-28T09:00:39Z</time>
      </trkpt>
      <trkpt lat="38.310384" lon="-2.567311">
        <ele>1335.8</ele>
        <time>2009-03-28T09:00:46Z</time>
      </trkpt>
      <trkpt lat="38.309732" lon="-2.568053">
        <ele>1338.2</ele>
        <time>2009-03-28T09:00:56Z</time>
      </trkpt>
      <trkpt lat="38.309416" lon="-2.568906">
        <ele>1335.9</ele>
        <time>2009-03-28T09:01:04Z</time>
      </trkpt>
      <trkpt lat="38.309206" lon="-2.569874">
        <ele>1330.9</ele>
        <time>2009-03-28T09:01:13Z</time>
      </trkpt>
      <trkpt lat="38.308410" lon="-2.571406">
        <ele>1329.7</ele>
        <time>2009-03-28T09:01:29Z</time>
      </trkpt>
      <trkpt lat="38.308209" lon="-2.572394">
        <ele>1326.1</ele>
        <time>2009-03-28T09:01:38Z</time>
      </trkpt>
      <trkpt lat="38.307924" lon="-2.572988">
        <ele>1324.4</ele>
        <time>2009-03-28T09:01:44Z</time>
      </trkpt>
      <trkpt lat="38.307928" lon="-2.573798">
        <ele>1320.0</ele>
        <time>2009-03-28T09:01:51Z</time>
      </trkpt>
      <trkpt lat="38.307440" lon="-2.574922">
        <ele>1312.7</ele>
        <time>2009-03-28T09:02:02Z</time>
      </trkpt>
      <trkpt lat="38.306584" lon="-2.575915">
        <ele>1305.4</ele>
        <time>2009-03-28T09:02:15Z</time>
      </trkpt>
      <trkpt lat="38.306291" lon="-2.576062">
        <ele>1304.4</ele>
        <time>2009-03-28T09:02:19Z</time>
      </trkpt>
      <trkpt lat="38.305849" lon="-2.576127">
        <ele>1307.7</ele>
        <time>2009-03-28T09:02:24Z</time>
      </trkpt>
      <trkpt lat="38.305408" lon="-2.576451">
        <ele>1309.9</ele>
        <time>2009-03-28T09:02:29Z</time>
      </trkpt>
      <trkpt lat="38.305000" lon="-2.576880">
        <ele>1314.8</ele>
        <time>2009-03-28T09:02:35Z</time>
      </trkpt>
      <trkpt lat="38.305074" lon="-2.577035">
        <ele>1313.3</ele>
        <time>2009-03-28T09:02:37Z</time>
      </trkpt>
      <trkpt lat="38.305459" lon="-2.577054">
        <ele>1310.1</ele>
        <time>2009-03-28T09:02:41Z</time>
      </trkpt>
      <trkpt lat="38.305501" lon="-2.577251">
        <ele>1312.0</ele>
        <time>2009-03-28T09:02:43Z</time>
      </trkpt>
      <trkpt lat="38.305044" lon="-2.577835">
        <ele>1318.9</ele>
        <time>2009-03-28T09:02:50Z</time>
      </trkpt>
      <trkpt lat="38.304996" lon="-2.578043">
        <ele>1320.6</ele>
        <time>2009-03-28T09:02:52Z</time>
      </trkpt>
      <trkpt lat="38.305111" lon="-2.578209">
        <ele>1321.8</ele>
        <time>2009-03-28T09:02:54Z</time>
      </trkpt>
      <trkpt lat="38.305552" lon="-2.578030">
        <ele>1320.4</ele>
        <time>2009-03-28T09:02:59Z</time>
      </trkpt>
      <trkpt lat="38.305733" lon="-2.578122">
        <ele>1321.8</ele>
        <time>2009-03-28T09:03:01Z</time>
      </trkpt>
      <trkpt lat="38.305358" lon="-2.578592">
        <ele>1324.8</ele>
        <time>2009-03-28T09:03:07Z</time>
      </trkpt>
      <trkpt lat="38.304950" lon="-2.578937">
        <ele>1327.5</ele>
        <time>2009-03-28T09:03:12Z</time>
      </trkpt>
      <trkpt lat="38.304600" lon="-2.579459">
        <ele>1330.4</ele>
        <time>2009-03-28T09:03:18Z</time>
      </trkpt>
      <trkpt lat="38.304307" lon="-2.580042">
        <ele>1333.8</ele>
        <time>2009-03-28T09:03:24Z</time>
      </trkpt>
      <trkpt lat="38.304179" lon="-2.580666">
        <ele>1338.0</ele>
        <time>2009-03-28T09:03:30Z</time>
      </trkpt>
      <trkpt lat="38.304630" lon="-2.581006">
        <ele>1339.8</ele>
        <time>2009-03-28T09:03:36Z</time>
      </trkpt>
      <trkpt lat="38.305253" lon="-2.581303">
        <ele>1348.5</ele>
        <time>2009-03-28T09:03:43Z</time>
      </trkpt>
      <trkpt lat="38.305843" lon="-2.581352">
        <ele>1352.3</ele>
        <time>2009-03-28T09:03:50Z</time>
      </trkpt>
      <trkpt lat="38.306376" lon="-2.581848">
        <ele>1360.7</ele>
        <time>2009-03-28T09:03:57Z</time>
      </trkpt>
      <trkpt lat="38.306655" lon="-2.582233">
        <ele>1363.9</ele>
        <time>2009-03-28T09:04:02Z</time>
      </trkpt>
      <trkpt lat="38.306620" lon="-2.582861">
        <ele>1372.4</ele>
        <time>2009-03-28T09:04:07Z</time>
      </trkpt>
      <trkpt lat="38.306954" lon="-2.583094">
        <ele>1364.7</ele>
        <time>2009-03-28T09:04:12Z</time>
      </trkpt>
      <trkpt lat="38.306954" lon="-2.583094">
        <ele>1364.7</ele>
        <time>2009-03-28T09:04:12Z</time>
      </trkpt>
      <trkpt lat="38.306954" lon="-2.583094">
        <ele>1364.7</ele>
        <time>2009-03-28T09:04:12Z</time>
      </trkpt>
      <trkpt lat="38.307501" lon="-2.583044">
        <ele>1356.2</ele>
        <time>2009-03-28T09:04:18Z</time>
      </trkpt>
      <trkpt lat="38.307876" lon="-2.582770">
        <ele>1355.4</ele>
        <time>2009-03-28T09:04:22Z</time>
      </trkpt>
      <trkpt lat="38.308105" lon="-2.582656">
        <ele>1354.3</ele>
        <time>2009-03-28T09:04:25Z</time>
      </trkpt>
      <trkpt lat="38.308497" lon="-2.582710">
        <ele>1348.0</ele>
        <time>2009-03-28T09:04:30Z</time>
      </trkpt>
      <trkpt lat="38.309079" lon="-2.582332">
        <ele>1352.3</ele>
        <time>2009-03-28T09:04:37Z</time>
      </trkpt>
      <trkpt lat="38.309596" lon="-2.582301">
        <ele>1350.4</ele>
        <time>2009-03-28T09:04:43Z</time>
      </trkpt>
      <trkpt lat="38.310468" lon="-2.582398">
        <ele>1351.1</ele>
        <time>2009-03-28T09:04:52Z</time>
      </trkpt>
      <trkpt lat="38.310514" lon="-2.582421">
        <ele>1351.8</ele>
        <time>1989-12-30T23:59:59Z</time>
      </trkpt>
      <trkpt lat="38.310531" lon="-2.582414">
        <ele>1359.4</ele>
        <time>1989-12-30T23:59:59Z</time>
      </trkpt>
      <trkpt lat="38.310669" lon="-2.582408">
        <ele>1351.8</ele>
        <time>1989-12-30T23:59:59Z</time>
      </trkpt>
      <trkpt lat="38.310675" lon="-2.582294">
        <ele>1358.5</ele>
        <time>1989-12-30T23:59:59Z</time>
      </trkpt>
      <trkpt lat="38.310818" lon="-2.582217">
        <ele>1353.2</ele>
        <time>1989-12-30T23:59:59Z</time>
      </trkpt>
      <trkpt lat="38.310970" lon="-2.582061">
        <ele>1352.7</ele>
        <time>1989-12-30T23:59:59Z</time>
      </trkpt>
      <trkpt lat="38.311079" lon="-2.582011">
        <ele>1352.7</ele>
        <time>1989-12-30T23:59:59Z</time>
      </trkpt>
      <trkpt lat="38.311580" lon="-2.581910">
        <ele>1349.8</ele>
        <time>1989-12-30T23:59:59Z</time>
      </trkpt>
      <trkpt lat="38.311824" lon="-2.581931">
        <ele>1350.8</ele>
        <time>1989-12-30T23:59:59Z</time>
      </trkpt>
      <trkpt lat="38.312074" lon="-2.581936">
        <ele>1350.3</ele>
        <time>1989-12-30T23:59:59Z</time>
      </trkpt>
      <trkpt lat="38.312279" lon="-2.581946">
        <ele>1348.9</ele>
        <time>1989-12-30T23:59:59Z</time>
      </trkpt>
      <trkpt lat="38.312525" lon="-2.581951">
        <ele>1355.1</ele>
        <time>1989-12-30T23:59:59Z</time>
      </trkpt>
      <trkpt lat="38.312640" lon="-2.581917">
        <ele>1354.2</ele>
        <time>1989-12-30T23:59:59Z</time>
      </trkpt>
      <trkpt lat="38.312842" lon="-2.581817">
        <ele>1356.1</ele>
        <time>1989-12-30T23:59:59Z</time>
      </trkpt>
      <trkpt lat="38.312926" lon="-2.581741">
        <ele>1357.0</ele>
        <time>1989-12-30T23:59:59Z</time>
      </trkpt>
      <trkpt lat="38.313126" lon="-2.581484">
        <ele>1357.5</ele>
        <time>1989-12-30T23:59:59Z</time>
      </trkpt>
      <trkpt lat="38.313082" lon="-2.581356">
        <ele>1356.1</ele>
        <time>1989-12-30T23:59:59Z</time>
      </trkpt>
      <trkpt lat="38.313041" lon="-2.581202">
        <ele>1356.1</ele>
        <time>1989-12-30T23:59:59Z</time>
      </trkpt>
      <trkpt lat="38.312998" lon="-2.581067">
        <ele>1358.5</ele>
        <time>1989-12-30T23:59:59Z</time>
      </trkpt>
      <trkpt lat="38.312966" lon="-2.580918">
        <ele>1360.9</ele>
        <time>1989-12-30T23:59:59Z</time>
      </trkpt>
      <trkpt lat="38.312948" lon="-2.580757">
        <ele>1361.8</ele>
        <time>1989-12-30T23:59:59Z</time>
      </trkpt>
      <trkpt lat="38.312959" lon="-2.580656">
        <ele>1369.1</ele>
        <time>1989-12-30T23:59:59Z</time>
      </trkpt>
      <trkpt lat="38.312934" lon="-2.580465">
        <ele>1365.7</ele>
        <time>1989-12-30T23:59:59Z</time>
      </trkpt>
      <trkpt lat="38.312939" lon="-2.580347">
        <ele>1364.7</ele>
        <time>1989-12-30T23:59:59Z</time>
      </trkpt>
      <trkpt lat="38.312960" lon="-2.580214">
        <ele>1364.7</ele>
        <time>1989-12-30T23:59:59Z</time>
      </trkpt>
      <trkpt lat="38.312997" lon="-2.580099">
        <ele>1362.8</ele>
        <time>1989-12-30T23:59:59Z</time>
      </trkpt>
      <trkpt lat="38.313094" lon="-2.579855">
        <ele>1362.3</ele>
        <time>1989-12-30T23:59:59Z</time>
      </trkpt>
      <trkpt lat="38.313107" lon="-2.579722">
        <ele>1362.3</ele>
        <time>1989-12-30T23:59:59Z</time>
      </trkpt>
      <trkpt lat="38.313121" lon="-2.579593">
        <ele>1362.8</ele>
        <time>1989-12-30T23:59:59Z</time>
      </trkpt>
      <trkpt lat="38.313130" lon="-2.579469">
        <ele>1363.8</ele>
        <time>1989-12-30T23:59:59Z</time>
      </trkpt>
      <trkpt lat="38.313111" lon="-2.579319">
        <ele>1370.0</ele>
        <time>1989-12-30T23:59:59Z</time>
      </trkpt>
      <trkpt lat="38.313118" lon="-2.579151">
        <ele>1369.1</ele>
        <time>1989-12-30T23:59:59Z</time>
      </trkpt>
      <trkpt lat="38.313132" lon="-2.579012">
        <ele>1369.5</ele>
        <time>1989-12-30T23:59:59Z</time>
      </trkpt>
      <trkpt lat="38.313131" lon="-2.578872">
        <ele>1370.5</ele>
        <time>1989-12-30T23:59:59Z</time>
      </trkpt>
      <trkpt lat="38.313241" lon="-2.578667">
        <ele>1369.5</ele>
        <time>1989-12-30T23:59:59Z</time>
      </trkpt>
      <trkpt lat="38.313274" lon="-2.578553">
        <ele>1370.0</ele>
        <time>1989-12-30T23:59:59Z</time>
      </trkpt>
      <trkpt lat="38.313422" lon="-2.578390">
        <ele>1364.7</ele>
        <time>1989-12-30T23:59:59Z</time>
      </trkpt>
      <trkpt lat="38.313459" lon="-2.578318">
        <ele>1370.5</ele>
        <time>1989-12-30T23:59:59Z</time>
      </trkpt>
      <trkpt lat="38.313533" lon="-2.578214">
        <ele>1369.1</ele>
        <time>1989-12-30T23:59:59Z</time>
      </trkpt>
      <trkpt lat="38.313642" lon="-2.578073">
        <ele>1370.5</ele>
        <time>1989-12-30T23:59:59Z</time>
      </trkpt>
      <trkpt lat="38.313762" lon="-2.578008">
        <ele>1370.5</ele>
        <time>1989-12-30T23:59:59Z</time>
      </trkpt>
      <trkpt lat="38.313872" lon="-2.577865">
        <ele>1368.6</ele>
        <time>1989-12-30T23:59:59Z</time>
      </trkpt>
      <trkpt lat="38.313973" lon="-2.577803">
        <ele>1370.5</ele>
        <time>1989-12-30T23:59:59Z</time>
      </trkpt>
      <trkpt lat="38.314070" lon="-2.577729">
        <ele>1374.3</ele>
        <time>1989-12-30T23:59:59Z</time>
      </trkpt>
      <trkpt lat="38.314170" lon="-2.577697">
        <ele>1374.3</ele>
        <time>1989-12-30T23:59:59Z</time>
      </trkpt>
      <trkpt lat="38.314243" lon="-2.577679">
        <ele>1374.8</ele>
        <time>1989-12-30T23:59:59Z</time>
      </trkpt>
      <trkpt lat="38.314329" lon="-2.577667">
        <ele>1374.8</ele>
        <time>1989-12-30T23:59:59Z</time>
      </trkpt>
      <trkpt lat="38.314484" lon="-2.577607">
        <ele>1376.3</ele>
        <time>1989-12-30T23:59:59Z</time>
      </trkpt>
      <trkpt lat="38.314651" lon="-2.577564">
        <ele>1377.2</ele>
        <time>1989-12-30T23:59:59Z</time>
      </trkpt>
      <trkpt lat="38.314815" lon="-2.577493">
        <ele>1384.9</ele>
        <time>1989-12-30T23:59:59Z</time>
      </trkpt>
      <trkpt lat="38.314915" lon="-2.577461">
        <ele>1385.4</ele>
        <time>1989-12-30T23:59:59Z</time>
      </trkpt>
      <trkpt lat="38.314906" lon="-2.577435">
        <ele>1386.8</ele>
        <time>1989-12-30T23:59:59Z</time>
      </trkpt>
      <trkpt lat="38.315096" lon="-2.577424">
        <ele>1388.8</ele>
        <time>1989-12-30T23:59:59Z</time>
      </trkpt>
      <trkpt lat="38.315194" lon="-2.577404">
        <ele>1373.9</ele>
        <time>1989-12-30T23:59:59Z</time>
      </trkpt>
      <trkpt lat="38.315289" lon="-2.577414">
        <ele>1374.8</ele>
        <time>1989-12-30T23:59:59Z</time>
      </trkpt>
      <trkpt lat="38.315386" lon="-2.577409">
        <ele>1384.0</ele>
        <time>1989-12-30T23:59:59Z</time>
      </trkpt>
      <trkpt lat="38.315493" lon="-2.577414">
        <ele>1380.1</ele>
        <time>1989-12-30T23:59:59Z</time>
      </trkpt>
      <trkpt lat="38.315559" lon="-2.577468">
        <ele>1378.7</ele>
        <time>1989-12-30T23:59:59Z</time>
      </trkpt>
      <trkpt lat="38.315490" lon="-2.577622">
        <ele>1383.0</ele>
        <time>1989-12-30T23:59:59Z</time>
      </trkpt>
      <trkpt lat="38.315327" lon="-2.578178">
        <ele>1387.8</ele>
        <time>1989-12-30T23:59:59Z</time>
      </trkpt>
      <trkpt lat="38.315305" lon="-2.578278">
        <ele>1383.5</ele>
        <time>1989-12-30T23:59:59Z</time>
      </trkpt>
      <trkpt lat="38.315246" lon="-2.578371">
        <ele>1384.0</ele>
        <time>1989-12-30T23:59:59Z</time>
      </trkpt>
      <trkpt lat="38.315214" lon="-2.578493">
        <ele>1384.0</ele>
        <time>1989-12-30T23:59:59Z</time>
      </trkpt>
      <trkpt lat="38.315172" lon="-2.578913">
        <ele>1376.3</ele>
        <time>1989-12-30T23:59:59Z</time>
      </trkpt>
      <trkpt lat="38.315141" lon="-2.579060">
        <ele>1377.7</ele>
        <time>1989-12-30T23:59:59Z</time>
      </trkpt>
      <trkpt lat="38.315224" lon="-2.579238">
        <ele>1376.3</ele>
        <time>1989-12-30T23:59:59Z</time>
      </trkpt>
      <trkpt lat="38.315333" lon="-2.579151">
        <ele>1358.5</ele>
        <time>1989-12-30T23:59:59Z</time>
      </trkpt>
      <trkpt lat="38.315548" lon="-2.579039">
        <ele>1361.4</ele>
        <time>1989-12-30T23:59:59Z</time>
      </trkpt>
      <trkpt lat="38.315664" lon="-2.579035">
        <ele>1364.2</ele>
        <time>1989-12-30T23:59:59Z</time>
      </trkpt>
      <trkpt lat="38.315789" lon="-2.578997">
        <ele>1371.5</ele>
        <time>1989-12-30T23:59:59Z</time>
      </trkpt>
      <trkpt lat="38.316059" lon="-2.578853">
        <ele>1371.9</ele>
        <time>1989-12-30T23:59:59Z</time>
      </trkpt>
      <trkpt lat="38.316294" lon="-2.578888">
        <ele>1369.1</ele>
        <time>1989-12-30T23:59:59Z</time>
      </trkpt>
      <trkpt lat="38.316595" lon="-2.578999">
        <ele>1369.5</ele>
        <time>1989-12-30T23:59:59Z</time>
      </trkpt>
      <trkpt lat="38.316779" lon="-2.578899">
        <ele>1360.4</ele>
        <time>1989-12-30T23:59:59Z</time>
      </trkpt>
      <trkpt lat="38.316979" lon="-2.578944">
        <ele>1365.2</ele>
        <time>1989-12-30T23:59:59Z</time>
      </trkpt>
      <trkpt lat="38.316972" lon="-2.579139">
        <ele>1361.4</ele>
        <time>1989-12-30T23:59:59Z</time>
      </trkpt>
      <trkpt lat="38.317027" lon="-2.579275">
        <ele>1359.4</ele>
        <time>1989-12-30T23:59:59Z</time>
      </trkpt>
      <trkpt lat="38.317136" lon="-2.579351">
        <ele>1359.0</ele>
        <time>1989-12-30T23:59:59Z</time>
      </trkpt>
      <trkpt lat="38.317317" lon="-2.579327">
        <ele>1354.6</ele>
        <time>1989-12-30T23:59:59Z</time>
      </trkpt>
      <trkpt lat="38.317364" lon="-2.579252">
        <ele>1340.7</ele>
        <time>1989-12-30T23:59:59Z</time>
      </trkpt>
      <trkpt lat="38.317480" lon="-2.579245">
        <ele>1342.6</ele>
        <time>1989-12-30T23:59:59Z</time>
      </trkpt>
      <trkpt lat="38.317659" lon="-2.579343">
        <ele>1344.1</ele>
        <time>1989-12-30T23:59:59Z</time>
      </trkpt>
      <trkpt lat="38.317757" lon="-2.579364">
        <ele>1346.9</ele>
        <time>1989-12-30T23:59:59Z</time>
      </trkpt>
      <trkpt lat="38.317948" lon="-2.579328">
        <ele>1350.3</ele>
        <time>1989-12-30T23:59:59Z</time>
      </trkpt>
      <trkpt lat="38.318535" lon="-2.579432">
        <ele>1347.9</ele>
        <time>1989-12-30T23:59:59Z</time>
      </trkpt>
      <trkpt lat="38.318616" lon="-2.579415">
        <ele>1350.3</ele>
        <time>1989-12-30T23:59:59Z</time>
      </trkpt>
      <trkpt lat="38.318711" lon="-2.579456">
        <ele>1349.3</ele>
        <time>1989-12-30T23:59:59Z</time>
      </trkpt>
      <trkpt lat="38.319003" lon="-2.579548">
        <ele>1356.6</ele>
        <time>1989-12-30T23:59:59Z</time>
      </trkpt>
      <trkpt lat="38.319551" lon="-2.579723">
        <ele>1343.6</ele>
        <time>1989-12-30T23:59:59Z</time>
      </trkpt>
      <trkpt lat="38.319733" lon="-2.579750">
        <ele>1335.4</ele>
        <time>1989-12-30T23:59:59Z</time>
      </trkpt>
      <trkpt lat="38.319890" lon="-2.579899">
        <ele>1342.6</ele>
        <time>1989-12-30T23:59:59Z</time>
      </trkpt>
      <trkpt lat="38.319982" lon="-2.579902">
        <ele>1343.6</ele>
        <time>1989-12-30T23:59:59Z</time>
      </trkpt>
      <trkpt lat="38.320294" lon="-2.579553">
        <ele>1344.1</ele>
        <time>1989-12-30T23:59:59Z</time>
      </trkpt>
      <trkpt lat="38.320383" lon="-2.579507">
        <ele>1340.2</ele>
        <time>1989-12-30T23:59:59Z</time>
      </trkpt>
      <trkpt lat="38.320472" lon="-2.579491">
        <ele>1339.7</ele>
        <time>1989-12-30T23:59:59Z</time>
      </trkpt>
      <trkpt lat="38.320535" lon="-2.579576">
        <ele>1343.6</ele>
        <time>1989-12-30T23:59:59Z</time>
      </trkpt>
      <trkpt lat="38.320589" lon="-2.579686">
        <ele>1344.1</ele>
        <time>1989-12-30T23:59:59Z</time>
      </trkpt>
      <trkpt lat="38.320722" lon="-2.579852">
        <ele>1342.6</ele>
        <time>1989-12-30T23:59:59Z</time>
      </trkpt>
      <trkpt lat="38.320878" lon="-2.579982">
        <ele>1342.1</ele>
        <time>1989-12-30T23:59:59Z</time>
      </trkpt>
      <trkpt lat="38.321052" lon="-2.579916">
        <ele>1342.1</ele>
        <time>1989-12-30T23:59:59Z</time>
      </trkpt>
      <trkpt lat="38.321254" lon="-2.579776">
        <ele>1342.6</ele>
        <time>1989-12-30T23:59:59Z</time>
      </trkpt>
      <trkpt lat="38.321513" lon="-2.579591">
        <ele>1355.6</ele>
        <time>1989-12-30T23:59:59Z</time>
      </trkpt>
      <trkpt lat="38.321535" lon="-2.579522">
        <ele>1346.9</ele>
        <time>1989-12-30T23:59:59Z</time>
      </trkpt>
      <trkpt lat="38.321558" lon="-2.579322">
        <ele>1341.7</ele>
        <time>1989-12-30T23:59:59Z</time>
      </trkpt>
      <trkpt lat="38.321746" lon="-2.579113">
        <ele>1341.2</ele>
        <time>1989-12-30T23:59:59Z</time>
      </trkpt>
      <trkpt lat="38.321928" lon="-2.579142">
        <ele>1340.2</ele>
        <time>1989-12-30T23:59:59Z</time>
      </trkpt>
      <trkpt lat="38.322101" lon="-2.579127">
        <ele>1341.2</ele>
        <time>1989-12-30T23:59:59Z</time>
      </trkpt>
      <trkpt lat="38.322423" lon="-2.578931">
        <ele>1341.2</ele>
        <time>1989-12-30T23:59:59Z</time>
      </trkpt>
      <trkpt lat="38.322519" lon="-2.578922">
        <ele>1340.2</ele>
        <time>1989-12-30T23:59:59Z</time>
      </trkpt>
      <trkpt lat="38.322846" lon="-2.578989">
        <ele>1347.4</ele>
        <time>1989-12-30T23:59:59Z</time>
      </trkpt>
      <trkpt lat="38.323060" lon="-2.578930">
        <ele>1346.0</ele>
        <time>1989-12-30T23:59:59Z</time>
      </trkpt>
      <trkpt lat="38.323419" lon="-2.578783">
        <ele>1344.5</ele>
        <time>1989-12-30T23:59:59Z</time>
      </trkpt>
      <trkpt lat="38.323754" lon="-2.578940">
        <ele>1342.6</ele>
        <time>1989-12-30T23:59:59Z</time>
      </trkpt>
      <trkpt lat="38.324207" lon="-2.578590">
        <ele>1340.7</ele>
        <time>1989-12-30T23:59:59Z</time>
      </trkpt>
      <trkpt lat="38.324279" lon="-2.578484">
        <ele>1341.7</ele>
        <time>1989-12-30T23:59:59Z</time>
      </trkpt>
      <trkpt lat="38.324363" lon="-2.578405">
        <ele>1341.2</ele>
        <time>1989-12-30T23:59:59Z</time>
      </trkpt>
      <trkpt lat="38.324544" lon="-2.578353">
        <ele>1341.2</ele>
        <time>1989-12-30T23:59:59Z</time>
      </trkpt>
      <trkpt lat="38.324639" lon="-2.578359">
        <ele>1341.2</ele>
        <time>1989-12-30T23:59:59Z</time>
      </trkpt>
      <trkpt lat="38.324826" lon="-2.578317">
        <ele>1338.8</ele>
        <time>1989-12-30T23:59:59Z</time>
      </trkpt>
      <trkpt lat="38.325033" lon="-2.578135">
        <ele>1332.5</ele>
        <time>1989-12-30T23:59:59Z</time>
      </trkpt>
      <trkpt lat="38.325190" lon="-2.577999">
        <ele>1332.0</ele>
        <time>1989-12-30T23:59:59Z</time>
      </trkpt>
      <trkpt lat="38.325277" lon="-2.578033">
        <ele>1331.1</ele>
        <time>1989-12-30T23:59:59Z</time>
      </trkpt>
      <trkpt lat="38.325421" lon="-2.578221">
        <ele>1330.1</ele>
        <time>1989-12-30T23:59:59Z</time>
      </trkpt>
      <trkpt lat="38.325620" lon="-2.578232">
        <ele>1327.2</ele>
        <time>1989-12-30T23:59:59Z</time>
      </trkpt>
      <trkpt lat="38.325836" lon="-2.578185">
        <ele>1330.1</ele>
        <time>1989-12-30T23:59:59Z</time>
      </trkpt>
      <trkpt lat="38.326021" lon="-2.578052">
        <ele>1333.0</ele>
        <time>1989-12-30T23:59:59Z</time>
      </trkpt>
      <trkpt lat="38.326280" lon="-2.577932">
        <ele>1331.6</ele>
        <time>1989-12-30T23:59:59Z</time>
      </trkpt>
      <trkpt lat="38.326525" lon="-2.577527">
        <ele>1331.6</ele>
        <time>1989-12-30T23:59:59Z</time>
      </trkpt>
      <trkpt lat="38.326624" lon="-2.577477">
        <ele>1329.6</ele>
        <time>1989-12-30T23:59:59Z</time>
      </trkpt>
      <trkpt lat="38.326794" lon="-2.577323">
        <ele>1328.7</ele>
        <time>1989-12-30T23:59:59Z</time>
      </trkpt>
      <trkpt lat="38.326828" lon="-2.577093">
        <ele>1328.2</ele>
        <time>1989-12-30T23:59:59Z</time>
      </trkpt>
      <trkpt lat="38.326744" lon="-2.576850">
        <ele>1327.7</ele>
        <time>1989-12-30T23:59:59Z</time>
      </trkpt>
      <trkpt lat="38.326749" lon="-2.576691">
        <ele>1327.7</ele>
        <time>1989-12-30T23:59:59Z</time>
      </trkpt>
      <trkpt lat="38.326815" lon="-2.576606">
        <ele>1327.2</ele>
        <time>1989-12-30T23:59:59Z</time>
      </trkpt>
      <trkpt lat="38.327074" lon="-2.576616">
        <ele>1324.4</ele>
        <time>1989-12-30T23:59:59Z</time>
      </trkpt>
      <trkpt lat="38.327374" lon="-2.576511">
        <ele>1324.8</ele>
        <time>1989-12-30T23:59:59Z</time>
      </trkpt>
      <trkpt lat="38.327788" lon="-2.576577">
        <ele>1329.6</ele>
        <time>1989-12-30T23:59:59Z</time>
      </trkpt>
      <trkpt lat="38.327887" lon="-2.576621">
        <ele>1330.1</ele>
        <time>1989-12-30T23:59:59Z</time>
      </trkpt>
      <trkpt lat="38.327989" lon="-2.576645">
        <ele>1335.4</ele>
        <time>1989-12-30T23:59:59Z</time>
      </trkpt>
      <trkpt lat="38.328117" lon="-2.576677">
        <ele>1334.9</ele>
        <time>1989-12-30T23:59:59Z</time>
      </trkpt>
      <trkpt lat="38.328200" lon="-2.576726">
        <ele>1333.0</ele>
        <time>1989-12-30T23:59:59Z</time>
      </trkpt>
      <trkpt lat="38.328386" lon="-2.576693">
        <ele>1331.6</ele>
        <time>1989-12-30T23:59:59Z</time>
      </trkpt>
      <trkpt lat="38.328480" lon="-2.576680">
        <ele>1325.8</ele>
        <time>1989-12-30T23:59:59Z</time>
      </trkpt>
      <trkpt lat="38.328770" lon="-2.576874">
        <ele>1323.4</ele>
        <time>1989-12-30T23:59:59Z</time>
      </trkpt>
      <trkpt lat="38.328991" lon="-2.576984">
        <ele>1326.8</ele>
        <time>1989-12-30T23:59:59Z</time>
      </trkpt>
      <trkpt lat="38.329087" lon="-2.577017">
        <ele>1322.4</ele>
        <time>1989-12-30T23:59:59Z</time>
      </trkpt>
      <trkpt lat="38.329155" lon="-2.577092">
        <ele>1321.0</ele>
        <time>1989-12-30T23:59:59Z</time>
      </trkpt>
      <trkpt lat="38.329307" lon="-2.577202">
        <ele>1321.9</ele>
        <time>1989-12-30T23:59:59Z</time>
      </trkpt>
      <trkpt lat="38.329392" lon="-2.577238">
        <ele>1326.8</ele>
        <time>1989-12-30T23:59:59Z</time>
      </trkpt>
      <trkpt lat="38.329470" lon="-2.577297">
        <ele>1326.3</ele>
        <time>1989-12-30T23:59:59Z</time>
      </trkpt>
      <trkpt lat="38.329505" lon="-2.577223">
        <ele>1328.2</ele>
        <time>1989-12-30T23:59:59Z</time>
      </trkpt>
      <trkpt lat="38.329569" lon="-2.577157">
        <ele>1325.3</ele>
        <time>1989-12-30T23:59:59Z</time>
      </trkpt>
      <trkpt lat="38.329623" lon="-2.577081">
        <ele>1326.8</ele>
        <time>1989-12-30T23:59:59Z</time>
      </trkpt>
      <trkpt lat="38.329736" lon="-2.576847">
        <ele>1325.3</ele>
        <time>1989-12-30T23:59:59Z</time>
      </trkpt>
      <trkpt lat="38.329880" lon="-2.576430">
        <ele>1322.4</ele>
        <time>1989-12-30T23:59:59Z</time>
      </trkpt>
      <trkpt lat="38.329939" lon="-2.576347">
        <ele>1321.9</ele>
        <time>1989-12-30T23:59:59Z</time>
      </trkpt>
      <trkpt lat="38.330154" lon="-2.576374">
        <ele>1315.7</ele>
        <time>1989-12-30T23:59:59Z</time>
      </trkpt>
      <trkpt lat="38.330352" lon="-2.576461">
        <ele>1308.5</ele>
        <time>1989-12-30T23:59:59Z</time>
      </trkpt>
      <trkpt lat="38.330435" lon="-2.576410">
        <ele>1308.5</ele>
        <time>1989-12-30T23:59:59Z</time>
      </trkpt>
      <trkpt lat="38.330598" lon="-2.576199">
        <ele>1309.0</ele>
        <time>1989-12-30T23:59:59Z</time>
      </trkpt>
      <trkpt lat="38.330806" lon="-2.576221">
        <ele>1308.0</ele>
        <time>1989-12-30T23:59:59Z</time>
      </trkpt>
      <trkpt lat="38.330988" lon="-2.576156">
        <ele>1309.0</ele>
        <time>1989-12-30T23:59:59Z</time>
      </trkpt>
      <trkpt lat="38.331266" lon="-2.576203">
        <ele>1310.4</ele>
        <time>1989-12-30T23:59:59Z</time>
      </trkpt>
      <trkpt lat="38.331386" lon="-2.576195">
        <ele>1311.4</ele>
        <time>1989-12-30T23:59:59Z</time>
      </trkpt>
      <trkpt lat="38.331485" lon="-2.576158">
        <ele>1320.0</ele>
        <time>1989-12-30T23:59:59Z</time>
      </trkpt>
      <trkpt lat="38.331881" lon="-2.576151">
        <ele>1326.8</ele>
        <time>1989-12-30T23:59:59Z</time>
      </trkpt>
      <trkpt lat="38.332067" lon="-2.576112">
        <ele>1326.3</ele>
        <time>1989-12-30T23:59:59Z</time>
      </trkpt>
      <trkpt lat="38.332448" lon="-2.576109">
        <ele>1327.2</ele>
        <time>1989-12-30T23:59:59Z</time>
      </trkpt>
      <trkpt lat="38.332833" lon="-2.576163">
        <ele>1334.9</ele>
        <time>1989-12-30T23:59:59Z</time>
      </trkpt>
      <trkpt lat="38.333197" lon="-2.576299">
        <ele>1337.3</ele>
        <time>1989-12-30T23:59:59Z</time>
      </trkpt>
      <trkpt lat="38.333646" lon="-2.576510">
        <ele>1335.4</ele>
        <time>1989-12-30T23:59:59Z</time>
      </trkpt>
      <trkpt lat="38.333839" lon="-2.576532">
        <ele>1335.4</ele>
        <time>1989-12-30T23:59:59Z</time>
      </trkpt>
      <trkpt lat="38.334031" lon="-2.576537">
        <ele>1339.3</ele>
        <time>1989-12-30T23:59:59Z</time>
      </trkpt>
      <trkpt lat="38.334432" lon="-2.576593">
        <ele>1335.4</ele>
        <time>1989-12-30T23:59:59Z</time>
      </trkpt>
      <trkpt lat="38.334609" lon="-2.576702">
        <ele>1336.9</ele>
        <time>1989-12-30T23:59:59Z</time>
      </trkpt>
      <trkpt lat="38.334702" lon="-2.576754">
        <ele>1334.9</ele>
        <time>1989-12-30T23:59:59Z</time>
      </trkpt>
      <trkpt lat="38.334889" lon="-2.576812">
        <ele>1336.4</ele>
        <time>1989-12-30T23:59:59Z</time>
      </trkpt>
      <trkpt lat="38.334978" lon="-2.576779">
        <ele>1336.4</ele>
        <time>1989-12-30T23:59:59Z</time>
      </trkpt>
      <trkpt lat="38.335051" lon="-2.576691">
        <ele>1334.9</ele>
        <time>1989-12-30T23:59:59Z</time>
      </trkpt>
      <trkpt lat="38.335202" lon="-2.576367">
        <ele>1332.0</ele>
        <time>1989-12-30T23:59:59Z</time>
      </trkpt>
      <trkpt lat="38.335337" lon="-2.576202">
        <ele>1330.6</ele>
        <time>1989-12-30T23:59:59Z</time>
      </trkpt>
      <trkpt lat="38.335515" lon="-2.576149">
        <ele>1329.2</ele>
        <time>1989-12-30T23:59:59Z</time>
      </trkpt>
      <trkpt lat="38.335706" lon="-2.576169">
        <ele>1325.3</ele>
        <time>1989-12-30T23:59:59Z</time>
      </trkpt>
      <trkpt lat="38.335844" lon="-2.576249">
        <ele>1331.1</ele>
        <time>1989-12-30T23:59:59Z</time>
      </trkpt>
      <trkpt lat="38.336188" lon="-2.576379">
        <ele>1324.4</ele>
        <time>1989-12-30T23:59:59Z</time>
      </trkpt>
      <trkpt lat="38.336863" lon="-2.576645">
        <ele>1324.8</ele>
        <time>1989-12-30T23:59:59Z</time>
      </trkpt>
      <trkpt lat="38.337820" lon="-2.577090">
        <ele>1323.9</ele>
        <time>1989-12-30T23:59:59Z</time>
      </trkpt>
      <trkpt lat="38.338225" lon="-2.577233">
        <ele>1321.0</ele>
        <time>1989-12-30T23:59:59Z</time>
      </trkpt>
      <trkpt lat="38.338986" lon="-2.577535">
        <ele>1323.9</ele>
        <time>1989-12-30T23:59:59Z</time>
      </trkpt>
      <trkpt lat="38.339153" lon="-2.577672">
        <ele>1323.9</ele>
        <time>1989-12-30T23:59:59Z</time>
      </trkpt>
      <trkpt lat="38.339465" lon="-2.578046">
        <ele>1311.9</ele>
        <time>1989-12-30T23:59:59Z</time>
      </trkpt>
      <trkpt lat="38.339642" lon="-2.578164">
        <ele>1312.8</ele>
        <time>1989-12-30T23:59:59Z</time>
      </trkpt>
      <trkpt lat="38.339810" lon="-2.578289">
        <ele>1329.2</ele>
        <time>1989-12-30T23:59:59Z</time>
      </trkpt>
      <trkpt lat="38.339959" lon="-2.578460">
        <ele>1328.7</ele>
        <time>1989-12-30T23:59:59Z</time>
      </trkpt>
      <trkpt lat="38.340038" lon="-2.578527">
        <ele>1325.8</ele>
        <time>1989-12-30T23:59:59Z</time>
      </trkpt>
      <trkpt lat="38.340316" lon="-2.578658">
        <ele>1320.0</ele>
        <time>1989-12-30T23:59:59Z</time>
      </trkpt>
      <trkpt lat="38.340772" lon="-2.578768">
        <ele>1316.7</ele>
        <time>1989-12-30T23:59:59Z</time>
      </trkpt>
      <trkpt lat="38.340946" lon="-2.578849">
        <ele>1312.3</ele>
        <time>1989-12-30T23:59:59Z</time>
      </trkpt>
      <trkpt lat="38.341089" lon="-2.579020">
        <ele>1310.4</ele>
        <time>1989-12-30T23:59:59Z</time>
      </trkpt>
      <trkpt lat="38.341191" lon="-2.579361">
        <ele>1307.5</ele>
        <time>1989-12-30T23:59:59Z</time>
      </trkpt>
      <trkpt lat="38.341196" lon="-2.579738">
        <ele>1296.0</ele>
        <time>1989-12-30T23:59:59Z</time>
      </trkpt>
      <trkpt lat="38.341227" lon="-2.579873">
        <ele>1296.0</ele>
        <time>1989-12-30T23:59:59Z</time>
      </trkpt>
      <trkpt lat="38.341495" lon="-2.580409">
        <ele>1295.5</ele>
        <time>1989-12-30T23:59:59Z</time>
      </trkpt>
      <trkpt lat="38.341665" lon="-2.580852">
        <ele>1295.5</ele>
        <time>1989-12-30T23:59:59Z</time>
      </trkpt>
      <trkpt lat="38.341745" lon="-2.582041">
        <ele>1293.6</ele>
        <time>1989-12-30T23:59:59Z</time>
      </trkpt>
      <trkpt lat="38.341700" lon="-2.582158">
        <ele>1293.6</ele>
        <time>1989-12-30T23:59:59Z</time>
      </trkpt>
      <trkpt lat="38.341607" lon="-2.582295">
        <ele>1290.2</ele>
        <time>1989-12-30T23:59:59Z</time>
      </trkpt>
      <trkpt lat="38.341341" lon="-2.582538">
        <ele>1271.0</ele>
        <time>1989-12-30T23:59:59Z</time>
      </trkpt>
      <trkpt lat="38.340770" lon="-2.582849">
        <ele>1269.1</ele>
        <time>1989-12-30T23:59:59Z</time>
      </trkpt>
      <trkpt lat="38.340658" lon="-2.582928">
        <ele>1268.6</ele>
        <time>1989-12-30T23:59:59Z</time>
      </trkpt>
      <trkpt lat="38.340467" lon="-2.583053">
        <ele>1259.0</ele>
        <time>1989-12-30T23:59:59Z</time>
      </trkpt>
      <trkpt lat="38.340490" lon="-2.583431">
        <ele>1263.3</ele>
        <time>1989-12-30T23:59:59Z</time>
      </trkpt>
      <trkpt lat="38.340758" lon="-2.583968">
        <ele>1263.8</ele>
        <time>1989-12-30T23:59:59Z</time>
      </trkpt>
      <trkpt lat="38.340964" lon="-2.584522">
        <ele>1247.0</ele>
        <time>1989-12-30T23:59:59Z</time>
      </trkpt>
      <trkpt lat="38.341059" lon="-2.584850">
        <ele>1255.6</ele>
        <time>1989-12-30T23:59:59Z</time>
      </trkpt>
      <trkpt lat="38.341120" lon="-2.584968">
        <ele>1256.1</ele>
        <time>1989-12-30T23:59:59Z</time>
      </trkpt>
      <trkpt lat="38.341183" lon="-2.585129">
        <ele>1249.9</ele>
        <time>1989-12-30T23:59:59Z</time>
      </trkpt>
      <trkpt lat="38.341132" lon="-2.585645">
        <ele>1248.9</ele>
        <time>1989-12-30T23:59:59Z</time>
      </trkpt>
      <trkpt lat="38.341008" lon="-2.586017">
        <ele>1246.0</ele>
        <time>1989-12-30T23:59:59Z</time>
      </trkpt>
      <trkpt lat="38.341000" lon="-2.586546">
        <ele>1243.6</ele>
        <time>1989-12-30T23:59:59Z</time>
      </trkpt>
      <trkpt lat="38.341029" lon="-2.586836">
        <ele>1248.4</ele>
        <time>1989-12-30T23:59:59Z</time>
      </trkpt>
      <trkpt lat="38.341069" lon="-2.586958">
        <ele>1247.4</ele>
        <time>1989-12-30T23:59:59Z</time>
      </trkpt>
      <trkpt lat="38.341673" lon="-2.587484">
        <ele>1236.4</ele>
        <time>1989-12-30T23:59:59Z</time>
      </trkpt>
      <trkpt lat="38.341772" lon="-2.587509">
        <ele>1234.5</ele>
        <time>1989-12-30T23:59:59Z</time>
      </trkpt>
      <trkpt lat="38.341887" lon="-2.587514">
        <ele>1235.0</ele>
        <time>1989-12-30T23:59:59Z</time>
      </trkpt>
      <trkpt lat="38.342721" lon="-2.587768">
        <ele>1235.4</ele>
        <time>1989-12-30T23:59:59Z</time>
      </trkpt>
      <trkpt lat="38.342721" lon="-2.587768">
        <ele>1210.4</ele>
        <time>1989-12-30T23:59:59Z</time>
      </trkpt>
      <trkpt lat="38.342881" lon="-2.587746">
        <ele>1212.4</ele>
        <time>1989-12-30T23:59:59Z</time>
      </trkpt>
      <trkpt lat="38.343082" lon="-2.587773">
        <ele>1216.2</ele>
        <time>1989-12-30T23:59:59Z</time>
      </trkpt>
      <trkpt lat="38.343339" lon="-2.587725">
        <ele>1214.8</ele>
        <time>1989-12-30T23:59:59Z</time>
      </trkpt>
      <trkpt lat="38.343649" lon="-2.587799">
        <ele>1222.5</ele>
        <time>1989-12-30T23:59:59Z</time>
      </trkpt>
      <trkpt lat="38.344022" lon="-2.587803">
        <ele>1223.4</ele>
        <time>1989-12-30T23:59:59Z</time>
      </trkpt>
      <trkpt lat="38.344145" lon="-2.587761">
        <ele>1238.3</ele>
        <time>1989-12-30T23:59:59Z</time>
      </trkpt>
      <trkpt lat="38.344443" lon="-2.587621">
        <ele>1223.4</ele>
        <time>1989-12-30T23:59:59Z</time>
      </trkpt>
      <trkpt lat="38.344628" lon="-2.587523">
        <ele>1220.1</ele>
        <time>1989-12-30T23:59:59Z</time>
      </trkpt>
      <trkpt lat="38.344941" lon="-2.587563">
        <ele>1219.6</ele>
        <time>1989-12-30T23:59:59Z</time>
      </trkpt>
      <trkpt lat="38.345179" lon="-2.587696">
        <ele>1219.1</ele>
        <time>1989-12-30T23:59:59Z</time>
      </trkpt>
      <trkpt lat="38.345347" lon="-2.587843">
        <ele>1210.0</ele>
        <time>1989-12-30T23:59:59Z</time>
      </trkpt>
      <trkpt lat="38.345714" lon="-2.588029">
        <ele>1210.9</ele>
        <time>1989-12-30T23:59:59Z</time>
      </trkpt>
      <trkpt lat="38.346160" lon="-2.588190">
        <ele>1208.0</ele>
        <time>1989-12-30T23:59:59Z</time>
      </trkpt>
      <trkpt lat="38.346297" lon="-2.588330">
        <ele>1205.6</ele>
        <time>1989-12-30T23:59:59Z</time>
      </trkpt>
      <trkpt lat="38.346356" lon="-2.588570">
        <ele>1205.6</ele>
        <time>1989-12-30T23:59:59Z</time>
      </trkpt>
      <trkpt lat="38.346489" lon="-2.588641">
        <ele>1193.1</ele>
        <time>1989-12-30T23:59:59Z</time>
      </trkpt>
      <trkpt lat="38.346789" lon="-2.588671">
        <ele>1191.2</ele>
        <time>1989-12-30T23:59:59Z</time>
      </trkpt>
      <trkpt lat="38.346880" lon="-2.588744">
        <ele>1198.4</ele>
        <time>1989-12-30T23:59:59Z</time>
      </trkpt>
      <trkpt lat="38.346924" lon="-2.588864">
        <ele>1199.9</ele>
        <time>1989-12-30T23:59:59Z</time>
      </trkpt>
      <trkpt lat="38.346933" lon="-2.588976">
        <ele>1196.5</ele>
        <time>1989-12-30T23:59:59Z</time>
      </trkpt>
      <trkpt lat="38.347058" lon="-2.588963">
        <ele>1197.9</ele>
        <time>1989-12-30T23:59:59Z</time>
      </trkpt>
      <trkpt lat="38.347231" lon="-2.588825">
        <ele>1197.5</ele>
        <time>1989-12-30T23:59:59Z</time>
      </trkpt>
      <trkpt lat="38.347409" lon="-2.588539">
        <ele>1198.4</ele>
        <time>1989-12-30T23:59:59Z</time>
      </trkpt>
      <trkpt lat="38.347488" lon="-2.588582">
        <ele>1198.4</ele>
        <time>1989-12-30T23:59:59Z</time>
      </trkpt>
      <trkpt lat="38.347696" lon="-2.588978">
        <ele>1197.0</ele>
        <time>1989-12-30T23:59:59Z</time>
      </trkpt>
      <trkpt lat="38.347778" lon="-2.588969">
        <ele>1197.0</ele>
        <time>1989-12-30T23:59:59Z</time>
      </trkpt>
      <trkpt lat="38.348003" lon="-2.588885">
        <ele>1195.1</ele>
        <time>1989-12-30T23:59:59Z</time>
      </trkpt>
      <trkpt lat="38.348237" lon="-2.588766">
        <ele>1195.1</ele>
        <time>1989-12-30T23:59:59Z</time>
      </trkpt>
      <trkpt lat="38.348343" lon="-2.588763">
        <ele>1196.0</ele>
        <time>1989-12-30T23:59:59Z</time>
      </trkpt>
      <trkpt lat="38.348430" lon="-2.588545">
        <ele>1197.0</ele>
        <time>1989-12-30T23:59:59Z</time>
      </trkpt>
      <trkpt lat="38.348492" lon="-2.588478">
        <ele>1196.0</ele>
        <time>1989-12-30T23:59:59Z</time>
      </trkpt>
      <trkpt lat="38.348725" lon="-2.588385">
        <ele>1193.6</ele>
        <time>1989-12-30T23:59:59Z</time>
      </trkpt>
      <trkpt lat="38.348757" lon="-2.588415">
        <ele>1195.5</ele>
        <time>1989-12-30T23:59:59Z</time>
      </trkpt>
      <trkpt lat="38.348834" lon="-2.588357">
        <ele>1199.4</ele>
        <time>1989-12-30T23:59:59Z</time>
      </trkpt>
      <trkpt lat="38.348875" lon="-2.588254">
        <ele>1202.7</ele>
        <time>1989-12-30T23:59:59Z</time>
      </trkpt>
      <trkpt lat="38.349049" lon="-2.588169">
        <ele>1204.2</ele>
        <time>1989-12-30T23:59:59Z</time>
      </trkpt>
      <trkpt lat="38.349115" lon="-2.588087">
        <ele>1203.7</ele>
        <time>1989-12-30T23:59:59Z</time>
      </trkpt>
      <trkpt lat="38.349149" lon="-2.587970">
        <ele>1202.3</ele>
        <time>1989-12-30T23:59:59Z</time>
      </trkpt>
      <trkpt lat="38.349231" lon="-2.587908">
        <ele>1201.3</ele>
        <time>1989-12-30T23:59:59Z</time>
      </trkpt>
      <trkpt lat="38.349332" lon="-2.587715">
        <ele>1198.9</ele>
        <time>1989-12-30T23:59:59Z</time>
      </trkpt>
      <trkpt lat="38.349425" lon="-2.587667">
        <ele>1198.4</ele>
        <time>1989-12-30T23:59:59Z</time>
      </trkpt>
      <trkpt lat="38.349516" lon="-2.587657">
        <ele>1197.5</ele>
        <time>1989-12-30T23:59:59Z</time>
      </trkpt>
      <trkpt lat="38.349721" lon="-2.587739">
        <ele>1196.0</ele>
        <time>1989-12-30T23:59:59Z</time>
      </trkpt>
      <trkpt lat="38.349792" lon="-2.587962">
        <ele>1196.5</ele>
        <time>1989-12-30T23:59:59Z</time>
      </trkpt>
      <trkpt lat="38.349811" lon="-2.588320">
        <ele>1196.0</ele>
        <time>1989-12-30T23:59:59Z</time>
      </trkpt>
      <trkpt lat="38.349970" lon="-2.588633">
        <ele>1194.6</ele>
        <time>1989-12-30T23:59:59Z</time>
      </trkpt>
      <trkpt lat="38.350041" lon="-2.588849">
        <ele>1193.1</ele>
        <time>1989-12-30T23:59:59Z</time>
      </trkpt>
      <trkpt lat="38.350113" lon="-2.588930">
        <ele>1192.2</ele>
        <time>1989-12-30T23:59:59Z</time>
      </trkpt>
      <trkpt lat="38.350135" lon="-2.589047">
        <ele>1191.7</ele>
        <time>1989-12-30T23:59:59Z</time>
      </trkpt>
      <trkpt lat="38.350134" lon="-2.589168">
        <ele>1190.7</ele>
        <time>1989-12-30T23:59:59Z</time>
      </trkpt>
      <trkpt lat="38.350095" lon="-2.589267">
        <ele>1192.7</ele>
        <time>1989-12-30T23:59:59Z</time>
      </trkpt>
      <trkpt lat="38.350115" lon="-2.589426">
        <ele>1189.8</ele>
        <time>1989-12-30T23:59:59Z</time>
      </trkpt>
      <trkpt lat="38.350080" lon="-2.589775">
        <ele>1190.2</ele>
        <time>1989-12-30T23:59:59Z</time>
      </trkpt>
      <trkpt lat="38.349981" lon="-2.590001">
        <ele>1188.8</ele>
        <time>1989-12-30T23:59:59Z</time>
      </trkpt>
      <trkpt lat="38.350021" lon="-2.590249">
        <ele>1189.3</ele>
        <time>1989-12-30T23:59:59Z</time>
      </trkpt>
      <trkpt lat="38.350009" lon="-2.590376">
        <ele>1189.8</ele>
        <time>1989-12-30T23:59:59Z</time>
      </trkpt>
      <trkpt lat="38.350037" lon="-2.590499">
        <ele>1190.2</ele>
        <time>1989-12-30T23:59:59Z</time>
      </trkpt>
      <trkpt lat="38.349951" lon="-2.590848">
        <ele>1187.8</ele>
        <time>1989-12-30T23:59:59Z</time>
      </trkpt>
      <trkpt lat="38.349782" lon="-2.591171">
        <ele>1190.2</ele>
        <time>1989-12-30T23:59:59Z</time>
      </trkpt>
      <trkpt lat="38.349761" lon="-2.591277">
        <ele>1190.2</ele>
        <time>1989-12-30T23:59:59Z</time>
      </trkpt>
      <trkpt lat="38.349801" lon="-2.591383">
        <ele>1189.3</ele>
        <time>1989-12-30T23:59:59Z</time>
      </trkpt>
      <trkpt lat="38.349774" lon="-2.591615">
        <ele>1189.8</ele>
        <time>1989-12-30T23:59:59Z</time>
      </trkpt>
      <trkpt lat="38.349852" lon="-2.591698">
        <ele>1190.2</ele>
        <time>1989-12-30T23:59:59Z</time>
      </trkpt>
      <trkpt lat="38.350020" lon="-2.591859">
        <ele>1200.8</ele>
        <time>1989-12-30T23:59:59Z</time>
      </trkpt>
      <trkpt lat="38.350120" lon="-2.592026">
        <ele>1204.2</ele>
        <time>1989-12-30T23:59:59Z</time>
      </trkpt>
      <trkpt lat="38.350017" lon="-2.592081">
        <ele>1204.7</ele>
        <time>1989-12-30T23:59:59Z</time>
      </trkpt>
      <trkpt lat="38.350110" lon="-2.592144">
        <ele>1209.0</ele>
        <time>1989-12-30T23:59:59Z</time>
      </trkpt>
      <trkpt lat="38.350199" lon="-2.592099">
        <ele>1210.9</ele>
        <time>1989-12-30T23:59:59Z</time>
      </trkpt>
      <trkpt lat="38.350291" lon="-2.592147">
        <ele>1210.9</ele>
        <time>1989-12-30T23:59:59Z</time>
      </trkpt>
      <trkpt lat="38.350592" lon="-2.592444">
        <ele>1218.1</ele>
        <time>1989-12-30T23:59:59Z</time>
      </trkpt>
      <trkpt lat="38.350641" lon="-2.592550">
        <ele>1219.6</ele>
        <time>1989-12-30T23:59:59Z</time>
      </trkpt>
      <trkpt lat="38.350721" lon="-2.592626">
        <ele>1220.5</ele>
        <time>1989-12-30T23:59:59Z</time>
      </trkpt>
      <trkpt lat="38.350749" lon="-2.592758">
        <ele>1222.9</ele>
        <time>1989-12-30T23:59:59Z</time>
      </trkpt>
      <trkpt lat="38.350811" lon="-2.592811">
        <ele>1225.3</ele>
        <time>1989-12-30T23:59:59Z</time>
      </trkpt>
      <trkpt lat="38.351003" lon="-2.592799">
        <ele>1225.8</ele>
        <time>1989-12-30T23:59:59Z</time>
      </trkpt>
      <trkpt lat="38.351158" lon="-2.592677">
        <ele>1228.7</ele>
        <time>1989-12-30T23:59:59Z</time>
      </trkpt>
      <trkpt lat="38.351299" lon="-2.592530">
        <ele>1228.2</ele>
        <time>1989-12-30T23:59:59Z</time>
      </trkpt>
      <trkpt lat="38.351382" lon="-2.592460">
        <ele>1230.6</ele>
        <time>1989-12-30T23:59:59Z</time>
      </trkpt>
      <trkpt lat="38.351590" lon="-2.592363">
        <ele>1235.9</ele>
        <time>1989-12-30T23:59:59Z</time>
      </trkpt>
      <trkpt lat="38.351772" lon="-2.592339">
        <ele>1236.4</ele>
        <time>1989-12-30T23:59:59Z</time>
      </trkpt>
      <trkpt lat="38.351819" lon="-2.592270">
        <ele>1232.1</ele>
        <time>1989-12-30T23:59:59Z</time>
      </trkpt>
      <trkpt lat="38.351921" lon="-2.592176">
        <ele>1232.5</ele>
        <time>1989-12-30T23:59:59Z</time>
      </trkpt>
      <trkpt lat="38.352123" lon="-2.591935">
        <ele>1227.7</ele>
        <time>1989-12-30T23:59:59Z</time>
      </trkpt>
      <trkpt lat="38.352383" lon="-2.591752">
        <ele>1226.8</ele>
        <time>1989-12-30T23:59:59Z</time>
      </trkpt>
      <trkpt lat="38.352480" lon="-2.591688">
        <ele>1231.1</ele>
        <time>1989-12-30T23:59:59Z</time>
      </trkpt>
      <trkpt lat="38.352490" lon="-2.591631">
        <ele>1225.8</ele>
        <time>1989-12-30T23:59:59Z</time>
      </trkpt>
      <trkpt lat="38.352803" lon="-2.591432">
        <ele>1224.9</ele>
        <time>1989-12-30T23:59:59Z</time>
      </trkpt>
      <trkpt lat="38.352997" lon="-2.591387">
        <ele>1223.4</ele>
        <time>1989-12-30T23:59:59Z</time>
      </trkpt>
      <trkpt lat="38.353197" lon="-2.591392">
        <ele>1225.3</ele>
        <time>1989-12-30T23:59:59Z</time>
      </trkpt>
      <trkpt lat="38.353359" lon="-2.591304">
        <ele>1223.9</ele>
        <time>1989-12-30T23:59:59Z</time>
      </trkpt>
      <trkpt lat="38.353554" lon="-2.591255">
        <ele>1224.9</ele>
        <time>1989-12-30T23:59:59Z</time>
      </trkpt>
      <trkpt lat="38.353817" lon="-2.591139">
        <ele>1226.3</ele>
        <time>1989-12-30T23:59:59Z</time>
      </trkpt>
      <trkpt lat="38.354110" lon="-2.591128">
        <ele>1227.7</ele>
        <time>1989-12-30T23:59:59Z</time>
      </trkpt>
      <trkpt lat="38.354405" lon="-2.591004">
        <ele>1231.1</ele>
        <time>1989-12-30T23:59:59Z</time>
      </trkpt>
      <trkpt lat="38.354489" lon="-2.591044">
        <ele>1229.7</ele>
        <time>1989-12-30T23:59:59Z</time>
      </trkpt>
      <trkpt lat="38.354718" lon="-2.591263">
        <ele>1226.8</ele>
        <time>1989-12-30T23:59:59Z</time>
      </trkpt>
      <trkpt lat="38.354802" lon="-2.591322">
        <ele>1226.8</ele>
        <time>1989-12-30T23:59:59Z</time>
      </trkpt>
      <trkpt lat="38.354994" lon="-2.591394">
        <ele>1232.5</ele>
        <time>1989-12-30T23:59:59Z</time>
      </trkpt>
      <trkpt lat="38.355180" lon="-2.591385">
        <ele>1231.6</ele>
        <time>1989-12-30T23:59:59Z</time>
      </trkpt>
      <trkpt lat="38.355267" lon="-2.591405">
        <ele>1228.7</ele>
        <time>1989-12-30T23:59:59Z</time>
      </trkpt>
      <trkpt lat="38.355358" lon="-2.591387">
        <ele>1226.8</ele>
        <time>1989-12-30T23:59:59Z</time>
      </trkpt>
      <trkpt lat="38.355444" lon="-2.591415">
        <ele>1225.3</ele>
        <time>1989-12-30T23:59:59Z</time>
      </trkpt>
      <trkpt lat="38.355613" lon="-2.591536">
        <ele>1224.9</ele>
        <time>1989-12-30T23:59:59Z</time>
      </trkpt>
      <trkpt lat="38.355910" lon="-2.591574">
        <ele>1224.9</ele>
        <time>1989-12-30T23:59:59Z</time>
      </trkpt>
      <trkpt lat="38.356140" lon="-2.591500">
        <ele>1221.0</ele>
        <time>1989-12-30T23:59:59Z</time>
      </trkpt>
      <trkpt lat="38.356339" lon="-2.591380">
        <ele>1223.4</ele>
        <time>1989-12-30T23:59:59Z</time>
      </trkpt>
      <trkpt lat="38.356429" lon="-2.591359">
        <ele>1223.4</ele>
        <time>1989-12-30T23:59:59Z</time>
      </trkpt>
      <trkpt lat="38.356595" lon="-2.591329">
        <ele>1217.2</ele>
        <time>1989-12-30T23:59:59Z</time>
      </trkpt>
      <trkpt lat="38.356977" lon="-2.591201">
        <ele>1219.6</ele>
        <time>1989-12-30T23:59:59Z</time>
      </trkpt>
      <trkpt lat="38.357248" lon="-2.591059">
        <ele>1217.6</ele>
        <time>1989-12-30T23:59:59Z</time>
      </trkpt>
      <trkpt lat="38.357401" lon="-2.590935">
        <ele>1215.7</ele>
        <time>1989-12-30T23:59:59Z</time>
      </trkpt>
      <trkpt lat="38.357495" lon="-2.590927">
        <ele>1216.2</ele>
        <time>1989-12-30T23:59:59Z</time>
      </trkpt>
      <trkpt lat="38.357793" lon="-2.590949">
        <ele>1216.7</ele>
        <time>1989-12-30T23:59:59Z</time>
      </trkpt>
      <trkpt lat="38.358559" lon="-2.591134">
        <ele>1214.8</ele>
        <time>1989-12-30T23:59:59Z</time>
      </trkpt>
      <trkpt lat="38.358943" lon="-2.591188">
        <ele>1212.4</ele>
        <time>1989-12-30T23:59:59Z</time>
      </trkpt>
      <trkpt lat="38.359114" lon="-2.591159">
        <ele>1214.8</ele>
        <time>1989-12-30T23:59:59Z</time>
      </trkpt>
      <trkpt lat="38.359303" lon="-2.591149">
        <ele>1213.3</ele>
        <time>1989-12-30T23:59:59Z</time>
      </trkpt>
      <trkpt lat="38.359412" lon="-2.591095">
        <ele>1213.3</ele>
        <time>1989-12-30T23:59:59Z</time>
      </trkpt>
      <trkpt lat="38.359620" lon="-2.591054">
        <ele>1211.9</ele>
        <time>1989-12-30T23:59:59Z</time>
      </trkpt>
      <trkpt lat="38.359917" lon="-2.591080">
        <ele>1209.0</ele>
        <time>1989-12-30T23:59:59Z</time>
      </trkpt>
      <trkpt lat="38.360202" lon="-2.591195">
        <ele>1207.6</ele>
        <time>1989-12-30T23:59:59Z</time>
      </trkpt>
      <trkpt lat="38.360393" lon="-2.591166">
        <ele>1209.0</ele>
        <time>1989-12-30T23:59:59Z</time>
      </trkpt>
      <trkpt lat="38.360653" lon="-2.591198">
        <ele>1206.6</ele>
        <time>1989-12-30T23:59:59Z</time>
      </trkpt>
      <trkpt lat="38.360841" lon="-2.591248">
        <ele>1210.9</ele>
        <time>1989-12-30T23:59:59Z</time>
      </trkpt>
      <trkpt lat="38.360936" lon="-2.591199">
        <ele>1214.8</ele>
        <time>1989-12-30T23:59:59Z</time>
      </trkpt>
      <trkpt lat="38.360997" lon="-2.591252">
        <ele>1190.7</ele>
        <time>1989-12-30T23:59:59Z</time>
      </trkpt>
      <trkpt lat="38.361107" lon="-2.591267">
        <ele>1196.0</ele>
        <time>1989-12-30T23:59:59Z</time>
      </trkpt>
      <trkpt lat="38.361210" lon="-2.591231">
        <ele>1199.9</ele>
        <time>1989-12-30T23:59:59Z</time>
      </trkpt>
      <trkpt lat="38.361467" lon="-2.591120">
        <ele>1196.5</ele>
        <time>1989-12-30T23:59:59Z</time>
      </trkpt>
      <trkpt lat="38.361655" lon="-2.591087">
        <ele>1198.9</ele>
        <time>1989-12-30T23:59:59Z</time>
      </trkpt>
      <trkpt lat="38.361725" lon="-2.591103">
        <ele>1196.5</ele>
        <time>1989-12-30T23:59:59Z</time>
      </trkpt>
      <trkpt lat="38.361816" lon="-2.591100">
        <ele>1196.0</ele>
        <time>1989-12-30T23:59:59Z</time>
      </trkpt>
      <trkpt lat="38.362011" lon="-2.591154">
        <ele>1196.0</ele>
        <time>1989-12-30T23:59:59Z</time>
      </trkpt>
      <trkpt lat="38.362330" lon="-2.591413">
        <ele>1197.5</ele>
        <time>1989-12-30T23:59:59Z</time>
      </trkpt>
      <trkpt lat="38.362597" lon="-2.591531">
        <ele>1197.5</ele>
        <time>1989-12-30T23:59:59Z</time>
      </trkpt>
      <trkpt lat="38.362801" lon="-2.591554">
        <ele>1197.0</ele>
        <time>1989-12-30T23:59:59Z</time>
      </trkpt>
      <trkpt lat="38.363354" lon="-2.591513">
        <ele>1200.3</ele>
        <time>1989-12-30T23:59:59Z</time>
      </trkpt>
      <trkpt lat="38.363442" lon="-2.591482">
        <ele>1197.9</ele>
        <time>1989-12-30T23:59:59Z</time>
      </trkpt>
      <trkpt lat="38.363557" lon="-2.591564">
        <ele>1193.1</ele>
        <time>1989-12-30T23:59:59Z</time>
      </trkpt>
      <trkpt lat="38.363834" lon="-2.591662">
        <ele>1193.1</ele>
        <time>1989-12-30T23:59:59Z</time>
      </trkpt>
      <trkpt lat="38.364231" lon="-2.591763">
        <ele>1192.2</ele>
        <time>1989-12-30T23:59:59Z</time>
      </trkpt>
      <trkpt lat="38.364599" lon="-2.591810">
        <ele>1196.5</ele>
        <time>1989-12-30T23:59:59Z</time>
      </trkpt>
      <trkpt lat="38.365182" lon="-2.591760">
        <ele>1197.0</ele>
        <time>1989-12-30T23:59:59Z</time>
      </trkpt>
      <trkpt lat="38.365500" lon="-2.591690">
        <ele>1195.1</ele>
        <time>1989-12-30T23:59:59Z</time>
      </trkpt>
      <trkpt lat="38.365594" lon="-2.591630">
        <ele>1197.0</ele>
        <time>1989-12-30T23:59:59Z</time>
      </trkpt>
      <trkpt lat="38.365744" lon="-2.591471">
        <ele>1204.2</ele>
        <time>1989-12-30T23:59:59Z</time>
      </trkpt>
      <trkpt lat="38.366044" lon="-2.591415">
        <ele>1208.0</ele>
        <time>1989-12-30T23:59:59Z</time>
      </trkpt>
      <trkpt lat="38.366224" lon="-2.591382">
        <ele>1197.5</ele>
        <time>1989-12-30T23:59:59Z</time>
      </trkpt>
      <trkpt lat="38.366623" lon="-2.591312">
        <ele>1197.5</ele>
        <time>1989-12-30T23:59:59Z</time>
      </trkpt>
      <trkpt lat="38.366691" lon="-2.591288">
        <ele>1205.1</ele>
        <time>1989-12-30T23:59:59Z</time>
      </trkpt>
      <trkpt lat="38.366862" lon="-2.591202">
        <ele>1196.5</ele>
        <time>1989-12-30T23:59:59Z</time>
      </trkpt>
      <trkpt lat="38.366981" lon="-2.591187">
        <ele>1197.5</ele>
        <time>1989-12-30T23:59:59Z</time>
      </trkpt>
      <trkpt lat="38.367065" lon="-2.591191">
        <ele>1197.9</ele>
        <time>1989-12-30T23:59:59Z</time>
      </trkpt>
      <trkpt lat="38.367147" lon="-2.591239">
        <ele>1197.0</ele>
        <time>1989-12-30T23:59:59Z</time>
      </trkpt>
      <trkpt lat="38.367348" lon="-2.591514">
        <ele>1194.6</ele>
        <time>1989-12-30T23:59:59Z</time>
      </trkpt>
      <trkpt lat="38.367430" lon="-2.591745">
        <ele>1192.2</ele>
        <time>1989-12-30T23:59:59Z</time>
      </trkpt>
      <trkpt lat="38.367638" lon="-2.592004">
        <ele>1188.8</ele>
        <time>1989-12-30T23:59:59Z</time>
      </trkpt>
      <trkpt lat="38.367826" lon="-2.592095">
        <ele>1185.0</ele>
        <time>1989-12-30T23:59:59Z</time>
      </trkpt>
      <trkpt lat="38.368009" lon="-2.592144">
        <ele>1183.5</ele>
        <time>1989-12-30T23:59:59Z</time>
      </trkpt>
      <trkpt lat="38.368153" lon="-2.592299">
        <ele>1183.5</ele>
        <time>1989-12-30T23:59:59Z</time>
      </trkpt>
      <trkpt lat="38.368322" lon="-2.592419">
        <ele>1177.8</ele>
        <time>1989-12-30T23:59:59Z</time>
      </trkpt>
      <trkpt lat="38.368480" lon="-2.592629">
        <ele>1174.9</ele>
        <time>1989-12-30T23:59:59Z</time>
      </trkpt>
      <trkpt lat="38.368523" lon="-2.592735">
        <ele>1170.1</ele>
        <time>1989-12-30T23:59:59Z</time>
      </trkpt>
      <trkpt lat="38.368548" lon="-2.592841">
        <ele>1171.0</ele>
        <time>1989-12-30T23:59:59Z</time>
      </trkpt>
      <trkpt lat="38.368590" lon="-2.593031">
        <ele>1164.3</ele>
        <time>1989-12-30T23:59:59Z</time>
      </trkpt>
      <trkpt lat="38.368655" lon="-2.593258">
        <ele>1158.5</ele>
        <time>1989-12-30T23:59:59Z</time>
      </trkpt>
      <trkpt lat="38.368817" lon="-2.593400">
        <ele>1156.1</ele>
        <time>1989-12-30T23:59:59Z</time>
      </trkpt>
      <trkpt lat="38.368894" lon="-2.593429">
        <ele>1153.7</ele>
        <time>1989-12-30T23:59:59Z</time>
      </trkpt>
      <trkpt lat="38.368968" lon="-2.593509">
        <ele>1150.4</ele>
        <time>1989-12-30T23:59:59Z</time>
      </trkpt>
      <trkpt lat="38.369101" lon="-2.593379">
        <ele>1148.4</ele>
        <time>1989-12-30T23:59:59Z</time>
      </trkpt>
      <trkpt lat="38.369130" lon="-2.593269">
        <ele>1148.0</ele>
        <time>1989-12-30T23:59:59Z</time>
      </trkpt>
      <trkpt lat="38.369177" lon="-2.593094">
        <ele>1146.5</ele>
        <time>1989-12-30T23:59:59Z</time>
      </trkpt>
      <trkpt lat="38.369177" lon="-2.593094">
        <ele>1141.2</ele>
        <time>1989-12-30T23:59:59Z</time>
      </trkpt>
      <trkpt lat="38.369332" lon="-2.592808">
        <ele>1141.2</ele>
        <time>1989-12-30T23:59:59Z</time>
      </trkpt>
      <trkpt lat="38.369505" lon="-2.592588">
        <ele>1142.2</ele>
        <time>1989-12-30T23:59:59Z</time>
      </trkpt>
      <trkpt lat="38.369604" lon="-2.592243">
        <ele>1139.3</ele>
        <time>1989-12-30T23:59:59Z</time>
      </trkpt>
      <trkpt lat="38.369593" lon="-2.591861">
        <ele>1134.5</ele>
        <time>1989-12-30T23:59:59Z</time>
      </trkpt>
      <trkpt lat="38.369533" lon="-2.591711">
        <ele>1127.8</ele>
        <time>1989-12-30T23:59:59Z</time>
      </trkpt>
      <trkpt lat="38.369540" lon="-2.591600">
        <ele>1126.3</ele>
        <time>1989-12-30T23:59:59Z</time>
      </trkpt>
      <trkpt lat="38.369584" lon="-2.591463">
        <ele>1127.8</ele>
        <time>1989-12-30T23:59:59Z</time>
      </trkpt>
      <trkpt lat="38.369542" lon="-2.591185">
        <ele>1127.3</ele>
        <time>1989-12-30T23:59:59Z</time>
      </trkpt>
      <trkpt lat="38.369419" lon="-2.590938">
        <ele>1126.3</ele>
        <time>1989-12-30T23:59:59Z</time>
      </trkpt>
      <trkpt lat="38.369299" lon="-2.590626">
        <ele>1127.3</ele>
        <time>1989-12-30T23:59:59Z</time>
      </trkpt>
      <trkpt lat="38.369177" lon="-2.589925">
        <ele>1125.4</ele>
        <time>1989-12-30T23:59:59Z</time>
      </trkpt>
      <trkpt lat="38.369165" lon="-2.589395">
        <ele>1123.4</ele>
        <time>1989-12-30T23:59:59Z</time>
      </trkpt>
      <trkpt lat="38.369236" lon="-2.589268">
        <ele>1121.0</ele>
        <time>1989-12-30T23:59:59Z</time>
      </trkpt>
      <trkpt lat="38.369318" lon="-2.589042">
        <ele>1119.6</ele>
        <time>1989-12-30T23:59:59Z</time>
      </trkpt>
      <trkpt lat="38.369440" lon="-2.588718">
        <ele>1109.0</ele>
        <time>1989-12-30T23:59:59Z</time>
      </trkpt>
      <trkpt lat="38.369489" lon="-2.588575">
        <ele>1107.1</ele>
        <time>1989-12-30T23:59:59Z</time>
      </trkpt>
      <trkpt lat="38.369786" lon="-2.588251">
        <ele>1101.3</ele>
        <time>1989-12-30T23:59:59Z</time>
      </trkpt>
      <trkpt lat="38.369903" lon="-2.588080">
        <ele>1086.9</ele>
        <time>1989-12-30T23:59:59Z</time>
      </trkpt>
      <trkpt lat="38.369886" lon="-2.588244">
        <ele>1086.9</ele>
        <time>1989-12-30T23:59:59Z</time>
      </trkpt>
      <trkpt lat="38.369886" lon="-2.588459">
        <ele>1082.1</ele>
        <time>1989-12-30T23:59:59Z</time>
      </trkpt>
      <trkpt lat="38.370028" lon="-2.588316">
        <ele>1081.6</ele>
        <time>1989-12-30T23:59:59Z</time>
      </trkpt>
      <trkpt lat="38.370102" lon="-2.588123">
        <ele>1081.1</ele>
        <time>1989-12-30T23:59:59Z</time>
      </trkpt>
      <trkpt lat="38.370150" lon="-2.587998">
        <ele>1066.2</ele>
        <time>1989-12-30T23:59:59Z</time>
      </trkpt>
      <trkpt lat="38.370169" lon="-2.588123">
        <ele>1071.5</ele>
        <time>1989-12-30T23:59:59Z</time>
      </trkpt>
      <trkpt lat="38.370126" lon="-2.588307">
        <ele>1037.4</ele>
        <time>1989-12-30T23:59:59Z</time>
      </trkpt>
      <trkpt lat="38.370116" lon="-2.588498">
        <ele>1057.6</ele>
        <time>1989-12-30T23:59:59Z</time>
      </trkpt>
      <trkpt lat="38.370121" lon="-2.588958">
        <ele>1057.1</ele>
        <time>1989-12-30T23:59:59Z</time>
      </trkpt>
      <trkpt lat="38.370130" lon="-2.589468">
        <ele>1051.8</ele>
        <time>1989-12-30T23:59:59Z</time>
      </trkpt>
      <trkpt lat="38.370159" lon="-2.589761">
        <ele>1053.3</ele>
        <time>1989-12-30T23:59:59Z</time>
      </trkpt>
      <trkpt lat="38.370312" lon="-2.589955">
        <ele>1044.6</ele>
        <time>1989-12-30T23:59:59Z</time>
      </trkpt>
      <trkpt lat="38.370263" lon="-2.589530">
        <ele>1043.6</ele>
        <time>1989-12-30T23:59:59Z</time>
      </trkpt>
      <trkpt lat="38.370308" lon="-2.589412">
        <ele>1040.8</ele>
        <time>1989-12-30T23:59:59Z</time>
      </trkpt>
      <trkpt lat="38.370437" lon="-2.589177">
        <ele>1040.8</ele>
        <time>1989-12-30T23:59:59Z</time>
      </trkpt>
      <trkpt lat="38.370595" lon="-2.589024">
        <ele>1039.8</ele>
        <time>1989-12-30T23:59:59Z</time>
      </trkpt>
      <trkpt lat="38.370777" lon="-2.588755">
        <ele>1037.4</ele>
        <time>1989-12-30T23:59:59Z</time>
      </trkpt>
      <trkpt lat="38.371053" lon="-2.588223">
        <ele>1018.2</ele>
        <time>1989-12-30T23:59:59Z</time>
      </trkpt>
      <trkpt lat="38.371016" lon="-2.588372">
        <ele>1015.3</ele>
        <time>1989-12-30T23:59:59Z</time>
      </trkpt>
      <trkpt lat="38.370933" lon="-2.588596">
        <ele>1014.3</ele>
        <time>1989-12-30T23:59:59Z</time>
      </trkpt>
      <trkpt lat="38.370824" lon="-2.588800">
        <ele>1012.4</ele>
        <time>1989-12-30T23:59:59Z</time>
      </trkpt>
      <trkpt lat="38.370794" lon="-2.588903">
        <ele>1016.3</ele>
        <time>1989-12-30T23:59:59Z</time>
      </trkpt>
      <trkpt lat="38.370830" lon="-2.589040">
        <ele>1015.3</ele>
        <time>1989-12-30T23:59:59Z</time>
      </trkpt>
      <trkpt lat="38.370857" lon="-2.589164">
        <ele>1010.0</ele>
        <time>1989-12-30T23:59:59Z</time>
      </trkpt>
      <trkpt lat="38.370904" lon="-2.589153">
        <ele>1006.6</ele>
        <time>1989-12-30T23:59:59Z</time>
      </trkpt>
      <trkpt lat="38.371199" lon="-2.588672">
        <ele>1001.8</ele>
        <time>1989-12-30T23:59:59Z</time>
      </trkpt>
      <trkpt lat="38.371395" lon="-2.588201">
        <ele>995.1</ele>
        <time>1989-12-30T23:59:59Z</time>
      </trkpt>
      <trkpt lat="38.371439" lon="-2.588037">
        <ele>993.7</ele>
        <time>1989-12-30T23:59:59Z</time>
      </trkpt>
      <trkpt lat="38.371480" lon="-2.588179">
        <ele>985.0</ele>
        <time>1989-12-30T23:59:59Z</time>
      </trkpt>
      <trkpt lat="38.371520" lon="-2.588429">
        <ele>976.4</ele>
        <time>1989-12-30T23:59:59Z</time>
      </trkpt>
      <trkpt lat="38.371502" lon="-2.588777">
        <ele>973.5</ele>
        <time>1989-12-30T23:59:59Z</time>
      </trkpt>
      <trkpt lat="38.371328" lon="-2.589355">
        <ele>973.0</ele>
        <time>1989-12-30T23:59:59Z</time>
      </trkpt>
      <trkpt lat="38.371400" lon="-2.589581">
        <ele>968.7</ele>
        <time>1989-12-30T23:59:59Z</time>
      </trkpt>
      <trkpt lat="38.371459" lon="-2.589669">
        <ele>967.2</ele>
        <time>1989-12-30T23:59:59Z</time>
      </trkpt>
      <trkpt lat="38.371670" lon="-2.589726">
        <ele>961.9</ele>
        <time>1989-12-30T23:59:59Z</time>
      </trkpt>
      <trkpt lat="38.371874" lon="-2.589809">
        <ele>959.5</ele>
        <time>1989-12-30T23:59:59Z</time>
      </trkpt>
      <trkpt lat="38.371946" lon="-2.589791">
        <ele>956.2</ele>
        <time>1989-12-30T23:59:59Z</time>
      </trkpt>
      <trkpt lat="38.371747" lon="-2.589437">
        <ele>949.9</ele>
        <time>1989-12-30T23:59:59Z</time>
      </trkpt>
      <trkpt lat="38.371664" lon="-2.589246">
        <ele>951.4</ele>
        <time>1989-12-30T23:59:59Z</time>
      </trkpt>
      <trkpt lat="38.371802" lon="-2.589026">
        <ele>950.9</ele>
        <time>1989-12-30T23:59:59Z</time>
      </trkpt>
      <trkpt lat="38.371908" lon="-2.588979">
        <ele>946.1</ele>
        <time>1989-12-30T23:59:59Z</time>
      </trkpt>
      <trkpt lat="38.371876" lon="-2.589239">
        <ele>945.6</ele>
        <time>1989-12-30T23:59:59Z</time>
      </trkpt>
      <trkpt lat="38.371939" lon="-2.589343">
        <ele>943.7</ele>
        <time>1989-12-30T23:59:59Z</time>
      </trkpt>
      <trkpt lat="38.372036" lon="-2.589413">
        <ele>941.3</ele>
        <time>1989-12-30T23:59:59Z</time>
      </trkpt>
      <trkpt lat="38.372113" lon="-2.589128">
        <ele>934.5</ele>
        <time>1989-12-30T23:59:59Z</time>
      </trkpt>
      <trkpt lat="38.372258" lon="-2.588875">
        <ele>932.1</ele>
        <time>1989-12-30T23:59:59Z</time>
      </trkpt>
      <trkpt lat="38.372371" lon="-2.588764">
        <ele>930.2</ele>
        <time>1989-12-30T23:59:59Z</time>
      </trkpt>
      <trkpt lat="38.372665" lon="-2.588440">
        <ele>919.2</ele>
        <time>1989-12-30T23:59:59Z</time>
      </trkpt>
      <trkpt lat="38.372660" lon="-2.588579">
        <ele>916.8</ele>
        <time>1989-12-30T23:59:59Z</time>
      </trkpt>
      <trkpt lat="38.372618" lon="-2.588708">
        <ele>915.3</ele>
        <time>1989-12-30T23:59:59Z</time>
      </trkpt>
      <trkpt lat="38.372515" lon="-2.588823">
        <ele>914.4</ele>
        <time>1989-12-30T23:59:59Z</time>
      </trkpt>
      <trkpt lat="38.372473" lon="-2.588937">
        <ele>914.4</ele>
        <time>1989-12-30T23:59:59Z</time>
      </trkpt>
      <trkpt lat="38.372489" lon="-2.589049">
        <ele>913.4</ele>
        <time>1989-12-30T23:59:59Z</time>
      </trkpt>
      <trkpt lat="38.372679" lon="-2.589167">
        <ele>912.9</ele>
        <time>1989-12-30T23:59:59Z</time>
      </trkpt>
      <trkpt lat="38.372766" lon="-2.589133">
        <ele>910.5</ele>
        <time>1989-12-30T23:59:59Z</time>
      </trkpt>
      <trkpt lat="38.372828" lon="-2.588989">
        <ele>910.0</ele>
        <time>1989-12-30T23:59:59Z</time>
      </trkpt>
      <trkpt lat="38.372852" lon="-2.588973">
        <ele>913.9</ele>
        <time>1989-12-30T23:59:59Z</time>
      </trkpt>
      <trkpt lat="38.372960" lon="-2.588999">
        <ele>902.8</ele>
        <time>1989-12-30T23:59:59Z</time>
      </trkpt>
      <trkpt lat="38.373100" lon="-2.588963">
        <ele>897.0</ele>
        <time>1989-12-30T23:59:59Z</time>
      </trkpt>
      <trkpt lat="38.373136" lon="-2.588785">
        <ele>894.6</ele>
        <time>1989-12-30T23:59:59Z</time>
      </trkpt>
      <trkpt lat="38.373122" lon="-2.588674">
        <ele>889.8</ele>
        <time>1989-12-30T23:59:59Z</time>
      </trkpt>
      <trkpt lat="38.373222" lon="-2.588303">
        <ele>888.4</ele>
        <time>1989-12-30T23:59:59Z</time>
      </trkpt>
      <trkpt lat="38.373224" lon="-2.588302">
        <ele>882.6</ele>
        <time>1989-12-30T23:59:59Z</time>
      </trkpt>
      <trkpt lat="38.373238" lon="-2.587847">
        <ele>876.9</ele>
        <time>1989-12-30T23:59:59Z</time>
      </trkpt>
      <trkpt lat="38.373239" lon="-2.587741">
        <ele>880.2</ele>
        <time>1989-12-30T23:59:59Z</time>
      </trkpt>
      <trkpt lat="38.373345" lon="-2.587053">
        <ele>872.1</ele>
        <time>1989-12-30T23:59:59Z</time>
      </trkpt>
      <trkpt lat="38.373501" lon="-2.586394">
        <ele>877.3</ele>
        <time>1989-12-30T23:59:59Z</time>
      </trkpt>
      <trkpt lat="38.373455" lon="-2.586208">
        <ele>882.1</ele>
        <time>1989-12-30T23:59:59Z</time>
      </trkpt>
      <trkpt lat="38.373327" lon="-2.586055">
        <ele>859.6</ele>
        <time>1989-12-30T23:59:59Z</time>
      </trkpt>
      <trkpt lat="38.373238" lon="-2.585937">
        <ele>859.6</ele>
        <time>1989-12-30T23:59:59Z</time>
      </trkpt>
      <trkpt lat="38.373406" lon="-2.585762">
        <ele>852.3</ele>
        <time>1989-12-30T23:59:59Z</time>
      </trkpt>
      <trkpt lat="38.373492" lon="-2.585436">
        <ele>850.4</ele>
        <time>1989-12-30T23:59:59Z</time>
      </trkpt>
      <trkpt lat="38.373686" lon="-2.585357">
        <ele>846.1</ele>
        <time>1989-12-30T23:59:59Z</time>
      </trkpt>
      <trkpt lat="38.373842" lon="-2.585206">
        <ele>846.6</ele>
        <time>1989-12-30T23:59:59Z</time>
      </trkpt>
      <trkpt lat="38.373904" lon="-2.584304">
        <ele>843.2</ele>
        <time>1989-12-30T23:59:59Z</time>
      </trkpt>
      <trkpt lat="38.373917" lon="-2.584245">
        <ele>837.0</ele>
        <time>1989-12-30T23:59:59Z</time>
      </trkpt>
      <trkpt lat="38.373831" lon="-2.583934">
        <ele>836.5</ele>
        <time>1989-12-30T23:59:59Z</time>
      </trkpt>
      <trkpt lat="38.374106" lon="-2.583583">
        <ele>837.9</ele>
        <time>1989-12-30T23:59:59Z</time>
      </trkpt>
      <trkpt lat="38.374145" lon="-2.583331">
        <ele>835.5</ele>
        <time>1989-12-30T23:59:59Z</time>
      </trkpt>
      <trkpt lat="38.373953" lon="-2.582806">
        <ele>825.9</ele>
        <time>1989-12-30T23:59:59Z</time>
      </trkpt>
      <trkpt lat="38.373596" lon="-2.582786">
        <ele>822.5</ele>
        <time>1989-12-30T23:59:59Z</time>
      </trkpt>
      <trkpt lat="38.373462" lon="-2.582618">
        <ele>821.1</ele>
        <time>1989-12-30T23:59:59Z</time>
      </trkpt>
      <trkpt lat="38.373186" lon="-2.582490">
        <ele>816.3</ele>
        <time>1989-12-30T23:59:59Z</time>
      </trkpt>
      <trkpt lat="38.372742" lon="-2.581775">
        <ele>808.6</ele>
        <time>1989-12-30T23:59:59Z</time>
      </trkpt>
      <trkpt lat="38.372662" lon="-2.581547">
        <ele>806.2</ele>
        <time>1989-12-30T23:59:59Z</time>
      </trkpt>
      <trkpt lat="38.372352" lon="-2.581432">
        <ele>799.0</ele>
        <time>1989-12-30T23:59:59Z</time>
      </trkpt>
      <trkpt lat="38.372048" lon="-2.581165">
        <ele>795.6</ele>
        <time>1989-12-30T23:59:59Z</time>
      </trkpt>
      <trkpt lat="38.371645" lon="-2.580992">
        <ele>793.2</ele>
        <time>1989-12-30T23:59:59Z</time>
      </trkpt>
      <trkpt lat="38.371584" lon="-2.580509">
        <ele>795.1</ele>
        <time>1989-12-30T23:59:59Z</time>
      </trkpt>
      <trkpt lat="38.370982" lon="-2.580020">
        <ele>796.1</ele>
        <time>1989-12-30T23:59:59Z</time>
      </trkpt>
      <trkpt lat="38.370833" lon="-2.579731">
        <ele>796.6</ele>
        <time>1989-12-30T23:59:59Z</time>
      </trkpt>
      <trkpt lat="38.370559" lon="-2.579638">
        <ele>796.6</ele>
        <time>1989-12-30T23:59:59Z</time>
      </trkpt>
      <trkpt lat="38.370087" lon="-2.579679">
        <ele>789.4</ele>
        <time>1989-12-30T23:59:59Z</time>
      </trkpt>
      <trkpt lat="38.369752" lon="-2.579175">
        <ele>793.7</ele>
        <time>1989-12-30T23:59:59Z</time>
      </trkpt>
      <trkpt lat="38.369551" lon="-2.579120">
        <ele>785.5</ele>
        <time>1989-12-30T23:59:59Z</time>
      </trkpt>
      <trkpt lat="38.369210" lon="-2.578987">
        <ele>792.7</ele>
        <time>1989-12-30T23:59:59Z</time>
      </trkpt>
      <trkpt lat="38.369178" lon="-2.579002">
        <ele>777.4</ele>
        <time>1989-12-30T23:59:59Z</time>
      </trkpt>
    </trkseg>
  </trk>
</gpx>
